<?xml version="1.0" encoding="UTF-8"?>
<gpx version="1.1" creator="https://www.youtrack.es" xsi:schemaLocation="http://www.topografix.com/GPX/1/1 http://www.topografix.com/GPX/1/1/gpx.xsd http://www.garmin.com/xmlschemas/GpxExtensions/v3 http://www.garmin.com/xmlschemas/GpxExtensionsv3.xsd http://www.garmin.com/xmlschemas/TrackPointExtension/v1 http://www.garmin.com/xmlschemas/TrackPointExtensionv1.xsd" xmlns:gpxtpx="http://www.garmin.com/xmlschemas/TrackPointExtension/v1" xmlns:gpxx="http://www.garmin.com/xmlschemas/GpxExtensions/v3" xmlns:xsi="http://www.w3.org/2001/XMLSchema-instance">
  <metadata>
    <link href="https://www.youtrack.es">
      <text>YouTrack.es</text>
    </link>
    <time>2026-05-08T10:44:22Z</time>
  </metadata>
  <trk>
    <src>https://www.youtrack.es</src>
    <link href="https://www.youtrack.es/ruta/5251-lara">
      <text>YouTrack.es</text>
    </link>
    <trkseg>
      <trkpt lat="43.213707" lon="-4.904149">
        <ele>440.252</ele>
        <time>2018-10-13T08:07:44Z</time>
      </trkpt>
      <trkpt lat="43.213654" lon="-4.904124">
        <ele>440.253</ele>
        <time>2018-10-13T08:07:51Z</time>
      </trkpt>
      <trkpt lat="43.213626" lon="-4.904186">
        <ele>440.208</ele>
        <time>2018-10-13T08:07:54Z</time>
      </trkpt>
      <trkpt lat="43.213583" lon="-4.904211">
        <ele>440.208</ele>
        <time>2018-10-13T08:07:56Z</time>
      </trkpt>
      <trkpt lat="43.213552" lon="-4.904269">
        <ele>440.267</ele>
        <time>2018-10-13T08:08:01Z</time>
      </trkpt>
      <trkpt lat="43.213523" lon="-4.904331">
        <ele>440.234</ele>
        <time>2018-10-13T08:08:07Z</time>
      </trkpt>
      <trkpt lat="43.213492" lon="-4.904382">
        <ele>440.243</ele>
        <time>2018-10-13T08:08:11Z</time>
      </trkpt>
      <trkpt lat="43.213473" lon="-4.904442">
        <ele>440.240</ele>
        <time>2018-10-13T08:08:15Z</time>
      </trkpt>
      <trkpt lat="43.213484" lon="-4.904514">
        <ele>440.221</ele>
        <time>2018-10-13T08:08:20Z</time>
      </trkpt>
      <trkpt lat="43.213462" lon="-4.904571">
        <ele>440.270</ele>
        <time>2018-10-13T08:08:25Z</time>
      </trkpt>
      <trkpt lat="43.213437" lon="-4.904641">
        <ele>440.256</ele>
        <time>2018-10-13T08:08:29Z</time>
      </trkpt>
      <trkpt lat="43.213426" lon="-4.904704">
        <ele>440.354</ele>
        <time>2018-10-13T08:08:33Z</time>
      </trkpt>
      <trkpt lat="43.213405" lon="-4.904776">
        <ele>440.551</ele>
        <time>2018-10-13T08:08:37Z</time>
      </trkpt>
      <trkpt lat="43.213404" lon="-4.904844">
        <ele>440.701</ele>
        <time>2018-10-13T08:08:41Z</time>
      </trkpt>
      <trkpt lat="43.213414" lon="-4.904911">
        <ele>441.011</ele>
        <time>2018-10-13T08:08:45Z</time>
      </trkpt>
      <trkpt lat="43.213418" lon="-4.904978">
        <ele>441.408</ele>
        <time>2018-10-13T08:08:49Z</time>
      </trkpt>
      <trkpt lat="43.213392" lon="-4.905041">
        <ele>442.267</ele>
        <time>2018-10-13T08:08:55Z</time>
      </trkpt>
      <trkpt lat="43.213382" lon="-4.905104">
        <ele>442.154</ele>
        <time>2018-10-13T08:09:26Z</time>
      </trkpt>
      <trkpt lat="43.213371" lon="-4.905171">
        <ele>442.463</ele>
        <time>2018-10-13T08:09:31Z</time>
      </trkpt>
      <trkpt lat="43.213367" lon="-4.905236">
        <ele>444.120</ele>
        <time>2018-10-13T08:10:02Z</time>
      </trkpt>
      <trkpt lat="43.213369" lon="-4.905298">
        <ele>443.981</ele>
        <time>2018-10-13T08:10:07Z</time>
      </trkpt>
      <trkpt lat="43.213414" lon="-4.905328">
        <ele>444.920</ele>
        <time>2018-10-13T08:11:46Z</time>
      </trkpt>
      <trkpt lat="43.213465" lon="-4.905351">
        <ele>444.096</ele>
        <time>2018-10-13T08:11:51Z</time>
      </trkpt>
      <trkpt lat="43.213511" lon="-4.905388">
        <ele>444.644</ele>
        <time>2018-10-13T08:11:55Z</time>
      </trkpt>
      <trkpt lat="43.213520" lon="-4.905466">
        <ele>445.452</ele>
        <time>2018-10-13T08:12:00Z</time>
      </trkpt>
      <trkpt lat="43.213553" lon="-4.905519">
        <ele>446.253</ele>
        <time>2018-10-13T08:12:04Z</time>
      </trkpt>
      <trkpt lat="43.213554" lon="-4.905596">
        <ele>447.308</ele>
        <time>2018-10-13T08:12:10Z</time>
      </trkpt>
      <trkpt lat="43.213551" lon="-4.905659">
        <ele>448.108</ele>
        <time>2018-10-13T08:12:14Z</time>
      </trkpt>
      <trkpt lat="43.213541" lon="-4.905721">
        <ele>448.887</ele>
        <time>2018-10-13T08:12:18Z</time>
      </trkpt>
      <trkpt lat="43.213531" lon="-4.905784">
        <ele>449.654</ele>
        <time>2018-10-13T08:12:23Z</time>
      </trkpt>
      <trkpt lat="43.213518" lon="-4.905847">
        <ele>449.883</ele>
        <time>2018-10-13T08:12:27Z</time>
      </trkpt>
      <trkpt lat="43.213496" lon="-4.905910">
        <ele>450.230</ele>
        <time>2018-10-13T08:12:31Z</time>
      </trkpt>
      <trkpt lat="43.213467" lon="-4.905964">
        <ele>450.741</ele>
        <time>2018-10-13T08:12:35Z</time>
      </trkpt>
      <trkpt lat="43.213439" lon="-4.906034">
        <ele>451.350</ele>
        <time>2018-10-13T08:12:39Z</time>
      </trkpt>
      <trkpt lat="43.213424" lon="-4.906096">
        <ele>451.976</ele>
        <time>2018-10-13T08:12:43Z</time>
      </trkpt>
      <trkpt lat="43.213407" lon="-4.906158">
        <ele>452.484</ele>
        <time>2018-10-13T08:12:47Z</time>
      </trkpt>
      <trkpt lat="43.213398" lon="-4.906225">
        <ele>452.962</ele>
        <time>2018-10-13T08:12:52Z</time>
      </trkpt>
      <trkpt lat="43.213389" lon="-4.906293">
        <ele>453.283</ele>
        <time>2018-10-13T08:12:56Z</time>
      </trkpt>
      <trkpt lat="43.213392" lon="-4.906361">
        <ele>453.511</ele>
        <time>2018-10-13T08:12:59Z</time>
      </trkpt>
      <trkpt lat="43.213395" lon="-4.906429">
        <ele>453.908</ele>
        <time>2018-10-13T08:13:03Z</time>
      </trkpt>
      <trkpt lat="43.213404" lon="-4.906490">
        <ele>455.288</ele>
        <time>2018-10-13T08:13:12Z</time>
      </trkpt>
      <trkpt lat="43.213399" lon="-4.906553">
        <ele>454.895</ele>
        <time>2018-10-13T08:14:41Z</time>
      </trkpt>
      <trkpt lat="43.213361" lon="-4.906607">
        <ele>453.854</ele>
        <time>2018-10-13T08:14:47Z</time>
      </trkpt>
      <trkpt lat="43.213359" lon="-4.906671">
        <ele>452.791</ele>
        <time>2018-10-13T08:14:54Z</time>
      </trkpt>
      <trkpt lat="43.213373" lon="-4.906733">
        <ele>450.972</ele>
        <time>2018-10-13T08:15:08Z</time>
      </trkpt>
      <trkpt lat="43.213339" lon="-4.906811">
        <ele>450.751</ele>
        <time>2018-10-13T08:17:19Z</time>
      </trkpt>
      <trkpt lat="43.213365" lon="-4.906861">
        <ele>451.027</ele>
        <time>2018-10-13T08:17:52Z</time>
      </trkpt>
      <trkpt lat="43.213380" lon="-4.906919">
        <ele>451.395</ele>
        <time>2018-10-13T08:17:57Z</time>
      </trkpt>
      <trkpt lat="43.213390" lon="-4.906981">
        <ele>451.585</ele>
        <time>2018-10-13T08:18:00Z</time>
      </trkpt>
      <trkpt lat="43.213422" lon="-4.907035">
        <ele>452.089</ele>
        <time>2018-10-13T08:18:04Z</time>
      </trkpt>
      <trkpt lat="43.213464" lon="-4.907102">
        <ele>455.317</ele>
        <time>2018-10-13T08:18:28Z</time>
      </trkpt>
      <trkpt lat="43.213439" lon="-4.907154">
        <ele>455.908</ele>
        <time>2018-10-13T08:18:32Z</time>
      </trkpt>
      <trkpt lat="43.213440" lon="-4.907217">
        <ele>456.880</ele>
        <time>2018-10-13T08:18:38Z</time>
      </trkpt>
      <trkpt lat="43.213480" lon="-4.907255">
        <ele>457.427</ele>
        <time>2018-10-13T08:18:43Z</time>
      </trkpt>
      <trkpt lat="43.213502" lon="-4.907310">
        <ele>458.196</ele>
        <time>2018-10-13T08:18:48Z</time>
      </trkpt>
      <trkpt lat="43.213520" lon="-4.907367">
        <ele>458.893</ele>
        <time>2018-10-13T08:18:59Z</time>
      </trkpt>
      <trkpt lat="43.213523" lon="-4.907429">
        <ele>460.614</ele>
        <time>2018-10-13T08:19:12Z</time>
      </trkpt>
      <trkpt lat="43.213512" lon="-4.907495">
        <ele>461.323</ele>
        <time>2018-10-13T08:19:17Z</time>
      </trkpt>
      <trkpt lat="43.213496" lon="-4.907553">
        <ele>461.689</ele>
        <time>2018-10-13T08:19:21Z</time>
      </trkpt>
      <trkpt lat="43.213466" lon="-4.907610">
        <ele>462.137</ele>
        <time>2018-10-13T08:19:26Z</time>
      </trkpt>
      <trkpt lat="43.213449" lon="-4.907670">
        <ele>463.169</ele>
        <time>2018-10-13T08:19:34Z</time>
      </trkpt>
      <trkpt lat="43.213447" lon="-4.907770">
        <ele>466.004</ele>
        <time>2018-10-13T08:19:56Z</time>
      </trkpt>
      <trkpt lat="43.213433" lon="-4.907837">
        <ele>467.724</ele>
        <time>2018-10-13T08:20:14Z</time>
      </trkpt>
      <trkpt lat="43.213388" lon="-4.907830">
        <ele>468.408</ele>
        <time>2018-10-13T08:20:19Z</time>
      </trkpt>
      <trkpt lat="43.213345" lon="-4.907863">
        <ele>468.888</ele>
        <time>2018-10-13T08:20:23Z</time>
      </trkpt>
      <trkpt lat="43.213336" lon="-4.907932">
        <ele>470.525</ele>
        <time>2018-10-13T08:20:36Z</time>
      </trkpt>
      <trkpt lat="43.213339" lon="-4.907995">
        <ele>474.094</ele>
        <time>2018-10-13T08:20:58Z</time>
      </trkpt>
      <trkpt lat="43.213382" lon="-4.908048">
        <ele>474.871</ele>
        <time>2018-10-13T08:21:04Z</time>
      </trkpt>
      <trkpt lat="43.213341" lon="-4.908100">
        <ele>476.622</ele>
        <time>2018-10-13T08:21:21Z</time>
      </trkpt>
      <trkpt lat="43.213311" lon="-4.908153">
        <ele>477.331</ele>
        <time>2018-10-13T08:21:26Z</time>
      </trkpt>
      <trkpt lat="43.213265" lon="-4.908199">
        <ele>479.717</ele>
        <time>2018-10-13T08:21:43Z</time>
      </trkpt>
      <trkpt lat="43.213197" lon="-4.908216">
        <ele>480.885</ele>
        <time>2018-10-13T08:21:56Z</time>
      </trkpt>
      <trkpt lat="43.213156" lon="-4.908181">
        <ele>482.295</ele>
        <time>2018-10-13T08:22:12Z</time>
      </trkpt>
      <trkpt lat="43.213123" lon="-4.908136">
        <ele>483.849</ele>
        <time>2018-10-13T08:22:21Z</time>
      </trkpt>
      <trkpt lat="43.213106" lon="-4.908077">
        <ele>485.423</ele>
        <time>2018-10-13T08:22:27Z</time>
      </trkpt>
      <trkpt lat="43.213043" lon="-4.908073">
        <ele>486.008</ele>
        <time>2018-10-13T08:22:35Z</time>
      </trkpt>
      <trkpt lat="43.213033" lon="-4.908138">
        <ele>488.291</ele>
        <time>2018-10-13T08:23:05Z</time>
      </trkpt>
      <trkpt lat="43.213040" lon="-4.908229">
        <ele>492.558</ele>
        <time>2018-10-13T08:23:56Z</time>
      </trkpt>
      <trkpt lat="43.213036" lon="-4.908292">
        <ele>494.467</ele>
        <time>2018-10-13T08:25:15Z</time>
      </trkpt>
      <trkpt lat="43.213023" lon="-4.908353">
        <ele>495.894</ele>
        <time>2018-10-13T08:25:26Z</time>
      </trkpt>
      <trkpt lat="43.213023" lon="-4.908420">
        <ele>497.065</ele>
        <time>2018-10-13T08:25:35Z</time>
      </trkpt>
      <trkpt lat="43.212999" lon="-4.908480">
        <ele>497.714</ele>
        <time>2018-10-13T08:25:41Z</time>
      </trkpt>
      <trkpt lat="43.212985" lon="-4.908544">
        <ele>498.740</ele>
        <time>2018-10-13T08:25:46Z</time>
      </trkpt>
      <trkpt lat="43.212969" lon="-4.908614">
        <ele>499.518</ele>
        <time>2018-10-13T08:25:52Z</time>
      </trkpt>
      <trkpt lat="43.212975" lon="-4.908685">
        <ele>500.586</ele>
        <time>2018-10-13T08:25:59Z</time>
      </trkpt>
      <trkpt lat="43.212980" lon="-4.908748">
        <ele>501.260</ele>
        <time>2018-10-13T08:26:05Z</time>
      </trkpt>
      <trkpt lat="43.212944" lon="-4.908805">
        <ele>506.526</ele>
        <time>2018-10-13T08:26:42Z</time>
      </trkpt>
      <trkpt lat="43.212942" lon="-4.908874">
        <ele>507.808</ele>
        <time>2018-10-13T08:26:50Z</time>
      </trkpt>
      <trkpt lat="43.212989" lon="-4.908961">
        <ele>511.590</ele>
        <time>2018-10-13T08:27:15Z</time>
      </trkpt>
      <trkpt lat="43.212969" lon="-4.909019">
        <ele>514.067</ele>
        <time>2018-10-13T08:27:34Z</time>
      </trkpt>
      <trkpt lat="43.212973" lon="-4.909081">
        <ele>515.396</ele>
        <time>2018-10-13T08:27:45Z</time>
      </trkpt>
      <trkpt lat="43.212976" lon="-4.909155">
        <ele>516.333</ele>
        <time>2018-10-13T08:27:51Z</time>
      </trkpt>
      <trkpt lat="43.212985" lon="-4.909217">
        <ele>516.854</ele>
        <time>2018-10-13T08:27:57Z</time>
      </trkpt>
      <trkpt lat="43.212964" lon="-4.909286">
        <ele>519.553</ele>
        <time>2018-10-13T08:28:18Z</time>
      </trkpt>
      <trkpt lat="43.212954" lon="-4.909360">
        <ele>521.539</ele>
        <time>2018-10-13T08:28:40Z</time>
      </trkpt>
      <trkpt lat="43.212981" lon="-4.909446">
        <ele>522.947</ele>
        <time>2018-10-13T08:28:57Z</time>
      </trkpt>
      <trkpt lat="43.213018" lon="-4.909494">
        <ele>524.439</ele>
        <time>2018-10-13T08:29:08Z</time>
      </trkpt>
      <trkpt lat="43.213066" lon="-4.909549">
        <ele>525.901</ele>
        <time>2018-10-13T08:29:20Z</time>
      </trkpt>
      <trkpt lat="43.213087" lon="-4.909612">
        <ele>529.521</ele>
        <time>2018-10-13T08:29:45Z</time>
      </trkpt>
      <trkpt lat="43.213120" lon="-4.909655">
        <ele>530.808</ele>
        <time>2018-10-13T08:29:55Z</time>
      </trkpt>
      <trkpt lat="43.213149" lon="-4.909712">
        <ele>531.835</ele>
        <time>2018-10-13T08:30:02Z</time>
      </trkpt>
      <trkpt lat="43.213161" lon="-4.909772">
        <ele>532.312</ele>
        <time>2018-10-13T08:30:08Z</time>
      </trkpt>
      <trkpt lat="43.213123" lon="-4.909833">
        <ele>542.281</ele>
        <time>2018-10-13T08:31:29Z</time>
      </trkpt>
      <trkpt lat="43.213152" lon="-4.909897">
        <ele>542.528</ele>
        <time>2018-10-13T08:31:32Z</time>
      </trkpt>
      <trkpt lat="43.213176" lon="-4.909980">
        <ele>542.739</ele>
        <time>2018-10-13T08:31:34Z</time>
      </trkpt>
      <trkpt lat="43.213200" lon="-4.910039">
        <ele>543.168</ele>
        <time>2018-10-13T08:31:38Z</time>
      </trkpt>
      <trkpt lat="43.213218" lon="-4.910104">
        <ele>544.484</ele>
        <time>2018-10-13T08:31:50Z</time>
      </trkpt>
      <trkpt lat="43.213246" lon="-4.910054">
        <ele>545.842</ele>
        <time>2018-10-13T08:32:00Z</time>
      </trkpt>
      <trkpt lat="43.213277" lon="-4.910009">
        <ele>547.486</ele>
        <time>2018-10-13T08:32:10Z</time>
      </trkpt>
      <trkpt lat="43.213323" lon="-4.909996">
        <ele>551.660</ele>
        <time>2018-10-13T08:32:42Z</time>
      </trkpt>
      <trkpt lat="43.213372" lon="-4.910021">
        <ele>555.226</ele>
        <time>2018-10-13T08:33:18Z</time>
      </trkpt>
      <trkpt lat="43.213398" lon="-4.910094">
        <ele>559.008</ele>
        <time>2018-10-13T08:33:56Z</time>
      </trkpt>
      <trkpt lat="43.213440" lon="-4.910120">
        <ele>560.170</ele>
        <time>2018-10-13T08:34:04Z</time>
      </trkpt>
      <trkpt lat="43.213480" lon="-4.910150">
        <ele>561.067</ele>
        <time>2018-10-13T08:34:11Z</time>
      </trkpt>
      <trkpt lat="43.213527" lon="-4.910164">
        <ele>562.496</ele>
        <time>2018-10-13T08:34:17Z</time>
      </trkpt>
      <trkpt lat="43.213543" lon="-4.910234">
        <ele>563.913</ele>
        <time>2018-10-13T08:34:24Z</time>
      </trkpt>
      <trkpt lat="43.213582" lon="-4.910291">
        <ele>564.954</ele>
        <time>2018-10-13T08:34:31Z</time>
      </trkpt>
      <trkpt lat="43.213628" lon="-4.910317">
        <ele>565.573</ele>
        <time>2018-10-13T08:34:35Z</time>
      </trkpt>
      <trkpt lat="43.213665" lon="-4.910353">
        <ele>566.339</ele>
        <time>2018-10-13T08:34:43Z</time>
      </trkpt>
      <trkpt lat="43.213677" lon="-4.910415">
        <ele>567.467</ele>
        <time>2018-10-13T08:34:50Z</time>
      </trkpt>
      <trkpt lat="43.213685" lon="-4.910479">
        <ele>568.796</ele>
        <time>2018-10-13T08:34:58Z</time>
      </trkpt>
      <trkpt lat="43.213702" lon="-4.910542">
        <ele>569.631</ele>
        <time>2018-10-13T08:35:06Z</time>
      </trkpt>
      <trkpt lat="43.213718" lon="-4.910602">
        <ele>570.624</ele>
        <time>2018-10-13T08:35:14Z</time>
      </trkpt>
      <trkpt lat="43.213742" lon="-4.910658">
        <ele>571.808</ele>
        <time>2018-10-13T08:35:22Z</time>
      </trkpt>
      <trkpt lat="43.213741" lon="-4.910728">
        <ele>572.511</ele>
        <time>2018-10-13T08:35:28Z</time>
      </trkpt>
      <trkpt lat="43.213716" lon="-4.910781">
        <ele>574.488</ele>
        <time>2018-10-13T08:35:42Z</time>
      </trkpt>
      <trkpt lat="43.213648" lon="-4.910815">
        <ele>577.587</ele>
        <time>2018-10-13T08:36:05Z</time>
      </trkpt>
      <trkpt lat="43.213604" lon="-4.910891">
        <ele>580.034</ele>
        <time>2018-10-13T08:36:25Z</time>
      </trkpt>
      <trkpt lat="43.213604" lon="-4.910985">
        <ele>583.665</ele>
        <time>2018-10-13T08:36:52Z</time>
      </trkpt>
      <trkpt lat="43.213595" lon="-4.911071">
        <ele>587.794</ele>
        <time>2018-10-13T08:37:38Z</time>
      </trkpt>
      <trkpt lat="43.213591" lon="-4.911136">
        <ele>588.990</ele>
        <time>2018-10-13T08:37:47Z</time>
      </trkpt>
      <trkpt lat="43.213566" lon="-4.911256">
        <ele>593.758</ele>
        <time>2018-10-13T08:38:28Z</time>
      </trkpt>
      <trkpt lat="43.213560" lon="-4.911330">
        <ele>596.775</ele>
        <time>2018-10-13T08:38:47Z</time>
      </trkpt>
      <trkpt lat="43.213538" lon="-4.911415">
        <ele>598.328</ele>
        <time>2018-10-13T08:38:58Z</time>
      </trkpt>
      <trkpt lat="43.213526" lon="-4.911478">
        <ele>599.220</ele>
        <time>2018-10-13T08:39:06Z</time>
      </trkpt>
      <trkpt lat="43.213453" lon="-4.911651">
        <ele>599.308</ele>
        <time>2018-10-13T08:43:16Z</time>
      </trkpt>
      <trkpt lat="43.213429" lon="-4.911705">
        <ele>600.069</ele>
        <time>2018-10-13T08:43:25Z</time>
      </trkpt>
      <trkpt lat="43.213377" lon="-4.911735">
        <ele>603.176</ele>
        <time>2018-10-13T08:43:50Z</time>
      </trkpt>
      <trkpt lat="43.213330" lon="-4.911766">
        <ele>604.085</ele>
        <time>2018-10-13T08:43:57Z</time>
      </trkpt>
      <trkpt lat="43.213290" lon="-4.911808">
        <ele>604.472</ele>
        <time>2018-10-13T08:44:03Z</time>
      </trkpt>
      <trkpt lat="43.213258" lon="-4.911948">
        <ele>604.253</ele>
        <time>2018-10-13T08:51:52Z</time>
      </trkpt>
      <trkpt lat="43.213217" lon="-4.911977">
        <ele>603.572</ele>
        <time>2018-10-13T08:53:03Z</time>
      </trkpt>
      <trkpt lat="43.213211" lon="-4.912048">
        <ele>603.248</ele>
        <time>2018-10-13T08:53:08Z</time>
      </trkpt>
      <trkpt lat="43.213213" lon="-4.912113">
        <ele>602.816</ele>
        <time>2018-10-13T08:53:13Z</time>
      </trkpt>
      <trkpt lat="43.213224" lon="-4.912176">
        <ele>602.319</ele>
        <time>2018-10-13T08:53:18Z</time>
      </trkpt>
      <trkpt lat="43.213245" lon="-4.912237">
        <ele>601.809</ele>
        <time>2018-10-13T08:53:23Z</time>
      </trkpt>
      <trkpt lat="43.213274" lon="-4.912291">
        <ele>601.219</ele>
        <time>2018-10-13T08:53:27Z</time>
      </trkpt>
      <trkpt lat="43.213299" lon="-4.912346">
        <ele>600.408</ele>
        <time>2018-10-13T08:53:33Z</time>
      </trkpt>
      <trkpt lat="43.213308" lon="-4.912418">
        <ele>600.063</ele>
        <time>2018-10-13T08:53:39Z</time>
      </trkpt>
      <trkpt lat="43.213282" lon="-4.912484">
        <ele>600.230</ele>
        <time>2018-10-13T08:53:45Z</time>
      </trkpt>
      <trkpt lat="43.213265" lon="-4.912551">
        <ele>600.319</ele>
        <time>2018-10-13T08:53:50Z</time>
      </trkpt>
      <trkpt lat="43.213255" lon="-4.912631">
        <ele>600.016</ele>
        <time>2018-10-13T08:53:55Z</time>
      </trkpt>
      <trkpt lat="43.213258" lon="-4.912700">
        <ele>599.527</ele>
        <time>2018-10-13T08:53:59Z</time>
      </trkpt>
      <trkpt lat="43.213218" lon="-4.912754">
        <ele>599.096</ele>
        <time>2018-10-13T08:54:03Z</time>
      </trkpt>
      <trkpt lat="43.213264" lon="-4.912786">
        <ele>598.922</ele>
        <time>2018-10-13T08:54:09Z</time>
      </trkpt>
      <trkpt lat="43.213306" lon="-4.912825">
        <ele>599.690</ele>
        <time>2018-10-13T08:54:14Z</time>
      </trkpt>
      <trkpt lat="43.213337" lon="-4.912874">
        <ele>599.734</ele>
        <time>2018-10-13T08:54:18Z</time>
      </trkpt>
      <trkpt lat="43.213350" lon="-4.912934">
        <ele>599.455</ele>
        <time>2018-10-13T08:54:22Z</time>
      </trkpt>
      <trkpt lat="43.213311" lon="-4.912991">
        <ele>599.710</ele>
        <time>2018-10-13T08:54:27Z</time>
      </trkpt>
      <trkpt lat="43.213281" lon="-4.913054">
        <ele>599.908</ele>
        <time>2018-10-13T08:54:32Z</time>
      </trkpt>
      <trkpt lat="43.213242" lon="-4.913097">
        <ele>599.965</ele>
        <time>2018-10-13T08:55:04Z</time>
      </trkpt>
      <trkpt lat="43.213206" lon="-4.913151">
        <ele>600.062</ele>
        <time>2018-10-13T08:55:11Z</time>
      </trkpt>
      <trkpt lat="43.213182" lon="-4.913206">
        <ele>600.161</ele>
        <time>2018-10-13T08:55:14Z</time>
      </trkpt>
      <trkpt lat="43.213150" lon="-4.913261">
        <ele>600.298</ele>
        <time>2018-10-13T08:55:17Z</time>
      </trkpt>
      <trkpt lat="43.213103" lon="-4.913244">
        <ele>600.589</ele>
        <time>2018-10-13T08:55:21Z</time>
      </trkpt>
      <trkpt lat="43.213058" lon="-4.913208">
        <ele>600.798</ele>
        <time>2018-10-13T08:55:25Z</time>
      </trkpt>
      <trkpt lat="43.213012" lon="-4.913236">
        <ele>601.654</ele>
        <time>2018-10-13T08:55:39Z</time>
      </trkpt>
      <trkpt lat="43.212979" lon="-4.913284">
        <ele>601.732</ele>
        <time>2018-10-13T08:55:44Z</time>
      </trkpt>
      <trkpt lat="43.212944" lon="-4.913336">
        <ele>600.972</ele>
        <time>2018-10-13T08:55:53Z</time>
      </trkpt>
      <trkpt lat="43.212912" lon="-4.913387">
        <ele>601.413</ele>
        <time>2018-10-13T08:55:57Z</time>
      </trkpt>
      <trkpt lat="43.212884" lon="-4.913446">
        <ele>601.914</ele>
        <time>2018-10-13T08:56:01Z</time>
      </trkpt>
      <trkpt lat="43.212884" lon="-4.913513">
        <ele>602.108</ele>
        <time>2018-10-13T08:56:04Z</time>
      </trkpt>
      <trkpt lat="43.212895" lon="-4.913587">
        <ele>602.529</ele>
        <time>2018-10-13T08:56:08Z</time>
      </trkpt>
      <trkpt lat="43.212887" lon="-4.913650">
        <ele>603.026</ele>
        <time>2018-10-13T08:56:16Z</time>
      </trkpt>
      <trkpt lat="43.212856" lon="-4.913697">
        <ele>603.855</ele>
        <time>2018-10-13T08:56:27Z</time>
      </trkpt>
      <trkpt lat="43.212856" lon="-4.913764">
        <ele>603.812</ele>
        <time>2018-10-13T08:56:32Z</time>
      </trkpt>
      <trkpt lat="43.212866" lon="-4.913839">
        <ele>603.753</ele>
        <time>2018-10-13T08:56:37Z</time>
      </trkpt>
      <trkpt lat="43.212883" lon="-4.913904">
        <ele>603.722</ele>
        <time>2018-10-13T08:56:41Z</time>
      </trkpt>
      <trkpt lat="43.212890" lon="-4.913967">
        <ele>603.968</ele>
        <time>2018-10-13T08:56:45Z</time>
      </trkpt>
      <trkpt lat="43.212892" lon="-4.914029">
        <ele>604.016</ele>
        <time>2018-10-13T08:56:49Z</time>
      </trkpt>
      <trkpt lat="43.212894" lon="-4.914104">
        <ele>604.288</ele>
        <time>2018-10-13T08:56:54Z</time>
      </trkpt>
      <trkpt lat="43.212884" lon="-4.914164">
        <ele>604.524</ele>
        <time>2018-10-13T08:56:59Z</time>
      </trkpt>
      <trkpt lat="43.212892" lon="-4.914227">
        <ele>604.926</ele>
        <time>2018-10-13T08:57:05Z</time>
      </trkpt>
      <trkpt lat="43.212906" lon="-4.914293">
        <ele>605.308</ele>
        <time>2018-10-13T08:57:12Z</time>
      </trkpt>
      <trkpt lat="43.212897" lon="-4.914364">
        <ele>605.850</ele>
        <time>2018-10-13T08:57:18Z</time>
      </trkpt>
      <trkpt lat="43.212894" lon="-4.914429">
        <ele>606.367</ele>
        <time>2018-10-13T08:57:24Z</time>
      </trkpt>
      <trkpt lat="43.212871" lon="-4.914483">
        <ele>606.856</ele>
        <time>2018-10-13T08:57:30Z</time>
      </trkpt>
      <trkpt lat="43.212864" lon="-4.914545">
        <ele>607.243</ele>
        <time>2018-10-13T08:57:35Z</time>
      </trkpt>
      <trkpt lat="43.212813" lon="-4.914582">
        <ele>608.344</ele>
        <time>2018-10-13T08:57:50Z</time>
      </trkpt>
      <trkpt lat="43.212785" lon="-4.914640">
        <ele>608.573</ele>
        <time>2018-10-13T08:57:54Z</time>
      </trkpt>
      <trkpt lat="43.212749" lon="-4.914697">
        <ele>609.659</ele>
        <time>2018-10-13T08:58:04Z</time>
      </trkpt>
      <trkpt lat="43.212723" lon="-4.914748">
        <ele>609.837</ele>
        <time>2018-10-13T08:58:08Z</time>
      </trkpt>
      <trkpt lat="43.212694" lon="-4.914811">
        <ele>610.279</ele>
        <time>2018-10-13T08:58:13Z</time>
      </trkpt>
      <trkpt lat="43.212685" lon="-4.914902">
        <ele>611.505</ele>
        <time>2018-10-13T08:58:28Z</time>
      </trkpt>
      <trkpt lat="43.212690" lon="-4.914976">
        <ele>611.625</ele>
        <time>2018-10-13T08:58:34Z</time>
      </trkpt>
      <trkpt lat="43.212682" lon="-4.915056">
        <ele>611.608</ele>
        <time>2018-10-13T08:58:42Z</time>
      </trkpt>
      <trkpt lat="43.212636" lon="-4.915100">
        <ele>611.489</ele>
        <time>2018-10-13T08:58:52Z</time>
      </trkpt>
      <trkpt lat="43.212597" lon="-4.915136">
        <ele>611.466</ele>
        <time>2018-10-13T08:59:14Z</time>
      </trkpt>
      <trkpt lat="43.212574" lon="-4.915191">
        <ele>611.355</ele>
        <time>2018-10-13T08:59:23Z</time>
      </trkpt>
      <trkpt lat="43.212534" lon="-4.915226">
        <ele>612.352</ele>
        <time>2018-10-13T08:59:31Z</time>
      </trkpt>
      <trkpt lat="43.212518" lon="-4.915299">
        <ele>612.933</ele>
        <time>2018-10-13T08:59:38Z</time>
      </trkpt>
      <trkpt lat="43.212509" lon="-4.915366">
        <ele>613.512</ele>
        <time>2018-10-13T08:59:49Z</time>
      </trkpt>
      <trkpt lat="43.212484" lon="-4.915425">
        <ele>614.148</ele>
        <time>2018-10-13T08:59:58Z</time>
      </trkpt>
      <trkpt lat="43.212447" lon="-4.915473">
        <ele>614.546</ele>
        <time>2018-10-13T09:00:06Z</time>
      </trkpt>
      <trkpt lat="43.212415" lon="-4.915528">
        <ele>614.741</ele>
        <time>2018-10-13T09:00:12Z</time>
      </trkpt>
      <trkpt lat="43.212396" lon="-4.915587">
        <ele>614.781</ele>
        <time>2018-10-13T09:00:16Z</time>
      </trkpt>
      <trkpt lat="43.212353" lon="-4.915627">
        <ele>615.009</ele>
        <time>2018-10-13T09:00:21Z</time>
      </trkpt>
      <trkpt lat="43.212318" lon="-4.915667">
        <ele>615.308</ele>
        <time>2018-10-13T09:00:27Z</time>
      </trkpt>
      <trkpt lat="43.212303" lon="-4.915732">
        <ele>616.376</ele>
        <time>2018-10-13T09:00:35Z</time>
      </trkpt>
      <trkpt lat="43.212285" lon="-4.915800">
        <ele>616.973</ele>
        <time>2018-10-13T09:00:40Z</time>
      </trkpt>
      <trkpt lat="43.212266" lon="-4.915859">
        <ele>617.532</ele>
        <time>2018-10-13T09:00:45Z</time>
      </trkpt>
      <trkpt lat="43.212262" lon="-4.915921">
        <ele>617.439</ele>
        <time>2018-10-13T09:00:59Z</time>
      </trkpt>
      <trkpt lat="43.212265" lon="-4.915987">
        <ele>617.450</ele>
        <time>2018-10-13T09:01:05Z</time>
      </trkpt>
      <trkpt lat="43.212297" lon="-4.916043">
        <ele>617.739</ele>
        <time>2018-10-13T09:01:10Z</time>
      </trkpt>
      <trkpt lat="43.212295" lon="-4.916112">
        <ele>618.135</ele>
        <time>2018-10-13T09:01:15Z</time>
      </trkpt>
      <trkpt lat="43.212265" lon="-4.916159">
        <ele>618.863</ele>
        <time>2018-10-13T09:01:22Z</time>
      </trkpt>
      <trkpt lat="43.212259" lon="-4.916222">
        <ele>619.429</ele>
        <time>2018-10-13T09:01:30Z</time>
      </trkpt>
      <trkpt lat="43.212241" lon="-4.916285">
        <ele>621.200</ele>
        <time>2018-10-13T09:01:47Z</time>
      </trkpt>
      <trkpt lat="43.212203" lon="-4.916326">
        <ele>620.920</ele>
        <time>2018-10-13T09:01:53Z</time>
      </trkpt>
      <trkpt lat="43.212185" lon="-4.916387">
        <ele>621.608</ele>
        <time>2018-10-13T09:01:59Z</time>
      </trkpt>
      <trkpt lat="43.212152" lon="-4.916454">
        <ele>624.724</ele>
        <time>2018-10-13T09:02:21Z</time>
      </trkpt>
      <trkpt lat="43.212122" lon="-4.916560">
        <ele>626.411</ele>
        <time>2018-10-13T09:02:36Z</time>
      </trkpt>
      <trkpt lat="43.212095" lon="-4.916610">
        <ele>627.330</ele>
        <time>2018-10-13T09:02:42Z</time>
      </trkpt>
      <trkpt lat="43.212058" lon="-4.916698">
        <ele>629.767</ele>
        <time>2018-10-13T09:02:58Z</time>
      </trkpt>
      <trkpt lat="43.212051" lon="-4.916769">
        <ele>630.418</ele>
        <time>2018-10-13T09:03:04Z</time>
      </trkpt>
      <trkpt lat="43.212048" lon="-4.916843">
        <ele>631.057</ele>
        <time>2018-10-13T09:03:09Z</time>
      </trkpt>
      <trkpt lat="43.212016" lon="-4.916895">
        <ele>633.013</ele>
        <time>2018-10-13T09:03:22Z</time>
      </trkpt>
      <trkpt lat="43.211988" lon="-4.916949">
        <ele>633.991</ele>
        <time>2018-10-13T09:03:28Z</time>
      </trkpt>
      <trkpt lat="43.211988" lon="-4.917020">
        <ele>634.688</ele>
        <time>2018-10-13T09:03:34Z</time>
      </trkpt>
      <trkpt lat="43.212003" lon="-4.917085">
        <ele>635.124</ele>
        <time>2018-10-13T09:03:39Z</time>
      </trkpt>
      <trkpt lat="43.211978" lon="-4.917140">
        <ele>636.526</ele>
        <time>2018-10-13T09:03:50Z</time>
      </trkpt>
      <trkpt lat="43.211930" lon="-4.917168">
        <ele>637.208</ele>
        <time>2018-10-13T09:03:55Z</time>
      </trkpt>
      <trkpt lat="43.211887" lon="-4.917200">
        <ele>638.320</ele>
        <time>2018-10-13T09:04:02Z</time>
      </trkpt>
      <trkpt lat="43.211847" lon="-4.917246">
        <ele>638.947</ele>
        <time>2018-10-13T09:04:08Z</time>
      </trkpt>
      <trkpt lat="43.211802" lon="-4.917270">
        <ele>639.926</ele>
        <time>2018-10-13T09:04:16Z</time>
      </trkpt>
      <trkpt lat="43.211790" lon="-4.917333">
        <ele>641.143</ele>
        <time>2018-10-13T09:04:22Z</time>
      </trkpt>
      <trkpt lat="43.211771" lon="-4.917395">
        <ele>642.124</ele>
        <time>2018-10-13T09:04:29Z</time>
      </trkpt>
      <trkpt lat="43.211775" lon="-4.917458">
        <ele>644.413</ele>
        <time>2018-10-13T09:04:44Z</time>
      </trkpt>
      <trkpt lat="43.211781" lon="-4.917525">
        <ele>646.739</ele>
        <time>2018-10-13T09:05:02Z</time>
      </trkpt>
      <trkpt lat="43.211769" lon="-4.917585">
        <ele>647.427</ele>
        <time>2018-10-13T09:05:07Z</time>
      </trkpt>
      <trkpt lat="43.211765" lon="-4.917652">
        <ele>648.049</ele>
        <time>2018-10-13T09:05:15Z</time>
      </trkpt>
      <trkpt lat="43.211763" lon="-4.917718">
        <ele>649.002</ele>
        <time>2018-10-13T09:05:23Z</time>
      </trkpt>
      <trkpt lat="43.211758" lon="-4.917782">
        <ele>649.922</ele>
        <time>2018-10-13T09:05:32Z</time>
      </trkpt>
      <trkpt lat="43.211767" lon="-4.917844">
        <ele>651.508</ele>
        <time>2018-10-13T09:05:46Z</time>
      </trkpt>
      <trkpt lat="43.211794" lon="-4.917894">
        <ele>651.826</ele>
        <time>2018-10-13T09:05:51Z</time>
      </trkpt>
      <trkpt lat="43.211808" lon="-4.917953">
        <ele>652.413</ele>
        <time>2018-10-13T09:05:58Z</time>
      </trkpt>
      <trkpt lat="43.211790" lon="-4.918019">
        <ele>654.182</ele>
        <time>2018-10-13T09:06:10Z</time>
      </trkpt>
      <trkpt lat="43.211753" lon="-4.918069">
        <ele>655.719</ele>
        <time>2018-10-13T09:06:16Z</time>
      </trkpt>
      <trkpt lat="43.211746" lon="-4.918131">
        <ele>656.580</ele>
        <time>2018-10-13T09:06:22Z</time>
      </trkpt>
      <trkpt lat="43.211763" lon="-4.918188">
        <ele>657.319</ele>
        <time>2018-10-13T09:06:31Z</time>
      </trkpt>
      <trkpt lat="43.211776" lon="-4.918247">
        <ele>658.025</ele>
        <time>2018-10-13T09:06:40Z</time>
      </trkpt>
      <trkpt lat="43.211739" lon="-4.918289">
        <ele>660.363</ele>
        <time>2018-10-13T09:06:56Z</time>
      </trkpt>
      <trkpt lat="43.211748" lon="-4.918350">
        <ele>661.067</ele>
        <time>2018-10-13T09:07:02Z</time>
      </trkpt>
      <trkpt lat="43.211712" lon="-4.918401">
        <ele>662.081</ele>
        <time>2018-10-13T09:07:09Z</time>
      </trkpt>
      <trkpt lat="43.211680" lon="-4.918447">
        <ele>663.219</ele>
        <time>2018-10-13T09:07:19Z</time>
      </trkpt>
      <trkpt lat="43.211677" lon="-4.918520">
        <ele>664.908</ele>
        <time>2018-10-13T09:07:30Z</time>
      </trkpt>
      <trkpt lat="43.211648" lon="-4.918575">
        <ele>665.048</ele>
        <time>2018-10-13T09:07:36Z</time>
      </trkpt>
      <trkpt lat="43.211672" lon="-4.918631">
        <ele>666.555</ele>
        <time>2018-10-13T09:07:45Z</time>
      </trkpt>
      <trkpt lat="43.211719" lon="-4.918684">
        <ele>668.334</ele>
        <time>2018-10-13T09:07:56Z</time>
      </trkpt>
      <trkpt lat="43.211707" lon="-4.918752">
        <ele>668.981</ele>
        <time>2018-10-13T09:08:02Z</time>
      </trkpt>
      <trkpt lat="43.211693" lon="-4.918819">
        <ele>669.722</ele>
        <time>2018-10-13T09:08:09Z</time>
      </trkpt>
      <trkpt lat="43.211705" lon="-4.918888">
        <ele>670.831</ele>
        <time>2018-10-13T09:08:16Z</time>
      </trkpt>
      <trkpt lat="43.211683" lon="-4.918944">
        <ele>671.777</ele>
        <time>2018-10-13T09:08:23Z</time>
      </trkpt>
      <trkpt lat="43.211662" lon="-4.919000">
        <ele>673.555</ele>
        <time>2018-10-13T09:08:38Z</time>
      </trkpt>
      <trkpt lat="43.211615" lon="-4.919001">
        <ele>675.038</ele>
        <time>2018-10-13T09:08:54Z</time>
      </trkpt>
      <trkpt lat="43.211588" lon="-4.919051">
        <ele>677.770</ele>
        <time>2018-10-13T09:09:17Z</time>
      </trkpt>
      <trkpt lat="43.211576" lon="-4.919117">
        <ele>678.417</ele>
        <time>2018-10-13T09:09:24Z</time>
      </trkpt>
      <trkpt lat="43.211563" lon="-4.919180">
        <ele>679.008</ele>
        <time>2018-10-13T09:09:29Z</time>
      </trkpt>
      <trkpt lat="43.211568" lon="-4.919243">
        <ele>680.885</ele>
        <time>2018-10-13T09:09:40Z</time>
      </trkpt>
      <trkpt lat="43.211569" lon="-4.919309">
        <ele>682.262</ele>
        <time>2018-10-13T09:09:53Z</time>
      </trkpt>
      <trkpt lat="43.211553" lon="-4.919373">
        <ele>683.691</ele>
        <time>2018-10-13T09:10:00Z</time>
      </trkpt>
      <trkpt lat="43.211510" lon="-4.919392">
        <ele>683.448</ele>
        <time>2018-10-13T09:10:09Z</time>
      </trkpt>
      <trkpt lat="43.211462" lon="-4.919414">
        <ele>684.179</ele>
        <time>2018-10-13T09:10:19Z</time>
      </trkpt>
      <trkpt lat="43.211442" lon="-4.919471">
        <ele>684.588</ele>
        <time>2018-10-13T09:10:25Z</time>
      </trkpt>
      <trkpt lat="43.211444" lon="-4.919535">
        <ele>687.284</ele>
        <time>2018-10-13T09:10:59Z</time>
      </trkpt>
      <trkpt lat="43.211476" lon="-4.919579">
        <ele>689.952</ele>
        <time>2018-10-13T09:11:24Z</time>
      </trkpt>
      <trkpt lat="43.211449" lon="-4.919637">
        <ele>691.486</ele>
        <time>2018-10-13T09:11:35Z</time>
      </trkpt>
      <trkpt lat="43.211428" lon="-4.919692">
        <ele>692.260</ele>
        <time>2018-10-13T09:11:40Z</time>
      </trkpt>
      <trkpt lat="43.211412" lon="-4.919755">
        <ele>692.926</ele>
        <time>2018-10-13T09:11:46Z</time>
      </trkpt>
      <trkpt lat="43.211444" lon="-4.919813">
        <ele>693.608</ele>
        <time>2018-10-13T09:11:52Z</time>
      </trkpt>
      <trkpt lat="43.211461" lon="-4.919875">
        <ele>695.060</ele>
        <time>2018-10-13T09:12:04Z</time>
      </trkpt>
      <trkpt lat="43.211486" lon="-4.919927">
        <ele>696.737</ele>
        <time>2018-10-13T09:12:17Z</time>
      </trkpt>
      <trkpt lat="43.211506" lon="-4.919984">
        <ele>697.546</ele>
        <time>2018-10-13T09:12:24Z</time>
      </trkpt>
      <trkpt lat="43.211502" lon="-4.920048">
        <ele>698.383</ele>
        <time>2018-10-13T09:12:33Z</time>
      </trkpt>
      <trkpt lat="43.211509" lon="-4.920110">
        <ele>700.194</ele>
        <time>2018-10-13T09:12:44Z</time>
      </trkpt>
      <trkpt lat="43.211512" lon="-4.920173">
        <ele>701.773</ele>
        <time>2018-10-13T09:12:54Z</time>
      </trkpt>
      <trkpt lat="43.211476" lon="-4.920215">
        <ele>702.459</ele>
        <time>2018-10-13T09:13:00Z</time>
      </trkpt>
      <trkpt lat="43.211464" lon="-4.920280">
        <ele>703.967</ele>
        <time>2018-10-13T09:13:11Z</time>
      </trkpt>
      <trkpt lat="43.211386" lon="-4.920270">
        <ele>707.164</ele>
        <time>2018-10-13T09:16:28Z</time>
      </trkpt>
      <trkpt lat="43.211347" lon="-4.920302">
        <ele>704.206</ele>
        <time>2018-10-13T09:16:34Z</time>
      </trkpt>
      <trkpt lat="43.211323" lon="-4.920361">
        <ele>705.416</ele>
        <time>2018-10-13T09:16:41Z</time>
      </trkpt>
      <trkpt lat="43.211266" lon="-4.920436">
        <ele>710.908</ele>
        <time>2018-10-13T09:17:22Z</time>
      </trkpt>
      <trkpt lat="43.211215" lon="-4.920435">
        <ele>711.798</ele>
        <time>2018-10-13T09:17:28Z</time>
      </trkpt>
      <trkpt lat="43.211167" lon="-4.920513">
        <ele>712.295</ele>
        <time>2018-10-13T09:17:35Z</time>
      </trkpt>
      <trkpt lat="43.211140" lon="-4.920569">
        <ele>712.984</ele>
        <time>2018-10-13T09:17:43Z</time>
      </trkpt>
      <trkpt lat="43.211104" lon="-4.920607">
        <ele>716.671</ele>
        <time>2018-10-13T09:18:06Z</time>
      </trkpt>
      <trkpt lat="43.211016" lon="-4.920639">
        <ele>719.142</ele>
        <time>2018-10-13T09:18:23Z</time>
      </trkpt>
      <trkpt lat="43.210980" lon="-4.920677">
        <ele>721.261</ele>
        <time>2018-10-13T09:18:38Z</time>
      </trkpt>
      <trkpt lat="43.211019" lon="-4.920726">
        <ele>724.087</ele>
        <time>2018-10-13T09:19:02Z</time>
      </trkpt>
      <trkpt lat="43.211060" lon="-4.920759">
        <ele>725.765</ele>
        <time>2018-10-13T09:19:13Z</time>
      </trkpt>
      <trkpt lat="43.211102" lon="-4.920786">
        <ele>728.344</ele>
        <time>2018-10-13T09:19:31Z</time>
      </trkpt>
      <trkpt lat="43.211147" lon="-4.920819">
        <ele>731.405</ele>
        <time>2018-10-13T09:20:12Z</time>
      </trkpt>
      <trkpt lat="43.211188" lon="-4.920853">
        <ele>733.315</ele>
        <time>2018-10-13T09:20:26Z</time>
      </trkpt>
      <trkpt lat="43.211220" lon="-4.920897">
        <ele>734.908</ele>
        <time>2018-10-13T09:20:39Z</time>
      </trkpt>
      <trkpt lat="43.211265" lon="-4.920919">
        <ele>736.626</ele>
        <time>2018-10-13T09:20:54Z</time>
      </trkpt>
      <trkpt lat="43.211305" lon="-4.920958">
        <ele>738.623</ele>
        <time>2018-10-13T09:21:05Z</time>
      </trkpt>
      <trkpt lat="43.211333" lon="-4.921015">
        <ele>739.652</ele>
        <time>2018-10-13T09:21:10Z</time>
      </trkpt>
      <trkpt lat="43.211393" lon="-4.920979">
        <ele>744.539</ele>
        <time>2018-10-13T09:21:53Z</time>
      </trkpt>
      <trkpt lat="43.211437" lon="-4.920991">
        <ele>746.160</ele>
        <time>2018-10-13T09:22:03Z</time>
      </trkpt>
      <trkpt lat="43.211483" lon="-4.921001">
        <ele>746.989</ele>
        <time>2018-10-13T09:22:11Z</time>
      </trkpt>
      <trkpt lat="43.211513" lon="-4.921052">
        <ele>746.825</ele>
        <time>2018-10-13T09:22:17Z</time>
      </trkpt>
      <trkpt lat="43.211560" lon="-4.921171">
        <ele>748.173</ele>
        <time>2018-10-13T09:22:37Z</time>
      </trkpt>
      <trkpt lat="43.211546" lon="-4.921232">
        <ele>749.415</ele>
        <time>2018-10-13T09:22:45Z</time>
      </trkpt>
      <trkpt lat="43.211560" lon="-4.921299">
        <ele>750.665</ele>
        <time>2018-10-13T09:22:53Z</time>
      </trkpt>
      <trkpt lat="43.211606" lon="-4.921339">
        <ele>751.511</ele>
        <time>2018-10-13T09:23:05Z</time>
      </trkpt>
      <trkpt lat="43.211641" lon="-4.921468">
        <ele>757.308</ele>
        <time>2018-10-13T09:23:45Z</time>
      </trkpt>
      <trkpt lat="43.211587" lon="-4.921524">
        <ele>758.773</ele>
        <time>2018-10-13T09:23:55Z</time>
      </trkpt>
      <trkpt lat="43.211592" lon="-4.921594">
        <ele>760.680</ele>
        <time>2018-10-13T09:24:09Z</time>
      </trkpt>
      <trkpt lat="43.211556" lon="-4.921639">
        <ele>762.539</ele>
        <time>2018-10-13T09:24:22Z</time>
      </trkpt>
      <trkpt lat="43.211548" lon="-4.921700">
        <ele>763.866</ele>
        <time>2018-10-13T09:24:30Z</time>
      </trkpt>
      <trkpt lat="43.211510" lon="-4.921765">
        <ele>767.357</ele>
        <time>2018-10-13T09:27:00Z</time>
      </trkpt>
      <trkpt lat="43.211509" lon="-4.921830">
        <ele>770.756</ele>
        <time>2018-10-13T09:27:22Z</time>
      </trkpt>
      <trkpt lat="43.211553" lon="-4.921905">
        <ele>775.512</ele>
        <time>2018-10-13T09:27:55Z</time>
      </trkpt>
      <trkpt lat="43.211539" lon="-4.921965">
        <ele>775.930</ele>
        <time>2018-10-13T09:27:58Z</time>
      </trkpt>
      <trkpt lat="43.211525" lon="-4.922029">
        <ele>776.855</ele>
        <time>2018-10-13T09:28:02Z</time>
      </trkpt>
      <trkpt lat="43.211614" lon="-4.922088">
        <ele>780.307</ele>
        <time>2018-10-13T09:28:25Z</time>
      </trkpt>
      <trkpt lat="43.211617" lon="-4.922180">
        <ele>781.617</ele>
        <time>2018-10-13T09:28:36Z</time>
      </trkpt>
      <trkpt lat="43.211626" lon="-4.922247">
        <ele>784.108</ele>
        <time>2018-10-13T09:28:52Z</time>
      </trkpt>
      <trkpt lat="43.211610" lon="-4.922316">
        <ele>790.827</ele>
        <time>2018-10-13T09:29:40Z</time>
      </trkpt>
      <trkpt lat="43.211610" lon="-4.922379">
        <ele>792.524</ele>
        <time>2018-10-13T09:29:54Z</time>
      </trkpt>
      <trkpt lat="43.211636" lon="-4.922437">
        <ele>793.853</ele>
        <time>2018-10-13T09:30:02Z</time>
      </trkpt>
      <trkpt lat="43.211661" lon="-4.922519">
        <ele>799.510</ele>
        <time>2018-10-13T09:30:39Z</time>
      </trkpt>
      <trkpt lat="43.211636" lon="-4.922572">
        <ele>801.391</ele>
        <time>2018-10-13T09:30:50Z</time>
      </trkpt>
      <trkpt lat="43.211644" lon="-4.922637">
        <ele>804.260</ele>
        <time>2018-10-13T09:31:06Z</time>
      </trkpt>
      <trkpt lat="43.211675" lon="-4.922682">
        <ele>805.966</ele>
        <time>2018-10-13T09:31:14Z</time>
      </trkpt>
      <trkpt lat="43.211662" lon="-4.922744">
        <ele>807.174</ele>
        <time>2018-10-13T09:31:21Z</time>
      </trkpt>
      <trkpt lat="43.211690" lon="-4.922793">
        <ele>808.697</ele>
        <time>2018-10-13T09:31:29Z</time>
      </trkpt>
      <trkpt lat="43.211727" lon="-4.922839">
        <ele>810.223</ele>
        <time>2018-10-13T09:31:37Z</time>
      </trkpt>
      <trkpt lat="43.211751" lon="-4.922894">
        <ele>811.925</ele>
        <time>2018-10-13T09:31:49Z</time>
      </trkpt>
      <trkpt lat="43.211765" lon="-4.922962">
        <ele>813.708</ele>
        <time>2018-10-13T09:31:57Z</time>
      </trkpt>
      <trkpt lat="43.211786" lon="-4.923038">
        <ele>815.421</ele>
        <time>2018-10-13T09:32:09Z</time>
      </trkpt>
      <trkpt lat="43.211722" lon="-4.923144">
        <ele>816.898</ele>
        <time>2018-10-13T09:35:13Z</time>
      </trkpt>
      <trkpt lat="43.211676" lon="-4.923161">
        <ele>816.837</ele>
        <time>2018-10-13T09:35:25Z</time>
      </trkpt>
      <trkpt lat="43.211701" lon="-4.923229">
        <ele>820.744</ele>
        <time>2018-10-13T09:35:52Z</time>
      </trkpt>
      <trkpt lat="43.211644" lon="-4.923263">
        <ele>825.035</ele>
        <time>2018-10-13T09:36:23Z</time>
      </trkpt>
      <trkpt lat="43.211481" lon="-4.923300">
        <ele>827.844</ele>
        <time>2018-10-13T09:36:53Z</time>
      </trkpt>
      <trkpt lat="43.211425" lon="-4.923325">
        <ele>828.180</ele>
        <time>2018-10-13T09:36:57Z</time>
      </trkpt>
      <trkpt lat="43.211383" lon="-4.923357">
        <ele>828.598</ele>
        <time>2018-10-13T09:37:02Z</time>
      </trkpt>
      <trkpt lat="43.211331" lon="-4.923366">
        <ele>829.597</ele>
        <time>2018-10-13T09:37:09Z</time>
      </trkpt>
      <trkpt lat="43.211283" lon="-4.923378">
        <ele>830.023</ele>
        <time>2018-10-13T09:37:14Z</time>
      </trkpt>
      <trkpt lat="43.211217" lon="-4.923312">
        <ele>835.225</ele>
        <time>2018-10-13T09:37:44Z</time>
      </trkpt>
      <trkpt lat="43.211189" lon="-4.923261">
        <ele>836.008</ele>
        <time>2018-10-13T09:37:49Z</time>
      </trkpt>
      <trkpt lat="43.211138" lon="-4.923237">
        <ele>836.661</ele>
        <time>2018-10-13T09:37:54Z</time>
      </trkpt>
      <trkpt lat="43.211061" lon="-4.923227">
        <ele>838.748</ele>
        <time>2018-10-13T09:38:06Z</time>
      </trkpt>
      <trkpt lat="43.211014" lon="-4.923223">
        <ele>840.357</ele>
        <time>2018-10-13T09:38:15Z</time>
      </trkpt>
      <trkpt lat="43.210962" lon="-4.923252">
        <ele>840.744</ele>
        <time>2018-10-13T09:38:19Z</time>
      </trkpt>
      <trkpt lat="43.210900" lon="-4.923278">
        <ele>841.485</ele>
        <time>2018-10-13T09:38:36Z</time>
      </trkpt>
      <trkpt lat="43.210849" lon="-4.923322">
        <ele>841.374</ele>
        <time>2018-10-13T09:38:40Z</time>
      </trkpt>
      <trkpt lat="43.210803" lon="-4.923372">
        <ele>841.510</ele>
        <time>2018-10-13T09:38:45Z</time>
      </trkpt>
      <trkpt lat="43.210757" lon="-4.923390">
        <ele>842.138</ele>
        <time>2018-10-13T09:38:50Z</time>
      </trkpt>
      <trkpt lat="43.210707" lon="-4.923406">
        <ele>842.888</ele>
        <time>2018-10-13T09:38:56Z</time>
      </trkpt>
      <trkpt lat="43.210674" lon="-4.923457">
        <ele>843.424</ele>
        <time>2018-10-13T09:39:03Z</time>
      </trkpt>
      <trkpt lat="43.210651" lon="-4.923510">
        <ele>844.126</ele>
        <time>2018-10-13T09:39:12Z</time>
      </trkpt>
      <trkpt lat="43.210630" lon="-4.923570">
        <ele>845.908</ele>
        <time>2018-10-13T09:39:27Z</time>
      </trkpt>
      <trkpt lat="43.210579" lon="-4.923575">
        <ele>845.770</ele>
        <time>2018-10-13T09:39:34Z</time>
      </trkpt>
      <trkpt lat="43.210526" lon="-4.923565">
        <ele>845.777</ele>
        <time>2018-10-13T09:39:40Z</time>
      </trkpt>
      <trkpt lat="43.210480" lon="-4.923561">
        <ele>845.796</ele>
        <time>2018-10-13T09:39:49Z</time>
      </trkpt>
      <trkpt lat="43.210451" lon="-4.923506">
        <ele>846.433</ele>
        <time>2018-10-13T09:40:02Z</time>
      </trkpt>
      <trkpt lat="43.210407" lon="-4.923461">
        <ele>846.774</ele>
        <time>2018-10-13T09:40:08Z</time>
      </trkpt>
      <trkpt lat="43.210370" lon="-4.923410">
        <ele>846.863</ele>
        <time>2018-10-13T09:40:14Z</time>
      </trkpt>
      <trkpt lat="43.210351" lon="-4.923353">
        <ele>847.289</ele>
        <time>2018-10-13T09:40:20Z</time>
      </trkpt>
      <trkpt lat="43.210348" lon="-4.923285">
        <ele>848.097</ele>
        <time>2018-10-13T09:40:30Z</time>
      </trkpt>
      <trkpt lat="43.210345" lon="-4.923223">
        <ele>849.296</ele>
        <time>2018-10-13T09:40:38Z</time>
      </trkpt>
      <trkpt lat="43.210309" lon="-4.923169">
        <ele>849.631</ele>
        <time>2018-10-13T09:40:43Z</time>
      </trkpt>
      <trkpt lat="43.210264" lon="-4.923172">
        <ele>850.624</ele>
        <time>2018-10-13T09:40:53Z</time>
      </trkpt>
      <trkpt lat="43.210216" lon="-4.923176">
        <ele>851.508</ele>
        <time>2018-10-13T09:41:02Z</time>
      </trkpt>
      <trkpt lat="43.210188" lon="-4.923227">
        <ele>854.161</ele>
        <time>2018-10-13T09:41:15Z</time>
      </trkpt>
      <trkpt lat="43.210141" lon="-4.923212">
        <ele>855.578</ele>
        <time>2018-10-13T09:41:22Z</time>
      </trkpt>
      <trkpt lat="43.210121" lon="-4.923276">
        <ele>856.447</ele>
        <time>2018-10-13T09:41:29Z</time>
      </trkpt>
      <trkpt lat="43.210139" lon="-4.923339">
        <ele>857.484</ele>
        <time>2018-10-13T09:41:36Z</time>
      </trkpt>
      <trkpt lat="43.210143" lon="-4.923402">
        <ele>858.975</ele>
        <time>2018-10-13T09:41:46Z</time>
      </trkpt>
      <trkpt lat="43.210150" lon="-4.923469">
        <ele>860.144</ele>
        <time>2018-10-13T09:41:55Z</time>
      </trkpt>
      <trkpt lat="43.210186" lon="-4.923518">
        <ele>860.910</ele>
        <time>2018-10-13T09:42:01Z</time>
      </trkpt>
      <trkpt lat="43.210183" lon="-4.923583">
        <ele>862.538</ele>
        <time>2018-10-13T09:42:14Z</time>
      </trkpt>
      <trkpt lat="43.210207" lon="-4.923642">
        <ele>863.199</ele>
        <time>2018-10-13T09:42:20Z</time>
      </trkpt>
      <trkpt lat="43.210252" lon="-4.923667">
        <ele>863.907</ele>
        <time>2018-10-13T09:42:27Z</time>
      </trkpt>
      <trkpt lat="43.210254" lon="-4.923729">
        <ele>865.927</ele>
        <time>2018-10-13T09:42:53Z</time>
      </trkpt>
      <trkpt lat="43.210246" lon="-4.923795">
        <ele>867.008</ele>
        <time>2018-10-13T09:43:01Z</time>
      </trkpt>
      <trkpt lat="43.210216" lon="-4.923856">
        <ele>869.971</ele>
        <time>2018-10-13T09:43:16Z</time>
      </trkpt>
      <trkpt lat="43.210202" lon="-4.923919">
        <ele>870.968</ele>
        <time>2018-10-13T09:43:22Z</time>
      </trkpt>
      <trkpt lat="43.210232" lon="-4.923971">
        <ele>872.077</ele>
        <time>2018-10-13T09:43:29Z</time>
      </trkpt>
      <trkpt lat="43.210237" lon="-4.924057">
        <ele>874.114</ele>
        <time>2018-10-13T09:43:44Z</time>
      </trkpt>
      <trkpt lat="43.210277" lon="-4.924099">
        <ele>875.615</ele>
        <time>2018-10-13T09:43:58Z</time>
      </trkpt>
      <trkpt lat="43.210324" lon="-4.924112">
        <ele>876.464</ele>
        <time>2018-10-13T09:44:07Z</time>
      </trkpt>
      <trkpt lat="43.210301" lon="-4.924166">
        <ele>877.780</ele>
        <time>2018-10-13T09:44:15Z</time>
      </trkpt>
      <trkpt lat="43.210303" lon="-4.924245">
        <ele>881.728</ele>
        <time>2018-10-13T09:44:38Z</time>
      </trkpt>
      <trkpt lat="43.210261" lon="-4.924284">
        <ele>885.042</ele>
        <time>2018-10-13T09:44:53Z</time>
      </trkpt>
      <trkpt lat="43.210305" lon="-4.924315">
        <ele>885.822</ele>
        <time>2018-10-13T09:44:59Z</time>
      </trkpt>
      <trkpt lat="43.210320" lon="-4.924376">
        <ele>887.114</ele>
        <time>2018-10-13T09:45:09Z</time>
      </trkpt>
      <trkpt lat="43.210273" lon="-4.924409">
        <ele>887.908</ele>
        <time>2018-10-13T09:45:14Z</time>
      </trkpt>
      <trkpt lat="43.210235" lon="-4.924444">
        <ele>890.766</ele>
        <time>2018-10-13T09:45:32Z</time>
      </trkpt>
      <trkpt lat="43.210283" lon="-4.924477">
        <ele>892.323</ele>
        <time>2018-10-13T09:45:41Z</time>
      </trkpt>
      <trkpt lat="43.210355" lon="-4.924458">
        <ele>895.412</ele>
        <time>2018-10-13T09:46:19Z</time>
      </trkpt>
      <trkpt lat="43.210430" lon="-4.924475">
        <ele>901.049</ele>
        <time>2018-10-13T09:47:10Z</time>
      </trkpt>
      <trkpt lat="43.210480" lon="-4.924469">
        <ele>901.650</ele>
        <time>2018-10-13T09:47:15Z</time>
      </trkpt>
      <trkpt lat="43.210526" lon="-4.924474">
        <ele>902.819</ele>
        <time>2018-10-13T09:47:23Z</time>
      </trkpt>
      <trkpt lat="43.210587" lon="-4.924491">
        <ele>903.165</ele>
        <time>2018-10-13T09:48:02Z</time>
      </trkpt>
      <trkpt lat="43.210636" lon="-4.924474">
        <ele>903.913</ele>
        <time>2018-10-13T09:48:13Z</time>
      </trkpt>
      <trkpt lat="43.210683" lon="-4.924448">
        <ele>904.987</ele>
        <time>2018-10-13T09:48:21Z</time>
      </trkpt>
      <trkpt lat="43.210727" lon="-4.924418">
        <ele>906.142</ele>
        <time>2018-10-13T09:48:29Z</time>
      </trkpt>
      <trkpt lat="43.210783" lon="-4.924397">
        <ele>908.226</ele>
        <time>2018-10-13T09:48:43Z</time>
      </trkpt>
      <trkpt lat="43.210846" lon="-4.924382">
        <ele>912.708</ele>
        <time>2018-10-13T09:49:27Z</time>
      </trkpt>
      <trkpt lat="43.210875" lon="-4.924488">
        <ele>919.610</ele>
        <time>2018-10-13T09:50:17Z</time>
      </trkpt>
      <trkpt lat="43.210877" lon="-4.924565">
        <ele>920.517</ele>
        <time>2018-10-13T09:50:22Z</time>
      </trkpt>
      <trkpt lat="43.210862" lon="-4.924633">
        <ele>921.086</ele>
        <time>2018-10-13T09:50:25Z</time>
      </trkpt>
      <trkpt lat="43.210848" lon="-4.924707">
        <ele>921.443</ele>
        <time>2018-10-13T09:50:29Z</time>
      </trkpt>
      <trkpt lat="43.210830" lon="-4.924788">
        <ele>922.034</ele>
        <time>2018-10-13T09:50:33Z</time>
      </trkpt>
      <trkpt lat="43.210798" lon="-4.924837">
        <ele>922.463</ele>
        <time>2018-10-13T09:50:36Z</time>
      </trkpt>
      <trkpt lat="43.210770" lon="-4.924897">
        <ele>923.159</ele>
        <time>2018-10-13T09:50:41Z</time>
      </trkpt>
      <trkpt lat="43.210734" lon="-4.924963">
        <ele>927.767</ele>
        <time>2018-10-13T09:51:24Z</time>
      </trkpt>
      <trkpt lat="43.210679" lon="-4.925155">
        <ele>930.097</ele>
        <time>2018-10-13T09:51:55Z</time>
      </trkpt>
      <trkpt lat="43.210667" lon="-4.925231">
        <ele>930.723</ele>
        <time>2018-10-13T09:52:00Z</time>
      </trkpt>
      <trkpt lat="43.210652" lon="-4.925302">
        <ele>931.525</ele>
        <time>2018-10-13T09:52:05Z</time>
      </trkpt>
      <trkpt lat="43.210604" lon="-4.925353">
        <ele>932.308</ele>
        <time>2018-10-13T09:52:09Z</time>
      </trkpt>
      <trkpt lat="43.210583" lon="-4.925413">
        <ele>933.011</ele>
        <time>2018-10-13T09:52:13Z</time>
      </trkpt>
      <trkpt lat="43.210564" lon="-4.925474">
        <ele>933.618</ele>
        <time>2018-10-13T09:52:18Z</time>
      </trkpt>
      <trkpt lat="43.210483" lon="-4.926784">
        <ele>1025.147</ele>
        <time>2018-10-13T10:10:56Z</time>
      </trkpt>
      <trkpt lat="43.210472" lon="-4.926710">
        <ele>1025.154</ele>
        <time>2018-10-13T10:10:59Z</time>
      </trkpt>
      <trkpt lat="43.210487" lon="-4.926638">
        <ele>1025.785</ele>
        <time>2018-10-13T10:11:05Z</time>
      </trkpt>
      <trkpt lat="43.210469" lon="-4.926578">
        <ele>1025.964</ele>
        <time>2018-10-13T10:11:07Z</time>
      </trkpt>
      <trkpt lat="43.210445" lon="-4.926523">
        <ele>1026.370</ele>
        <time>2018-10-13T10:11:10Z</time>
      </trkpt>
      <trkpt lat="43.210439" lon="-4.926460">
        <ele>1026.868</ele>
        <time>2018-10-13T10:11:14Z</time>
      </trkpt>
      <trkpt lat="43.210403" lon="-4.926305">
        <ele>1028.727</ele>
        <time>2018-10-13T10:11:31Z</time>
      </trkpt>
      <trkpt lat="43.210413" lon="-4.926179">
        <ele>1028.868</ele>
        <time>2018-10-13T10:11:55Z</time>
      </trkpt>
      <trkpt lat="43.210439" lon="-4.926125">
        <ele>1028.114</ele>
        <time>2018-10-13T10:12:03Z</time>
      </trkpt>
      <trkpt lat="43.210490" lon="-4.926110">
        <ele>1027.808</ele>
        <time>2018-10-13T10:12:16Z</time>
      </trkpt>
      <trkpt lat="43.210538" lon="-4.926148">
        <ele>1029.664</ele>
        <time>2018-10-13T10:12:28Z</time>
      </trkpt>
      <trkpt lat="43.210595" lon="-4.926116">
        <ele>1030.111</ele>
        <time>2018-10-13T10:12:31Z</time>
      </trkpt>
      <trkpt lat="43.210650" lon="-4.926118">
        <ele>1030.620</ele>
        <time>2018-10-13T10:12:35Z</time>
      </trkpt>
      <trkpt lat="43.210707" lon="-4.926163">
        <ele>1033.217</ele>
        <time>2018-10-13T10:12:58Z</time>
      </trkpt>
      <trkpt lat="43.210754" lon="-4.926181">
        <ele>1033.688</ele>
        <time>2018-10-13T10:13:04Z</time>
      </trkpt>
      <trkpt lat="43.210808" lon="-4.926264">
        <ele>1034.377</ele>
        <time>2018-10-13T10:14:53Z</time>
      </trkpt>
      <trkpt lat="43.210832" lon="-4.926328">
        <ele>1035.083</ele>
        <time>2018-10-13T10:15:00Z</time>
      </trkpt>
      <trkpt lat="43.210864" lon="-4.926373">
        <ele>1035.551</ele>
        <time>2018-10-13T10:15:06Z</time>
      </trkpt>
      <trkpt lat="43.210895" lon="-4.926421">
        <ele>1035.849</ele>
        <time>2018-10-13T10:15:11Z</time>
      </trkpt>
      <trkpt lat="43.210933" lon="-4.926458">
        <ele>1036.102</ele>
        <time>2018-10-13T10:15:17Z</time>
      </trkpt>
      <trkpt lat="43.210978" lon="-4.926511">
        <ele>1037.622</ele>
        <time>2018-10-13T10:15:31Z</time>
      </trkpt>
      <trkpt lat="43.210991" lon="-4.926574">
        <ele>1039.308</ele>
        <time>2018-10-13T10:15:45Z</time>
      </trkpt>
      <trkpt lat="43.210979" lon="-4.926636">
        <ele>1041.726</ele>
        <time>2018-10-13T10:15:56Z</time>
      </trkpt>
      <trkpt lat="43.210954" lon="-4.926706">
        <ele>1046.623</ele>
        <time>2018-10-13T10:16:21Z</time>
      </trkpt>
      <trkpt lat="43.210994" lon="-4.926739">
        <ele>1047.142</ele>
        <time>2018-10-13T10:16:25Z</time>
      </trkpt>
      <trkpt lat="43.211032" lon="-4.926782">
        <ele>1048.329</ele>
        <time>2018-10-13T10:16:49Z</time>
      </trkpt>
      <trkpt lat="43.211031" lon="-4.926844">
        <ele>1050.610</ele>
        <time>2018-10-13T10:17:04Z</time>
      </trkpt>
      <trkpt lat="43.211074" lon="-4.926889">
        <ele>1051.529</ele>
        <time>2018-10-13T10:17:22Z</time>
      </trkpt>
      <trkpt lat="43.211042" lon="-4.926934">
        <ele>1056.275</ele>
        <time>2018-10-13T10:17:55Z</time>
      </trkpt>
      <trkpt lat="43.210943" lon="-4.926995">
        <ele>1061.533</ele>
        <time>2018-10-13T10:19:00Z</time>
      </trkpt>
      <trkpt lat="43.210898" lon="-4.927035">
        <ele>1063.153</ele>
        <time>2018-10-13T10:19:10Z</time>
      </trkpt>
      <trkpt lat="43.210940" lon="-4.927068">
        <ele>1063.204</ele>
        <time>2018-10-13T10:20:07Z</time>
      </trkpt>
      <trkpt lat="43.210962" lon="-4.927127">
        <ele>1063.914</ele>
        <time>2018-10-13T10:20:15Z</time>
      </trkpt>
      <trkpt lat="43.210935" lon="-4.927179">
        <ele>1064.908</ele>
        <time>2018-10-13T10:20:22Z</time>
      </trkpt>
      <trkpt lat="43.210905" lon="-4.927224">
        <ele>1065.837</ele>
        <time>2018-10-13T10:20:27Z</time>
      </trkpt>
      <trkpt lat="43.210859" lon="-4.927250">
        <ele>1066.864</ele>
        <time>2018-10-13T10:20:33Z</time>
      </trkpt>
      <trkpt lat="43.210811" lon="-4.927234">
        <ele>1067.473</ele>
        <time>2018-10-13T10:20:39Z</time>
      </trkpt>
      <trkpt lat="43.210785" lon="-4.927182">
        <ele>1068.020</ele>
        <time>2018-10-13T10:20:45Z</time>
      </trkpt>
      <trkpt lat="43.210788" lon="-4.927118">
        <ele>1069.211</ele>
        <time>2018-10-13T10:20:58Z</time>
      </trkpt>
      <trkpt lat="43.210760" lon="-4.927062">
        <ele>1069.880</ele>
        <time>2018-10-13T10:21:03Z</time>
      </trkpt>
      <trkpt lat="43.210715" lon="-4.927051">
        <ele>1072.846</ele>
        <time>2018-10-13T10:21:23Z</time>
      </trkpt>
      <trkpt lat="43.210698" lon="-4.927115">
        <ele>1073.594</ele>
        <time>2018-10-13T10:21:29Z</time>
      </trkpt>
      <trkpt lat="43.210691" lon="-4.927177">
        <ele>1074.856</ele>
        <time>2018-10-13T10:21:39Z</time>
      </trkpt>
      <trkpt lat="43.210678" lon="-4.927240">
        <ele>1076.459</ele>
        <time>2018-10-13T10:21:49Z</time>
      </trkpt>
      <trkpt lat="43.210672" lon="-4.927308">
        <ele>1077.614</ele>
        <time>2018-10-13T10:21:58Z</time>
      </trkpt>
      <trkpt lat="43.210681" lon="-4.927371">
        <ele>1078.108</ele>
        <time>2018-10-13T10:22:03Z</time>
      </trkpt>
      <trkpt lat="43.210656" lon="-4.927428">
        <ele>1079.657</ele>
        <time>2018-10-13T10:22:13Z</time>
      </trkpt>
      <trkpt lat="43.210630" lon="-4.927498">
        <ele>1081.794</ele>
        <time>2018-10-13T10:22:26Z</time>
      </trkpt>
      <trkpt lat="43.210646" lon="-4.927578">
        <ele>1083.843</ele>
        <time>2018-10-13T10:22:39Z</time>
      </trkpt>
      <trkpt lat="43.210651" lon="-4.927640">
        <ele>1086.010</ele>
        <time>2018-10-13T10:22:50Z</time>
      </trkpt>
      <trkpt lat="43.210669" lon="-4.927698">
        <ele>1087.391</ele>
        <time>2018-10-13T10:22:59Z</time>
      </trkpt>
      <trkpt lat="43.210713" lon="-4.927732">
        <ele>1090.540</ele>
        <time>2018-10-13T10:23:28Z</time>
      </trkpt>
      <trkpt lat="43.210773" lon="-4.927749">
        <ele>1091.766</ele>
        <time>2018-10-13T10:23:38Z</time>
      </trkpt>
      <trkpt lat="43.210813" lon="-4.927791">
        <ele>1094.144</ele>
        <time>2018-10-13T10:23:56Z</time>
      </trkpt>
      <trkpt lat="43.210875" lon="-4.927805">
        <ele>1096.397</ele>
        <time>2018-10-13T10:24:13Z</time>
      </trkpt>
      <trkpt lat="43.210927" lon="-4.927810">
        <ele>1096.823</ele>
        <time>2018-10-13T10:24:19Z</time>
      </trkpt>
      <trkpt lat="43.210894" lon="-4.927861">
        <ele>1106.325</ele>
        <time>2018-10-13T10:26:43Z</time>
      </trkpt>
      <trkpt lat="43.210837" lon="-4.927916">
        <ele>1113.908</ele>
        <time>2018-10-13T10:27:29Z</time>
      </trkpt>
      <trkpt lat="43.210757" lon="-4.927918">
        <ele>1114.181</ele>
        <time>2018-10-13T10:27:37Z</time>
      </trkpt>
      <trkpt lat="43.210712" lon="-4.927904">
        <ele>1115.228</ele>
        <time>2018-10-13T10:27:43Z</time>
      </trkpt>
      <trkpt lat="43.210665" lon="-4.927888">
        <ele>1116.357</ele>
        <time>2018-10-13T10:27:52Z</time>
      </trkpt>
      <trkpt lat="43.210616" lon="-4.927875">
        <ele>1117.984</ele>
        <time>2018-10-13T10:28:35Z</time>
      </trkpt>
      <trkpt lat="43.210604" lon="-4.927808">
        <ele>1118.235</ele>
        <time>2018-10-13T10:28:41Z</time>
      </trkpt>
      <trkpt lat="43.210565" lon="-4.927774">
        <ele>1120.094</ele>
        <time>2018-10-13T10:29:13Z</time>
      </trkpt>
      <trkpt lat="43.210516" lon="-4.927728">
        <ele>1122.620</ele>
        <time>2018-10-13T10:29:26Z</time>
      </trkpt>
      <trkpt lat="43.210464" lon="-4.927715">
        <ele>1128.148</ele>
        <time>2018-10-13T10:29:40Z</time>
      </trkpt>
      <trkpt lat="43.210396" lon="-4.927735">
        <ele>1129.234</ele>
        <time>2018-10-13T10:30:02Z</time>
      </trkpt>
      <trkpt lat="43.210436" lon="-4.927777">
        <ele>1131.655</ele>
        <time>2018-10-13T10:30:25Z</time>
      </trkpt>
      <trkpt lat="43.210393" lon="-4.927809">
        <ele>1133.710</ele>
        <time>2018-10-13T10:30:35Z</time>
      </trkpt>
      <trkpt lat="43.210369" lon="-4.927868">
        <ele>1138.408</ele>
        <time>2018-10-13T10:32:29Z</time>
      </trkpt>
      <trkpt lat="43.210326" lon="-4.927917">
        <ele>1139.695</ele>
        <time>2018-10-13T10:32:44Z</time>
      </trkpt>
      <trkpt lat="43.210353" lon="-4.927974">
        <ele>1145.452</ele>
        <time>2018-10-13T10:33:44Z</time>
      </trkpt>
      <trkpt lat="43.210397" lon="-4.928024">
        <ele>1147.241</ele>
        <time>2018-10-13T10:34:02Z</time>
      </trkpt>
      <trkpt lat="43.210381" lon="-4.928085">
        <ele>1148.968</ele>
        <time>2018-10-13T10:34:15Z</time>
      </trkpt>
      <trkpt lat="43.210364" lon="-4.928150">
        <ele>1152.129</ele>
        <time>2018-10-13T10:34:38Z</time>
      </trkpt>
      <trkpt lat="43.210361" lon="-4.928218">
        <ele>1156.778</ele>
        <time>2018-10-13T10:35:45Z</time>
      </trkpt>
      <trkpt lat="43.210407" lon="-4.928272">
        <ele>1162.574</ele>
        <time>2018-10-13T10:36:35Z</time>
      </trkpt>
      <trkpt lat="43.210384" lon="-4.928331">
        <ele>1165.432</ele>
        <time>2018-10-13T10:36:55Z</time>
      </trkpt>
      <trkpt lat="43.210383" lon="-4.928415">
        <ele>1168.968</ele>
        <time>2018-10-13T10:38:10Z</time>
      </trkpt>
      <trkpt lat="43.210381" lon="-4.928486">
        <ele>1171.342</ele>
        <time>2018-10-13T10:38:24Z</time>
      </trkpt>
      <trkpt lat="43.210422" lon="-4.928458">
        <ele>1175.626</ele>
        <time>2018-10-13T10:38:44Z</time>
      </trkpt>
      <trkpt lat="43.210470" lon="-4.928465">
        <ele>1178.708</ele>
        <time>2018-10-13T10:38:57Z</time>
      </trkpt>
      <trkpt lat="43.210489" lon="-4.928526">
        <ele>1180.328</ele>
        <time>2018-10-13T10:39:10Z</time>
      </trkpt>
      <trkpt lat="43.210484" lon="-4.928594">
        <ele>1179.765</ele>
        <time>2018-10-13T11:03:03Z</time>
      </trkpt>
      <trkpt lat="43.210509" lon="-4.928651">
        <ele>1184.564</ele>
        <time>2018-10-13T11:03:37Z</time>
      </trkpt>
      <trkpt lat="43.210527" lon="-4.928722">
        <ele>1185.161</ele>
        <time>2018-10-13T11:03:44Z</time>
      </trkpt>
      <trkpt lat="43.210524" lon="-4.928791">
        <ele>1188.752</ele>
        <time>2018-10-13T11:04:09Z</time>
      </trkpt>
      <trkpt lat="43.210522" lon="-4.928853">
        <ele>1190.841</ele>
        <time>2018-10-13T11:04:22Z</time>
      </trkpt>
      <trkpt lat="43.210551" lon="-4.928937">
        <ele>1193.217</ele>
        <time>2018-10-13T11:04:39Z</time>
      </trkpt>
      <trkpt lat="43.210562" lon="-4.929002">
        <ele>1196.015</ele>
        <time>2018-10-13T11:05:01Z</time>
      </trkpt>
      <trkpt lat="43.210580" lon="-4.929063">
        <ele>1199.155</ele>
        <time>2018-10-13T11:05:14Z</time>
      </trkpt>
      <trkpt lat="43.210612" lon="-4.929116">
        <ele>1202.307</ele>
        <time>2018-10-13T11:05:38Z</time>
      </trkpt>
      <trkpt lat="43.210656" lon="-4.929147">
        <ele>1203.917</ele>
        <time>2018-10-13T11:05:55Z</time>
      </trkpt>
      <trkpt lat="43.210698" lon="-4.929175">
        <ele>1206.108</ele>
        <time>2018-10-13T11:06:10Z</time>
      </trkpt>
      <trkpt lat="43.210720" lon="-4.929231">
        <ele>1206.737</ele>
        <time>2018-10-13T11:06:18Z</time>
      </trkpt>
      <trkpt lat="43.210714" lon="-4.929298">
        <ele>1208.174</ele>
        <time>2018-10-13T11:06:26Z</time>
      </trkpt>
      <trkpt lat="43.210703" lon="-4.929365">
        <ele>1208.593</ele>
        <time>2018-10-13T11:06:32Z</time>
      </trkpt>
      <trkpt lat="43.210679" lon="-4.929426">
        <ele>1209.480</ele>
        <time>2018-10-13T11:06:39Z</time>
      </trkpt>
      <trkpt lat="43.210651" lon="-4.929479">
        <ele>1212.031</ele>
        <time>2018-10-13T11:06:54Z</time>
      </trkpt>
      <trkpt lat="43.210652" lon="-4.929542">
        <ele>1213.560</ele>
        <time>2018-10-13T11:07:05Z</time>
      </trkpt>
      <trkpt lat="43.210659" lon="-4.929603">
        <ele>1214.556</ele>
        <time>2018-10-13T11:07:13Z</time>
      </trkpt>
      <trkpt lat="43.210675" lon="-4.929661">
        <ele>1216.524</ele>
        <time>2018-10-13T11:07:33Z</time>
      </trkpt>
      <trkpt lat="43.210659" lon="-4.929720">
        <ele>1218.416</ele>
        <time>2018-10-13T11:07:46Z</time>
      </trkpt>
      <trkpt lat="43.210643" lon="-4.929787">
        <ele>1219.776</ele>
        <time>2018-10-13T11:07:55Z</time>
      </trkpt>
      <trkpt lat="43.210630" lon="-4.929850">
        <ele>1221.713</ele>
        <time>2018-10-13T11:08:06Z</time>
      </trkpt>
      <trkpt lat="43.210651" lon="-4.929905">
        <ele>1223.408</ele>
        <time>2018-10-13T11:08:15Z</time>
      </trkpt>
      <trkpt lat="43.210637" lon="-4.929979">
        <ele>1227.123</ele>
        <time>2018-10-13T11:08:43Z</time>
      </trkpt>
      <trkpt lat="43.210610" lon="-4.930030">
        <ele>1230.250</ele>
        <time>2018-10-13T11:09:04Z</time>
      </trkpt>
      <trkpt lat="43.210574" lon="-4.930083">
        <ele>1233.019</ele>
        <time>2018-10-13T11:09:22Z</time>
      </trkpt>
      <trkpt lat="43.210540" lon="-4.930126">
        <ele>1235.716</ele>
        <time>2018-10-13T11:09:42Z</time>
      </trkpt>
      <trkpt lat="43.210567" lon="-4.930183">
        <ele>1237.447</ele>
        <time>2018-10-13T11:09:58Z</time>
      </trkpt>
      <trkpt lat="43.210581" lon="-4.930245">
        <ele>1239.176</ele>
        <time>2018-10-13T11:10:13Z</time>
      </trkpt>
      <trkpt lat="43.210586" lon="-4.930308">
        <ele>1240.932</ele>
        <time>2018-10-13T11:10:28Z</time>
      </trkpt>
      <trkpt lat="43.210598" lon="-4.930375">
        <ele>1242.140</ele>
        <time>2018-10-13T11:10:41Z</time>
      </trkpt>
      <trkpt lat="43.210575" lon="-4.930435">
        <ele>1243.332</ele>
        <time>2018-10-13T11:10:52Z</time>
      </trkpt>
      <trkpt lat="43.210570" lon="-4.930500">
        <ele>1246.192</ele>
        <time>2018-10-13T11:11:08Z</time>
      </trkpt>
      <trkpt lat="43.210559" lon="-4.930567">
        <ele>1247.311</ele>
        <time>2018-10-13T11:11:14Z</time>
      </trkpt>
      <trkpt lat="43.210545" lon="-4.930628">
        <ele>1248.908</ele>
        <time>2018-10-13T11:11:21Z</time>
      </trkpt>
      <trkpt lat="43.210574" lon="-4.930695">
        <ele>1250.535</ele>
        <time>2018-10-13T11:11:34Z</time>
      </trkpt>
      <trkpt lat="43.210552" lon="-4.930752">
        <ele>1251.882</ele>
        <time>2018-10-13T11:11:43Z</time>
      </trkpt>
      <trkpt lat="43.210524" lon="-4.930803">
        <ele>1252.631</ele>
        <time>2018-10-13T11:11:52Z</time>
      </trkpt>
      <trkpt lat="43.210523" lon="-4.930867">
        <ele>1256.568</ele>
        <time>2018-10-13T11:12:16Z</time>
      </trkpt>
      <trkpt lat="43.210500" lon="-4.930923">
        <ele>1259.269</ele>
        <time>2018-10-13T11:12:28Z</time>
      </trkpt>
      <trkpt lat="43.210492" lon="-4.930997">
        <ele>1261.978</ele>
        <time>2018-10-13T11:12:51Z</time>
      </trkpt>
      <trkpt lat="43.210484" lon="-4.931067">
        <ele>1264.354</ele>
        <time>2018-10-13T11:13:04Z</time>
      </trkpt>
      <trkpt lat="43.210456" lon="-4.931123">
        <ele>1265.972</ele>
        <time>2018-10-13T11:13:14Z</time>
      </trkpt>
      <trkpt lat="43.210450" lon="-4.931188">
        <ele>1268.615</ele>
        <time>2018-10-13T11:13:31Z</time>
      </trkpt>
      <trkpt lat="43.210481" lon="-4.931239">
        <ele>1271.165</ele>
        <time>2018-10-13T11:13:45Z</time>
      </trkpt>
      <trkpt lat="43.210518" lon="-4.931277">
        <ele>1273.111</ele>
        <time>2018-10-13T11:13:58Z</time>
      </trkpt>
      <trkpt lat="43.210549" lon="-4.931327">
        <ele>1274.808</ele>
        <time>2018-10-13T11:14:08Z</time>
      </trkpt>
      <trkpt lat="43.210536" lon="-4.931391">
        <ele>1276.553</ele>
        <time>2018-10-13T11:14:21Z</time>
      </trkpt>
      <trkpt lat="43.210546" lon="-4.931459">
        <ele>1278.770</ele>
        <time>2018-10-13T11:14:33Z</time>
      </trkpt>
      <trkpt lat="43.210563" lon="-4.931516">
        <ele>1280.249</ele>
        <time>2018-10-13T11:14:42Z</time>
      </trkpt>
      <trkpt lat="43.210569" lon="-4.931583">
        <ele>1282.526</ele>
        <time>2018-10-13T11:15:08Z</time>
      </trkpt>
      <trkpt lat="43.210594" lon="-4.931652">
        <ele>1284.737</ele>
        <time>2018-10-13T11:15:20Z</time>
      </trkpt>
      <trkpt lat="43.210615" lon="-4.931713">
        <ele>1286.936</ele>
        <time>2018-10-13T11:15:34Z</time>
      </trkpt>
      <trkpt lat="43.210656" lon="-4.931739">
        <ele>1287.792</ele>
        <time>2018-10-13T11:15:44Z</time>
      </trkpt>
      <trkpt lat="43.210716" lon="-4.931759">
        <ele>1289.210</ele>
        <time>2018-10-13T11:15:59Z</time>
      </trkpt>
      <trkpt lat="43.210745" lon="-4.931817">
        <ele>1290.848</ele>
        <time>2018-10-13T11:16:09Z</time>
      </trkpt>
      <trkpt lat="43.210789" lon="-4.931856">
        <ele>1291.861</ele>
        <time>2018-10-13T11:16:17Z</time>
      </trkpt>
      <trkpt lat="43.210826" lon="-4.931898">
        <ele>1292.917</ele>
        <time>2018-10-13T11:16:28Z</time>
      </trkpt>
      <trkpt lat="43.210871" lon="-4.931913">
        <ele>1294.708</ele>
        <time>2018-10-13T11:16:46Z</time>
      </trkpt>
      <trkpt lat="43.210905" lon="-4.931961">
        <ele>1297.386</ele>
        <time>2018-10-13T11:17:00Z</time>
      </trkpt>
      <trkpt lat="43.210947" lon="-4.932036">
        <ele>1300.453</ele>
        <time>2018-10-13T11:17:37Z</time>
      </trkpt>
      <trkpt lat="43.210916" lon="-4.932093">
        <ele>1302.552</ele>
        <time>2018-10-13T11:17:54Z</time>
      </trkpt>
      <trkpt lat="43.210884" lon="-4.932143">
        <ele>1302.639</ele>
        <time>2018-10-13T11:18:00Z</time>
      </trkpt>
      <trkpt lat="43.210843" lon="-4.932191">
        <ele>1302.850</ele>
        <time>2018-10-13T11:18:06Z</time>
      </trkpt>
      <trkpt lat="43.210795" lon="-4.932197">
        <ele>1303.569</ele>
        <time>2018-10-13T11:18:25Z</time>
      </trkpt>
      <trkpt lat="43.210750" lon="-4.932178">
        <ele>1305.095</ele>
        <time>2018-10-13T11:26:59Z</time>
      </trkpt>
      <trkpt lat="43.210697" lon="-4.932154">
        <ele>1308.383</ele>
        <time>2018-10-13T11:27:22Z</time>
      </trkpt>
      <trkpt lat="43.210655" lon="-4.932177">
        <ele>1309.785</ele>
        <time>2018-10-13T11:27:32Z</time>
      </trkpt>
      <trkpt lat="43.210625" lon="-4.932228">
        <ele>1312.289</ele>
        <time>2018-10-13T11:27:48Z</time>
      </trkpt>
      <trkpt lat="43.210584" lon="-4.932260">
        <ele>1317.617</ele>
        <time>2018-10-13T11:28:43Z</time>
      </trkpt>
      <trkpt lat="43.210524" lon="-4.932288">
        <ele>1319.908</ele>
        <time>2018-10-13T11:28:55Z</time>
      </trkpt>
      <trkpt lat="43.210487" lon="-4.932251">
        <ele>1321.150</ele>
        <time>2018-10-13T11:29:05Z</time>
      </trkpt>
      <trkpt lat="43.210459" lon="-4.932201">
        <ele>1322.057</ele>
        <time>2018-10-13T11:29:13Z</time>
      </trkpt>
      <trkpt lat="43.210412" lon="-4.932194">
        <ele>1324.036</ele>
        <time>2018-10-13T11:29:32Z</time>
      </trkpt>
      <trkpt lat="43.210365" lon="-4.932181">
        <ele>1324.773</ele>
        <time>2018-10-13T11:29:40Z</time>
      </trkpt>
      <trkpt lat="43.210314" lon="-4.932178">
        <ele>1326.094</ele>
        <time>2018-10-13T11:29:54Z</time>
      </trkpt>
      <trkpt lat="43.210265" lon="-4.932173">
        <ele>1328.063</ele>
        <time>2018-10-13T11:30:08Z</time>
      </trkpt>
      <trkpt lat="43.210261" lon="-4.932237">
        <ele>1329.949</ele>
        <time>2018-10-13T11:30:23Z</time>
      </trkpt>
      <trkpt lat="43.210255" lon="-4.932313">
        <ele>1333.417</ele>
        <time>2018-10-13T11:32:27Z</time>
      </trkpt>
      <trkpt lat="43.210233" lon="-4.932381">
        <ele>1335.523</ele>
        <time>2018-10-13T11:32:54Z</time>
      </trkpt>
      <trkpt lat="43.210257" lon="-4.932444">
        <ele>1336.783</ele>
        <time>2018-10-13T11:33:00Z</time>
      </trkpt>
      <trkpt lat="43.210250" lon="-4.932505">
        <ele>1337.911</ele>
        <time>2018-10-13T11:33:08Z</time>
      </trkpt>
      <trkpt lat="43.210211" lon="-4.932578">
        <ele>1339.008</ele>
        <time>2018-10-13T11:33:18Z</time>
      </trkpt>
      <trkpt lat="43.210177" lon="-4.932627">
        <ele>1340.374</ele>
        <time>2018-10-13T11:33:29Z</time>
      </trkpt>
      <trkpt lat="43.210139" lon="-4.932660">
        <ele>1341.261</ele>
        <time>2018-10-13T11:33:35Z</time>
      </trkpt>
      <trkpt lat="43.210097" lon="-4.932687">
        <ele>1341.440</ele>
        <time>2018-10-13T11:33:38Z</time>
      </trkpt>
      <trkpt lat="43.210054" lon="-4.932714">
        <ele>1341.887</ele>
        <time>2018-10-13T11:33:43Z</time>
      </trkpt>
      <trkpt lat="43.210009" lon="-4.932713">
        <ele>1343.018</ele>
        <time>2018-10-13T11:33:54Z</time>
      </trkpt>
      <trkpt lat="43.209975" lon="-4.932758">
        <ele>1344.667</ele>
        <time>2018-10-13T11:34:05Z</time>
      </trkpt>
      <trkpt lat="43.209935" lon="-4.932793">
        <ele>1346.263</ele>
        <time>2018-10-13T11:34:15Z</time>
      </trkpt>
      <trkpt lat="43.209889" lon="-4.932791">
        <ele>1347.321</ele>
        <time>2018-10-13T11:34:22Z</time>
      </trkpt>
      <trkpt lat="43.209849" lon="-4.932825">
        <ele>1349.158</ele>
        <time>2018-10-13T11:34:36Z</time>
      </trkpt>
      <trkpt lat="43.209799" lon="-4.932813">
        <ele>1350.052</ele>
        <time>2018-10-13T11:34:43Z</time>
      </trkpt>
      <trkpt lat="43.209756" lon="-4.932791">
        <ele>1351.917</ele>
        <time>2018-10-13T11:34:55Z</time>
      </trkpt>
      <trkpt lat="43.209705" lon="-4.932803">
        <ele>1353.808</ele>
        <time>2018-10-13T11:35:13Z</time>
      </trkpt>
      <trkpt lat="43.209668" lon="-4.932858">
        <ele>1354.417</ele>
        <time>2018-10-13T11:35:19Z</time>
      </trkpt>
      <trkpt lat="43.209626" lon="-4.932924">
        <ele>1358.944</ele>
        <time>2018-10-13T11:36:48Z</time>
      </trkpt>
      <trkpt lat="43.209632" lon="-4.932990">
        <ele>1359.773</ele>
        <time>2018-10-13T11:36:54Z</time>
      </trkpt>
      <trkpt lat="43.209638" lon="-4.933061">
        <ele>1362.640</ele>
        <time>2018-10-13T11:37:10Z</time>
      </trkpt>
      <trkpt lat="43.209649" lon="-4.933121">
        <ele>1364.041</ele>
        <time>2018-10-13T11:37:21Z</time>
      </trkpt>
      <trkpt lat="43.209636" lon="-4.933188">
        <ele>1366.250</ele>
        <time>2018-10-13T11:37:36Z</time>
      </trkpt>
      <trkpt lat="43.209630" lon="-4.933261">
        <ele>1370.486</ele>
        <time>2018-10-13T11:37:59Z</time>
      </trkpt>
      <trkpt lat="43.209620" lon="-4.933325">
        <ele>1372.134</ele>
        <time>2018-10-13T11:38:09Z</time>
      </trkpt>
      <trkpt lat="43.209645" lon="-4.933381">
        <ele>1374.732</ele>
        <time>2018-10-13T11:38:38Z</time>
      </trkpt>
      <trkpt lat="43.209681" lon="-4.933422">
        <ele>1376.392</ele>
        <time>2018-10-13T11:38:46Z</time>
      </trkpt>
      <trkpt lat="43.209664" lon="-4.933481">
        <ele>1380.711</ele>
        <time>2018-10-13T11:39:10Z</time>
      </trkpt>
      <trkpt lat="43.209639" lon="-4.933536">
        <ele>1383.208</ele>
        <time>2018-10-13T11:39:23Z</time>
      </trkpt>
      <trkpt lat="43.209617" lon="-4.933591">
        <ele>1385.075</ele>
        <time>2018-10-13T11:39:36Z</time>
      </trkpt>
      <trkpt lat="43.209570" lon="-4.933614">
        <ele>1386.562</ele>
        <time>2018-10-13T11:39:45Z</time>
      </trkpt>
      <trkpt lat="43.209523" lon="-4.933623">
        <ele>1387.911</ele>
        <time>2018-10-13T11:39:53Z</time>
      </trkpt>
      <trkpt lat="43.209477" lon="-4.933642">
        <ele>1389.358</ele>
        <time>2018-10-13T11:40:02Z</time>
      </trkpt>
      <trkpt lat="43.209420" lon="-4.933655">
        <ele>1392.379</ele>
        <time>2018-10-13T11:40:30Z</time>
      </trkpt>
      <trkpt lat="43.209376" lon="-4.933697">
        <ele>1397.938</ele>
        <time>2018-10-13T11:41:31Z</time>
      </trkpt>
      <trkpt lat="43.209335" lon="-4.933737">
        <ele>1399.684</ele>
        <time>2018-10-13T11:41:47Z</time>
      </trkpt>
      <trkpt lat="43.209275" lon="-4.933752">
        <ele>1403.162</ele>
        <time>2018-10-13T11:42:15Z</time>
      </trkpt>
      <trkpt lat="43.209227" lon="-4.933760">
        <ele>1404.475</ele>
        <time>2018-10-13T11:42:27Z</time>
      </trkpt>
      <trkpt lat="43.209159" lon="-4.933792">
        <ele>1405.128</ele>
        <time>2018-10-13T11:42:38Z</time>
      </trkpt>
      <trkpt lat="43.209113" lon="-4.933812">
        <ele>1408.120</ele>
        <time>2018-10-13T11:42:54Z</time>
      </trkpt>
      <trkpt lat="43.209062" lon="-4.933801">
        <ele>1412.208</ele>
        <time>2018-10-13T11:43:38Z</time>
      </trkpt>
      <trkpt lat="43.209014" lon="-4.933792">
        <ele>1412.529</ele>
        <time>2018-10-13T11:43:46Z</time>
      </trkpt>
      <trkpt lat="43.208969" lon="-4.933791">
        <ele>1413.986</ele>
        <time>2018-10-13T11:43:52Z</time>
      </trkpt>
      <trkpt lat="43.208923" lon="-4.933770">
        <ele>1415.565</ele>
        <time>2018-10-13T11:43:59Z</time>
      </trkpt>
      <trkpt lat="43.208876" lon="-4.933765">
        <ele>1416.452</ele>
        <time>2018-10-13T11:44:25Z</time>
      </trkpt>
      <trkpt lat="43.208837" lon="-4.933722">
        <ele>1418.183</ele>
        <time>2018-10-13T11:44:37Z</time>
      </trkpt>
      <trkpt lat="43.208791" lon="-4.933759">
        <ele>1419.322</ele>
        <time>2018-10-13T11:44:53Z</time>
      </trkpt>
      <trkpt lat="43.208748" lon="-4.933784">
        <ele>1422.888</ele>
        <time>2018-10-13T11:45:44Z</time>
      </trkpt>
      <trkpt lat="43.208704" lon="-4.933815">
        <ele>1423.386</ele>
        <time>2018-10-13T11:45:49Z</time>
      </trkpt>
      <trkpt lat="43.208656" lon="-4.933809">
        <ele>1424.249</ele>
        <time>2018-10-13T11:45:56Z</time>
      </trkpt>
      <trkpt lat="43.208611" lon="-4.933796">
        <ele>1426.502</ele>
        <time>2018-10-13T11:46:12Z</time>
      </trkpt>
      <trkpt lat="43.208565" lon="-4.933780">
        <ele>1427.922</ele>
        <time>2018-10-13T11:46:34Z</time>
      </trkpt>
      <trkpt lat="43.208496" lon="-4.933797">
        <ele>1428.808</ele>
        <time>2018-10-13T11:46:55Z</time>
      </trkpt>
      <trkpt lat="43.208449" lon="-4.933781">
        <ele>1429.146</ele>
        <time>2018-10-13T11:47:01Z</time>
      </trkpt>
      <trkpt lat="43.208404" lon="-4.933770">
        <ele>1430.183</ele>
        <time>2018-10-13T11:47:08Z</time>
      </trkpt>
      <trkpt lat="43.208361" lon="-4.933752">
        <ele>1431.592</ele>
        <time>2018-10-13T11:47:18Z</time>
      </trkpt>
      <trkpt lat="43.208315" lon="-4.933745">
        <ele>1433.049</ele>
        <time>2018-10-13T11:47:27Z</time>
      </trkpt>
      <trkpt lat="43.208271" lon="-4.933720">
        <ele>1433.770</ele>
        <time>2018-10-13T11:47:39Z</time>
      </trkpt>
      <trkpt lat="43.208223" lon="-4.933723">
        <ele>1434.199</ele>
        <time>2018-10-13T11:47:47Z</time>
      </trkpt>
      <trkpt lat="43.208195" lon="-4.933671">
        <ele>1435.195</ele>
        <time>2018-10-13T11:48:02Z</time>
      </trkpt>
      <trkpt lat="43.208160" lon="-4.933626">
        <ele>1437.793</ele>
        <time>2018-10-13T11:48:30Z</time>
      </trkpt>
      <trkpt lat="43.208112" lon="-4.933650">
        <ele>1438.884</ele>
        <time>2018-10-13T11:48:41Z</time>
      </trkpt>
      <trkpt lat="43.208063" lon="-4.933644">
        <ele>1439.307</ele>
        <time>2018-10-13T11:48:49Z</time>
      </trkpt>
      <trkpt lat="43.208020" lon="-4.933610">
        <ele>1439.117</ele>
        <time>2018-10-13T11:48:56Z</time>
      </trkpt>
      <trkpt lat="43.207975" lon="-4.933597">
        <ele>1439.708</ele>
        <time>2018-10-13T11:49:07Z</time>
      </trkpt>
      <trkpt lat="43.207937" lon="-4.933552">
        <ele>1439.730</ele>
        <time>2018-10-13T11:49:16Z</time>
      </trkpt>
      <trkpt lat="43.207893" lon="-4.933528">
        <ele>1440.677</ele>
        <time>2018-10-13T11:49:23Z</time>
      </trkpt>
      <trkpt lat="43.207846" lon="-4.933518">
        <ele>1442.046</ele>
        <time>2018-10-13T11:49:33Z</time>
      </trkpt>
      <trkpt lat="43.207803" lon="-4.933498">
        <ele>1442.843</ele>
        <time>2018-10-13T11:49:42Z</time>
      </trkpt>
      <trkpt lat="43.207761" lon="-4.933523">
        <ele>1443.434</ele>
        <time>2018-10-13T11:49:49Z</time>
      </trkpt>
      <trkpt lat="43.207716" lon="-4.933539">
        <ele>1445.253</ele>
        <time>2018-10-13T11:50:04Z</time>
      </trkpt>
      <trkpt lat="43.207670" lon="-4.933539">
        <ele>1447.949</ele>
        <time>2018-10-13T11:50:26Z</time>
      </trkpt>
      <trkpt lat="43.207637" lon="-4.933585">
        <ele>1450.547</ele>
        <time>2018-10-13T11:50:43Z</time>
      </trkpt>
      <trkpt lat="43.207595" lon="-4.933621">
        <ele>1451.427</ele>
        <time>2018-10-13T11:50:50Z</time>
      </trkpt>
      <trkpt lat="43.207549" lon="-4.933615">
        <ele>1453.368</ele>
        <time>2018-10-13T11:51:07Z</time>
      </trkpt>
      <trkpt lat="43.207504" lon="-4.933624">
        <ele>1454.414</ele>
        <time>2018-10-13T11:51:19Z</time>
      </trkpt>
      <trkpt lat="43.207456" lon="-4.933616">
        <ele>1456.408</ele>
        <time>2018-10-13T11:51:45Z</time>
      </trkpt>
      <trkpt lat="43.207413" lon="-4.933640">
        <ele>1457.354</ele>
        <time>2018-10-13T11:51:56Z</time>
      </trkpt>
      <trkpt lat="43.207367" lon="-4.933665">
        <ele>1460.041</ele>
        <time>2018-10-13T11:52:19Z</time>
      </trkpt>
      <trkpt lat="43.207318" lon="-4.933640">
        <ele>1462.010</ele>
        <time>2018-10-13T11:52:32Z</time>
      </trkpt>
      <trkpt lat="43.207277" lon="-4.933614">
        <ele>1463.387</ele>
        <time>2018-10-13T11:52:41Z</time>
      </trkpt>
      <trkpt lat="43.207228" lon="-4.933589">
        <ele>1465.698</ele>
        <time>2018-10-13T11:53:26Z</time>
      </trkpt>
      <trkpt lat="43.207201" lon="-4.933639">
        <ele>1467.877</ele>
        <time>2018-10-13T11:53:42Z</time>
      </trkpt>
      <trkpt lat="43.207121" lon="-4.933693">
        <ele>1475.243</ele>
        <time>2018-10-13T11:59:52Z</time>
      </trkpt>
      <trkpt lat="43.207080" lon="-4.933726">
        <ele>1478.481</ele>
        <time>2018-10-13T12:00:09Z</time>
      </trkpt>
      <trkpt lat="43.207032" lon="-4.933714">
        <ele>1479.948</ele>
        <time>2018-10-13T12:00:16Z</time>
      </trkpt>
      <trkpt lat="43.206987" lon="-4.933702">
        <ele>1481.261</ele>
        <time>2018-10-13T12:00:21Z</time>
      </trkpt>
      <trkpt lat="43.206966" lon="-4.933761">
        <ele>1484.117</ele>
        <time>2018-10-13T12:00:37Z</time>
      </trkpt>
      <trkpt lat="43.206968" lon="-4.933823">
        <ele>1485.308</ele>
        <time>2018-10-13T12:00:44Z</time>
      </trkpt>
      <trkpt lat="43.206939" lon="-4.933873">
        <ele>1486.826</ele>
        <time>2018-10-13T12:00:51Z</time>
      </trkpt>
      <trkpt lat="43.206899" lon="-4.933905">
        <ele>1487.833</ele>
        <time>2018-10-13T12:01:02Z</time>
      </trkpt>
      <trkpt lat="43.206896" lon="-4.933977">
        <ele>1490.082</ele>
        <time>2018-10-13T12:01:15Z</time>
      </trkpt>
      <trkpt lat="43.206852" lon="-4.934017">
        <ele>1492.059</ele>
        <time>2018-10-13T12:01:30Z</time>
      </trkpt>
      <trkpt lat="43.206811" lon="-4.933987">
        <ele>1493.260</ele>
        <time>2018-10-13T12:01:44Z</time>
      </trkpt>
      <trkpt lat="43.206765" lon="-4.933961">
        <ele>1494.139</ele>
        <time>2018-10-13T12:01:53Z</time>
      </trkpt>
      <trkpt lat="43.206735" lon="-4.933912">
        <ele>1495.675</ele>
        <time>2018-10-13T12:02:04Z</time>
      </trkpt>
      <trkpt lat="43.206704" lon="-4.933866">
        <ele>1495.973</ele>
        <time>2018-10-13T12:02:10Z</time>
      </trkpt>
      <trkpt lat="43.206663" lon="-4.933838">
        <ele>1497.484</ele>
        <time>2018-10-13T12:02:21Z</time>
      </trkpt>
      <trkpt lat="43.206622" lon="-4.933866">
        <ele>1500.807</ele>
        <time>2018-10-13T12:02:41Z</time>
      </trkpt>
      <trkpt lat="43.206584" lon="-4.933922">
        <ele>1502.517</ele>
        <time>2018-10-13T12:02:59Z</time>
      </trkpt>
      <trkpt lat="43.206540" lon="-4.933954">
        <ele>1505.508</ele>
        <time>2018-10-13T12:03:16Z</time>
      </trkpt>
      <trkpt lat="43.206494" lon="-4.933950">
        <ele>1507.590</ele>
        <time>2018-10-13T12:03:30Z</time>
      </trkpt>
      <trkpt lat="43.206448" lon="-4.934006">
        <ele>1511.487</ele>
        <time>2018-10-13T12:04:07Z</time>
      </trkpt>
      <trkpt lat="43.206400" lon="-4.934008">
        <ele>1513.186</ele>
        <time>2018-10-13T12:04:20Z</time>
      </trkpt>
      <trkpt lat="43.206352" lon="-4.933990">
        <ele>1515.893</ele>
        <time>2018-10-13T12:04:35Z</time>
      </trkpt>
      <trkpt lat="43.206313" lon="-4.933943">
        <ele>1515.464</ele>
        <time>2018-10-13T12:04:40Z</time>
      </trkpt>
      <trkpt lat="43.206265" lon="-4.933931">
        <ele>1516.383</ele>
        <time>2018-10-13T12:04:54Z</time>
      </trkpt>
      <trkpt lat="43.206225" lon="-4.933965">
        <ele>1518.799</ele>
        <time>2018-10-13T12:05:02Z</time>
      </trkpt>
      <trkpt lat="43.206182" lon="-4.933985">
        <ele>1520.447</ele>
        <time>2018-10-13T12:05:09Z</time>
      </trkpt>
      <trkpt lat="43.206136" lon="-4.933999">
        <ele>1523.012</ele>
        <time>2018-10-13T12:05:29Z</time>
      </trkpt>
      <trkpt lat="43.206153" lon="-4.934060">
        <ele>1524.732</ele>
        <time>2018-10-13T12:05:42Z</time>
      </trkpt>
      <trkpt lat="43.206142" lon="-4.934121">
        <ele>1526.705</ele>
        <time>2018-10-13T12:05:54Z</time>
      </trkpt>
      <trkpt lat="43.206090" lon="-4.934119">
        <ele>1528.308</ele>
        <time>2018-10-13T12:06:09Z</time>
      </trkpt>
      <trkpt lat="43.206041" lon="-4.934106">
        <ele>1529.333</ele>
        <time>2018-10-13T12:06:19Z</time>
      </trkpt>
      <trkpt lat="43.205998" lon="-4.934134">
        <ele>1531.240</ele>
        <time>2018-10-13T12:06:38Z</time>
      </trkpt>
      <trkpt lat="43.206003" lon="-4.934197">
        <ele>1532.629</ele>
        <time>2018-10-13T12:06:49Z</time>
      </trkpt>
      <trkpt lat="43.205955" lon="-4.934163">
        <ele>1537.156</ele>
        <time>2018-10-13T12:08:04Z</time>
      </trkpt>
      <trkpt lat="43.205907" lon="-4.934157">
        <ele>1537.777</ele>
        <time>2018-10-13T12:08:19Z</time>
      </trkpt>
      <trkpt lat="43.205907" lon="-4.934223">
        <ele>1539.116</ele>
        <time>2018-10-13T12:08:31Z</time>
      </trkpt>
      <trkpt lat="43.205903" lon="-4.934285">
        <ele>1541.162</ele>
        <time>2018-10-13T12:08:42Z</time>
      </trkpt>
      <trkpt lat="43.205925" lon="-4.934341">
        <ele>1541.740</ele>
        <time>2018-10-13T12:09:03Z</time>
      </trkpt>
      <trkpt lat="43.205949" lon="-4.934398">
        <ele>1543.597</ele>
        <time>2018-10-13T12:09:13Z</time>
      </trkpt>
      <trkpt lat="43.205982" lon="-4.934443">
        <ele>1545.823</ele>
        <time>2018-10-13T12:09:27Z</time>
      </trkpt>
      <trkpt lat="43.206011" lon="-4.934495">
        <ele>1548.225</ele>
        <time>2018-10-13T12:09:44Z</time>
      </trkpt>
      <trkpt lat="43.206022" lon="-4.934556">
        <ele>1550.608</ele>
        <time>2018-10-13T12:10:28Z</time>
      </trkpt>
      <trkpt lat="43.205975" lon="-4.934655">
        <ele>1555.021</ele>
        <time>2018-10-13T12:10:55Z</time>
      </trkpt>
      <trkpt lat="43.205965" lon="-4.934719">
        <ele>1556.628</ele>
        <time>2018-10-13T12:11:08Z</time>
      </trkpt>
      <trkpt lat="43.205935" lon="-4.934765">
        <ele>1558.377</ele>
        <time>2018-10-13T12:11:23Z</time>
      </trkpt>
      <trkpt lat="43.205906" lon="-4.934825">
        <ele>1560.214</ele>
        <time>2018-10-13T12:11:37Z</time>
      </trkpt>
      <trkpt lat="43.205880" lon="-4.934888">
        <ele>1561.575</ele>
        <time>2018-10-13T12:11:47Z</time>
      </trkpt>
      <trkpt lat="43.205852" lon="-4.934946">
        <ele>1562.724</ele>
        <time>2018-10-13T12:11:56Z</time>
      </trkpt>
      <trkpt lat="43.205820" lon="-4.934991">
        <ele>1564.410</ele>
        <time>2018-10-13T12:12:11Z</time>
      </trkpt>
      <trkpt lat="43.205783" lon="-4.935029">
        <ele>1565.618</ele>
        <time>2018-10-13T12:12:19Z</time>
      </trkpt>
      <trkpt lat="43.205755" lon="-4.935078">
        <ele>1566.254</ele>
        <time>2018-10-13T12:12:26Z</time>
      </trkpt>
      <trkpt lat="43.205716" lon="-4.935110">
        <ele>1566.856</ele>
        <time>2018-10-13T12:12:34Z</time>
      </trkpt>
      <trkpt lat="43.205672" lon="-4.935127">
        <ele>1567.411</ele>
        <time>2018-10-13T12:12:41Z</time>
      </trkpt>
      <trkpt lat="43.205628" lon="-4.935161">
        <ele>1567.608</ele>
        <time>2018-10-13T12:12:48Z</time>
      </trkpt>
      <trkpt lat="43.205587" lon="-4.935189">
        <ele>1568.097</ele>
        <time>2018-10-13T12:12:57Z</time>
      </trkpt>
      <trkpt lat="43.205541" lon="-4.935186">
        <ele>1569.334</ele>
        <time>2018-10-13T12:13:14Z</time>
      </trkpt>
      <trkpt lat="43.205498" lon="-4.935205">
        <ele>1571.973</ele>
        <time>2018-10-13T12:13:28Z</time>
      </trkpt>
      <trkpt lat="43.205450" lon="-4.935206">
        <ele>1573.210</ele>
        <time>2018-10-13T12:13:38Z</time>
      </trkpt>
      <trkpt lat="43.205402" lon="-4.935167">
        <ele>1574.711</ele>
        <time>2018-10-13T12:14:04Z</time>
      </trkpt>
      <trkpt lat="43.205352" lon="-4.935218">
        <ele>1575.950</ele>
        <time>2018-10-13T12:16:05Z</time>
      </trkpt>
      <trkpt lat="43.205306" lon="-4.935198">
        <ele>1575.786</ele>
        <time>2018-10-13T12:16:17Z</time>
      </trkpt>
      <trkpt lat="43.205261" lon="-4.935236">
        <ele>1577.024</ele>
        <time>2018-10-13T12:16:24Z</time>
      </trkpt>
      <trkpt lat="43.205203" lon="-4.935233">
        <ele>1578.152</ele>
        <time>2018-10-13T12:16:35Z</time>
      </trkpt>
      <trkpt lat="43.205155" lon="-4.935212">
        <ele>1577.953</ele>
        <time>2018-10-13T12:16:42Z</time>
      </trkpt>
      <trkpt lat="43.205122" lon="-4.935168">
        <ele>1577.108</ele>
        <time>2018-10-13T12:16:50Z</time>
      </trkpt>
      <trkpt lat="43.205073" lon="-4.935153">
        <ele>1576.608</ele>
        <time>2018-10-13T12:16:56Z</time>
      </trkpt>
      <trkpt lat="43.205028" lon="-4.935133">
        <ele>1577.797</ele>
        <time>2018-10-13T12:17:04Z</time>
      </trkpt>
      <trkpt lat="43.205014" lon="-4.935271">
        <ele>1578.334</ele>
        <time>2018-10-13T12:18:42Z</time>
      </trkpt>
      <trkpt lat="43.204969" lon="-4.935275">
        <ele>1578.053</ele>
        <time>2018-10-13T12:18:53Z</time>
      </trkpt>
      <trkpt lat="43.204938" lon="-4.935329">
        <ele>1578.050</ele>
        <time>2018-10-13T12:19:04Z</time>
      </trkpt>
      <trkpt lat="43.204908" lon="-4.935377">
        <ele>1575.831</ele>
        <time>2018-10-13T12:19:12Z</time>
      </trkpt>
      <trkpt lat="43.204920" lon="-4.935439">
        <ele>1576.060</ele>
        <time>2018-10-13T12:19:24Z</time>
      </trkpt>
      <trkpt lat="43.204950" lon="-4.935485">
        <ele>1580.486</ele>
        <time>2018-10-13T12:19:41Z</time>
      </trkpt>
      <trkpt lat="43.204934" lon="-4.935544">
        <ele>1580.254</ele>
        <time>2018-10-13T12:19:46Z</time>
      </trkpt>
      <trkpt lat="43.204902" lon="-4.935611">
        <ele>1580.931</ele>
        <time>2018-10-13T12:19:54Z</time>
      </trkpt>
      <trkpt lat="43.204855" lon="-4.935668">
        <ele>1580.561</ele>
        <time>2018-10-13T12:20:14Z</time>
      </trkpt>
      <trkpt lat="43.204830" lon="-4.935721">
        <ele>1580.507</ele>
        <time>2018-10-13T12:21:03Z</time>
      </trkpt>
      <trkpt lat="43.204834" lon="-4.935787">
        <ele>1579.008</ele>
        <time>2018-10-13T12:21:12Z</time>
      </trkpt>
      <trkpt lat="43.204838" lon="-4.935850">
        <ele>1580.285</ele>
        <time>2018-10-13T12:21:21Z</time>
      </trkpt>
      <trkpt lat="43.204832" lon="-4.935918">
        <ele>1581.512</ele>
        <time>2018-10-13T12:21:33Z</time>
      </trkpt>
      <trkpt lat="43.204877" lon="-4.935952">
        <ele>1583.321</ele>
        <time>2018-10-13T12:21:53Z</time>
      </trkpt>
      <trkpt lat="43.204856" lon="-4.936011">
        <ele>1583.388</ele>
        <time>2018-10-13T12:21:59Z</time>
      </trkpt>
      <trkpt lat="43.204857" lon="-4.936092">
        <ele>1584.079</ele>
        <time>2018-10-13T12:22:06Z</time>
      </trkpt>
      <trkpt lat="43.204876" lon="-4.936148">
        <ele>1585.198</ele>
        <time>2018-10-13T12:22:14Z</time>
      </trkpt>
      <trkpt lat="43.204921" lon="-4.936177">
        <ele>1590.664</ele>
        <time>2018-10-13T12:22:40Z</time>
      </trkpt>
      <trkpt lat="43.204965" lon="-4.936194">
        <ele>1589.932</ele>
        <time>2018-10-13T12:22:47Z</time>
      </trkpt>
      <trkpt lat="43.205017" lon="-4.936210">
        <ele>1591.534</ele>
        <time>2018-10-13T12:23:11Z</time>
      </trkpt>
      <trkpt lat="43.205085" lon="-4.936231">
        <ele>1593.955</ele>
        <time>2018-10-13T12:23:28Z</time>
      </trkpt>
      <trkpt lat="43.205125" lon="-4.936264">
        <ele>1594.610</ele>
        <time>2018-10-13T12:23:36Z</time>
      </trkpt>
      <trkpt lat="43.205184" lon="-4.936272">
        <ele>1594.508</ele>
        <time>2018-10-13T12:24:15Z</time>
      </trkpt>
      <trkpt lat="43.205246" lon="-4.936250">
        <ele>1595.715</ele>
        <time>2018-10-13T12:24:42Z</time>
      </trkpt>
      <trkpt lat="43.205293" lon="-4.936272">
        <ele>1599.752</ele>
        <time>2018-10-13T12:25:03Z</time>
      </trkpt>
      <trkpt lat="43.205337" lon="-4.936293">
        <ele>1601.771</ele>
        <time>2018-10-13T12:25:12Z</time>
      </trkpt>
      <trkpt lat="43.205384" lon="-4.936305">
        <ele>1603.648</ele>
        <time>2018-10-13T12:25:20Z</time>
      </trkpt>
      <trkpt lat="43.205440" lon="-4.936328">
        <ele>1604.249</ele>
        <time>2018-10-13T12:25:33Z</time>
      </trkpt>
      <trkpt lat="43.205448" lon="-4.936397">
        <ele>1606.288</ele>
        <time>2018-10-13T12:25:45Z</time>
      </trkpt>
      <trkpt lat="43.205495" lon="-4.936428">
        <ele>1607.724</ele>
        <time>2018-10-13T12:26:05Z</time>
      </trkpt>
      <trkpt lat="43.205541" lon="-4.936425">
        <ele>1608.892</ele>
        <time>2018-10-13T12:26:13Z</time>
      </trkpt>
      <trkpt lat="43.205577" lon="-4.936477">
        <ele>1609.659</ele>
        <time>2018-10-13T12:26:32Z</time>
      </trkpt>
      <trkpt lat="43.205559" lon="-4.936569">
        <ele>1609.803</ele>
        <time>2018-10-13T12:27:14Z</time>
      </trkpt>
      <trkpt lat="43.205595" lon="-4.936531">
        <ele>1609.423</ele>
        <time>2018-10-13T12:27:45Z</time>
      </trkpt>
      <trkpt lat="43.205629" lon="-4.936587">
        <ele>1610.708</ele>
        <time>2018-10-13T12:28:20Z</time>
      </trkpt>
      <trkpt lat="43.205652" lon="-4.936737">
        <ele>1617.147</ele>
        <time>2018-10-13T12:30:21Z</time>
      </trkpt>
      <trkpt lat="43.205701" lon="-4.936779">
        <ele>1623.794</ele>
        <time>2018-10-13T12:32:34Z</time>
      </trkpt>
      <trkpt lat="43.205839" lon="-4.936855">
        <ele>1624.433</ele>
        <time>2018-10-13T12:33:34Z</time>
      </trkpt>
      <trkpt lat="43.205900" lon="-4.936896">
        <ele>1623.310</ele>
        <time>2018-10-13T12:33:49Z</time>
      </trkpt>
      <trkpt lat="43.205944" lon="-4.936965">
        <ele>1622.671</ele>
        <time>2018-10-13T12:34:42Z</time>
      </trkpt>
      <trkpt lat="43.205926" lon="-4.937065">
        <ele>1622.830</ele>
        <time>2018-10-13T12:34:54Z</time>
      </trkpt>
      <trkpt lat="43.205951" lon="-4.937121">
        <ele>1622.376</ele>
        <time>2018-10-13T12:35:01Z</time>
      </trkpt>
      <trkpt lat="43.206032" lon="-4.937118">
        <ele>1622.284</ele>
        <time>2018-10-13T12:35:43Z</time>
      </trkpt>
      <trkpt lat="43.206012" lon="-4.937180">
        <ele>1622.069</ele>
        <time>2018-10-13T12:35:56Z</time>
      </trkpt>
      <trkpt lat="43.206026" lon="-4.937248">
        <ele>1623.204</ele>
        <time>2018-10-13T12:36:06Z</time>
      </trkpt>
      <trkpt lat="43.206038" lon="-4.937308">
        <ele>1623.724</ele>
        <time>2018-10-13T12:36:11Z</time>
      </trkpt>
      <trkpt lat="43.206041" lon="-4.937379">
        <ele>1623.508</ele>
        <time>2018-10-13T12:36:17Z</time>
      </trkpt>
      <trkpt lat="43.206031" lon="-4.937440">
        <ele>1623.558</ele>
        <time>2018-10-13T12:36:23Z</time>
      </trkpt>
      <trkpt lat="43.206061" lon="-4.937494">
        <ele>1622.475</ele>
        <time>2018-10-13T12:36:36Z</time>
      </trkpt>
      <trkpt lat="43.206072" lon="-4.937563">
        <ele>1625.354</ele>
        <time>2018-10-13T12:37:54Z</time>
      </trkpt>
      <trkpt lat="43.206096" lon="-4.937619">
        <ele>1627.261</ele>
        <time>2018-10-13T12:38:26Z</time>
      </trkpt>
      <trkpt lat="43.206156" lon="-4.937657">
        <ele>1630.962</ele>
        <time>2018-10-13T12:38:48Z</time>
      </trkpt>
      <trkpt lat="43.206202" lon="-4.937727">
        <ele>1634.531</ele>
        <time>2018-10-13T12:39:04Z</time>
      </trkpt>
      <trkpt lat="43.206226" lon="-4.937796">
        <ele>1635.287</ele>
        <time>2018-10-13T12:39:22Z</time>
      </trkpt>
      <trkpt lat="43.206260" lon="-4.937849">
        <ele>1635.755</ele>
        <time>2018-10-13T12:39:27Z</time>
      </trkpt>
      <trkpt lat="43.206292" lon="-4.937893">
        <ele>1636.295</ele>
        <time>2018-10-13T12:39:31Z</time>
      </trkpt>
      <trkpt lat="43.206340" lon="-4.937961">
        <ele>1638.149</ele>
        <time>2018-10-13T12:39:44Z</time>
      </trkpt>
      <trkpt lat="43.206356" lon="-4.938021">
        <ele>1638.523</ele>
        <time>2018-10-13T12:40:05Z</time>
      </trkpt>
      <trkpt lat="43.206413" lon="-4.938066">
        <ele>1639.908</ele>
        <time>2018-10-13T12:40:18Z</time>
      </trkpt>
      <trkpt lat="43.206434" lon="-4.938124">
        <ele>1639.471</ele>
        <time>2018-10-13T12:40:39Z</time>
      </trkpt>
      <trkpt lat="43.206463" lon="-4.938175">
        <ele>1639.628</ele>
        <time>2018-10-13T12:40:48Z</time>
      </trkpt>
      <trkpt lat="43.206493" lon="-4.938223">
        <ele>1641.067</ele>
        <time>2018-10-13T12:41:00Z</time>
      </trkpt>
      <trkpt lat="43.206519" lon="-4.938277">
        <ele>1642.984</ele>
        <time>2018-10-13T12:41:19Z</time>
      </trkpt>
      <trkpt lat="43.206506" lon="-4.938341">
        <ele>1644.975</ele>
        <time>2018-10-13T12:41:44Z</time>
      </trkpt>
      <trkpt lat="43.206529" lon="-4.938395">
        <ele>1645.964</ele>
        <time>2018-10-13T12:41:53Z</time>
      </trkpt>
      <trkpt lat="43.206585" lon="-4.938461">
        <ele>1644.830</ele>
        <time>2018-10-13T12:42:16Z</time>
      </trkpt>
      <trkpt lat="43.206620" lon="-4.938553">
        <ele>1645.468</ele>
        <time>2018-10-13T12:42:38Z</time>
      </trkpt>
      <trkpt lat="43.206687" lon="-4.938626">
        <ele>1647.975</ele>
        <time>2018-10-13T12:42:56Z</time>
      </trkpt>
      <trkpt lat="43.206689" lon="-4.938696">
        <ele>1649.128</ele>
        <time>2018-10-13T12:43:05Z</time>
      </trkpt>
      <trkpt lat="43.206674" lon="-4.938775">
        <ele>1652.120</ele>
        <time>2018-10-13T12:43:38Z</time>
      </trkpt>
      <trkpt lat="43.206649" lon="-4.938827">
        <ele>1653.608</ele>
        <time>2018-10-13T12:43:49Z</time>
      </trkpt>
      <trkpt lat="43.206628" lon="-4.938885">
        <ele>1654.189</ele>
        <time>2018-10-13T12:44:21Z</time>
      </trkpt>
      <trkpt lat="43.206645" lon="-4.938943">
        <ele>1656.346</ele>
        <time>2018-10-13T12:45:10Z</time>
      </trkpt>
      <trkpt lat="43.206674" lon="-4.939013">
        <ele>1658.585</ele>
        <time>2018-10-13T12:45:30Z</time>
      </trkpt>
      <trkpt lat="43.206674" lon="-4.939082">
        <ele>1659.952</ele>
        <time>2018-10-13T12:45:40Z</time>
      </trkpt>
      <trkpt lat="43.206699" lon="-4.939141">
        <ele>1662.213</ele>
        <time>2018-10-13T12:45:58Z</time>
      </trkpt>
      <trkpt lat="43.206745" lon="-4.939163">
        <ele>1664.532</ele>
        <time>2018-10-13T12:46:13Z</time>
      </trkpt>
      <trkpt lat="43.206792" lon="-4.939201">
        <ele>1665.978</ele>
        <time>2018-10-13T12:47:00Z</time>
      </trkpt>
      <trkpt lat="43.206769" lon="-4.939261">
        <ele>1667.956</ele>
        <time>2018-10-13T12:47:10Z</time>
      </trkpt>
      <trkpt lat="43.206757" lon="-4.939367">
        <ele>1672.794</ele>
        <time>2018-10-13T13:08:43Z</time>
      </trkpt>
      <trkpt lat="43.206791" lon="-4.939414">
        <ele>1668.757</ele>
        <time>2018-10-13T13:08:54Z</time>
      </trkpt>
      <trkpt lat="43.206839" lon="-4.939396">
        <ele>1669.322</ele>
        <time>2018-10-13T13:09:01Z</time>
      </trkpt>
      <trkpt lat="43.206881" lon="-4.939361">
        <ele>1671.108</ele>
        <time>2018-10-13T13:09:08Z</time>
      </trkpt>
      <trkpt lat="43.206928" lon="-4.939363">
        <ele>1672.581</ele>
        <time>2018-10-13T13:09:14Z</time>
      </trkpt>
      <trkpt lat="43.206964" lon="-4.939409">
        <ele>1671.918</ele>
        <time>2018-10-13T13:09:22Z</time>
      </trkpt>
      <trkpt lat="43.206967" lon="-4.939480">
        <ele>1671.417</ele>
        <time>2018-10-13T13:09:30Z</time>
      </trkpt>
      <trkpt lat="43.206943" lon="-4.939536">
        <ele>1671.624</ele>
        <time>2018-10-13T13:09:40Z</time>
      </trkpt>
      <trkpt lat="43.206928" lon="-4.939596">
        <ele>1671.825</ele>
        <time>2018-10-13T13:09:47Z</time>
      </trkpt>
      <trkpt lat="43.206964" lon="-4.939637">
        <ele>1670.564</ele>
        <time>2018-10-13T13:10:10Z</time>
      </trkpt>
      <trkpt lat="43.206953" lon="-4.939700">
        <ele>1669.990</ele>
        <time>2018-10-13T13:10:16Z</time>
      </trkpt>
      <trkpt lat="43.206975" lon="-4.939758">
        <ele>1670.028</ele>
        <time>2018-10-13T13:10:23Z</time>
      </trkpt>
      <trkpt lat="43.207018" lon="-4.939782">
        <ele>1669.766</ele>
        <time>2018-10-13T13:10:30Z</time>
      </trkpt>
      <trkpt lat="43.207063" lon="-4.939805">
        <ele>1669.529</ele>
        <time>2018-10-13T13:10:38Z</time>
      </trkpt>
      <trkpt lat="43.207092" lon="-4.939854">
        <ele>1669.721</ele>
        <time>2018-10-13T13:10:47Z</time>
      </trkpt>
      <trkpt lat="43.207093" lon="-4.939922">
        <ele>1671.008</ele>
        <time>2018-10-13T13:10:55Z</time>
      </trkpt>
      <trkpt lat="43.207099" lon="-4.939986">
        <ele>1672.588</ele>
        <time>2018-10-13T13:11:33Z</time>
      </trkpt>
      <trkpt lat="43.207087" lon="-4.940053">
        <ele>1676.845</ele>
        <time>2018-10-13T13:12:05Z</time>
      </trkpt>
      <trkpt lat="43.207145" lon="-4.940107">
        <ele>1679.954</ele>
        <time>2018-10-13T13:12:25Z</time>
      </trkpt>
      <trkpt lat="43.207143" lon="-4.940180">
        <ele>1678.761</ele>
        <time>2018-10-13T13:13:28Z</time>
      </trkpt>
      <trkpt lat="43.207183" lon="-4.940150">
        <ele>1677.992</ele>
        <time>2018-10-13T13:13:36Z</time>
      </trkpt>
      <trkpt lat="43.207231" lon="-4.940134">
        <ele>1677.391</ele>
        <time>2018-10-13T13:13:46Z</time>
      </trkpt>
      <trkpt lat="43.207277" lon="-4.940154">
        <ele>1675.537</ele>
        <time>2018-10-13T13:14:00Z</time>
      </trkpt>
      <trkpt lat="43.207323" lon="-4.940125">
        <ele>1675.415</ele>
        <time>2018-10-13T13:14:06Z</time>
      </trkpt>
      <trkpt lat="43.207382" lon="-4.940099">
        <ele>1676.441</ele>
        <time>2018-10-13T13:14:21Z</time>
      </trkpt>
      <trkpt lat="43.207429" lon="-4.940101">
        <ele>1674.781</ele>
        <time>2018-10-13T13:14:32Z</time>
      </trkpt>
      <trkpt lat="43.207479" lon="-4.940109">
        <ele>1673.709</ele>
        <time>2018-10-13T13:14:39Z</time>
      </trkpt>
      <trkpt lat="43.207527" lon="-4.940120">
        <ele>1675.108</ele>
        <time>2018-10-13T13:14:48Z</time>
      </trkpt>
      <trkpt lat="43.207576" lon="-4.940123">
        <ele>1674.796</ele>
        <time>2018-10-13T13:14:55Z</time>
      </trkpt>
      <trkpt lat="43.207610" lon="-4.940164">
        <ele>1676.593</ele>
        <time>2018-10-13T13:15:08Z</time>
      </trkpt>
      <trkpt lat="43.207643" lon="-4.940120">
        <ele>1679.182</ele>
        <time>2018-10-13T13:15:24Z</time>
      </trkpt>
      <trkpt lat="43.207693" lon="-4.940128">
        <ele>1675.669</ele>
        <time>2018-10-13T13:15:36Z</time>
      </trkpt>
      <trkpt lat="43.207742" lon="-4.940140">
        <ele>1675.060</ele>
        <time>2018-10-13T13:15:43Z</time>
      </trkpt>
      <trkpt lat="43.207790" lon="-4.940150">
        <ele>1677.049</ele>
        <time>2018-10-13T13:15:51Z</time>
      </trkpt>
      <trkpt lat="43.207837" lon="-4.940168">
        <ele>1677.735</ele>
        <time>2018-10-13T13:16:09Z</time>
      </trkpt>
      <trkpt lat="43.207902" lon="-4.940184">
        <ele>1679.873</ele>
        <time>2018-10-13T13:16:35Z</time>
      </trkpt>
      <trkpt lat="43.207928" lon="-4.940240">
        <ele>1679.299</ele>
        <time>2018-10-13T13:16:58Z</time>
      </trkpt>
      <trkpt lat="43.207941" lon="-4.940299">
        <ele>1678.307</ele>
        <time>2018-10-13T13:17:04Z</time>
      </trkpt>
      <trkpt lat="43.207962" lon="-4.940359">
        <ele>1677.727</ele>
        <time>2018-10-13T13:17:09Z</time>
      </trkpt>
      <trkpt lat="43.207994" lon="-4.940421">
        <ele>1677.808</ele>
        <time>2018-10-13T13:17:19Z</time>
      </trkpt>
      <trkpt lat="43.208010" lon="-4.940481">
        <ele>1678.591</ele>
        <time>2018-10-13T13:17:53Z</time>
      </trkpt>
      <trkpt lat="43.208048" lon="-4.940528">
        <ele>1678.498</ele>
        <time>2018-10-13T13:18:32Z</time>
      </trkpt>
      <trkpt lat="43.208100" lon="-4.940555">
        <ele>1678.887</ele>
        <time>2018-10-13T13:18:42Z</time>
      </trkpt>
      <trkpt lat="43.208143" lon="-4.940502">
        <ele>1679.544</ele>
        <time>2018-10-13T13:19:12Z</time>
      </trkpt>
      <trkpt lat="43.208191" lon="-4.940499">
        <ele>1682.935</ele>
        <time>2018-10-13T13:19:48Z</time>
      </trkpt>
      <trkpt lat="43.208242" lon="-4.940519">
        <ele>1687.544</ele>
        <time>2018-10-13T13:20:18Z</time>
      </trkpt>
      <trkpt lat="43.208246" lon="-4.940584">
        <ele>1691.910</ele>
        <time>2018-10-13T13:21:23Z</time>
      </trkpt>
      <trkpt lat="43.208273" lon="-4.940654">
        <ele>1694.648</ele>
        <time>2018-10-13T13:21:45Z</time>
      </trkpt>
      <trkpt lat="43.208246" lon="-4.940755">
        <ele>1699.322</ele>
        <time>2018-10-13T13:22:12Z</time>
      </trkpt>
      <trkpt lat="43.208286" lon="-4.940789">
        <ele>1699.162</ele>
        <time>2018-10-13T13:23:03Z</time>
      </trkpt>
      <trkpt lat="43.208351" lon="-4.940801">
        <ele>1697.008</ele>
        <time>2018-10-13T13:23:23Z</time>
      </trkpt>
      <trkpt lat="43.208357" lon="-4.940867">
        <ele>1695.908</ele>
        <time>2018-10-13T13:23:30Z</time>
      </trkpt>
      <trkpt lat="43.208352" lon="-4.940934">
        <ele>1695.744</ele>
        <time>2018-10-13T13:23:35Z</time>
      </trkpt>
      <trkpt lat="43.208379" lon="-4.941013">
        <ele>1696.191</ele>
        <time>2018-10-13T13:23:42Z</time>
      </trkpt>
      <trkpt lat="43.208416" lon="-4.941069">
        <ele>1695.020</ele>
        <time>2018-10-13T13:25:27Z</time>
      </trkpt>
      <trkpt lat="43.208438" lon="-4.941124">
        <ele>1695.177</ele>
        <time>2018-10-13T13:25:31Z</time>
      </trkpt>
      <trkpt lat="43.208438" lon="-4.941196">
        <ele>1696.828</ele>
        <time>2018-10-13T13:25:43Z</time>
      </trkpt>
      <trkpt lat="43.208440" lon="-4.941265">
        <ele>1698.257</ele>
        <time>2018-10-13T13:25:50Z</time>
      </trkpt>
      <trkpt lat="43.208465" lon="-4.941320">
        <ele>1699.743</ele>
        <time>2018-10-13T13:25:59Z</time>
      </trkpt>
      <trkpt lat="43.208499" lon="-4.941365">
        <ele>1700.451</ele>
        <time>2018-10-13T13:26:07Z</time>
      </trkpt>
      <trkpt lat="43.208529" lon="-4.941414">
        <ele>1701.647</ele>
        <time>2018-10-13T13:26:15Z</time>
      </trkpt>
      <trkpt lat="43.208566" lon="-4.941461">
        <ele>1703.029</ele>
        <time>2018-10-13T13:26:21Z</time>
      </trkpt>
      <trkpt lat="43.208606" lon="-4.941500">
        <ele>1704.821</ele>
        <time>2018-10-13T13:26:31Z</time>
      </trkpt>
      <trkpt lat="43.208613" lon="-4.941564">
        <ele>1706.708</ele>
        <time>2018-10-13T13:26:56Z</time>
      </trkpt>
      <trkpt lat="43.208583" lon="-4.941628">
        <ele>1708.066</ele>
        <time>2018-10-13T13:27:03Z</time>
      </trkpt>
      <trkpt lat="43.208562" lon="-4.941685">
        <ele>1709.573</ele>
        <time>2018-10-13T13:27:12Z</time>
      </trkpt>
      <trkpt lat="43.208523" lon="-4.941724">
        <ele>1712.112</ele>
        <time>2018-10-13T13:27:22Z</time>
      </trkpt>
      <trkpt lat="43.208487" lon="-4.941763">
        <ele>1714.839</ele>
        <time>2018-10-13T13:27:33Z</time>
      </trkpt>
      <trkpt lat="43.208475" lon="-4.941823">
        <ele>1716.970</ele>
        <time>2018-10-13T13:27:48Z</time>
      </trkpt>
      <trkpt lat="43.208521" lon="-4.941822">
        <ele>1720.359</ele>
        <time>2018-10-13T13:28:08Z</time>
      </trkpt>
      <trkpt lat="43.208570" lon="-4.941908">
        <ele>1726.095</ele>
        <time>2018-10-13T13:29:05Z</time>
      </trkpt>
      <trkpt lat="43.208570" lon="-4.941980">
        <ele>1727.833</ele>
        <time>2018-10-13T13:29:19Z</time>
      </trkpt>
      <trkpt lat="43.208559" lon="-4.942056">
        <ele>1732.859</ele>
        <time>2018-10-13T13:30:06Z</time>
      </trkpt>
      <trkpt lat="43.208564" lon="-4.942119">
        <ele>1736.103</ele>
        <time>2018-10-13T13:30:41Z</time>
      </trkpt>
      <trkpt lat="43.208611" lon="-4.942110">
        <ele>1736.723</ele>
        <time>2018-10-13T13:30:51Z</time>
      </trkpt>
      <trkpt lat="43.208664" lon="-4.942087">
        <ele>1741.908</ele>
        <time>2018-10-13T13:31:24Z</time>
      </trkpt>
      <trkpt lat="43.208712" lon="-4.942092">
        <ele>1742.997</ele>
        <time>2018-10-13T13:31:29Z</time>
      </trkpt>
      <trkpt lat="43.208753" lon="-4.942123">
        <ele>1743.964</ele>
        <time>2018-10-13T13:31:36Z</time>
      </trkpt>
      <trkpt lat="43.208799" lon="-4.942133">
        <ele>1746.163</ele>
        <time>2018-10-13T13:31:55Z</time>
      </trkpt>
      <trkpt lat="43.208852" lon="-4.942121">
        <ele>1749.130</ele>
        <time>2018-10-13T13:32:20Z</time>
      </trkpt>
      <trkpt lat="43.208856" lon="-4.942225">
        <ele>1756.791</ele>
        <time>2018-10-13T13:34:15Z</time>
      </trkpt>
      <trkpt lat="43.208918" lon="-4.942280">
        <ele>1759.590</ele>
        <time>2018-10-13T13:36:02Z</time>
      </trkpt>
      <trkpt lat="43.208964" lon="-4.942327">
        <ele>1762.266</ele>
        <time>2018-10-13T13:36:30Z</time>
      </trkpt>
      <trkpt lat="43.208981" lon="-4.942427">
        <ele>1763.424</ele>
        <time>2018-10-13T13:36:46Z</time>
      </trkpt>
      <trkpt lat="43.209005" lon="-4.942481">
        <ele>1765.681</ele>
        <time>2018-10-13T13:37:00Z</time>
      </trkpt>
      <trkpt lat="43.208984" lon="-4.942560">
        <ele>1769.061</ele>
        <time>2018-10-13T13:37:26Z</time>
      </trkpt>
      <trkpt lat="43.208979" lon="-4.942639">
        <ele>1777.317</ele>
        <time>2018-10-13T13:39:00Z</time>
      </trkpt>
      <trkpt lat="43.209009" lon="-4.942701">
        <ele>1778.008</ele>
        <time>2018-10-13T13:39:12Z</time>
      </trkpt>
      <trkpt lat="43.209054" lon="-4.942794">
        <ele>1779.040</ele>
        <time>2018-10-13T13:40:02Z</time>
      </trkpt>
      <trkpt lat="43.209003" lon="-4.942756">
        <ele>1779.377</ele>
        <time>2018-10-13T13:40:07Z</time>
      </trkpt>
      <trkpt lat="43.209008" lon="-4.942820">
        <ele>1779.046</ele>
        <time>2018-10-13T13:40:13Z</time>
      </trkpt>
      <trkpt lat="43.208959" lon="-4.942801">
        <ele>1777.963</ele>
        <time>2018-10-13T13:41:13Z</time>
      </trkpt>
      <trkpt lat="43.208971" lon="-4.942867">
        <ele>1777.314</ele>
        <time>2018-10-13T13:42:13Z</time>
      </trkpt>
      <trkpt lat="43.209010" lon="-4.942925">
        <ele>1782.353</ele>
        <time>2018-10-13T13:42:35Z</time>
      </trkpt>
      <trkpt lat="43.209053" lon="-4.942949">
        <ele>1783.859</ele>
        <time>2018-10-13T13:42:54Z</time>
      </trkpt>
      <trkpt lat="43.209081" lon="-4.942999">
        <ele>1784.857</ele>
        <time>2018-10-13T13:42:59Z</time>
      </trkpt>
      <trkpt lat="43.209133" lon="-4.943001">
        <ele>1786.492</ele>
        <time>2018-10-13T13:43:06Z</time>
      </trkpt>
      <trkpt lat="43.209184" lon="-4.943006">
        <ele>1787.473</ele>
        <time>2018-10-13T13:43:13Z</time>
      </trkpt>
      <trkpt lat="43.209231" lon="-4.943013">
        <ele>1788.220</ele>
        <time>2018-10-13T13:43:22Z</time>
      </trkpt>
      <trkpt lat="43.209278" lon="-4.943033">
        <ele>1789.408</ele>
        <time>2018-10-13T13:43:31Z</time>
      </trkpt>
      <trkpt lat="43.209323" lon="-4.943060">
        <ele>1790.481</ele>
        <time>2018-10-13T13:43:38Z</time>
      </trkpt>
      <trkpt lat="43.209360" lon="-4.943102">
        <ele>1791.568</ele>
        <time>2018-10-13T13:43:46Z</time>
      </trkpt>
      <trkpt lat="43.209389" lon="-4.943161">
        <ele>1794.187</ele>
        <time>2018-10-13T13:43:57Z</time>
      </trkpt>
      <trkpt lat="43.209429" lon="-4.943195">
        <ele>1795.184</ele>
        <time>2018-10-13T13:44:06Z</time>
      </trkpt>
      <trkpt lat="43.209460" lon="-4.943243">
        <ele>1796.925</ele>
        <time>2018-10-13T13:44:19Z</time>
      </trkpt>
      <trkpt lat="43.209493" lon="-4.943287">
        <ele>1797.994</ele>
        <time>2018-10-13T13:44:31Z</time>
      </trkpt>
      <trkpt lat="43.209535" lon="-4.943329">
        <ele>1798.860</ele>
        <time>2018-10-13T13:44:40Z</time>
      </trkpt>
      <trkpt lat="43.209574" lon="-4.943361">
        <ele>1799.968</ele>
        <time>2018-10-13T13:44:50Z</time>
      </trkpt>
      <trkpt lat="43.209616" lon="-4.943399">
        <ele>1801.088</ele>
        <time>2018-10-13T13:44:58Z</time>
      </trkpt>
      <trkpt lat="43.209652" lon="-4.943442">
        <ele>1802.124</ele>
        <time>2018-10-13T13:45:13Z</time>
      </trkpt>
      <trkpt lat="43.209690" lon="-4.943479">
        <ele>1802.926</ele>
        <time>2018-10-13T13:45:20Z</time>
      </trkpt>
      <trkpt lat="43.209701" lon="-4.943541">
        <ele>1805.108</ele>
        <time>2018-10-13T13:45:37Z</time>
      </trkpt>
      <trkpt lat="43.209738" lon="-4.943582">
        <ele>1806.890</ele>
        <time>2018-10-13T13:45:51Z</time>
      </trkpt>
      <trkpt lat="43.209779" lon="-4.943614">
        <ele>1808.027</ele>
        <time>2018-10-13T13:45:59Z</time>
      </trkpt>
      <trkpt lat="43.209824" lon="-4.943625">
        <ele>1810.226</ele>
        <time>2018-10-13T13:46:11Z</time>
      </trkpt>
      <trkpt lat="43.209808" lon="-4.943685">
        <ele>1812.583</ele>
        <time>2018-10-13T13:46:25Z</time>
      </trkpt>
      <trkpt lat="43.209793" lon="-4.943751">
        <ele>1814.064</ele>
        <time>2018-10-13T13:46:38Z</time>
      </trkpt>
      <trkpt lat="43.209807" lon="-4.943811">
        <ele>1815.753</ele>
        <time>2018-10-13T13:46:49Z</time>
      </trkpt>
      <trkpt lat="43.209837" lon="-4.943858">
        <ele>1816.529</ele>
        <time>2018-10-13T13:46:58Z</time>
      </trkpt>
      <trkpt lat="43.209792" lon="-4.943849">
        <ele>1817.677</ele>
        <time>2018-10-13T13:47:28Z</time>
      </trkpt>
      <trkpt lat="43.209823" lon="-4.943964">
        <ele>1821.862</ele>
        <time>2018-10-13T13:48:26Z</time>
      </trkpt>
      <trkpt lat="43.209813" lon="-4.944038">
        <ele>1824.783</ele>
        <time>2018-10-13T13:48:49Z</time>
      </trkpt>
      <trkpt lat="43.209867" lon="-4.944063">
        <ele>1830.111</ele>
        <time>2018-10-13T13:49:32Z</time>
      </trkpt>
      <trkpt lat="43.209918" lon="-4.944088">
        <ele>1832.408</ele>
        <time>2018-10-13T13:49:51Z</time>
      </trkpt>
      <trkpt lat="43.209954" lon="-4.944126">
        <ele>1833.388</ele>
        <time>2018-10-13T13:49:57Z</time>
      </trkpt>
      <trkpt lat="43.209987" lon="-4.944168">
        <ele>1834.745</ele>
        <time>2018-10-13T13:50:09Z</time>
      </trkpt>
      <trkpt lat="43.209969" lon="-4.944239">
        <ele>1836.274</ele>
        <time>2018-10-13T13:50:23Z</time>
      </trkpt>
      <trkpt lat="43.209982" lon="-4.944354">
        <ele>1839.361</ele>
        <time>2018-10-13T13:50:49Z</time>
      </trkpt>
      <trkpt lat="43.209955" lon="-4.944411">
        <ele>1841.532</ele>
        <time>2018-10-13T13:51:11Z</time>
      </trkpt>
      <trkpt lat="43.209914" lon="-4.944473">
        <ele>1843.241</ele>
        <time>2018-10-13T13:51:27Z</time>
      </trkpt>
      <trkpt lat="43.209861" lon="-4.944489">
        <ele>1846.457</ele>
        <time>2018-10-13T13:52:03Z</time>
      </trkpt>
      <trkpt lat="43.209877" lon="-4.944547">
        <ele>1848.195</ele>
        <time>2018-10-13T13:52:15Z</time>
      </trkpt>
      <trkpt lat="43.209872" lon="-4.944612">
        <ele>1852.059</ele>
        <time>2018-10-13T13:53:30Z</time>
      </trkpt>
      <trkpt lat="43.209521" lon="-4.945776">
        <ele>1910.003</ele>
        <time>2018-10-13T14:11:38Z</time>
      </trkpt>
      <trkpt lat="43.209503" lon="-4.945834">
        <ele>1910.123</ele>
        <time>2018-10-13T14:11:45Z</time>
      </trkpt>
      <trkpt lat="43.209490" lon="-4.945898">
        <ele>1910.908</ele>
        <time>2018-10-13T14:11:51Z</time>
      </trkpt>
      <trkpt lat="43.209480" lon="-4.945959">
        <ele>1911.057</ele>
        <time>2018-10-13T14:11:56Z</time>
      </trkpt>
      <trkpt lat="43.209483" lon="-4.946025">
        <ele>1912.864</ele>
        <time>2018-10-13T14:22:45Z</time>
      </trkpt>
      <trkpt lat="43.209474" lon="-4.946094">
        <ele>1912.553</ele>
        <time>2018-10-13T14:23:19Z</time>
      </trkpt>
      <trkpt lat="43.209557" lon="-4.946111">
        <ele>1914.960</ele>
        <time>2018-10-13T14:23:35Z</time>
      </trkpt>
      <trkpt lat="43.209563" lon="-4.946201">
        <ele>1915.741</ele>
        <time>2018-10-13T14:23:50Z</time>
      </trkpt>
      <trkpt lat="43.209560" lon="-4.946278">
        <ele>1921.420</ele>
        <time>2018-10-13T14:24:11Z</time>
      </trkpt>
      <trkpt lat="43.209534" lon="-4.946331">
        <ele>1923.946</ele>
        <time>2018-10-13T14:24:17Z</time>
      </trkpt>
      <trkpt lat="43.209500" lon="-4.946383">
        <ele>1923.614</ele>
        <time>2018-10-13T14:24:25Z</time>
      </trkpt>
      <trkpt lat="43.209511" lon="-4.946443">
        <ele>1923.864</ele>
        <time>2018-10-13T14:24:34Z</time>
      </trkpt>
      <trkpt lat="43.209537" lon="-4.946511">
        <ele>1924.006</ele>
        <time>2018-10-13T14:24:40Z</time>
      </trkpt>
      <trkpt lat="43.209528" lon="-4.946584">
        <ele>1924.116</ele>
        <time>2018-10-13T14:24:44Z</time>
      </trkpt>
      <trkpt lat="43.209491" lon="-4.946622">
        <ele>1924.408</ele>
        <time>2018-10-13T14:24:48Z</time>
      </trkpt>
      <trkpt lat="43.209460" lon="-4.946672">
        <ele>1924.118</ele>
        <time>2018-10-13T14:24:53Z</time>
      </trkpt>
      <trkpt lat="43.209440" lon="-4.946727">
        <ele>1923.595</ele>
        <time>2018-10-13T14:25:01Z</time>
      </trkpt>
      <trkpt lat="43.209432" lon="-4.946791">
        <ele>1923.694</ele>
        <time>2018-10-13T14:25:16Z</time>
      </trkpt>
      <trkpt lat="43.209417" lon="-4.946852">
        <ele>1923.991</ele>
        <time>2018-10-13T14:25:27Z</time>
      </trkpt>
      <trkpt lat="43.209377" lon="-4.946890">
        <ele>1924.092</ele>
        <time>2018-10-13T14:25:36Z</time>
      </trkpt>
      <trkpt lat="43.209341" lon="-4.946943">
        <ele>1923.831</ele>
        <time>2018-10-13T14:25:47Z</time>
      </trkpt>
      <trkpt lat="43.209295" lon="-4.946974">
        <ele>1924.557</ele>
        <time>2018-10-13T14:25:52Z</time>
      </trkpt>
      <trkpt lat="43.209250" lon="-4.946984">
        <ele>1925.335</ele>
        <time>2018-10-13T14:25:58Z</time>
      </trkpt>
      <trkpt lat="43.209213" lon="-4.947048">
        <ele>1930.118</ele>
        <time>2018-10-13T14:26:46Z</time>
      </trkpt>
      <trkpt lat="43.209162" lon="-4.947095">
        <ele>1930.898</ele>
        <time>2018-10-13T14:27:02Z</time>
      </trkpt>
      <trkpt lat="43.209172" lon="-4.947159">
        <ele>1931.817</ele>
        <time>2018-10-13T14:27:21Z</time>
      </trkpt>
      <trkpt lat="43.209154" lon="-4.947217">
        <ele>1933.108</ele>
        <time>2018-10-13T14:27:27Z</time>
      </trkpt>
      <trkpt lat="43.209162" lon="-4.947290">
        <ele>1935.463</ele>
        <time>2018-10-13T14:27:49Z</time>
      </trkpt>
      <trkpt lat="43.209145" lon="-4.947349">
        <ele>1933.920</ele>
        <time>2018-10-13T14:28:00Z</time>
      </trkpt>
      <trkpt lat="43.209106" lon="-4.947387">
        <ele>1932.289</ele>
        <time>2018-10-13T14:28:16Z</time>
      </trkpt>
      <trkpt lat="43.209106" lon="-4.947450">
        <ele>1933.526</ele>
        <time>2018-10-13T14:28:59Z</time>
      </trkpt>
      <trkpt lat="43.209105" lon="-4.947526">
        <ele>1932.217</ele>
        <time>2018-10-13T14:29:11Z</time>
      </trkpt>
      <trkpt lat="43.209063" lon="-4.947628">
        <ele>1933.176</ele>
        <time>2018-10-13T14:29:24Z</time>
      </trkpt>
      <trkpt lat="43.209022" lon="-4.947663">
        <ele>1933.282</ele>
        <time>2018-10-13T14:29:28Z</time>
      </trkpt>
      <trkpt lat="43.209015" lon="-4.947735">
        <ele>1933.350</ele>
        <time>2018-10-13T14:29:31Z</time>
      </trkpt>
      <trkpt lat="43.208975" lon="-4.947766">
        <ele>1932.989</ele>
        <time>2018-10-13T14:30:11Z</time>
      </trkpt>
      <trkpt lat="43.208960" lon="-4.947825">
        <ele>1933.106</ele>
        <time>2018-10-13T14:30:19Z</time>
      </trkpt>
      <trkpt lat="43.208999" lon="-4.947865">
        <ele>1939.126</ele>
        <time>2018-10-13T14:31:03Z</time>
      </trkpt>
      <trkpt lat="43.209035" lon="-4.947902">
        <ele>1941.908</ele>
        <time>2018-10-13T14:31:12Z</time>
      </trkpt>
      <trkpt lat="43.209038" lon="-4.947965">
        <ele>1942.790</ele>
        <time>2018-10-13T14:31:21Z</time>
      </trkpt>
      <trkpt lat="43.209026" lon="-4.948025">
        <ele>1943.037</ele>
        <time>2018-10-13T14:31:27Z</time>
      </trkpt>
      <trkpt lat="43.209036" lon="-4.948092">
        <ele>1942.916</ele>
        <time>2018-10-13T14:31:33Z</time>
      </trkpt>
      <trkpt lat="43.209083" lon="-4.948124">
        <ele>1943.383</ele>
        <time>2018-10-13T14:31:36Z</time>
      </trkpt>
      <trkpt lat="43.209130" lon="-4.948152">
        <ele>1942.994</ele>
        <time>2018-10-13T14:31:40Z</time>
      </trkpt>
      <trkpt lat="43.209092" lon="-4.948209">
        <ele>1943.093</ele>
        <time>2018-10-13T14:31:49Z</time>
      </trkpt>
      <trkpt lat="43.209042" lon="-4.948235">
        <ele>1942.279</ele>
        <time>2018-10-13T14:32:11Z</time>
      </trkpt>
      <trkpt lat="43.209017" lon="-4.948288">
        <ele>1941.837</ele>
        <time>2018-10-13T14:32:29Z</time>
      </trkpt>
      <trkpt lat="43.209019" lon="-4.948357">
        <ele>1942.642</ele>
        <time>2018-10-13T14:32:37Z</time>
      </trkpt>
      <trkpt lat="43.209010" lon="-4.948418">
        <ele>1943.722</ele>
        <time>2018-10-13T14:32:46Z</time>
      </trkpt>
      <trkpt lat="43.209021" lon="-4.948482">
        <ele>1942.014</ele>
        <time>2018-10-13T14:32:54Z</time>
      </trkpt>
      <trkpt lat="43.209062" lon="-4.948515">
        <ele>1941.408</ele>
        <time>2018-10-13T14:32:59Z</time>
      </trkpt>
      <trkpt lat="43.209052" lon="-4.948623">
        <ele>1941.466</ele>
        <time>2018-10-13T14:33:42Z</time>
      </trkpt>
      <trkpt lat="43.209029" lon="-4.948690">
        <ele>1940.913</ele>
        <time>2018-10-13T14:35:09Z</time>
      </trkpt>
      <trkpt lat="43.209077" lon="-4.948715">
        <ele>1939.662</ele>
        <time>2018-10-13T14:35:28Z</time>
      </trkpt>
      <trkpt lat="43.209065" lon="-4.948819">
        <ele>1939.869</ele>
        <time>2018-10-13T14:36:16Z</time>
      </trkpt>
      <trkpt lat="43.208954" lon="-4.948844">
        <ele>1938.580</ele>
        <time>2018-10-13T14:37:29Z</time>
      </trkpt>
      <trkpt lat="43.208971" lon="-4.948907">
        <ele>1938.529</ele>
        <time>2018-10-13T14:37:37Z</time>
      </trkpt>
      <trkpt lat="43.208999" lon="-4.948961">
        <ele>1936.615</ele>
        <time>2018-10-13T14:37:47Z</time>
      </trkpt>
      <trkpt lat="43.209035" lon="-4.949006">
        <ele>1934.813</ele>
        <time>2018-10-13T14:37:56Z</time>
      </trkpt>
      <trkpt lat="43.209078" lon="-4.949027">
        <ele>1934.338</ele>
        <time>2018-10-13T14:38:01Z</time>
      </trkpt>
      <trkpt lat="43.209067" lon="-4.949088">
        <ele>1933.570</ele>
        <time>2018-10-13T14:38:09Z</time>
      </trkpt>
      <trkpt lat="43.209010" lon="-4.949046">
        <ele>1931.817</ele>
        <time>2018-10-13T14:38:33Z</time>
      </trkpt>
      <trkpt lat="43.209034" lon="-4.949108">
        <ele>1928.908</ele>
        <time>2018-10-13T14:38:46Z</time>
      </trkpt>
      <trkpt lat="43.209037" lon="-4.949175">
        <ele>1928.155</ele>
        <time>2018-10-13T14:38:51Z</time>
      </trkpt>
      <trkpt lat="43.209065" lon="-4.949232">
        <ele>1927.722</ele>
        <time>2018-10-13T14:38:58Z</time>
      </trkpt>
      <trkpt lat="43.209099" lon="-4.949283">
        <ele>1927.361</ele>
        <time>2018-10-13T14:39:03Z</time>
      </trkpt>
      <trkpt lat="43.209133" lon="-4.949337">
        <ele>1926.288</ele>
        <time>2018-10-13T14:39:08Z</time>
      </trkpt>
      <trkpt lat="43.209169" lon="-4.949379">
        <ele>1925.489</ele>
        <time>2018-10-13T14:39:12Z</time>
      </trkpt>
      <trkpt lat="43.209198" lon="-4.949430">
        <ele>1924.368</ele>
        <time>2018-10-13T14:39:16Z</time>
      </trkpt>
      <trkpt lat="43.209213" lon="-4.949494">
        <ele>1923.184</ele>
        <time>2018-10-13T14:39:21Z</time>
      </trkpt>
      <trkpt lat="43.209238" lon="-4.949555">
        <ele>1921.692</ele>
        <time>2018-10-13T14:39:27Z</time>
      </trkpt>
      <trkpt lat="43.209280" lon="-4.949586">
        <ele>1921.191</ele>
        <time>2018-10-13T14:39:33Z</time>
      </trkpt>
      <trkpt lat="43.209325" lon="-4.949587">
        <ele>1921.181</ele>
        <time>2018-10-13T14:39:38Z</time>
      </trkpt>
      <trkpt lat="43.209374" lon="-4.949582">
        <ele>1917.719</ele>
        <time>2018-10-13T14:40:40Z</time>
      </trkpt>
      <trkpt lat="43.209426" lon="-4.949612">
        <ele>1916.608</ele>
        <time>2018-10-13T14:40:44Z</time>
      </trkpt>
      <trkpt lat="43.209470" lon="-4.949656">
        <ele>1915.951</ele>
        <time>2018-10-13T14:40:49Z</time>
      </trkpt>
      <trkpt lat="43.209513" lon="-4.949703">
        <ele>1915.168</ele>
        <time>2018-10-13T14:40:54Z</time>
      </trkpt>
      <trkpt lat="43.209550" lon="-4.949738">
        <ele>1914.717</ele>
        <time>2018-10-13T14:40:59Z</time>
      </trkpt>
      <trkpt lat="43.209605" lon="-4.949751">
        <ele>1913.834</ele>
        <time>2018-10-13T14:41:07Z</time>
      </trkpt>
      <trkpt lat="43.209659" lon="-4.949752">
        <ele>1913.375</ele>
        <time>2018-10-13T14:41:12Z</time>
      </trkpt>
      <trkpt lat="43.209711" lon="-4.949773">
        <ele>1913.414</ele>
        <time>2018-10-13T14:41:16Z</time>
      </trkpt>
      <trkpt lat="43.209758" lon="-4.949794">
        <ele>1912.780</ele>
        <time>2018-10-13T14:41:20Z</time>
      </trkpt>
      <trkpt lat="43.209799" lon="-4.949833">
        <ele>1912.058</ele>
        <time>2018-10-13T14:41:26Z</time>
      </trkpt>
      <trkpt lat="43.209840" lon="-4.949864">
        <ele>1911.721</ele>
        <time>2018-10-13T14:41:32Z</time>
      </trkpt>
      <trkpt lat="43.209878" lon="-4.949903">
        <ele>1911.741</ele>
        <time>2018-10-13T14:41:38Z</time>
      </trkpt>
      <trkpt lat="43.209915" lon="-4.949948">
        <ele>1911.205</ele>
        <time>2018-10-13T14:41:45Z</time>
      </trkpt>
      <trkpt lat="43.209932" lon="-4.950011">
        <ele>1910.608</ele>
        <time>2018-10-13T14:41:52Z</time>
      </trkpt>
      <trkpt lat="43.209954" lon="-4.950074">
        <ele>1909.244</ele>
        <time>2018-10-13T14:42:07Z</time>
      </trkpt>
      <trkpt lat="43.210028" lon="-4.950187">
        <ele>1907.851</ele>
        <time>2018-10-13T14:42:24Z</time>
      </trkpt>
      <trkpt lat="43.210049" lon="-4.950252">
        <ele>1906.880</ele>
        <time>2018-10-13T14:42:33Z</time>
      </trkpt>
      <trkpt lat="43.210090" lon="-4.950294">
        <ele>1906.317</ele>
        <time>2018-10-13T14:42:42Z</time>
      </trkpt>
      <trkpt lat="43.210136" lon="-4.950324">
        <ele>1906.028</ele>
        <time>2018-10-13T14:42:48Z</time>
      </trkpt>
      <trkpt lat="43.210222" lon="-4.950318">
        <ele>1905.337</ele>
        <time>2018-10-13T14:43:16Z</time>
      </trkpt>
      <trkpt lat="43.210235" lon="-4.950381">
        <ele>1902.333</ele>
        <time>2018-10-13T14:43:39Z</time>
      </trkpt>
      <trkpt lat="43.210267" lon="-4.950451">
        <ele>1901.611</ele>
        <time>2018-10-13T14:43:47Z</time>
      </trkpt>
      <trkpt lat="43.210318" lon="-4.950516">
        <ele>1901.173</ele>
        <time>2018-10-13T14:44:01Z</time>
      </trkpt>
      <trkpt lat="43.210336" lon="-4.950585">
        <ele>1900.185</ele>
        <time>2018-10-13T14:44:07Z</time>
      </trkpt>
      <trkpt lat="43.210369" lon="-4.950635">
        <ele>1899.813</ele>
        <time>2018-10-13T14:44:11Z</time>
      </trkpt>
      <trkpt lat="43.210400" lon="-4.950685">
        <ele>1899.908</ele>
        <time>2018-10-13T14:44:14Z</time>
      </trkpt>
      <trkpt lat="43.210421" lon="-4.950753">
        <ele>1899.519</ele>
        <time>2018-10-13T14:44:20Z</time>
      </trkpt>
      <trkpt lat="43.210436" lon="-4.950813">
        <ele>1899.226</ele>
        <time>2018-10-13T14:44:26Z</time>
      </trkpt>
      <trkpt lat="43.210461" lon="-4.950883">
        <ele>1898.665</ele>
        <time>2018-10-13T14:44:32Z</time>
      </trkpt>
      <trkpt lat="43.210502" lon="-4.950924">
        <ele>1898.342</ele>
        <time>2018-10-13T14:44:35Z</time>
      </trkpt>
      <trkpt lat="43.210498" lon="-4.950987">
        <ele>1897.663</ele>
        <time>2018-10-13T14:44:42Z</time>
      </trkpt>
      <trkpt lat="43.210475" lon="-4.951049">
        <ele>1897.162</ele>
        <time>2018-10-13T14:44:50Z</time>
      </trkpt>
      <trkpt lat="43.210428" lon="-4.951075">
        <ele>1896.488</ele>
        <time>2018-10-13T14:44:57Z</time>
      </trkpt>
      <trkpt lat="43.210380" lon="-4.951081">
        <ele>1896.086</ele>
        <time>2018-10-13T14:45:03Z</time>
      </trkpt>
      <trkpt lat="43.210365" lon="-4.951140">
        <ele>1898.195</ele>
        <time>2018-10-13T14:45:40Z</time>
      </trkpt>
      <trkpt lat="43.210377" lon="-4.951211">
        <ele>1898.449</ele>
        <time>2018-10-13T14:45:45Z</time>
      </trkpt>
      <trkpt lat="43.210381" lon="-4.951284">
        <ele>1898.623</ele>
        <time>2018-10-13T14:45:51Z</time>
      </trkpt>
      <trkpt lat="43.210395" lon="-4.951345">
        <ele>1898.708</ele>
        <time>2018-10-13T14:45:57Z</time>
      </trkpt>
      <trkpt lat="43.210395" lon="-4.951408">
        <ele>1898.421</ele>
        <time>2018-10-13T14:46:04Z</time>
      </trkpt>
      <trkpt lat="43.210391" lon="-4.951480">
        <ele>1897.978</ele>
        <time>2018-10-13T14:46:10Z</time>
      </trkpt>
      <trkpt lat="43.210383" lon="-4.951543">
        <ele>1898.067</ele>
        <time>2018-10-13T14:46:16Z</time>
      </trkpt>
      <trkpt lat="43.210378" lon="-4.951608">
        <ele>1898.124</ele>
        <time>2018-10-13T14:46:23Z</time>
      </trkpt>
      <trkpt lat="43.210397" lon="-4.951666">
        <ele>1898.685</ele>
        <time>2018-10-13T14:46:34Z</time>
      </trkpt>
      <trkpt lat="43.210415" lon="-4.951725">
        <ele>1898.284</ele>
        <time>2018-10-13T14:46:40Z</time>
      </trkpt>
      <trkpt lat="43.210406" lon="-4.951792">
        <ele>1898.410</ele>
        <time>2018-10-13T14:46:47Z</time>
      </trkpt>
      <trkpt lat="43.210416" lon="-4.951858">
        <ele>1898.748</ele>
        <time>2018-10-13T14:46:55Z</time>
      </trkpt>
      <trkpt lat="43.210400" lon="-4.951918">
        <ele>1899.184</ele>
        <time>2018-10-13T14:47:06Z</time>
      </trkpt>
      <trkpt lat="43.210420" lon="-4.951977">
        <ele>1899.507</ele>
        <time>2018-10-13T14:47:11Z</time>
      </trkpt>
      <trkpt lat="43.210418" lon="-4.952041">
        <ele>1899.817</ele>
        <time>2018-10-13T14:47:18Z</time>
      </trkpt>
      <trkpt lat="43.210433" lon="-4.952108">
        <ele>1900.408</ele>
        <time>2018-10-13T14:47:23Z</time>
      </trkpt>
      <trkpt lat="43.210448" lon="-4.952177">
        <ele>1900.510</ele>
        <time>2018-10-13T14:47:29Z</time>
      </trkpt>
      <trkpt lat="43.210397" lon="-4.952218">
        <ele>1901.277</ele>
        <time>2018-10-13T14:47:53Z</time>
      </trkpt>
      <trkpt lat="43.210385" lon="-4.952280">
        <ele>1901.536</ele>
        <time>2018-10-13T14:47:57Z</time>
      </trkpt>
      <trkpt lat="43.210359" lon="-4.952345">
        <ele>1901.673</ele>
        <time>2018-10-13T14:48:01Z</time>
      </trkpt>
      <trkpt lat="43.210354" lon="-4.952408">
        <ele>1902.134</ele>
        <time>2018-10-13T14:48:06Z</time>
      </trkpt>
      <trkpt lat="43.210351" lon="-4.952470">
        <ele>1902.353</ele>
        <time>2018-10-13T14:48:11Z</time>
      </trkpt>
      <trkpt lat="43.210362" lon="-4.952537">
        <ele>1902.429</ele>
        <time>2018-10-13T14:48:17Z</time>
      </trkpt>
      <trkpt lat="43.210372" lon="-4.952601">
        <ele>1902.717</ele>
        <time>2018-10-13T14:48:22Z</time>
      </trkpt>
      <trkpt lat="43.210359" lon="-4.952668">
        <ele>1902.566</ele>
        <time>2018-10-13T14:48:29Z</time>
      </trkpt>
      <trkpt lat="43.210353" lon="-4.952731">
        <ele>1902.329</ele>
        <time>2018-10-13T14:48:34Z</time>
      </trkpt>
      <trkpt lat="43.210331" lon="-4.952794">
        <ele>1901.721</ele>
        <time>2018-10-13T14:48:41Z</time>
      </trkpt>
      <trkpt lat="43.210294" lon="-4.952830">
        <ele>1901.108</ele>
        <time>2018-10-13T14:48:45Z</time>
      </trkpt>
      <trkpt lat="43.210251" lon="-4.952860">
        <ele>1900.448</ele>
        <time>2018-10-13T14:48:49Z</time>
      </trkpt>
      <trkpt lat="43.210237" lon="-4.952925">
        <ele>1899.775</ele>
        <time>2018-10-13T14:48:55Z</time>
      </trkpt>
      <trkpt lat="43.210212" lon="-4.952977">
        <ele>1899.444</ele>
        <time>2018-10-13T14:49:02Z</time>
      </trkpt>
      <trkpt lat="43.210186" lon="-4.953028">
        <ele>1899.291</ele>
        <time>2018-10-13T14:49:22Z</time>
      </trkpt>
      <trkpt lat="43.210159" lon="-4.953091">
        <ele>1898.822</ele>
        <time>2018-10-13T14:49:28Z</time>
      </trkpt>
      <trkpt lat="43.210120" lon="-4.953138">
        <ele>1898.851</ele>
        <time>2018-10-13T14:49:33Z</time>
      </trkpt>
      <trkpt lat="43.210082" lon="-4.953190">
        <ele>1899.027</ele>
        <time>2018-10-13T14:49:40Z</time>
      </trkpt>
      <trkpt lat="43.210079" lon="-4.953254">
        <ele>1898.625</ele>
        <time>2018-10-13T14:49:49Z</time>
      </trkpt>
      <trkpt lat="43.210088" lon="-4.953319">
        <ele>1898.136</ele>
        <time>2018-10-13T14:49:58Z</time>
      </trkpt>
      <trkpt lat="43.210092" lon="-4.953390">
        <ele>1897.317</ele>
        <time>2018-10-13T14:50:06Z</time>
      </trkpt>
      <trkpt lat="43.210098" lon="-4.953454">
        <ele>1897.118</ele>
        <time>2018-10-13T14:50:12Z</time>
      </trkpt>
      <trkpt lat="43.210100" lon="-4.953522">
        <ele>1896.608</ele>
        <time>2018-10-13T14:50:20Z</time>
      </trkpt>
      <trkpt lat="43.210112" lon="-4.953588">
        <ele>1895.945</ele>
        <time>2018-10-13T14:50:31Z</time>
      </trkpt>
      <trkpt lat="43.210129" lon="-4.953659">
        <ele>1895.532</ele>
        <time>2018-10-13T14:50:38Z</time>
      </trkpt>
      <trkpt lat="43.210153" lon="-4.953719">
        <ele>1895.381</ele>
        <time>2018-10-13T14:50:43Z</time>
      </trkpt>
      <trkpt lat="43.210130" lon="-4.953773">
        <ele>1894.858</ele>
        <time>2018-10-13T14:50:51Z</time>
      </trkpt>
      <trkpt lat="43.210104" lon="-4.953827">
        <ele>1895.069</ele>
        <time>2018-10-13T14:50:58Z</time>
      </trkpt>
      <trkpt lat="43.210077" lon="-4.953880">
        <ele>1895.248</ele>
        <time>2018-10-13T14:51:03Z</time>
      </trkpt>
      <trkpt lat="43.210046" lon="-4.953936">
        <ele>1894.974</ele>
        <time>2018-10-13T14:51:10Z</time>
      </trkpt>
      <trkpt lat="43.210007" lon="-4.953984">
        <ele>1894.192</ele>
        <time>2018-10-13T14:51:15Z</time>
      </trkpt>
      <trkpt lat="43.209980" lon="-4.954036">
        <ele>1893.689</ele>
        <time>2018-10-13T14:51:19Z</time>
      </trkpt>
      <trkpt lat="43.209964" lon="-4.954099">
        <ele>1893.606</ele>
        <time>2018-10-13T14:51:26Z</time>
      </trkpt>
      <trkpt lat="43.209933" lon="-4.954162">
        <ele>1893.426</ele>
        <time>2018-10-13T14:51:33Z</time>
      </trkpt>
      <trkpt lat="43.209907" lon="-4.954219">
        <ele>1893.008</ele>
        <time>2018-10-13T14:51:40Z</time>
      </trkpt>
      <trkpt lat="43.209904" lon="-4.954290">
        <ele>1892.660</ele>
        <time>2018-10-13T14:51:48Z</time>
      </trkpt>
      <trkpt lat="43.209903" lon="-4.954353">
        <ele>1892.397</ele>
        <time>2018-10-13T14:51:55Z</time>
      </trkpt>
      <trkpt lat="43.209873" lon="-4.954408">
        <ele>1892.616</ele>
        <time>2018-10-13T14:52:03Z</time>
      </trkpt>
      <trkpt lat="43.209835" lon="-4.954444">
        <ele>1892.783</ele>
        <time>2018-10-13T14:52:08Z</time>
      </trkpt>
      <trkpt lat="43.209834" lon="-4.954509">
        <ele>1893.034</ele>
        <time>2018-10-13T14:52:15Z</time>
      </trkpt>
      <trkpt lat="43.209832" lon="-4.954572">
        <ele>1893.293</ele>
        <time>2018-10-13T14:52:20Z</time>
      </trkpt>
      <trkpt lat="43.209831" lon="-4.954638">
        <ele>1894.229</ele>
        <time>2018-10-13T14:52:32Z</time>
      </trkpt>
      <trkpt lat="43.209808" lon="-4.954692">
        <ele>1894.977</ele>
        <time>2018-10-13T14:52:38Z</time>
      </trkpt>
      <trkpt lat="43.209775" lon="-4.954737">
        <ele>1895.281</ele>
        <time>2018-10-13T14:52:45Z</time>
      </trkpt>
      <trkpt lat="43.209783" lon="-4.954641">
        <ele>1895.461</ele>
        <time>2018-10-13T14:53:13Z</time>
      </trkpt>
      <trkpt lat="43.209806" lon="-4.954587">
        <ele>1895.417</ele>
        <time>2018-10-13T14:53:14Z</time>
      </trkpt>
      <trkpt lat="43.209792" lon="-4.954691">
        <ele>1906.308</ele>
        <time>2018-10-13T14:56:00Z</time>
      </trkpt>
      <trkpt lat="43.209627" lon="-4.955244">
        <ele>1910.180</ele>
        <time>2018-10-13T14:56:58Z</time>
      </trkpt>
      <trkpt lat="43.209598" lon="-4.955292">
        <ele>1910.837</ele>
        <time>2018-10-13T14:57:14Z</time>
      </trkpt>
      <trkpt lat="43.209568" lon="-4.955340">
        <ele>1911.036</ele>
        <time>2018-10-13T14:57:31Z</time>
      </trkpt>
      <trkpt lat="43.209534" lon="-4.955395">
        <ele>1911.083</ele>
        <time>2018-10-13T14:57:41Z</time>
      </trkpt>
      <trkpt lat="43.209504" lon="-4.955658">
        <ele>1912.214</ele>
        <time>2018-10-13T14:58:28Z</time>
      </trkpt>
      <trkpt lat="43.209514" lon="-4.955734">
        <ele>1912.983</ele>
        <time>2018-10-13T14:58:32Z</time>
      </trkpt>
      <trkpt lat="43.209523" lon="-4.955796">
        <ele>1913.629</ele>
        <time>2018-10-13T14:58:35Z</time>
      </trkpt>
      <trkpt lat="43.209563" lon="-4.955856">
        <ele>1915.887</ele>
        <time>2018-10-13T14:59:01Z</time>
      </trkpt>
      <trkpt lat="43.209588" lon="-4.955922">
        <ele>1916.434</ele>
        <time>2018-10-13T14:59:12Z</time>
      </trkpt>
      <trkpt lat="43.209608" lon="-4.956012">
        <ele>1916.955</ele>
        <time>2018-10-13T14:59:20Z</time>
      </trkpt>
      <trkpt lat="43.209616" lon="-4.956080">
        <ele>1917.410</ele>
        <time>2018-10-13T14:59:25Z</time>
      </trkpt>
      <trkpt lat="43.209630" lon="-4.956152">
        <ele>1917.808</ele>
        <time>2018-10-13T14:59:31Z</time>
      </trkpt>
      <trkpt lat="43.209630" lon="-4.956215">
        <ele>1919.665</ele>
        <time>2018-10-13T15:00:09Z</time>
      </trkpt>
      <trkpt lat="43.209628" lon="-4.956284">
        <ele>1919.832</ele>
        <time>2018-10-13T15:00:13Z</time>
      </trkpt>
      <trkpt lat="43.209651" lon="-4.956399">
        <ele>1921.981</ele>
        <time>2018-10-13T15:00:35Z</time>
      </trkpt>
      <trkpt lat="43.209691" lon="-4.956434">
        <ele>1922.938</ele>
        <time>2018-10-13T15:00:53Z</time>
      </trkpt>
      <trkpt lat="43.209599" lon="-4.956588">
        <ele>1927.529</ele>
        <time>2018-10-13T15:30:14Z</time>
      </trkpt>
      <trkpt lat="43.209628" lon="-4.956640">
        <ele>1923.528</ele>
        <time>2018-10-13T15:30:23Z</time>
      </trkpt>
      <trkpt lat="43.209640" lon="-4.956701">
        <ele>1923.814</ele>
        <time>2018-10-13T15:30:28Z</time>
      </trkpt>
      <trkpt lat="43.209676" lon="-4.956757">
        <ele>1924.482</ele>
        <time>2018-10-13T15:30:35Z</time>
      </trkpt>
      <trkpt lat="43.209690" lon="-4.956842">
        <ele>1924.792</ele>
        <time>2018-10-13T15:30:50Z</time>
      </trkpt>
      <trkpt lat="43.209672" lon="-4.956906">
        <ele>1925.073</ele>
        <time>2018-10-13T15:30:59Z</time>
      </trkpt>
      <trkpt lat="43.209660" lon="-4.956972">
        <ele>1924.920</ele>
        <time>2018-10-13T15:31:07Z</time>
      </trkpt>
      <trkpt lat="43.209624" lon="-4.957015">
        <ele>1925.108</ele>
        <time>2018-10-13T15:31:12Z</time>
      </trkpt>
      <trkpt lat="43.209614" lon="-4.957079">
        <ele>1925.341</ele>
        <time>2018-10-13T15:31:19Z</time>
      </trkpt>
      <trkpt lat="43.209634" lon="-4.957141">
        <ele>1925.798</ele>
        <time>2018-10-13T15:31:26Z</time>
      </trkpt>
      <trkpt lat="43.209634" lon="-4.957211">
        <ele>1926.897</ele>
        <time>2018-10-13T15:31:36Z</time>
      </trkpt>
      <trkpt lat="43.209633" lon="-4.957275">
        <ele>1928.024</ele>
        <time>2018-10-13T15:31:44Z</time>
      </trkpt>
      <trkpt lat="43.209606" lon="-4.957324">
        <ele>1929.415</ele>
        <time>2018-10-13T15:31:53Z</time>
      </trkpt>
      <trkpt lat="43.209592" lon="-4.957391">
        <ele>1929.944</ele>
        <time>2018-10-13T15:32:02Z</time>
      </trkpt>
      <trkpt lat="43.209589" lon="-4.957453">
        <ele>1930.710</ele>
        <time>2018-10-13T15:32:09Z</time>
      </trkpt>
      <trkpt lat="43.209589" lon="-4.957524">
        <ele>1932.238</ele>
        <time>2018-10-13T15:32:22Z</time>
      </trkpt>
      <trkpt lat="43.209603" lon="-4.957595">
        <ele>1933.258</ele>
        <time>2018-10-13T15:32:32Z</time>
      </trkpt>
      <trkpt lat="43.209605" lon="-4.957657">
        <ele>1933.952</ele>
        <time>2018-10-13T15:32:41Z</time>
      </trkpt>
      <trkpt lat="43.209583" lon="-4.957726">
        <ele>1934.317</ele>
        <time>2018-10-13T15:32:49Z</time>
      </trkpt>
      <trkpt lat="43.209587" lon="-4.957800">
        <ele>1935.108</ele>
        <time>2018-10-13T15:32:57Z</time>
      </trkpt>
      <trkpt lat="43.209562" lon="-4.957856">
        <ele>1935.917</ele>
        <time>2018-10-13T15:33:15Z</time>
      </trkpt>
      <trkpt lat="43.209536" lon="-4.957918">
        <ele>1936.264</ele>
        <time>2018-10-13T15:33:24Z</time>
      </trkpt>
      <trkpt lat="43.209522" lon="-4.957981">
        <ele>1935.933</ele>
        <time>2018-10-13T15:33:32Z</time>
      </trkpt>
      <trkpt lat="43.209531" lon="-4.958058">
        <ele>1938.530</ele>
        <time>2018-10-13T15:33:52Z</time>
      </trkpt>
      <trkpt lat="43.209534" lon="-4.958130">
        <ele>1940.821</ele>
        <time>2018-10-13T15:34:09Z</time>
      </trkpt>
      <trkpt lat="43.209527" lon="-4.958196">
        <ele>1942.140</ele>
        <time>2018-10-13T15:34:17Z</time>
      </trkpt>
      <trkpt lat="43.209495" lon="-4.958246">
        <ele>1944.026</ele>
        <time>2018-10-13T15:34:33Z</time>
      </trkpt>
      <trkpt lat="43.209482" lon="-4.958312">
        <ele>1945.454</ele>
        <time>2018-10-13T15:34:45Z</time>
      </trkpt>
      <trkpt lat="43.209514" lon="-4.958407">
        <ele>1948.785</ele>
        <time>2018-10-13T15:35:10Z</time>
      </trkpt>
      <trkpt lat="43.209485" lon="-4.958470">
        <ele>1951.889</ele>
        <time>2018-10-13T15:35:36Z</time>
      </trkpt>
      <trkpt lat="43.209443" lon="-4.958493">
        <ele>1951.117</ele>
        <time>2018-10-13T15:36:12Z</time>
      </trkpt>
      <trkpt lat="43.209420" lon="-4.958551">
        <ele>1952.708</ele>
        <time>2018-10-13T15:36:22Z</time>
      </trkpt>
      <trkpt lat="43.209389" lon="-4.958608">
        <ele>1955.660</ele>
        <time>2018-10-13T15:36:41Z</time>
      </trkpt>
      <trkpt lat="43.209397" lon="-4.958670">
        <ele>1956.457</ele>
        <time>2018-10-13T15:36:47Z</time>
      </trkpt>
      <trkpt lat="43.209378" lon="-4.958734">
        <ele>1957.286</ele>
        <time>2018-10-13T15:36:53Z</time>
      </trkpt>
      <trkpt lat="43.209376" lon="-4.958801">
        <ele>1958.153</ele>
        <time>2018-10-13T15:36:59Z</time>
      </trkpt>
      <trkpt lat="43.209354" lon="-4.958864">
        <ele>1959.484</ele>
        <time>2018-10-13T15:37:10Z</time>
      </trkpt>
      <trkpt lat="43.209352" lon="-4.958928">
        <ele>1959.783</ele>
        <time>2018-10-13T15:37:15Z</time>
      </trkpt>
      <trkpt lat="43.209343" lon="-4.959002">
        <ele>1960.019</ele>
        <time>2018-10-13T15:37:23Z</time>
      </trkpt>
      <trkpt lat="43.209330" lon="-4.959063">
        <ele>1959.937</ele>
        <time>2018-10-13T15:37:28Z</time>
      </trkpt>
      <trkpt lat="43.209318" lon="-4.959127">
        <ele>1960.266</ele>
        <time>2018-10-13T15:37:36Z</time>
      </trkpt>
      <trkpt lat="43.209313" lon="-4.959209">
        <ele>1960.229</ele>
        <time>2018-10-13T15:37:44Z</time>
      </trkpt>
      <trkpt lat="43.209317" lon="-4.959279">
        <ele>1960.521</ele>
        <time>2018-10-13T15:37:51Z</time>
      </trkpt>
      <trkpt lat="43.209327" lon="-4.959351">
        <ele>1960.408</ele>
        <time>2018-10-13T15:37:57Z</time>
      </trkpt>
      <trkpt lat="43.209329" lon="-4.959414">
        <ele>1960.698</ele>
        <time>2018-10-13T15:38:03Z</time>
      </trkpt>
      <trkpt lat="43.209334" lon="-4.959481">
        <ele>1961.475</ele>
        <time>2018-10-13T15:38:10Z</time>
      </trkpt>
      <trkpt lat="43.209348" lon="-4.959545">
        <ele>1961.714</ele>
        <time>2018-10-13T15:38:18Z</time>
      </trkpt>
      <trkpt lat="43.209358" lon="-4.959609">
        <ele>1962.081</ele>
        <time>2018-10-13T15:38:26Z</time>
      </trkpt>
      <trkpt lat="43.209354" lon="-4.959677">
        <ele>1962.072</ele>
        <time>2018-10-13T15:38:32Z</time>
      </trkpt>
      <trkpt lat="43.209356" lon="-4.959740">
        <ele>1961.981</ele>
        <time>2018-10-13T15:38:39Z</time>
      </trkpt>
      <trkpt lat="43.209377" lon="-4.959797">
        <ele>1961.857</ele>
        <time>2018-10-13T15:38:47Z</time>
      </trkpt>
      <trkpt lat="43.209383" lon="-4.959862">
        <ele>1961.525</ele>
        <time>2018-10-13T15:38:54Z</time>
      </trkpt>
      <trkpt lat="43.209377" lon="-4.959928">
        <ele>1963.092</ele>
        <time>2018-10-13T15:39:28Z</time>
      </trkpt>
      <trkpt lat="43.209375" lon="-4.959997">
        <ele>1965.373</ele>
        <time>2018-10-13T15:39:47Z</time>
      </trkpt>
      <trkpt lat="43.209388" lon="-4.960061">
        <ele>1966.620</ele>
        <time>2018-10-13T15:39:56Z</time>
      </trkpt>
      <trkpt lat="43.209405" lon="-4.960119">
        <ele>1968.408</ele>
        <time>2018-10-13T15:40:13Z</time>
      </trkpt>
      <trkpt lat="43.209439" lon="-4.960174">
        <ele>1969.891</ele>
        <time>2018-10-13T15:40:22Z</time>
      </trkpt>
      <trkpt lat="43.209456" lon="-4.960237">
        <ele>1970.578</ele>
        <time>2018-10-13T15:40:29Z</time>
      </trkpt>
      <trkpt lat="43.209475" lon="-4.960298">
        <ele>1970.797</ele>
        <time>2018-10-13T15:40:35Z</time>
      </trkpt>
      <trkpt lat="43.209479" lon="-4.960368">
        <ele>1970.734</ele>
        <time>2018-10-13T15:40:45Z</time>
      </trkpt>
      <trkpt lat="43.209485" lon="-4.960431">
        <ele>1970.585</ele>
        <time>2018-10-13T15:40:51Z</time>
      </trkpt>
      <trkpt lat="43.209487" lon="-4.960498">
        <ele>1969.734</ele>
        <time>2018-10-13T15:40:56Z</time>
      </trkpt>
      <trkpt lat="43.209503" lon="-4.960559">
        <ele>1968.760</ele>
        <time>2018-10-13T15:41:03Z</time>
      </trkpt>
      <trkpt lat="43.209517" lon="-4.960624">
        <ele>1967.918</ele>
        <time>2018-10-13T15:41:11Z</time>
      </trkpt>
      <trkpt lat="43.209535" lon="-4.960689">
        <ele>1967.876</ele>
        <time>2018-10-13T15:41:19Z</time>
      </trkpt>
      <trkpt lat="43.209537" lon="-4.960756">
        <ele>1967.790</ele>
        <time>2018-10-13T15:41:27Z</time>
      </trkpt>
      <trkpt lat="43.209544" lon="-4.960818">
        <ele>1968.619</ele>
        <time>2018-10-13T15:41:38Z</time>
      </trkpt>
      <trkpt lat="43.209586" lon="-4.960875">
        <ele>1970.308</ele>
        <time>2018-10-13T15:41:53Z</time>
      </trkpt>
      <trkpt lat="43.209572" lon="-4.960950">
        <ele>1970.849</ele>
        <time>2018-10-13T15:42:03Z</time>
      </trkpt>
      <trkpt lat="43.209570" lon="-4.961016">
        <ele>1971.516</ele>
        <time>2018-10-13T15:42:11Z</time>
      </trkpt>
      <trkpt lat="43.209561" lon="-4.961081">
        <ele>1972.775</ele>
        <time>2018-10-13T15:42:23Z</time>
      </trkpt>
      <trkpt lat="43.209568" lon="-4.961143">
        <ele>1973.742</ele>
        <time>2018-10-13T15:42:30Z</time>
      </trkpt>
      <trkpt lat="43.209570" lon="-4.961210">
        <ele>1975.043</ele>
        <time>2018-10-13T15:42:41Z</time>
      </trkpt>
      <trkpt lat="43.209546" lon="-4.961272">
        <ele>1975.572</ele>
        <time>2018-10-13T15:42:48Z</time>
      </trkpt>
      <trkpt lat="43.209527" lon="-4.961333">
        <ele>1975.738</ele>
        <time>2018-10-13T15:42:54Z</time>
      </trkpt>
      <trkpt lat="43.209523" lon="-4.961396">
        <ele>1977.276</ele>
        <time>2018-10-13T15:43:02Z</time>
      </trkpt>
      <trkpt lat="43.209547" lon="-4.961453">
        <ele>1980.937</ele>
        <time>2018-10-13T15:43:48Z</time>
      </trkpt>
      <trkpt lat="43.209532" lon="-4.961515">
        <ele>1982.849</ele>
        <time>2018-10-13T15:44:09Z</time>
      </trkpt>
      <trkpt lat="43.209556" lon="-4.961568">
        <ele>1983.313</ele>
        <time>2018-10-13T15:44:15Z</time>
      </trkpt>
      <trkpt lat="43.209564" lon="-4.961630">
        <ele>1984.508</ele>
        <time>2018-10-13T15:44:21Z</time>
      </trkpt>
      <trkpt lat="43.209576" lon="-4.961690">
        <ele>1985.435</ele>
        <time>2018-10-13T15:44:27Z</time>
      </trkpt>
      <trkpt lat="43.209561" lon="-4.961754">
        <ele>1986.452</ele>
        <time>2018-10-13T15:44:36Z</time>
      </trkpt>
      <trkpt lat="43.209538" lon="-4.961810">
        <ele>1987.151</ele>
        <time>2018-10-13T15:44:45Z</time>
      </trkpt>
      <trkpt lat="43.209541" lon="-4.961873">
        <ele>1988.418</ele>
        <time>2018-10-13T15:44:53Z</time>
      </trkpt>
      <trkpt lat="43.209536" lon="-4.961938">
        <ele>1989.749</ele>
        <time>2018-10-13T15:45:12Z</time>
      </trkpt>
      <trkpt lat="43.209537" lon="-4.962000">
        <ele>1989.968</ele>
        <time>2018-10-13T15:45:20Z</time>
      </trkpt>
      <trkpt lat="43.209558" lon="-4.962056">
        <ele>1990.744</ele>
        <time>2018-10-13T15:45:27Z</time>
      </trkpt>
      <trkpt lat="43.209576" lon="-4.962117">
        <ele>1991.972</ele>
        <time>2018-10-13T15:45:40Z</time>
      </trkpt>
      <trkpt lat="43.209508" lon="-4.962147">
        <ele>1994.184</ele>
        <time>2018-10-13T15:50:57Z</time>
      </trkpt>
      <trkpt lat="43.209557" lon="-4.962248">
        <ele>1995.607</ele>
        <time>2018-10-13T15:53:03Z</time>
      </trkpt>
      <trkpt lat="43.209504" lon="-4.962331">
        <ele>1998.917</ele>
        <time>2018-10-13T15:54:51Z</time>
      </trkpt>
      <trkpt lat="43.209485" lon="-4.962389">
        <ele>1999.508</ele>
        <time>2018-10-13T16:16:35Z</time>
      </trkpt>
      <trkpt lat="43.209446" lon="-4.962422">
        <ele>1999.640</ele>
        <time>2018-10-13T16:17:12Z</time>
      </trkpt>
      <trkpt lat="43.209439" lon="-4.962488">
        <ele>2001.517</ele>
        <time>2018-10-13T16:17:31Z</time>
      </trkpt>
      <trkpt lat="43.209397" lon="-4.962516">
        <ele>2001.776</ele>
        <time>2018-10-13T16:17:37Z</time>
      </trkpt>
      <trkpt lat="43.209382" lon="-4.962671">
        <ele>2003.183</ele>
        <time>2018-10-13T16:19:13Z</time>
      </trkpt>
      <trkpt lat="43.209407" lon="-4.962731">
        <ele>2005.394</ele>
        <time>2018-10-13T16:22:51Z</time>
      </trkpt>
      <trkpt lat="43.209376" lon="-4.962788">
        <ele>2003.763</ele>
        <time>2018-10-13T16:23:16Z</time>
      </trkpt>
      <trkpt lat="43.209363" lon="-4.962849">
        <ele>2003.559</ele>
        <time>2018-10-13T16:23:24Z</time>
      </trkpt>
      <trkpt lat="43.209316" lon="-4.962862">
        <ele>2004.347</ele>
        <time>2018-10-13T16:23:35Z</time>
      </trkpt>
      <trkpt lat="43.209273" lon="-4.962901">
        <ele>2004.141</ele>
        <time>2018-10-13T16:23:41Z</time>
      </trkpt>
      <trkpt lat="43.209254" lon="-4.962964">
        <ele>2003.681</ele>
        <time>2018-10-13T16:23:48Z</time>
      </trkpt>
      <trkpt lat="43.209269" lon="-4.963029">
        <ele>2002.309</ele>
        <time>2018-10-13T16:23:55Z</time>
      </trkpt>
      <trkpt lat="43.209308" lon="-4.963065">
        <ele>2002.208</ele>
        <time>2018-10-13T16:24:09Z</time>
      </trkpt>
      <trkpt lat="43.209349" lon="-4.963097">
        <ele>2002.746</ele>
        <time>2018-10-13T16:24:32Z</time>
      </trkpt>
      <trkpt lat="43.209386" lon="-4.963148">
        <ele>2003.593</ele>
        <time>2018-10-13T16:24:55Z</time>
      </trkpt>
      <trkpt lat="43.209403" lon="-4.963221">
        <ele>2004.332</ele>
        <time>2018-10-13T16:25:27Z</time>
      </trkpt>
      <trkpt lat="43.209401" lon="-4.963285">
        <ele>2004.389</ele>
        <time>2018-10-13T16:25:32Z</time>
      </trkpt>
      <trkpt lat="43.209403" lon="-4.963348">
        <ele>2004.250</ele>
        <time>2018-10-13T16:25:37Z</time>
      </trkpt>
      <trkpt lat="43.209432" lon="-4.963407">
        <ele>2002.819</ele>
        <time>2018-10-13T16:25:53Z</time>
      </trkpt>
      <trkpt lat="43.209426" lon="-4.963475">
        <ele>2002.595</ele>
        <time>2018-10-13T16:26:02Z</time>
      </trkpt>
      <trkpt lat="43.209427" lon="-4.963537">
        <ele>2002.893</ele>
        <time>2018-10-13T16:26:09Z</time>
      </trkpt>
      <trkpt lat="43.209415" lon="-4.963596">
        <ele>2002.585</ele>
        <time>2018-10-13T16:26:17Z</time>
      </trkpt>
      <trkpt lat="43.209391" lon="-4.963659">
        <ele>2002.689</ele>
        <time>2018-10-13T16:26:21Z</time>
      </trkpt>
      <trkpt lat="43.209363" lon="-4.963716">
        <ele>2002.817</ele>
        <time>2018-10-13T16:26:26Z</time>
      </trkpt>
      <trkpt lat="43.209325" lon="-4.963756">
        <ele>2004.108</ele>
        <time>2018-10-13T16:26:36Z</time>
      </trkpt>
      <trkpt lat="43.209329" lon="-4.963824">
        <ele>2005.220</ele>
        <time>2018-10-13T16:26:42Z</time>
      </trkpt>
      <trkpt lat="43.209319" lon="-4.963899">
        <ele>2005.767</ele>
        <time>2018-10-13T16:26:47Z</time>
      </trkpt>
      <trkpt lat="43.209299" lon="-4.963960">
        <ele>2006.426</ele>
        <time>2018-10-13T16:26:51Z</time>
      </trkpt>
      <trkpt lat="43.209271" lon="-4.964009">
        <ele>2007.093</ele>
        <time>2018-10-13T16:26:55Z</time>
      </trkpt>
      <trkpt lat="43.209246" lon="-4.964063">
        <ele>2007.474</ele>
        <time>2018-10-13T16:27:02Z</time>
      </trkpt>
      <trkpt lat="43.209240" lon="-4.964126">
        <ele>2007.633</ele>
        <time>2018-10-13T16:27:07Z</time>
      </trkpt>
      <trkpt lat="43.209239" lon="-4.964193">
        <ele>2008.259</ele>
        <time>2018-10-13T16:27:14Z</time>
      </trkpt>
      <trkpt lat="43.209225" lon="-4.964260">
        <ele>2010.787</ele>
        <time>2018-10-13T16:27:29Z</time>
      </trkpt>
      <trkpt lat="43.209214" lon="-4.964321">
        <ele>2012.997</ele>
        <time>2018-10-13T16:27:45Z</time>
      </trkpt>
      <trkpt lat="43.209172" lon="-4.964354">
        <ele>2014.823</ele>
        <time>2018-10-13T16:27:57Z</time>
      </trkpt>
      <trkpt lat="43.209134" lon="-4.964403">
        <ele>2016.425</ele>
        <time>2018-10-13T16:28:09Z</time>
      </trkpt>
      <trkpt lat="43.209103" lon="-4.964455">
        <ele>2019.108</ele>
        <time>2018-10-13T16:28:29Z</time>
      </trkpt>
      <trkpt lat="43.209065" lon="-4.964496">
        <ele>2021.521</ele>
        <time>2018-10-13T16:28:47Z</time>
      </trkpt>
      <trkpt lat="43.209065" lon="-4.964573">
        <ele>2023.618</ele>
        <time>2018-10-13T16:29:08Z</time>
      </trkpt>
      <trkpt lat="43.209024" lon="-4.964603">
        <ele>2025.157</ele>
        <time>2018-10-13T16:29:16Z</time>
      </trkpt>
      <trkpt lat="43.209027" lon="-4.964672">
        <ele>2027.674</ele>
        <time>2018-10-13T16:29:35Z</time>
      </trkpt>
      <trkpt lat="43.209054" lon="-4.964728">
        <ele>2028.475</ele>
        <time>2018-10-13T16:29:47Z</time>
      </trkpt>
      <trkpt lat="43.209017" lon="-4.964768">
        <ele>2032.264</ele>
        <time>2018-10-13T16:30:03Z</time>
      </trkpt>
      <trkpt lat="43.209021" lon="-4.964830">
        <ele>2033.880</ele>
        <time>2018-10-13T16:30:23Z</time>
      </trkpt>
      <trkpt lat="43.209007" lon="-4.964900">
        <ele>2036.448</ele>
        <time>2018-10-13T16:30:42Z</time>
      </trkpt>
      <trkpt lat="43.209010" lon="-4.964968">
        <ele>2037.157</ele>
        <time>2018-10-13T16:30:49Z</time>
      </trkpt>
      <trkpt lat="43.209020" lon="-4.965029">
        <ele>2038.500</ele>
        <time>2018-10-13T16:31:02Z</time>
      </trkpt>
      <trkpt lat="43.208989" lon="-4.965074">
        <ele>2040.120</ele>
        <time>2018-10-13T16:31:11Z</time>
      </trkpt>
      <trkpt lat="43.208977" lon="-4.965148">
        <ele>2041.808</ele>
        <time>2018-10-13T16:31:25Z</time>
      </trkpt>
      <trkpt lat="43.208948" lon="-4.965199">
        <ele>2043.027</ele>
        <time>2018-10-13T16:31:38Z</time>
      </trkpt>
      <trkpt lat="43.208921" lon="-4.965260">
        <ele>2045.184</ele>
        <time>2018-10-13T16:31:58Z</time>
      </trkpt>
      <trkpt lat="43.208906" lon="-4.965323">
        <ele>2047.083</ele>
        <time>2018-10-13T16:32:11Z</time>
      </trkpt>
      <trkpt lat="43.208883" lon="-4.965380">
        <ele>2048.290</ele>
        <time>2018-10-13T16:32:18Z</time>
      </trkpt>
      <trkpt lat="43.208863" lon="-4.965448">
        <ele>2049.091</ele>
        <time>2018-10-13T16:32:24Z</time>
      </trkpt>
      <trkpt lat="43.208841" lon="-4.965503">
        <ele>2049.210</ele>
        <time>2018-10-13T16:32:28Z</time>
      </trkpt>
      <trkpt lat="43.208812" lon="-4.965557">
        <ele>2049.086</ele>
        <time>2018-10-13T16:32:34Z</time>
      </trkpt>
      <trkpt lat="43.208784" lon="-4.965611">
        <ele>2048.794</ele>
        <time>2018-10-13T16:32:40Z</time>
      </trkpt>
      <trkpt lat="43.208770" lon="-4.965680">
        <ele>2048.335</ele>
        <time>2018-10-13T16:32:48Z</time>
      </trkpt>
      <trkpt lat="43.208752" lon="-4.965741">
        <ele>2048.286</ele>
        <time>2018-10-13T16:32:57Z</time>
      </trkpt>
      <trkpt lat="43.208753" lon="-4.965805">
        <ele>2047.014</ele>
        <time>2018-10-13T16:33:04Z</time>
      </trkpt>
      <trkpt lat="43.208742" lon="-4.965871">
        <ele>2045.808</ele>
        <time>2018-10-13T16:33:13Z</time>
      </trkpt>
      <trkpt lat="43.208780" lon="-4.965911">
        <ele>2044.885</ele>
        <time>2018-10-13T16:33:22Z</time>
      </trkpt>
      <trkpt lat="43.208825" lon="-4.965920">
        <ele>2044.992</ele>
        <time>2018-10-13T16:33:37Z</time>
      </trkpt>
      <trkpt lat="43.208859" lon="-4.965961">
        <ele>2045.211</ele>
        <time>2018-10-13T16:33:49Z</time>
      </trkpt>
      <trkpt lat="43.208877" lon="-4.966018">
        <ele>2044.418</ele>
        <time>2018-10-13T16:33:56Z</time>
      </trkpt>
      <trkpt lat="43.208891" lon="-4.966105">
        <ele>2043.729</ele>
        <time>2018-10-13T16:34:12Z</time>
      </trkpt>
      <trkpt lat="43.208923" lon="-4.966159">
        <ele>2041.478</ele>
        <time>2018-10-13T16:34:31Z</time>
      </trkpt>
      <trkpt lat="43.208926" lon="-4.966225">
        <ele>2040.224</ele>
        <time>2018-10-13T16:34:41Z</time>
      </trkpt>
      <trkpt lat="43.208951" lon="-4.966282">
        <ele>2039.452</ele>
        <time>2018-10-13T16:34:47Z</time>
      </trkpt>
      <trkpt lat="43.208986" lon="-4.966324">
        <ele>2038.443</ele>
        <time>2018-10-13T16:34:58Z</time>
      </trkpt>
      <trkpt lat="43.209030" lon="-4.966341">
        <ele>2037.764</ele>
        <time>2018-10-13T16:35:06Z</time>
      </trkpt>
      <trkpt lat="43.209078" lon="-4.966341">
        <ele>2037.110</ele>
        <time>2018-10-13T16:35:12Z</time>
      </trkpt>
      <trkpt lat="43.209137" lon="-4.966328">
        <ele>2037.008</ele>
        <time>2018-10-13T16:35:21Z</time>
      </trkpt>
      <trkpt lat="43.209182" lon="-4.966357">
        <ele>2036.466</ele>
        <time>2018-10-13T16:35:27Z</time>
      </trkpt>
      <trkpt lat="43.209228" lon="-4.966376">
        <ele>2035.433</ele>
        <time>2018-10-13T16:35:33Z</time>
      </trkpt>
      <trkpt lat="43.209270" lon="-4.966399">
        <ele>2035.242</ele>
        <time>2018-10-13T16:35:41Z</time>
      </trkpt>
      <trkpt lat="43.209315" lon="-4.966416">
        <ele>2035.079</ele>
        <time>2018-10-13T16:35:47Z</time>
      </trkpt>
      <trkpt lat="43.209358" lon="-4.966444">
        <ele>2034.760</ele>
        <time>2018-10-13T16:35:52Z</time>
      </trkpt>
      <trkpt lat="43.209404" lon="-4.966458">
        <ele>2034.319</ele>
        <time>2018-10-13T16:35:57Z</time>
      </trkpt>
      <trkpt lat="43.209451" lon="-4.966463">
        <ele>2033.875</ele>
        <time>2018-10-13T16:36:03Z</time>
      </trkpt>
      <trkpt lat="43.209482" lon="-4.966510">
        <ele>2032.843</ele>
        <time>2018-10-13T16:36:11Z</time>
      </trkpt>
      <trkpt lat="43.209530" lon="-4.966528">
        <ele>2032.429</ele>
        <time>2018-10-13T16:36:17Z</time>
      </trkpt>
      <trkpt lat="43.209577" lon="-4.966550">
        <ele>2031.200</ele>
        <time>2018-10-13T16:36:24Z</time>
      </trkpt>
      <trkpt lat="43.209620" lon="-4.966592">
        <ele>2030.820</ele>
        <time>2018-10-13T16:36:31Z</time>
      </trkpt>
      <trkpt lat="43.209666" lon="-4.966625">
        <ele>2030.908</ele>
        <time>2018-10-13T16:36:39Z</time>
      </trkpt>
      <trkpt lat="43.209710" lon="-4.966648">
        <ele>2029.724</ele>
        <time>2018-10-13T16:36:48Z</time>
      </trkpt>
      <trkpt lat="43.209744" lon="-4.966695">
        <ele>2029.171</ele>
        <time>2018-10-13T16:37:48Z</time>
      </trkpt>
      <trkpt lat="43.209786" lon="-4.966717">
        <ele>2027.670</ele>
        <time>2018-10-13T16:37:57Z</time>
      </trkpt>
      <trkpt lat="43.209840" lon="-4.966761">
        <ele>2025.647</ele>
        <time>2018-10-13T16:38:26Z</time>
      </trkpt>
      <trkpt lat="43.209890" lon="-4.966779">
        <ele>2024.018</ele>
        <time>2018-10-13T16:38:44Z</time>
      </trkpt>
      <trkpt lat="43.209936" lon="-4.966779">
        <ele>2023.587</ele>
        <time>2018-10-13T16:38:50Z</time>
      </trkpt>
      <trkpt lat="43.209973" lon="-4.966823">
        <ele>2021.783</ele>
        <time>2018-10-13T16:39:01Z</time>
      </trkpt>
      <trkpt lat="43.209988" lon="-4.966888">
        <ele>2020.791</ele>
        <time>2018-10-13T16:39:10Z</time>
      </trkpt>
      <trkpt lat="43.210025" lon="-4.966930">
        <ele>2019.994</ele>
        <time>2018-10-13T16:39:17Z</time>
      </trkpt>
      <trkpt lat="43.210060" lon="-4.966970">
        <ele>2019.057</ele>
        <time>2018-10-13T16:39:23Z</time>
      </trkpt>
      <trkpt lat="43.210096" lon="-4.967010">
        <ele>2018.422</ele>
        <time>2018-10-13T16:39:30Z</time>
      </trkpt>
      <trkpt lat="43.210096" lon="-4.967072">
        <ele>2016.808</ele>
        <time>2018-10-13T16:40:01Z</time>
      </trkpt>
      <trkpt lat="43.210127" lon="-4.967120">
        <ele>2016.011</ele>
        <time>2018-10-13T16:40:08Z</time>
      </trkpt>
      <trkpt lat="43.210168" lon="-4.967156">
        <ele>2014.938</ele>
        <time>2018-10-13T16:40:16Z</time>
      </trkpt>
      <trkpt lat="43.210206" lon="-4.967201">
        <ele>2014.077</ele>
        <time>2018-10-13T16:40:23Z</time>
      </trkpt>
      <trkpt lat="43.210249" lon="-4.967235">
        <ele>2013.384</ele>
        <time>2018-10-13T16:40:30Z</time>
      </trkpt>
      <trkpt lat="43.210288" lon="-4.967267">
        <ele>2013.145</ele>
        <time>2018-10-13T16:40:36Z</time>
      </trkpt>
      <trkpt lat="43.210328" lon="-4.967306">
        <ele>2012.634</ele>
        <time>2018-10-13T16:40:42Z</time>
      </trkpt>
      <trkpt lat="43.210373" lon="-4.967342">
        <ele>2011.980</ele>
        <time>2018-10-13T16:40:48Z</time>
      </trkpt>
      <trkpt lat="43.210409" lon="-4.967387">
        <ele>2011.298</ele>
        <time>2018-10-13T16:40:55Z</time>
      </trkpt>
      <trkpt lat="43.210446" lon="-4.967427">
        <ele>2011.079</ele>
        <time>2018-10-13T16:41:01Z</time>
      </trkpt>
      <trkpt lat="43.210492" lon="-4.967436">
        <ele>2010.405</ele>
        <time>2018-10-13T16:41:07Z</time>
      </trkpt>
      <trkpt lat="43.210538" lon="-4.967480">
        <ele>2010.425</ele>
        <time>2018-10-13T16:41:14Z</time>
      </trkpt>
      <trkpt lat="43.210575" lon="-4.967525">
        <ele>2010.108</ele>
        <time>2018-10-13T16:41:33Z</time>
      </trkpt>
      <trkpt lat="43.210620" lon="-4.967552">
        <ele>2009.989</ele>
        <time>2018-10-13T16:41:39Z</time>
      </trkpt>
      <trkpt lat="43.210662" lon="-4.967582">
        <ele>2009.926</ele>
        <time>2018-10-13T16:41:44Z</time>
      </trkpt>
      <trkpt lat="43.210706" lon="-4.967599">
        <ele>2010.065</ele>
        <time>2018-10-13T16:41:51Z</time>
      </trkpt>
      <trkpt lat="43.210753" lon="-4.967622">
        <ele>2010.112</ele>
        <time>2018-10-13T16:41:55Z</time>
      </trkpt>
      <trkpt lat="43.210795" lon="-4.967659">
        <ele>2010.123</ele>
        <time>2018-10-13T16:42:00Z</time>
      </trkpt>
      <trkpt lat="43.210828" lon="-4.967706">
        <ele>2009.922</ele>
        <time>2018-10-13T16:42:06Z</time>
      </trkpt>
      <trkpt lat="43.210876" lon="-4.967737">
        <ele>2010.068</ele>
        <time>2018-10-13T16:42:13Z</time>
      </trkpt>
      <trkpt lat="43.210920" lon="-4.967765">
        <ele>2010.096</ele>
        <time>2018-10-13T16:42:18Z</time>
      </trkpt>
      <trkpt lat="43.210965" lon="-4.967796">
        <ele>2009.631</ele>
        <time>2018-10-13T16:42:25Z</time>
      </trkpt>
      <trkpt lat="43.211013" lon="-4.967823">
        <ele>2009.461</ele>
        <time>2018-10-13T16:42:32Z</time>
      </trkpt>
      <trkpt lat="43.211057" lon="-4.967860">
        <ele>2010.207</ele>
        <time>2018-10-13T16:42:38Z</time>
      </trkpt>
      <trkpt lat="43.211095" lon="-4.967896">
        <ele>2010.408</ele>
        <time>2018-10-13T16:42:43Z</time>
      </trkpt>
      <trkpt lat="43.211129" lon="-4.967946">
        <ele>2011.195</ele>
        <time>2018-10-13T16:42:57Z</time>
      </trkpt>
      <trkpt lat="43.211173" lon="-4.967966">
        <ele>2011.122</ele>
        <time>2018-10-13T16:43:02Z</time>
      </trkpt>
      <trkpt lat="43.211122" lon="-4.967949">
        <ele>2010.851</ele>
        <time>2018-10-13T16:43:28Z</time>
      </trkpt>
      <trkpt lat="43.211173" lon="-4.967963">
        <ele>2011.588</ele>
        <time>2018-10-13T16:43:34Z</time>
      </trkpt>
      <trkpt lat="43.211219" lon="-4.967980">
        <ele>2012.289</ele>
        <time>2018-10-13T16:43:41Z</time>
      </trkpt>
      <trkpt lat="43.211263" lon="-4.968011">
        <ele>2013.158</ele>
        <time>2018-10-13T16:43:49Z</time>
      </trkpt>
      <trkpt lat="43.211302" lon="-4.968050">
        <ele>2014.314</ele>
        <time>2018-10-13T16:43:57Z</time>
      </trkpt>
      <trkpt lat="43.211353" lon="-4.968066">
        <ele>2015.092</ele>
        <time>2018-10-13T16:44:02Z</time>
      </trkpt>
      <trkpt lat="43.211401" lon="-4.968050">
        <ele>2014.123</ele>
        <time>2018-10-13T16:44:07Z</time>
      </trkpt>
      <trkpt lat="43.211453" lon="-4.968022">
        <ele>2014.283</ele>
        <time>2018-10-13T16:44:11Z</time>
      </trkpt>
      <trkpt lat="43.211501" lon="-4.967990">
        <ele>2013.611</ele>
        <time>2018-10-13T16:44:15Z</time>
      </trkpt>
      <trkpt lat="43.211547" lon="-4.967971">
        <ele>2013.208</ele>
        <time>2018-10-13T16:44:19Z</time>
      </trkpt>
      <trkpt lat="43.211593" lon="-4.967939">
        <ele>2012.864</ele>
        <time>2018-10-13T16:44:24Z</time>
      </trkpt>
      <trkpt lat="43.211632" lon="-4.967902">
        <ele>2012.061</ele>
        <time>2018-10-13T16:44:30Z</time>
      </trkpt>
      <trkpt lat="43.211677" lon="-4.967892">
        <ele>2011.240</ele>
        <time>2018-10-13T16:44:35Z</time>
      </trkpt>
      <trkpt lat="43.211722" lon="-4.967896">
        <ele>2010.327</ele>
        <time>2018-10-13T16:44:43Z</time>
      </trkpt>
      <trkpt lat="43.211768" lon="-4.967900">
        <ele>2010.038</ele>
        <time>2018-10-13T16:44:48Z</time>
      </trkpt>
      <trkpt lat="43.211819" lon="-4.967903">
        <ele>2009.887</ele>
        <time>2018-10-13T16:44:56Z</time>
      </trkpt>
      <trkpt lat="43.211864" lon="-4.967897">
        <ele>2011.263</ele>
        <time>2018-10-13T16:45:05Z</time>
      </trkpt>
      <trkpt lat="43.211902" lon="-4.967937">
        <ele>2012.331</ele>
        <time>2018-10-13T16:45:11Z</time>
      </trkpt>
      <trkpt lat="43.211964" lon="-4.967973">
        <ele>2013.625</ele>
        <time>2018-10-13T16:45:22Z</time>
      </trkpt>
      <trkpt lat="43.212009" lon="-4.967993">
        <ele>2013.926</ele>
        <time>2018-10-13T16:45:29Z</time>
      </trkpt>
      <trkpt lat="43.212058" lon="-4.968014">
        <ele>2014.308</ele>
        <time>2018-10-13T16:45:34Z</time>
      </trkpt>
      <trkpt lat="43.212112" lon="-4.968039">
        <ele>2014.508</ele>
        <time>2018-10-13T16:45:39Z</time>
      </trkpt>
      <trkpt lat="43.212162" lon="-4.968078">
        <ele>2014.894</ele>
        <time>2018-10-13T16:45:44Z</time>
      </trkpt>
      <trkpt lat="43.212201" lon="-4.968122">
        <ele>2015.711</ele>
        <time>2018-10-13T16:45:51Z</time>
      </trkpt>
      <trkpt lat="43.212240" lon="-4.968160">
        <ele>2016.450</ele>
        <time>2018-10-13T16:45:58Z</time>
      </trkpt>
      <trkpt lat="43.212280" lon="-4.968194">
        <ele>2016.747</ele>
        <time>2018-10-13T16:46:05Z</time>
      </trkpt>
      <trkpt lat="43.212309" lon="-4.968250">
        <ele>2016.888</ele>
        <time>2018-10-13T16:46:12Z</time>
      </trkpt>
      <trkpt lat="43.212345" lon="-4.968293">
        <ele>2018.097</ele>
        <time>2018-10-13T16:46:26Z</time>
      </trkpt>
      <trkpt lat="43.212355" lon="-4.968376">
        <ele>2022.043</ele>
        <time>2018-10-13T16:46:54Z</time>
      </trkpt>
      <trkpt lat="43.212392" lon="-4.968420">
        <ele>2023.341</ele>
        <time>2018-10-13T16:47:06Z</time>
      </trkpt>
      <trkpt lat="43.212425" lon="-4.968469">
        <ele>2025.858</ele>
        <time>2018-10-13T16:49:24Z</time>
      </trkpt>
      <trkpt lat="43.212463" lon="-4.968529">
        <ele>2025.352</ele>
        <time>2018-10-13T16:49:31Z</time>
      </trkpt>
      <trkpt lat="43.212482" lon="-4.968590">
        <ele>2023.817</ele>
        <time>2018-10-13T16:49:42Z</time>
      </trkpt>
      <trkpt lat="43.212494" lon="-4.968654">
        <ele>2022.908</ele>
        <time>2018-10-13T16:49:48Z</time>
      </trkpt>
      <trkpt lat="43.212489" lon="-4.968724">
        <ele>2022.837</ele>
        <time>2018-10-13T16:49:53Z</time>
      </trkpt>
      <trkpt lat="43.212504" lon="-4.968782">
        <ele>2021.834</ele>
        <time>2018-10-13T16:49:58Z</time>
      </trkpt>
      <trkpt lat="43.212540" lon="-4.968829">
        <ele>2022.093</ele>
        <time>2018-10-13T16:50:04Z</time>
      </trkpt>
      <trkpt lat="43.212585" lon="-4.968850">
        <ele>2023.460</ele>
        <time>2018-10-13T16:50:10Z</time>
      </trkpt>
      <trkpt lat="43.212632" lon="-4.968857">
        <ele>2024.041</ele>
        <time>2018-10-13T16:50:16Z</time>
      </trkpt>
      <trkpt lat="43.212672" lon="-4.968886">
        <ele>2023.910</ele>
        <time>2018-10-13T16:50:25Z</time>
      </trkpt>
      <trkpt lat="43.212717" lon="-4.968909">
        <ele>2024.576</ele>
        <time>2018-10-13T16:50:32Z</time>
      </trkpt>
      <trkpt lat="43.212763" lon="-4.968911">
        <ele>2024.984</ele>
        <time>2018-10-13T16:50:36Z</time>
      </trkpt>
      <trkpt lat="43.212811" lon="-4.968936">
        <ele>2024.563</ele>
        <time>2018-10-13T16:50:40Z</time>
      </trkpt>
      <trkpt lat="43.212848" lon="-4.968986">
        <ele>2024.244</ele>
        <time>2018-10-13T16:50:45Z</time>
      </trkpt>
      <trkpt lat="43.212891" lon="-4.969015">
        <ele>2023.518</ele>
        <time>2018-10-13T16:50:50Z</time>
      </trkpt>
      <trkpt lat="43.212943" lon="-4.969031">
        <ele>2023.008</ele>
        <time>2018-10-13T16:50:56Z</time>
      </trkpt>
      <trkpt lat="43.212997" lon="-4.969037">
        <ele>2023.068</ele>
        <time>2018-10-13T16:51:02Z</time>
      </trkpt>
      <trkpt lat="43.213046" lon="-4.969033">
        <ele>2022.665</ele>
        <time>2018-10-13T16:51:07Z</time>
      </trkpt>
      <trkpt lat="43.213094" lon="-4.969014">
        <ele>2021.444</ele>
        <time>2018-10-13T16:51:13Z</time>
      </trkpt>
      <trkpt lat="43.213139" lon="-4.969037">
        <ele>2019.821</ele>
        <time>2018-10-13T16:51:19Z</time>
      </trkpt>
      <trkpt lat="43.213187" lon="-4.969070">
        <ele>2019.042</ele>
        <time>2018-10-13T16:51:25Z</time>
      </trkpt>
      <trkpt lat="43.213176" lon="-4.969005">
        <ele>2018.311</ele>
        <time>2018-10-13T16:52:06Z</time>
      </trkpt>
      <trkpt lat="43.213164" lon="-4.968939">
        <ele>2017.397</ele>
        <time>2018-10-13T16:52:11Z</time>
      </trkpt>
      <trkpt lat="43.213163" lon="-4.968848">
        <ele>2016.175</ele>
        <time>2018-10-13T16:52:20Z</time>
      </trkpt>
      <trkpt lat="43.213174" lon="-4.968777">
        <ele>2016.338</ele>
        <time>2018-10-13T16:52:26Z</time>
      </trkpt>
      <trkpt lat="43.213174" lon="-4.968708">
        <ele>2015.670</ele>
        <time>2018-10-13T16:52:34Z</time>
      </trkpt>
      <trkpt lat="43.213195" lon="-4.968648">
        <ele>2014.717</ele>
        <time>2018-10-13T16:52:41Z</time>
      </trkpt>
      <trkpt lat="43.213228" lon="-4.968604">
        <ele>2014.408</ele>
        <time>2018-10-13T16:52:49Z</time>
      </trkpt>
      <trkpt lat="43.213279" lon="-4.968604">
        <ele>2013.355</ele>
        <time>2018-10-13T16:52:53Z</time>
      </trkpt>
      <trkpt lat="43.213335" lon="-4.968585">
        <ele>2013.612</ele>
        <time>2018-10-13T16:52:58Z</time>
      </trkpt>
      <trkpt lat="43.213380" lon="-4.968553">
        <ele>2013.841</ele>
        <time>2018-10-13T16:53:02Z</time>
      </trkpt>
      <trkpt lat="43.213420" lon="-4.968510">
        <ele>2013.448</ele>
        <time>2018-10-13T16:53:08Z</time>
      </trkpt>
      <trkpt lat="43.213404" lon="-4.968571">
        <ele>2011.949</ele>
        <time>2018-10-13T16:53:14Z</time>
      </trkpt>
      <trkpt lat="43.213389" lon="-4.968636">
        <ele>2011.018</ele>
        <time>2018-10-13T16:53:21Z</time>
      </trkpt>
      <trkpt lat="43.213376" lon="-4.968699">
        <ele>2010.624</ele>
        <time>2018-10-13T16:53:26Z</time>
      </trkpt>
      <trkpt lat="43.213377" lon="-4.968764">
        <ele>2010.392</ele>
        <time>2018-10-13T16:53:31Z</time>
      </trkpt>
      <trkpt lat="43.213432" lon="-4.968740">
        <ele>2007.681</ele>
        <time>2018-10-13T16:53:50Z</time>
      </trkpt>
      <trkpt lat="43.213473" lon="-4.968702">
        <ele>2007.061</ele>
        <time>2018-10-13T16:53:55Z</time>
      </trkpt>
      <trkpt lat="43.213521" lon="-4.968678">
        <ele>2006.717</ele>
        <time>2018-10-13T16:53:59Z</time>
      </trkpt>
      <trkpt lat="43.213565" lon="-4.968643">
        <ele>2005.208</ele>
        <time>2018-10-13T16:54:06Z</time>
      </trkpt>
      <trkpt lat="43.213595" lon="-4.968591">
        <ele>2004.260</ele>
        <time>2018-10-13T16:54:12Z</time>
      </trkpt>
      <trkpt lat="43.213637" lon="-4.968558">
        <ele>2003.777</ele>
        <time>2018-10-13T16:54:18Z</time>
      </trkpt>
      <trkpt lat="43.213674" lon="-4.968521">
        <ele>2003.126</ele>
        <time>2018-10-13T16:54:23Z</time>
      </trkpt>
      <trkpt lat="43.213713" lon="-4.968486">
        <ele>2002.253</ele>
        <time>2018-10-13T16:54:30Z</time>
      </trkpt>
      <trkpt lat="43.213772" lon="-4.968452">
        <ele>2001.014</ele>
        <time>2018-10-13T16:54:37Z</time>
      </trkpt>
      <trkpt lat="43.213812" lon="-4.968421">
        <ele>2000.463</ele>
        <time>2018-10-13T16:54:50Z</time>
      </trkpt>
      <trkpt lat="43.213865" lon="-4.968426">
        <ele>2000.029</ele>
        <time>2018-10-13T16:54:56Z</time>
      </trkpt>
      <trkpt lat="43.213917" lon="-4.968435">
        <ele>1999.647</ele>
        <time>2018-10-13T16:55:03Z</time>
      </trkpt>
      <trkpt lat="43.213958" lon="-4.968464">
        <ele>1998.765</ele>
        <time>2018-10-13T16:55:09Z</time>
      </trkpt>
      <trkpt lat="43.213995" lon="-4.968501">
        <ele>1998.068</ele>
        <time>2018-10-13T16:55:15Z</time>
      </trkpt>
      <trkpt lat="43.214047" lon="-4.968513">
        <ele>1997.214</ele>
        <time>2018-10-13T16:55:22Z</time>
      </trkpt>
      <trkpt lat="43.214098" lon="-4.968508">
        <ele>1997.708</ele>
        <time>2018-10-13T16:55:33Z</time>
      </trkpt>
      <trkpt lat="43.214145" lon="-4.968515">
        <ele>1997.278</ele>
        <time>2018-10-13T16:55:41Z</time>
      </trkpt>
      <trkpt lat="43.214282" lon="-4.968582">
        <ele>2001.125</ele>
        <time>2018-10-13T16:56:38Z</time>
      </trkpt>
      <trkpt lat="43.214333" lon="-4.968610">
        <ele>2001.564</ele>
        <time>2018-10-13T16:56:43Z</time>
      </trkpt>
      <trkpt lat="43.214377" lon="-4.968638">
        <ele>2002.131</ele>
        <time>2018-10-13T16:56:47Z</time>
      </trkpt>
      <trkpt lat="43.214426" lon="-4.968657">
        <ele>2002.422</ele>
        <time>2018-10-13T16:56:52Z</time>
      </trkpt>
      <trkpt lat="43.214478" lon="-4.968652">
        <ele>2001.451</ele>
        <time>2018-10-13T16:56:57Z</time>
      </trkpt>
      <trkpt lat="43.214525" lon="-4.968634">
        <ele>2000.947</ele>
        <time>2018-10-13T16:57:01Z</time>
      </trkpt>
      <trkpt lat="43.214559" lon="-4.968587">
        <ele>2000.185</ele>
        <time>2018-10-13T16:57:06Z</time>
      </trkpt>
      <trkpt lat="43.214581" lon="-4.968525">
        <ele>1999.646</ele>
        <time>2018-10-13T16:57:12Z</time>
      </trkpt>
      <trkpt lat="43.214605" lon="-4.968462">
        <ele>1998.788</ele>
        <time>2018-10-13T16:57:19Z</time>
      </trkpt>
      <trkpt lat="43.214605" lon="-4.968387">
        <ele>1997.616</ele>
        <time>2018-10-13T16:57:25Z</time>
      </trkpt>
      <trkpt lat="43.214606" lon="-4.968320">
        <ele>1996.608</ele>
        <time>2018-10-13T16:57:30Z</time>
      </trkpt>
      <trkpt lat="43.214620" lon="-4.968257">
        <ele>1995.856</ele>
        <time>2018-10-13T16:57:35Z</time>
      </trkpt>
      <trkpt lat="43.214641" lon="-4.968191">
        <ele>1994.913</ele>
        <time>2018-10-13T16:57:41Z</time>
      </trkpt>
      <trkpt lat="43.214676" lon="-4.968145">
        <ele>1994.342</ele>
        <time>2018-10-13T16:57:47Z</time>
      </trkpt>
      <trkpt lat="43.214726" lon="-4.968117">
        <ele>1993.369</ele>
        <time>2018-10-13T16:57:53Z</time>
      </trkpt>
      <trkpt lat="43.214778" lon="-4.968106">
        <ele>1992.690</ele>
        <time>2018-10-13T16:57:58Z</time>
      </trkpt>
      <trkpt lat="43.214818" lon="-4.968062">
        <ele>1991.639</ele>
        <time>2018-10-13T16:58:04Z</time>
      </trkpt>
      <trkpt lat="43.214856" lon="-4.968017">
        <ele>1990.715</ele>
        <time>2018-10-13T16:58:11Z</time>
      </trkpt>
      <trkpt lat="43.214904" lon="-4.967991">
        <ele>1990.293</ele>
        <time>2018-10-13T16:58:16Z</time>
      </trkpt>
      <trkpt lat="43.214960" lon="-4.967994">
        <ele>1989.834</ele>
        <time>2018-10-13T16:58:21Z</time>
      </trkpt>
      <trkpt lat="43.215007" lon="-4.968015">
        <ele>1989.655</ele>
        <time>2018-10-13T16:58:26Z</time>
      </trkpt>
      <trkpt lat="43.215042" lon="-4.968070">
        <ele>1989.810</ele>
        <time>2018-10-13T16:58:31Z</time>
      </trkpt>
      <trkpt lat="43.215083" lon="-4.968114">
        <ele>1989.308</ele>
        <time>2018-10-13T16:58:37Z</time>
      </trkpt>
      <trkpt lat="43.215131" lon="-4.968148">
        <ele>1988.895</ele>
        <time>2018-10-13T16:58:41Z</time>
      </trkpt>
      <trkpt lat="43.215163" lon="-4.968195">
        <ele>1988.642</ele>
        <time>2018-10-13T16:58:45Z</time>
      </trkpt>
      <trkpt lat="43.215199" lon="-4.968249">
        <ele>1988.471</ele>
        <time>2018-10-13T16:58:51Z</time>
      </trkpt>
      <trkpt lat="43.215235" lon="-4.968297">
        <ele>1987.958</ele>
        <time>2018-10-13T16:58:56Z</time>
      </trkpt>
      <trkpt lat="43.215263" lon="-4.968353">
        <ele>1987.029</ele>
        <time>2018-10-13T16:59:01Z</time>
      </trkpt>
      <trkpt lat="43.215278" lon="-4.968415">
        <ele>1986.528</ele>
        <time>2018-10-13T16:59:08Z</time>
      </trkpt>
      <trkpt lat="43.215324" lon="-4.968435">
        <ele>1985.314</ele>
        <time>2018-10-13T16:59:18Z</time>
      </trkpt>
      <trkpt lat="43.215372" lon="-4.968429">
        <ele>1985.482</ele>
        <time>2018-10-13T16:59:24Z</time>
      </trkpt>
      <trkpt lat="43.215426" lon="-4.968417">
        <ele>1985.111</ele>
        <time>2018-10-13T16:59:29Z</time>
      </trkpt>
      <trkpt lat="43.215471" lon="-4.968422">
        <ele>1985.621</ele>
        <time>2018-10-13T16:59:34Z</time>
      </trkpt>
      <trkpt lat="43.215518" lon="-4.968426">
        <ele>1986.403</ele>
        <time>2018-10-13T16:59:38Z</time>
      </trkpt>
      <trkpt lat="43.215563" lon="-4.968433">
        <ele>1985.708</ele>
        <time>2018-10-13T16:59:44Z</time>
      </trkpt>
      <trkpt lat="43.215617" lon="-4.968430">
        <ele>1987.633</ele>
        <time>2018-10-13T17:00:01Z</time>
      </trkpt>
      <trkpt lat="43.215670" lon="-4.968451">
        <ele>1989.710</ele>
        <time>2018-10-13T17:00:14Z</time>
      </trkpt>
      <trkpt lat="43.215712" lon="-4.968500">
        <ele>1991.049</ele>
        <time>2018-10-13T17:00:22Z</time>
      </trkpt>
      <trkpt lat="43.215762" lon="-4.968513">
        <ele>1992.946</ele>
        <time>2018-10-13T17:00:39Z</time>
      </trkpt>
      <trkpt lat="43.215840" lon="-4.968570">
        <ele>1994.297</ele>
        <time>2018-10-13T17:00:54Z</time>
      </trkpt>
      <trkpt lat="43.215897" lon="-4.968675">
        <ele>1995.536</ele>
        <time>2018-10-13T17:01:20Z</time>
      </trkpt>
      <trkpt lat="43.215926" lon="-4.968833">
        <ele>1996.642</ele>
        <time>2018-10-13T17:01:39Z</time>
      </trkpt>
      <trkpt lat="43.215985" lon="-4.968843">
        <ele>1995.830</ele>
        <time>2018-10-13T17:02:10Z</time>
      </trkpt>
      <trkpt lat="43.216047" lon="-4.968887">
        <ele>2004.382</ele>
        <time>2018-10-13T17:02:57Z</time>
      </trkpt>
      <trkpt lat="43.216056" lon="-4.968818">
        <ele>2005.843</ele>
        <time>2018-10-13T17:03:08Z</time>
      </trkpt>
      <trkpt lat="43.216075" lon="-4.968760">
        <ele>2006.417</ele>
        <time>2018-10-13T17:03:16Z</time>
      </trkpt>
      <trkpt lat="43.216065" lon="-4.968696">
        <ele>2006.408</ele>
        <time>2018-10-13T17:03:28Z</time>
      </trkpt>
      <trkpt lat="43.216106" lon="-4.968724">
        <ele>2005.870</ele>
        <time>2018-10-13T17:03:38Z</time>
      </trkpt>
      <trkpt lat="43.216132" lon="-4.968782">
        <ele>2006.497</ele>
        <time>2018-10-13T17:03:44Z</time>
      </trkpt>
      <trkpt lat="43.216142" lon="-4.968843">
        <ele>2007.036</ele>
        <time>2018-10-13T17:03:53Z</time>
      </trkpt>
      <trkpt lat="43.216163" lon="-4.968905">
        <ele>2005.373</ele>
        <time>2018-10-13T17:03:58Z</time>
      </trkpt>
      <trkpt lat="43.216180" lon="-4.968965">
        <ele>2006.674</ele>
        <time>2018-10-13T17:04:04Z</time>
      </trkpt>
      <trkpt lat="43.216186" lon="-4.969031">
        <ele>2005.973</ele>
        <time>2018-10-13T17:04:11Z</time>
      </trkpt>
      <trkpt lat="43.216193" lon="-4.969100">
        <ele>2009.619</ele>
        <time>2018-10-13T17:04:25Z</time>
      </trkpt>
      <trkpt lat="43.216210" lon="-4.969158">
        <ele>2011.067</ele>
        <time>2018-10-13T17:04:31Z</time>
      </trkpt>
      <trkpt lat="43.216224" lon="-4.969222">
        <ele>2014.565</ele>
        <time>2018-10-13T17:05:31Z</time>
      </trkpt>
      <trkpt lat="43.216213" lon="-4.969300">
        <ele>2016.968</ele>
        <time>2018-10-13T17:05:42Z</time>
      </trkpt>
      <trkpt lat="43.216192" lon="-4.969375">
        <ele>2017.214</ele>
        <time>2018-10-13T17:05:47Z</time>
      </trkpt>
      <trkpt lat="43.216181" lon="-4.969444">
        <ele>2017.208</ele>
        <time>2018-10-13T17:05:51Z</time>
      </trkpt>
      <trkpt lat="43.216179" lon="-4.969513">
        <ele>2020.898</ele>
        <time>2018-10-13T17:06:14Z</time>
      </trkpt>
      <trkpt lat="43.216174" lon="-4.969582">
        <ele>2025.325</ele>
        <time>2018-10-13T17:06:43Z</time>
      </trkpt>
      <trkpt lat="43.216180" lon="-4.969648">
        <ele>2028.014</ele>
        <time>2018-10-13T17:06:52Z</time>
      </trkpt>
      <trkpt lat="43.216153" lon="-4.969707">
        <ele>2030.971</ele>
        <time>2018-10-13T17:07:00Z</time>
      </trkpt>
      <trkpt lat="43.216134" lon="-4.969771">
        <ele>2032.562</ele>
        <time>2018-10-13T17:07:05Z</time>
      </trkpt>
      <trkpt lat="43.216119" lon="-4.969837">
        <ele>2033.131</ele>
        <time>2018-10-13T17:07:10Z</time>
      </trkpt>
      <trkpt lat="43.216126" lon="-4.969902">
        <ele>2029.587</ele>
        <time>2018-10-13T17:07:16Z</time>
      </trkpt>
      <trkpt lat="43.216137" lon="-4.969972">
        <ele>2028.815</ele>
        <time>2018-10-13T17:07:22Z</time>
      </trkpt>
      <trkpt lat="43.216151" lon="-4.970035">
        <ele>2027.684</ele>
        <time>2018-10-13T17:07:28Z</time>
      </trkpt>
      <trkpt lat="43.216182" lon="-4.970086">
        <ele>2026.507</ele>
        <time>2018-10-13T17:07:36Z</time>
      </trkpt>
      <trkpt lat="43.216202" lon="-4.970148">
        <ele>2025.817</ele>
        <time>2018-10-13T17:07:44Z</time>
      </trkpt>
      <trkpt lat="43.216227" lon="-4.970213">
        <ele>2025.508</ele>
        <time>2018-10-13T17:07:49Z</time>
      </trkpt>
      <trkpt lat="43.216256" lon="-4.970278">
        <ele>2025.140</ele>
        <time>2018-10-13T17:07:54Z</time>
      </trkpt>
      <trkpt lat="43.216277" lon="-4.970336">
        <ele>2024.787</ele>
        <time>2018-10-13T17:07:59Z</time>
      </trkpt>
      <trkpt lat="43.216311" lon="-4.970389">
        <ele>2023.886</ele>
        <time>2018-10-13T17:08:03Z</time>
      </trkpt>
      <trkpt lat="43.216337" lon="-4.970442">
        <ele>2022.913</ele>
        <time>2018-10-13T17:08:08Z</time>
      </trkpt>
      <trkpt lat="43.216372" lon="-4.970493">
        <ele>2021.844</ele>
        <time>2018-10-13T17:08:16Z</time>
      </trkpt>
      <trkpt lat="43.216390" lon="-4.970556">
        <ele>2022.033</ele>
        <time>2018-10-13T17:08:23Z</time>
      </trkpt>
      <trkpt lat="43.216429" lon="-4.970593">
        <ele>2021.799</ele>
        <time>2018-10-13T17:08:32Z</time>
      </trkpt>
      <trkpt lat="43.216474" lon="-4.970599">
        <ele>2020.367</ele>
        <time>2018-10-13T17:08:42Z</time>
      </trkpt>
      <trkpt lat="43.216517" lon="-4.970625">
        <ele>2017.636</ele>
        <time>2018-10-13T17:09:08Z</time>
      </trkpt>
      <trkpt lat="43.216573" lon="-4.970673">
        <ele>2016.017</ele>
        <time>2018-10-13T17:09:21Z</time>
      </trkpt>
      <trkpt lat="43.216605" lon="-4.970737">
        <ele>2013.518</ele>
        <time>2018-10-13T17:09:31Z</time>
      </trkpt>
      <trkpt lat="43.216646" lon="-4.970772">
        <ele>2012.508</ele>
        <time>2018-10-13T17:09:36Z</time>
      </trkpt>
      <trkpt lat="43.216686" lon="-4.970804">
        <ele>2011.085</ele>
        <time>2018-10-13T17:09:41Z</time>
      </trkpt>
      <trkpt lat="43.216738" lon="-4.970805">
        <ele>2011.842</ele>
        <time>2018-10-13T17:09:47Z</time>
      </trkpt>
      <trkpt lat="43.216787" lon="-4.970794">
        <ele>2013.071</ele>
        <time>2018-10-13T17:09:53Z</time>
      </trkpt>
      <trkpt lat="43.216839" lon="-4.970785">
        <ele>2014.018</ele>
        <time>2018-10-13T17:09:58Z</time>
      </trkpt>
      <trkpt lat="43.216890" lon="-4.970774">
        <ele>2013.919</ele>
        <time>2018-10-13T17:10:03Z</time>
      </trkpt>
      <trkpt lat="43.216943" lon="-4.970775">
        <ele>2014.578</ele>
        <time>2018-10-13T17:10:08Z</time>
      </trkpt>
      <trkpt lat="43.216999" lon="-4.970761">
        <ele>2013.924</ele>
        <time>2018-10-13T17:10:13Z</time>
      </trkpt>
      <trkpt lat="43.217043" lon="-4.970746">
        <ele>2013.872</ele>
        <time>2018-10-13T17:10:17Z</time>
      </trkpt>
      <trkpt lat="43.217089" lon="-4.970735">
        <ele>2012.529</ele>
        <time>2018-10-13T17:10:21Z</time>
      </trkpt>
      <trkpt lat="43.217135" lon="-4.970759">
        <ele>2011.200</ele>
        <time>2018-10-13T17:10:32Z</time>
      </trkpt>
      <trkpt lat="43.217181" lon="-4.970792">
        <ele>2008.820</ele>
        <time>2018-10-13T17:10:43Z</time>
      </trkpt>
      <trkpt lat="43.217236" lon="-4.970793">
        <ele>2008.008</ele>
        <time>2018-10-13T17:10:47Z</time>
      </trkpt>
      <trkpt lat="43.217283" lon="-4.970782">
        <ele>2008.384</ele>
        <time>2018-10-13T17:10:53Z</time>
      </trkpt>
      <trkpt lat="43.217334" lon="-4.970802">
        <ele>2007.051</ele>
        <time>2018-10-13T17:11:00Z</time>
      </trkpt>
      <trkpt lat="43.217381" lon="-4.970807">
        <ele>2006.870</ele>
        <time>2018-10-13T17:11:05Z</time>
      </trkpt>
      <trkpt lat="43.217421" lon="-4.970777">
        <ele>2005.527</ele>
        <time>2018-10-13T17:11:12Z</time>
      </trkpt>
      <trkpt lat="43.217467" lon="-4.970752">
        <ele>2004.288</ele>
        <time>2018-10-13T17:11:19Z</time>
      </trkpt>
      <trkpt lat="43.217519" lon="-4.970746">
        <ele>2003.497</ele>
        <time>2018-10-13T17:11:25Z</time>
      </trkpt>
      <trkpt lat="43.217563" lon="-4.970724">
        <ele>2002.893</ele>
        <time>2018-10-13T17:11:33Z</time>
      </trkpt>
      <trkpt lat="43.217602" lon="-4.970689">
        <ele>2003.981</ele>
        <time>2018-10-13T17:11:42Z</time>
      </trkpt>
      <trkpt lat="43.217627" lon="-4.970631">
        <ele>2003.899</ele>
        <time>2018-10-13T17:11:58Z</time>
      </trkpt>
      <trkpt lat="43.217669" lon="-4.970668">
        <ele>2002.707</ele>
        <time>2018-10-13T17:12:08Z</time>
      </trkpt>
      <trkpt lat="43.217692" lon="-4.970727">
        <ele>2001.627</ele>
        <time>2018-10-13T17:12:15Z</time>
      </trkpt>
      <trkpt lat="43.217688" lon="-4.970795">
        <ele>2000.908</ele>
        <time>2018-10-13T17:12:22Z</time>
      </trkpt>
      <trkpt lat="43.217708" lon="-4.970851">
        <ele>2000.741</ele>
        <time>2018-10-13T17:13:13Z</time>
      </trkpt>
      <trkpt lat="43.217729" lon="-4.970909">
        <ele>2000.378</ele>
        <time>2018-10-13T17:13:19Z</time>
      </trkpt>
      <trkpt lat="43.217771" lon="-4.970946">
        <ele>1999.517</ele>
        <time>2018-10-13T17:13:24Z</time>
      </trkpt>
      <trkpt lat="43.217815" lon="-4.970966">
        <ele>1999.424</ele>
        <time>2018-10-13T17:13:27Z</time>
      </trkpt>
      <trkpt lat="43.217851" lon="-4.971005">
        <ele>2000.155</ele>
        <time>2018-10-13T17:13:37Z</time>
      </trkpt>
      <trkpt lat="43.217871" lon="-4.971060">
        <ele>2000.764</ele>
        <time>2018-10-13T17:13:46Z</time>
      </trkpt>
      <trkpt lat="43.217892" lon="-4.971118">
        <ele>2001.860</ele>
        <time>2018-10-13T17:14:04Z</time>
      </trkpt>
      <trkpt lat="43.217906" lon="-4.971178">
        <ele>2003.198</ele>
        <time>2018-10-13T17:14:16Z</time>
      </trkpt>
      <trkpt lat="43.217917" lon="-4.971242">
        <ele>2005.111</ele>
        <time>2018-10-13T17:14:22Z</time>
      </trkpt>
      <trkpt lat="43.217928" lon="-4.971303">
        <ele>2006.821</ele>
        <time>2018-10-13T17:14:28Z</time>
      </trkpt>
      <trkpt lat="43.217969" lon="-4.971342">
        <ele>2004.503</ele>
        <time>2018-10-13T17:14:41Z</time>
      </trkpt>
      <trkpt lat="43.218011" lon="-4.971365">
        <ele>2004.008</ele>
        <time>2018-10-13T17:14:48Z</time>
      </trkpt>
      <trkpt lat="43.218049" lon="-4.971407">
        <ele>2001.493</ele>
        <time>2018-10-13T17:15:00Z</time>
      </trkpt>
      <trkpt lat="43.218087" lon="-4.971485">
        <ele>1999.580</ele>
        <time>2018-10-13T17:15:30Z</time>
      </trkpt>
      <trkpt lat="43.218126" lon="-4.971534">
        <ele>1998.029</ele>
        <time>2018-10-13T17:16:54Z</time>
      </trkpt>
      <trkpt lat="43.218080" lon="-4.971536">
        <ele>1998.036</ele>
        <time>2018-10-13T17:17:41Z</time>
      </trkpt>
      <trkpt lat="43.218111" lon="-4.971592">
        <ele>1998.387</ele>
        <time>2018-10-13T17:19:13Z</time>
      </trkpt>
      <trkpt lat="43.218119" lon="-4.971658">
        <ele>1997.636</ele>
        <time>2018-10-13T17:19:17Z</time>
      </trkpt>
      <trkpt lat="43.218075" lon="-4.971674">
        <ele>1997.062</ele>
        <time>2018-10-13T17:19:21Z</time>
      </trkpt>
      <trkpt lat="43.218029" lon="-4.971683">
        <ele>1996.620</ele>
        <time>2018-10-13T17:19:25Z</time>
      </trkpt>
      <trkpt lat="43.217987" lon="-4.971727">
        <ele>1995.938</ele>
        <time>2018-10-13T17:19:29Z</time>
      </trkpt>
      <trkpt lat="43.217950" lon="-4.971775">
        <ele>1994.770</ele>
        <time>2018-10-13T17:19:33Z</time>
      </trkpt>
      <trkpt lat="43.217925" lon="-4.971831">
        <ele>1993.517</ele>
        <time>2018-10-13T17:19:38Z</time>
      </trkpt>
      <trkpt lat="43.217881" lon="-4.971867">
        <ele>1991.808</ele>
        <time>2018-10-13T17:19:45Z</time>
      </trkpt>
      <trkpt lat="43.217854" lon="-4.971920">
        <ele>1990.865</ele>
        <time>2018-10-13T17:19:51Z</time>
      </trkpt>
      <trkpt lat="43.217883" lon="-4.971976">
        <ele>1989.792</ele>
        <time>2018-10-13T17:19:56Z</time>
      </trkpt>
      <trkpt lat="43.217884" lon="-4.972050">
        <ele>1988.761</ele>
        <time>2018-10-13T17:20:01Z</time>
      </trkpt>
      <trkpt lat="43.217875" lon="-4.972120">
        <ele>1988.428</ele>
        <time>2018-10-13T17:20:07Z</time>
      </trkpt>
      <trkpt lat="43.217884" lon="-4.972189">
        <ele>1988.429</ele>
        <time>2018-10-13T17:20:13Z</time>
      </trkpt>
      <trkpt lat="43.217931" lon="-4.972223">
        <ele>1988.028</ele>
        <time>2018-10-13T17:20:18Z</time>
      </trkpt>
      <trkpt lat="43.217977" lon="-4.972254">
        <ele>1987.864</ele>
        <time>2018-10-13T17:20:23Z</time>
      </trkpt>
      <trkpt lat="43.218006" lon="-4.972303">
        <ele>1987.832</ele>
        <time>2018-10-13T17:20:27Z</time>
      </trkpt>
      <trkpt lat="43.218010" lon="-4.972365">
        <ele>1987.613</ele>
        <time>2018-10-13T17:20:31Z</time>
      </trkpt>
      <trkpt lat="43.218018" lon="-4.972437">
        <ele>1987.243</ele>
        <time>2018-10-13T17:20:36Z</time>
      </trkpt>
      <trkpt lat="43.218037" lon="-4.972505">
        <ele>1986.707</ele>
        <time>2018-10-13T17:20:41Z</time>
      </trkpt>
      <trkpt lat="43.218041" lon="-4.972577">
        <ele>1986.608</ele>
        <time>2018-10-13T17:20:46Z</time>
      </trkpt>
      <trkpt lat="43.218053" lon="-4.972648">
        <ele>1986.433</ele>
        <time>2018-10-13T17:20:51Z</time>
      </trkpt>
      <trkpt lat="43.218071" lon="-4.972708">
        <ele>1985.920</ele>
        <time>2018-10-13T17:20:56Z</time>
      </trkpt>
      <trkpt lat="43.218072" lon="-4.972783">
        <ele>1985.589</ele>
        <time>2018-10-13T17:21:01Z</time>
      </trkpt>
      <trkpt lat="43.218077" lon="-4.972853">
        <ele>1984.776</ele>
        <time>2018-10-13T17:21:06Z</time>
      </trkpt>
      <trkpt lat="43.218089" lon="-4.972925">
        <ele>1983.857</ele>
        <time>2018-10-13T17:21:11Z</time>
      </trkpt>
      <trkpt lat="43.218096" lon="-4.972998">
        <ele>1983.526</ele>
        <time>2018-10-13T17:21:17Z</time>
      </trkpt>
      <trkpt lat="43.218111" lon="-4.973057">
        <ele>1983.712</ele>
        <time>2018-10-13T17:21:21Z</time>
      </trkpt>
      <trkpt lat="43.218124" lon="-4.973135">
        <ele>1983.890</ele>
        <time>2018-10-13T17:21:26Z</time>
      </trkpt>
      <trkpt lat="43.218141" lon="-4.973200">
        <ele>1983.443</ele>
        <time>2018-10-13T17:21:30Z</time>
      </trkpt>
      <trkpt lat="43.218182" lon="-4.973241">
        <ele>1982.664</ele>
        <time>2018-10-13T17:21:40Z</time>
      </trkpt>
      <trkpt lat="43.218205" lon="-4.973299">
        <ele>1982.110</ele>
        <time>2018-10-13T17:21:46Z</time>
      </trkpt>
      <trkpt lat="43.218235" lon="-4.973347">
        <ele>1981.208</ele>
        <time>2018-10-13T17:21:52Z</time>
      </trkpt>
      <trkpt lat="43.218271" lon="-4.973400">
        <ele>1980.326</ele>
        <time>2018-10-13T17:21:58Z</time>
      </trkpt>
      <trkpt lat="43.218304" lon="-4.973447">
        <ele>1979.043</ele>
        <time>2018-10-13T17:22:04Z</time>
      </trkpt>
      <trkpt lat="43.218350" lon="-4.973474">
        <ele>1978.312</ele>
        <time>2018-10-13T17:22:32Z</time>
      </trkpt>
      <trkpt lat="43.218369" lon="-4.973533">
        <ele>1978.559</ele>
        <time>2018-10-13T17:22:37Z</time>
      </trkpt>
      <trkpt lat="43.218389" lon="-4.973589">
        <ele>1978.320</ele>
        <time>2018-10-13T17:22:42Z</time>
      </trkpt>
      <trkpt lat="43.218413" lon="-4.973646">
        <ele>1977.289</ele>
        <time>2018-10-13T17:22:49Z</time>
      </trkpt>
      <trkpt lat="43.218453" lon="-4.973692">
        <ele>1975.575</ele>
        <time>2018-10-13T17:23:10Z</time>
      </trkpt>
      <trkpt lat="43.218488" lon="-4.973745">
        <ele>1974.523</ele>
        <time>2018-10-13T17:23:16Z</time>
      </trkpt>
      <trkpt lat="43.218526" lon="-4.973796">
        <ele>1973.878</ele>
        <time>2018-10-13T17:23:22Z</time>
      </trkpt>
      <trkpt lat="43.218563" lon="-4.973845">
        <ele>1973.033</ele>
        <time>2018-10-13T17:23:29Z</time>
      </trkpt>
      <trkpt lat="43.218590" lon="-4.973905">
        <ele>1972.626</ele>
        <time>2018-10-13T17:23:36Z</time>
      </trkpt>
      <trkpt lat="43.218622" lon="-4.973959">
        <ele>1971.708</ele>
        <time>2018-10-13T17:23:42Z</time>
      </trkpt>
      <trkpt lat="43.218661" lon="-4.974005">
        <ele>1970.979</ele>
        <time>2018-10-13T17:23:49Z</time>
      </trkpt>
      <trkpt lat="43.218705" lon="-4.973983">
        <ele>1969.526</ele>
        <time>2018-10-13T17:23:56Z</time>
      </trkpt>
      <trkpt lat="43.218719" lon="-4.973923">
        <ele>1968.585</ele>
        <time>2018-10-13T17:24:01Z</time>
      </trkpt>
      <trkpt lat="43.218739" lon="-4.973865">
        <ele>1967.622</ele>
        <time>2018-10-13T17:24:07Z</time>
      </trkpt>
      <trkpt lat="43.218745" lon="-4.973788">
        <ele>1967.413</ele>
        <time>2018-10-13T17:24:26Z</time>
      </trkpt>
      <trkpt lat="43.218749" lon="-4.973724">
        <ele>1966.552</ele>
        <time>2018-10-13T17:24:33Z</time>
      </trkpt>
      <trkpt lat="43.218760" lon="-4.973664">
        <ele>1965.628</ele>
        <time>2018-10-13T17:24:39Z</time>
      </trkpt>
      <trkpt lat="43.218759" lon="-4.973598">
        <ele>1965.066</ele>
        <time>2018-10-13T17:24:45Z</time>
      </trkpt>
      <trkpt lat="43.218747" lon="-4.973534">
        <ele>1964.096</ele>
        <time>2018-10-13T17:24:54Z</time>
      </trkpt>
      <trkpt lat="43.218803" lon="-4.973527">
        <ele>1962.731</ele>
        <time>2018-10-13T17:25:00Z</time>
      </trkpt>
      <trkpt lat="43.218846" lon="-4.973548">
        <ele>1961.924</ele>
        <time>2018-10-13T17:25:05Z</time>
      </trkpt>
      <trkpt lat="43.218880" lon="-4.973591">
        <ele>1960.808</ele>
        <time>2018-10-13T17:25:12Z</time>
      </trkpt>
      <trkpt lat="43.218905" lon="-4.973652">
        <ele>1960.161</ele>
        <time>2018-10-13T17:25:18Z</time>
      </trkpt>
      <trkpt lat="43.218931" lon="-4.973703">
        <ele>1959.178</ele>
        <time>2018-10-13T17:25:31Z</time>
      </trkpt>
      <trkpt lat="43.218940" lon="-4.973772">
        <ele>1958.047</ele>
        <time>2018-10-13T17:25:41Z</time>
      </trkpt>
      <trkpt lat="43.218981" lon="-4.973826">
        <ele>1957.574</ele>
        <time>2018-10-13T17:25:46Z</time>
      </trkpt>
      <trkpt lat="43.219006" lon="-4.973893">
        <ele>1957.085</ele>
        <time>2018-10-13T17:25:51Z</time>
      </trkpt>
      <trkpt lat="43.219025" lon="-4.973951">
        <ele>1956.834</ele>
        <time>2018-10-13T17:25:55Z</time>
      </trkpt>
      <trkpt lat="43.219044" lon="-4.974009">
        <ele>1956.470</ele>
        <time>2018-10-13T17:26:00Z</time>
      </trkpt>
      <trkpt lat="43.219056" lon="-4.974074">
        <ele>1955.328</ele>
        <time>2018-10-13T17:26:06Z</time>
      </trkpt>
      <trkpt lat="43.219041" lon="-4.974132">
        <ele>1954.879</ele>
        <time>2018-10-13T17:26:10Z</time>
      </trkpt>
      <trkpt lat="43.219052" lon="-4.974195">
        <ele>1953.705</ele>
        <time>2018-10-13T17:26:18Z</time>
      </trkpt>
      <trkpt lat="43.219054" lon="-4.974264">
        <ele>1953.625</ele>
        <time>2018-10-13T17:26:24Z</time>
      </trkpt>
      <trkpt lat="43.219101" lon="-4.974291">
        <ele>1954.108</ele>
        <time>2018-10-13T17:26:30Z</time>
      </trkpt>
      <trkpt lat="43.219139" lon="-4.974331">
        <ele>1953.779</ele>
        <time>2018-10-13T17:26:37Z</time>
      </trkpt>
      <trkpt lat="43.219151" lon="-4.974397">
        <ele>1952.356</ele>
        <time>2018-10-13T17:26:45Z</time>
      </trkpt>
      <trkpt lat="43.219168" lon="-4.974461">
        <ele>1951.165</ele>
        <time>2018-10-13T17:26:54Z</time>
      </trkpt>
      <trkpt lat="43.219214" lon="-4.974478">
        <ele>1950.072</ele>
        <time>2018-10-13T17:27:02Z</time>
      </trkpt>
      <trkpt lat="43.219268" lon="-4.974468">
        <ele>1949.363</ele>
        <time>2018-10-13T17:27:07Z</time>
      </trkpt>
      <trkpt lat="43.219321" lon="-4.974519">
        <ele>1949.512</ele>
        <time>2018-10-13T17:28:06Z</time>
      </trkpt>
      <trkpt lat="43.219362" lon="-4.974551">
        <ele>1948.728</ele>
        <time>2018-10-13T17:28:12Z</time>
      </trkpt>
      <trkpt lat="43.219408" lon="-4.974592">
        <ele>1947.656</ele>
        <time>2018-10-13T17:28:18Z</time>
      </trkpt>
      <trkpt lat="43.219442" lon="-4.974639">
        <ele>1946.984</ele>
        <time>2018-10-13T17:28:22Z</time>
      </trkpt>
      <trkpt lat="43.219489" lon="-4.974659">
        <ele>1946.907</ele>
        <time>2018-10-13T17:28:28Z</time>
      </trkpt>
      <trkpt lat="43.219531" lon="-4.974690">
        <ele>1947.617</ele>
        <time>2018-10-13T17:28:36Z</time>
      </trkpt>
      <trkpt lat="43.219570" lon="-4.974733">
        <ele>1947.508</ele>
        <time>2018-10-13T17:28:51Z</time>
      </trkpt>
      <trkpt lat="43.219611" lon="-4.974766">
        <ele>1947.330</ele>
        <time>2018-10-13T17:28:58Z</time>
      </trkpt>
      <trkpt lat="43.219655" lon="-4.974810">
        <ele>1947.817</ele>
        <time>2018-10-13T17:29:03Z</time>
      </trkpt>
      <trkpt lat="43.219682" lon="-4.974869">
        <ele>1948.246</ele>
        <time>2018-10-13T17:29:07Z</time>
      </trkpt>
      <trkpt lat="43.219705" lon="-4.974924">
        <ele>1948.473</ele>
        <time>2018-10-13T17:29:12Z</time>
      </trkpt>
      <trkpt lat="43.219740" lon="-4.974973">
        <ele>1948.534</ele>
        <time>2018-10-13T17:29:21Z</time>
      </trkpt>
      <trkpt lat="43.219740" lon="-4.975042">
        <ele>1948.933</ele>
        <time>2018-10-13T17:29:26Z</time>
      </trkpt>
      <trkpt lat="43.219741" lon="-4.975107">
        <ele>1949.249</ele>
        <time>2018-10-13T17:29:31Z</time>
      </trkpt>
      <trkpt lat="43.219743" lon="-4.975176">
        <ele>1949.267</ele>
        <time>2018-10-13T17:29:36Z</time>
      </trkpt>
      <trkpt lat="43.219765" lon="-4.975238">
        <ele>1948.953</ele>
        <time>2018-10-13T17:29:41Z</time>
      </trkpt>
      <trkpt lat="43.219826" lon="-4.975240">
        <ele>1949.604</ele>
        <time>2018-10-13T17:29:57Z</time>
      </trkpt>
      <trkpt lat="43.219874" lon="-4.975277">
        <ele>1950.514</ele>
        <time>2018-10-13T17:30:02Z</time>
      </trkpt>
      <trkpt lat="43.219933" lon="-4.975319">
        <ele>1951.408</ele>
        <time>2018-10-13T17:30:07Z</time>
      </trkpt>
      <trkpt lat="43.220023" lon="-4.975419">
        <ele>1952.047</ele>
        <time>2018-10-13T17:31:24Z</time>
      </trkpt>
      <trkpt lat="43.220068" lon="-4.975448">
        <ele>1952.234</ele>
        <time>2018-10-13T17:31:37Z</time>
      </trkpt>
      <trkpt lat="43.220094" lon="-4.975510">
        <ele>1952.043</ele>
        <time>2018-10-13T17:31:44Z</time>
      </trkpt>
      <trkpt lat="43.220117" lon="-4.975564">
        <ele>1952.070</ele>
        <time>2018-10-13T17:31:49Z</time>
      </trkpt>
      <trkpt lat="43.220144" lon="-4.975624">
        <ele>1952.391</ele>
        <time>2018-10-13T17:31:55Z</time>
      </trkpt>
      <trkpt lat="43.220154" lon="-4.975686">
        <ele>1951.420</ele>
        <time>2018-10-13T17:32:00Z</time>
      </trkpt>
      <trkpt lat="43.220169" lon="-4.975744">
        <ele>1950.666</ele>
        <time>2018-10-13T17:32:06Z</time>
      </trkpt>
      <trkpt lat="43.220199" lon="-4.975793">
        <ele>1950.314</ele>
        <time>2018-10-13T17:32:13Z</time>
      </trkpt>
      <trkpt lat="43.220182" lon="-4.975864">
        <ele>1949.554</ele>
        <time>2018-10-13T17:32:20Z</time>
      </trkpt>
      <trkpt lat="43.220155" lon="-4.975918">
        <ele>1948.756</ele>
        <time>2018-10-13T17:32:28Z</time>
      </trkpt>
      <trkpt lat="43.220142" lon="-4.975987">
        <ele>1947.411</ele>
        <time>2018-10-13T17:32:37Z</time>
      </trkpt>
      <trkpt lat="43.220140" lon="-4.976059">
        <ele>1945.508</ele>
        <time>2018-10-13T17:32:44Z</time>
      </trkpt>
      <trkpt lat="43.220141" lon="-4.976124">
        <ele>1944.447</ele>
        <time>2018-10-13T17:32:50Z</time>
      </trkpt>
      <trkpt lat="43.220135" lon="-4.976189">
        <ele>1943.384</ele>
        <time>2018-10-13T17:32:56Z</time>
      </trkpt>
      <trkpt lat="43.220120" lon="-4.976256">
        <ele>1942.713</ele>
        <time>2018-10-13T17:33:02Z</time>
      </trkpt>
      <trkpt lat="43.220102" lon="-4.976318">
        <ele>1941.580</ele>
        <time>2018-10-13T17:33:07Z</time>
      </trkpt>
      <trkpt lat="43.220106" lon="-4.976385">
        <ele>1940.691</ele>
        <time>2018-10-13T17:33:13Z</time>
      </trkpt>
      <trkpt lat="43.220137" lon="-4.976439">
        <ele>1940.110</ele>
        <time>2018-10-13T17:33:18Z</time>
      </trkpt>
      <trkpt lat="43.220149" lon="-4.976501">
        <ele>1940.026</ele>
        <time>2018-10-13T17:33:23Z</time>
      </trkpt>
      <trkpt lat="43.220151" lon="-4.976565">
        <ele>1940.074</ele>
        <time>2018-10-13T17:33:30Z</time>
      </trkpt>
      <trkpt lat="43.220156" lon="-4.976631">
        <ele>1940.242</ele>
        <time>2018-10-13T17:33:37Z</time>
      </trkpt>
      <trkpt lat="43.220192" lon="-4.976682">
        <ele>1940.922</ele>
        <time>2018-10-13T17:33:49Z</time>
      </trkpt>
      <trkpt lat="43.220214" lon="-4.976743">
        <ele>1941.914</ele>
        <time>2018-10-13T17:33:57Z</time>
      </trkpt>
      <trkpt lat="43.220216" lon="-4.976808">
        <ele>1941.408</ele>
        <time>2018-10-13T17:34:03Z</time>
      </trkpt>
      <trkpt lat="43.220230" lon="-4.976870">
        <ele>1940.976</ele>
        <time>2018-10-13T17:34:09Z</time>
      </trkpt>
      <trkpt lat="43.220254" lon="-4.976924">
        <ele>1940.263</ele>
        <time>2018-10-13T17:34:15Z</time>
      </trkpt>
      <trkpt lat="43.220301" lon="-4.976937">
        <ele>1938.362</ele>
        <time>2018-10-13T17:34:29Z</time>
      </trkpt>
      <trkpt lat="43.220298" lon="-4.977001">
        <ele>1937.479</ele>
        <time>2018-10-13T17:34:36Z</time>
      </trkpt>
      <trkpt lat="43.220271" lon="-4.977061">
        <ele>1936.280</ele>
        <time>2018-10-13T17:34:43Z</time>
      </trkpt>
      <trkpt lat="43.220330" lon="-4.977039">
        <ele>1934.839</ele>
        <time>2018-10-13T17:34:53Z</time>
      </trkpt>
      <trkpt lat="43.220378" lon="-4.977032">
        <ele>1934.135</ele>
        <time>2018-10-13T17:34:59Z</time>
      </trkpt>
      <trkpt lat="43.220426" lon="-4.977056">
        <ele>1933.393</ele>
        <time>2018-10-13T17:35:06Z</time>
      </trkpt>
      <trkpt lat="43.220465" lon="-4.977094">
        <ele>1932.497</ele>
        <time>2018-10-13T17:35:13Z</time>
      </trkpt>
      <trkpt lat="43.220443" lon="-4.977153">
        <ele>1931.823</ele>
        <time>2018-10-13T17:35:18Z</time>
      </trkpt>
      <trkpt lat="43.220406" lon="-4.977190">
        <ele>1931.425</ele>
        <time>2018-10-13T17:35:22Z</time>
      </trkpt>
      <trkpt lat="43.220369" lon="-4.977227">
        <ele>1931.208</ele>
        <time>2018-10-13T17:35:27Z</time>
      </trkpt>
      <trkpt lat="43.220332" lon="-4.977265">
        <ele>1930.691</ele>
        <time>2018-10-13T17:35:33Z</time>
      </trkpt>
      <trkpt lat="43.220308" lon="-4.977332">
        <ele>1927.648</ele>
        <time>2018-10-13T17:36:18Z</time>
      </trkpt>
      <trkpt lat="43.220287" lon="-4.977397">
        <ele>1927.397</ele>
        <time>2018-10-13T17:36:22Z</time>
      </trkpt>
      <trkpt lat="43.220253" lon="-4.977441">
        <ele>1927.274</ele>
        <time>2018-10-13T17:36:25Z</time>
      </trkpt>
      <trkpt lat="43.220224" lon="-4.977488">
        <ele>1927.225</ele>
        <time>2018-10-13T17:36:29Z</time>
      </trkpt>
      <trkpt lat="43.220193" lon="-4.977543">
        <ele>1927.114</ele>
        <time>2018-10-13T17:36:34Z</time>
      </trkpt>
      <trkpt lat="43.220174" lon="-4.977609">
        <ele>1926.280</ele>
        <time>2018-10-13T17:36:40Z</time>
      </trkpt>
      <trkpt lat="43.220148" lon="-4.977669">
        <ele>1925.588</ele>
        <time>2018-10-13T17:36:48Z</time>
      </trkpt>
      <trkpt lat="43.220131" lon="-4.977728">
        <ele>1924.655</ele>
        <time>2018-10-13T17:36:53Z</time>
      </trkpt>
      <trkpt lat="43.220106" lon="-4.977786">
        <ele>1923.207</ele>
        <time>2018-10-13T17:37:00Z</time>
      </trkpt>
      <trkpt lat="43.220079" lon="-4.977842">
        <ele>1922.417</ele>
        <time>2018-10-13T17:37:07Z</time>
      </trkpt>
      <trkpt lat="43.220077" lon="-4.977915">
        <ele>1920.608</ele>
        <time>2018-10-13T17:37:17Z</time>
      </trkpt>
      <trkpt lat="43.220120" lon="-4.977934">
        <ele>1918.747</ele>
        <time>2018-10-13T17:37:29Z</time>
      </trkpt>
      <trkpt lat="43.220163" lon="-4.977893">
        <ele>1917.974</ele>
        <time>2018-10-13T17:37:33Z</time>
      </trkpt>
      <trkpt lat="43.220201" lon="-4.977847">
        <ele>1917.423</ele>
        <time>2018-10-13T17:37:37Z</time>
      </trkpt>
      <trkpt lat="43.220241" lon="-4.977812">
        <ele>1916.890</ele>
        <time>2018-10-13T17:37:41Z</time>
      </trkpt>
      <trkpt lat="43.220293" lon="-4.977789">
        <ele>1916.081</ele>
        <time>2018-10-13T17:37:46Z</time>
      </trkpt>
      <trkpt lat="43.220334" lon="-4.977746">
        <ele>1914.510</ele>
        <time>2018-10-13T17:37:51Z</time>
      </trkpt>
      <trkpt lat="43.220368" lon="-4.977690">
        <ele>1913.186</ele>
        <time>2018-10-13T17:37:56Z</time>
      </trkpt>
      <trkpt lat="43.220407" lon="-4.977644">
        <ele>1912.034</ele>
        <time>2018-10-13T17:38:02Z</time>
      </trkpt>
      <trkpt lat="43.220445" lon="-4.977608">
        <ele>1911.177</ele>
        <time>2018-10-13T17:38:09Z</time>
      </trkpt>
      <trkpt lat="43.220494" lon="-4.977599">
        <ele>1909.861</ele>
        <time>2018-10-13T17:38:16Z</time>
      </trkpt>
      <trkpt lat="43.220536" lon="-4.977622">
        <ele>1907.727</ele>
        <time>2018-10-13T17:38:24Z</time>
      </trkpt>
      <trkpt lat="43.220581" lon="-4.977630">
        <ele>1905.708</ele>
        <time>2018-10-13T17:38:29Z</time>
      </trkpt>
      <trkpt lat="43.220612" lon="-4.977682">
        <ele>1903.589</ele>
        <time>2018-10-13T17:38:34Z</time>
      </trkpt>
      <trkpt lat="43.220657" lon="-4.977674">
        <ele>1902.226</ele>
        <time>2018-10-13T17:38:40Z</time>
      </trkpt>
      <trkpt lat="43.220711" lon="-4.977692">
        <ele>1900.375</ele>
        <time>2018-10-13T17:38:46Z</time>
      </trkpt>
      <trkpt lat="43.220738" lon="-4.977751">
        <ele>1898.982</ele>
        <time>2018-10-13T17:38:51Z</time>
      </trkpt>
      <trkpt lat="43.220755" lon="-4.977817">
        <ele>1897.963</ele>
        <time>2018-10-13T17:38:56Z</time>
      </trkpt>
      <trkpt lat="43.220792" lon="-4.977855">
        <ele>1896.712</ele>
        <time>2018-10-13T17:39:01Z</time>
      </trkpt>
      <trkpt lat="43.220830" lon="-4.977891">
        <ele>1895.568</ele>
        <time>2018-10-13T17:39:06Z</time>
      </trkpt>
      <trkpt lat="43.220875" lon="-4.977919">
        <ele>1894.156</ele>
        <time>2018-10-13T17:39:11Z</time>
      </trkpt>
      <trkpt lat="43.220929" lon="-4.977917">
        <ele>1892.521</ele>
        <time>2018-10-13T17:39:17Z</time>
      </trkpt>
      <trkpt lat="43.220975" lon="-4.977950">
        <ele>1892.241</ele>
        <time>2018-10-13T17:39:22Z</time>
      </trkpt>
      <trkpt lat="43.220974" lon="-4.978022">
        <ele>1892.505</ele>
        <time>2018-10-13T17:39:26Z</time>
      </trkpt>
      <trkpt lat="43.220957" lon="-4.978098">
        <ele>1892.308</ele>
        <time>2018-10-13T17:39:30Z</time>
      </trkpt>
      <trkpt lat="43.220982" lon="-4.978152">
        <ele>1891.514</ele>
        <time>2018-10-13T17:39:35Z</time>
      </trkpt>
      <trkpt lat="43.221027" lon="-4.978119">
        <ele>1891.741</ele>
        <time>2018-10-13T17:39:40Z</time>
      </trkpt>
      <trkpt lat="43.221058" lon="-4.978068">
        <ele>1893.670</ele>
        <time>2018-10-13T17:39:46Z</time>
      </trkpt>
      <trkpt lat="43.221094" lon="-4.978017">
        <ele>1895.347</ele>
        <time>2018-10-13T17:39:50Z</time>
      </trkpt>
      <trkpt lat="43.221144" lon="-4.978011">
        <ele>1896.168</ele>
        <time>2018-10-13T17:39:54Z</time>
      </trkpt>
      <trkpt lat="43.221169" lon="-4.978064">
        <ele>1896.057</ele>
        <time>2018-10-13T17:39:58Z</time>
      </trkpt>
      <trkpt lat="43.221169" lon="-4.978129">
        <ele>1895.493</ele>
        <time>2018-10-13T17:40:02Z</time>
      </trkpt>
      <trkpt lat="43.221180" lon="-4.978200">
        <ele>1894.951</ele>
        <time>2018-10-13T17:40:07Z</time>
      </trkpt>
      <trkpt lat="43.221187" lon="-4.978277">
        <ele>1895.418</ele>
        <time>2018-10-13T17:40:12Z</time>
      </trkpt>
      <trkpt lat="43.221208" lon="-4.978347">
        <ele>1895.798</ele>
        <time>2018-10-13T17:40:17Z</time>
      </trkpt>
      <trkpt lat="43.221213" lon="-4.978408">
        <ele>1896.617</ele>
        <time>2018-10-13T17:40:22Z</time>
      </trkpt>
      <trkpt lat="43.221184" lon="-4.978459">
        <ele>1897.108</ele>
        <time>2018-10-13T17:40:28Z</time>
      </trkpt>
      <trkpt lat="43.221154" lon="-4.978512">
        <ele>1898.483</ele>
        <time>2018-10-13T17:40:33Z</time>
      </trkpt>
      <trkpt lat="43.221123" lon="-4.978564">
        <ele>1900.070</ele>
        <time>2018-10-13T17:40:40Z</time>
      </trkpt>
      <trkpt lat="43.221098" lon="-4.978618">
        <ele>1901.529</ele>
        <time>2018-10-13T17:40:45Z</time>
      </trkpt>
      <trkpt lat="43.221133" lon="-4.978676">
        <ele>1903.256</ele>
        <time>2018-10-13T17:40:53Z</time>
      </trkpt>
      <trkpt lat="43.221146" lon="-4.978737">
        <ele>1906.317</ele>
        <time>2018-10-13T17:42:33Z</time>
      </trkpt>
      <trkpt lat="43.221130" lon="-4.978803">
        <ele>1906.886</ele>
        <time>2018-10-13T17:42:40Z</time>
      </trkpt>
      <trkpt lat="43.221117" lon="-4.978864">
        <ele>1907.342</ele>
        <time>2018-10-13T17:42:47Z</time>
      </trkpt>
      <trkpt lat="43.221123" lon="-4.978936">
        <ele>1907.680</ele>
        <time>2018-10-13T17:42:54Z</time>
      </trkpt>
      <trkpt lat="43.221131" lon="-4.979003">
        <ele>1907.992</ele>
        <time>2018-10-13T17:43:00Z</time>
      </trkpt>
      <trkpt lat="43.221131" lon="-4.979072">
        <ele>1908.473</ele>
        <time>2018-10-13T17:43:07Z</time>
      </trkpt>
      <trkpt lat="43.221151" lon="-4.979136">
        <ele>1908.720</ele>
        <time>2018-10-13T17:43:12Z</time>
      </trkpt>
      <trkpt lat="43.221172" lon="-4.979201">
        <ele>1909.108</ele>
        <time>2018-10-13T17:43:18Z</time>
      </trkpt>
      <trkpt lat="43.221174" lon="-4.979273">
        <ele>1909.581</ele>
        <time>2018-10-13T17:43:25Z</time>
      </trkpt>
      <trkpt lat="43.221158" lon="-4.979332">
        <ele>1910.368</ele>
        <time>2018-10-13T17:43:34Z</time>
      </trkpt>
      <trkpt lat="43.221118" lon="-4.979368">
        <ele>1911.327</ele>
        <time>2018-10-13T17:43:44Z</time>
      </trkpt>
      <trkpt lat="43.221111" lon="-4.979431">
        <ele>1911.354</ele>
        <time>2018-10-13T17:43:48Z</time>
      </trkpt>
      <trkpt lat="43.221126" lon="-4.979496">
        <ele>1910.555</ele>
        <time>2018-10-13T17:44:01Z</time>
      </trkpt>
      <trkpt lat="43.221145" lon="-4.979557">
        <ele>1910.624</ele>
        <time>2018-10-13T17:44:05Z</time>
      </trkpt>
      <trkpt lat="43.221163" lon="-4.979622">
        <ele>1910.620</ele>
        <time>2018-10-13T17:44:10Z</time>
      </trkpt>
      <trkpt lat="43.221175" lon="-4.979685">
        <ele>1910.718</ele>
        <time>2018-10-13T17:44:15Z</time>
      </trkpt>
      <trkpt lat="43.221196" lon="-4.979744">
        <ele>1911.056</ele>
        <time>2018-10-13T17:44:22Z</time>
      </trkpt>
      <trkpt lat="43.221230" lon="-4.979785">
        <ele>1910.559</ele>
        <time>2018-10-13T17:44:31Z</time>
      </trkpt>
      <trkpt lat="43.221259" lon="-4.979832">
        <ele>1909.714</ele>
        <time>2018-10-13T17:44:37Z</time>
      </trkpt>
      <trkpt lat="43.221291" lon="-4.979881">
        <ele>1909.208</ele>
        <time>2018-10-13T17:44:42Z</time>
      </trkpt>
      <trkpt lat="43.221325" lon="-4.979926">
        <ele>1908.327</ele>
        <time>2018-10-13T17:44:48Z</time>
      </trkpt>
      <trkpt lat="43.221372" lon="-4.979932">
        <ele>1906.544</ele>
        <time>2018-10-13T17:44:56Z</time>
      </trkpt>
      <trkpt lat="43.221394" lon="-4.979988">
        <ele>1905.453</ele>
        <time>2018-10-13T17:45:02Z</time>
      </trkpt>
      <trkpt lat="43.221425" lon="-4.980047">
        <ele>1904.280</ele>
        <time>2018-10-13T17:45:08Z</time>
      </trkpt>
      <trkpt lat="43.221443" lon="-4.980105">
        <ele>1903.961</ele>
        <time>2018-10-13T17:45:13Z</time>
      </trkpt>
      <trkpt lat="43.221431" lon="-4.980174">
        <ele>1903.990</ele>
        <time>2018-10-13T17:45:18Z</time>
      </trkpt>
      <trkpt lat="43.221436" lon="-4.980248">
        <ele>1904.276</ele>
        <time>2018-10-13T17:45:24Z</time>
      </trkpt>
      <trkpt lat="43.221469" lon="-4.980297">
        <ele>1904.294</ele>
        <time>2018-10-13T17:45:29Z</time>
      </trkpt>
      <trkpt lat="43.221506" lon="-4.980342">
        <ele>1903.857</ele>
        <time>2018-10-13T17:45:34Z</time>
      </trkpt>
      <trkpt lat="43.221536" lon="-4.980396">
        <ele>1903.500</ele>
        <time>2018-10-13T17:45:39Z</time>
      </trkpt>
      <trkpt lat="43.221556" lon="-4.980457">
        <ele>1903.520</ele>
        <time>2018-10-13T17:45:44Z</time>
      </trkpt>
      <trkpt lat="43.221582" lon="-4.980515">
        <ele>1903.708</ele>
        <time>2018-10-13T17:45:50Z</time>
      </trkpt>
      <trkpt lat="43.221612" lon="-4.980565">
        <ele>1903.747</ele>
        <time>2018-10-13T17:45:56Z</time>
      </trkpt>
      <trkpt lat="43.221658" lon="-4.980585">
        <ele>1903.264</ele>
        <time>2018-10-13T17:46:06Z</time>
      </trkpt>
      <trkpt lat="43.221693" lon="-4.980637">
        <ele>1903.343</ele>
        <time>2018-10-13T17:46:12Z</time>
      </trkpt>
      <trkpt lat="43.221734" lon="-4.980675">
        <ele>1903.580</ele>
        <time>2018-10-13T17:46:19Z</time>
      </trkpt>
      <trkpt lat="43.221777" lon="-4.980714">
        <ele>1903.021</ele>
        <time>2018-10-13T17:46:26Z</time>
      </trkpt>
      <trkpt lat="43.221819" lon="-4.980737">
        <ele>1903.410</ele>
        <time>2018-10-13T17:46:32Z</time>
      </trkpt>
      <trkpt lat="43.221865" lon="-4.980743">
        <ele>1903.756</ele>
        <time>2018-10-13T17:46:39Z</time>
      </trkpt>
      <trkpt lat="43.221916" lon="-4.980745">
        <ele>1903.514</ele>
        <time>2018-10-13T17:46:46Z</time>
      </trkpt>
      <trkpt lat="43.221962" lon="-4.980754">
        <ele>1904.058</ele>
        <time>2018-10-13T17:46:52Z</time>
      </trkpt>
      <trkpt lat="43.222011" lon="-4.980760">
        <ele>1904.952</ele>
        <time>2018-10-13T17:46:59Z</time>
      </trkpt>
      <trkpt lat="43.222056" lon="-4.980773">
        <ele>1905.117</ele>
        <time>2018-10-13T17:47:04Z</time>
      </trkpt>
      <trkpt lat="43.222102" lon="-4.980799">
        <ele>1905.008</ele>
        <time>2018-10-13T17:47:09Z</time>
      </trkpt>
      <trkpt lat="43.222144" lon="-4.980822">
        <ele>1905.167</ele>
        <time>2018-10-13T17:47:13Z</time>
      </trkpt>
      <trkpt lat="43.222190" lon="-4.980845">
        <ele>1905.194</ele>
        <time>2018-10-13T17:47:19Z</time>
      </trkpt>
      <trkpt lat="43.222235" lon="-4.980875">
        <ele>1905.423</ele>
        <time>2018-10-13T17:47:25Z</time>
      </trkpt>
      <trkpt lat="43.222283" lon="-4.980881">
        <ele>1905.620</ele>
        <time>2018-10-13T17:47:32Z</time>
      </trkpt>
      <trkpt lat="43.222337" lon="-4.980886">
        <ele>1905.981</ele>
        <time>2018-10-13T17:47:37Z</time>
      </trkpt>
      <trkpt lat="43.222383" lon="-4.980922">
        <ele>1906.220</ele>
        <time>2018-10-13T17:47:43Z</time>
      </trkpt>
      <trkpt lat="43.222432" lon="-4.980942">
        <ele>1906.186</ele>
        <time>2018-10-13T17:47:48Z</time>
      </trkpt>
      <trkpt lat="43.222477" lon="-4.980966">
        <ele>1905.584</ele>
        <time>2018-10-13T17:47:55Z</time>
      </trkpt>
      <trkpt lat="43.222526" lon="-4.980981">
        <ele>1905.582</ele>
        <time>2018-10-13T17:48:00Z</time>
      </trkpt>
      <trkpt lat="43.222575" lon="-4.981005">
        <ele>1905.143</ele>
        <time>2018-10-13T17:48:06Z</time>
      </trkpt>
      <trkpt lat="43.222621" lon="-4.981004">
        <ele>1903.617</ele>
        <time>2018-10-13T17:48:15Z</time>
      </trkpt>
      <trkpt lat="43.222667" lon="-4.981010">
        <ele>1903.308</ele>
        <time>2018-10-13T17:48:21Z</time>
      </trkpt>
      <trkpt lat="43.222712" lon="-4.981004">
        <ele>1903.320</ele>
        <time>2018-10-13T17:48:27Z</time>
      </trkpt>
      <trkpt lat="43.222759" lon="-4.981009">
        <ele>1902.837</ele>
        <time>2018-10-13T17:48:33Z</time>
      </trkpt>
      <trkpt lat="43.222810" lon="-4.981035">
        <ele>1902.186</ele>
        <time>2018-10-13T17:48:41Z</time>
      </trkpt>
      <trkpt lat="43.222857" lon="-4.981028">
        <ele>1901.633</ele>
        <time>2018-10-13T17:48:47Z</time>
      </trkpt>
      <trkpt lat="43.222904" lon="-4.981055">
        <ele>1901.474</ele>
        <time>2018-10-13T17:48:52Z</time>
      </trkpt>
      <trkpt lat="43.222952" lon="-4.981069">
        <ele>1901.173</ele>
        <time>2018-10-13T17:48:58Z</time>
      </trkpt>
      <trkpt lat="43.223000" lon="-4.981083">
        <ele>1899.979</ele>
        <time>2018-10-13T17:49:05Z</time>
      </trkpt>
      <trkpt lat="43.223042" lon="-4.981111">
        <ele>1899.257</ele>
        <time>2018-10-13T17:49:10Z</time>
      </trkpt>
      <trkpt lat="43.223092" lon="-4.981099">
        <ele>1898.134</ele>
        <time>2018-10-13T17:49:17Z</time>
      </trkpt>
      <trkpt lat="43.223140" lon="-4.981112">
        <ele>1896.955</ele>
        <time>2018-10-13T17:49:24Z</time>
      </trkpt>
      <trkpt lat="43.223190" lon="-4.981092">
        <ele>1896.110</ele>
        <time>2018-10-13T17:49:32Z</time>
      </trkpt>
      <trkpt lat="43.223236" lon="-4.981105">
        <ele>1894.808</ele>
        <time>2018-10-13T17:49:41Z</time>
      </trkpt>
      <trkpt lat="43.223272" lon="-4.981152">
        <ele>1893.925</ele>
        <time>2018-10-13T17:50:25Z</time>
      </trkpt>
      <trkpt lat="43.223345" lon="-4.981159">
        <ele>1888.192</ele>
        <time>2018-10-13T17:51:04Z</time>
      </trkpt>
      <trkpt lat="43.223390" lon="-4.981182">
        <ele>1886.931</ele>
        <time>2018-10-13T17:51:10Z</time>
      </trkpt>
      <trkpt lat="43.223425" lon="-4.981222">
        <ele>1885.848</ele>
        <time>2018-10-13T17:51:17Z</time>
      </trkpt>
      <trkpt lat="43.223465" lon="-4.981255">
        <ele>1884.959</ele>
        <time>2018-10-13T17:51:23Z</time>
      </trkpt>
      <trkpt lat="43.223511" lon="-4.981273">
        <ele>1884.198</ele>
        <time>2018-10-13T17:51:28Z</time>
      </trkpt>
      <trkpt lat="43.223547" lon="-4.981313">
        <ele>1883.264</ele>
        <time>2018-10-13T17:51:34Z</time>
      </trkpt>
      <trkpt lat="43.223583" lon="-4.981353">
        <ele>1881.952</ele>
        <time>2018-10-13T17:51:42Z</time>
      </trkpt>
      <trkpt lat="43.223624" lon="-4.981393">
        <ele>1880.544</ele>
        <time>2018-10-13T17:51:52Z</time>
      </trkpt>
      <trkpt lat="43.223656" lon="-4.981439">
        <ele>1879.705</ele>
        <time>2018-10-13T17:51:57Z</time>
      </trkpt>
      <trkpt lat="43.223686" lon="-4.981488">
        <ele>1878.315</ele>
        <time>2018-10-13T17:52:04Z</time>
      </trkpt>
      <trkpt lat="43.223725" lon="-4.981530">
        <ele>1876.908</ele>
        <time>2018-10-13T17:52:13Z</time>
      </trkpt>
      <trkpt lat="43.223759" lon="-4.981574">
        <ele>1875.956</ele>
        <time>2018-10-13T17:52:19Z</time>
      </trkpt>
      <trkpt lat="43.223800" lon="-4.981615">
        <ele>1875.043</ele>
        <time>2018-10-13T17:52:26Z</time>
      </trkpt>
      <trkpt lat="43.223839" lon="-4.981656">
        <ele>1874.342</ele>
        <time>2018-10-13T17:52:32Z</time>
      </trkpt>
      <trkpt lat="43.223877" lon="-4.981693">
        <ele>1874.629</ele>
        <time>2018-10-13T17:52:37Z</time>
      </trkpt>
      <trkpt lat="43.223893" lon="-4.981751">
        <ele>1874.130</ele>
        <time>2018-10-13T17:53:13Z</time>
      </trkpt>
      <trkpt lat="43.223936" lon="-4.981778">
        <ele>1872.879</ele>
        <time>2018-10-13T17:53:20Z</time>
      </trkpt>
      <trkpt lat="43.223939" lon="-4.981847">
        <ele>1871.715</ele>
        <time>2018-10-13T17:53:28Z</time>
      </trkpt>
      <trkpt lat="43.223913" lon="-4.981905">
        <ele>1870.823</ele>
        <time>2018-10-13T17:53:34Z</time>
      </trkpt>
      <trkpt lat="43.223924" lon="-4.981971">
        <ele>1869.529</ele>
        <time>2018-10-13T17:53:40Z</time>
      </trkpt>
      <trkpt lat="43.223971" lon="-4.981933">
        <ele>1868.000</ele>
        <time>2018-10-13T17:53:47Z</time>
      </trkpt>
      <trkpt lat="43.223989" lon="-4.981871">
        <ele>1867.320</ele>
        <time>2018-10-13T17:53:51Z</time>
      </trkpt>
      <trkpt lat="43.224005" lon="-4.981804">
        <ele>1866.208</ele>
        <time>2018-10-13T17:53:58Z</time>
      </trkpt>
      <trkpt lat="43.224051" lon="-4.981822">
        <ele>1864.454</ele>
        <time>2018-10-13T17:54:15Z</time>
      </trkpt>
      <trkpt lat="43.224081" lon="-4.981867">
        <ele>1863.191</ele>
        <time>2018-10-13T17:54:21Z</time>
      </trkpt>
      <trkpt lat="43.224127" lon="-4.981881">
        <ele>1860.280</ele>
        <time>2018-10-13T17:54:35Z</time>
      </trkpt>
      <trkpt lat="43.224174" lon="-4.981840">
        <ele>1859.317</ele>
        <time>2018-10-13T17:54:43Z</time>
      </trkpt>
      <trkpt lat="43.224234" lon="-4.981820">
        <ele>1857.958</ele>
        <time>2018-10-13T17:54:49Z</time>
      </trkpt>
      <trkpt lat="43.224259" lon="-4.981872">
        <ele>1858.917</ele>
        <time>2018-10-13T17:54:53Z</time>
      </trkpt>
      <trkpt lat="43.224268" lon="-4.981938">
        <ele>1858.623</ele>
        <time>2018-10-13T17:54:58Z</time>
      </trkpt>
      <trkpt lat="43.224264" lon="-4.982008">
        <ele>1857.111</ele>
        <time>2018-10-13T17:55:04Z</time>
      </trkpt>
      <trkpt lat="43.224238" lon="-4.982070">
        <ele>1855.865</ele>
        <time>2018-10-13T17:55:12Z</time>
      </trkpt>
      <trkpt lat="43.224279" lon="-4.982096">
        <ele>1854.468</ele>
        <time>2018-10-13T17:55:30Z</time>
      </trkpt>
      <trkpt lat="43.224255" lon="-4.982150">
        <ele>1852.814</ele>
        <time>2018-10-13T17:55:50Z</time>
      </trkpt>
      <trkpt lat="43.224287" lon="-4.982195">
        <ele>1850.808</ele>
        <time>2018-10-13T17:56:01Z</time>
      </trkpt>
      <trkpt lat="43.224288" lon="-4.982264">
        <ele>1847.368</ele>
        <time>2018-10-13T17:56:30Z</time>
      </trkpt>
      <trkpt lat="43.224263" lon="-4.982318">
        <ele>1846.195</ele>
        <time>2018-10-13T17:56:38Z</time>
      </trkpt>
      <trkpt lat="43.224302" lon="-4.982356">
        <ele>1841.924</ele>
        <time>2018-10-13T17:57:19Z</time>
      </trkpt>
      <trkpt lat="43.224270" lon="-4.982401">
        <ele>1840.751</ele>
        <time>2018-10-13T17:57:27Z</time>
      </trkpt>
      <trkpt lat="43.224227" lon="-4.982430">
        <ele>1839.742</ele>
        <time>2018-10-13T17:57:34Z</time>
      </trkpt>
      <trkpt lat="43.224295" lon="-4.982462">
        <ele>1837.321</ele>
        <time>2018-10-13T17:58:02Z</time>
      </trkpt>
      <trkpt lat="43.224332" lon="-4.982506">
        <ele>1833.787</ele>
        <time>2018-10-13T17:58:30Z</time>
      </trkpt>
      <trkpt lat="43.224339" lon="-4.982567">
        <ele>1833.555</ele>
        <time>2018-10-13T17:58:44Z</time>
      </trkpt>
      <trkpt lat="43.224319" lon="-4.982630">
        <ele>1833.254</ele>
        <time>2018-10-13T17:58:56Z</time>
      </trkpt>
      <trkpt lat="43.224345" lon="-4.982685">
        <ele>1831.556</ele>
        <time>2018-10-13T17:59:47Z</time>
      </trkpt>
      <trkpt lat="43.224305" lon="-4.982714">
        <ele>1829.311</ele>
        <time>2018-10-13T18:00:03Z</time>
      </trkpt>
      <trkpt lat="43.224342" lon="-4.982756">
        <ele>1828.408</ele>
        <time>2018-10-13T18:00:17Z</time>
      </trkpt>
      <trkpt lat="43.224384" lon="-4.982782">
        <ele>1824.457</ele>
        <time>2018-10-13T18:00:52Z</time>
      </trkpt>
      <trkpt lat="43.224419" lon="-4.982826">
        <ele>1820.564</ele>
        <time>2018-10-13T18:01:36Z</time>
      </trkpt>
      <trkpt lat="43.224396" lon="-4.982880">
        <ele>1817.913</ele>
        <time>2018-10-13T18:01:58Z</time>
      </trkpt>
      <trkpt lat="43.224355" lon="-4.982919">
        <ele>1815.610</ele>
        <time>2018-10-13T18:02:18Z</time>
      </trkpt>
      <trkpt lat="43.224386" lon="-4.982969">
        <ele>1814.421</ele>
        <time>2018-10-13T18:02:36Z</time>
      </trkpt>
      <trkpt lat="43.224430" lon="-4.982983">
        <ele>1813.010</ele>
        <time>2018-10-13T18:02:47Z</time>
      </trkpt>
      <trkpt lat="43.224394" lon="-4.983023">
        <ele>1811.466</ele>
        <time>2018-10-13T18:02:59Z</time>
      </trkpt>
      <trkpt lat="43.224361" lon="-4.983066">
        <ele>1810.694</ele>
        <time>2018-10-13T18:03:10Z</time>
      </trkpt>
      <trkpt lat="43.224314" lon="-4.983098">
        <ele>1809.486</ele>
        <time>2018-10-13T18:03:24Z</time>
      </trkpt>
      <trkpt lat="43.224272" lon="-4.983125">
        <ele>1807.460</ele>
        <time>2018-10-13T18:03:41Z</time>
      </trkpt>
      <trkpt lat="43.224266" lon="-4.983191">
        <ele>1805.826</ele>
        <time>2018-10-13T18:03:56Z</time>
      </trkpt>
      <trkpt lat="43.224259" lon="-4.983258">
        <ele>1804.908</ele>
        <time>2018-10-13T18:04:10Z</time>
      </trkpt>
      <trkpt lat="43.224295" lon="-4.983349">
        <ele>1801.350</ele>
        <time>2018-10-13T18:04:49Z</time>
      </trkpt>
      <trkpt lat="43.224265" lon="-4.983398">
        <ele>1800.697</ele>
        <time>2018-10-13T18:04:54Z</time>
      </trkpt>
      <trkpt lat="43.224229" lon="-4.983449">
        <ele>1799.996</ele>
        <time>2018-10-13T18:05:01Z</time>
      </trkpt>
      <trkpt lat="43.224184" lon="-4.983472">
        <ele>1798.473</ele>
        <time>2018-10-13T18:05:17Z</time>
      </trkpt>
      <trkpt lat="43.224198" lon="-4.983533">
        <ele>1797.414</ele>
        <time>2018-10-13T18:05:28Z</time>
      </trkpt>
      <trkpt lat="43.224242" lon="-4.983555">
        <ele>1796.563</ele>
        <time>2018-10-13T18:05:40Z</time>
      </trkpt>
      <trkpt lat="43.224286" lon="-4.983544">
        <ele>1795.669</ele>
        <time>2018-10-13T18:05:54Z</time>
      </trkpt>
      <trkpt lat="43.224325" lon="-4.983582">
        <ele>1795.097</ele>
        <time>2018-10-13T18:06:00Z</time>
      </trkpt>
      <trkpt lat="43.224296" lon="-4.983635">
        <ele>1793.966</ele>
        <time>2018-10-13T18:06:09Z</time>
      </trkpt>
      <trkpt lat="43.224254" lon="-4.983675">
        <ele>1792.529</ele>
        <time>2018-10-13T18:06:20Z</time>
      </trkpt>
      <trkpt lat="43.224211" lon="-4.983703">
        <ele>1791.721</ele>
        <time>2018-10-13T18:06:26Z</time>
      </trkpt>
      <trkpt lat="43.224216" lon="-4.983765">
        <ele>1789.708</ele>
        <time>2018-10-13T18:06:38Z</time>
      </trkpt>
      <trkpt lat="43.224241" lon="-4.983819">
        <ele>1788.358</ele>
        <time>2018-10-13T18:06:46Z</time>
      </trkpt>
      <trkpt lat="43.224279" lon="-4.983863">
        <ele>1787.265</ele>
        <time>2018-10-13T18:06:52Z</time>
      </trkpt>
      <trkpt lat="43.224268" lon="-4.983927">
        <ele>1786.244</ele>
        <time>2018-10-13T18:06:59Z</time>
      </trkpt>
      <trkpt lat="43.224228" lon="-4.983967">
        <ele>1785.041</ele>
        <time>2018-10-13T18:07:07Z</time>
      </trkpt>
      <trkpt lat="43.224178" lon="-4.983996">
        <ele>1784.792</ele>
        <time>2018-10-13T18:07:19Z</time>
      </trkpt>
      <trkpt lat="43.224132" lon="-4.984048">
        <ele>1784.861</ele>
        <time>2018-10-13T18:07:25Z</time>
      </trkpt>
      <trkpt lat="43.224094" lon="-4.984089">
        <ele>1784.797</ele>
        <time>2018-10-13T18:07:30Z</time>
      </trkpt>
      <trkpt lat="43.224071" lon="-4.984146">
        <ele>1783.865</ele>
        <time>2018-10-13T18:07:36Z</time>
      </trkpt>
      <trkpt lat="43.224032" lon="-4.984186">
        <ele>1783.167</ele>
        <time>2018-10-13T18:07:42Z</time>
      </trkpt>
      <trkpt lat="43.223997" lon="-4.984234">
        <ele>1782.181</ele>
        <time>2018-10-13T18:07:47Z</time>
      </trkpt>
      <trkpt lat="43.223956" lon="-4.984262">
        <ele>1781.519</ele>
        <time>2018-10-13T18:07:57Z</time>
      </trkpt>
      <trkpt lat="43.223911" lon="-4.984271">
        <ele>1780.008</ele>
        <time>2018-10-13T18:08:08Z</time>
      </trkpt>
      <trkpt lat="43.223864" lon="-4.984278">
        <ele>1778.638</ele>
        <time>2018-10-13T18:08:18Z</time>
      </trkpt>
      <trkpt lat="43.223818" lon="-4.984274">
        <ele>1778.285</ele>
        <time>2018-10-13T18:08:21Z</time>
      </trkpt>
      <trkpt lat="43.223765" lon="-4.984273">
        <ele>1777.734</ele>
        <time>2018-10-13T18:08:25Z</time>
      </trkpt>
      <trkpt lat="43.223714" lon="-4.984277">
        <ele>1777.151</ele>
        <time>2018-10-13T18:08:30Z</time>
      </trkpt>
      <trkpt lat="43.223681" lon="-4.984342">
        <ele>1775.152</ele>
        <time>2018-10-13T18:09:06Z</time>
      </trkpt>
      <trkpt lat="43.223672" lon="-4.984405">
        <ele>1771.711</ele>
        <time>2018-10-13T18:09:50Z</time>
      </trkpt>
      <trkpt lat="43.223636" lon="-4.984486">
        <ele>1766.417</ele>
        <time>2018-10-13T18:10:47Z</time>
      </trkpt>
      <trkpt lat="43.223590" lon="-4.984518">
        <ele>1765.495</ele>
        <time>2018-10-13T18:10:53Z</time>
      </trkpt>
      <trkpt lat="43.223546" lon="-4.984541">
        <ele>1764.791</ele>
        <time>2018-10-13T18:10:57Z</time>
      </trkpt>
      <trkpt lat="43.223504" lon="-4.984563">
        <ele>1764.581</ele>
        <time>2018-10-13T18:11:02Z</time>
      </trkpt>
      <trkpt lat="43.223465" lon="-4.984605">
        <ele>1763.919</ele>
        <time>2018-10-13T18:11:09Z</time>
      </trkpt>
      <trkpt lat="43.223426" lon="-4.984638">
        <ele>1763.008</ele>
        <time>2018-10-13T18:11:20Z</time>
      </trkpt>
      <trkpt lat="43.223394" lon="-4.984691">
        <ele>1762.231</ele>
        <time>2018-10-13T18:11:26Z</time>
      </trkpt>
      <trkpt lat="43.223364" lon="-4.984743">
        <ele>1761.738</ele>
        <time>2018-10-13T18:11:31Z</time>
      </trkpt>
      <trkpt lat="43.223337" lon="-4.984804">
        <ele>1760.397</ele>
        <time>2018-10-13T18:11:40Z</time>
      </trkpt>
      <trkpt lat="43.223299" lon="-4.984847">
        <ele>1759.954</ele>
        <time>2018-10-13T18:11:46Z</time>
      </trkpt>
      <trkpt lat="43.223254" lon="-4.984871">
        <ele>1759.645</ele>
        <time>2018-10-13T18:11:56Z</time>
      </trkpt>
      <trkpt lat="43.223261" lon="-4.984940">
        <ele>1757.464</ele>
        <time>2018-10-13T18:12:11Z</time>
      </trkpt>
      <trkpt lat="43.223256" lon="-4.985001">
        <ele>1757.790</ele>
        <time>2018-10-13T18:12:15Z</time>
      </trkpt>
      <trkpt lat="43.223266" lon="-4.985066">
        <ele>1756.458</ele>
        <time>2018-10-13T18:12:23Z</time>
      </trkpt>
      <trkpt lat="43.223262" lon="-4.985133">
        <ele>1754.863</ele>
        <time>2018-10-13T18:12:31Z</time>
      </trkpt>
      <trkpt lat="43.223255" lon="-4.985195">
        <ele>1753.844</ele>
        <time>2018-10-13T18:12:38Z</time>
      </trkpt>
      <trkpt lat="43.223252" lon="-4.985261">
        <ele>1752.918</ele>
        <time>2018-10-13T18:12:44Z</time>
      </trkpt>
      <trkpt lat="43.223280" lon="-4.985316">
        <ele>1752.408</ele>
        <time>2018-10-13T18:13:03Z</time>
      </trkpt>
      <trkpt lat="43.223302" lon="-4.985259">
        <ele>1751.678</ele>
        <time>2018-10-13T18:13:09Z</time>
      </trkpt>
      <trkpt lat="43.223347" lon="-4.985242">
        <ele>1751.215</ele>
        <time>2018-10-13T18:13:25Z</time>
      </trkpt>
      <trkpt lat="43.223384" lon="-4.985197">
        <ele>1750.564</ele>
        <time>2018-10-13T18:13:29Z</time>
      </trkpt>
      <trkpt lat="43.223421" lon="-4.985155">
        <ele>1749.711</ele>
        <time>2018-10-13T18:13:34Z</time>
      </trkpt>
      <trkpt lat="43.223456" lon="-4.985111">
        <ele>1749.452</ele>
        <time>2018-10-13T18:13:42Z</time>
      </trkpt>
      <trkpt lat="43.223473" lon="-4.985049">
        <ele>1749.271</ele>
        <time>2018-10-13T18:13:55Z</time>
      </trkpt>
      <trkpt lat="43.223524" lon="-4.985012">
        <ele>1749.017</ele>
        <time>2018-10-13T18:14:14Z</time>
      </trkpt>
      <trkpt lat="43.223521" lon="-4.985079">
        <ele>1747.215</ele>
        <time>2018-10-13T18:14:24Z</time>
      </trkpt>
      <trkpt lat="43.223491" lon="-4.985131">
        <ele>1745.644</ele>
        <time>2018-10-13T18:14:32Z</time>
      </trkpt>
      <trkpt lat="43.223523" lon="-4.985179">
        <ele>1744.305</ele>
        <time>2018-10-13T18:14:41Z</time>
      </trkpt>
      <trkpt lat="43.223534" lon="-4.985240">
        <ele>1742.815</ele>
        <time>2018-10-13T18:14:51Z</time>
      </trkpt>
      <trkpt lat="43.223555" lon="-4.985295">
        <ele>1741.908</ele>
        <time>2018-10-13T18:14:57Z</time>
      </trkpt>
      <trkpt lat="43.223523" lon="-4.985344">
        <ele>1740.026</ele>
        <time>2018-10-13T18:15:14Z</time>
      </trkpt>
      <trkpt lat="43.223486" lon="-4.985402">
        <ele>1738.593</ele>
        <time>2018-10-13T18:15:26Z</time>
      </trkpt>
      <trkpt lat="43.223446" lon="-4.985434">
        <ele>1736.672</ele>
        <time>2018-10-13T18:15:34Z</time>
      </trkpt>
      <trkpt lat="43.223415" lon="-4.985502">
        <ele>1735.399</ele>
        <time>2018-10-13T18:15:54Z</time>
      </trkpt>
      <trkpt lat="43.223388" lon="-4.985561">
        <ele>1733.780</ele>
        <time>2018-10-13T18:16:07Z</time>
      </trkpt>
      <trkpt lat="43.223387" lon="-4.985625">
        <ele>1732.899</ele>
        <time>2018-10-13T18:16:20Z</time>
      </trkpt>
      <trkpt lat="43.223416" lon="-4.985677">
        <ele>1731.715</ele>
        <time>2018-10-13T18:16:33Z</time>
      </trkpt>
      <trkpt lat="43.223423" lon="-4.985739">
        <ele>1730.683</ele>
        <time>2018-10-13T18:16:42Z</time>
      </trkpt>
      <trkpt lat="43.223441" lon="-4.985802">
        <ele>1729.962</ele>
        <time>2018-10-13T18:16:48Z</time>
      </trkpt>
      <trkpt lat="43.223456" lon="-4.985867">
        <ele>1729.383</ele>
        <time>2018-10-13T18:16:57Z</time>
      </trkpt>
      <trkpt lat="43.223494" lon="-4.985903">
        <ele>1728.411</ele>
        <time>2018-10-13T18:17:07Z</time>
      </trkpt>
      <trkpt lat="43.223522" lon="-4.985955">
        <ele>1727.308</ele>
        <time>2018-10-13T18:17:16Z</time>
      </trkpt>
      <trkpt lat="43.223551" lon="-4.986003">
        <ele>1726.188</ele>
        <time>2018-10-13T18:17:27Z</time>
      </trkpt>
      <trkpt lat="43.223559" lon="-4.985934">
        <ele>1723.095</ele>
        <time>2018-10-13T18:17:55Z</time>
      </trkpt>
      <trkpt lat="43.223545" lon="-4.985871">
        <ele>1722.074</ele>
        <time>2018-10-13T18:18:01Z</time>
      </trkpt>
      <trkpt lat="43.223543" lon="-4.985793">
        <ele>1721.421</ele>
        <time>2018-10-13T18:18:07Z</time>
      </trkpt>
      <trkpt lat="43.223563" lon="-4.985734">
        <ele>1720.992</ele>
        <time>2018-10-13T18:18:11Z</time>
      </trkpt>
      <trkpt lat="43.223604" lon="-4.985704">
        <ele>1720.181</ele>
        <time>2018-10-13T18:18:17Z</time>
      </trkpt>
      <trkpt lat="43.223636" lon="-4.985657">
        <ele>1718.857</ele>
        <time>2018-10-13T18:18:48Z</time>
      </trkpt>
      <trkpt lat="43.223686" lon="-4.985649">
        <ele>1718.055</ele>
        <time>2018-10-13T18:18:53Z</time>
      </trkpt>
      <trkpt lat="43.223729" lon="-4.985686">
        <ele>1717.088</ele>
        <time>2018-10-13T18:18:59Z</time>
      </trkpt>
      <trkpt lat="43.223740" lon="-4.985757">
        <ele>1716.224</ele>
        <time>2018-10-13T18:19:04Z</time>
      </trkpt>
      <trkpt lat="43.223777" lon="-4.985806">
        <ele>1714.726</ele>
        <time>2018-10-13T18:19:09Z</time>
      </trkpt>
      <trkpt lat="43.223816" lon="-4.985845">
        <ele>1712.608</ele>
        <time>2018-10-13T18:19:16Z</time>
      </trkpt>
      <trkpt lat="43.223855" lon="-4.985879">
        <ele>1711.020</ele>
        <time>2018-10-13T18:19:29Z</time>
      </trkpt>
      <trkpt lat="43.223893" lon="-4.985914">
        <ele>1709.677</ele>
        <time>2018-10-13T18:19:35Z</time>
      </trkpt>
      <trkpt lat="43.223931" lon="-4.985952">
        <ele>1707.846</ele>
        <time>2018-10-13T18:19:50Z</time>
      </trkpt>
      <trkpt lat="43.223975" lon="-4.985993">
        <ele>1707.123</ele>
        <time>2018-10-13T18:19:57Z</time>
      </trkpt>
      <trkpt lat="43.224017" lon="-4.986022">
        <ele>1706.184</ele>
        <time>2018-10-13T18:20:06Z</time>
      </trkpt>
      <trkpt lat="43.224064" lon="-4.986029">
        <ele>1705.293</ele>
        <time>2018-10-13T18:20:14Z</time>
      </trkpt>
      <trkpt lat="43.224099" lon="-4.986071">
        <ele>1704.469</ele>
        <time>2018-10-13T18:20:37Z</time>
      </trkpt>
      <trkpt lat="43.224132" lon="-4.986113">
        <ele>1703.177</ele>
        <time>2018-10-13T18:20:44Z</time>
      </trkpt>
      <trkpt lat="43.224135" lon="-4.986176">
        <ele>1701.337</ele>
        <time>2018-10-13T18:20:56Z</time>
      </trkpt>
      <trkpt lat="43.224170" lon="-4.986253">
        <ele>1699.549</ele>
        <time>2018-10-13T18:21:26Z</time>
      </trkpt>
      <trkpt lat="43.224218" lon="-4.986265">
        <ele>1698.913</ele>
        <time>2018-10-13T18:21:38Z</time>
      </trkpt>
      <trkpt lat="43.224213" lon="-4.986199">
        <ele>1695.508</ele>
        <time>2018-10-13T18:21:58Z</time>
      </trkpt>
      <trkpt lat="43.224237" lon="-4.986144">
        <ele>1695.265</ele>
        <time>2018-10-13T18:22:11Z</time>
      </trkpt>
      <trkpt lat="43.224279" lon="-4.986114">
        <ele>1694.672</ele>
        <time>2018-10-13T18:22:27Z</time>
      </trkpt>
      <trkpt lat="43.224328" lon="-4.986141">
        <ele>1692.561</ele>
        <time>2018-10-13T18:22:43Z</time>
      </trkpt>
      <trkpt lat="43.224367" lon="-4.986174">
        <ele>1690.948</ele>
        <time>2018-10-13T18:22:53Z</time>
      </trkpt>
      <trkpt lat="43.224412" lon="-4.986200">
        <ele>1689.769</ele>
        <time>2018-10-13T18:22:59Z</time>
      </trkpt>
      <trkpt lat="43.224446" lon="-4.986246">
        <ele>1687.778</ele>
        <time>2018-10-13T18:23:14Z</time>
      </trkpt>
      <trkpt lat="43.224494" lon="-4.986247">
        <ele>1686.944</ele>
        <time>2018-10-13T18:23:22Z</time>
      </trkpt>
      <trkpt lat="43.224532" lon="-4.986283">
        <ele>1685.952</ele>
        <time>2018-10-13T18:23:30Z</time>
      </trkpt>
      <trkpt lat="43.224578" lon="-4.986314">
        <ele>1683.766</ele>
        <time>2018-10-13T18:23:47Z</time>
      </trkpt>
      <trkpt lat="43.224624" lon="-4.986308">
        <ele>1682.729</ele>
        <time>2018-10-13T18:23:54Z</time>
      </trkpt>
      <trkpt lat="43.224643" lon="-4.986251">
        <ele>1681.421</ele>
        <time>2018-10-13T18:24:20Z</time>
      </trkpt>
      <trkpt lat="43.224657" lon="-4.986184">
        <ele>1680.308</ele>
        <time>2018-10-13T18:24:29Z</time>
      </trkpt>
      <trkpt lat="43.224692" lon="-4.986144">
        <ele>1677.758</ele>
        <time>2018-10-13T18:24:50Z</time>
      </trkpt>
      <trkpt lat="43.224745" lon="-4.986138">
        <ele>1677.115</ele>
        <time>2018-10-13T18:25:06Z</time>
      </trkpt>
      <trkpt lat="43.224776" lon="-4.986183">
        <ele>1676.324</ele>
        <time>2018-10-13T18:25:12Z</time>
      </trkpt>
      <trkpt lat="43.224820" lon="-4.986200">
        <ele>1674.891</ele>
        <time>2018-10-13T18:25:28Z</time>
      </trkpt>
      <trkpt lat="43.224870" lon="-4.986204">
        <ele>1672.622</ele>
        <time>2018-10-13T18:25:44Z</time>
      </trkpt>
      <trkpt lat="43.224915" lon="-4.986195">
        <ele>1671.981</ele>
        <time>2018-10-13T18:25:52Z</time>
      </trkpt>
      <trkpt lat="43.224954" lon="-4.986161">
        <ele>1670.677</ele>
        <time>2018-10-13T18:26:07Z</time>
      </trkpt>
      <trkpt lat="43.224998" lon="-4.986138">
        <ele>1670.025</ele>
        <time>2018-10-13T18:26:15Z</time>
      </trkpt>
      <trkpt lat="43.224974" lon="-4.986085">
        <ele>1668.792</ele>
        <time>2018-10-13T18:26:27Z</time>
      </trkpt>
      <trkpt lat="43.225022" lon="-4.986067">
        <ele>1667.073</ele>
        <time>2018-10-13T18:26:44Z</time>
      </trkpt>
      <trkpt lat="43.225063" lon="-4.986103">
        <ele>1666.320</ele>
        <time>2018-10-13T18:26:51Z</time>
      </trkpt>
      <trkpt lat="43.225103" lon="-4.986132">
        <ele>1665.208</ele>
        <time>2018-10-13T18:27:01Z</time>
      </trkpt>
      <trkpt lat="43.225151" lon="-4.986131">
        <ele>1664.411</ele>
        <time>2018-10-13T18:27:08Z</time>
      </trkpt>
      <trkpt lat="43.225197" lon="-4.986142">
        <ele>1663.898</ele>
        <time>2018-10-13T18:27:18Z</time>
      </trkpt>
      <trkpt lat="43.225244" lon="-4.986144">
        <ele>1663.047</ele>
        <time>2018-10-13T18:27:41Z</time>
      </trkpt>
      <trkpt lat="43.225290" lon="-4.986179">
        <ele>1662.464</ele>
        <time>2018-10-13T18:27:53Z</time>
      </trkpt>
      <trkpt lat="43.225333" lon="-4.986202">
        <ele>1661.635</ele>
        <time>2018-10-13T18:28:06Z</time>
      </trkpt>
      <trkpt lat="43.225377" lon="-4.986188">
        <ele>1660.534</ele>
        <time>2018-10-13T18:28:20Z</time>
      </trkpt>
      <trkpt lat="43.225418" lon="-4.986147">
        <ele>1659.790</ele>
        <time>2018-10-13T18:28:26Z</time>
      </trkpt>
      <trkpt lat="43.225464" lon="-4.986125">
        <ele>1659.428</ele>
        <time>2018-10-13T18:28:33Z</time>
      </trkpt>
      <trkpt lat="43.225510" lon="-4.986119">
        <ele>1658.673</ele>
        <time>2018-10-13T18:28:40Z</time>
      </trkpt>
      <trkpt lat="43.225547" lon="-4.986170">
        <ele>1657.685</ele>
        <time>2018-10-13T18:29:00Z</time>
      </trkpt>
      <trkpt lat="43.225585" lon="-4.986219">
        <ele>1656.913</ele>
        <time>2018-10-13T18:29:05Z</time>
      </trkpt>
      <trkpt lat="43.225637" lon="-4.986212">
        <ele>1656.508</ele>
        <time>2018-10-13T18:29:11Z</time>
      </trkpt>
      <trkpt lat="43.225683" lon="-4.986215">
        <ele>1655.559</ele>
        <time>2018-10-13T18:29:17Z</time>
      </trkpt>
      <trkpt lat="43.225732" lon="-4.986225">
        <ele>1654.876</ele>
        <time>2018-10-13T18:29:22Z</time>
      </trkpt>
      <trkpt lat="43.225781" lon="-4.986246">
        <ele>1653.955</ele>
        <time>2018-10-13T18:29:28Z</time>
      </trkpt>
      <trkpt lat="43.225813" lon="-4.986295">
        <ele>1653.042</ele>
        <time>2018-10-13T18:29:35Z</time>
      </trkpt>
      <trkpt lat="43.225848" lon="-4.986338">
        <ele>1652.083</ele>
        <time>2018-10-13T18:29:43Z</time>
      </trkpt>
      <trkpt lat="43.225892" lon="-4.986368">
        <ele>1651.062</ele>
        <time>2018-10-13T18:29:49Z</time>
      </trkpt>
      <trkpt lat="43.225933" lon="-4.986402">
        <ele>1649.928</ele>
        <time>2018-10-13T18:30:01Z</time>
      </trkpt>
      <trkpt lat="43.225975" lon="-4.986429">
        <ele>1648.616</ele>
        <time>2018-10-13T18:30:08Z</time>
      </trkpt>
      <trkpt lat="43.226022" lon="-4.986441">
        <ele>1647.232</ele>
        <time>2018-10-13T18:31:15Z</time>
      </trkpt>
      <trkpt lat="43.226065" lon="-4.986465">
        <ele>1646.292</ele>
        <time>2018-10-13T18:31:25Z</time>
      </trkpt>
      <trkpt lat="43.226088" lon="-4.986521">
        <ele>1645.211</ele>
        <time>2018-10-13T18:31:39Z</time>
      </trkpt>
      <trkpt lat="43.226044" lon="-4.986562">
        <ele>1644.408</ele>
        <time>2018-10-13T18:31:50Z</time>
      </trkpt>
      <trkpt lat="43.225979" lon="-4.986588">
        <ele>1644.175</ele>
        <time>2018-10-13T18:31:58Z</time>
      </trkpt>
      <trkpt lat="43.225991" lon="-4.986655">
        <ele>1643.662</ele>
        <time>2018-10-13T18:32:07Z</time>
      </trkpt>
      <trkpt lat="43.226018" lon="-4.986711">
        <ele>1643.231</ele>
        <time>2018-10-13T18:32:14Z</time>
      </trkpt>
      <trkpt lat="43.226046" lon="-4.986765">
        <ele>1642.648</ele>
        <time>2018-10-13T18:32:20Z</time>
      </trkpt>
      <trkpt lat="43.226067" lon="-4.986829">
        <ele>1640.899</ele>
        <time>2018-10-13T18:32:31Z</time>
      </trkpt>
      <trkpt lat="43.226113" lon="-4.986885">
        <ele>1639.698</ele>
        <time>2018-10-13T18:32:41Z</time>
      </trkpt>
      <trkpt lat="43.226058" lon="-4.986895">
        <ele>1637.984</ele>
        <time>2018-10-13T18:33:02Z</time>
      </trkpt>
      <trkpt lat="43.226054" lon="-4.986963">
        <ele>1637.312</ele>
        <time>2018-10-13T18:33:08Z</time>
      </trkpt>
      <trkpt lat="43.226052" lon="-4.987026">
        <ele>1636.626</ele>
        <time>2018-10-13T18:33:14Z</time>
      </trkpt>
      <trkpt lat="43.226108" lon="-4.987071">
        <ele>1635.647</ele>
        <time>2018-10-13T18:33:22Z</time>
      </trkpt>
      <trkpt lat="43.226141" lon="-4.987118">
        <ele>1634.811</ele>
        <time>2018-10-13T18:33:27Z</time>
      </trkpt>
      <trkpt lat="43.226167" lon="-4.987175">
        <ele>1634.408</ele>
        <time>2018-10-13T18:33:34Z</time>
      </trkpt>
      <trkpt lat="43.226159" lon="-4.987237">
        <ele>1632.444</ele>
        <time>2018-10-13T18:34:04Z</time>
      </trkpt>
      <trkpt lat="43.226164" lon="-4.987314">
        <ele>1629.951</ele>
        <time>2018-10-13T18:34:17Z</time>
      </trkpt>
      <trkpt lat="43.226159" lon="-4.987386">
        <ele>1628.910</ele>
        <time>2018-10-13T18:34:24Z</time>
      </trkpt>
      <trkpt lat="43.226171" lon="-4.987453">
        <ele>1628.377</ele>
        <time>2018-10-13T18:34:33Z</time>
      </trkpt>
      <trkpt lat="43.226130" lon="-4.987516">
        <ele>1626.948</ele>
        <time>2018-10-13T18:34:44Z</time>
      </trkpt>
      <trkpt lat="43.226176" lon="-4.987526">
        <ele>1625.977</ele>
        <time>2018-10-13T18:34:56Z</time>
      </trkpt>
      <trkpt lat="43.226201" lon="-4.987473">
        <ele>1625.023</ele>
        <time>2018-10-13T18:35:07Z</time>
      </trkpt>
      <trkpt lat="43.226192" lon="-4.987409">
        <ele>1624.371</ele>
        <time>2018-10-13T18:35:15Z</time>
      </trkpt>
      <trkpt lat="43.226199" lon="-4.987345">
        <ele>1623.677</ele>
        <time>2018-10-13T18:35:21Z</time>
      </trkpt>
      <trkpt lat="43.226243" lon="-4.987366">
        <ele>1621.961</ele>
        <time>2018-10-13T18:35:44Z</time>
      </trkpt>
      <trkpt lat="43.226289" lon="-4.987383">
        <ele>1620.827</ele>
        <time>2018-10-13T18:35:53Z</time>
      </trkpt>
      <trkpt lat="43.226318" lon="-4.987319">
        <ele>1619.708</ele>
        <time>2018-10-13T18:35:59Z</time>
      </trkpt>
      <trkpt lat="43.226341" lon="-4.987264">
        <ele>1618.429</ele>
        <time>2018-10-13T18:36:09Z</time>
      </trkpt>
      <trkpt lat="43.226380" lon="-4.987299">
        <ele>1617.776</ele>
        <time>2018-10-13T18:36:17Z</time>
      </trkpt>
      <trkpt lat="43.226428" lon="-4.987317">
        <ele>1616.285</ele>
        <time>2018-10-13T18:36:34Z</time>
      </trkpt>
      <trkpt lat="43.226475" lon="-4.987334">
        <ele>1615.462</ele>
        <time>2018-10-13T18:36:44Z</time>
      </trkpt>
      <trkpt lat="43.226520" lon="-4.987348">
        <ele>1613.793</ele>
        <time>2018-10-13T18:36:59Z</time>
      </trkpt>
      <trkpt lat="43.226556" lon="-4.987404">
        <ele>1612.362</ele>
        <time>2018-10-13T18:37:09Z</time>
      </trkpt>
      <trkpt lat="43.226564" lon="-4.987470">
        <ele>1610.928</ele>
        <time>2018-10-13T18:37:23Z</time>
      </trkpt>
      <trkpt lat="43.226591" lon="-4.987533">
        <ele>1609.836</ele>
        <time>2018-10-13T18:37:33Z</time>
      </trkpt>
      <trkpt lat="43.226588" lon="-4.987603">
        <ele>1608.934</ele>
        <time>2018-10-13T18:37:49Z</time>
      </trkpt>
      <trkpt lat="43.226599" lon="-4.987666">
        <ele>1608.755</ele>
        <time>2018-10-13T18:37:55Z</time>
      </trkpt>
      <trkpt lat="43.226647" lon="-4.987701">
        <ele>1606.010</ele>
        <time>2018-10-13T18:38:20Z</time>
      </trkpt>
      <trkpt lat="43.226674" lon="-4.987753">
        <ele>1605.308</ele>
        <time>2018-10-13T18:38:29Z</time>
      </trkpt>
      <trkpt lat="43.226698" lon="-4.987807">
        <ele>1604.295</ele>
        <time>2018-10-13T18:38:40Z</time>
      </trkpt>
      <trkpt lat="43.226747" lon="-4.987815">
        <ele>1603.462</ele>
        <time>2018-10-13T18:38:47Z</time>
      </trkpt>
      <trkpt lat="43.226792" lon="-4.987825">
        <ele>1602.331</ele>
        <time>2018-10-13T18:38:58Z</time>
      </trkpt>
      <trkpt lat="43.226839" lon="-4.987829">
        <ele>1601.488</ele>
        <time>2018-10-13T18:39:06Z</time>
      </trkpt>
      <trkpt lat="43.226884" lon="-4.987817">
        <ele>1600.699</ele>
        <time>2018-10-13T18:39:14Z</time>
      </trkpt>
      <trkpt lat="43.226929" lon="-4.987804">
        <ele>1599.918</ele>
        <time>2018-10-13T18:39:20Z</time>
      </trkpt>
      <trkpt lat="43.226973" lon="-4.987781">
        <ele>1599.124</ele>
        <time>2018-10-13T18:39:28Z</time>
      </trkpt>
      <trkpt lat="43.227020" lon="-4.987783">
        <ele>1597.372</ele>
        <time>2018-10-13T18:39:57Z</time>
      </trkpt>
      <trkpt lat="43.227055" lon="-4.987825">
        <ele>1596.145</ele>
        <time>2018-10-13T18:40:30Z</time>
      </trkpt>
      <trkpt lat="43.227096" lon="-4.987854">
        <ele>1595.347</ele>
        <time>2018-10-13T18:40:39Z</time>
      </trkpt>
      <trkpt lat="43.227128" lon="-4.987897">
        <ele>1593.911</ele>
        <time>2018-10-13T18:40:52Z</time>
      </trkpt>
      <trkpt lat="43.227175" lon="-4.987910">
        <ele>1592.908</ele>
        <time>2018-10-13T18:41:02Z</time>
      </trkpt>
      <trkpt lat="43.227218" lon="-4.987944">
        <ele>1590.716</ele>
        <time>2018-10-13T18:41:29Z</time>
      </trkpt>
      <trkpt lat="43.227257" lon="-4.987989">
        <ele>1589.613</ele>
        <time>2018-10-13T18:41:38Z</time>
      </trkpt>
      <trkpt lat="43.227305" lon="-4.988008">
        <ele>1588.042</ele>
        <time>2018-10-13T18:41:46Z</time>
      </trkpt>
      <trkpt lat="43.227351" lon="-4.988026">
        <ele>1586.589</ele>
        <time>2018-10-13T18:42:04Z</time>
      </trkpt>
      <trkpt lat="43.227398" lon="-4.988044">
        <ele>1585.460</ele>
        <time>2018-10-13T18:42:13Z</time>
      </trkpt>
      <trkpt lat="43.227438" lon="-4.988076">
        <ele>1584.419</ele>
        <time>2018-10-13T18:42:35Z</time>
      </trkpt>
      <trkpt lat="43.227468" lon="-4.988129">
        <ele>1583.635</ele>
        <time>2018-10-13T18:42:41Z</time>
      </trkpt>
      <trkpt lat="43.227513" lon="-4.988180">
        <ele>1582.713</ele>
        <time>2018-10-13T18:42:47Z</time>
      </trkpt>
      <trkpt lat="43.227558" lon="-4.988182">
        <ele>1582.139</ele>
        <time>2018-10-13T18:42:53Z</time>
      </trkpt>
      <trkpt lat="43.227609" lon="-4.988173">
        <ele>1581.501</ele>
        <time>2018-10-13T18:42:59Z</time>
      </trkpt>
      <trkpt lat="43.227661" lon="-4.988223">
        <ele>1580.421</ele>
        <time>2018-10-13T18:43:14Z</time>
      </trkpt>
      <trkpt lat="43.227649" lon="-4.988284">
        <ele>1579.608</ele>
        <time>2018-10-13T18:43:23Z</time>
      </trkpt>
      <trkpt lat="43.227691" lon="-4.988330">
        <ele>1577.675</ele>
        <time>2018-10-13T18:43:45Z</time>
      </trkpt>
      <trkpt lat="43.227707" lon="-4.988388">
        <ele>1576.132</ele>
        <time>2018-10-13T18:43:56Z</time>
      </trkpt>
      <trkpt lat="43.227753" lon="-4.988370">
        <ele>1575.551</ele>
        <time>2018-10-13T18:44:10Z</time>
      </trkpt>
      <trkpt lat="43.227792" lon="-4.988406">
        <ele>1575.018</ele>
        <time>2018-10-13T18:44:16Z</time>
      </trkpt>
      <trkpt lat="43.227828" lon="-4.988450">
        <ele>1574.379</ele>
        <time>2018-10-13T18:44:24Z</time>
      </trkpt>
      <trkpt lat="43.227851" lon="-4.988506">
        <ele>1573.878</ele>
        <time>2018-10-13T18:44:36Z</time>
      </trkpt>
      <trkpt lat="43.227890" lon="-4.988545">
        <ele>1572.864</ele>
        <time>2018-10-13T18:44:42Z</time>
      </trkpt>
      <trkpt lat="43.227933" lon="-4.988563">
        <ele>1572.212</ele>
        <time>2018-10-13T18:44:47Z</time>
      </trkpt>
      <trkpt lat="43.227980" lon="-4.988561">
        <ele>1571.472</ele>
        <time>2018-10-13T18:44:53Z</time>
      </trkpt>
      <trkpt lat="43.228026" lon="-4.988576">
        <ele>1570.913</ele>
        <time>2018-10-13T18:44:58Z</time>
      </trkpt>
      <trkpt lat="43.228050" lon="-4.988628">
        <ele>1569.314</ele>
        <time>2018-10-13T18:45:07Z</time>
      </trkpt>
      <trkpt lat="43.228094" lon="-4.988645">
        <ele>1568.108</ele>
        <time>2018-10-13T18:45:16Z</time>
      </trkpt>
      <trkpt lat="43.228101" lon="-4.988715">
        <ele>1567.079</ele>
        <time>2018-10-13T18:45:32Z</time>
      </trkpt>
      <trkpt lat="43.228146" lon="-4.988721">
        <ele>1565.546</ele>
        <time>2018-10-13T18:45:44Z</time>
      </trkpt>
      <trkpt lat="43.228188" lon="-4.988758">
        <ele>1564.635</ele>
        <time>2018-10-13T18:45:51Z</time>
      </trkpt>
      <trkpt lat="43.228229" lon="-4.988731">
        <ele>1563.572</ele>
        <time>2018-10-13T18:46:12Z</time>
      </trkpt>
      <trkpt lat="43.228284" lon="-4.988697">
        <ele>1562.823</ele>
        <time>2018-10-13T18:46:38Z</time>
      </trkpt>
      <trkpt lat="43.228337" lon="-4.988710">
        <ele>1562.092</ele>
        <time>2018-10-13T18:47:01Z</time>
      </trkpt>
      <trkpt lat="43.228365" lon="-4.988764">
        <ele>1560.358</ele>
        <time>2018-10-13T18:47:12Z</time>
      </trkpt>
      <trkpt lat="43.228409" lon="-4.988779">
        <ele>1559.026</ele>
        <time>2018-10-13T18:47:32Z</time>
      </trkpt>
      <trkpt lat="43.228429" lon="-4.988839">
        <ele>1558.067</ele>
        <time>2018-10-13T18:47:42Z</time>
      </trkpt>
      <trkpt lat="43.228443" lon="-4.988898">
        <ele>1556.581</ele>
        <time>2018-10-13T18:47:53Z</time>
      </trkpt>
      <trkpt lat="43.228461" lon="-4.988963">
        <ele>1555.619</ele>
        <time>2018-10-13T18:48:02Z</time>
      </trkpt>
      <trkpt lat="43.228493" lon="-4.989015">
        <ele>1554.508</ele>
        <time>2018-10-13T18:48:11Z</time>
      </trkpt>
      <trkpt lat="43.228525" lon="-4.989064">
        <ele>1553.898</ele>
        <time>2018-10-13T18:48:18Z</time>
      </trkpt>
      <trkpt lat="43.228521" lon="-4.989128">
        <ele>1553.025</ele>
        <time>2018-10-13T18:48:28Z</time>
      </trkpt>
      <trkpt lat="43.228549" lon="-4.989179">
        <ele>1551.434</ele>
        <time>2018-10-13T18:48:44Z</time>
      </trkpt>
      <trkpt lat="43.228596" lon="-4.989191">
        <ele>1551.211</ele>
        <time>2018-10-13T18:49:12Z</time>
      </trkpt>
      <trkpt lat="43.228643" lon="-4.989194">
        <ele>1550.972</ele>
        <time>2018-10-13T18:49:16Z</time>
      </trkpt>
      <trkpt lat="43.228692" lon="-4.989188">
        <ele>1550.041</ele>
        <time>2018-10-13T18:49:22Z</time>
      </trkpt>
      <trkpt lat="43.228739" lon="-4.989209">
        <ele>1548.387</ele>
        <time>2018-10-13T18:49:36Z</time>
      </trkpt>
      <trkpt lat="43.228777" lon="-4.989243">
        <ele>1547.315</ele>
        <time>2018-10-13T18:49:44Z</time>
      </trkpt>
      <trkpt lat="43.228820" lon="-4.989224">
        <ele>1545.838</ele>
        <time>2018-10-13T18:50:06Z</time>
      </trkpt>
      <trkpt lat="43.228867" lon="-4.989243">
        <ele>1545.270</ele>
        <time>2018-10-13T18:50:14Z</time>
      </trkpt>
      <trkpt lat="43.228904" lon="-4.989280">
        <ele>1543.817</ele>
        <time>2018-10-13T18:50:22Z</time>
      </trkpt>
      <trkpt lat="43.228943" lon="-4.989320">
        <ele>1542.708</ele>
        <time>2018-10-13T18:50:30Z</time>
      </trkpt>
      <trkpt lat="43.228982" lon="-4.989362">
        <ele>1541.685</ele>
        <time>2018-10-13T18:50:47Z</time>
      </trkpt>
      <trkpt lat="43.229025" lon="-4.989382">
        <ele>1540.692</ele>
        <time>2018-10-13T18:50:53Z</time>
      </trkpt>
      <trkpt lat="43.229073" lon="-4.989375">
        <ele>1539.591</ele>
        <time>2018-10-13T18:50:59Z</time>
      </trkpt>
      <trkpt lat="43.229118" lon="-4.989349">
        <ele>1538.568</ele>
        <time>2018-10-13T18:51:07Z</time>
      </trkpt>
      <trkpt lat="43.229153" lon="-4.989387">
        <ele>1537.389</ele>
        <time>2018-10-13T18:51:17Z</time>
      </trkpt>
      <trkpt lat="43.229199" lon="-4.989426">
        <ele>1536.578</ele>
        <time>2018-10-13T18:51:23Z</time>
      </trkpt>
      <trkpt lat="43.229235" lon="-4.989468">
        <ele>1535.624</ele>
        <time>2018-10-13T18:51:29Z</time>
      </trkpt>
      <trkpt lat="43.229264" lon="-4.989518">
        <ele>1534.612</ele>
        <time>2018-10-13T18:51:36Z</time>
      </trkpt>
      <trkpt lat="43.229286" lon="-4.989575">
        <ele>1533.348</ele>
        <time>2018-10-13T18:51:50Z</time>
      </trkpt>
      <trkpt lat="43.229317" lon="-4.989627">
        <ele>1532.561</ele>
        <time>2018-10-13T18:51:58Z</time>
      </trkpt>
      <trkpt lat="43.229339" lon="-4.989682">
        <ele>1531.917</ele>
        <time>2018-10-13T18:52:06Z</time>
      </trkpt>
      <trkpt lat="43.229377" lon="-4.989720">
        <ele>1530.908</ele>
        <time>2018-10-13T18:52:15Z</time>
      </trkpt>
      <trkpt lat="43.229416" lon="-4.989771">
        <ele>1530.126</ele>
        <time>2018-10-13T18:52:22Z</time>
      </trkpt>
      <trkpt lat="43.229428" lon="-4.989838">
        <ele>1529.353</ele>
        <time>2018-10-13T18:52:29Z</time>
      </trkpt>
      <trkpt lat="43.229436" lon="-4.989899">
        <ele>1528.492</ele>
        <time>2018-10-13T18:52:36Z</time>
      </trkpt>
      <trkpt lat="43.229447" lon="-4.989965">
        <ele>1527.759</ele>
        <time>2018-10-13T18:53:03Z</time>
      </trkpt>
      <trkpt lat="43.229469" lon="-4.990030">
        <ele>1527.240</ele>
        <time>2018-10-13T18:53:09Z</time>
      </trkpt>
      <trkpt lat="43.229468" lon="-4.990094">
        <ele>1526.749</ele>
        <time>2018-10-13T18:53:14Z</time>
      </trkpt>
      <trkpt lat="43.229504" lon="-4.990135">
        <ele>1526.475</ele>
        <time>2018-10-13T18:53:20Z</time>
      </trkpt>
      <trkpt lat="43.229555" lon="-4.990187">
        <ele>1525.863</ele>
        <time>2018-10-13T18:53:34Z</time>
      </trkpt>
      <trkpt lat="43.229581" lon="-4.990242">
        <ele>1525.287</ele>
        <time>2018-10-13T18:53:42Z</time>
      </trkpt>
      <trkpt lat="43.229595" lon="-4.990308">
        <ele>1524.142</ele>
        <time>2018-10-13T18:53:50Z</time>
      </trkpt>
      <trkpt lat="43.229622" lon="-4.990362">
        <ele>1523.126</ele>
        <time>2018-10-13T18:53:57Z</time>
      </trkpt>
      <trkpt lat="43.229628" lon="-4.990428">
        <ele>1521.308</ele>
        <time>2018-10-13T18:54:10Z</time>
      </trkpt>
      <trkpt lat="43.229667" lon="-4.990464">
        <ele>1519.170</ele>
        <time>2018-10-13T18:54:39Z</time>
      </trkpt>
      <trkpt lat="43.229703" lon="-4.990503">
        <ele>1518.357</ele>
        <time>2018-10-13T18:54:45Z</time>
      </trkpt>
      <trkpt lat="43.229729" lon="-4.990554">
        <ele>1517.016</ele>
        <time>2018-10-13T18:54:56Z</time>
      </trkpt>
      <trkpt lat="43.229747" lon="-4.990618">
        <ele>1515.063</ele>
        <time>2018-10-13T18:55:08Z</time>
      </trkpt>
      <trkpt lat="43.229758" lon="-4.990679">
        <ele>1514.034</ele>
        <time>2018-10-13T18:55:14Z</time>
      </trkpt>
      <trkpt lat="43.229778" lon="-4.990745">
        <ele>1513.333</ele>
        <time>2018-10-13T18:55:26Z</time>
      </trkpt>
      <trkpt lat="43.229798" lon="-4.990808">
        <ele>1512.139</ele>
        <time>2018-10-13T18:55:32Z</time>
      </trkpt>
      <trkpt lat="43.229816" lon="-4.990869">
        <ele>1511.367</ele>
        <time>2018-10-13T18:55:40Z</time>
      </trkpt>
      <trkpt lat="43.229843" lon="-4.990921">
        <ele>1510.974</ele>
        <time>2018-10-13T18:55:55Z</time>
      </trkpt>
      <trkpt lat="43.229893" lon="-4.990937">
        <ele>1510.256</ele>
        <time>2018-10-13T18:56:02Z</time>
      </trkpt>
      <trkpt lat="43.229940" lon="-4.990963">
        <ele>1509.321</ele>
        <time>2018-10-13T18:56:09Z</time>
      </trkpt>
      <trkpt lat="43.229979" lon="-4.990994">
        <ele>1508.708</ele>
        <time>2018-10-13T18:56:18Z</time>
      </trkpt>
      <trkpt lat="43.230025" lon="-4.991001">
        <ele>1508.089</ele>
        <time>2018-10-13T18:56:26Z</time>
      </trkpt>
      <trkpt lat="43.230071" lon="-4.991006">
        <ele>1507.286</ele>
        <time>2018-10-13T18:56:33Z</time>
      </trkpt>
      <trkpt lat="43.230111" lon="-4.991039">
        <ele>1506.545</ele>
        <time>2018-10-13T18:56:40Z</time>
      </trkpt>
      <trkpt lat="43.230160" lon="-4.991051">
        <ele>1505.362</ele>
        <time>2018-10-13T18:56:49Z</time>
      </trkpt>
      <trkpt lat="43.230205" lon="-4.991035">
        <ele>1504.393</ele>
        <time>2018-10-13T18:56:58Z</time>
      </trkpt>
      <trkpt lat="43.230250" lon="-4.991041">
        <ele>1503.492</ele>
        <time>2018-10-13T18:57:04Z</time>
      </trkpt>
      <trkpt lat="43.230301" lon="-4.991054">
        <ele>1502.388</ele>
        <time>2018-10-13T18:57:11Z</time>
      </trkpt>
      <trkpt lat="43.230344" lon="-4.991080">
        <ele>1501.886</ele>
        <time>2018-10-13T18:57:17Z</time>
      </trkpt>
      <trkpt lat="43.230387" lon="-4.991104">
        <ele>1501.151</ele>
        <time>2018-10-13T18:57:27Z</time>
      </trkpt>
      <trkpt lat="43.230429" lon="-4.991142">
        <ele>1499.701</ele>
        <time>2018-10-13T18:57:49Z</time>
      </trkpt>
      <trkpt lat="43.230463" lon="-4.991183">
        <ele>1498.511</ele>
        <time>2018-10-13T18:57:59Z</time>
      </trkpt>
      <trkpt lat="43.230492" lon="-4.991236">
        <ele>1497.408</ele>
        <time>2018-10-13T18:58:06Z</time>
      </trkpt>
      <trkpt lat="43.230541" lon="-4.991224">
        <ele>1496.537</ele>
        <time>2018-10-13T18:58:12Z</time>
      </trkpt>
      <trkpt lat="43.230588" lon="-4.991243">
        <ele>1495.484</ele>
        <time>2018-10-13T18:58:18Z</time>
      </trkpt>
      <trkpt lat="43.230624" lon="-4.991295">
        <ele>1494.323</ele>
        <time>2018-10-13T18:58:26Z</time>
      </trkpt>
      <trkpt lat="43.230668" lon="-4.991312">
        <ele>1493.890</ele>
        <time>2018-10-13T18:58:31Z</time>
      </trkpt>
      <trkpt lat="43.230718" lon="-4.991328">
        <ele>1492.571</ele>
        <time>2018-10-13T18:58:36Z</time>
      </trkpt>
      <trkpt lat="43.230772" lon="-4.991340">
        <ele>1492.290</ele>
        <time>2018-10-13T18:58:41Z</time>
      </trkpt>
      <trkpt lat="43.230818" lon="-4.991346">
        <ele>1491.866</ele>
        <time>2018-10-13T18:58:46Z</time>
      </trkpt>
      <trkpt lat="43.230866" lon="-4.991362">
        <ele>1491.674</ele>
        <time>2018-10-13T18:58:51Z</time>
      </trkpt>
      <trkpt lat="43.230904" lon="-4.991401">
        <ele>1491.769</ele>
        <time>2018-10-13T18:58:56Z</time>
      </trkpt>
      <trkpt lat="43.230945" lon="-4.991429">
        <ele>1491.504</ele>
        <time>2018-10-13T18:59:01Z</time>
      </trkpt>
      <trkpt lat="43.230991" lon="-4.991455">
        <ele>1491.124</ele>
        <time>2018-10-13T18:59:07Z</time>
      </trkpt>
      <trkpt lat="43.231039" lon="-4.991478">
        <ele>1490.708</ele>
        <time>2018-10-13T18:59:14Z</time>
      </trkpt>
      <trkpt lat="43.231081" lon="-4.991506">
        <ele>1490.518</ele>
        <time>2018-10-13T18:59:19Z</time>
      </trkpt>
      <trkpt lat="43.231132" lon="-4.991513">
        <ele>1490.545</ele>
        <time>2018-10-13T18:59:26Z</time>
      </trkpt>
      <trkpt lat="43.231186" lon="-4.991520">
        <ele>1490.424</ele>
        <time>2018-10-13T18:59:32Z</time>
      </trkpt>
      <trkpt lat="43.231228" lon="-4.991547">
        <ele>1490.311</ele>
        <time>2018-10-13T18:59:40Z</time>
      </trkpt>
      <trkpt lat="43.231272" lon="-4.991567">
        <ele>1489.612</ele>
        <time>2018-10-13T18:59:48Z</time>
      </trkpt>
      <trkpt lat="43.231316" lon="-4.991584">
        <ele>1488.341</ele>
        <time>2018-10-13T18:59:58Z</time>
      </trkpt>
      <trkpt lat="43.231355" lon="-4.991622">
        <ele>1487.217</ele>
        <time>2018-10-13T19:00:20Z</time>
      </trkpt>
      <trkpt lat="43.231398" lon="-4.991645">
        <ele>1486.065</ele>
        <time>2018-10-13T19:00:32Z</time>
      </trkpt>
      <trkpt lat="43.231443" lon="-4.991652">
        <ele>1484.246</ele>
        <time>2018-10-13T19:01:00Z</time>
      </trkpt>
      <trkpt lat="43.231465" lon="-4.991595">
        <ele>1483.688</ele>
        <time>2018-10-13T19:01:09Z</time>
      </trkpt>
      <trkpt lat="43.231495" lon="-4.991532">
        <ele>1482.416</ele>
        <time>2018-10-13T19:01:17Z</time>
      </trkpt>
      <trkpt lat="43.231547" lon="-4.991503">
        <ele>1481.308</ele>
        <time>2018-10-13T19:01:22Z</time>
      </trkpt>
      <trkpt lat="43.231593" lon="-4.991489">
        <ele>1480.476</ele>
        <time>2018-10-13T19:01:27Z</time>
      </trkpt>
      <trkpt lat="43.231646" lon="-4.991472">
        <ele>1479.423</ele>
        <time>2018-10-13T19:01:34Z</time>
      </trkpt>
      <trkpt lat="43.231699" lon="-4.991460">
        <ele>1478.692</ele>
        <time>2018-10-13T19:01:39Z</time>
      </trkpt>
      <trkpt lat="43.231747" lon="-4.991471">
        <ele>1478.079</ele>
        <time>2018-10-13T19:01:46Z</time>
      </trkpt>
      <trkpt lat="43.231785" lon="-4.991516">
        <ele>1477.970</ele>
        <time>2018-10-13T19:01:52Z</time>
      </trkpt>
      <trkpt lat="43.231831" lon="-4.991543">
        <ele>1478.189</ele>
        <time>2018-10-13T19:01:59Z</time>
      </trkpt>
      <trkpt lat="43.231875" lon="-4.991571">
        <ele>1476.965</ele>
        <time>2018-10-13T19:02:27Z</time>
      </trkpt>
      <trkpt lat="43.231922" lon="-4.991545">
        <ele>1475.743</ele>
        <time>2018-10-13T19:02:35Z</time>
      </trkpt>
      <trkpt lat="43.231973" lon="-4.991556">
        <ele>1474.863</ele>
        <time>2018-10-13T19:02:42Z</time>
      </trkpt>
      <trkpt lat="43.232016" lon="-4.991580">
        <ele>1474.144</ele>
        <time>2018-10-13T19:02:47Z</time>
      </trkpt>
      <trkpt lat="43.232060" lon="-4.991611">
        <ele>1473.318</ele>
        <time>2018-10-13T19:02:53Z</time>
      </trkpt>
      <trkpt lat="43.232106" lon="-4.991606">
        <ele>1472.008</ele>
        <time>2018-10-13T19:03:13Z</time>
      </trkpt>
      <trkpt lat="43.232150" lon="-4.991640">
        <ele>1470.888</ele>
        <time>2018-10-13T19:03:32Z</time>
      </trkpt>
      <trkpt lat="43.232424" lon="-4.991769">
        <ele>1468.695</ele>
        <time>2018-10-13T19:04:29Z</time>
      </trkpt>
      <trkpt lat="43.232470" lon="-4.991771">
        <ele>1470.164</ele>
        <time>2018-10-13T19:04:37Z</time>
      </trkpt>
      <trkpt lat="43.232517" lon="-4.991779">
        <ele>1467.921</ele>
        <time>2018-10-13T19:05:08Z</time>
      </trkpt>
      <trkpt lat="43.232564" lon="-4.991759">
        <ele>1466.972</ele>
        <time>2018-10-13T19:05:13Z</time>
      </trkpt>
      <trkpt lat="43.232607" lon="-4.991721">
        <ele>1465.931</ele>
        <time>2018-10-13T19:05:19Z</time>
      </trkpt>
      <trkpt lat="43.232650" lon="-4.991697">
        <ele>1465.077</ele>
        <time>2018-10-13T19:05:33Z</time>
      </trkpt>
      <trkpt lat="43.232698" lon="-4.991661">
        <ele>1463.575</ele>
        <time>2018-10-13T19:05:54Z</time>
      </trkpt>
      <trkpt lat="43.232745" lon="-4.991667">
        <ele>1462.958</ele>
        <time>2018-10-13T19:06:02Z</time>
      </trkpt>
      <trkpt lat="43.232790" lon="-4.991678">
        <ele>1461.852</ele>
        <time>2018-10-13T19:06:13Z</time>
      </trkpt>
      <trkpt lat="43.232822" lon="-4.991723">
        <ele>1460.817</ele>
        <time>2018-10-13T19:06:25Z</time>
      </trkpt>
      <trkpt lat="43.232868" lon="-4.991751">
        <ele>1460.508</ele>
        <time>2018-10-13T19:06:32Z</time>
      </trkpt>
      <trkpt lat="43.232914" lon="-4.991762">
        <ele>1459.287</ele>
        <time>2018-10-13T19:06:49Z</time>
      </trkpt>
      <trkpt lat="43.232962" lon="-4.991753">
        <ele>1458.674</ele>
        <time>2018-10-13T19:06:58Z</time>
      </trkpt>
      <trkpt lat="43.233013" lon="-4.991778">
        <ele>1457.153</ele>
        <time>2018-10-13T19:07:37Z</time>
      </trkpt>
      <trkpt lat="43.233061" lon="-4.991759">
        <ele>1456.560</ele>
        <time>2018-10-13T19:07:43Z</time>
      </trkpt>
      <trkpt lat="43.233091" lon="-4.991806">
        <ele>1455.131</ele>
        <time>2018-10-13T19:07:53Z</time>
      </trkpt>
      <trkpt lat="43.233124" lon="-4.991851">
        <ele>1453.980</ele>
        <time>2018-10-13T19:08:01Z</time>
      </trkpt>
      <trkpt lat="43.233173" lon="-4.991851">
        <ele>1453.516</ele>
        <time>2018-10-13T19:08:10Z</time>
      </trkpt>
      <trkpt lat="43.233222" lon="-4.991865">
        <ele>1452.184</ele>
        <time>2018-10-13T19:08:23Z</time>
      </trkpt>
      <trkpt lat="43.233264" lon="-4.991842">
        <ele>1451.333</ele>
        <time>2018-10-13T19:08:42Z</time>
      </trkpt>
      <trkpt lat="43.233310" lon="-4.991849">
        <ele>1449.423</ele>
        <time>2018-10-13T19:08:51Z</time>
      </trkpt>
      <trkpt lat="43.233330" lon="-4.991909">
        <ele>1448.315</ele>
        <time>2018-10-13T19:08:59Z</time>
      </trkpt>
      <trkpt lat="43.233369" lon="-4.991946">
        <ele>1447.108</ele>
        <time>2018-10-13T19:09:07Z</time>
      </trkpt>
      <trkpt lat="43.233413" lon="-4.991965">
        <ele>1445.995</ele>
        <time>2018-10-13T19:09:14Z</time>
      </trkpt>
      <trkpt lat="43.233459" lon="-4.991983">
        <ele>1445.482</ele>
        <time>2018-10-13T19:09:26Z</time>
      </trkpt>
      <trkpt lat="43.233496" lon="-4.992024">
        <ele>1444.391</ele>
        <time>2018-10-13T19:09:34Z</time>
      </trkpt>
      <trkpt lat="43.233544" lon="-4.992045">
        <ele>1443.478</ele>
        <time>2018-10-13T19:09:51Z</time>
      </trkpt>
      <trkpt lat="43.233591" lon="-4.992047">
        <ele>1442.249</ele>
        <time>2018-10-13T19:10:01Z</time>
      </trkpt>
      <trkpt lat="43.233633" lon="-4.992085">
        <ele>1440.758</ele>
        <time>2018-10-13T19:10:14Z</time>
      </trkpt>
      <trkpt lat="43.233673" lon="-4.992121">
        <ele>1439.984</ele>
        <time>2018-10-13T19:10:23Z</time>
      </trkpt>
      <trkpt lat="43.233727" lon="-4.992124">
        <ele>1439.422</ele>
        <time>2018-10-13T19:11:05Z</time>
      </trkpt>
      <trkpt lat="43.233770" lon="-4.992160">
        <ele>1438.475</ele>
        <time>2018-10-13T19:11:29Z</time>
      </trkpt>
      <trkpt lat="43.233773" lon="-4.992221">
        <ele>1436.428</ele>
        <time>2018-10-13T19:12:03Z</time>
      </trkpt>
      <trkpt lat="43.233775" lon="-4.992286">
        <ele>1435.620</ele>
        <time>2018-10-13T19:12:23Z</time>
      </trkpt>
      <trkpt lat="43.233794" lon="-4.992343">
        <ele>1435.208</ele>
        <time>2018-10-13T19:12:33Z</time>
      </trkpt>
      <trkpt lat="43.233763" lon="-4.992390">
        <ele>1434.639</ele>
        <time>2018-10-13T19:12:55Z</time>
      </trkpt>
      <trkpt lat="43.233776" lon="-4.992461">
        <ele>1433.126</ele>
        <time>2018-10-13T19:13:07Z</time>
      </trkpt>
      <trkpt lat="43.233806" lon="-4.992519">
        <ele>1432.415</ele>
        <time>2018-10-13T19:13:12Z</time>
      </trkpt>
      <trkpt lat="43.233823" lon="-4.992581">
        <ele>1431.862</ele>
        <time>2018-10-13T19:13:16Z</time>
      </trkpt>
      <trkpt lat="43.233834" lon="-4.992647">
        <ele>1431.423</ele>
        <time>2018-10-13T19:13:20Z</time>
      </trkpt>
      <trkpt lat="43.233857" lon="-4.992705">
        <ele>1431.242</ele>
        <time>2018-10-13T19:13:24Z</time>
      </trkpt>
      <trkpt lat="43.233878" lon="-4.992761">
        <ele>1431.188</ele>
        <time>2018-10-13T19:13:28Z</time>
      </trkpt>
      <trkpt lat="43.233904" lon="-4.992816">
        <ele>1430.896</ele>
        <time>2018-10-13T19:13:33Z</time>
      </trkpt>
      <trkpt lat="43.233956" lon="-4.992801">
        <ele>1430.497</ele>
        <time>2018-10-13T19:13:38Z</time>
      </trkpt>
      <trkpt lat="43.234008" lon="-4.992804">
        <ele>1429.723</ele>
        <time>2018-10-13T19:13:43Z</time>
      </trkpt>
      <trkpt lat="43.234051" lon="-4.992824">
        <ele>1429.525</ele>
        <time>2018-10-13T19:13:48Z</time>
      </trkpt>
      <trkpt lat="43.234097" lon="-4.992818">
        <ele>1429.808</ele>
        <time>2018-10-13T19:13:53Z</time>
      </trkpt>
      <trkpt lat="43.234144" lon="-4.992806">
        <ele>1429.851</ele>
        <time>2018-10-13T19:13:58Z</time>
      </trkpt>
      <trkpt lat="43.234172" lon="-4.992754">
        <ele>1430.278</ele>
        <time>2018-10-13T19:14:05Z</time>
      </trkpt>
      <trkpt lat="43.234215" lon="-4.992779">
        <ele>1429.037</ele>
        <time>2018-10-13T19:14:22Z</time>
      </trkpt>
      <trkpt lat="43.234263" lon="-4.992784">
        <ele>1428.044</ele>
        <time>2018-10-13T19:14:39Z</time>
      </trkpt>
      <trkpt lat="43.234310" lon="-4.992774">
        <ele>1426.835</ele>
        <time>2018-10-13T19:14:51Z</time>
      </trkpt>
      <trkpt lat="43.234349" lon="-4.992805">
        <ele>1425.184</ele>
        <time>2018-10-13T19:14:59Z</time>
      </trkpt>
      <trkpt lat="43.234393" lon="-4.992780">
        <ele>1424.730</ele>
        <time>2018-10-13T19:15:06Z</time>
      </trkpt>
      <trkpt lat="43.234436" lon="-4.992745">
        <ele>1424.058</ele>
        <time>2018-10-13T19:15:15Z</time>
      </trkpt>
      <trkpt lat="43.234480" lon="-4.992757">
        <ele>1423.975</ele>
        <time>2018-10-13T19:15:21Z</time>
      </trkpt>
      <trkpt lat="43.234518" lon="-4.992814">
        <ele>1423.728</ele>
        <time>2018-10-13T19:15:38Z</time>
      </trkpt>
      <trkpt lat="43.234564" lon="-4.992840">
        <ele>1423.620</ele>
        <time>2018-10-13T19:16:01Z</time>
      </trkpt>
      <trkpt lat="43.234625" lon="-4.992826">
        <ele>1480.995</ele>
        <time>2014-08-28T05:23:01Z</time>
      </trkpt>
      <trkpt lat="43.234575" lon="-4.992820">
        <ele>1480.249</ele>
        <time>2014-08-28T05:23:29Z</time>
      </trkpt>
      <trkpt lat="43.234525" lon="-4.992793">
        <ele>1480.723</ele>
        <time>2014-08-28T05:23:38Z</time>
      </trkpt>
      <trkpt lat="43.234479" lon="-4.992756">
        <ele>1481.307</ele>
        <time>2014-08-28T05:23:50Z</time>
      </trkpt>
      <trkpt lat="43.234472" lon="-4.992756">
        <ele>1480.847</ele>
        <time>2014-08-28T05:23:51Z</time>
      </trkpt>
      <trkpt lat="43.234373" lon="-4.992791">
        <ele>1480.019</ele>
        <time>2014-08-28T05:24:17Z</time>
      </trkpt>
      <trkpt lat="43.234322" lon="-4.992788">
        <ele>1482.380</ele>
        <time>2014-08-28T05:24:35Z</time>
      </trkpt>
      <trkpt lat="43.234272" lon="-4.992806">
        <ele>1482.533</ele>
        <time>2014-08-28T05:24:51Z</time>
      </trkpt>
      <trkpt lat="43.234225" lon="-4.992811">
        <ele>1484.742</ele>
        <time>2014-08-28T05:25:02Z</time>
      </trkpt>
      <trkpt lat="43.234217" lon="-4.992811">
        <ele>1484.769</ele>
        <time>2014-08-28T05:25:03Z</time>
      </trkpt>
      <trkpt lat="43.234128" lon="-4.992855">
        <ele>1485.915</ele>
        <time>2014-08-28T05:25:16Z</time>
      </trkpt>
      <trkpt lat="43.234082" lon="-4.992838">
        <ele>1485.251</ele>
        <time>2014-08-28T05:25:23Z</time>
      </trkpt>
      <trkpt lat="43.234038" lon="-4.992823">
        <ele>1485.501</ele>
        <time>2014-08-28T05:25:28Z</time>
      </trkpt>
      <trkpt lat="43.233987" lon="-4.992810">
        <ele>1485.611</ele>
        <time>2014-08-28T05:25:33Z</time>
      </trkpt>
      <trkpt lat="43.233935" lon="-4.992810">
        <ele>1485.607</ele>
        <time>2014-08-28T05:25:38Z</time>
      </trkpt>
      <trkpt lat="43.233892" lon="-4.992788">
        <ele>1486.753</ele>
        <time>2014-08-28T05:25:44Z</time>
      </trkpt>
      <trkpt lat="43.233853" lon="-4.992736">
        <ele>1487.055</ele>
        <time>2014-08-28T05:25:56Z</time>
      </trkpt>
      <trkpt lat="43.233818" lon="-4.992688">
        <ele>1487.736</ele>
        <time>2014-08-28T05:26:04Z</time>
      </trkpt>
      <trkpt lat="43.233812" lon="-4.992678">
        <ele>1487.869</ele>
        <time>2014-08-28T05:26:05Z</time>
      </trkpt>
      <trkpt lat="43.233775" lon="-4.992563">
        <ele>1487.248</ele>
        <time>2014-08-28T05:26:18Z</time>
      </trkpt>
      <trkpt lat="43.233737" lon="-4.992513">
        <ele>1488.955</ele>
        <time>2014-08-28T05:26:28Z</time>
      </trkpt>
      <trkpt lat="43.233727" lon="-4.992445">
        <ele>1490.181</ele>
        <time>2014-08-28T05:26:39Z</time>
      </trkpt>
      <trkpt lat="43.233727" lon="-4.992376">
        <ele>1490.396</ele>
        <time>2014-08-28T05:26:50Z</time>
      </trkpt>
      <trkpt lat="43.233720" lon="-4.992308">
        <ele>1491.231</ele>
        <time>2014-08-28T05:27:01Z</time>
      </trkpt>
      <trkpt lat="43.233713" lon="-4.992236">
        <ele>1492.124</ele>
        <time>2014-08-28T05:27:14Z</time>
      </trkpt>
      <trkpt lat="43.233707" lon="-4.992233">
        <ele>1492.007</ele>
        <time>2014-08-28T05:27:15Z</time>
      </trkpt>
      <trkpt lat="43.233618" lon="-4.992180">
        <ele>1495.587</ele>
        <time>2014-08-28T05:27:37Z</time>
      </trkpt>
      <trkpt lat="43.233587" lon="-4.992125">
        <ele>1496.759</ele>
        <time>2014-08-28T05:27:51Z</time>
      </trkpt>
      <trkpt lat="43.233535" lon="-4.992133">
        <ele>1499.020</ele>
        <time>2014-08-28T05:28:06Z</time>
      </trkpt>
      <trkpt lat="43.233487" lon="-4.992113">
        <ele>1501.343</ele>
        <time>2014-08-28T05:28:17Z</time>
      </trkpt>
      <trkpt lat="43.233482" lon="-4.992106">
        <ele>1501.572</ele>
        <time>2014-08-28T05:28:18Z</time>
      </trkpt>
      <trkpt lat="43.233408" lon="-4.992035">
        <ele>1502.729</ele>
        <time>2014-08-28T05:28:36Z</time>
      </trkpt>
      <trkpt lat="43.233375" lon="-4.991978">
        <ele>1504.445</ele>
        <time>2014-08-28T05:28:48Z</time>
      </trkpt>
      <trkpt lat="43.233337" lon="-4.991930">
        <ele>1506.577</ele>
        <time>2014-08-28T05:28:58Z</time>
      </trkpt>
      <trkpt lat="43.233287" lon="-4.991943">
        <ele>1507.861</ele>
        <time>2014-08-28T05:29:08Z</time>
      </trkpt>
      <trkpt lat="43.233237" lon="-4.991918">
        <ele>1509.827</ele>
        <time>2014-08-28T05:29:24Z</time>
      </trkpt>
      <trkpt lat="43.233233" lon="-4.991920">
        <ele>1510.307</ele>
        <time>2014-08-28T05:29:25Z</time>
      </trkpt>
      <trkpt lat="43.233150" lon="-4.991860">
        <ele>1512.635</ele>
        <time>2014-08-28T05:29:46Z</time>
      </trkpt>
      <trkpt lat="43.233099" lon="-4.991846">
        <ele>1513.087</ele>
        <time>2014-08-28T05:29:55Z</time>
      </trkpt>
      <trkpt lat="43.233047" lon="-4.991855">
        <ele>1515.098</ele>
        <time>2014-08-28T05:30:08Z</time>
      </trkpt>
      <trkpt lat="43.232998" lon="-4.991825">
        <ele>1515.811</ele>
        <time>2014-08-28T05:30:23Z</time>
      </trkpt>
      <trkpt lat="43.232947" lon="-4.991816">
        <ele>1516.780</ele>
        <time>2014-08-28T05:30:29Z</time>
      </trkpt>
      <trkpt lat="43.232942" lon="-4.991816">
        <ele>1517.087</ele>
        <time>2014-08-28T05:30:30Z</time>
      </trkpt>
      <trkpt lat="43.232852" lon="-4.991778">
        <ele>1518.423</ele>
        <time>2014-08-28T05:30:55Z</time>
      </trkpt>
      <trkpt lat="43.232808" lon="-4.991746">
        <ele>1518.415</ele>
        <time>2014-08-28T05:31:02Z</time>
      </trkpt>
      <trkpt lat="43.232757" lon="-4.991736">
        <ele>1520.065</ele>
        <time>2014-08-28T05:31:11Z</time>
      </trkpt>
      <trkpt lat="43.232708" lon="-4.991743">
        <ele>1521.911</ele>
        <time>2014-08-28T05:31:23Z</time>
      </trkpt>
      <trkpt lat="43.232655" lon="-4.991738">
        <ele>1522.507</ele>
        <time>2014-08-28T05:31:31Z</time>
      </trkpt>
      <trkpt lat="43.232648" lon="-4.991738">
        <ele>1522.519</ele>
        <time>2014-08-28T05:31:32Z</time>
      </trkpt>
      <trkpt lat="43.232558" lon="-4.991695">
        <ele>1524.291</ele>
        <time>2014-08-28T05:31:50Z</time>
      </trkpt>
      <trkpt lat="43.232507" lon="-4.991685">
        <ele>1526.372</ele>
        <time>2014-08-28T05:32:00Z</time>
      </trkpt>
      <trkpt lat="43.232453" lon="-4.991675">
        <ele>1527.365</ele>
        <time>2014-08-28T05:32:09Z</time>
      </trkpt>
      <trkpt lat="43.232407" lon="-4.991660">
        <ele>1527.694</ele>
        <time>2014-08-28T05:32:17Z</time>
      </trkpt>
      <trkpt lat="43.232360" lon="-4.991638">
        <ele>1529.081</ele>
        <time>2014-08-28T05:32:25Z</time>
      </trkpt>
      <trkpt lat="43.232315" lon="-4.991616">
        <ele>1530.547</ele>
        <time>2014-08-28T05:32:32Z</time>
      </trkpt>
      <trkpt lat="43.232310" lon="-4.991608">
        <ele>1530.735</ele>
        <time>2014-08-28T05:32:33Z</time>
      </trkpt>
      <trkpt lat="43.232218" lon="-4.991571">
        <ele>1531.986</ele>
        <time>2014-08-28T05:32:51Z</time>
      </trkpt>
      <trkpt lat="43.232172" lon="-4.991538">
        <ele>1533.414</ele>
        <time>2014-08-28T05:33:01Z</time>
      </trkpt>
      <trkpt lat="43.232122" lon="-4.991516">
        <ele>1534.007</ele>
        <time>2014-08-28T05:33:11Z</time>
      </trkpt>
      <trkpt lat="43.232072" lon="-4.991498">
        <ele>1535.951</ele>
        <time>2014-08-28T05:33:22Z</time>
      </trkpt>
      <trkpt lat="43.232018" lon="-4.991496">
        <ele>1537.863</ele>
        <time>2014-08-28T05:33:32Z</time>
      </trkpt>
      <trkpt lat="43.231967" lon="-4.991483">
        <ele>1539.024</ele>
        <time>2014-08-28T05:33:40Z</time>
      </trkpt>
      <trkpt lat="43.231960" lon="-4.991483">
        <ele>1539.237</ele>
        <time>2014-08-28T05:33:41Z</time>
      </trkpt>
      <trkpt lat="43.231865" lon="-4.991470">
        <ele>1539.916</ele>
        <time>2014-08-28T05:33:55Z</time>
      </trkpt>
      <trkpt lat="43.231823" lon="-4.991426">
        <ele>1541.253</ele>
        <time>2014-08-28T05:34:03Z</time>
      </trkpt>
      <trkpt lat="43.231787" lon="-4.991378">
        <ele>1542.539</ele>
        <time>2014-08-28T05:34:11Z</time>
      </trkpt>
      <trkpt lat="43.231740" lon="-4.991341">
        <ele>1542.817</ele>
        <time>2014-08-28T05:34:19Z</time>
      </trkpt>
      <trkpt lat="43.231692" lon="-4.991310">
        <ele>1544.687</ele>
        <time>2014-08-28T05:34:43Z</time>
      </trkpt>
      <trkpt lat="43.231683" lon="-4.991306">
        <ele>1544.515</ele>
        <time>2014-08-28T05:34:44Z</time>
      </trkpt>
      <trkpt lat="43.231607" lon="-4.991356">
        <ele>1545.407</ele>
        <time>2014-08-28T05:34:55Z</time>
      </trkpt>
      <trkpt lat="43.231560" lon="-4.991388">
        <ele>1544.659</ele>
        <time>2014-08-28T05:35:02Z</time>
      </trkpt>
      <trkpt lat="43.231508" lon="-4.991378">
        <ele>1545.511</ele>
        <time>2014-08-28T05:35:13Z</time>
      </trkpt>
      <trkpt lat="43.231460" lon="-4.991365">
        <ele>1545.822</ele>
        <time>2014-08-28T05:35:19Z</time>
      </trkpt>
      <trkpt lat="43.231410" lon="-4.991350">
        <ele>1546.535</ele>
        <time>2014-08-28T05:35:25Z</time>
      </trkpt>
      <trkpt lat="43.231365" lon="-4.991331">
        <ele>1546.264</ele>
        <time>2014-08-28T05:35:31Z</time>
      </trkpt>
      <trkpt lat="43.231313" lon="-4.991321">
        <ele>1547.351</ele>
        <time>2014-08-28T05:35:38Z</time>
      </trkpt>
      <trkpt lat="43.231267" lon="-4.991328">
        <ele>1548.987</ele>
        <time>2014-08-28T05:35:44Z</time>
      </trkpt>
      <trkpt lat="43.231213" lon="-4.991333">
        <ele>1549.456</ele>
        <time>2014-08-28T05:35:51Z</time>
      </trkpt>
      <trkpt lat="43.231208" lon="-4.991330">
        <ele>1549.459</ele>
        <time>2014-08-28T05:35:52Z</time>
      </trkpt>
      <trkpt lat="43.231123" lon="-4.991283">
        <ele>1551.814</ele>
        <time>2014-08-28T05:36:06Z</time>
      </trkpt>
      <trkpt lat="43.231077" lon="-4.991268">
        <ele>1551.607</ele>
        <time>2014-08-28T05:36:11Z</time>
      </trkpt>
      <trkpt lat="43.231030" lon="-4.991240">
        <ele>1552.633</ele>
        <time>2014-08-28T05:36:17Z</time>
      </trkpt>
      <trkpt lat="43.230993" lon="-4.991200">
        <ele>1553.495</ele>
        <time>2014-08-28T05:36:23Z</time>
      </trkpt>
      <trkpt lat="43.230952" lon="-4.991161">
        <ele>1553.386</ele>
        <time>2014-08-28T05:36:28Z</time>
      </trkpt>
      <trkpt lat="43.230908" lon="-4.991123">
        <ele>1554.529</ele>
        <time>2014-08-28T05:36:34Z</time>
      </trkpt>
      <trkpt lat="43.230872" lon="-4.991085">
        <ele>1554.738</ele>
        <time>2014-08-28T05:36:39Z</time>
      </trkpt>
      <trkpt lat="43.230827" lon="-4.991055">
        <ele>1554.975</ele>
        <time>2014-08-28T05:36:46Z</time>
      </trkpt>
      <trkpt lat="43.230773" lon="-4.991060">
        <ele>1555.361</ele>
        <time>2014-08-28T05:36:53Z</time>
      </trkpt>
      <trkpt lat="43.230769" lon="-4.991066">
        <ele>1555.155</ele>
        <time>2014-08-28T05:36:54Z</time>
      </trkpt>
      <trkpt lat="43.230688" lon="-4.991088">
        <ele>1557.607</ele>
        <time>2014-08-28T05:37:15Z</time>
      </trkpt>
      <trkpt lat="43.230642" lon="-4.991068">
        <ele>1559.317</ele>
        <time>2014-08-28T05:37:25Z</time>
      </trkpt>
      <trkpt lat="43.230597" lon="-4.991031">
        <ele>1560.607</ele>
        <time>2014-08-28T05:37:33Z</time>
      </trkpt>
      <trkpt lat="43.230547" lon="-4.991031">
        <ele>1562.173</ele>
        <time>2014-08-28T05:37:43Z</time>
      </trkpt>
      <trkpt lat="43.230493" lon="-4.991035">
        <ele>1564.095</ele>
        <time>2014-08-28T05:37:53Z</time>
      </trkpt>
      <trkpt lat="43.230445" lon="-4.991041">
        <ele>1564.286</ele>
        <time>2014-08-28T05:37:59Z</time>
      </trkpt>
      <trkpt lat="43.230435" lon="-4.991043">
        <ele>1564.699</ele>
        <time>2014-08-28T05:38:00Z</time>
      </trkpt>
      <trkpt lat="43.230347" lon="-4.991031">
        <ele>1566.828</ele>
        <time>2014-08-28T05:38:10Z</time>
      </trkpt>
      <trkpt lat="43.230302" lon="-4.990996">
        <ele>1566.935</ele>
        <time>2014-08-28T05:38:17Z</time>
      </trkpt>
      <trkpt lat="43.230255" lon="-4.990960">
        <ele>1568.651</ele>
        <time>2014-08-28T05:38:26Z</time>
      </trkpt>
      <trkpt lat="43.230205" lon="-4.990933">
        <ele>1568.829</ele>
        <time>2014-08-28T05:38:36Z</time>
      </trkpt>
      <trkpt lat="43.230152" lon="-4.990923">
        <ele>1568.800</ele>
        <time>2014-08-28T05:38:45Z</time>
      </trkpt>
      <trkpt lat="43.230102" lon="-4.990911">
        <ele>1567.320</ele>
        <time>2014-08-28T05:38:54Z</time>
      </trkpt>
      <trkpt lat="43.230052" lon="-4.990918">
        <ele>1566.107</ele>
        <time>2014-08-28T05:39:01Z</time>
      </trkpt>
      <trkpt lat="43.230047" lon="-4.990916">
        <ele>1566.020</ele>
        <time>2014-08-28T05:39:02Z</time>
      </trkpt>
      <trkpt lat="43.230055" lon="-4.990988">
        <ele>1563.732</ele>
        <time>2014-08-28T05:39:35Z</time>
      </trkpt>
      <trkpt lat="43.230103" lon="-4.991010">
        <ele>1563.893</ele>
        <time>2014-08-28T05:39:40Z</time>
      </trkpt>
      <trkpt lat="43.230155" lon="-4.991021">
        <ele>1565.056</ele>
        <time>2014-08-28T05:39:45Z</time>
      </trkpt>
      <trkpt lat="43.230117" lon="-4.990980">
        <ele>1566.975</ele>
        <time>2014-08-28T05:40:05Z</time>
      </trkpt>
      <trkpt lat="43.230108" lon="-4.990980">
        <ele>1566.972</ele>
        <time>2014-08-28T05:40:06Z</time>
      </trkpt>
      <trkpt lat="43.230015" lon="-4.990956">
        <ele>1568.328</ele>
        <time>2014-08-28T05:40:18Z</time>
      </trkpt>
      <trkpt lat="43.229968" lon="-4.990961">
        <ele>1569.594</ele>
        <time>2014-08-28T05:40:23Z</time>
      </trkpt>
      <trkpt lat="43.229918" lon="-4.990946">
        <ele>1570.457</ele>
        <time>2014-08-28T05:40:29Z</time>
      </trkpt>
      <trkpt lat="43.229870" lon="-4.990931">
        <ele>1570.722</ele>
        <time>2014-08-28T05:40:35Z</time>
      </trkpt>
      <trkpt lat="43.229817" lon="-4.990921">
        <ele>1571.507</ele>
        <time>2014-08-28T05:40:43Z</time>
      </trkpt>
      <trkpt lat="43.229770" lon="-4.990886">
        <ele>1572.137</ele>
        <time>2014-08-28T05:40:51Z</time>
      </trkpt>
      <trkpt lat="43.229750" lon="-4.990820">
        <ele>1573.179</ele>
        <time>2014-08-28T05:41:02Z</time>
      </trkpt>
      <trkpt lat="43.229713" lon="-4.990770">
        <ele>1574.570</ele>
        <time>2014-08-28T05:41:15Z</time>
      </trkpt>
      <trkpt lat="43.229708" lon="-4.990761">
        <ele>1574.643</ele>
        <time>2014-08-28T05:41:16Z</time>
      </trkpt>
      <trkpt lat="43.229630" lon="-4.990690">
        <ele>1578.472</ele>
        <time>2014-08-28T05:41:36Z</time>
      </trkpt>
      <trkpt lat="43.229598" lon="-4.990635">
        <ele>1580.189</ele>
        <time>2014-08-28T05:41:49Z</time>
      </trkpt>
      <trkpt lat="43.229575" lon="-4.990576">
        <ele>1580.825</ele>
        <time>2014-08-28T05:42:00Z</time>
      </trkpt>
      <trkpt lat="43.229535" lon="-4.990528">
        <ele>1582.586</ele>
        <time>2014-08-28T05:42:16Z</time>
      </trkpt>
      <trkpt lat="43.229497" lon="-4.990485">
        <ele>1584.960</ele>
        <time>2014-08-28T05:42:26Z</time>
      </trkpt>
      <trkpt lat="43.229493" lon="-4.990480">
        <ele>1585.126</ele>
        <time>2014-08-28T05:42:27Z</time>
      </trkpt>
      <trkpt lat="43.229452" lon="-4.990363">
        <ele>1587.207</ele>
        <time>2014-08-28T05:42:44Z</time>
      </trkpt>
      <trkpt lat="43.229420" lon="-4.990315">
        <ele>1587.736</ele>
        <time>2014-08-28T05:42:49Z</time>
      </trkpt>
      <trkpt lat="43.229400" lon="-4.990246">
        <ele>1589.178</ele>
        <time>2014-08-28T05:43:01Z</time>
      </trkpt>
      <trkpt lat="43.229388" lon="-4.990180">
        <ele>1589.959</ele>
        <time>2014-08-28T05:43:09Z</time>
      </trkpt>
      <trkpt lat="43.229378" lon="-4.990110">
        <ele>1590.282</ele>
        <time>2014-08-28T05:43:17Z</time>
      </trkpt>
      <trkpt lat="43.229375" lon="-4.990038">
        <ele>1591.531</ele>
        <time>2014-08-28T05:43:27Z</time>
      </trkpt>
      <trkpt lat="43.229375" lon="-4.990031">
        <ele>1591.878</ele>
        <time>2014-08-28T05:43:28Z</time>
      </trkpt>
      <trkpt lat="43.229370" lon="-4.989901">
        <ele>1592.424</ele>
        <time>2014-08-28T05:43:44Z</time>
      </trkpt>
      <trkpt lat="43.229333" lon="-4.989856">
        <ele>1593.586</ele>
        <time>2014-08-28T05:43:51Z</time>
      </trkpt>
      <trkpt lat="43.229297" lon="-4.989810">
        <ele>1593.760</ele>
        <time>2014-08-28T05:43:59Z</time>
      </trkpt>
      <trkpt lat="43.229268" lon="-4.989753">
        <ele>1595.326</ele>
        <time>2014-08-28T05:44:07Z</time>
      </trkpt>
      <trkpt lat="43.229232" lon="-4.989711">
        <ele>1595.807</ele>
        <time>2014-08-28T05:44:14Z</time>
      </trkpt>
      <trkpt lat="43.229192" lon="-4.989663">
        <ele>1596.326</ele>
        <time>2014-08-28T05:44:23Z</time>
      </trkpt>
      <trkpt lat="43.229167" lon="-4.989610">
        <ele>1597.888</ele>
        <time>2014-08-28T05:44:31Z</time>
      </trkpt>
      <trkpt lat="43.229163" lon="-4.989600">
        <ele>1597.789</ele>
        <time>2014-08-28T05:44:32Z</time>
      </trkpt>
      <trkpt lat="43.229095" lon="-4.989520">
        <ele>1599.012</ele>
        <time>2014-08-28T05:44:46Z</time>
      </trkpt>
      <trkpt lat="43.229053" lon="-4.989483">
        <ele>1600.021</ele>
        <time>2014-08-28T05:44:52Z</time>
      </trkpt>
      <trkpt lat="43.229002" lon="-4.989463">
        <ele>1602.318</ele>
        <time>2014-08-28T05:45:08Z</time>
      </trkpt>
      <trkpt lat="43.228955" lon="-4.989483">
        <ele>1605.494</ele>
        <time>2014-08-28T05:45:26Z</time>
      </trkpt>
      <trkpt lat="43.228908" lon="-4.989450">
        <ele>1604.868</ele>
        <time>2014-08-28T05:45:36Z</time>
      </trkpt>
      <trkpt lat="43.228905" lon="-4.989446">
        <ele>1604.942</ele>
        <time>2014-08-28T05:45:37Z</time>
      </trkpt>
      <trkpt lat="43.228823" lon="-4.989373">
        <ele>1606.326</ele>
        <time>2014-08-28T05:45:50Z</time>
      </trkpt>
      <trkpt lat="43.228775" lon="-4.989350">
        <ele>1608.407</ele>
        <time>2014-08-28T05:46:00Z</time>
      </trkpt>
      <trkpt lat="43.228722" lon="-4.989350">
        <ele>1608.284</ele>
        <time>2014-08-28T05:46:08Z</time>
      </trkpt>
      <trkpt lat="43.228672" lon="-4.989368">
        <ele>1610.466</ele>
        <time>2014-08-28T05:46:17Z</time>
      </trkpt>
      <trkpt lat="43.228618" lon="-4.989373">
        <ele>1612.297</ele>
        <time>2014-08-28T05:46:26Z</time>
      </trkpt>
      <trkpt lat="43.228570" lon="-4.989401">
        <ele>1612.790</ele>
        <time>2014-08-28T05:46:35Z</time>
      </trkpt>
      <trkpt lat="43.228523" lon="-4.989375">
        <ele>1613.519</ele>
        <time>2014-08-28T05:46:46Z</time>
      </trkpt>
      <trkpt lat="43.228517" lon="-4.989376">
        <ele>1613.496</ele>
        <time>2014-08-28T05:46:47Z</time>
      </trkpt>
      <trkpt lat="43.228440" lon="-4.989296">
        <ele>1615.072</ele>
        <time>2014-08-28T05:47:04Z</time>
      </trkpt>
      <trkpt lat="43.228395" lon="-4.989258">
        <ele>1616.045</ele>
        <time>2014-08-28T05:47:13Z</time>
      </trkpt>
      <trkpt lat="43.228347" lon="-4.989235">
        <ele>1617.847</ele>
        <time>2014-08-28T05:47:21Z</time>
      </trkpt>
      <trkpt lat="43.228312" lon="-4.989181">
        <ele>1617.711</ele>
        <time>2014-08-28T05:47:33Z</time>
      </trkpt>
      <trkpt lat="43.228262" lon="-4.989185">
        <ele>1619.507</ele>
        <time>2014-08-28T05:47:44Z</time>
      </trkpt>
      <trkpt lat="43.228218" lon="-4.989141">
        <ele>1619.892</ele>
        <time>2014-08-28T05:47:59Z</time>
      </trkpt>
      <trkpt lat="43.228215" lon="-4.989140">
        <ele>1620.544</ele>
        <time>2014-08-28T05:48:00Z</time>
      </trkpt>
      <trkpt lat="43.228128" lon="-4.989148">
        <ele>1624.045</ele>
        <time>2014-08-28T05:48:26Z</time>
      </trkpt>
      <trkpt lat="43.228080" lon="-4.989176">
        <ele>1626.678</ele>
        <time>2014-08-28T05:48:39Z</time>
      </trkpt>
      <trkpt lat="43.228030" lon="-4.989163">
        <ele>1627.577</ele>
        <time>2014-08-28T05:48:49Z</time>
      </trkpt>
      <trkpt lat="43.227993" lon="-4.989115">
        <ele>1627.664</ele>
        <time>2014-08-28T05:48:56Z</time>
      </trkpt>
      <trkpt lat="43.227952" lon="-4.989068">
        <ele>1628.220</ele>
        <time>2014-08-28T05:49:08Z</time>
      </trkpt>
      <trkpt lat="43.227947" lon="-4.989068">
        <ele>1628.383</ele>
        <time>2014-08-28T05:49:09Z</time>
      </trkpt>
      <trkpt lat="43.227848" lon="-4.989073">
        <ele>1630.625</ele>
        <time>2014-08-28T05:49:22Z</time>
      </trkpt>
      <trkpt lat="43.227797" lon="-4.989071">
        <ele>1632.017</ele>
        <time>2014-08-28T05:49:31Z</time>
      </trkpt>
      <trkpt lat="43.227749" lon="-4.989051">
        <ele>1632.307</ele>
        <time>2014-08-28T05:49:40Z</time>
      </trkpt>
      <trkpt lat="43.227702" lon="-4.989016">
        <ele>1633.566</ele>
        <time>2014-08-28T05:49:47Z</time>
      </trkpt>
      <trkpt lat="43.227660" lon="-4.988980">
        <ele>1635.368</ele>
        <time>2014-08-28T05:49:53Z</time>
      </trkpt>
      <trkpt lat="43.227613" lon="-4.988953">
        <ele>1636.029</ele>
        <time>2014-08-28T05:49:59Z</time>
      </trkpt>
      <trkpt lat="43.227570" lon="-4.988921">
        <ele>1637.362</ele>
        <time>2014-08-28T05:50:07Z</time>
      </trkpt>
      <trkpt lat="43.227532" lon="-4.988870">
        <ele>1638.631</ele>
        <time>2014-08-28T05:50:16Z</time>
      </trkpt>
      <trkpt lat="43.227525" lon="-4.988866">
        <ele>1638.678</ele>
        <time>2014-08-28T05:50:17Z</time>
      </trkpt>
      <trkpt lat="43.227435" lon="-4.988820">
        <ele>1640.084</ele>
        <time>2014-08-28T05:50:31Z</time>
      </trkpt>
      <trkpt lat="43.227385" lon="-4.988810">
        <ele>1641.079</ele>
        <time>2014-08-28T05:50:39Z</time>
      </trkpt>
      <trkpt lat="43.227345" lon="-4.988773">
        <ele>1642.805</ele>
        <time>2014-08-28T05:50:49Z</time>
      </trkpt>
      <trkpt lat="43.227300" lon="-4.988741">
        <ele>1642.525</ele>
        <time>2014-08-28T05:50:58Z</time>
      </trkpt>
      <trkpt lat="43.227248" lon="-4.988755">
        <ele>1642.807</ele>
        <time>2014-08-28T05:51:09Z</time>
      </trkpt>
      <trkpt lat="43.227197" lon="-4.988736">
        <ele>1645.045</ele>
        <time>2014-08-28T05:51:21Z</time>
      </trkpt>
      <trkpt lat="43.227198" lon="-4.988726">
        <ele>1645.247</ele>
        <time>2014-08-28T05:51:22Z</time>
      </trkpt>
      <trkpt lat="43.227178" lon="-4.988611">
        <ele>1646.268</ele>
        <time>2014-08-28T05:51:36Z</time>
      </trkpt>
      <trkpt lat="43.227147" lon="-4.988553">
        <ele>1647.961</ele>
        <time>2014-08-28T05:51:51Z</time>
      </trkpt>
      <trkpt lat="43.227117" lon="-4.988500">
        <ele>1648.870</ele>
        <time>2014-08-28T05:52:01Z</time>
      </trkpt>
      <trkpt lat="43.227088" lon="-4.988441">
        <ele>1650.127</ele>
        <time>2014-08-28T05:52:13Z</time>
      </trkpt>
      <trkpt lat="43.227038" lon="-4.988418">
        <ele>1651.783</ele>
        <time>2014-08-28T05:52:27Z</time>
      </trkpt>
      <trkpt lat="43.227035" lon="-4.988420">
        <ele>1652.433</ele>
        <time>2014-08-28T05:52:28Z</time>
      </trkpt>
      <trkpt lat="43.226940" lon="-4.988380">
        <ele>1655.523</ele>
        <time>2014-08-28T05:52:47Z</time>
      </trkpt>
      <trkpt lat="43.226892" lon="-4.988350">
        <ele>1656.315</ele>
        <time>2014-08-28T05:52:56Z</time>
      </trkpt>
      <trkpt lat="43.226843" lon="-4.988328">
        <ele>1657.707</ele>
        <time>2014-08-28T05:53:04Z</time>
      </trkpt>
      <trkpt lat="43.226792" lon="-4.988320">
        <ele>1658.831</ele>
        <time>2014-08-28T05:53:15Z</time>
      </trkpt>
      <trkpt lat="43.226742" lon="-4.988321">
        <ele>1661.313</ele>
        <time>2014-08-28T05:53:39Z</time>
      </trkpt>
      <trkpt lat="43.226735" lon="-4.988321">
        <ele>1661.294</ele>
        <time>2014-08-28T05:53:40Z</time>
      </trkpt>
      <trkpt lat="43.226647" lon="-4.988301">
        <ele>1663.997</ele>
        <time>2014-08-28T05:54:01Z</time>
      </trkpt>
      <trkpt lat="43.226598" lon="-4.988278">
        <ele>1664.256</ele>
        <time>2014-08-28T05:54:07Z</time>
      </trkpt>
      <trkpt lat="43.226552" lon="-4.988260">
        <ele>1664.313</ele>
        <time>2014-08-28T05:54:13Z</time>
      </trkpt>
      <trkpt lat="43.226512" lon="-4.988223">
        <ele>1665.579</ele>
        <time>2014-08-28T05:54:19Z</time>
      </trkpt>
      <trkpt lat="43.226465" lon="-4.988205">
        <ele>1666.615</ele>
        <time>2014-08-28T05:54:27Z</time>
      </trkpt>
      <trkpt lat="43.226415" lon="-4.988196">
        <ele>1667.265</ele>
        <time>2014-08-28T05:54:35Z</time>
      </trkpt>
      <trkpt lat="43.226373" lon="-4.988156">
        <ele>1668.411</ele>
        <time>2014-08-28T05:54:45Z</time>
      </trkpt>
      <trkpt lat="43.226372" lon="-4.988151">
        <ele>1668.407</ele>
        <time>2014-08-28T05:54:46Z</time>
      </trkpt>
      <trkpt lat="43.226287" lon="-4.988080">
        <ele>1671.699</ele>
        <time>2014-08-28T05:55:18Z</time>
      </trkpt>
      <trkpt lat="43.226247" lon="-4.988031">
        <ele>1673.551</ele>
        <time>2014-08-28T05:55:32Z</time>
      </trkpt>
      <trkpt lat="43.226212" lon="-4.987986">
        <ele>1673.872</ele>
        <time>2014-08-28T05:55:41Z</time>
      </trkpt>
      <trkpt lat="43.226170" lon="-4.987945">
        <ele>1677.085</ele>
        <time>2014-08-28T05:55:54Z</time>
      </trkpt>
      <trkpt lat="43.226167" lon="-4.987943">
        <ele>1677.434</ele>
        <time>2014-08-28T05:55:55Z</time>
      </trkpt>
      <trkpt lat="43.226152" lon="-4.987848">
        <ele>1680.171</ele>
        <time>2014-08-28T05:56:27Z</time>
      </trkpt>
      <trkpt lat="43.226142" lon="-4.987778">
        <ele>1681.957</ele>
        <time>2014-08-28T05:56:42Z</time>
      </trkpt>
      <trkpt lat="43.226097" lon="-4.987748">
        <ele>1683.142</ele>
        <time>2014-08-28T05:56:49Z</time>
      </trkpt>
      <trkpt lat="43.226090" lon="-4.987680">
        <ele>1686.822</ele>
        <time>2014-08-28T05:57:08Z</time>
      </trkpt>
      <trkpt lat="43.226095" lon="-4.987673">
        <ele>1686.714</ele>
        <time>2014-08-28T05:57:09Z</time>
      </trkpt>
      <trkpt lat="43.226105" lon="-4.987615">
        <ele>1688.007</ele>
        <time>2014-08-28T05:57:29Z</time>
      </trkpt>
      <trkpt lat="43.226075" lon="-4.987560">
        <ele>1689.672</ele>
        <time>2014-08-28T05:57:37Z</time>
      </trkpt>
      <trkpt lat="43.226025" lon="-4.987561">
        <ele>1690.324</ele>
        <time>2014-08-28T05:57:45Z</time>
      </trkpt>
      <trkpt lat="43.226005" lon="-4.987469">
        <ele>1692.095</ele>
        <time>2014-08-28T05:58:00Z</time>
      </trkpt>
      <trkpt lat="43.226034" lon="-4.987359">
        <ele>1693.078</ele>
        <time>2014-08-28T05:58:11Z</time>
      </trkpt>
      <trkpt lat="43.226035" lon="-4.987323">
        <ele>1693.527</ele>
        <time>2014-08-28T05:58:15Z</time>
      </trkpt>
      <trkpt lat="43.225965" lon="-4.987300">
        <ele>1693.594</ele>
        <time>2014-08-28T05:58:33Z</time>
      </trkpt>
      <trkpt lat="43.225923" lon="-4.987340">
        <ele>1694.720</ele>
        <time>2014-08-28T05:58:40Z</time>
      </trkpt>
      <trkpt lat="43.225877" lon="-4.987373">
        <ele>1695.816</ele>
        <time>2014-08-28T05:58:47Z</time>
      </trkpt>
      <trkpt lat="43.225848" lon="-4.987313">
        <ele>1696.676</ele>
        <time>2014-08-28T05:58:59Z</time>
      </trkpt>
      <trkpt lat="43.225810" lon="-4.987268">
        <ele>1699.013</ele>
        <time>2014-08-28T05:59:18Z</time>
      </trkpt>
      <trkpt lat="43.225807" lon="-4.987261">
        <ele>1698.907</ele>
        <time>2014-08-28T05:59:19Z</time>
      </trkpt>
      <trkpt lat="43.225772" lon="-4.987135">
        <ele>1701.579</ele>
        <time>2014-08-28T05:59:33Z</time>
      </trkpt>
      <trkpt lat="43.225772" lon="-4.987063">
        <ele>1702.271</ele>
        <time>2014-08-28T05:59:40Z</time>
      </trkpt>
      <trkpt lat="43.225770" lon="-4.987000">
        <ele>1701.862</ele>
        <time>2014-08-28T05:59:46Z</time>
      </trkpt>
      <trkpt lat="43.225772" lon="-4.986930">
        <ele>1703.585</ele>
        <time>2014-08-28T05:59:52Z</time>
      </trkpt>
      <trkpt lat="43.225760" lon="-4.986858">
        <ele>1705.754</ele>
        <time>2014-08-28T06:00:03Z</time>
      </trkpt>
      <trkpt lat="43.225753" lon="-4.986791">
        <ele>1706.771</ele>
        <time>2014-08-28T06:00:10Z</time>
      </trkpt>
      <trkpt lat="43.225755" lon="-4.986725">
        <ele>1706.917</ele>
        <time>2014-08-28T06:00:15Z</time>
      </trkpt>
      <trkpt lat="43.225748" lon="-4.986658">
        <ele>1707.618</ele>
        <time>2014-08-28T06:00:21Z</time>
      </trkpt>
      <trkpt lat="43.225748" lon="-4.986646">
        <ele>1707.698</ele>
        <time>2014-08-28T06:00:22Z</time>
      </trkpt>
      <trkpt lat="43.225723" lon="-4.986526">
        <ele>1710.317</ele>
        <time>2014-08-28T06:00:36Z</time>
      </trkpt>
      <trkpt lat="43.225710" lon="-4.986460">
        <ele>1711.707</ele>
        <time>2014-08-28T06:00:47Z</time>
      </trkpt>
      <trkpt lat="43.225658" lon="-4.986443">
        <ele>1712.539</ele>
        <time>2014-08-28T06:00:55Z</time>
      </trkpt>
      <trkpt lat="43.225622" lon="-4.986393">
        <ele>1713.871</ele>
        <time>2014-08-28T06:01:08Z</time>
      </trkpt>
      <trkpt lat="43.225615" lon="-4.986323">
        <ele>1715.662</ele>
        <time>2014-08-28T06:01:18Z</time>
      </trkpt>
      <trkpt lat="43.225583" lon="-4.986273">
        <ele>1716.825</ele>
        <time>2014-08-28T06:01:26Z</time>
      </trkpt>
      <trkpt lat="43.225582" lon="-4.986265">
        <ele>1717.084</ele>
        <time>2014-08-28T06:01:27Z</time>
      </trkpt>
      <trkpt lat="43.225498" lon="-4.986205">
        <ele>1720.261</ele>
        <time>2014-08-28T06:01:58Z</time>
      </trkpt>
      <trkpt lat="43.225450" lon="-4.986176">
        <ele>1720.977</ele>
        <time>2014-08-28T06:02:08Z</time>
      </trkpt>
      <trkpt lat="43.225402" lon="-4.986186">
        <ele>1721.249</ele>
        <time>2014-08-28T06:02:14Z</time>
      </trkpt>
      <trkpt lat="43.225353" lon="-4.986213">
        <ele>1721.402</ele>
        <time>2014-08-28T06:02:20Z</time>
      </trkpt>
      <trkpt lat="43.225304" lon="-4.986228">
        <ele>1722.722</ele>
        <time>2014-08-28T06:02:30Z</time>
      </trkpt>
      <trkpt lat="43.225297" lon="-4.986228">
        <ele>1722.807</ele>
        <time>2014-08-28T06:02:31Z</time>
      </trkpt>
      <trkpt lat="43.225210" lon="-4.986250">
        <ele>1725.282</ele>
        <time>2014-08-28T06:03:00Z</time>
      </trkpt>
      <trkpt lat="43.225175" lon="-4.986195">
        <ele>1726.284</ele>
        <time>2014-08-28T06:03:13Z</time>
      </trkpt>
      <trkpt lat="43.225123" lon="-4.986186">
        <ele>1727.585</ele>
        <time>2014-08-28T06:03:23Z</time>
      </trkpt>
      <trkpt lat="43.225070" lon="-4.986195">
        <ele>1728.378</ele>
        <time>2014-08-28T06:03:38Z</time>
      </trkpt>
      <trkpt lat="43.225065" lon="-4.986195">
        <ele>1728.297</ele>
        <time>2014-08-28T06:03:39Z</time>
      </trkpt>
      <trkpt lat="43.224997" lon="-4.986106">
        <ele>1730.854</ele>
        <time>2014-08-28T06:03:57Z</time>
      </trkpt>
      <trkpt lat="43.224960" lon="-4.986060">
        <ele>1733.980</ele>
        <time>2014-08-28T06:04:27Z</time>
      </trkpt>
      <trkpt lat="43.224937" lon="-4.986113">
        <ele>1735.468</ele>
        <time>2014-08-28T06:04:36Z</time>
      </trkpt>
      <trkpt lat="43.224883" lon="-4.986123">
        <ele>1735.742</ele>
        <time>2014-08-28T06:04:47Z</time>
      </trkpt>
      <trkpt lat="43.224878" lon="-4.986125">
        <ele>1735.826</ele>
        <time>2014-08-28T06:04:48Z</time>
      </trkpt>
      <trkpt lat="43.224783" lon="-4.986140">
        <ele>1739.007</ele>
        <time>2014-08-28T06:05:07Z</time>
      </trkpt>
      <trkpt lat="43.224735" lon="-4.986151">
        <ele>1739.164</ele>
        <time>2014-08-28T06:05:18Z</time>
      </trkpt>
      <trkpt lat="43.224687" lon="-4.986155">
        <ele>1740.196</ele>
        <time>2014-08-28T06:05:27Z</time>
      </trkpt>
      <trkpt lat="43.224640" lon="-4.986180">
        <ele>1741.067</ele>
        <time>2014-08-28T06:05:39Z</time>
      </trkpt>
      <trkpt lat="43.224627" lon="-4.986251">
        <ele>1742.220</ele>
        <time>2014-08-28T06:05:50Z</time>
      </trkpt>
      <trkpt lat="43.224627" lon="-4.986258">
        <ele>1742.329</ele>
        <time>2014-08-28T06:05:51Z</time>
      </trkpt>
      <trkpt lat="43.224522" lon="-4.986270">
        <ele>1746.756</ele>
        <time>2014-08-28T06:06:20Z</time>
      </trkpt>
      <trkpt lat="43.224477" lon="-4.986236">
        <ele>1747.912</ele>
        <time>2014-08-28T06:06:29Z</time>
      </trkpt>
      <trkpt lat="43.224430" lon="-4.986243">
        <ele>1749.927</ele>
        <time>2014-08-28T06:06:37Z</time>
      </trkpt>
      <trkpt lat="43.224377" lon="-4.986235">
        <ele>1749.968</ele>
        <time>2014-08-28T06:06:43Z</time>
      </trkpt>
      <trkpt lat="43.224337" lon="-4.986186">
        <ele>1753.014</ele>
        <time>2014-08-28T06:06:57Z</time>
      </trkpt>
      <trkpt lat="43.224332" lon="-4.986186">
        <ele>1752.907</ele>
        <time>2014-08-28T06:06:58Z</time>
      </trkpt>
      <trkpt lat="43.224237" lon="-4.986168">
        <ele>1756.590</ele>
        <time>2014-08-28T06:07:32Z</time>
      </trkpt>
      <trkpt lat="43.224233" lon="-4.986240">
        <ele>1757.842</ele>
        <time>2014-08-28T06:07:43Z</time>
      </trkpt>
      <trkpt lat="43.224185" lon="-4.986255">
        <ele>1759.983</ele>
        <time>2014-08-28T06:08:04Z</time>
      </trkpt>
      <trkpt lat="43.224178" lon="-4.986251">
        <ele>1760.266</ele>
        <time>2014-08-28T06:08:05Z</time>
      </trkpt>
      <trkpt lat="43.224102" lon="-4.986185">
        <ele>1761.765</ele>
        <time>2014-08-28T06:08:20Z</time>
      </trkpt>
      <trkpt lat="43.224070" lon="-4.986131">
        <ele>1762.522</ele>
        <time>2014-08-28T06:08:29Z</time>
      </trkpt>
      <trkpt lat="43.224020" lon="-4.986106">
        <ele>1763.528</ele>
        <time>2014-08-28T06:08:38Z</time>
      </trkpt>
      <trkpt lat="43.223972" lon="-4.986075">
        <ele>1766.668</ele>
        <time>2014-08-28T06:08:49Z</time>
      </trkpt>
      <trkpt lat="43.223927" lon="-4.986048">
        <ele>1768.142</ele>
        <time>2014-08-28T06:08:58Z</time>
      </trkpt>
      <trkpt lat="43.223882" lon="-4.986021">
        <ele>1769.126</ele>
        <time>2014-08-28T06:09:07Z</time>
      </trkpt>
      <trkpt lat="43.223877" lon="-4.986016">
        <ele>1769.407</ele>
        <time>2014-08-28T06:09:08Z</time>
      </trkpt>
      <trkpt lat="43.223783" lon="-4.986018">
        <ele>1770.484</ele>
        <time>2014-08-28T06:09:22Z</time>
      </trkpt>
      <trkpt lat="43.223742" lon="-4.985976">
        <ele>1770.966</ele>
        <time>2014-08-28T06:09:30Z</time>
      </trkpt>
      <trkpt lat="43.223748" lon="-4.985906">
        <ele>1773.187</ele>
        <time>2014-08-28T06:09:41Z</time>
      </trkpt>
      <trkpt lat="43.223713" lon="-4.985853">
        <ele>1775.160</ele>
        <time>2014-08-28T06:09:56Z</time>
      </trkpt>
      <trkpt lat="43.223662" lon="-4.985838">
        <ele>1777.989</ele>
        <time>2014-08-28T06:10:13Z</time>
      </trkpt>
      <trkpt lat="43.223657" lon="-4.985841">
        <ele>1778.016</ele>
        <time>2014-08-28T06:10:14Z</time>
      </trkpt>
      <trkpt lat="43.223562" lon="-4.985848">
        <ele>1781.012</ele>
        <time>2014-08-28T06:10:33Z</time>
      </trkpt>
      <trkpt lat="43.223530" lon="-4.985901">
        <ele>1781.412</ele>
        <time>2014-08-28T06:10:41Z</time>
      </trkpt>
      <trkpt lat="43.223525" lon="-4.985968">
        <ele>1782.632</ele>
        <time>2014-08-28T06:10:50Z</time>
      </trkpt>
      <trkpt lat="43.223557" lon="-4.986003">
        <ele>1782.905</ele>
        <time>2014-08-28T06:10:53Z</time>
      </trkpt>
      <trkpt lat="43.223587" lon="-4.986028">
        <ele>1782.807</ele>
        <time>2014-08-28T06:10:55Z</time>
      </trkpt>
      <trkpt lat="43.223635" lon="-4.986043">
        <ele>1783.389</ele>
        <time>2014-08-28T06:10:58Z</time>
      </trkpt>
      <trkpt lat="43.223685" lon="-4.986020">
        <ele>1783.961</ele>
        <time>2014-08-28T06:11:04Z</time>
      </trkpt>
      <trkpt lat="43.223710" lon="-4.985956">
        <ele>1784.762</ele>
        <time>2014-08-28T06:11:08Z</time>
      </trkpt>
      <trkpt lat="43.223762" lon="-4.985940">
        <ele>1785.125</ele>
        <time>2014-08-28T06:11:12Z</time>
      </trkpt>
      <trkpt lat="43.223800" lon="-4.985920">
        <ele>1785.544</ele>
        <time>2014-08-28T06:11:15Z</time>
      </trkpt>
      <trkpt lat="43.223813" lon="-4.985910">
        <ele>1785.811</ele>
        <time>2014-08-28T06:11:16Z</time>
      </trkpt>
      <trkpt lat="43.223840" lon="-4.985803">
        <ele>1786.657</ele>
        <time>2014-08-28T06:11:22Z</time>
      </trkpt>
      <trkpt lat="43.223822" lon="-4.985735">
        <ele>1787.849</ele>
        <time>2014-08-28T06:11:26Z</time>
      </trkpt>
      <trkpt lat="43.223833" lon="-4.985666">
        <ele>1787.702</ele>
        <time>2014-08-28T06:11:32Z</time>
      </trkpt>
      <trkpt lat="43.223825" lon="-4.985608">
        <ele>1788.622</ele>
        <time>2014-08-28T06:11:37Z</time>
      </trkpt>
      <trkpt lat="43.223812" lon="-4.985561">
        <ele>1788.807</ele>
        <time>2014-08-28T06:11:40Z</time>
      </trkpt>
      <trkpt lat="43.223790" lon="-4.985516">
        <ele>1789.082</ele>
        <time>2014-08-28T06:11:42Z</time>
      </trkpt>
      <trkpt lat="43.223772" lon="-4.985450">
        <ele>1790.444</ele>
        <time>2014-08-28T06:11:46Z</time>
      </trkpt>
      <trkpt lat="43.223725" lon="-4.985463">
        <ele>1793.895</ele>
        <time>2014-08-28T06:12:09Z</time>
      </trkpt>
      <trkpt lat="43.223683" lon="-4.985508">
        <ele>1793.838</ele>
        <time>2014-08-28T06:12:13Z</time>
      </trkpt>
      <trkpt lat="43.223640" lon="-4.985515">
        <ele>1793.837</ele>
        <time>2014-08-28T06:12:17Z</time>
      </trkpt>
      <trkpt lat="43.223627" lon="-4.985520">
        <ele>1794.174</ele>
        <time>2014-08-28T06:12:18Z</time>
      </trkpt>
      <trkpt lat="43.223537" lon="-4.985545">
        <ele>1795.010</ele>
        <time>2014-08-28T06:12:26Z</time>
      </trkpt>
      <trkpt lat="43.223485" lon="-4.985536">
        <ele>1795.811</ele>
        <time>2014-08-28T06:12:32Z</time>
      </trkpt>
      <trkpt lat="43.223437" lon="-4.985553">
        <ele>1796.521</ele>
        <time>2014-08-28T06:12:37Z</time>
      </trkpt>
      <trkpt lat="43.223398" lon="-4.985600">
        <ele>1797.603</ele>
        <time>2014-08-28T06:12:46Z</time>
      </trkpt>
      <trkpt lat="43.223387" lon="-4.985528">
        <ele>1799.907</ele>
        <time>2014-08-28T06:13:09Z</time>
      </trkpt>
      <trkpt lat="43.223352" lon="-4.985473">
        <ele>1802.069</ele>
        <time>2014-08-28T06:13:22Z</time>
      </trkpt>
      <trkpt lat="43.223352" lon="-4.985466">
        <ele>1802.051</ele>
        <time>2014-08-28T06:13:23Z</time>
      </trkpt>
      <trkpt lat="43.223342" lon="-4.985350">
        <ele>1805.362</ele>
        <time>2014-08-28T06:13:43Z</time>
      </trkpt>
      <trkpt lat="43.223380" lon="-4.985300">
        <ele>1806.195</ele>
        <time>2014-08-28T06:13:48Z</time>
      </trkpt>
      <trkpt lat="43.223370" lon="-4.985236">
        <ele>1806.374</ele>
        <time>2014-08-28T06:13:52Z</time>
      </trkpt>
      <trkpt lat="43.223360" lon="-4.985168">
        <ele>1807.831</ele>
        <time>2014-08-28T06:14:03Z</time>
      </trkpt>
      <trkpt lat="43.223388" lon="-4.985230">
        <ele>1811.567</ele>
        <time>2014-08-28T06:14:32Z</time>
      </trkpt>
      <trkpt lat="43.223385" lon="-4.985235">
        <ele>1811.596</ele>
        <time>2014-08-28T06:14:33Z</time>
      </trkpt>
      <trkpt lat="43.223322" lon="-4.985338">
        <ele>1815.231</ele>
        <time>2014-08-28T06:14:54Z</time>
      </trkpt>
      <trkpt lat="43.223273" lon="-4.985318">
        <ele>1815.724</ele>
        <time>2014-08-28T06:15:09Z</time>
      </trkpt>
      <trkpt lat="43.223257" lon="-4.985255">
        <ele>1816.907</ele>
        <time>2014-08-28T06:15:17Z</time>
      </trkpt>
      <trkpt lat="43.223243" lon="-4.985188">
        <ele>1817.627</ele>
        <time>2014-08-28T06:15:24Z</time>
      </trkpt>
      <trkpt lat="43.223227" lon="-4.985123">
        <ele>1818.159</ele>
        <time>2014-08-28T06:15:34Z</time>
      </trkpt>
      <trkpt lat="43.223222" lon="-4.985116">
        <ele>1818.280</ele>
        <time>2014-08-28T06:15:35Z</time>
      </trkpt>
      <trkpt lat="43.223207" lon="-4.984986">
        <ele>1820.123</ele>
        <time>2014-08-28T06:15:52Z</time>
      </trkpt>
      <trkpt lat="43.223220" lon="-4.984925">
        <ele>1821.912</ele>
        <time>2014-08-28T06:16:07Z</time>
      </trkpt>
      <trkpt lat="43.223252" lon="-4.984870">
        <ele>1823.489</ele>
        <time>2014-08-28T06:16:19Z</time>
      </trkpt>
      <trkpt lat="43.223207" lon="-4.984903">
        <ele>1823.135</ele>
        <time>2014-08-28T06:16:50Z</time>
      </trkpt>
      <trkpt lat="43.223204" lon="-4.984910">
        <ele>1823.794</ele>
        <time>2014-08-28T06:16:51Z</time>
      </trkpt>
      <trkpt lat="43.223173" lon="-4.985021">
        <ele>1826.857</ele>
        <time>2014-08-28T06:17:14Z</time>
      </trkpt>
      <trkpt lat="43.223137" lon="-4.985071">
        <ele>1828.122</ele>
        <time>2014-08-28T06:17:24Z</time>
      </trkpt>
      <trkpt lat="43.223107" lon="-4.985121">
        <ele>1828.607</ele>
        <time>2014-08-28T06:17:29Z</time>
      </trkpt>
      <trkpt lat="43.223070" lon="-4.985175">
        <ele>1829.517</ele>
        <time>2014-08-28T06:17:36Z</time>
      </trkpt>
      <trkpt lat="43.223022" lon="-4.985160">
        <ele>1830.819</ele>
        <time>2014-08-28T06:17:47Z</time>
      </trkpt>
      <trkpt lat="43.222972" lon="-4.985185">
        <ele>1831.620</ele>
        <time>2014-08-28T06:18:01Z</time>
      </trkpt>
      <trkpt lat="43.222970" lon="-4.985186">
        <ele>1831.443</ele>
        <time>2014-08-28T06:18:02Z</time>
      </trkpt>
      <trkpt lat="43.222880" lon="-4.985180">
        <ele>1832.282</ele>
        <time>2014-08-28T06:18:17Z</time>
      </trkpt>
      <trkpt lat="43.222830" lon="-4.985166">
        <ele>1832.539</ele>
        <time>2014-08-28T06:18:25Z</time>
      </trkpt>
      <trkpt lat="43.222782" lon="-4.985163">
        <ele>1833.575</ele>
        <time>2014-08-28T06:18:33Z</time>
      </trkpt>
      <trkpt lat="43.222732" lon="-4.985166">
        <ele>1833.661</ele>
        <time>2014-08-28T06:18:40Z</time>
      </trkpt>
      <trkpt lat="43.222682" lon="-4.985151">
        <ele>1834.421</ele>
        <time>2014-08-28T06:18:48Z</time>
      </trkpt>
      <trkpt lat="43.222635" lon="-4.985181">
        <ele>1835.913</ele>
        <time>2014-08-28T06:18:57Z</time>
      </trkpt>
      <trkpt lat="43.222633" lon="-4.985255">
        <ele>1837.807</ele>
        <time>2014-08-28T06:19:06Z</time>
      </trkpt>
      <trkpt lat="43.222640" lon="-4.985260">
        <ele>1837.894</ele>
        <time>2014-08-28T06:19:07Z</time>
      </trkpt>
      <trkpt lat="43.222715" lon="-4.985321">
        <ele>1839.386</ele>
        <time>2014-08-28T06:19:20Z</time>
      </trkpt>
      <trkpt lat="43.222752" lon="-4.985375">
        <ele>1840.367</ele>
        <time>2014-08-28T06:19:33Z</time>
      </trkpt>
      <trkpt lat="43.222730" lon="-4.985441">
        <ele>1841.930</ele>
        <time>2014-08-28T06:19:57Z</time>
      </trkpt>
      <trkpt lat="43.222728" lon="-4.985511">
        <ele>1844.269</ele>
        <time>2014-08-28T06:20:13Z</time>
      </trkpt>
      <trkpt lat="43.222727" lon="-4.985521">
        <ele>1844.296</ele>
        <time>2014-08-28T06:20:14Z</time>
      </trkpt>
      <trkpt lat="43.222718" lon="-4.985651">
        <ele>1846.212</ele>
        <time>2014-08-28T06:20:31Z</time>
      </trkpt>
      <trkpt lat="43.222695" lon="-4.985708">
        <ele>1846.256</ele>
        <time>2014-08-28T06:20:38Z</time>
      </trkpt>
      <trkpt lat="43.222670" lon="-4.985761">
        <ele>1846.059</ele>
        <time>2014-08-28T06:20:43Z</time>
      </trkpt>
      <trkpt lat="43.222635" lon="-4.985808">
        <ele>1846.414</ele>
        <time>2014-08-28T06:20:48Z</time>
      </trkpt>
      <trkpt lat="43.222605" lon="-4.985860">
        <ele>1847.707</ele>
        <time>2014-08-28T06:20:55Z</time>
      </trkpt>
      <trkpt lat="43.222593" lon="-4.985926">
        <ele>1847.643</ele>
        <time>2014-08-28T06:21:03Z</time>
      </trkpt>
      <trkpt lat="43.222573" lon="-4.985988">
        <ele>1849.035</ele>
        <time>2014-08-28T06:21:10Z</time>
      </trkpt>
      <trkpt lat="43.222543" lon="-4.986041">
        <ele>1851.476</ele>
        <time>2014-08-28T06:21:17Z</time>
      </trkpt>
      <trkpt lat="43.222537" lon="-4.986048">
        <ele>1851.949</ele>
        <time>2014-08-28T06:21:18Z</time>
      </trkpt>
      <trkpt lat="43.222475" lon="-4.986150">
        <ele>1852.798</ele>
        <time>2014-08-28T06:21:33Z</time>
      </trkpt>
      <trkpt lat="43.222442" lon="-4.986198">
        <ele>1854.335</ele>
        <time>2014-08-28T06:21:42Z</time>
      </trkpt>
      <trkpt lat="43.222472" lon="-4.986255">
        <ele>1855.271</ele>
        <time>2014-08-28T06:21:51Z</time>
      </trkpt>
      <trkpt lat="43.222523" lon="-4.986253">
        <ele>1857.092</ele>
        <time>2014-08-28T06:22:03Z</time>
      </trkpt>
      <trkpt lat="43.222528" lon="-4.986326">
        <ele>1858.573</ele>
        <time>2014-08-28T06:22:12Z</time>
      </trkpt>
      <trkpt lat="43.222540" lon="-4.986396">
        <ele>1858.820</ele>
        <time>2014-08-28T06:22:19Z</time>
      </trkpt>
      <trkpt lat="43.222537" lon="-4.986401">
        <ele>1859.207</ele>
        <time>2014-08-28T06:22:20Z</time>
      </trkpt>
      <trkpt lat="43.222467" lon="-4.986488">
        <ele>1861.427</ele>
        <time>2014-08-28T06:22:36Z</time>
      </trkpt>
      <trkpt lat="43.222428" lon="-4.986525">
        <ele>1862.029</ele>
        <time>2014-08-28T06:22:41Z</time>
      </trkpt>
      <trkpt lat="43.222415" lon="-4.986583">
        <ele>1862.390</ele>
        <time>2014-08-28T06:22:46Z</time>
      </trkpt>
      <trkpt lat="43.222405" lon="-4.986650">
        <ele>1862.413</ele>
        <time>2014-08-28T06:22:51Z</time>
      </trkpt>
      <trkpt lat="43.222375" lon="-4.986701">
        <ele>1862.312</ele>
        <time>2014-08-28T06:23:03Z</time>
      </trkpt>
      <trkpt lat="43.222362" lon="-4.986770">
        <ele>1862.389</ele>
        <time>2014-08-28T06:23:11Z</time>
      </trkpt>
      <trkpt lat="43.222343" lon="-4.986836">
        <ele>1860.475</ele>
        <time>2014-08-28T06:23:18Z</time>
      </trkpt>
      <trkpt lat="43.222305" lon="-4.986881">
        <ele>1859.876</ele>
        <time>2014-08-28T06:23:24Z</time>
      </trkpt>
      <trkpt lat="43.222302" lon="-4.986896">
        <ele>1859.890</ele>
        <time>2014-08-28T06:23:25Z</time>
      </trkpt>
      <trkpt lat="43.222238" lon="-4.986981">
        <ele>1859.819</ele>
        <time>2014-08-28T06:23:35Z</time>
      </trkpt>
      <trkpt lat="43.222202" lon="-4.987035">
        <ele>1860.207</ele>
        <time>2014-08-28T06:23:40Z</time>
      </trkpt>
      <trkpt lat="43.222162" lon="-4.987048">
        <ele>1860.735</ele>
        <time>2014-08-28T06:23:44Z</time>
      </trkpt>
      <trkpt lat="43.222110" lon="-4.987065">
        <ele>1861.017</ele>
        <time>2014-08-28T06:23:50Z</time>
      </trkpt>
      <trkpt lat="43.222067" lon="-4.987103">
        <ele>1860.658</ele>
        <time>2014-08-28T06:23:55Z</time>
      </trkpt>
      <trkpt lat="43.222043" lon="-4.987165">
        <ele>1860.651</ele>
        <time>2014-08-28T06:24:02Z</time>
      </trkpt>
      <trkpt lat="43.222033" lon="-4.987236">
        <ele>1862.820</ele>
        <time>2014-08-28T06:24:10Z</time>
      </trkpt>
      <trkpt lat="43.222038" lon="-4.987303">
        <ele>1863.257</ele>
        <time>2014-08-28T06:24:15Z</time>
      </trkpt>
      <trkpt lat="43.222058" lon="-4.987351">
        <ele>1863.223</ele>
        <time>2014-08-28T06:24:18Z</time>
      </trkpt>
      <trkpt lat="43.222080" lon="-4.987398">
        <ele>1862.596</ele>
        <time>2014-08-28T06:24:21Z</time>
      </trkpt>
      <trkpt lat="43.222102" lon="-4.987448">
        <ele>1862.331</ele>
        <time>2014-08-28T06:24:24Z</time>
      </trkpt>
      <trkpt lat="43.222127" lon="-4.987503">
        <ele>1861.324</ele>
        <time>2014-08-28T06:24:28Z</time>
      </trkpt>
      <trkpt lat="43.222133" lon="-4.987513">
        <ele>1861.307</ele>
        <time>2014-08-28T06:24:29Z</time>
      </trkpt>
      <trkpt lat="43.222183" lon="-4.987613">
        <ele>1860.137</ele>
        <time>2014-08-28T06:24:39Z</time>
      </trkpt>
      <trkpt lat="43.222215" lon="-4.987671">
        <ele>1858.869</ele>
        <time>2014-08-28T06:24:44Z</time>
      </trkpt>
      <trkpt lat="43.222237" lon="-4.987721">
        <ele>1858.290</ele>
        <time>2014-08-28T06:24:49Z</time>
      </trkpt>
      <trkpt lat="43.222250" lon="-4.987786">
        <ele>1858.333</ele>
        <time>2014-08-28T06:24:52Z</time>
      </trkpt>
      <trkpt lat="43.222260" lon="-4.987836">
        <ele>1858.032</ele>
        <time>2014-08-28T06:24:54Z</time>
      </trkpt>
      <trkpt lat="43.222265" lon="-4.987903">
        <ele>1857.819</ele>
        <time>2014-08-28T06:24:57Z</time>
      </trkpt>
      <trkpt lat="43.222268" lon="-4.987970">
        <ele>1856.795</ele>
        <time>2014-08-28T06:25:01Z</time>
      </trkpt>
      <trkpt lat="43.222268" lon="-4.988030">
        <ele>1856.699</ele>
        <time>2014-08-28T06:25:04Z</time>
      </trkpt>
      <trkpt lat="43.222267" lon="-4.988090">
        <ele>1856.307</ele>
        <time>2014-08-28T06:25:07Z</time>
      </trkpt>
      <trkpt lat="43.222267" lon="-4.988150">
        <ele>1856.027</ele>
        <time>2014-08-28T06:25:10Z</time>
      </trkpt>
      <trkpt lat="43.222257" lon="-4.988206">
        <ele>1855.107</ele>
        <time>2014-08-28T06:25:13Z</time>
      </trkpt>
      <trkpt lat="43.222243" lon="-4.988266">
        <ele>1855.197</ele>
        <time>2014-08-28T06:25:16Z</time>
      </trkpt>
      <trkpt lat="43.222228" lon="-4.988318">
        <ele>1855.059</ele>
        <time>2014-08-28T06:25:19Z</time>
      </trkpt>
      <trkpt lat="43.222208" lon="-4.988376">
        <ele>1855.980</ele>
        <time>2014-08-28T06:25:23Z</time>
      </trkpt>
      <trkpt lat="43.222190" lon="-4.988436">
        <ele>1856.693</ele>
        <time>2014-08-28T06:25:28Z</time>
      </trkpt>
      <trkpt lat="43.222162" lon="-4.988496">
        <ele>1858.152</ele>
        <time>2014-08-28T06:25:34Z</time>
      </trkpt>
      <trkpt lat="43.222158" lon="-4.988510">
        <ele>1857.739</ele>
        <time>2014-08-28T06:25:35Z</time>
      </trkpt>
      <trkpt lat="43.222170" lon="-4.988628">
        <ele>1857.565</ele>
        <time>2014-08-28T06:25:45Z</time>
      </trkpt>
      <trkpt lat="43.222142" lon="-4.988685">
        <ele>1858.692</ele>
        <time>2014-08-28T06:25:53Z</time>
      </trkpt>
      <trkpt lat="43.222107" lon="-4.988728">
        <ele>1860.573</ele>
        <time>2014-08-28T06:26:00Z</time>
      </trkpt>
      <trkpt lat="43.222080" lon="-4.988791">
        <ele>1862.520</ele>
        <time>2014-08-28T06:26:11Z</time>
      </trkpt>
      <trkpt lat="43.222028" lon="-4.988795">
        <ele>1865.707</ele>
        <time>2014-08-28T06:26:39Z</time>
      </trkpt>
      <trkpt lat="43.222022" lon="-4.988793">
        <ele>1865.827</ele>
        <time>2014-08-28T06:26:40Z</time>
      </trkpt>
      <trkpt lat="43.221933" lon="-4.988758">
        <ele>1866.859</ele>
        <time>2014-08-28T06:26:49Z</time>
      </trkpt>
      <trkpt lat="43.221892" lon="-4.988733">
        <ele>1867.610</ele>
        <time>2014-08-28T06:26:55Z</time>
      </trkpt>
      <trkpt lat="43.221847" lon="-4.988715">
        <ele>1867.493</ele>
        <time>2014-08-28T06:27:01Z</time>
      </trkpt>
      <trkpt lat="43.221805" lon="-4.988681">
        <ele>1870.552</ele>
        <time>2014-08-28T06:27:16Z</time>
      </trkpt>
      <trkpt lat="43.221760" lon="-4.988668">
        <ele>1870.959</ele>
        <time>2014-08-28T06:27:22Z</time>
      </trkpt>
      <trkpt lat="43.221757" lon="-4.988738">
        <ele>1871.835</ele>
        <time>2014-08-28T06:27:32Z</time>
      </trkpt>
      <trkpt lat="43.221797" lon="-4.988783">
        <ele>1872.562</ele>
        <time>2014-08-28T06:27:37Z</time>
      </trkpt>
      <trkpt lat="43.221838" lon="-4.988806">
        <ele>1873.283</ele>
        <time>2014-08-28T06:27:41Z</time>
      </trkpt>
      <trkpt lat="43.221848" lon="-4.988811">
        <ele>1873.411</ele>
        <time>2014-08-28T06:27:42Z</time>
      </trkpt>
      <trkpt lat="43.221928" lon="-4.988853">
        <ele>1875.407</ele>
        <time>2014-08-28T06:27:52Z</time>
      </trkpt>
      <trkpt lat="43.221973" lon="-4.988866">
        <ele>1876.274</ele>
        <time>2014-08-28T06:27:56Z</time>
      </trkpt>
      <trkpt lat="43.221965" lon="-4.988935">
        <ele>1878.886</ele>
        <time>2014-08-28T06:28:16Z</time>
      </trkpt>
      <trkpt lat="43.221925" lon="-4.988978">
        <ele>1879.787</ele>
        <time>2014-08-28T06:28:24Z</time>
      </trkpt>
      <trkpt lat="43.221877" lon="-4.988995">
        <ele>1880.770</ele>
        <time>2014-08-28T06:28:30Z</time>
      </trkpt>
      <trkpt lat="43.221827" lon="-4.988998">
        <ele>1881.329</ele>
        <time>2014-08-28T06:28:37Z</time>
      </trkpt>
      <trkpt lat="43.221777" lon="-4.988985">
        <ele>1882.586</ele>
        <time>2014-08-28T06:28:45Z</time>
      </trkpt>
      <trkpt lat="43.221770" lon="-4.988985">
        <ele>1882.852</ele>
        <time>2014-08-28T06:28:46Z</time>
      </trkpt>
      <trkpt lat="43.221675" lon="-4.988960">
        <ele>1884.282</ele>
        <time>2014-08-28T06:29:14Z</time>
      </trkpt>
      <trkpt lat="43.221710" lon="-4.989011">
        <ele>1884.243</ele>
        <time>2014-08-28T06:29:23Z</time>
      </trkpt>
      <trkpt lat="43.221745" lon="-4.989066">
        <ele>1886.117</ele>
        <time>2014-08-28T06:29:32Z</time>
      </trkpt>
      <trkpt lat="43.221718" lon="-4.989126">
        <ele>1890.207</ele>
        <time>2014-08-28T06:29:55Z</time>
      </trkpt>
      <trkpt lat="43.221712" lon="-4.989125">
        <ele>1890.396</ele>
        <time>2014-08-28T06:29:56Z</time>
      </trkpt>
      <trkpt lat="43.221620" lon="-4.989163">
        <ele>1892.378</ele>
        <time>2014-08-28T06:30:22Z</time>
      </trkpt>
      <trkpt lat="43.221567" lon="-4.989175">
        <ele>1896.949</ele>
        <time>2014-08-28T06:30:51Z</time>
      </trkpt>
      <trkpt lat="43.221553" lon="-4.989103">
        <ele>1898.652</ele>
        <time>2014-08-28T06:31:09Z</time>
      </trkpt>
      <trkpt lat="43.221547" lon="-4.989093">
        <ele>1899.071</ele>
        <time>2014-08-28T06:31:10Z</time>
      </trkpt>
      <trkpt lat="43.221475" lon="-4.989045">
        <ele>1900.148</ele>
        <time>2014-08-28T06:31:19Z</time>
      </trkpt>
      <trkpt lat="43.221435" lon="-4.989013">
        <ele>1901.234</ele>
        <time>2014-08-28T06:31:24Z</time>
      </trkpt>
      <trkpt lat="43.221390" lon="-4.988973">
        <ele>1902.877</ele>
        <time>2014-08-28T06:31:31Z</time>
      </trkpt>
      <trkpt lat="43.221347" lon="-4.988953">
        <ele>1904.961</ele>
        <time>2014-08-28T06:31:38Z</time>
      </trkpt>
      <trkpt lat="43.221313" lon="-4.988915">
        <ele>1905.127</ele>
        <time>2014-08-28T06:31:43Z</time>
      </trkpt>
      <trkpt lat="43.221267" lon="-4.988888">
        <ele>1906.107</ele>
        <time>2014-08-28T06:31:49Z</time>
      </trkpt>
      <trkpt lat="43.221217" lon="-4.988861">
        <ele>1906.865</ele>
        <time>2014-08-28T06:31:57Z</time>
      </trkpt>
      <trkpt lat="43.221175" lon="-4.988830">
        <ele>1907.717</ele>
        <time>2014-08-28T06:32:05Z</time>
      </trkpt>
      <trkpt lat="43.221127" lon="-4.988801">
        <ele>1909.578</ele>
        <time>2014-08-28T06:32:14Z</time>
      </trkpt>
      <trkpt lat="43.221123" lon="-4.988796">
        <ele>1909.441</ele>
        <time>2014-08-28T06:32:15Z</time>
      </trkpt>
      <trkpt lat="43.221063" lon="-4.988705">
        <ele>1912.540</ele>
        <time>2014-08-28T06:32:35Z</time>
      </trkpt>
      <trkpt lat="43.221017" lon="-4.988676">
        <ele>1913.917</ele>
        <time>2014-08-28T06:32:48Z</time>
      </trkpt>
      <trkpt lat="43.220965" lon="-4.988673">
        <ele>1916.223</ele>
        <time>2014-08-28T06:32:59Z</time>
      </trkpt>
      <trkpt lat="43.220913" lon="-4.988685">
        <ele>1918.392</ele>
        <time>2014-08-28T06:33:09Z</time>
      </trkpt>
      <trkpt lat="43.220862" lon="-4.988676">
        <ele>1919.073</ele>
        <time>2014-08-28T06:33:18Z</time>
      </trkpt>
      <trkpt lat="43.220857" lon="-4.988678">
        <ele>1919.420</ele>
        <time>2014-08-28T06:33:19Z</time>
      </trkpt>
      <trkpt lat="43.220762" lon="-4.988670">
        <ele>1923.107</ele>
        <time>2014-08-28T06:33:38Z</time>
      </trkpt>
      <trkpt lat="43.220763" lon="-4.988598">
        <ele>1923.937</ele>
        <time>2014-08-28T06:33:49Z</time>
      </trkpt>
      <trkpt lat="43.220802" lon="-4.988553">
        <ele>1925.099</ele>
        <time>2014-08-28T06:33:56Z</time>
      </trkpt>
      <trkpt lat="43.220830" lon="-4.988491">
        <ele>1926.450</ele>
        <time>2014-08-28T06:34:08Z</time>
      </trkpt>
      <trkpt lat="43.220782" lon="-4.988466">
        <ele>1927.383</ele>
        <time>2014-08-28T06:34:16Z</time>
      </trkpt>
      <trkpt lat="43.220730" lon="-4.988453">
        <ele>1930.012</ele>
        <time>2014-08-28T06:34:25Z</time>
      </trkpt>
      <trkpt lat="43.220723" lon="-4.988450">
        <ele>1930.239</ele>
        <time>2014-08-28T06:34:26Z</time>
      </trkpt>
      <trkpt lat="43.220633" lon="-4.988476">
        <ele>1932.395</ele>
        <time>2014-08-28T06:34:42Z</time>
      </trkpt>
      <trkpt lat="43.220582" lon="-4.988493">
        <ele>1932.884</ele>
        <time>2014-08-28T06:34:49Z</time>
      </trkpt>
      <trkpt lat="43.220538" lon="-4.988531">
        <ele>1934.207</ele>
        <time>2014-08-28T06:34:57Z</time>
      </trkpt>
      <trkpt lat="43.220492" lon="-4.988558">
        <ele>1936.017</ele>
        <time>2014-08-28T06:35:06Z</time>
      </trkpt>
      <trkpt lat="43.220523" lon="-4.988501">
        <ele>1938.307</ele>
        <time>2014-08-28T06:35:50Z</time>
      </trkpt>
      <trkpt lat="43.220530" lon="-4.988498">
        <ele>1938.146</ele>
        <time>2014-08-28T06:35:51Z</time>
      </trkpt>
      <trkpt lat="43.220540" lon="-4.988375">
        <ele>1939.538</ele>
        <time>2014-08-28T06:36:04Z</time>
      </trkpt>
      <trkpt lat="43.220557" lon="-4.988306">
        <ele>1939.769</ele>
        <time>2014-08-28T06:36:11Z</time>
      </trkpt>
      <trkpt lat="43.220570" lon="-4.988240">
        <ele>1939.862</ele>
        <time>2014-08-28T06:36:19Z</time>
      </trkpt>
      <trkpt lat="43.220547" lon="-4.988175">
        <ele>1941.841</ele>
        <time>2014-08-28T06:36:27Z</time>
      </trkpt>
      <trkpt lat="43.220560" lon="-4.988108">
        <ele>1944.178</ele>
        <time>2014-08-28T06:36:39Z</time>
      </trkpt>
      <trkpt lat="43.220562" lon="-4.988036">
        <ele>1945.854</ele>
        <time>2014-08-28T06:36:53Z</time>
      </trkpt>
      <trkpt lat="43.220558" lon="-4.988030">
        <ele>1945.316</ele>
        <time>2014-08-28T06:36:54Z</time>
      </trkpt>
      <trkpt lat="43.220502" lon="-4.987928">
        <ele>1947.276</ele>
        <time>2014-08-28T06:37:08Z</time>
      </trkpt>
      <trkpt lat="43.220462" lon="-4.987883">
        <ele>1947.413</ele>
        <time>2014-08-28T06:37:15Z</time>
      </trkpt>
      <trkpt lat="43.220415" lon="-4.987851">
        <ele>1948.207</ele>
        <time>2014-08-28T06:37:23Z</time>
      </trkpt>
      <trkpt lat="43.220373" lon="-4.987816">
        <ele>1949.329</ele>
        <time>2014-08-28T06:37:33Z</time>
      </trkpt>
      <trkpt lat="43.220343" lon="-4.987761">
        <ele>1951.211</ele>
        <time>2014-08-28T06:37:47Z</time>
      </trkpt>
      <trkpt lat="43.220317" lon="-4.987701">
        <ele>1952.842</ele>
        <time>2014-08-28T06:37:57Z</time>
      </trkpt>
      <trkpt lat="43.220312" lon="-4.987690">
        <ele>1953.195</ele>
        <time>2014-08-28T06:37:58Z</time>
      </trkpt>
      <trkpt lat="43.220277" lon="-4.987575">
        <ele>1955.714</ele>
        <time>2014-08-28T06:38:15Z</time>
      </trkpt>
      <trkpt lat="43.220260" lon="-4.987506">
        <ele>1957.461</ele>
        <time>2014-08-28T06:38:24Z</time>
      </trkpt>
      <trkpt lat="43.220207" lon="-4.987516">
        <ele>1961.287</ele>
        <time>2014-08-28T06:38:41Z</time>
      </trkpt>
      <trkpt lat="43.220160" lon="-4.987493">
        <ele>1962.335</ele>
        <time>2014-08-28T06:38:53Z</time>
      </trkpt>
      <trkpt lat="43.220115" lon="-4.987453">
        <ele>1963.786</ele>
        <time>2014-08-28T06:39:04Z</time>
      </trkpt>
      <trkpt lat="43.220110" lon="-4.987453">
        <ele>1963.814</ele>
        <time>2014-08-28T06:39:05Z</time>
      </trkpt>
      <trkpt lat="43.220050" lon="-4.987430">
        <ele>1970.907</ele>
        <time>2014-08-28T06:39:49Z</time>
      </trkpt>
      <trkpt lat="43.220005" lon="-4.987455">
        <ele>1970.681</ele>
        <time>2014-08-28T06:39:56Z</time>
      </trkpt>
      <trkpt lat="43.219970" lon="-4.987400">
        <ele>1972.893</ele>
        <time>2014-08-28T06:40:16Z</time>
      </trkpt>
      <trkpt lat="43.219972" lon="-4.987388">
        <ele>1972.674</ele>
        <time>2014-08-28T06:40:17Z</time>
      </trkpt>
      <trkpt lat="43.219968" lon="-4.987266">
        <ele>1976.517</ele>
        <time>2014-08-28T06:40:32Z</time>
      </trkpt>
      <trkpt lat="43.219918" lon="-4.987266">
        <ele>1976.436</ele>
        <time>2014-08-28T06:40:41Z</time>
      </trkpt>
      <trkpt lat="43.219898" lon="-4.987328">
        <ele>1977.313</ele>
        <time>2014-08-28T06:40:53Z</time>
      </trkpt>
      <trkpt lat="43.219865" lon="-4.987370">
        <ele>1978.629</ele>
        <time>2014-08-28T06:40:59Z</time>
      </trkpt>
      <trkpt lat="43.219827" lon="-4.987413">
        <ele>1978.873</ele>
        <time>2014-08-28T06:41:04Z</time>
      </trkpt>
      <trkpt lat="43.219783" lon="-4.987456">
        <ele>1980.885</ele>
        <time>2014-08-28T06:41:11Z</time>
      </trkpt>
      <trkpt lat="43.219737" lon="-4.987493">
        <ele>1981.613</ele>
        <time>2014-08-28T06:41:20Z</time>
      </trkpt>
      <trkpt lat="43.219735" lon="-4.987496">
        <ele>1981.507</ele>
        <time>2014-08-28T06:41:21Z</time>
      </trkpt>
      <trkpt lat="43.219642" lon="-4.987470">
        <ele>1983.475</ele>
        <time>2014-08-28T06:41:42Z</time>
      </trkpt>
      <trkpt lat="43.219590" lon="-4.987451">
        <ele>1983.537</ele>
        <time>2014-08-28T06:41:49Z</time>
      </trkpt>
      <trkpt lat="43.219540" lon="-4.987433">
        <ele>1984.168</ele>
        <time>2014-08-28T06:41:57Z</time>
      </trkpt>
      <trkpt lat="43.219492" lon="-4.987423">
        <ele>1986.651</ele>
        <time>2014-08-28T06:42:04Z</time>
      </trkpt>
      <trkpt lat="43.219438" lon="-4.987418">
        <ele>1986.510</ele>
        <time>2014-08-28T06:42:13Z</time>
      </trkpt>
      <trkpt lat="43.219388" lon="-4.987428">
        <ele>1987.537</ele>
        <time>2014-08-28T06:42:19Z</time>
      </trkpt>
      <trkpt lat="43.219342" lon="-4.987428">
        <ele>1988.513</ele>
        <time>2014-08-28T06:42:26Z</time>
      </trkpt>
      <trkpt lat="43.219333" lon="-4.987430">
        <ele>1988.542</ele>
        <time>2014-08-28T06:42:27Z</time>
      </trkpt>
      <trkpt lat="43.219245" lon="-4.987481">
        <ele>1992.322</ele>
        <time>2014-08-28T06:42:41Z</time>
      </trkpt>
      <trkpt lat="43.219203" lon="-4.987511">
        <ele>1993.814</ele>
        <time>2014-08-28T06:42:48Z</time>
      </trkpt>
      <trkpt lat="43.219153" lon="-4.987520">
        <ele>1995.207</ele>
        <time>2014-08-28T06:42:55Z</time>
      </trkpt>
      <trkpt lat="43.219110" lon="-4.987548">
        <ele>1995.782</ele>
        <time>2014-08-28T06:43:03Z</time>
      </trkpt>
      <trkpt lat="43.219063" lon="-4.987576">
        <ele>1996.394</ele>
        <time>2014-08-28T06:43:11Z</time>
      </trkpt>
      <trkpt lat="43.219015" lon="-4.987580">
        <ele>1998.175</ele>
        <time>2014-08-28T06:43:19Z</time>
      </trkpt>
      <trkpt lat="43.218967" lon="-4.987596">
        <ele>1999.748</ele>
        <time>2014-08-28T06:43:28Z</time>
      </trkpt>
      <trkpt lat="43.218962" lon="-4.987595">
        <ele>1999.927</ele>
        <time>2014-08-28T06:43:29Z</time>
      </trkpt>
      <trkpt lat="43.218863" lon="-4.987626">
        <ele>2002.394</ele>
        <time>2014-08-28T06:43:46Z</time>
      </trkpt>
      <trkpt lat="43.218812" lon="-4.987623">
        <ele>2002.130</ele>
        <time>2014-08-28T06:43:55Z</time>
      </trkpt>
      <trkpt lat="43.218763" lon="-4.987635">
        <ele>2004.783</ele>
        <time>2014-08-28T06:44:03Z</time>
      </trkpt>
      <trkpt lat="43.218722" lon="-4.987673">
        <ele>2006.125</ele>
        <time>2014-08-28T06:44:10Z</time>
      </trkpt>
      <trkpt lat="43.218685" lon="-4.987713">
        <ele>2007.717</ele>
        <time>2014-08-28T06:44:20Z</time>
      </trkpt>
      <trkpt lat="43.218653" lon="-4.987661">
        <ele>2008.607</ele>
        <time>2014-08-28T06:44:31Z</time>
      </trkpt>
      <trkpt lat="43.218653" lon="-4.987651">
        <ele>2008.656</ele>
        <time>2014-08-28T06:44:32Z</time>
      </trkpt>
      <trkpt lat="43.218623" lon="-4.987535">
        <ele>2009.868</ele>
        <time>2014-08-28T06:44:41Z</time>
      </trkpt>
      <trkpt lat="43.218623" lon="-4.987465">
        <ele>2010.629</ele>
        <time>2014-08-28T06:44:49Z</time>
      </trkpt>
      <trkpt lat="43.218637" lon="-4.987406">
        <ele>2011.132</ele>
        <time>2014-08-28T06:44:54Z</time>
      </trkpt>
      <trkpt lat="43.218650" lon="-4.987346">
        <ele>2012.531</ele>
        <time>2014-08-28T06:44:59Z</time>
      </trkpt>
      <trkpt lat="43.218647" lon="-4.987276">
        <ele>2013.148</ele>
        <time>2014-08-28T06:45:06Z</time>
      </trkpt>
      <trkpt lat="43.218595" lon="-4.987283">
        <ele>2015.194</ele>
        <time>2014-08-28T06:45:19Z</time>
      </trkpt>
      <trkpt lat="43.218550" lon="-4.987323">
        <ele>2018.877</ele>
        <time>2014-08-28T06:45:32Z</time>
      </trkpt>
      <trkpt lat="43.218545" lon="-4.987330">
        <ele>2019.161</ele>
        <time>2014-08-28T06:45:33Z</time>
      </trkpt>
      <trkpt lat="43.218465" lon="-4.987395">
        <ele>2020.827</ele>
        <time>2014-08-28T06:45:48Z</time>
      </trkpt>
      <trkpt lat="43.218423" lon="-4.987431">
        <ele>2021.807</ele>
        <time>2014-08-28T06:45:56Z</time>
      </trkpt>
      <trkpt lat="43.218372" lon="-4.987436">
        <ele>2022.435</ele>
        <time>2014-08-28T06:46:06Z</time>
      </trkpt>
      <trkpt lat="43.218368" lon="-4.987366">
        <ele>2023.937</ele>
        <time>2014-08-28T06:46:23Z</time>
      </trkpt>
      <trkpt lat="43.218360" lon="-4.987300">
        <ele>2025.458</ele>
        <time>2014-08-28T06:46:31Z</time>
      </trkpt>
      <trkpt lat="43.218345" lon="-4.987235">
        <ele>2027.951</ele>
        <time>2014-08-28T06:46:44Z</time>
      </trkpt>
      <trkpt lat="43.218345" lon="-4.987225">
        <ele>2028.180</ele>
        <time>2014-08-28T06:46:45Z</time>
      </trkpt>
      <trkpt lat="43.218290" lon="-4.987118">
        <ele>2031.937</ele>
        <time>2014-08-28T06:47:27Z</time>
      </trkpt>
      <trkpt lat="43.218308" lon="-4.987050">
        <ele>2036.593</ele>
        <time>2014-08-28T06:47:47Z</time>
      </trkpt>
      <trkpt lat="43.218310" lon="-4.987040">
        <ele>2036.542</ele>
        <time>2014-08-28T06:47:48Z</time>
      </trkpt>
      <trkpt lat="43.218307" lon="-4.986920">
        <ele>2040.022</ele>
        <time>2014-08-28T06:48:00Z</time>
      </trkpt>
      <trkpt lat="43.218290" lon="-4.986856">
        <ele>2041.214</ele>
        <time>2014-08-28T06:48:05Z</time>
      </trkpt>
      <trkpt lat="43.218292" lon="-4.986790">
        <ele>2041.707</ele>
        <time>2014-08-28T06:48:11Z</time>
      </trkpt>
      <trkpt lat="43.218288" lon="-4.986718">
        <ele>2041.812</ele>
        <time>2014-08-28T06:48:18Z</time>
      </trkpt>
      <trkpt lat="43.218257" lon="-4.986660">
        <ele>2041.844</ele>
        <time>2014-08-28T06:48:27Z</time>
      </trkpt>
      <trkpt lat="43.218213" lon="-4.986700">
        <ele>2042.155</ele>
        <time>2014-08-28T06:48:35Z</time>
      </trkpt>
      <trkpt lat="43.218180" lon="-4.986746">
        <ele>2043.678</ele>
        <time>2014-08-28T06:48:41Z</time>
      </trkpt>
      <trkpt lat="43.218152" lon="-4.986808">
        <ele>2044.447</ele>
        <time>2014-08-28T06:48:48Z</time>
      </trkpt>
      <trkpt lat="43.218145" lon="-4.986813">
        <ele>2044.544</ele>
        <time>2014-08-28T06:48:49Z</time>
      </trkpt>
      <trkpt lat="43.218063" lon="-4.986851">
        <ele>2045.090</ele>
        <time>2014-08-28T06:48:59Z</time>
      </trkpt>
      <trkpt lat="43.218012" lon="-4.986863">
        <ele>2047.046</ele>
        <time>2014-08-28T06:49:04Z</time>
      </trkpt>
      <trkpt lat="43.217960" lon="-4.986880">
        <ele>2049.688</ele>
        <time>2014-08-28T06:49:11Z</time>
      </trkpt>
      <trkpt lat="43.217912" lon="-4.986901">
        <ele>2052.316</ele>
        <time>2014-08-28T06:49:21Z</time>
      </trkpt>
      <trkpt lat="43.217877" lon="-4.986951">
        <ele>2052.807</ele>
        <time>2014-08-28T06:49:30Z</time>
      </trkpt>
      <trkpt lat="43.217842" lon="-4.987005">
        <ele>2054.192</ele>
        <time>2014-08-28T06:49:40Z</time>
      </trkpt>
      <trkpt lat="43.217807" lon="-4.986956">
        <ele>2056.484</ele>
        <time>2014-08-28T06:50:03Z</time>
      </trkpt>
      <trkpt lat="43.217803" lon="-4.986951">
        <ele>2056.515</ele>
        <time>2014-08-28T06:50:04Z</time>
      </trkpt>
      <trkpt lat="43.217765" lon="-4.986828">
        <ele>2059.968</ele>
        <time>2014-08-28T06:50:22Z</time>
      </trkpt>
      <trkpt lat="43.217750" lon="-4.986765">
        <ele>2061.677</ele>
        <time>2014-08-28T06:50:27Z</time>
      </trkpt>
      <trkpt lat="43.217755" lon="-4.986701">
        <ele>2062.094</ele>
        <time>2014-08-28T06:50:33Z</time>
      </trkpt>
      <trkpt lat="43.217750" lon="-4.986641">
        <ele>2062.770</ele>
        <time>2014-08-28T06:50:38Z</time>
      </trkpt>
      <trkpt lat="43.217740" lon="-4.986571">
        <ele>2064.053</ele>
        <time>2014-08-28T06:50:43Z</time>
      </trkpt>
      <trkpt lat="43.217755" lon="-4.986511">
        <ele>2065.504</ele>
        <time>2014-08-28T06:50:48Z</time>
      </trkpt>
      <trkpt lat="43.217775" lon="-4.986455">
        <ele>2065.714</ele>
        <time>2014-08-28T06:50:53Z</time>
      </trkpt>
      <trkpt lat="43.217810" lon="-4.986413">
        <ele>2066.407</ele>
        <time>2014-08-28T06:50:58Z</time>
      </trkpt>
      <trkpt lat="43.217837" lon="-4.986358">
        <ele>2067.473</ele>
        <time>2014-08-28T06:51:03Z</time>
      </trkpt>
      <trkpt lat="43.217847" lon="-4.986295">
        <ele>2069.535</ele>
        <time>2014-08-28T06:51:08Z</time>
      </trkpt>
      <trkpt lat="43.217850" lon="-4.986286">
        <ele>2069.546</ele>
        <time>2014-08-28T06:51:09Z</time>
      </trkpt>
      <trkpt lat="43.217888" lon="-4.986170">
        <ele>2071.289</ele>
        <time>2014-08-28T06:51:22Z</time>
      </trkpt>
      <trkpt lat="43.217837" lon="-4.986190">
        <ele>2074.028</ele>
        <time>2014-08-28T06:51:47Z</time>
      </trkpt>
      <trkpt lat="43.217795" lon="-4.986221">
        <ele>2077.285</ele>
        <time>2014-08-28T06:51:56Z</time>
      </trkpt>
      <trkpt lat="43.217748" lon="-4.986248">
        <ele>2077.721</ele>
        <time>2014-08-28T06:52:04Z</time>
      </trkpt>
      <trkpt lat="43.217703" lon="-4.986276">
        <ele>2079.879</ele>
        <time>2014-08-28T06:52:11Z</time>
      </trkpt>
      <trkpt lat="43.217698" lon="-4.986280">
        <ele>2080.005</ele>
        <time>2014-08-28T06:52:12Z</time>
      </trkpt>
      <trkpt lat="43.217608" lon="-4.986325">
        <ele>2083.825</ele>
        <time>2014-08-28T06:52:25Z</time>
      </trkpt>
      <trkpt lat="43.217562" lon="-4.986346">
        <ele>2083.507</ele>
        <time>2014-08-28T06:52:32Z</time>
      </trkpt>
      <trkpt lat="43.217518" lon="-4.986386">
        <ele>2086.255</ele>
        <time>2014-08-28T06:52:41Z</time>
      </trkpt>
      <trkpt lat="43.217477" lon="-4.986430">
        <ele>2087.267</ele>
        <time>2014-08-28T06:52:50Z</time>
      </trkpt>
      <trkpt lat="43.217428" lon="-4.986451">
        <ele>2089.058</ele>
        <time>2014-08-28T06:53:00Z</time>
      </trkpt>
      <trkpt lat="43.217388" lon="-4.986496">
        <ele>2090.521</ele>
        <time>2014-08-28T06:53:08Z</time>
      </trkpt>
      <trkpt lat="43.217343" lon="-4.986535">
        <ele>2089.920</ele>
        <time>2014-08-28T06:53:16Z</time>
      </trkpt>
      <trkpt lat="43.217337" lon="-4.986540">
        <ele>2090.657</ele>
        <time>2014-08-28T06:53:17Z</time>
      </trkpt>
      <trkpt lat="43.217262" lon="-4.986611">
        <ele>2092.783</ele>
        <time>2014-08-28T06:53:32Z</time>
      </trkpt>
      <trkpt lat="43.217215" lon="-4.986646">
        <ele>2094.853</ele>
        <time>2014-08-28T06:53:39Z</time>
      </trkpt>
      <trkpt lat="43.217177" lon="-4.986681">
        <ele>2095.104</ele>
        <time>2014-08-28T06:53:45Z</time>
      </trkpt>
      <trkpt lat="43.217133" lon="-4.986716">
        <ele>2097.814</ele>
        <time>2014-08-28T06:53:54Z</time>
      </trkpt>
      <trkpt lat="43.217093" lon="-4.986751">
        <ele>2098.907</ele>
        <time>2014-08-28T06:54:01Z</time>
      </trkpt>
      <trkpt lat="43.217045" lon="-4.986773">
        <ele>2099.473</ele>
        <time>2014-08-28T06:54:09Z</time>
      </trkpt>
      <trkpt lat="43.216993" lon="-4.986756">
        <ele>2101.565</ele>
        <time>2014-08-28T06:54:26Z</time>
      </trkpt>
      <trkpt lat="43.216992" lon="-4.986751">
        <ele>2100.896</ele>
        <time>2014-08-28T06:54:27Z</time>
      </trkpt>
      <trkpt lat="43.216897" lon="-4.986716">
        <ele>2101.879</ele>
        <time>2014-08-28T06:54:46Z</time>
      </trkpt>
      <trkpt lat="43.216853" lon="-4.986680">
        <ele>2100.368</ele>
        <time>2014-08-28T06:54:51Z</time>
      </trkpt>
      <trkpt lat="43.216812" lon="-4.986633">
        <ele>2100.545</ele>
        <time>2014-08-28T06:55:02Z</time>
      </trkpt>
      <trkpt lat="43.216812" lon="-4.986565">
        <ele>2099.521</ele>
        <time>2014-08-28T06:55:08Z</time>
      </trkpt>
      <trkpt lat="43.216812" lon="-4.986498">
        <ele>2097.667</ele>
        <time>2014-08-28T06:55:13Z</time>
      </trkpt>
      <trkpt lat="43.216785" lon="-4.986435">
        <ele>2094.681</ele>
        <time>2014-08-28T06:55:19Z</time>
      </trkpt>
      <trkpt lat="43.216763" lon="-4.986375">
        <ele>2092.519</ele>
        <time>2014-08-28T06:55:25Z</time>
      </trkpt>
      <trkpt lat="43.216752" lon="-4.986315">
        <ele>2091.407</ele>
        <time>2014-08-28T06:55:31Z</time>
      </trkpt>
      <trkpt lat="43.216750" lon="-4.986301">
        <ele>2091.534</ele>
        <time>2014-08-28T06:55:32Z</time>
      </trkpt>
      <trkpt lat="43.216695" lon="-4.986223">
        <ele>2089.336</ele>
        <time>2014-08-28T06:55:43Z</time>
      </trkpt>
      <trkpt lat="43.216655" lon="-4.986183">
        <ele>2088.557</ele>
        <time>2014-08-28T06:55:48Z</time>
      </trkpt>
      <trkpt lat="43.216630" lon="-4.986121">
        <ele>2087.530</ele>
        <time>2014-08-28T06:55:53Z</time>
      </trkpt>
      <trkpt lat="43.216620" lon="-4.986061">
        <ele>2087.449</ele>
        <time>2014-08-28T06:55:57Z</time>
      </trkpt>
      <trkpt lat="43.216613" lon="-4.986001">
        <ele>2086.966</ele>
        <time>2014-08-28T06:56:01Z</time>
      </trkpt>
      <trkpt lat="43.216615" lon="-4.985938">
        <ele>2087.022</ele>
        <time>2014-08-28T06:56:05Z</time>
      </trkpt>
      <trkpt lat="43.216598" lon="-4.985881">
        <ele>2087.152</ele>
        <time>2014-08-28T06:56:10Z</time>
      </trkpt>
      <trkpt lat="43.216580" lon="-4.985823">
        <ele>2088.153</ele>
        <time>2014-08-28T06:56:14Z</time>
      </trkpt>
      <trkpt lat="43.216573" lon="-4.985763">
        <ele>2088.808</ele>
        <time>2014-08-28T06:56:18Z</time>
      </trkpt>
      <trkpt lat="43.216578" lon="-4.985701">
        <ele>2089.607</ele>
        <time>2014-08-28T06:56:22Z</time>
      </trkpt>
      <trkpt lat="43.216585" lon="-4.985628">
        <ele>2091.233</ele>
        <time>2014-08-28T06:56:29Z</time>
      </trkpt>
      <trkpt lat="43.216568" lon="-4.985566">
        <ele>2091.735</ele>
        <time>2014-08-28T06:56:35Z</time>
      </trkpt>
      <trkpt lat="43.216565" lon="-4.985558">
        <ele>2091.396</ele>
        <time>2014-08-28T06:56:36Z</time>
      </trkpt>
      <trkpt lat="43.216540" lon="-4.985433">
        <ele>2091.969</ele>
        <time>2014-08-28T06:56:51Z</time>
      </trkpt>
      <trkpt lat="43.216497" lon="-4.985400">
        <ele>2091.828</ele>
        <time>2014-08-28T06:56:58Z</time>
      </trkpt>
      <trkpt lat="43.216458" lon="-4.985356">
        <ele>2093.135</ele>
        <time>2014-08-28T06:57:05Z</time>
      </trkpt>
      <trkpt lat="43.216417" lon="-4.985313">
        <ele>2092.121</ele>
        <time>2014-08-28T06:57:13Z</time>
      </trkpt>
      <trkpt lat="43.216383" lon="-4.985260">
        <ele>2093.453</ele>
        <time>2014-08-28T06:57:21Z</time>
      </trkpt>
      <trkpt lat="43.216355" lon="-4.985198">
        <ele>2094.604</ele>
        <time>2014-08-28T06:57:28Z</time>
      </trkpt>
      <trkpt lat="43.216320" lon="-4.985155">
        <ele>2094.014</ele>
        <time>2014-08-28T06:57:35Z</time>
      </trkpt>
      <trkpt lat="43.216275" lon="-4.985120">
        <ele>2095.507</ele>
        <time>2014-08-28T06:57:42Z</time>
      </trkpt>
      <trkpt lat="43.216268" lon="-4.985118">
        <ele>2095.763</ele>
        <time>2014-08-28T06:57:43Z</time>
      </trkpt>
      <trkpt lat="43.216173" lon="-4.985093">
        <ele>2097.245</ele>
        <time>2014-08-28T06:57:56Z</time>
      </trkpt>
      <trkpt lat="43.216123" lon="-4.985083">
        <ele>2097.846</ele>
        <time>2014-08-28T06:58:03Z</time>
      </trkpt>
      <trkpt lat="43.216072" lon="-4.985063">
        <ele>2098.479</ele>
        <time>2014-08-28T06:58:10Z</time>
      </trkpt>
      <trkpt lat="43.216045" lon="-4.985011">
        <ele>2098.048</ele>
        <time>2014-08-28T06:58:16Z</time>
      </trkpt>
      <trkpt lat="43.216033" lon="-4.984945">
        <ele>2099.465</ele>
        <time>2014-08-28T06:58:21Z</time>
      </trkpt>
      <trkpt lat="43.216027" lon="-4.984885">
        <ele>2099.781</ele>
        <time>2014-08-28T06:58:25Z</time>
      </trkpt>
      <trkpt lat="43.216035" lon="-4.984813">
        <ele>2099.498</ele>
        <time>2014-08-28T06:58:29Z</time>
      </trkpt>
      <trkpt lat="43.216045" lon="-4.984750">
        <ele>2099.115</ele>
        <time>2014-08-28T06:58:33Z</time>
      </trkpt>
      <trkpt lat="43.216053" lon="-4.984688">
        <ele>2098.726</ele>
        <time>2014-08-28T06:58:37Z</time>
      </trkpt>
      <trkpt lat="43.216068" lon="-4.984636">
        <ele>2097.807</ele>
        <time>2014-08-28T06:58:40Z</time>
      </trkpt>
      <trkpt lat="43.216083" lon="-4.984576">
        <ele>2097.957</ele>
        <time>2014-08-28T06:58:43Z</time>
      </trkpt>
      <trkpt lat="43.216090" lon="-4.984556">
        <ele>2098.079</ele>
        <time>2014-08-28T06:58:44Z</time>
      </trkpt>
      <trkpt lat="43.216098" lon="-4.984448">
        <ele>2098.910</ele>
        <time>2014-08-28T06:58:50Z</time>
      </trkpt>
      <trkpt lat="43.216047" lon="-4.984428">
        <ele>2099.413</ele>
        <time>2014-08-28T06:58:55Z</time>
      </trkpt>
      <trkpt lat="43.216000" lon="-4.984418">
        <ele>2099.492</ele>
        <time>2014-08-28T06:59:01Z</time>
      </trkpt>
      <trkpt lat="43.215953" lon="-4.984413">
        <ele>2100.399</ele>
        <time>2014-08-28T06:59:05Z</time>
      </trkpt>
      <trkpt lat="43.215903" lon="-4.984406">
        <ele>2100.225</ele>
        <time>2014-08-28T06:59:10Z</time>
      </trkpt>
      <trkpt lat="43.215853" lon="-4.984381">
        <ele>2102.026</ele>
        <time>2014-08-28T06:59:17Z</time>
      </trkpt>
      <trkpt lat="43.215805" lon="-4.984365">
        <ele>2102.547</ele>
        <time>2014-08-28T06:59:28Z</time>
      </trkpt>
      <trkpt lat="43.215772" lon="-4.984313">
        <ele>2103.211</ele>
        <time>2014-08-28T06:59:38Z</time>
      </trkpt>
      <trkpt lat="43.215735" lon="-4.984263">
        <ele>2103.007</ele>
        <time>2014-08-28T06:59:46Z</time>
      </trkpt>
      <trkpt lat="43.215732" lon="-4.984256">
        <ele>2102.980</ele>
        <time>2014-08-28T06:59:47Z</time>
      </trkpt>
      <trkpt lat="43.215697" lon="-4.984133">
        <ele>2105.652</ele>
        <time>2014-08-28T07:00:05Z</time>
      </trkpt>
      <trkpt lat="43.215647" lon="-4.984111">
        <ele>2108.973</ele>
        <time>2014-08-28T07:00:15Z</time>
      </trkpt>
      <trkpt lat="43.215605" lon="-4.984068">
        <ele>2111.826</ele>
        <time>2014-08-28T07:00:27Z</time>
      </trkpt>
      <trkpt lat="43.215558" lon="-4.984056">
        <ele>2114.875</ele>
        <time>2014-08-28T07:00:33Z</time>
      </trkpt>
      <trkpt lat="43.215513" lon="-4.984031">
        <ele>2116.492</ele>
        <time>2014-08-28T07:00:44Z</time>
      </trkpt>
      <trkpt lat="43.215460" lon="-4.984026">
        <ele>2115.848</ele>
        <time>2014-08-28T07:00:50Z</time>
      </trkpt>
      <trkpt lat="43.215453" lon="-4.984025">
        <ele>2115.733</ele>
        <time>2014-08-28T07:00:51Z</time>
      </trkpt>
      <trkpt lat="43.215365" lon="-4.984046">
        <ele>2116.223</ele>
        <time>2014-08-28T07:01:02Z</time>
      </trkpt>
      <trkpt lat="43.215317" lon="-4.984070">
        <ele>2118.015</ele>
        <time>2014-08-28T07:01:32Z</time>
      </trkpt>
      <trkpt lat="43.215293" lon="-4.984128">
        <ele>2116.507</ele>
        <time>2014-08-28T07:01:38Z</time>
      </trkpt>
      <trkpt lat="43.215267" lon="-4.984186">
        <ele>2114.451</ele>
        <time>2014-08-28T07:01:44Z</time>
      </trkpt>
      <trkpt lat="43.215240" lon="-4.984238">
        <ele>2113.813</ele>
        <time>2014-08-28T07:01:48Z</time>
      </trkpt>
      <trkpt lat="43.215227" lon="-4.984293">
        <ele>2113.034</ele>
        <time>2014-08-28T07:01:52Z</time>
      </trkpt>
      <trkpt lat="43.215222" lon="-4.984310">
        <ele>2112.717</ele>
        <time>2014-08-28T07:01:53Z</time>
      </trkpt>
      <trkpt lat="43.215192" lon="-4.984410">
        <ele>2109.086</ele>
        <time>2014-08-28T07:02:00Z</time>
      </trkpt>
      <trkpt lat="43.215165" lon="-4.984456">
        <ele>2109.693</ele>
        <time>2014-08-28T07:02:04Z</time>
      </trkpt>
      <trkpt lat="43.215138" lon="-4.984506">
        <ele>2109.879</ele>
        <time>2014-08-28T07:02:07Z</time>
      </trkpt>
      <trkpt lat="43.215100" lon="-4.984545">
        <ele>2109.759</ele>
        <time>2014-08-28T07:02:11Z</time>
      </trkpt>
      <trkpt lat="43.215067" lon="-4.984595">
        <ele>2110.003</ele>
        <time>2014-08-28T07:02:17Z</time>
      </trkpt>
      <trkpt lat="43.215023" lon="-4.984621">
        <ele>2108.723</ele>
        <time>2014-08-28T07:02:23Z</time>
      </trkpt>
      <trkpt lat="43.214970" lon="-4.984630">
        <ele>2109.507</ele>
        <time>2014-08-28T07:02:28Z</time>
      </trkpt>
      <trkpt lat="43.214932" lon="-4.984641">
        <ele>2109.753</ele>
        <time>2014-08-28T07:02:31Z</time>
      </trkpt>
      <trkpt lat="43.214890" lon="-4.984660">
        <ele>2110.885</ele>
        <time>2014-08-28T07:02:34Z</time>
      </trkpt>
      <trkpt lat="43.214848" lon="-4.984686">
        <ele>2109.966</ele>
        <time>2014-08-28T07:02:38Z</time>
      </trkpt>
      <trkpt lat="43.214805" lon="-4.984713">
        <ele>2109.299</ele>
        <time>2014-08-28T07:02:42Z</time>
      </trkpt>
      <trkpt lat="43.214758" lon="-4.984735">
        <ele>2109.248</ele>
        <time>2014-08-28T07:02:47Z</time>
      </trkpt>
      <trkpt lat="43.214713" lon="-4.984755">
        <ele>2109.325</ele>
        <time>2014-08-28T07:02:51Z</time>
      </trkpt>
      <trkpt lat="43.214660" lon="-4.984756">
        <ele>2110.481</ele>
        <time>2014-08-28T07:03:05Z</time>
      </trkpt>
      <trkpt lat="43.214657" lon="-4.984751">
        <ele>2110.359</ele>
        <time>2014-08-28T07:03:06Z</time>
      </trkpt>
      <trkpt lat="43.214603" lon="-4.984645">
        <ele>2106.603</ele>
        <time>2014-08-28T07:03:23Z</time>
      </trkpt>
      <trkpt lat="43.214563" lon="-4.984606">
        <ele>2107.223</ele>
        <time>2014-08-28T07:03:31Z</time>
      </trkpt>
      <trkpt lat="43.214523" lon="-4.984573">
        <ele>2107.607</ele>
        <time>2014-08-28T07:03:36Z</time>
      </trkpt>
      <trkpt lat="43.214492" lon="-4.984515">
        <ele>2108.913</ele>
        <time>2014-08-28T07:03:44Z</time>
      </trkpt>
      <trkpt lat="43.214457" lon="-4.984470">
        <ele>2111.565</ele>
        <time>2014-08-28T07:03:52Z</time>
      </trkpt>
      <trkpt lat="43.214443" lon="-4.984405">
        <ele>2111.296</ele>
        <time>2014-08-28T07:03:59Z</time>
      </trkpt>
      <trkpt lat="43.214438" lon="-4.984341">
        <ele>2111.899</ele>
        <time>2014-08-28T07:04:04Z</time>
      </trkpt>
      <trkpt lat="43.214430" lon="-4.984270">
        <ele>2109.078</ele>
        <time>2014-08-28T07:04:10Z</time>
      </trkpt>
      <trkpt lat="43.214432" lon="-4.984258">
        <ele>2108.815</ele>
        <time>2014-08-28T07:04:11Z</time>
      </trkpt>
      <trkpt lat="43.214402" lon="-4.984153">
        <ele>2110.581</ele>
        <time>2014-08-28T07:04:22Z</time>
      </trkpt>
      <trkpt lat="43.214372" lon="-4.984101">
        <ele>2110.658</ele>
        <time>2014-08-28T07:04:27Z</time>
      </trkpt>
      <trkpt lat="43.214368" lon="-4.984028">
        <ele>2110.752</ele>
        <time>2014-08-28T07:04:32Z</time>
      </trkpt>
      <trkpt lat="43.214355" lon="-4.983961">
        <ele>2112.117</ele>
        <time>2014-08-28T07:04:39Z</time>
      </trkpt>
      <trkpt lat="43.214353" lon="-4.983890">
        <ele>2113.007</ele>
        <time>2014-08-28T07:04:46Z</time>
      </trkpt>
      <trkpt lat="43.214342" lon="-4.983823">
        <ele>2113.473</ele>
        <time>2014-08-28T07:05:16Z</time>
      </trkpt>
      <trkpt lat="43.214343" lon="-4.983815">
        <ele>2113.145</ele>
        <time>2014-08-28T07:05:17Z</time>
      </trkpt>
      <trkpt lat="43.214338" lon="-4.983683">
        <ele>2111.626</ele>
        <time>2014-08-28T07:05:36Z</time>
      </trkpt>
      <trkpt lat="43.214345" lon="-4.983618">
        <ele>2110.859</ele>
        <time>2014-08-28T07:05:44Z</time>
      </trkpt>
      <trkpt lat="43.214333" lon="-4.983551">
        <ele>2112.198</ele>
        <time>2014-08-28T07:06:15Z</time>
      </trkpt>
      <trkpt lat="43.214340" lon="-4.983480">
        <ele>2109.065</ele>
        <time>2014-08-28T07:06:59Z</time>
      </trkpt>
      <trkpt lat="43.214342" lon="-4.983478">
        <ele>2109.131</ele>
        <time>2014-08-28T07:07:00Z</time>
      </trkpt>
      <trkpt lat="43.214390" lon="-4.983451">
        <ele>2110.766</ele>
        <time>2014-08-28T07:08:35Z</time>
      </trkpt>
      <trkpt lat="43.214410" lon="-4.983486">
        <ele>2112.029</ele>
        <time>2014-08-28T07:09:51Z</time>
      </trkpt>
      <trkpt lat="43.214415" lon="-4.983481">
        <ele>2112.121</ele>
        <time>2014-08-28T07:09:52Z</time>
      </trkpt>
      <trkpt lat="43.214323" lon="-4.983426">
        <ele>2109.107</ele>
        <time>2014-08-28T07:10:41Z</time>
      </trkpt>
      <trkpt lat="43.214340" lon="-4.983358">
        <ele>2107.564</ele>
        <time>2014-08-28T07:10:51Z</time>
      </trkpt>
      <trkpt lat="43.214382" lon="-4.983325">
        <ele>2105.616</ele>
        <time>2014-08-28T07:11:02Z</time>
      </trkpt>
      <trkpt lat="43.214385" lon="-4.983311">
        <ele>2105.717</ele>
        <time>2014-08-28T07:11:03Z</time>
      </trkpt>
      <trkpt lat="43.214338" lon="-4.983231">
        <ele>2105.090</ele>
        <time>2014-08-28T07:11:21Z</time>
      </trkpt>
      <trkpt lat="43.214292" lon="-4.983195">
        <ele>2103.959</ele>
        <time>2014-08-28T07:11:31Z</time>
      </trkpt>
      <trkpt lat="43.214280" lon="-4.983131">
        <ele>2103.926</ele>
        <time>2014-08-28T07:11:42Z</time>
      </trkpt>
      <trkpt lat="43.214277" lon="-4.983063">
        <ele>2102.492</ele>
        <time>2014-08-28T07:11:52Z</time>
      </trkpt>
      <trkpt lat="43.214300" lon="-4.982996">
        <ele>2101.117</ele>
        <time>2014-08-28T07:12:00Z</time>
      </trkpt>
      <trkpt lat="43.214307" lon="-4.982926">
        <ele>2099.987</ele>
        <time>2014-08-28T07:12:10Z</time>
      </trkpt>
      <trkpt lat="43.214303" lon="-4.982918">
        <ele>2099.815</ele>
        <time>2014-08-28T07:12:11Z</time>
      </trkpt>
      <trkpt lat="43.214218" lon="-4.982871">
        <ele>2098.507</ele>
        <time>2014-08-28T07:12:25Z</time>
      </trkpt>
      <trkpt lat="43.214168" lon="-4.982870">
        <ele>2097.939</ele>
        <time>2014-08-28T07:12:35Z</time>
      </trkpt>
      <trkpt lat="43.214185" lon="-4.982800">
        <ele>2093.861</ele>
        <time>2014-08-28T07:13:18Z</time>
      </trkpt>
      <trkpt lat="43.214185" lon="-4.982791">
        <ele>2093.882</ele>
        <time>2014-08-28T07:13:19Z</time>
      </trkpt>
      <trkpt lat="43.214135" lon="-4.982780">
        <ele>2090.835</ele>
        <time>2014-08-28T07:13:57Z</time>
      </trkpt>
      <trkpt lat="43.214185" lon="-4.982801">
        <ele>2090.984</ele>
        <time>2014-08-28T07:14:13Z</time>
      </trkpt>
      <trkpt lat="43.214225" lon="-4.982753">
        <ele>2090.971</ele>
        <time>2014-08-28T07:14:21Z</time>
      </trkpt>
      <trkpt lat="43.214228" lon="-4.982745">
        <ele>2090.937</ele>
        <time>2014-08-28T07:14:22Z</time>
      </trkpt>
      <trkpt lat="43.214190" lon="-4.982616">
        <ele>2088.446</ele>
        <time>2014-08-28T07:14:44Z</time>
      </trkpt>
      <trkpt lat="43.214140" lon="-4.982616">
        <ele>2086.888</ele>
        <time>2014-08-28T07:14:51Z</time>
      </trkpt>
      <trkpt lat="43.214088" lon="-4.982598">
        <ele>2087.016</ele>
        <time>2014-08-28T07:15:04Z</time>
      </trkpt>
      <trkpt lat="43.214052" lon="-4.982555">
        <ele>2086.607</ele>
        <time>2014-08-28T07:15:15Z</time>
      </trkpt>
      <trkpt lat="43.214012" lon="-4.982508">
        <ele>2086.682</ele>
        <time>2014-08-28T07:15:25Z</time>
      </trkpt>
      <trkpt lat="43.214008" lon="-4.982503">
        <ele>2086.434</ele>
        <time>2014-08-28T07:15:26Z</time>
      </trkpt>
      <trkpt lat="43.214010" lon="-4.982370">
        <ele>2086.355</ele>
        <time>2014-08-28T07:15:39Z</time>
      </trkpt>
      <trkpt lat="43.213977" lon="-4.982316">
        <ele>2086.598</ele>
        <time>2014-08-28T07:15:46Z</time>
      </trkpt>
      <trkpt lat="43.213935" lon="-4.982288">
        <ele>2085.887</ele>
        <time>2014-08-28T07:15:51Z</time>
      </trkpt>
      <trkpt lat="43.213910" lon="-4.982230">
        <ele>2086.594</ele>
        <time>2014-08-28T07:16:11Z</time>
      </trkpt>
      <trkpt lat="43.213888" lon="-4.982165">
        <ele>2084.510</ele>
        <time>2014-08-28T07:16:22Z</time>
      </trkpt>
      <trkpt lat="43.213837" lon="-4.982150">
        <ele>2084.132</ele>
        <time>2014-08-28T07:16:30Z</time>
      </trkpt>
      <trkpt lat="43.213832" lon="-4.982151">
        <ele>2084.192</ele>
        <time>2014-08-28T07:16:31Z</time>
      </trkpt>
      <trkpt lat="43.213805" lon="-4.982066">
        <ele>2084.911</ele>
        <time>2014-08-28T07:16:51Z</time>
      </trkpt>
      <trkpt lat="43.213757" lon="-4.982066">
        <ele>2084.607</ele>
        <time>2014-08-28T07:16:55Z</time>
      </trkpt>
      <trkpt lat="43.213708" lon="-4.982071">
        <ele>2085.771</ele>
        <time>2014-08-28T07:16:59Z</time>
      </trkpt>
      <trkpt lat="43.213662" lon="-4.982061">
        <ele>2085.363</ele>
        <time>2014-08-28T07:17:03Z</time>
      </trkpt>
      <trkpt lat="43.213613" lon="-4.982046">
        <ele>2085.214</ele>
        <time>2014-08-28T07:17:09Z</time>
      </trkpt>
      <trkpt lat="43.213565" lon="-4.982015">
        <ele>2086.097</ele>
        <time>2014-08-28T07:17:17Z</time>
      </trkpt>
      <trkpt lat="43.213522" lon="-4.982001">
        <ele>2085.876</ele>
        <time>2014-08-28T07:17:23Z</time>
      </trkpt>
      <trkpt lat="43.213473" lon="-4.982010">
        <ele>2085.043</ele>
        <time>2014-08-28T07:17:26Z</time>
      </trkpt>
      <trkpt lat="43.213425" lon="-4.982006">
        <ele>2085.129</ele>
        <time>2014-08-28T07:17:30Z</time>
      </trkpt>
      <trkpt lat="43.213403" lon="-4.981945">
        <ele>2085.731</ele>
        <time>2014-08-28T07:17:53Z</time>
      </trkpt>
      <trkpt lat="43.213395" lon="-4.981941">
        <ele>2085.961</ele>
        <time>2014-08-28T07:17:54Z</time>
      </trkpt>
      <trkpt lat="43.213305" lon="-4.981985">
        <ele>2086.807</ele>
        <time>2014-08-28T07:18:04Z</time>
      </trkpt>
      <trkpt lat="43.213257" lon="-4.982005">
        <ele>2086.707</ele>
        <time>2014-08-28T07:18:10Z</time>
      </trkpt>
      <trkpt lat="43.213203" lon="-4.982006">
        <ele>2087.581</ele>
        <time>2014-08-28T07:18:20Z</time>
      </trkpt>
      <trkpt lat="43.213255" lon="-4.982003">
        <ele>2085.723</ele>
        <time>2014-08-28T07:18:45Z</time>
      </trkpt>
      <trkpt lat="43.213208" lon="-4.981998">
        <ele>2085.044</ele>
        <time>2014-08-28T07:19:02Z</time>
      </trkpt>
      <trkpt lat="43.213195" lon="-4.982005">
        <ele>2085.027</ele>
        <time>2014-08-28T07:19:03Z</time>
      </trkpt>
      <trkpt lat="43.213195" lon="-4.982061">
        <ele>2084.066</ele>
        <time>2014-08-28T07:19:17Z</time>
      </trkpt>
      <trkpt lat="43.213228" lon="-4.982105">
        <ele>2083.173</ele>
        <time>2014-08-28T07:19:24Z</time>
      </trkpt>
      <trkpt lat="43.213275" lon="-4.982140">
        <ele>2082.899</ele>
        <time>2014-08-28T07:19:29Z</time>
      </trkpt>
      <trkpt lat="43.213315" lon="-4.982181">
        <ele>2083.087</ele>
        <time>2014-08-28T07:19:34Z</time>
      </trkpt>
      <trkpt lat="43.213365" lon="-4.982186">
        <ele>2082.742</ele>
        <time>2014-08-28T07:19:44Z</time>
      </trkpt>
      <trkpt lat="43.213332" lon="-4.982230">
        <ele>2082.826</ele>
        <time>2014-08-28T07:19:55Z</time>
      </trkpt>
      <trkpt lat="43.213298" lon="-4.982283">
        <ele>2083.407</ele>
        <time>2014-08-28T07:20:02Z</time>
      </trkpt>
      <trkpt lat="43.213258" lon="-4.982323">
        <ele>2084.136</ele>
        <time>2014-08-28T07:20:11Z</time>
      </trkpt>
      <trkpt lat="43.213248" lon="-4.982335">
        <ele>2084.318</ele>
        <time>2014-08-28T07:20:12Z</time>
      </trkpt>
      <trkpt lat="43.213180" lon="-4.982393">
        <ele>2084.199</ele>
        <time>2014-08-28T07:20:18Z</time>
      </trkpt>
      <trkpt lat="43.213138" lon="-4.982423">
        <ele>2084.212</ele>
        <time>2014-08-28T07:20:21Z</time>
      </trkpt>
      <trkpt lat="43.213095" lon="-4.982441">
        <ele>2084.571</ele>
        <time>2014-08-28T07:20:25Z</time>
      </trkpt>
      <trkpt lat="43.213050" lon="-4.982453">
        <ele>2083.848</ele>
        <time>2014-08-28T07:20:30Z</time>
      </trkpt>
      <trkpt lat="43.213007" lon="-4.982473">
        <ele>2084.064</ele>
        <time>2014-08-28T07:20:34Z</time>
      </trkpt>
      <trkpt lat="43.212953" lon="-4.982476">
        <ele>2086.275</ele>
        <time>2014-08-28T07:20:40Z</time>
      </trkpt>
      <trkpt lat="43.212938" lon="-4.982411">
        <ele>2090.328</ele>
        <time>2014-08-28T07:21:14Z</time>
      </trkpt>
      <trkpt lat="43.212942" lon="-4.982403">
        <ele>2089.820</ele>
        <time>2014-08-28T07:21:15Z</time>
      </trkpt>
      <trkpt lat="43.212907" lon="-4.982283">
        <ele>2087.607</ele>
        <time>2014-08-28T07:21:36Z</time>
      </trkpt>
      <trkpt lat="43.212907" lon="-4.982205">
        <ele>2090.095</ele>
        <time>2014-08-28T07:21:52Z</time>
      </trkpt>
      <trkpt lat="43.212855" lon="-4.982195">
        <ele>2092.767</ele>
        <time>2014-08-28T07:22:09Z</time>
      </trkpt>
      <trkpt lat="43.212803" lon="-4.982215">
        <ele>2091.938</ele>
        <time>2014-08-28T07:22:15Z</time>
      </trkpt>
      <trkpt lat="43.212760" lon="-4.982231">
        <ele>2093.571</ele>
        <time>2014-08-28T07:22:27Z</time>
      </trkpt>
      <trkpt lat="43.212748" lon="-4.982230">
        <ele>2093.560</ele>
        <time>2014-08-28T07:22:28Z</time>
      </trkpt>
      <trkpt lat="43.212728" lon="-4.982178">
        <ele>2094.057</ele>
        <time>2014-08-28T07:22:49Z</time>
      </trkpt>
      <trkpt lat="43.212775" lon="-4.982156">
        <ele>2093.983</ele>
        <time>2014-08-28T07:22:53Z</time>
      </trkpt>
      <trkpt lat="43.212818" lon="-4.982121">
        <ele>2094.261</ele>
        <time>2014-08-28T07:22:56Z</time>
      </trkpt>
      <trkpt lat="43.212863" lon="-4.982096">
        <ele>2093.121</ele>
        <time>2014-08-28T07:23:00Z</time>
      </trkpt>
      <trkpt lat="43.212818" lon="-4.982108">
        <ele>2090.313</ele>
        <time>2014-08-28T07:23:26Z</time>
      </trkpt>
      <trkpt lat="43.212773" lon="-4.982125">
        <ele>2089.207</ele>
        <time>2014-08-28T07:23:30Z</time>
      </trkpt>
      <trkpt lat="43.212760" lon="-4.982131">
        <ele>2089.044</ele>
        <time>2014-08-28T07:23:31Z</time>
      </trkpt>
      <trkpt lat="43.212677" lon="-4.982171">
        <ele>2088.286</ele>
        <time>2014-08-28T07:23:42Z</time>
      </trkpt>
      <trkpt lat="43.212723" lon="-4.982203">
        <ele>2084.387</ele>
        <time>2014-08-28T07:24:17Z</time>
      </trkpt>
      <trkpt lat="43.212768" lon="-4.982173">
        <ele>2081.590</ele>
        <time>2014-08-28T07:24:51Z</time>
      </trkpt>
      <trkpt lat="43.212773" lon="-4.982175">
        <ele>2081.599</ele>
        <time>2014-08-28T07:24:52Z</time>
      </trkpt>
      <trkpt lat="43.212670" lon="-4.982196">
        <ele>2078.766</ele>
        <time>2014-08-28T07:25:25Z</time>
      </trkpt>
      <trkpt lat="43.212692" lon="-4.982140">
        <ele>2078.312</ele>
        <time>2014-08-28T07:25:39Z</time>
      </trkpt>
      <trkpt lat="43.212645" lon="-4.982161">
        <ele>2079.382</ele>
        <time>2014-08-28T07:25:53Z</time>
      </trkpt>
      <trkpt lat="43.212640" lon="-4.982166">
        <ele>2079.343</ele>
        <time>2014-08-28T07:25:54Z</time>
      </trkpt>
      <trkpt lat="43.212613" lon="-4.982275">
        <ele>2077.217</ele>
        <time>2014-08-28T07:26:16Z</time>
      </trkpt>
      <trkpt lat="43.212557" lon="-4.982276">
        <ele>2074.707</ele>
        <time>2014-08-28T07:26:50Z</time>
      </trkpt>
      <trkpt lat="43.212507" lon="-4.982295">
        <ele>2073.886</ele>
        <time>2014-08-28T07:26:56Z</time>
      </trkpt>
      <trkpt lat="43.212495" lon="-4.982296">
        <ele>2073.458</ele>
        <time>2014-08-28T07:26:57Z</time>
      </trkpt>
      <trkpt lat="43.212412" lon="-4.982278">
        <ele>2071.779</ele>
        <time>2014-08-28T07:27:06Z</time>
      </trkpt>
      <trkpt lat="43.212363" lon="-4.982275">
        <ele>2069.892</ele>
        <time>2014-08-28T07:27:14Z</time>
      </trkpt>
      <trkpt lat="43.212318" lon="-4.982260">
        <ele>2070.781</ele>
        <time>2014-08-28T07:27:54Z</time>
      </trkpt>
      <trkpt lat="43.212270" lon="-4.982250">
        <ele>2070.948</ele>
        <time>2014-08-28T07:27:58Z</time>
      </trkpt>
      <trkpt lat="43.212260" lon="-4.982245">
        <ele>2070.764</ele>
        <time>2014-08-28T07:27:59Z</time>
      </trkpt>
      <trkpt lat="43.212180" lon="-4.982191">
        <ele>2071.197</ele>
        <time>2014-08-28T07:28:06Z</time>
      </trkpt>
      <trkpt lat="43.212135" lon="-4.982168">
        <ele>2070.723</ele>
        <time>2014-08-28T07:28:09Z</time>
      </trkpt>
      <trkpt lat="43.212090" lon="-4.982140">
        <ele>2071.025</ele>
        <time>2014-08-28T07:28:13Z</time>
      </trkpt>
      <trkpt lat="43.212080" lon="-4.982075">
        <ele>2071.507</ele>
        <time>2014-08-28T07:28:21Z</time>
      </trkpt>
      <trkpt lat="43.212035" lon="-4.982051">
        <ele>2070.387</ele>
        <time>2014-08-28T07:28:25Z</time>
      </trkpt>
      <trkpt lat="43.211988" lon="-4.982036">
        <ele>2069.689</ele>
        <time>2014-08-28T07:28:29Z</time>
      </trkpt>
      <trkpt lat="43.211982" lon="-4.982101">
        <ele>2069.790</ele>
        <time>2014-08-28T07:28:48Z</time>
      </trkpt>
      <trkpt lat="43.212028" lon="-4.982135">
        <ele>2068.863</ele>
        <time>2014-08-28T07:28:51Z</time>
      </trkpt>
      <trkpt lat="43.212057" lon="-4.982191">
        <ele>2066.852</ele>
        <time>2014-08-28T07:28:58Z</time>
      </trkpt>
      <trkpt lat="43.212020" lon="-4.982238">
        <ele>2062.419</ele>
        <time>2014-08-28T07:29:21Z</time>
      </trkpt>
      <trkpt lat="43.212007" lon="-4.982246">
        <ele>2062.255</ele>
        <time>2014-08-28T07:29:22Z</time>
      </trkpt>
      <trkpt lat="43.211950" lon="-4.982330">
        <ele>2061.273</ele>
        <time>2014-08-28T07:29:32Z</time>
      </trkpt>
      <trkpt lat="43.211913" lon="-4.982380">
        <ele>2062.685</ele>
        <time>2014-08-28T07:29:37Z</time>
      </trkpt>
      <trkpt lat="43.211887" lon="-4.982440">
        <ele>2064.313</ele>
        <time>2014-08-28T07:29:43Z</time>
      </trkpt>
      <trkpt lat="43.211780" lon="-4.982459">
        <ele>2065.007</ele>
        <time>2014-08-28T07:29:57Z</time>
      </trkpt>
      <trkpt lat="43.211687" lon="-4.982480">
        <ele>2064.055</ele>
        <time>2014-08-28T07:30:05Z</time>
      </trkpt>
      <trkpt lat="43.211618" lon="-4.982503">
        <ele>2063.017</ele>
        <time>2014-08-28T07:30:09Z</time>
      </trkpt>
      <trkpt lat="43.211560" lon="-4.982529">
        <ele>2063.018</ele>
        <time>2014-08-28T07:30:13Z</time>
      </trkpt>
      <trkpt lat="43.211506" lon="-4.982538">
        <ele>2064.081</ele>
        <time>2014-08-28T07:30:17Z</time>
      </trkpt>
      <trkpt lat="43.211455" lon="-4.982546">
        <ele>2065.070</ele>
        <time>2014-08-28T07:30:22Z</time>
      </trkpt>
      <trkpt lat="43.211443" lon="-4.982543">
        <ele>2064.847</ele>
        <time>2014-08-28T07:30:23Z</time>
      </trkpt>
      <trkpt lat="43.211362" lon="-4.982581">
        <ele>2062.333</ele>
        <time>2014-08-28T07:30:39Z</time>
      </trkpt>
      <trkpt lat="43.211370" lon="-4.982653">
        <ele>2061.553</ele>
        <time>2014-08-28T07:30:48Z</time>
      </trkpt>
      <trkpt lat="43.211398" lon="-4.982711">
        <ele>2060.904</ele>
        <time>2014-08-28T07:30:56Z</time>
      </trkpt>
      <trkpt lat="43.211385" lon="-4.982780">
        <ele>2059.914</ele>
        <time>2014-08-28T07:31:07Z</time>
      </trkpt>
      <trkpt lat="43.211337" lon="-4.982785">
        <ele>2061.107</ele>
        <time>2014-08-28T07:31:14Z</time>
      </trkpt>
      <trkpt lat="43.211287" lon="-4.982776">
        <ele>2060.133</ele>
        <time>2014-08-28T07:31:19Z</time>
      </trkpt>
      <trkpt lat="43.211245" lon="-4.982763">
        <ele>2061.015</ele>
        <time>2014-08-28T07:31:23Z</time>
      </trkpt>
      <trkpt lat="43.211230" lon="-4.982756">
        <ele>2061.246</ele>
        <time>2014-08-28T07:31:24Z</time>
      </trkpt>
      <trkpt lat="43.211143" lon="-4.982751">
        <ele>2060.789</ele>
        <time>2014-08-28T07:31:31Z</time>
      </trkpt>
      <trkpt lat="43.211102" lon="-4.982738">
        <ele>2061.768</ele>
        <time>2014-08-28T07:31:34Z</time>
      </trkpt>
      <trkpt lat="43.211060" lon="-4.982730">
        <ele>2062.035</ele>
        <time>2014-08-28T07:31:37Z</time>
      </trkpt>
      <trkpt lat="43.211018" lon="-4.982720">
        <ele>2061.781</ele>
        <time>2014-08-28T07:31:40Z</time>
      </trkpt>
      <trkpt lat="43.210973" lon="-4.982723">
        <ele>2063.315</ele>
        <time>2014-08-28T07:31:43Z</time>
      </trkpt>
      <trkpt lat="43.210910" lon="-4.982721">
        <ele>2062.265</ele>
        <time>2014-08-28T07:31:50Z</time>
      </trkpt>
      <trkpt lat="43.210870" lon="-4.982723">
        <ele>2061.611</ele>
        <time>2014-08-28T07:31:54Z</time>
      </trkpt>
      <trkpt lat="43.210833" lon="-4.982725">
        <ele>2061.807</ele>
        <time>2014-08-28T07:31:56Z</time>
      </trkpt>
      <trkpt lat="43.210793" lon="-4.982731">
        <ele>2062.029</ele>
        <time>2014-08-28T07:31:58Z</time>
      </trkpt>
      <trkpt lat="43.210745" lon="-4.982750">
        <ele>2063.341</ele>
        <time>2014-08-28T07:32:01Z</time>
      </trkpt>
      <trkpt lat="43.210753" lon="-4.982818">
        <ele>2064.432</ele>
        <time>2014-08-28T07:32:09Z</time>
      </trkpt>
      <trkpt lat="43.210788" lon="-4.982855">
        <ele>2065.935</ele>
        <time>2014-08-28T07:32:14Z</time>
      </trkpt>
      <trkpt lat="43.210827" lon="-4.982906">
        <ele>2065.414</ele>
        <time>2014-08-28T07:32:20Z</time>
      </trkpt>
      <trkpt lat="43.210865" lon="-4.982940">
        <ele>2065.131</ele>
        <time>2014-08-28T07:32:23Z</time>
      </trkpt>
      <trkpt lat="43.210908" lon="-4.982981">
        <ele>2066.197</ele>
        <time>2014-08-28T07:32:27Z</time>
      </trkpt>
      <trkpt lat="43.210915" lon="-4.982986">
        <ele>2066.492</ele>
        <time>2014-08-28T07:32:28Z</time>
      </trkpt>
      <trkpt lat="43.210818" lon="-4.982981">
        <ele>2068.473</ele>
        <time>2014-08-28T07:32:37Z</time>
      </trkpt>
      <trkpt lat="43.210770" lon="-4.982956">
        <ele>2069.020</ele>
        <time>2014-08-28T07:32:40Z</time>
      </trkpt>
      <trkpt lat="43.210730" lon="-4.982941">
        <ele>2069.207</ele>
        <time>2014-08-28T07:32:42Z</time>
      </trkpt>
      <trkpt lat="43.210687" lon="-4.982940">
        <ele>2069.637</ele>
        <time>2014-08-28T07:32:45Z</time>
      </trkpt>
      <trkpt lat="43.210638" lon="-4.982920">
        <ele>2068.929</ele>
        <time>2014-08-28T07:32:51Z</time>
      </trkpt>
      <trkpt lat="43.210585" lon="-4.982923">
        <ele>2069.040</ele>
        <time>2014-08-28T07:32:57Z</time>
      </trkpt>
      <trkpt lat="43.210543" lon="-4.982928">
        <ele>2068.393</ele>
        <time>2014-08-28T07:33:00Z</time>
      </trkpt>
      <trkpt lat="43.210493" lon="-4.982953">
        <ele>2068.012</ele>
        <time>2014-08-28T07:33:07Z</time>
      </trkpt>
      <trkpt lat="43.210445" lon="-4.982975">
        <ele>2067.559</ele>
        <time>2014-08-28T07:33:13Z</time>
      </trkpt>
      <trkpt lat="43.210392" lon="-4.982983">
        <ele>2068.355</ele>
        <time>2014-08-28T07:33:17Z</time>
      </trkpt>
      <trkpt lat="43.210350" lon="-4.982996">
        <ele>2068.779</ele>
        <time>2014-08-28T07:33:20Z</time>
      </trkpt>
      <trkpt lat="43.210310" lon="-4.983035">
        <ele>2067.805</ele>
        <time>2014-08-28T07:33:25Z</time>
      </trkpt>
      <trkpt lat="43.210263" lon="-4.983066">
        <ele>2067.325</ele>
        <time>2014-08-28T07:33:31Z</time>
      </trkpt>
      <trkpt lat="43.210252" lon="-4.983070">
        <ele>2067.407</ele>
        <time>2014-08-28T07:33:32Z</time>
      </trkpt>
      <trkpt lat="43.210178" lon="-4.983086">
        <ele>2068.285</ele>
        <time>2014-08-28T07:33:41Z</time>
      </trkpt>
      <trkpt lat="43.210130" lon="-4.983086">
        <ele>2067.727</ele>
        <time>2014-08-28T07:33:46Z</time>
      </trkpt>
      <trkpt lat="43.210078" lon="-4.983083">
        <ele>2068.598</ele>
        <time>2014-08-28T07:33:52Z</time>
      </trkpt>
      <trkpt lat="43.210028" lon="-4.983096">
        <ele>2069.271</ele>
        <time>2014-08-28T07:34:00Z</time>
      </trkpt>
      <trkpt lat="43.209993" lon="-4.983148">
        <ele>2068.170</ele>
        <time>2014-08-28T07:34:06Z</time>
      </trkpt>
      <trkpt lat="43.209921" lon="-4.983190">
        <ele>2068.047</ele>
        <time>2014-08-28T07:34:15Z</time>
      </trkpt>
      <trkpt lat="43.209873" lon="-4.983220">
        <ele>2068.853</ele>
        <time>2014-08-28T07:34:24Z</time>
      </trkpt>
      <trkpt lat="43.209905" lon="-4.983273">
        <ele>2071.324</ele>
        <time>2014-08-28T07:34:44Z</time>
      </trkpt>
      <trkpt lat="43.209917" lon="-4.983276">
        <ele>2071.204</ele>
        <time>2014-08-28T07:34:45Z</time>
      </trkpt>
      <trkpt lat="43.209900" lon="-4.983386">
        <ele>2070.914</ele>
        <time>2014-08-28T07:35:05Z</time>
      </trkpt>
      <trkpt lat="43.209868" lon="-4.983436">
        <ele>2067.007</ele>
        <time>2014-08-28T07:35:31Z</time>
      </trkpt>
      <trkpt lat="43.209825" lon="-4.983471">
        <ele>2066.520</ele>
        <time>2014-08-28T07:35:35Z</time>
      </trkpt>
      <trkpt lat="43.209790" lon="-4.983518">
        <ele>2067.852</ele>
        <time>2014-08-28T07:35:43Z</time>
      </trkpt>
      <trkpt lat="43.209740" lon="-4.983543">
        <ele>2069.773</ele>
        <time>2014-08-28T07:35:51Z</time>
      </trkpt>
      <trkpt lat="43.209730" lon="-4.983546">
        <ele>2070.086</ele>
        <time>2014-08-28T07:35:52Z</time>
      </trkpt>
      <trkpt lat="43.209715" lon="-4.983646">
        <ele>2071.135</ele>
        <time>2014-08-28T07:36:07Z</time>
      </trkpt>
      <trkpt lat="43.209744" lon="-4.983705">
        <ele>2071.642</ele>
        <time>2014-08-28T07:36:12Z</time>
      </trkpt>
      <trkpt lat="43.209693" lon="-4.983691">
        <ele>2071.988</ele>
        <time>2014-08-28T07:36:27Z</time>
      </trkpt>
      <trkpt lat="43.209645" lon="-4.983661">
        <ele>2073.231</ele>
        <time>2014-08-28T07:36:37Z</time>
      </trkpt>
      <trkpt lat="43.209595" lon="-4.983658">
        <ele>2074.561</ele>
        <time>2014-08-28T07:36:47Z</time>
      </trkpt>
      <trkpt lat="43.209542" lon="-4.983663">
        <ele>2074.507</ele>
        <time>2014-08-28T07:36:53Z</time>
      </trkpt>
      <trkpt lat="43.209532" lon="-4.983660">
        <ele>2074.707</ele>
        <time>2014-08-28T07:36:54Z</time>
      </trkpt>
      <trkpt lat="43.209452" lon="-4.983610">
        <ele>2076.911</ele>
        <time>2014-08-28T07:37:06Z</time>
      </trkpt>
      <trkpt lat="43.209503" lon="-4.983600">
        <ele>2077.943</ele>
        <time>2014-08-28T07:37:20Z</time>
      </trkpt>
      <trkpt lat="43.209548" lon="-4.983580">
        <ele>2078.364</ele>
        <time>2014-08-28T07:37:24Z</time>
      </trkpt>
      <trkpt lat="43.209593" lon="-4.983558">
        <ele>2077.797</ele>
        <time>2014-08-28T07:37:27Z</time>
      </trkpt>
      <trkpt lat="43.209647" lon="-4.983553">
        <ele>2077.846</ele>
        <time>2014-08-28T07:37:34Z</time>
      </trkpt>
      <trkpt lat="43.209605" lon="-4.983586">
        <ele>2074.463</ele>
        <time>2014-08-28T07:37:48Z</time>
      </trkpt>
      <trkpt lat="43.209640" lon="-4.983640">
        <ele>2071.779</ele>
        <time>2014-08-28T07:38:08Z</time>
      </trkpt>
      <trkpt lat="43.209640" lon="-4.983643">
        <ele>2071.929</ele>
        <time>2014-08-28T07:38:09Z</time>
      </trkpt>
      <trkpt lat="43.209652" lon="-4.983701">
        <ele>2074.100</ele>
        <time>2014-08-28T07:39:02Z</time>
      </trkpt>
      <trkpt lat="43.209700" lon="-4.983691">
        <ele>2074.120</ele>
        <time>2014-08-28T07:39:10Z</time>
      </trkpt>
      <trkpt lat="43.209705" lon="-4.983688">
        <ele>2074.007</ele>
        <time>2014-08-28T07:39:11Z</time>
      </trkpt>
      <trkpt lat="43.209615" lon="-4.983731">
        <ele>2081.060</ele>
        <time>2014-08-28T07:39:45Z</time>
      </trkpt>
      <trkpt lat="43.209597" lon="-4.983790">
        <ele>2080.812</ele>
        <time>2014-08-28T07:39:55Z</time>
      </trkpt>
      <trkpt lat="43.209565" lon="-4.983838">
        <ele>2080.013</ele>
        <time>2014-08-28T07:40:00Z</time>
      </trkpt>
      <trkpt lat="43.209537" lon="-4.983895">
        <ele>2080.456</ele>
        <time>2014-08-28T07:40:10Z</time>
      </trkpt>
      <trkpt lat="43.209525" lon="-4.983958">
        <ele>2080.155</ele>
        <time>2014-08-28T07:40:20Z</time>
      </trkpt>
      <trkpt lat="43.209523" lon="-4.983968">
        <ele>2079.932</ele>
        <time>2014-08-28T07:40:21Z</time>
      </trkpt>
      <trkpt lat="43.209447" lon="-4.984036">
        <ele>2080.488</ele>
        <time>2014-08-28T07:40:53Z</time>
      </trkpt>
      <trkpt lat="43.209420" lon="-4.984093">
        <ele>2081.025</ele>
        <time>2014-08-28T07:40:59Z</time>
      </trkpt>
      <trkpt lat="43.209388" lon="-4.984143">
        <ele>2080.926</ele>
        <time>2014-08-28T07:41:05Z</time>
      </trkpt>
      <trkpt lat="43.209355" lon="-4.984193">
        <ele>2080.508</ele>
        <time>2014-08-28T07:41:11Z</time>
      </trkpt>
      <trkpt lat="43.209325" lon="-4.984251">
        <ele>2079.807</ele>
        <time>2014-08-28T07:41:16Z</time>
      </trkpt>
      <trkpt lat="43.209302" lon="-4.984300">
        <ele>2079.010</ele>
        <time>2014-08-28T07:41:20Z</time>
      </trkpt>
      <trkpt lat="43.209270" lon="-4.984348">
        <ele>2077.942</ele>
        <time>2014-08-28T07:41:25Z</time>
      </trkpt>
      <trkpt lat="43.209265" lon="-4.984355">
        <ele>2077.713</ele>
        <time>2014-08-28T07:41:26Z</time>
      </trkpt>
      <trkpt lat="43.209217" lon="-4.984460">
        <ele>2075.366</ele>
        <time>2014-08-28T07:41:40Z</time>
      </trkpt>
      <trkpt lat="43.209170" lon="-4.984495">
        <ele>2074.315</ele>
        <time>2014-08-28T07:41:46Z</time>
      </trkpt>
      <trkpt lat="43.209138" lon="-4.984543">
        <ele>2072.432</ele>
        <time>2014-08-28T07:41:53Z</time>
      </trkpt>
      <trkpt lat="43.209102" lon="-4.984596">
        <ele>2072.358</ele>
        <time>2014-08-28T07:41:59Z</time>
      </trkpt>
      <trkpt lat="43.209065" lon="-4.984643">
        <ele>2070.017</ele>
        <time>2014-08-28T07:42:07Z</time>
      </trkpt>
      <trkpt lat="43.209030" lon="-4.984696">
        <ele>2069.987</ele>
        <time>2014-08-28T07:42:19Z</time>
      </trkpt>
      <trkpt lat="43.208997" lon="-4.984746">
        <ele>2066.915</ele>
        <time>2014-08-28T07:42:30Z</time>
      </trkpt>
      <trkpt lat="43.208993" lon="-4.984751">
        <ele>2066.807</ele>
        <time>2014-08-28T07:42:31Z</time>
      </trkpt>
      <trkpt lat="43.208953" lon="-4.984875">
        <ele>2064.699</ele>
        <time>2014-08-28T07:43:07Z</time>
      </trkpt>
      <trkpt lat="43.208933" lon="-4.984940">
        <ele>2063.161</ele>
        <time>2014-08-28T07:43:19Z</time>
      </trkpt>
      <trkpt lat="43.208913" lon="-4.985001">
        <ele>2060.932</ele>
        <time>2014-08-28T07:43:27Z</time>
      </trkpt>
      <trkpt lat="43.208903" lon="-4.985073">
        <ele>2061.235</ele>
        <time>2014-08-28T07:43:36Z</time>
      </trkpt>
      <trkpt lat="43.208900" lon="-4.985081">
        <ele>2061.464</ele>
        <time>2014-08-28T07:43:37Z</time>
      </trkpt>
      <trkpt lat="43.208993" lon="-4.985123">
        <ele>2058.291</ele>
        <time>2014-08-28T07:43:50Z</time>
      </trkpt>
      <trkpt lat="43.208948" lon="-4.985163">
        <ele>2053.887</ele>
        <time>2014-08-28T07:44:13Z</time>
      </trkpt>
      <trkpt lat="43.208898" lon="-4.985166">
        <ele>2054.075</ele>
        <time>2014-08-28T07:44:20Z</time>
      </trkpt>
      <trkpt lat="43.208867" lon="-4.985218">
        <ele>2050.428</ele>
        <time>2014-08-28T07:44:26Z</time>
      </trkpt>
      <trkpt lat="43.208855" lon="-4.985283">
        <ele>2047.120</ele>
        <time>2014-08-28T07:44:37Z</time>
      </trkpt>
      <trkpt lat="43.208853" lon="-4.985290">
        <ele>2047.307</ele>
        <time>2014-08-28T07:44:38Z</time>
      </trkpt>
      <trkpt lat="43.208848" lon="-4.985415">
        <ele>2045.385</ele>
        <time>2014-08-28T07:44:49Z</time>
      </trkpt>
      <trkpt lat="43.208827" lon="-4.985470">
        <ele>2046.697</ele>
        <time>2014-08-28T07:44:54Z</time>
      </trkpt>
      <trkpt lat="43.208792" lon="-4.985513">
        <ele>2046.038</ele>
        <time>2014-08-28T07:44:58Z</time>
      </trkpt>
      <trkpt lat="43.208753" lon="-4.985565">
        <ele>2044.881</ele>
        <time>2014-08-28T07:45:03Z</time>
      </trkpt>
      <trkpt lat="43.208717" lon="-4.985601">
        <ele>2043.720</ele>
        <time>2014-08-28T07:45:07Z</time>
      </trkpt>
      <trkpt lat="43.208673" lon="-4.985636">
        <ele>2043.677</ele>
        <time>2014-08-28T07:45:11Z</time>
      </trkpt>
      <trkpt lat="43.208622" lon="-4.985656">
        <ele>2043.223</ele>
        <time>2014-08-28T07:45:18Z</time>
      </trkpt>
      <trkpt lat="43.208573" lon="-4.985678">
        <ele>2043.729</ele>
        <time>2014-08-28T07:45:27Z</time>
      </trkpt>
      <trkpt lat="43.208522" lon="-4.985675">
        <ele>2042.400</ele>
        <time>2014-08-28T07:45:34Z</time>
      </trkpt>
      <trkpt lat="43.208468" lon="-4.985676">
        <ele>2042.220</ele>
        <time>2014-08-28T07:45:42Z</time>
      </trkpt>
      <trkpt lat="43.208458" lon="-4.985673">
        <ele>2042.107</ele>
        <time>2014-08-28T07:45:43Z</time>
      </trkpt>
      <trkpt lat="43.208367" lon="-4.985676">
        <ele>2044.210</ele>
        <time>2014-08-28T07:45:56Z</time>
      </trkpt>
      <trkpt lat="43.208317" lon="-4.985655">
        <ele>2045.662</ele>
        <time>2014-08-28T07:46:06Z</time>
      </trkpt>
      <trkpt lat="43.208265" lon="-4.985655">
        <ele>2047.413</ele>
        <time>2014-08-28T07:46:17Z</time>
      </trkpt>
      <trkpt lat="43.208213" lon="-4.985655">
        <ele>2048.116</ele>
        <time>2014-08-28T07:46:28Z</time>
      </trkpt>
      <trkpt lat="43.208160" lon="-4.985655">
        <ele>2047.995</ele>
        <time>2014-08-28T07:46:37Z</time>
      </trkpt>
      <trkpt lat="43.208112" lon="-4.985655">
        <ele>2048.682</ele>
        <time>2014-08-28T07:46:43Z</time>
      </trkpt>
      <trkpt lat="43.208104" lon="-4.985656">
        <ele>2048.958</ele>
        <time>2014-08-28T07:46:44Z</time>
      </trkpt>
      <trkpt lat="43.208017" lon="-4.985671">
        <ele>2050.567</ele>
        <time>2014-08-28T07:46:59Z</time>
      </trkpt>
      <trkpt lat="43.207965" lon="-4.985673">
        <ele>2052.781</ele>
        <time>2014-08-28T07:47:06Z</time>
      </trkpt>
      <trkpt lat="43.207913" lon="-4.985670">
        <ele>2052.819</ele>
        <time>2014-08-28T07:47:14Z</time>
      </trkpt>
      <trkpt lat="43.207863" lon="-4.985666">
        <ele>2053.707</ele>
        <time>2014-08-28T07:47:23Z</time>
      </trkpt>
      <trkpt lat="43.207815" lon="-4.985663">
        <ele>2053.954</ele>
        <time>2014-08-28T07:47:32Z</time>
      </trkpt>
      <trkpt lat="43.207762" lon="-4.985658">
        <ele>2056.916</ele>
        <time>2014-08-28T07:47:42Z</time>
      </trkpt>
      <trkpt lat="43.207718" lon="-4.985628">
        <ele>2057.627</ele>
        <time>2014-08-28T07:47:53Z</time>
      </trkpt>
      <trkpt lat="43.207712" lon="-4.985625">
        <ele>2058.230</ele>
        <time>2014-08-28T07:47:54Z</time>
      </trkpt>
      <trkpt lat="43.207645" lon="-4.985528">
        <ele>2057.789</ele>
        <time>2014-08-28T07:48:28Z</time>
      </trkpt>
      <trkpt lat="43.207595" lon="-4.985521">
        <ele>2060.946</ele>
        <time>2014-08-28T07:49:08Z</time>
      </trkpt>
      <trkpt lat="43.207590" lon="-4.985526">
        <ele>2061.562</ele>
        <time>2014-08-28T07:49:09Z</time>
      </trkpt>
      <trkpt lat="43.207493" lon="-4.985556">
        <ele>2063.586</ele>
        <time>2014-08-28T07:49:29Z</time>
      </trkpt>
      <trkpt lat="43.207440" lon="-4.985566">
        <ele>2065.260</ele>
        <time>2014-08-28T07:49:39Z</time>
      </trkpt>
      <trkpt lat="43.207390" lon="-4.985570">
        <ele>2066.326</ele>
        <time>2014-08-28T07:49:49Z</time>
      </trkpt>
      <trkpt lat="43.207342" lon="-4.985543">
        <ele>2068.207</ele>
        <time>2014-08-28T07:49:57Z</time>
      </trkpt>
      <trkpt lat="43.207290" lon="-4.985523">
        <ele>2069.286</ele>
        <time>2014-08-28T07:50:06Z</time>
      </trkpt>
      <trkpt lat="43.207240" lon="-4.985500">
        <ele>2069.028</ele>
        <time>2014-08-28T07:50:14Z</time>
      </trkpt>
      <trkpt lat="43.207235" lon="-4.985496">
        <ele>2069.159</ele>
        <time>2014-08-28T07:50:15Z</time>
      </trkpt>
      <trkpt lat="43.207142" lon="-4.985488">
        <ele>2071.472</ele>
        <time>2014-08-28T07:50:27Z</time>
      </trkpt>
      <trkpt lat="43.207093" lon="-4.985475">
        <ele>2070.721</ele>
        <time>2014-08-28T07:50:32Z</time>
      </trkpt>
      <trkpt lat="43.207040" lon="-4.985480">
        <ele>2070.018</ele>
        <time>2014-08-28T07:50:40Z</time>
      </trkpt>
      <trkpt lat="43.206992" lon="-4.985455">
        <ele>2069.924</ele>
        <time>2014-08-28T07:51:03Z</time>
      </trkpt>
      <trkpt lat="43.206968" lon="-4.985396">
        <ele>2068.032</ele>
        <time>2014-08-28T07:51:11Z</time>
      </trkpt>
      <trkpt lat="43.206952" lon="-4.985331">
        <ele>2068.492</ele>
        <time>2014-08-28T07:51:19Z</time>
      </trkpt>
      <trkpt lat="43.206952" lon="-4.985320">
        <ele>2068.211</ele>
        <time>2014-08-28T07:51:20Z</time>
      </trkpt>
      <trkpt lat="43.206885" lon="-4.985250">
        <ele>2068.507</ele>
        <time>2014-08-28T07:51:43Z</time>
      </trkpt>
      <trkpt lat="43.206832" lon="-4.985255">
        <ele>2067.591</ele>
        <time>2014-08-28T07:51:56Z</time>
      </trkpt>
      <trkpt lat="43.206825" lon="-4.985183">
        <ele>2066.643</ele>
        <time>2014-08-28T07:52:14Z</time>
      </trkpt>
      <trkpt lat="43.206792" lon="-4.985128">
        <ele>2066.414</ele>
        <time>2014-08-28T07:52:25Z</time>
      </trkpt>
      <trkpt lat="43.206788" lon="-4.985125">
        <ele>2066.697</ele>
        <time>2014-08-28T07:52:26Z</time>
      </trkpt>
      <trkpt lat="43.206742" lon="-4.985145">
        <ele>2069.056</ele>
        <time>2014-08-28T07:53:10Z</time>
      </trkpt>
      <trkpt lat="43.206730" lon="-4.985073">
        <ele>2071.023</ele>
        <time>2014-08-28T07:53:38Z</time>
      </trkpt>
      <trkpt lat="43.206727" lon="-4.985068">
        <ele>2071.029</ele>
        <time>2014-08-28T07:53:39Z</time>
      </trkpt>
      <trkpt lat="43.206645" lon="-4.984993">
        <ele>2073.213</ele>
        <time>2014-08-28T07:54:20Z</time>
      </trkpt>
      <trkpt lat="43.206592" lon="-4.985001">
        <ele>2078.543</ele>
        <time>2014-08-28T07:54:49Z</time>
      </trkpt>
      <trkpt lat="43.206590" lon="-4.985005">
        <ele>2078.807</ele>
        <time>2014-08-28T07:54:50Z</time>
      </trkpt>
      <trkpt lat="43.206492" lon="-4.984998">
        <ele>2080.507</ele>
        <time>2014-08-28T07:55:21Z</time>
      </trkpt>
      <trkpt lat="43.206442" lon="-4.985025">
        <ele>2080.319</ele>
        <time>2014-08-28T07:55:39Z</time>
      </trkpt>
      <trkpt lat="43.206403" lon="-4.985071">
        <ele>2081.811</ele>
        <time>2014-08-28T07:55:50Z</time>
      </trkpt>
      <trkpt lat="43.206402" lon="-4.985081">
        <ele>2081.582</ele>
        <time>2014-08-28T07:55:51Z</time>
      </trkpt>
      <trkpt lat="43.206323" lon="-4.985163">
        <ele>2080.395</ele>
        <time>2014-08-28T07:56:10Z</time>
      </trkpt>
      <trkpt lat="43.206293" lon="-4.985221">
        <ele>2077.684</ele>
        <time>2014-08-28T07:56:23Z</time>
      </trkpt>
      <trkpt lat="43.206257" lon="-4.985275">
        <ele>2077.271</ele>
        <time>2014-08-28T07:56:39Z</time>
      </trkpt>
      <trkpt lat="43.206217" lon="-4.985308">
        <ele>2072.647</ele>
        <time>2014-08-28T07:56:53Z</time>
      </trkpt>
      <trkpt lat="43.206203" lon="-4.985316">
        <ele>2072.481</ele>
        <time>2014-08-28T07:56:54Z</time>
      </trkpt>
      <trkpt lat="43.206120" lon="-4.985296">
        <ele>2070.661</ele>
        <time>2014-08-28T07:57:08Z</time>
      </trkpt>
      <trkpt lat="43.206068" lon="-4.985291">
        <ele>2072.217</ele>
        <time>2014-08-28T07:57:17Z</time>
      </trkpt>
      <trkpt lat="43.206017" lon="-4.985291">
        <ele>2073.407</ele>
        <time>2014-08-28T07:57:28Z</time>
      </trkpt>
      <trkpt lat="43.205965" lon="-4.985300">
        <ele>2075.026</ele>
        <time>2014-08-28T07:57:45Z</time>
      </trkpt>
      <trkpt lat="43.205913" lon="-4.985285">
        <ele>2077.718</ele>
        <time>2014-08-28T07:57:59Z</time>
      </trkpt>
      <trkpt lat="43.205908" lon="-4.985283">
        <ele>2077.789</ele>
        <time>2014-08-28T07:58:00Z</time>
      </trkpt>
      <trkpt lat="43.205835" lon="-4.985205">
        <ele>2081.182</ele>
        <time>2014-08-28T07:58:19Z</time>
      </trkpt>
      <trkpt lat="43.205797" lon="-4.985163">
        <ele>2081.071</ele>
        <time>2014-08-28T07:58:28Z</time>
      </trkpt>
      <trkpt lat="43.205760" lon="-4.985118">
        <ele>2082.728</ele>
        <time>2014-08-28T07:58:38Z</time>
      </trkpt>
      <trkpt lat="43.205718" lon="-4.985075">
        <ele>2083.534</ele>
        <time>2014-08-28T07:58:48Z</time>
      </trkpt>
      <trkpt lat="43.205673" lon="-4.985040">
        <ele>2086.665</ele>
        <time>2014-08-28T07:59:03Z</time>
      </trkpt>
      <trkpt lat="43.205670" lon="-4.985038">
        <ele>2086.668</ele>
        <time>2014-08-28T07:59:04Z</time>
      </trkpt>
      <trkpt lat="43.205620" lon="-4.984913">
        <ele>2083.414</ele>
        <time>2014-08-28T08:00:20Z</time>
      </trkpt>
      <trkpt lat="43.205613" lon="-4.984911">
        <ele>2083.407</ele>
        <time>2014-08-28T08:00:21Z</time>
      </trkpt>
      <trkpt lat="43.205520" lon="-4.984911">
        <ele>2081.334</ele>
        <time>2014-08-28T08:00:35Z</time>
      </trkpt>
      <trkpt lat="43.205475" lon="-4.984875">
        <ele>2078.056</ele>
        <time>2014-08-28T08:00:50Z</time>
      </trkpt>
      <trkpt lat="43.205468" lon="-4.984805">
        <ele>2075.317</ele>
        <time>2014-08-28T08:01:04Z</time>
      </trkpt>
      <trkpt lat="43.205433" lon="-4.984753">
        <ele>2074.780</ele>
        <time>2014-08-28T08:01:09Z</time>
      </trkpt>
      <trkpt lat="43.205392" lon="-4.984720">
        <ele>2076.179</ele>
        <time>2014-08-28T08:01:14Z</time>
      </trkpt>
      <trkpt lat="43.205347" lon="-4.984695">
        <ele>2075.696</ele>
        <time>2014-08-28T08:01:21Z</time>
      </trkpt>
      <trkpt lat="43.205340" lon="-4.984693">
        <ele>2075.472</ele>
        <time>2014-08-28T08:01:22Z</time>
      </trkpt>
      <trkpt lat="43.205303" lon="-4.984570">
        <ele>2073.394</ele>
        <time>2014-08-28T08:01:44Z</time>
      </trkpt>
      <trkpt lat="43.205293" lon="-4.984505">
        <ele>2074.457</ele>
        <time>2014-08-28T08:01:52Z</time>
      </trkpt>
      <trkpt lat="43.205297" lon="-4.984435">
        <ele>2074.622</ele>
        <time>2014-08-28T08:02:00Z</time>
      </trkpt>
      <trkpt lat="43.205290" lon="-4.984361">
        <ele>2075.107</ele>
        <time>2014-08-28T08:02:10Z</time>
      </trkpt>
      <trkpt lat="43.205272" lon="-4.984293">
        <ele>2075.187</ele>
        <time>2014-08-28T08:02:18Z</time>
      </trkpt>
      <trkpt lat="43.205237" lon="-4.984240">
        <ele>2076.319</ele>
        <time>2014-08-28T08:02:27Z</time>
      </trkpt>
      <trkpt lat="43.205233" lon="-4.984235">
        <ele>2075.950</ele>
        <time>2014-08-28T08:02:28Z</time>
      </trkpt>
      <trkpt lat="43.205207" lon="-4.984118">
        <ele>2073.093</ele>
        <time>2014-08-28T08:02:58Z</time>
      </trkpt>
      <trkpt lat="43.205205" lon="-4.984046">
        <ele>2072.162</ele>
        <time>2014-08-28T08:03:07Z</time>
      </trkpt>
      <trkpt lat="43.205165" lon="-4.984000">
        <ele>2071.759</ele>
        <time>2014-08-28T08:03:14Z</time>
      </trkpt>
      <trkpt lat="43.205157" lon="-4.983930">
        <ele>2072.915</ele>
        <time>2014-08-28T08:03:21Z</time>
      </trkpt>
      <trkpt lat="43.205153" lon="-4.983866">
        <ele>2071.464</ele>
        <time>2014-08-28T08:03:26Z</time>
      </trkpt>
      <trkpt lat="43.205150" lon="-4.983796">
        <ele>2071.006</ele>
        <time>2014-08-28T08:03:32Z</time>
      </trkpt>
      <trkpt lat="43.205148" lon="-4.983783">
        <ele>2070.816</ele>
        <time>2014-08-28T08:03:33Z</time>
      </trkpt>
      <trkpt lat="43.205173" lon="-4.983666">
        <ele>2071.007</ele>
        <time>2014-08-28T08:03:42Z</time>
      </trkpt>
      <trkpt lat="43.205203" lon="-4.983611">
        <ele>2070.384</ele>
        <time>2014-08-28T08:03:47Z</time>
      </trkpt>
      <trkpt lat="43.205227" lon="-4.983553">
        <ele>2069.866</ele>
        <time>2014-08-28T08:03:52Z</time>
      </trkpt>
      <trkpt lat="43.205248" lon="-4.983493">
        <ele>2069.057</ele>
        <time>2014-08-28T08:03:58Z</time>
      </trkpt>
      <trkpt lat="43.205258" lon="-4.983426">
        <ele>2069.640</ele>
        <time>2014-08-28T08:04:03Z</time>
      </trkpt>
      <trkpt lat="43.205277" lon="-4.983361">
        <ele>2068.049</ele>
        <time>2014-08-28T08:04:15Z</time>
      </trkpt>
      <trkpt lat="43.205318" lon="-4.983315">
        <ele>2066.186</ele>
        <time>2014-08-28T08:04:31Z</time>
      </trkpt>
      <trkpt lat="43.205368" lon="-4.983293">
        <ele>2064.952</ele>
        <time>2014-08-28T08:04:47Z</time>
      </trkpt>
      <trkpt lat="43.205377" lon="-4.983291">
        <ele>2064.792</ele>
        <time>2014-08-28T08:04:48Z</time>
      </trkpt>
      <trkpt lat="43.205437" lon="-4.983200">
        <ele>2062.773</ele>
        <time>2014-08-28T08:05:03Z</time>
      </trkpt>
      <trkpt lat="43.205480" lon="-4.983156">
        <ele>2062.820</ele>
        <time>2014-08-28T08:05:09Z</time>
      </trkpt>
      <trkpt lat="43.205520" lon="-4.983108">
        <ele>2062.307</ele>
        <time>2014-08-28T08:05:14Z</time>
      </trkpt>
      <trkpt lat="43.205563" lon="-4.983065">
        <ele>2062.257</ele>
        <time>2014-08-28T08:05:21Z</time>
      </trkpt>
      <trkpt lat="43.205588" lon="-4.983008">
        <ele>2062.399</ele>
        <time>2014-08-28T08:05:26Z</time>
      </trkpt>
      <trkpt lat="43.205608" lon="-4.982951">
        <ele>2061.460</ele>
        <time>2014-08-28T08:05:32Z</time>
      </trkpt>
      <trkpt lat="43.205627" lon="-4.982886">
        <ele>2061.763</ele>
        <time>2014-08-28T08:05:38Z</time>
      </trkpt>
      <trkpt lat="43.205680" lon="-4.982885">
        <ele>2060.512</ele>
        <time>2014-08-28T08:05:54Z</time>
      </trkpt>
      <trkpt lat="43.205683" lon="-4.982881">
        <ele>2060.419</ele>
        <time>2014-08-28T08:05:55Z</time>
      </trkpt>
      <trkpt lat="43.205745" lon="-4.982780">
        <ele>2057.485</ele>
        <time>2014-08-28T08:06:20Z</time>
      </trkpt>
      <trkpt lat="43.205703" lon="-4.982733">
        <ele>2056.561</ele>
        <time>2014-08-28T08:06:46Z</time>
      </trkpt>
      <trkpt lat="43.205753" lon="-4.982713">
        <ele>2056.821</ele>
        <time>2014-08-28T08:07:08Z</time>
      </trkpt>
      <trkpt lat="43.205762" lon="-4.982713">
        <ele>2056.313</ele>
        <time>2014-08-28T08:07:09Z</time>
      </trkpt>
      <trkpt lat="43.205853" lon="-4.982740">
        <ele>2055.807</ele>
        <time>2014-08-28T08:07:25Z</time>
      </trkpt>
      <trkpt lat="43.205907" lon="-4.982730">
        <ele>2052.684</ele>
        <time>2014-08-28T08:07:47Z</time>
      </trkpt>
      <trkpt lat="43.205937" lon="-4.982790">
        <ele>2048.426</ele>
        <time>2014-08-28T08:08:15Z</time>
      </trkpt>
      <trkpt lat="43.205937" lon="-4.982796">
        <ele>2048.587</ele>
        <time>2014-08-28T08:08:16Z</time>
      </trkpt>
      <trkpt lat="43.205912" lon="-4.982665">
        <ele>2047.560</ele>
        <time>2014-08-28T08:08:44Z</time>
      </trkpt>
      <trkpt lat="43.205917" lon="-4.982598">
        <ele>2046.399</ele>
        <time>2014-08-28T08:09:00Z</time>
      </trkpt>
      <trkpt lat="43.205922" lon="-4.982525">
        <ele>2044.226</ele>
        <time>2014-08-28T08:09:10Z</time>
      </trkpt>
      <trkpt lat="43.205917" lon="-4.982455">
        <ele>2042.322</ele>
        <time>2014-08-28T08:09:21Z</time>
      </trkpt>
      <trkpt lat="43.205920" lon="-4.982445">
        <ele>2042.137</ele>
        <time>2014-08-28T08:09:22Z</time>
      </trkpt>
      <trkpt lat="43.205965" lon="-4.982331">
        <ele>2037.749</ele>
        <time>2014-08-28T08:09:52Z</time>
      </trkpt>
      <trkpt lat="43.205998" lon="-4.982276">
        <ele>2036.013</ele>
        <time>2014-08-28T08:10:06Z</time>
      </trkpt>
      <trkpt lat="43.206032" lon="-4.982226">
        <ele>2035.307</ele>
        <time>2014-08-28T08:10:13Z</time>
      </trkpt>
      <trkpt lat="43.206037" lon="-4.982160">
        <ele>2031.951</ele>
        <time>2014-08-28T08:10:26Z</time>
      </trkpt>
      <trkpt lat="43.206040" lon="-4.982151">
        <ele>2031.153</ele>
        <time>2014-08-28T08:10:27Z</time>
      </trkpt>
      <trkpt lat="43.206038" lon="-4.982021">
        <ele>2028.484</ele>
        <time>2014-08-28T08:10:47Z</time>
      </trkpt>
      <trkpt lat="43.206017" lon="-4.981958">
        <ele>2027.667</ele>
        <time>2014-08-28T08:10:53Z</time>
      </trkpt>
      <trkpt lat="43.205985" lon="-4.981911">
        <ele>2026.756</ele>
        <time>2014-08-28T08:10:57Z</time>
      </trkpt>
      <trkpt lat="43.205945" lon="-4.981865">
        <ele>2025.143</ele>
        <time>2014-08-28T08:11:02Z</time>
      </trkpt>
      <trkpt lat="43.205998" lon="-4.981873">
        <ele>2025.569</ele>
        <time>2014-08-28T08:11:30Z</time>
      </trkpt>
      <trkpt lat="43.206002" lon="-4.981875">
        <ele>2025.514</ele>
        <time>2014-08-28T08:11:31Z</time>
      </trkpt>
      <trkpt lat="43.205977" lon="-4.981748">
        <ele>2019.354</ele>
        <time>2014-08-28T08:12:17Z</time>
      </trkpt>
      <trkpt lat="43.205988" lon="-4.981681">
        <ele>2016.409</ele>
        <time>2014-08-28T08:12:27Z</time>
      </trkpt>
      <trkpt lat="43.205973" lon="-4.981611">
        <ele>2015.307</ele>
        <time>2014-08-28T08:12:35Z</time>
      </trkpt>
      <trkpt lat="43.205970" lon="-4.981601">
        <ele>2015.129</ele>
        <time>2014-08-28T08:12:36Z</time>
      </trkpt>
      <trkpt lat="43.206005" lon="-4.981495">
        <ele>2011.461</ele>
        <time>2014-08-28T08:12:53Z</time>
      </trkpt>
      <trkpt lat="43.206035" lon="-4.981440">
        <ele>2011.022</ele>
        <time>2014-08-28T08:13:01Z</time>
      </trkpt>
      <trkpt lat="43.206047" lon="-4.981380">
        <ele>2010.675</ele>
        <time>2014-08-28T08:13:07Z</time>
      </trkpt>
      <trkpt lat="43.206055" lon="-4.981315">
        <ele>2010.634</ele>
        <time>2014-08-28T08:13:12Z</time>
      </trkpt>
      <trkpt lat="43.206080" lon="-4.981250">
        <ele>2009.461</ele>
        <time>2014-08-28T08:13:18Z</time>
      </trkpt>
      <trkpt lat="43.206110" lon="-4.981190">
        <ele>2009.787</ele>
        <time>2014-08-28T08:13:25Z</time>
      </trkpt>
      <trkpt lat="43.206140" lon="-4.981131">
        <ele>2008.685</ele>
        <time>2014-08-28T08:13:38Z</time>
      </trkpt>
      <trkpt lat="43.206142" lon="-4.981128">
        <ele>2008.689</ele>
        <time>2014-08-28T08:13:39Z</time>
      </trkpt>
      <trkpt lat="43.206147" lon="-4.981011">
        <ele>2007.117</ele>
        <time>2014-08-28T08:13:54Z</time>
      </trkpt>
      <trkpt lat="43.206115" lon="-4.980968">
        <ele>2006.607</ele>
        <time>2014-08-28T08:13:58Z</time>
      </trkpt>
      <trkpt lat="43.206093" lon="-4.980913">
        <ele>2006.026</ele>
        <time>2014-08-28T08:14:03Z</time>
      </trkpt>
      <trkpt lat="43.206065" lon="-4.980855">
        <ele>2005.078</ele>
        <time>2014-08-28T08:14:08Z</time>
      </trkpt>
      <trkpt lat="43.206058" lon="-4.980783">
        <ele>2004.499</ele>
        <time>2014-08-28T08:14:14Z</time>
      </trkpt>
      <trkpt lat="43.206058" lon="-4.980711">
        <ele>2004.022</ele>
        <time>2014-08-28T08:14:20Z</time>
      </trkpt>
      <trkpt lat="43.206053" lon="-4.980643">
        <ele>2004.311</ele>
        <time>2014-08-28T08:14:26Z</time>
      </trkpt>
      <trkpt lat="43.206045" lon="-4.980571">
        <ele>2006.088</ele>
        <time>2014-08-28T08:14:34Z</time>
      </trkpt>
      <trkpt lat="43.206033" lon="-4.980501">
        <ele>2006.824</ele>
        <time>2014-08-28T08:14:42Z</time>
      </trkpt>
      <trkpt lat="43.206032" lon="-4.980493">
        <ele>2007.156</ele>
        <time>2014-08-28T08:14:43Z</time>
      </trkpt>
      <trkpt lat="43.206033" lon="-4.980355">
        <ele>2007.359</ele>
        <time>2014-08-28T08:14:57Z</time>
      </trkpt>
      <trkpt lat="43.206028" lon="-4.980283">
        <ele>2009.514</ele>
        <time>2014-08-28T08:15:04Z</time>
      </trkpt>
      <trkpt lat="43.206030" lon="-4.980221">
        <ele>2008.207</ele>
        <time>2014-08-28T08:15:11Z</time>
      </trkpt>
      <trkpt lat="43.206020" lon="-4.980158">
        <ele>2010.063</ele>
        <time>2014-08-28T08:15:16Z</time>
      </trkpt>
      <trkpt lat="43.205998" lon="-4.980098">
        <ele>2010.875</ele>
        <time>2014-08-28T08:15:22Z</time>
      </trkpt>
      <trkpt lat="43.205990" lon="-4.980026">
        <ele>2012.086</ele>
        <time>2014-08-28T08:15:39Z</time>
      </trkpt>
      <trkpt lat="43.206002" lon="-4.979960">
        <ele>2013.879</ele>
        <time>2014-08-28T08:15:51Z</time>
      </trkpt>
      <trkpt lat="43.205997" lon="-4.979948">
        <ele>2013.518</ele>
        <time>2014-08-28T08:15:52Z</time>
      </trkpt>
      <trkpt lat="43.205943" lon="-4.979851">
        <ele>2016.645</ele>
        <time>2014-08-28T08:16:12Z</time>
      </trkpt>
      <trkpt lat="43.205992" lon="-4.979820">
        <ele>2016.771</ele>
        <time>2014-08-28T08:16:36Z</time>
      </trkpt>
      <trkpt lat="43.206040" lon="-4.979795">
        <ele>2017.714</ele>
        <time>2014-08-28T08:16:46Z</time>
      </trkpt>
      <trkpt lat="43.206077" lon="-4.979741">
        <ele>2018.954</ele>
        <time>2014-08-28T08:16:57Z</time>
      </trkpt>
      <trkpt lat="43.206078" lon="-4.979736">
        <ele>2018.809</ele>
        <time>2014-08-28T08:16:58Z</time>
      </trkpt>
      <trkpt lat="43.206058" lon="-4.979618">
        <ele>2022.607</ele>
        <time>2014-08-28T08:17:25Z</time>
      </trkpt>
      <trkpt lat="43.206055" lon="-4.979546">
        <ele>2024.449</ele>
        <time>2014-08-28T08:17:40Z</time>
      </trkpt>
      <trkpt lat="43.206088" lon="-4.979498">
        <ele>2024.041</ele>
        <time>2014-08-28T08:17:56Z</time>
      </trkpt>
      <trkpt lat="43.206068" lon="-4.979433">
        <ele>2026.912</ele>
        <time>2014-08-28T08:18:17Z</time>
      </trkpt>
      <trkpt lat="43.206067" lon="-4.979428">
        <ele>2027.095</ele>
        <time>2014-08-28T08:18:18Z</time>
      </trkpt>
      <trkpt lat="43.206057" lon="-4.979295">
        <ele>2027.134</ele>
        <time>2014-08-28T08:18:33Z</time>
      </trkpt>
      <trkpt lat="43.206050" lon="-4.979225">
        <ele>2025.631</ele>
        <time>2014-08-28T08:18:39Z</time>
      </trkpt>
      <trkpt lat="43.206040" lon="-4.979158">
        <ele>2027.097</ele>
        <time>2014-08-28T08:18:52Z</time>
      </trkpt>
      <trkpt lat="43.206008" lon="-4.979100">
        <ele>2025.936</ele>
        <time>2014-08-28T08:19:14Z</time>
      </trkpt>
      <trkpt lat="43.206033" lon="-4.979038">
        <ele>2026.417</ele>
        <time>2014-08-28T08:19:28Z</time>
      </trkpt>
      <trkpt lat="43.206030" lon="-4.979030">
        <ele>2026.518</ele>
        <time>2014-08-28T08:19:29Z</time>
      </trkpt>
      <trkpt lat="43.205952" lon="-4.978968">
        <ele>2026.307</ele>
        <time>2014-08-28T08:20:21Z</time>
      </trkpt>
      <trkpt lat="43.205932" lon="-4.978901">
        <ele>2025.321</ele>
        <time>2014-08-28T08:20:38Z</time>
      </trkpt>
      <trkpt lat="43.205932" lon="-4.978898">
        <ele>2025.283</ele>
        <time>2014-08-28T08:20:39Z</time>
      </trkpt>
      <trkpt lat="43.205958" lon="-4.978840">
        <ele>2023.874</ele>
        <time>2014-08-28T08:21:12Z</time>
      </trkpt>
      <trkpt lat="43.205918" lon="-4.978793">
        <ele>2023.977</ele>
        <time>2014-08-28T08:21:18Z</time>
      </trkpt>
      <trkpt lat="43.205873" lon="-4.978760">
        <ele>2023.596</ele>
        <time>2014-08-28T08:21:26Z</time>
      </trkpt>
      <trkpt lat="43.205838" lon="-4.978705">
        <ele>2024.443</ele>
        <time>2014-08-28T08:21:44Z</time>
      </trkpt>
      <trkpt lat="43.205837" lon="-4.978698">
        <ele>2024.299</ele>
        <time>2014-08-28T08:21:45Z</time>
      </trkpt>
      <trkpt lat="43.205758" lon="-4.978611">
        <ele>2025.566</ele>
        <time>2014-08-28T08:22:02Z</time>
      </trkpt>
      <trkpt lat="43.205718" lon="-4.978566">
        <ele>2025.729</ele>
        <time>2014-08-28T08:22:15Z</time>
      </trkpt>
      <trkpt lat="43.205678" lon="-4.978525">
        <ele>2028.121</ele>
        <time>2014-08-28T08:22:24Z</time>
      </trkpt>
      <trkpt lat="43.205638" lon="-4.978486">
        <ele>2027.507</ele>
        <time>2014-08-28T08:22:32Z</time>
      </trkpt>
      <trkpt lat="43.205628" lon="-4.978416">
        <ele>2028.454</ele>
        <time>2014-08-28T08:22:43Z</time>
      </trkpt>
      <trkpt lat="43.205637" lon="-4.978345">
        <ele>2028.346</ele>
        <time>2014-08-28T08:23:00Z</time>
      </trkpt>
      <trkpt lat="43.205635" lon="-4.978336">
        <ele>2028.497</ele>
        <time>2014-08-28T08:23:01Z</time>
      </trkpt>
      <trkpt lat="43.205587" lon="-4.978223">
        <ele>2029.780</ele>
        <time>2014-08-28T08:23:13Z</time>
      </trkpt>
      <trkpt lat="43.205542" lon="-4.978200">
        <ele>2030.159</ele>
        <time>2014-08-28T08:23:20Z</time>
      </trkpt>
      <trkpt lat="43.205488" lon="-4.978193">
        <ele>2032.246</ele>
        <time>2014-08-28T08:23:26Z</time>
      </trkpt>
      <trkpt lat="43.205438" lon="-4.978178">
        <ele>2032.922</ele>
        <time>2014-08-28T08:23:42Z</time>
      </trkpt>
      <trkpt lat="43.205395" lon="-4.978148">
        <ele>2033.921</ele>
        <time>2014-08-28T08:23:59Z</time>
      </trkpt>
      <trkpt lat="43.205347" lon="-4.978118">
        <ele>2035.241</ele>
        <time>2014-08-28T08:24:11Z</time>
      </trkpt>
      <trkpt lat="43.205343" lon="-4.978116">
        <ele>2035.105</ele>
        <time>2014-08-28T08:24:12Z</time>
      </trkpt>
      <trkpt lat="43.205253" lon="-4.978068">
        <ele>2034.807</ele>
        <time>2014-08-28T08:24:43Z</time>
      </trkpt>
      <trkpt lat="43.205277" lon="-4.978005">
        <ele>2036.180</ele>
        <time>2014-08-28T08:25:09Z</time>
      </trkpt>
      <trkpt lat="43.205250" lon="-4.977951">
        <ele>2033.572</ele>
        <time>2014-08-28T08:25:26Z</time>
      </trkpt>
      <trkpt lat="43.205240" lon="-4.977945">
        <ele>2034.093</ele>
        <time>2014-08-28T08:25:27Z</time>
      </trkpt>
      <trkpt lat="43.205170" lon="-4.977883">
        <ele>2035.276</ele>
        <time>2014-08-28T08:25:43Z</time>
      </trkpt>
      <trkpt lat="43.205123" lon="-4.977873">
        <ele>2034.315</ele>
        <time>2014-08-28T08:25:51Z</time>
      </trkpt>
      <trkpt lat="43.205078" lon="-4.977845">
        <ele>2034.642</ele>
        <time>2014-08-28T08:25:59Z</time>
      </trkpt>
      <trkpt lat="43.205028" lon="-4.977825">
        <ele>2037.118</ele>
        <time>2014-08-28T08:26:10Z</time>
      </trkpt>
      <trkpt lat="43.204982" lon="-4.977790">
        <ele>2037.854</ele>
        <time>2014-08-28T08:26:20Z</time>
      </trkpt>
      <trkpt lat="43.204948" lon="-4.977736">
        <ele>2038.156</ele>
        <time>2014-08-28T08:26:27Z</time>
      </trkpt>
      <trkpt lat="43.204943" lon="-4.977730">
        <ele>2038.411</ele>
        <time>2014-08-28T08:26:28Z</time>
      </trkpt>
      <trkpt lat="43.204888" lon="-4.977631">
        <ele>2041.907</ele>
        <time>2014-08-28T08:26:51Z</time>
      </trkpt>
      <trkpt lat="43.204855" lon="-4.977576">
        <ele>2044.333</ele>
        <time>2014-08-28T08:27:05Z</time>
      </trkpt>
      <trkpt lat="43.204817" lon="-4.977528">
        <ele>2045.435</ele>
        <time>2014-08-28T08:27:20Z</time>
      </trkpt>
      <trkpt lat="43.204823" lon="-4.977456">
        <ele>2047.736</ele>
        <time>2014-08-28T08:27:33Z</time>
      </trkpt>
      <trkpt lat="43.204820" lon="-4.977448">
        <ele>2047.879</ele>
        <time>2014-08-28T08:27:34Z</time>
      </trkpt>
      <trkpt lat="43.204747" lon="-4.977375">
        <ele>2050.348</ele>
        <time>2014-08-28T08:28:05Z</time>
      </trkpt>
      <trkpt lat="43.204710" lon="-4.977323">
        <ele>2052.615</ele>
        <time>2014-08-28T08:28:23Z</time>
      </trkpt>
      <trkpt lat="43.204668" lon="-4.977283">
        <ele>2055.621</ele>
        <time>2014-08-28T08:28:43Z</time>
      </trkpt>
      <trkpt lat="43.204663" lon="-4.977281">
        <ele>2056.086</ele>
        <time>2014-08-28T08:28:44Z</time>
      </trkpt>
      <trkpt lat="43.204572" lon="-4.977226">
        <ele>2060.360</ele>
        <time>2014-08-28T08:29:15Z</time>
      </trkpt>
      <trkpt lat="43.204520" lon="-4.977235">
        <ele>2062.826</ele>
        <time>2014-08-28T08:29:26Z</time>
      </trkpt>
      <trkpt lat="43.204502" lon="-4.977160">
        <ele>2062.807</ele>
        <time>2014-08-28T08:29:42Z</time>
      </trkpt>
      <trkpt lat="43.204517" lon="-4.977230">
        <ele>2063.096</ele>
        <time>2014-08-28T08:29:56Z</time>
      </trkpt>
      <trkpt lat="43.204522" lon="-4.977243">
        <ele>2062.968</ele>
        <time>2014-08-28T08:29:57Z</time>
      </trkpt>
      <trkpt lat="43.204482" lon="-4.977320">
        <ele>2061.059</ele>
        <time>2014-08-28T08:30:13Z</time>
      </trkpt>
      <trkpt lat="43.204432" lon="-4.977298">
        <ele>2060.952</ele>
        <time>2014-08-28T08:30:21Z</time>
      </trkpt>
      <trkpt lat="43.204395" lon="-4.977255">
        <ele>2061.981</ele>
        <time>2014-08-28T08:30:27Z</time>
      </trkpt>
      <trkpt lat="43.204353" lon="-4.977216">
        <ele>2062.238</ele>
        <time>2014-08-28T08:30:35Z</time>
      </trkpt>
      <trkpt lat="43.204330" lon="-4.977161">
        <ele>2061.834</ele>
        <time>2014-08-28T08:30:40Z</time>
      </trkpt>
      <trkpt lat="43.204294" lon="-4.977087">
        <ele>2061.054</ele>
        <time>2014-08-28T08:30:49Z</time>
      </trkpt>
      <trkpt lat="43.204271" lon="-4.976998">
        <ele>2062.056</ele>
        <time>2014-08-28T08:30:57Z</time>
      </trkpt>
      <trkpt lat="43.204268" lon="-4.976983">
        <ele>2062.411</ele>
        <time>2014-08-28T08:30:59Z</time>
      </trkpt>
      <trkpt lat="43.204214" lon="-4.976886">
        <ele>2064.007</ele>
        <time>2014-08-28T08:31:17Z</time>
      </trkpt>
      <trkpt lat="43.204162" lon="-4.976873">
        <ele>2068.033</ele>
        <time>2014-08-28T08:31:43Z</time>
      </trkpt>
      <trkpt lat="43.204099" lon="-4.976888">
        <ele>2069.075</ele>
        <time>2014-08-28T08:31:59Z</time>
      </trkpt>
      <trkpt lat="43.204092" lon="-4.976881">
        <ele>2069.866</ele>
        <time>2014-08-28T08:32:01Z</time>
      </trkpt>
      <trkpt lat="43.204012" lon="-4.976866">
        <ele>2070.349</ele>
        <time>2014-08-28T08:32:16Z</time>
      </trkpt>
      <trkpt lat="43.203972" lon="-4.976821">
        <ele>2071.618</ele>
        <time>2014-08-28T08:32:26Z</time>
      </trkpt>
      <trkpt lat="43.203928" lon="-4.976796">
        <ele>2073.495</ele>
        <time>2014-08-28T08:32:36Z</time>
      </trkpt>
      <trkpt lat="43.203890" lon="-4.976755">
        <ele>2073.771</ele>
        <time>2014-08-28T08:32:42Z</time>
      </trkpt>
      <trkpt lat="43.203855" lon="-4.976700">
        <ele>2073.994</ele>
        <time>2014-08-28T08:32:46Z</time>
      </trkpt>
      <trkpt lat="43.203828" lon="-4.976641">
        <ele>2073.557</ele>
        <time>2014-08-28T08:32:55Z</time>
      </trkpt>
      <trkpt lat="43.203805" lon="-4.976576">
        <ele>2073.322</ele>
        <time>2014-08-28T08:33:02Z</time>
      </trkpt>
      <trkpt lat="43.203780" lon="-4.976516">
        <ele>2072.507</ele>
        <time>2014-08-28T08:33:12Z</time>
      </trkpt>
      <trkpt lat="43.203778" lon="-4.976511">
        <ele>2072.757</ele>
        <time>2014-08-28T08:33:13Z</time>
      </trkpt>
      <trkpt lat="43.203732" lon="-4.976395">
        <ele>2074.719</ele>
        <time>2014-08-28T08:33:40Z</time>
      </trkpt>
      <trkpt lat="43.203707" lon="-4.976333">
        <ele>2076.720</ele>
        <time>2014-08-28T08:33:53Z</time>
      </trkpt>
      <trkpt lat="43.203667" lon="-4.976286">
        <ele>2077.253</ele>
        <time>2014-08-28T08:34:04Z</time>
      </trkpt>
      <trkpt lat="43.203625" lon="-4.976246">
        <ele>2078.032</ele>
        <time>2014-08-28T08:34:14Z</time>
      </trkpt>
      <trkpt lat="43.203623" lon="-4.976241">
        <ele>2077.989</ele>
        <time>2014-08-28T08:34:15Z</time>
      </trkpt>
      <trkpt lat="43.203562" lon="-4.976123">
        <ele>2082.775</ele>
        <time>2014-08-28T08:34:53Z</time>
      </trkpt>
      <trkpt lat="43.203552" lon="-4.976051">
        <ele>2085.228</ele>
        <time>2014-08-28T08:35:07Z</time>
      </trkpt>
      <trkpt lat="43.203523" lon="-4.975990">
        <ele>2091.089</ele>
        <time>2014-08-28T08:36:10Z</time>
      </trkpt>
      <trkpt lat="43.203522" lon="-4.975988">
        <ele>2090.917</ele>
        <time>2014-08-28T08:36:11Z</time>
      </trkpt>
      <trkpt lat="43.203488" lon="-4.976110">
        <ele>2096.207</ele>
        <time>2014-08-28T08:37:13Z</time>
      </trkpt>
      <trkpt lat="43.203488" lon="-4.976118">
        <ele>2096.480</ele>
        <time>2014-08-28T08:37:14Z</time>
      </trkpt>
      <trkpt lat="43.203417" lon="-4.976196">
        <ele>2098.142</ele>
        <time>2014-08-28T08:37:31Z</time>
      </trkpt>
      <trkpt lat="43.203367" lon="-4.976218">
        <ele>2097.843</ele>
        <time>2014-08-28T08:37:37Z</time>
      </trkpt>
      <trkpt lat="43.203318" lon="-4.976246">
        <ele>2097.376</ele>
        <time>2014-08-28T08:37:47Z</time>
      </trkpt>
      <trkpt lat="43.203360" lon="-4.976208">
        <ele>2098.015</ele>
        <time>2014-08-28T08:38:12Z</time>
      </trkpt>
      <trkpt lat="43.203313" lon="-4.976173">
        <ele>2097.662</ele>
        <time>2014-08-28T08:38:29Z</time>
      </trkpt>
      <trkpt lat="43.203302" lon="-4.976168">
        <ele>2097.118</ele>
        <time>2014-08-28T08:38:30Z</time>
      </trkpt>
      <trkpt lat="43.203232" lon="-4.976116">
        <ele>2095.658</ele>
        <time>2014-08-28T08:38:40Z</time>
      </trkpt>
      <trkpt lat="43.203207" lon="-4.976065">
        <ele>2095.552</ele>
        <time>2014-08-28T08:38:48Z</time>
      </trkpt>
      <trkpt lat="43.203165" lon="-4.976031">
        <ele>2095.317</ele>
        <time>2014-08-28T08:38:53Z</time>
      </trkpt>
      <trkpt lat="43.203115" lon="-4.976026">
        <ele>2096.407</ele>
        <time>2014-08-28T08:39:02Z</time>
      </trkpt>
      <trkpt lat="43.203072" lon="-4.976065">
        <ele>2097.293</ele>
        <time>2014-08-28T08:39:13Z</time>
      </trkpt>
      <trkpt lat="43.203023" lon="-4.976083">
        <ele>2094.515</ele>
        <time>2014-08-28T08:39:29Z</time>
      </trkpt>
      <trkpt lat="43.202978" lon="-4.976053">
        <ele>2094.846</ele>
        <time>2014-08-28T08:39:35Z</time>
      </trkpt>
      <trkpt lat="43.202972" lon="-4.976046">
        <ele>2094.499</ele>
        <time>2014-08-28T08:39:36Z</time>
      </trkpt>
      <trkpt lat="43.202898" lon="-4.975963">
        <ele>2092.478</ele>
        <time>2014-08-28T08:39:49Z</time>
      </trkpt>
      <trkpt lat="43.202862" lon="-4.975926">
        <ele>2091.095</ele>
        <time>2014-08-28T08:39:55Z</time>
      </trkpt>
      <trkpt lat="43.202818" lon="-4.975895">
        <ele>2090.181</ele>
        <time>2014-08-28T08:40:01Z</time>
      </trkpt>
      <trkpt lat="43.202768" lon="-4.975900">
        <ele>2088.275</ele>
        <time>2014-08-28T08:40:12Z</time>
      </trkpt>
      <trkpt lat="43.202725" lon="-4.975883">
        <ele>2088.328</ele>
        <time>2014-08-28T08:40:17Z</time>
      </trkpt>
      <trkpt lat="43.202687" lon="-4.975855">
        <ele>2088.120</ele>
        <time>2014-08-28T08:40:21Z</time>
      </trkpt>
      <trkpt lat="43.202639" lon="-4.975825">
        <ele>2088.307</ele>
        <time>2014-08-28T08:40:25Z</time>
      </trkpt>
      <trkpt lat="43.202587" lon="-4.975810">
        <ele>2087.425</ele>
        <time>2014-08-28T08:40:31Z</time>
      </trkpt>
      <trkpt lat="43.202540" lon="-4.975793">
        <ele>2087.567</ele>
        <time>2014-08-28T08:40:35Z</time>
      </trkpt>
      <trkpt lat="43.202488" lon="-4.975780">
        <ele>2087.258</ele>
        <time>2014-08-28T08:40:40Z</time>
      </trkpt>
      <trkpt lat="43.202478" lon="-4.975785">
        <ele>2087.031</ele>
        <time>2014-08-28T08:40:41Z</time>
      </trkpt>
      <trkpt lat="43.202392" lon="-4.975766">
        <ele>2087.340</ele>
        <time>2014-08-28T08:40:53Z</time>
      </trkpt>
      <trkpt lat="43.202347" lon="-4.975736">
        <ele>2086.917</ele>
        <time>2014-08-28T08:40:58Z</time>
      </trkpt>
      <trkpt lat="43.202302" lon="-4.975711">
        <ele>2087.093</ele>
        <time>2014-08-28T08:41:03Z</time>
      </trkpt>
      <trkpt lat="43.202257" lon="-4.975703">
        <ele>2087.917</ele>
        <time>2014-08-28T08:41:07Z</time>
      </trkpt>
      <trkpt lat="43.202210" lon="-4.975683">
        <ele>2088.087</ele>
        <time>2014-08-28T08:41:12Z</time>
      </trkpt>
      <trkpt lat="43.202157" lon="-4.975676">
        <ele>2088.315</ele>
        <time>2014-08-28T08:41:19Z</time>
      </trkpt>
      <trkpt lat="43.202105" lon="-4.975683">
        <ele>2089.607</ele>
        <time>2014-08-28T08:41:27Z</time>
      </trkpt>
      <trkpt lat="43.202062" lon="-4.975715">
        <ele>2089.599</ele>
        <time>2014-08-28T08:41:34Z</time>
      </trkpt>
      <trkpt lat="43.202008" lon="-4.975723">
        <ele>2091.331</ele>
        <time>2014-08-28T08:41:43Z</time>
      </trkpt>
      <trkpt lat="43.202002" lon="-4.975725">
        <ele>2091.742</ele>
        <time>2014-08-28T08:41:44Z</time>
      </trkpt>
      <trkpt lat="43.201908" lon="-4.975751">
        <ele>2094.195</ele>
        <time>2014-08-28T08:42:02Z</time>
      </trkpt>
      <trkpt lat="43.201855" lon="-4.975751">
        <ele>2095.314</ele>
        <time>2014-08-28T08:42:10Z</time>
      </trkpt>
      <trkpt lat="43.201808" lon="-4.975731">
        <ele>2096.631</ele>
        <time>2014-08-28T08:42:17Z</time>
      </trkpt>
      <trkpt lat="43.201767" lon="-4.975703">
        <ele>2096.667</ele>
        <time>2014-08-28T08:42:25Z</time>
      </trkpt>
      <trkpt lat="43.201728" lon="-4.975665">
        <ele>2096.832</ele>
        <time>2014-08-28T08:42:32Z</time>
      </trkpt>
      <trkpt lat="43.201678" lon="-4.975651">
        <ele>2098.292</ele>
        <time>2014-08-28T08:42:41Z</time>
      </trkpt>
      <trkpt lat="43.201625" lon="-4.975653">
        <ele>2099.711</ele>
        <time>2014-08-28T08:42:49Z</time>
      </trkpt>
      <trkpt lat="43.201617" lon="-4.975658">
        <ele>2099.707</ele>
        <time>2014-08-28T08:42:50Z</time>
      </trkpt>
      <trkpt lat="43.201522" lon="-4.975653">
        <ele>2099.891</ele>
        <time>2014-08-28T08:43:05Z</time>
      </trkpt>
      <trkpt lat="43.201472" lon="-4.975680">
        <ele>2100.093</ele>
        <time>2014-08-28T08:43:14Z</time>
      </trkpt>
      <trkpt lat="43.201435" lon="-4.975730">
        <ele>2098.994</ele>
        <time>2014-08-28T08:43:25Z</time>
      </trkpt>
      <trkpt lat="43.201388" lon="-4.975765">
        <ele>2099.027</ele>
        <time>2014-08-28T08:43:40Z</time>
      </trkpt>
      <trkpt lat="43.201342" lon="-4.975750">
        <ele>2099.376</ele>
        <time>2014-08-28T08:43:50Z</time>
      </trkpt>
      <trkpt lat="43.201302" lon="-4.975706">
        <ele>2099.193</ele>
        <time>2014-08-28T08:43:58Z</time>
      </trkpt>
      <trkpt lat="43.201300" lon="-4.975700">
        <ele>2099.429</ele>
        <time>2014-08-28T08:43:59Z</time>
      </trkpt>
      <trkpt lat="43.201242" lon="-4.975593">
        <ele>2095.938</ele>
        <time>2014-08-28T08:44:17Z</time>
      </trkpt>
      <trkpt lat="43.201235" lon="-4.975521">
        <ele>2092.870</ele>
        <time>2014-08-28T08:44:35Z</time>
      </trkpt>
      <trkpt lat="43.201210" lon="-4.975461">
        <ele>2091.117</ele>
        <time>2014-08-28T08:44:44Z</time>
      </trkpt>
      <trkpt lat="43.201215" lon="-4.975396">
        <ele>2089.907</ele>
        <time>2014-08-28T08:44:50Z</time>
      </trkpt>
      <trkpt lat="43.201192" lon="-4.975330">
        <ele>2088.561</ele>
        <time>2014-08-28T08:44:56Z</time>
      </trkpt>
      <trkpt lat="43.201153" lon="-4.975286">
        <ele>2086.133</ele>
        <time>2014-08-28T08:45:03Z</time>
      </trkpt>
      <trkpt lat="43.201147" lon="-4.975285">
        <ele>2085.494</ele>
        <time>2014-08-28T08:45:04Z</time>
      </trkpt>
      <trkpt lat="43.201072" lon="-4.975208">
        <ele>2081.757</ele>
        <time>2014-08-28T08:45:18Z</time>
      </trkpt>
      <trkpt lat="43.201030" lon="-4.975168">
        <ele>2082.186</ele>
        <time>2014-08-28T08:45:26Z</time>
      </trkpt>
      <trkpt lat="43.201035" lon="-4.975105">
        <ele>2077.743</ele>
        <time>2014-08-28T08:45:49Z</time>
      </trkpt>
      <trkpt lat="43.201083" lon="-4.975081">
        <ele>2075.269</ele>
        <time>2014-08-28T08:45:58Z</time>
      </trkpt>
      <trkpt lat="43.201057" lon="-4.975021">
        <ele>2071.425</ele>
        <time>2014-08-28T08:46:22Z</time>
      </trkpt>
      <trkpt lat="43.201050" lon="-4.975021">
        <ele>2070.926</ele>
        <time>2014-08-28T08:46:23Z</time>
      </trkpt>
      <trkpt lat="43.200957" lon="-4.975063">
        <ele>2068.008</ele>
        <time>2014-08-28T08:46:37Z</time>
      </trkpt>
      <trkpt lat="43.200912" lon="-4.975028">
        <ele>2065.807</ele>
        <time>2014-08-28T08:46:50Z</time>
      </trkpt>
      <trkpt lat="43.200863" lon="-4.975055">
        <ele>2064.690</ele>
        <time>2014-08-28T08:46:56Z</time>
      </trkpt>
      <trkpt lat="43.200822" lon="-4.975090">
        <ele>2058.832</ele>
        <time>2014-08-28T08:47:23Z</time>
      </trkpt>
      <trkpt lat="43.200775" lon="-4.975108">
        <ele>2056.813</ele>
        <time>2014-08-28T08:47:32Z</time>
      </trkpt>
      <trkpt lat="43.200770" lon="-4.975111">
        <ele>2056.576</ele>
        <time>2014-08-28T08:47:33Z</time>
      </trkpt>
      <trkpt lat="43.200703" lon="-4.975195">
        <ele>2055.475</ele>
        <time>2014-08-28T08:47:45Z</time>
      </trkpt>
      <trkpt lat="43.200665" lon="-4.975238">
        <ele>2055.212</ele>
        <time>2014-08-28T08:47:49Z</time>
      </trkpt>
      <trkpt lat="43.200635" lon="-4.975291">
        <ele>2055.388</ele>
        <time>2014-08-28T08:47:54Z</time>
      </trkpt>
      <trkpt lat="43.200612" lon="-4.975355">
        <ele>2053.725</ele>
        <time>2014-08-28T08:48:02Z</time>
      </trkpt>
      <trkpt lat="43.200583" lon="-4.975408">
        <ele>2053.326</ele>
        <time>2014-08-28T08:48:06Z</time>
      </trkpt>
      <trkpt lat="43.200553" lon="-4.975466">
        <ele>2053.208</ele>
        <time>2014-08-28T08:48:12Z</time>
      </trkpt>
      <trkpt lat="43.200515" lon="-4.975503">
        <ele>2053.407</ele>
        <time>2014-08-28T08:48:20Z</time>
      </trkpt>
      <trkpt lat="43.200477" lon="-4.975543">
        <ele>2053.370</ele>
        <time>2014-08-28T08:48:26Z</time>
      </trkpt>
      <trkpt lat="43.200432" lon="-4.975548">
        <ele>2053.032</ele>
        <time>2014-08-28T08:48:31Z</time>
      </trkpt>
      <trkpt lat="43.200383" lon="-4.975575">
        <ele>2053.923</ele>
        <time>2014-08-28T08:48:36Z</time>
      </trkpt>
      <trkpt lat="43.200373" lon="-4.975585">
        <ele>2054.036</ele>
        <time>2014-08-28T08:48:37Z</time>
      </trkpt>
      <trkpt lat="43.200297" lon="-4.975635">
        <ele>2055.425</ele>
        <time>2014-08-28T08:48:49Z</time>
      </trkpt>
      <trkpt lat="43.200252" lon="-4.975655">
        <ele>2055.442</ele>
        <time>2014-08-28T08:48:53Z</time>
      </trkpt>
      <trkpt lat="43.200187" lon="-4.975679">
        <ele>2057.068</ele>
        <time>2014-08-28T08:49:00Z</time>
      </trkpt>
      <trkpt lat="43.200133" lon="-4.975666">
        <ele>2057.385</ele>
        <time>2014-08-28T08:49:10Z</time>
      </trkpt>
      <trkpt lat="43.200093" lon="-4.975705">
        <ele>2058.889</ele>
        <time>2014-08-28T08:49:19Z</time>
      </trkpt>
      <trkpt lat="43.200072" lon="-4.975765">
        <ele>2060.117</ele>
        <time>2014-08-28T08:49:27Z</time>
      </trkpt>
      <trkpt lat="43.200047" lon="-4.975825">
        <ele>2059.607</ele>
        <time>2014-08-28T08:49:35Z</time>
      </trkpt>
      <trkpt lat="43.199997" lon="-4.975840">
        <ele>2058.156</ele>
        <time>2014-08-28T08:49:44Z</time>
      </trkpt>
      <trkpt lat="43.199992" lon="-4.975843">
        <ele>2057.928</ele>
        <time>2014-08-28T08:49:45Z</time>
      </trkpt>
      <trkpt lat="43.199895" lon="-4.975314">
        <ele>2058.029</ele>
        <time>2014-08-28T08:49:55Z</time>
      </trkpt>
      <trkpt lat="43.199880" lon="-4.975176">
        <ele>2058.642</ele>
        <time>2014-08-28T08:49:57Z</time>
      </trkpt>
      <trkpt lat="43.199868" lon="-4.975086">
        <ele>2058.641</ele>
        <time>2014-08-28T08:49:58Z</time>
      </trkpt>
      <trkpt lat="43.199855" lon="-4.975003">
        <ele>2058.628</ele>
        <time>2014-08-28T08:49:59Z</time>
      </trkpt>
      <trkpt lat="43.199843" lon="-4.974928">
        <ele>2058.664</ele>
        <time>2014-08-28T08:50:00Z</time>
      </trkpt>
      <trkpt lat="43.199833" lon="-4.974855">
        <ele>2059.042</ele>
        <time>2014-08-28T08:50:01Z</time>
      </trkpt>
      <trkpt lat="43.199825" lon="-4.974788">
        <ele>2059.222</ele>
        <time>2014-08-28T08:50:02Z</time>
      </trkpt>
      <trkpt lat="43.199817" lon="-4.974730">
        <ele>2059.014</ele>
        <time>2014-08-28T08:50:03Z</time>
      </trkpt>
      <trkpt lat="43.199810" lon="-4.974675">
        <ele>2058.907</ele>
        <time>2014-08-28T08:50:04Z</time>
      </trkpt>
      <trkpt lat="43.199803" lon="-4.974621">
        <ele>2058.672</ele>
        <time>2014-08-28T08:50:05Z</time>
      </trkpt>
      <trkpt lat="43.199797" lon="-4.974568">
        <ele>2058.344</ele>
        <time>2014-08-28T08:50:06Z</time>
      </trkpt>
      <trkpt lat="43.199792" lon="-4.974518">
        <ele>2058.225</ele>
        <time>2014-08-28T08:50:07Z</time>
      </trkpt>
      <trkpt lat="43.199788" lon="-4.974471">
        <ele>2057.948</ele>
        <time>2014-08-28T08:50:08Z</time>
      </trkpt>
      <trkpt lat="43.199783" lon="-4.974430">
        <ele>2057.697</ele>
        <time>2014-08-28T08:50:09Z</time>
      </trkpt>
      <trkpt lat="43.199780" lon="-4.974388">
        <ele>2057.954</ele>
        <time>2014-08-28T08:50:10Z</time>
      </trkpt>
      <trkpt lat="43.199777" lon="-4.974348">
        <ele>2058.190</ele>
        <time>2014-08-28T08:50:11Z</time>
      </trkpt>
      <trkpt lat="43.199773" lon="-4.974280">
        <ele>2058.278</ele>
        <time>2014-08-28T08:50:13Z</time>
      </trkpt>
      <trkpt lat="43.199768" lon="-4.974225">
        <ele>2058.033</ele>
        <time>2014-08-28T08:50:15Z</time>
      </trkpt>
      <trkpt lat="43.199772" lon="-4.974156">
        <ele>2058.126</ele>
        <time>2014-08-28T08:50:19Z</time>
      </trkpt>
      <trkpt lat="43.199792" lon="-4.974093">
        <ele>2057.807</ele>
        <time>2014-08-28T08:50:27Z</time>
      </trkpt>
      <trkpt lat="43.199779" lon="-4.973984">
        <ele>2056.035</ele>
        <time>2014-08-28T08:50:55Z</time>
      </trkpt>
      <trkpt lat="43.199772" lon="-4.973965">
        <ele>2056.817</ele>
        <time>2014-08-28T08:50:57Z</time>
      </trkpt>
      <trkpt lat="43.199717" lon="-4.973786">
        <ele>2053.048</ele>
        <time>2014-08-28T08:51:11Z</time>
      </trkpt>
      <trkpt lat="43.199684" lon="-4.973721">
        <ele>2052.011</ele>
        <time>2014-08-28T08:51:19Z</time>
      </trkpt>
      <trkpt lat="43.199663" lon="-4.973651">
        <ele>2051.520</ele>
        <time>2014-08-28T08:51:29Z</time>
      </trkpt>
      <trkpt lat="43.199640" lon="-4.973598">
        <ele>2051.437</ele>
        <time>2014-08-28T08:51:35Z</time>
      </trkpt>
      <trkpt lat="43.199574" lon="-4.973568">
        <ele>2051.063</ele>
        <time>2014-08-28T08:51:43Z</time>
      </trkpt>
      <trkpt lat="43.199532" lon="-4.973526">
        <ele>2050.095</ele>
        <time>2014-08-28T08:51:49Z</time>
      </trkpt>
      <trkpt lat="43.199483" lon="-4.973498">
        <ele>2051.349</ele>
        <time>2014-08-28T08:51:55Z</time>
      </trkpt>
      <trkpt lat="43.199437" lon="-4.973503">
        <ele>2051.623</ele>
        <time>2014-08-28T08:52:01Z</time>
      </trkpt>
      <trkpt lat="43.199430" lon="-4.973510">
        <ele>2051.507</ele>
        <time>2014-08-28T08:52:02Z</time>
      </trkpt>
      <trkpt lat="43.199333" lon="-4.973513">
        <ele>2052.427</ele>
        <time>2014-08-28T08:52:19Z</time>
      </trkpt>
      <trkpt lat="43.199297" lon="-4.973470">
        <ele>2051.419</ele>
        <time>2014-08-28T08:52:31Z</time>
      </trkpt>
      <trkpt lat="43.199282" lon="-4.973421">
        <ele>2051.260</ele>
        <time>2014-08-28T08:52:33Z</time>
      </trkpt>
      <trkpt lat="43.199263" lon="-4.973366">
        <ele>2050.293</ele>
        <time>2014-08-28T08:52:36Z</time>
      </trkpt>
      <trkpt lat="43.199230" lon="-4.973313">
        <ele>2050.272</ele>
        <time>2014-08-28T08:52:40Z</time>
      </trkpt>
      <trkpt lat="43.199198" lon="-4.973266">
        <ele>2050.259</ele>
        <time>2014-08-28T08:52:44Z</time>
      </trkpt>
      <trkpt lat="43.199162" lon="-4.973226">
        <ele>2050.115</ele>
        <time>2014-08-28T08:52:47Z</time>
      </trkpt>
      <trkpt lat="43.199123" lon="-4.973183">
        <ele>2050.328</ele>
        <time>2014-08-28T08:52:52Z</time>
      </trkpt>
      <trkpt lat="43.199083" lon="-4.973136">
        <ele>2048.789</ele>
        <time>2014-08-28T08:52:57Z</time>
      </trkpt>
      <trkpt lat="43.199044" lon="-4.973095">
        <ele>2047.617</ele>
        <time>2014-08-28T08:53:02Z</time>
      </trkpt>
      <trkpt lat="43.199035" lon="-4.973091">
        <ele>2047.307</ele>
        <time>2014-08-28T08:53:03Z</time>
      </trkpt>
      <trkpt lat="43.198941" lon="-4.973072">
        <ele>2046.020</ele>
        <time>2014-08-28T08:53:17Z</time>
      </trkpt>
      <trkpt lat="43.198898" lon="-4.973035">
        <ele>2042.822</ele>
        <time>2014-08-28T08:53:27Z</time>
      </trkpt>
      <trkpt lat="43.198853" lon="-4.972986">
        <ele>2042.033</ele>
        <time>2014-08-28T08:53:34Z</time>
      </trkpt>
      <trkpt lat="43.198808" lon="-4.972946">
        <ele>2041.776</ele>
        <time>2014-08-28T08:53:44Z</time>
      </trkpt>
      <trkpt lat="43.198757" lon="-4.972933">
        <ele>2041.535</ele>
        <time>2014-08-28T08:53:51Z</time>
      </trkpt>
      <trkpt lat="43.198705" lon="-4.972946">
        <ele>2040.352</ele>
        <time>2014-08-28T08:54:03Z</time>
      </trkpt>
      <trkpt lat="43.198702" lon="-4.972948">
        <ele>2040.258</ele>
        <time>2014-08-28T08:54:04Z</time>
      </trkpt>
      <trkpt lat="43.198608" lon="-4.973001">
        <ele>2038.761</ele>
        <time>2014-08-28T08:54:14Z</time>
      </trkpt>
      <trkpt lat="43.198560" lon="-4.973003">
        <ele>2040.721</ele>
        <time>2014-08-28T08:54:24Z</time>
      </trkpt>
      <trkpt lat="43.198550" lon="-4.973078">
        <ele>2042.813</ele>
        <time>2014-08-28T08:55:01Z</time>
      </trkpt>
      <trkpt lat="43.198502" lon="-4.973081">
        <ele>2043.507</ele>
        <time>2014-08-28T08:55:10Z</time>
      </trkpt>
      <trkpt lat="43.198493" lon="-4.973085">
        <ele>2043.644</ele>
        <time>2014-08-28T08:55:11Z</time>
      </trkpt>
      <trkpt lat="43.198403" lon="-4.973048">
        <ele>2040.936</ele>
        <time>2014-08-28T08:55:27Z</time>
      </trkpt>
      <trkpt lat="43.198347" lon="-4.973078">
        <ele>2040.787</ele>
        <time>2014-08-28T08:55:39Z</time>
      </trkpt>
      <trkpt lat="43.198300" lon="-4.973095">
        <ele>2039.390</ele>
        <time>2014-08-28T08:55:46Z</time>
      </trkpt>
      <trkpt lat="43.198257" lon="-4.973106">
        <ele>2039.249</ele>
        <time>2014-08-28T08:55:51Z</time>
      </trkpt>
      <trkpt lat="43.198205" lon="-4.973098">
        <ele>2038.846</ele>
        <time>2014-08-28T08:56:01Z</time>
      </trkpt>
      <trkpt lat="43.198145" lon="-4.973110">
        <ele>2039.092</ele>
        <time>2014-08-28T08:56:25Z</time>
      </trkpt>
      <trkpt lat="43.198143" lon="-4.973115">
        <ele>2039.254</ele>
        <time>2014-08-28T08:56:27Z</time>
      </trkpt>
      <trkpt lat="43.198063" lon="-4.973191">
        <ele>2038.356</ele>
        <time>2014-08-28T08:56:52Z</time>
      </trkpt>
      <trkpt lat="43.198038" lon="-4.973253">
        <ele>2038.811</ele>
        <time>2014-08-28T08:57:00Z</time>
      </trkpt>
      <trkpt lat="43.197990" lon="-4.973281">
        <ele>2038.007</ele>
        <time>2014-08-28T08:57:13Z</time>
      </trkpt>
      <trkpt lat="43.197931" lon="-4.973277">
        <ele>2036.023</ele>
        <time>2014-08-28T08:57:34Z</time>
      </trkpt>
      <trkpt lat="43.197930" lon="-4.973275">
        <ele>2036.655</ele>
        <time>2014-08-28T08:57:36Z</time>
      </trkpt>
      <trkpt lat="43.197840" lon="-4.973345">
        <ele>2038.586</ele>
        <time>2014-08-28T08:58:09Z</time>
      </trkpt>
      <trkpt lat="43.197791" lon="-4.973396">
        <ele>2039.039</ele>
        <time>2014-08-28T08:58:21Z</time>
      </trkpt>
      <trkpt lat="43.197741" lon="-4.973327">
        <ele>2042.088</ele>
        <time>2014-08-28T08:58:39Z</time>
      </trkpt>
      <trkpt lat="43.197740" lon="-4.973321">
        <ele>2042.825</ele>
        <time>2014-08-28T08:58:41Z</time>
      </trkpt>
      <trkpt lat="43.197628" lon="-4.973296">
        <ele>2047.771</ele>
        <time>2014-08-28T08:59:24Z</time>
      </trkpt>
      <trkpt lat="43.197583" lon="-4.973308">
        <ele>2048.118</ele>
        <time>2014-08-28T08:59:32Z</time>
      </trkpt>
      <trkpt lat="43.197529" lon="-4.973300">
        <ele>2048.098</ele>
        <time>2014-08-28T08:59:43Z</time>
      </trkpt>
      <trkpt lat="43.197523" lon="-4.973301">
        <ele>2048.417</ele>
        <time>2014-08-28T08:59:45Z</time>
      </trkpt>
      <trkpt lat="43.197480" lon="-4.973183">
        <ele>2052.607</ele>
        <time>2014-08-28T09:00:09Z</time>
      </trkpt>
      <trkpt lat="43.197495" lon="-4.973110">
        <ele>2054.179</ele>
        <time>2014-08-28T09:00:16Z</time>
      </trkpt>
      <trkpt lat="43.197515" lon="-4.973035">
        <ele>2053.931</ele>
        <time>2014-08-28T09:00:28Z</time>
      </trkpt>
      <trkpt lat="43.197535" lon="-4.973116">
        <ele>2053.092</ele>
        <time>2014-08-28T09:00:39Z</time>
      </trkpt>
      <trkpt lat="43.197456" lon="-4.973104">
        <ele>2053.075</ele>
        <time>2014-08-28T09:01:13Z</time>
      </trkpt>
      <trkpt lat="43.197448" lon="-4.973100">
        <ele>2053.684</ele>
        <time>2014-08-28T09:01:15Z</time>
      </trkpt>
      <trkpt lat="43.197329" lon="-4.973063">
        <ele>2056.091</ele>
        <time>2014-08-28T09:01:40Z</time>
      </trkpt>
      <trkpt lat="43.197286" lon="-4.973014">
        <ele>2058.047</ele>
        <time>2014-08-28T09:01:52Z</time>
      </trkpt>
      <trkpt lat="43.197233" lon="-4.972981">
        <ele>2061.525</ele>
        <time>2014-08-28T09:02:12Z</time>
      </trkpt>
      <trkpt lat="43.197181" lon="-4.972960">
        <ele>2063.026</ele>
        <time>2014-08-28T09:02:26Z</time>
      </trkpt>
      <trkpt lat="43.197177" lon="-4.972956">
        <ele>2064.108</ele>
        <time>2014-08-28T09:02:28Z</time>
      </trkpt>
      <trkpt lat="43.197070" lon="-4.972849">
        <ele>2068.007</ele>
        <time>2014-08-28T09:03:00Z</time>
      </trkpt>
      <trkpt lat="43.197020" lon="-4.972866">
        <ele>2071.550</ele>
        <time>2014-08-28T09:03:11Z</time>
      </trkpt>
      <trkpt lat="43.196975" lon="-4.972909">
        <ele>2071.052</ele>
        <time>2014-08-28T09:03:18Z</time>
      </trkpt>
      <trkpt lat="43.196942" lon="-4.972968">
        <ele>2073.013</ele>
        <time>2014-08-28T09:03:30Z</time>
      </trkpt>
      <trkpt lat="43.196938" lon="-4.972971">
        <ele>2073.226</ele>
        <time>2014-08-28T09:03:31Z</time>
      </trkpt>
      <trkpt lat="43.196873" lon="-4.973085">
        <ele>2075.095</ele>
        <time>2014-08-28T09:03:44Z</time>
      </trkpt>
      <trkpt lat="43.196814" lon="-4.973132">
        <ele>2076.072</ele>
        <time>2014-08-28T09:03:52Z</time>
      </trkpt>
      <trkpt lat="43.196768" lon="-4.973105">
        <ele>2077.318</ele>
        <time>2014-08-28T09:04:00Z</time>
      </trkpt>
      <trkpt lat="43.196728" lon="-4.973056">
        <ele>2078.985</ele>
        <time>2014-08-28T09:04:06Z</time>
      </trkpt>
      <trkpt lat="43.196692" lon="-4.973016">
        <ele>2079.489</ele>
        <time>2014-08-28T09:04:11Z</time>
      </trkpt>
      <trkpt lat="43.196653" lon="-4.972940">
        <ele>2079.017</ele>
        <time>2014-08-28T09:04:18Z</time>
      </trkpt>
      <trkpt lat="43.196613" lon="-4.972896">
        <ele>2081.607</ele>
        <time>2014-08-28T09:04:33Z</time>
      </trkpt>
      <trkpt lat="43.196608" lon="-4.972888">
        <ele>2081.866</ele>
        <time>2014-08-28T09:04:34Z</time>
      </trkpt>
      <trkpt lat="43.196542" lon="-4.972801">
        <ele>2084.068</ele>
        <time>2014-08-28T09:04:47Z</time>
      </trkpt>
      <trkpt lat="43.196493" lon="-4.972771">
        <ele>2084.239</ele>
        <time>2014-08-28T09:04:54Z</time>
      </trkpt>
      <trkpt lat="43.196460" lon="-4.972716">
        <ele>2085.462</ele>
        <time>2014-08-28T09:05:10Z</time>
      </trkpt>
      <trkpt lat="43.196445" lon="-4.972646">
        <ele>2084.191</ele>
        <time>2014-08-28T09:05:33Z</time>
      </trkpt>
      <trkpt lat="43.196455" lon="-4.972575">
        <ele>2084.228</ele>
        <time>2014-08-28T09:06:18Z</time>
      </trkpt>
      <trkpt lat="43.196455" lon="-4.972573">
        <ele>2083.934</ele>
        <time>2014-08-28T09:06:19Z</time>
      </trkpt>
      <trkpt lat="43.196425" lon="-4.972636">
        <ele>2084.648</ele>
        <time>2014-08-28T09:07:43Z</time>
      </trkpt>
      <trkpt lat="43.196393" lon="-4.972575">
        <ele>2084.761</ele>
        <time>2014-08-28T09:14:30Z</time>
      </trkpt>
      <trkpt lat="43.196320" lon="-4.972495">
        <ele>2084.417</ele>
        <time>2014-08-28T09:14:42Z</time>
      </trkpt>
      <trkpt lat="43.196278" lon="-4.972456">
        <ele>2084.507</ele>
        <time>2014-08-28T09:14:50Z</time>
      </trkpt>
      <trkpt lat="43.196312" lon="-4.972510">
        <ele>2084.862</ele>
        <time>2014-08-28T09:15:28Z</time>
      </trkpt>
      <trkpt lat="43.196352" lon="-4.972550">
        <ele>2084.334</ele>
        <time>2014-08-28T09:15:34Z</time>
      </trkpt>
      <trkpt lat="43.196362" lon="-4.972558">
        <ele>2084.255</ele>
        <time>2014-08-28T09:15:35Z</time>
      </trkpt>
      <trkpt lat="43.196313" lon="-4.972488">
        <ele>2084.168</ele>
        <time>2014-08-28T09:17:14Z</time>
      </trkpt>
      <trkpt lat="43.196235" lon="-4.972410">
        <ele>2083.897</ele>
        <time>2014-08-28T09:17:32Z</time>
      </trkpt>
      <trkpt lat="43.196197" lon="-4.972365">
        <ele>2085.124</ele>
        <time>2014-08-28T09:17:40Z</time>
      </trkpt>
      <trkpt lat="43.196237" lon="-4.972405">
        <ele>2084.120</ele>
        <time>2014-08-28T09:18:13Z</time>
      </trkpt>
      <trkpt lat="43.196197" lon="-4.972358">
        <ele>2084.667</ele>
        <time>2014-08-28T09:18:51Z</time>
      </trkpt>
      <trkpt lat="43.196195" lon="-4.972356">
        <ele>2084.681</ele>
        <time>2014-08-28T09:18:52Z</time>
      </trkpt>
      <trkpt lat="43.196193" lon="-4.972356">
        <ele>2085.019</ele>
        <time>2014-08-28T09:19:39Z</time>
      </trkpt>
      <trkpt lat="43.196233" lon="-4.972395">
        <ele>2084.607</ele>
        <time>2014-08-28T09:19:42Z</time>
      </trkpt>
      <trkpt lat="43.196272" lon="-4.972430">
        <ele>2085.394</ele>
        <time>2014-08-28T09:19:44Z</time>
      </trkpt>
      <trkpt lat="43.196305" lon="-4.972458">
        <ele>2085.266</ele>
        <time>2014-08-28T09:19:46Z</time>
      </trkpt>
      <trkpt lat="43.196343" lon="-4.972485">
        <ele>2085.357</ele>
        <time>2014-08-28T09:19:52Z</time>
      </trkpt>
      <trkpt lat="43.196383" lon="-4.972530">
        <ele>2084.740</ele>
        <time>2014-08-28T09:20:00Z</time>
      </trkpt>
      <trkpt lat="43.196385" lon="-4.972535">
        <ele>2084.979</ele>
        <time>2014-08-28T09:20:01Z</time>
      </trkpt>
      <trkpt lat="43.196377" lon="-4.972541">
        <ele>2086.056</ele>
        <time>2014-08-28T09:21:02Z</time>
      </trkpt>
      <trkpt lat="43.196418" lon="-4.972586">
        <ele>2084.792</ele>
        <time>2014-08-28T09:21:05Z</time>
      </trkpt>
      <trkpt lat="43.196428" lon="-4.972598">
        <ele>2084.634</ele>
        <time>2014-08-28T09:21:06Z</time>
      </trkpt>
      <trkpt lat="43.196492" lon="-4.972645">
        <ele>2085.255</ele>
        <time>2014-08-28T09:21:11Z</time>
      </trkpt>
      <trkpt lat="43.196535" lon="-4.972683">
        <ele>2084.910</ele>
        <time>2014-08-28T09:21:14Z</time>
      </trkpt>
      <trkpt lat="43.196557" lon="-4.972620">
        <ele>2085.507</ele>
        <time>2014-08-28T09:21:48Z</time>
      </trkpt>
      <trkpt lat="43.196608" lon="-4.972615">
        <ele>2084.181</ele>
        <time>2014-08-28T09:22:43Z</time>
      </trkpt>
      <trkpt lat="43.196612" lon="-4.972611">
        <ele>2084.293</ele>
        <time>2014-08-28T09:22:44Z</time>
      </trkpt>
      <trkpt lat="43.196603" lon="-4.972601">
        <ele>2085.144</ele>
        <time>2014-08-28T09:23:23Z</time>
      </trkpt>
      <trkpt lat="43.196558" lon="-4.972640">
        <ele>2085.567</ele>
        <time>2014-08-28T09:23:40Z</time>
      </trkpt>
      <trkpt lat="43.196508" lon="-4.972633">
        <ele>2086.446</ele>
        <time>2014-08-28T09:23:55Z</time>
      </trkpt>
      <trkpt lat="43.196502" lon="-4.972630">
        <ele>2086.683</ele>
        <time>2014-08-28T09:23:56Z</time>
      </trkpt>
      <trkpt lat="43.196523" lon="-4.972505">
        <ele>2085.079</ele>
        <time>2014-08-28T09:24:27Z</time>
      </trkpt>
      <trkpt lat="43.196507" lon="-4.972438">
        <ele>2082.929</ele>
        <time>2014-08-28T09:24:45Z</time>
      </trkpt>
      <trkpt lat="43.196472" lon="-4.972383">
        <ele>2081.700</ele>
        <time>2014-08-28T09:24:55Z</time>
      </trkpt>
      <trkpt lat="43.196420" lon="-4.972368">
        <ele>2081.220</ele>
        <time>2014-08-28T09:25:05Z</time>
      </trkpt>
      <trkpt lat="43.196417" lon="-4.972365">
        <ele>2080.607</ele>
        <time>2014-08-28T09:25:06Z</time>
      </trkpt>
      <trkpt lat="43.196362" lon="-4.972255">
        <ele>2078.570</ele>
        <time>2014-08-28T09:25:52Z</time>
      </trkpt>
      <trkpt lat="43.196328" lon="-4.972200">
        <ele>2076.892</ele>
        <time>2014-08-28T09:26:13Z</time>
      </trkpt>
      <trkpt lat="43.196327" lon="-4.972193">
        <ele>2076.893</ele>
        <time>2014-08-28T09:26:14Z</time>
      </trkpt>
      <trkpt lat="43.196335" lon="-4.972060">
        <ele>2076.196</ele>
        <time>2014-08-28T09:26:40Z</time>
      </trkpt>
      <trkpt lat="43.196348" lon="-4.971991">
        <ele>2075.735</ele>
        <time>2014-08-28T09:26:48Z</time>
      </trkpt>
      <trkpt lat="43.196392" lon="-4.971951">
        <ele>2076.452</ele>
        <time>2014-08-28T09:27:00Z</time>
      </trkpt>
      <trkpt lat="43.196427" lon="-4.971896">
        <ele>2078.768</ele>
        <time>2014-08-28T09:27:11Z</time>
      </trkpt>
      <trkpt lat="43.196473" lon="-4.971865">
        <ele>2078.024</ele>
        <time>2014-08-28T09:27:21Z</time>
      </trkpt>
      <trkpt lat="43.196477" lon="-4.971856">
        <ele>2078.104</ele>
        <time>2014-08-28T09:27:22Z</time>
      </trkpt>
      <trkpt lat="43.196517" lon="-4.971736">
        <ele>2073.514</ele>
        <time>2014-08-28T09:27:49Z</time>
      </trkpt>
      <trkpt lat="43.196530" lon="-4.971671">
        <ele>2071.407</ele>
        <time>2014-08-28T09:28:01Z</time>
      </trkpt>
      <trkpt lat="43.196568" lon="-4.971680">
        <ele>2070.720</ele>
        <time>2014-08-28T09:28:04Z</time>
      </trkpt>
      <trkpt lat="43.196605" lon="-4.971700">
        <ele>2070.732</ele>
        <time>2014-08-28T09:28:06Z</time>
      </trkpt>
      <trkpt lat="43.196647" lon="-4.971723">
        <ele>2070.743</ele>
        <time>2014-08-28T09:28:09Z</time>
      </trkpt>
      <trkpt lat="43.196700" lon="-4.971713">
        <ele>2070.416</ele>
        <time>2014-08-28T09:28:16Z</time>
      </trkpt>
      <trkpt lat="43.196708" lon="-4.971646">
        <ele>2069.295</ele>
        <time>2014-08-28T09:28:21Z</time>
      </trkpt>
      <trkpt lat="43.196708" lon="-4.971588">
        <ele>2068.932</ele>
        <time>2014-08-28T09:28:24Z</time>
      </trkpt>
      <trkpt lat="43.196708" lon="-4.971568">
        <ele>2068.768</ele>
        <time>2014-08-28T09:28:25Z</time>
      </trkpt>
      <trkpt lat="43.196698" lon="-4.971463">
        <ele>2066.672</ele>
        <time>2014-08-28T09:28:33Z</time>
      </trkpt>
      <trkpt lat="43.196747" lon="-4.971435">
        <ele>2065.813</ele>
        <time>2014-08-28T09:28:41Z</time>
      </trkpt>
      <trkpt lat="43.196797" lon="-4.971431">
        <ele>2063.514</ele>
        <time>2014-08-28T09:28:45Z</time>
      </trkpt>
      <trkpt lat="43.196835" lon="-4.971383">
        <ele>2062.507</ele>
        <time>2014-08-28T09:28:51Z</time>
      </trkpt>
      <trkpt lat="43.196880" lon="-4.971350">
        <ele>2061.885</ele>
        <time>2014-08-28T09:28:58Z</time>
      </trkpt>
      <trkpt lat="43.196892" lon="-4.971283">
        <ele>2061.587</ele>
        <time>2014-08-28T09:29:08Z</time>
      </trkpt>
      <trkpt lat="43.196900" lon="-4.971215">
        <ele>2061.858</ele>
        <time>2014-08-28T09:29:24Z</time>
      </trkpt>
      <trkpt lat="43.196913" lon="-4.971151">
        <ele>2060.911</ele>
        <time>2014-08-28T09:29:31Z</time>
      </trkpt>
      <trkpt lat="43.196912" lon="-4.971138">
        <ele>2061.050</ele>
        <time>2014-08-28T09:29:32Z</time>
      </trkpt>
      <trkpt lat="43.196910" lon="-4.971021">
        <ele>2061.887</ele>
        <time>2014-08-28T09:29:41Z</time>
      </trkpt>
      <trkpt lat="43.196907" lon="-4.970955">
        <ele>2062.033</ele>
        <time>2014-08-28T09:29:45Z</time>
      </trkpt>
      <trkpt lat="43.196933" lon="-4.970903">
        <ele>2061.557</ele>
        <time>2014-08-28T09:29:51Z</time>
      </trkpt>
      <trkpt lat="43.196944" lon="-4.970835">
        <ele>2061.900</ele>
        <time>2014-08-28T09:29:56Z</time>
      </trkpt>
      <trkpt lat="43.196937" lon="-4.970771">
        <ele>2061.220</ele>
        <time>2014-08-28T09:30:00Z</time>
      </trkpt>
      <trkpt lat="43.196935" lon="-4.970713">
        <ele>2060.807</ele>
        <time>2014-08-28T09:30:04Z</time>
      </trkpt>
      <trkpt lat="43.196935" lon="-4.970640">
        <ele>2060.863</ele>
        <time>2014-08-28T09:30:09Z</time>
      </trkpt>
      <trkpt lat="43.196952" lon="-4.970580">
        <ele>2060.015</ele>
        <time>2014-08-28T09:30:16Z</time>
      </trkpt>
      <trkpt lat="43.196962" lon="-4.970508">
        <ele>2059.446</ele>
        <time>2014-08-28T09:30:24Z</time>
      </trkpt>
      <trkpt lat="43.196955" lon="-4.970438">
        <ele>2058.749</ele>
        <time>2014-08-28T09:30:29Z</time>
      </trkpt>
      <trkpt lat="43.196928" lon="-4.970375">
        <ele>2058.938</ele>
        <time>2014-08-28T09:30:36Z</time>
      </trkpt>
      <trkpt lat="43.196925" lon="-4.970366">
        <ele>2058.845</ele>
        <time>2014-08-28T09:30:37Z</time>
      </trkpt>
      <trkpt lat="43.196882" lon="-4.970251">
        <ele>2057.211</ele>
        <time>2014-08-28T09:30:50Z</time>
      </trkpt>
      <trkpt lat="43.196877" lon="-4.970191">
        <ele>2057.534</ele>
        <time>2014-08-28T09:30:54Z</time>
      </trkpt>
      <trkpt lat="43.196865" lon="-4.970126">
        <ele>2057.655</ele>
        <time>2014-08-28T09:30:59Z</time>
      </trkpt>
      <trkpt lat="43.196848" lon="-4.970070">
        <ele>2057.310</ele>
        <time>2014-08-28T09:31:03Z</time>
      </trkpt>
      <trkpt lat="43.196843" lon="-4.970003">
        <ele>2057.307</ele>
        <time>2014-08-28T09:31:08Z</time>
      </trkpt>
      <trkpt lat="43.196850" lon="-4.969930">
        <ele>2058.221</ele>
        <time>2014-08-28T09:31:14Z</time>
      </trkpt>
      <trkpt lat="43.196853" lon="-4.969863">
        <ele>2057.383</ele>
        <time>2014-08-28T09:31:19Z</time>
      </trkpt>
      <trkpt lat="43.196843" lon="-4.969795">
        <ele>2057.274</ele>
        <time>2014-08-28T09:31:23Z</time>
      </trkpt>
      <trkpt lat="43.196815" lon="-4.969735">
        <ele>2057.947</ele>
        <time>2014-08-28T09:31:28Z</time>
      </trkpt>
      <trkpt lat="43.196780" lon="-4.969681">
        <ele>2057.976</ele>
        <time>2014-08-28T09:31:32Z</time>
      </trkpt>
      <trkpt lat="43.196768" lon="-4.969618">
        <ele>2058.443</ele>
        <time>2014-08-28T09:31:38Z</time>
      </trkpt>
      <trkpt lat="43.196765" lon="-4.969608">
        <ele>2058.799</ele>
        <time>2014-08-28T09:31:39Z</time>
      </trkpt>
      <trkpt lat="43.196818" lon="-4.969498">
        <ele>2057.232</ele>
        <time>2014-08-28T09:32:06Z</time>
      </trkpt>
      <trkpt lat="43.196812" lon="-4.969428">
        <ele>2056.392</ele>
        <time>2014-08-28T09:32:15Z</time>
      </trkpt>
      <trkpt lat="43.196835" lon="-4.969366">
        <ele>2053.911</ele>
        <time>2014-08-28T09:32:27Z</time>
      </trkpt>
      <trkpt lat="43.196875" lon="-4.969323">
        <ele>2054.207</ele>
        <time>2014-08-28T09:32:37Z</time>
      </trkpt>
      <trkpt lat="43.196830" lon="-4.969285">
        <ele>2054.351</ele>
        <time>2014-08-28T09:33:18Z</time>
      </trkpt>
      <trkpt lat="43.196822" lon="-4.969280">
        <ele>2054.333</ele>
        <time>2014-08-28T09:33:19Z</time>
      </trkpt>
      <trkpt lat="43.196763" lon="-4.969191">
        <ele>2053.134</ele>
        <time>2014-08-28T09:33:30Z</time>
      </trkpt>
      <trkpt lat="43.196775" lon="-4.969131">
        <ele>2053.157</ele>
        <time>2014-08-28T09:33:36Z</time>
      </trkpt>
      <trkpt lat="43.196748" lon="-4.969068">
        <ele>2052.856</ele>
        <time>2014-08-28T09:33:43Z</time>
      </trkpt>
      <trkpt lat="43.196742" lon="-4.968995">
        <ele>2050.593</ele>
        <time>2014-08-28T09:33:58Z</time>
      </trkpt>
      <trkpt lat="43.196785" lon="-4.968960">
        <ele>2049.699</ele>
        <time>2014-08-28T09:34:05Z</time>
      </trkpt>
      <trkpt lat="43.196829" lon="-4.968921">
        <ele>2047.913</ele>
        <time>2014-08-28T09:34:11Z</time>
      </trkpt>
      <trkpt lat="43.196842" lon="-4.968850">
        <ele>2046.643</ele>
        <time>2014-08-28T09:34:22Z</time>
      </trkpt>
      <trkpt lat="43.196840" lon="-4.968841">
        <ele>2046.407</ele>
        <time>2014-08-28T09:34:23Z</time>
      </trkpt>
      <trkpt lat="43.196785" lon="-4.968731">
        <ele>2045.407</ele>
        <time>2014-08-28T09:34:45Z</time>
      </trkpt>
      <trkpt lat="43.196775" lon="-4.968663">
        <ele>2045.439</ele>
        <time>2014-08-28T09:34:53Z</time>
      </trkpt>
      <trkpt lat="43.196788" lon="-4.968600">
        <ele>2046.661</ele>
        <time>2014-08-28T09:35:01Z</time>
      </trkpt>
      <trkpt lat="43.196787" lon="-4.968541">
        <ele>2046.222</ele>
        <time>2014-08-28T09:35:09Z</time>
      </trkpt>
      <trkpt lat="43.196778" lon="-4.968480">
        <ele>2046.665</ele>
        <time>2014-08-28T09:35:15Z</time>
      </trkpt>
      <trkpt lat="43.196790" lon="-4.968415">
        <ele>2047.114</ele>
        <time>2014-08-28T09:35:20Z</time>
      </trkpt>
      <trkpt lat="43.196783" lon="-4.968353">
        <ele>2048.081</ele>
        <time>2014-08-28T09:35:28Z</time>
      </trkpt>
      <trkpt lat="43.196780" lon="-4.968338">
        <ele>2048.177</ele>
        <time>2014-08-28T09:35:29Z</time>
      </trkpt>
      <trkpt lat="43.196780" lon="-4.968211">
        <ele>2048.619</ele>
        <time>2014-08-28T09:35:47Z</time>
      </trkpt>
      <trkpt lat="43.196775" lon="-4.968138">
        <ele>2048.409</ele>
        <time>2014-08-28T09:35:58Z</time>
      </trkpt>
      <trkpt lat="43.196723" lon="-4.968131">
        <ele>2049.619</ele>
        <time>2014-08-28T09:36:25Z</time>
      </trkpt>
      <trkpt lat="43.196677" lon="-4.968095">
        <ele>2048.407</ele>
        <time>2014-08-28T09:36:36Z</time>
      </trkpt>
      <trkpt lat="43.196673" lon="-4.968088">
        <ele>2048.299</ele>
        <time>2014-08-28T09:36:37Z</time>
      </trkpt>
      <trkpt lat="43.196607" lon="-4.968045">
        <ele>2046.991</ele>
        <time>2014-08-28T09:36:54Z</time>
      </trkpt>
      <trkpt lat="43.196565" lon="-4.968048">
        <ele>2046.672</ele>
        <time>2014-08-28T09:36:57Z</time>
      </trkpt>
      <trkpt lat="43.196517" lon="-4.968018">
        <ele>2047.055</ele>
        <time>2014-08-28T09:37:02Z</time>
      </trkpt>
      <trkpt lat="43.196473" lon="-4.968010">
        <ele>2046.344</ele>
        <time>2014-08-28T09:37:05Z</time>
      </trkpt>
      <trkpt lat="43.196420" lon="-4.968001">
        <ele>2045.591</ele>
        <time>2014-08-28T09:37:09Z</time>
      </trkpt>
      <trkpt lat="43.196372" lon="-4.967988">
        <ele>2044.977</ele>
        <time>2014-08-28T09:37:13Z</time>
      </trkpt>
      <trkpt lat="43.196322" lon="-4.967965">
        <ele>2045.961</ele>
        <time>2014-08-28T09:37:18Z</time>
      </trkpt>
      <trkpt lat="43.196272" lon="-4.967961">
        <ele>2046.121</ele>
        <time>2014-08-28T09:37:27Z</time>
      </trkpt>
      <trkpt lat="43.196230" lon="-4.967930">
        <ele>2047.613</ele>
        <time>2014-08-28T09:37:35Z</time>
      </trkpt>
      <trkpt lat="43.196192" lon="-4.967886">
        <ele>2046.207</ele>
        <time>2014-08-28T09:37:42Z</time>
      </trkpt>
      <trkpt lat="43.196190" lon="-4.967878">
        <ele>2046.214</ele>
        <time>2014-08-28T09:37:43Z</time>
      </trkpt>
      <trkpt lat="43.196155" lon="-4.967763">
        <ele>2044.576</ele>
        <time>2014-08-28T09:37:57Z</time>
      </trkpt>
      <trkpt lat="43.196160" lon="-4.967703">
        <ele>2044.387</ele>
        <time>2014-08-28T09:38:02Z</time>
      </trkpt>
      <trkpt lat="43.196172" lon="-4.967643">
        <ele>2045.230</ele>
        <time>2014-08-28T09:38:06Z</time>
      </trkpt>
      <trkpt lat="43.196163" lon="-4.967578">
        <ele>2044.079</ele>
        <time>2014-08-28T09:38:14Z</time>
      </trkpt>
      <trkpt lat="43.196142" lon="-4.967525">
        <ele>2041.366</ele>
        <time>2014-08-28T09:38:24Z</time>
      </trkpt>
      <trkpt lat="43.196108" lon="-4.967475">
        <ele>2041.612</ele>
        <time>2014-08-28T09:38:29Z</time>
      </trkpt>
      <trkpt lat="43.196068" lon="-4.967436">
        <ele>2040.938</ele>
        <time>2014-08-28T09:38:34Z</time>
      </trkpt>
      <trkpt lat="43.196027" lon="-4.967390">
        <ele>2038.570</ele>
        <time>2014-08-28T09:38:39Z</time>
      </trkpt>
      <trkpt lat="43.195983" lon="-4.967363">
        <ele>2039.617</ele>
        <time>2014-08-28T09:38:44Z</time>
      </trkpt>
      <trkpt lat="43.195943" lon="-4.967320">
        <ele>2039.807</ele>
        <time>2014-08-28T09:38:49Z</time>
      </trkpt>
      <trkpt lat="43.195938" lon="-4.967310">
        <ele>2039.671</ele>
        <time>2014-08-28T09:38:50Z</time>
      </trkpt>
      <trkpt lat="43.195873" lon="-4.967238">
        <ele>2036.333</ele>
        <time>2014-08-28T09:39:00Z</time>
      </trkpt>
      <trkpt lat="43.195847" lon="-4.967183">
        <ele>2036.274</ele>
        <time>2014-08-28T09:39:04Z</time>
      </trkpt>
      <trkpt lat="43.195833" lon="-4.967118">
        <ele>2035.567</ele>
        <time>2014-08-28T09:39:09Z</time>
      </trkpt>
      <trkpt lat="43.195794" lon="-4.967081">
        <ele>2035.736</ele>
        <time>2014-08-28T09:39:14Z</time>
      </trkpt>
      <trkpt lat="43.195748" lon="-4.967083">
        <ele>2036.233</ele>
        <time>2014-08-28T09:39:20Z</time>
      </trkpt>
      <trkpt lat="43.195697" lon="-4.967080">
        <ele>2036.019</ele>
        <time>2014-08-28T09:39:26Z</time>
      </trkpt>
      <trkpt lat="43.195647" lon="-4.967058">
        <ele>2036.369</ele>
        <time>2014-08-28T09:39:33Z</time>
      </trkpt>
      <trkpt lat="43.195608" lon="-4.967010">
        <ele>2036.604</ele>
        <time>2014-08-28T09:39:49Z</time>
      </trkpt>
      <trkpt lat="43.195557" lon="-4.966990">
        <ele>2037.824</ele>
        <time>2014-08-28T09:40:06Z</time>
      </trkpt>
      <trkpt lat="43.195548" lon="-4.966985">
        <ele>2038.107</ele>
        <time>2014-08-28T09:40:07Z</time>
      </trkpt>
      <trkpt lat="43.195458" lon="-4.966933">
        <ele>2039.054</ele>
        <time>2014-08-28T09:40:17Z</time>
      </trkpt>
      <trkpt lat="43.195390" lon="-4.966907">
        <ele>2039.066</ele>
        <time>2014-08-28T09:40:23Z</time>
      </trkpt>
      <trkpt lat="43.195345" lon="-4.966901">
        <ele>2040.527</ele>
        <time>2014-08-28T09:40:28Z</time>
      </trkpt>
      <trkpt lat="43.195303" lon="-4.966868">
        <ele>2040.590</ele>
        <time>2014-08-28T09:40:34Z</time>
      </trkpt>
      <trkpt lat="43.195253" lon="-4.966848">
        <ele>2042.849</ele>
        <time>2014-08-28T09:40:43Z</time>
      </trkpt>
      <trkpt lat="43.195200" lon="-4.966855">
        <ele>2043.416</ele>
        <time>2014-08-28T09:40:54Z</time>
      </trkpt>
      <trkpt lat="43.195147" lon="-4.966846">
        <ele>2043.522</ele>
        <time>2014-08-28T09:41:02Z</time>
      </trkpt>
      <trkpt lat="43.195097" lon="-4.966841">
        <ele>2042.457</ele>
        <time>2014-08-28T09:41:08Z</time>
      </trkpt>
      <trkpt lat="43.195092" lon="-4.966836">
        <ele>2041.900</ele>
        <time>2014-08-28T09:41:09Z</time>
      </trkpt>
      <trkpt lat="43.195085" lon="-4.966706">
        <ele>2043.320</ele>
        <time>2014-08-28T09:41:21Z</time>
      </trkpt>
      <trkpt lat="43.195080" lon="-4.966633">
        <ele>2044.407</ele>
        <time>2014-08-28T09:41:29Z</time>
      </trkpt>
      <trkpt lat="43.195082" lon="-4.966566">
        <ele>2043.883</ele>
        <time>2014-08-28T09:41:37Z</time>
      </trkpt>
      <trkpt lat="43.195055" lon="-4.966505">
        <ele>2044.555</ele>
        <time>2014-08-28T09:41:46Z</time>
      </trkpt>
      <trkpt lat="43.195048" lon="-4.966431">
        <ele>2043.126</ele>
        <time>2014-08-28T09:41:57Z</time>
      </trkpt>
      <trkpt lat="43.195032" lon="-4.966365">
        <ele>2043.529</ele>
        <time>2014-08-28T09:42:05Z</time>
      </trkpt>
      <trkpt lat="43.195027" lon="-4.966291">
        <ele>2044.078</ele>
        <time>2014-08-28T09:42:13Z</time>
      </trkpt>
      <trkpt lat="43.195027" lon="-4.966283">
        <ele>2044.385</ele>
        <time>2014-08-28T09:42:14Z</time>
      </trkpt>
      <trkpt lat="43.194968" lon="-4.966196">
        <ele>2044.121</ele>
        <time>2014-08-28T09:42:26Z</time>
      </trkpt>
      <trkpt lat="43.194947" lon="-4.966131">
        <ele>2043.122</ele>
        <time>2014-08-28T09:42:35Z</time>
      </trkpt>
      <trkpt lat="43.194958" lon="-4.966068">
        <ele>2043.562</ele>
        <time>2014-08-28T09:42:42Z</time>
      </trkpt>
      <trkpt lat="43.194965" lon="-4.965995">
        <ele>2041.308</ele>
        <time>2014-08-28T09:42:58Z</time>
      </trkpt>
      <trkpt lat="43.194968" lon="-4.965928">
        <ele>2041.207</ele>
        <time>2014-08-28T09:43:06Z</time>
      </trkpt>
      <trkpt lat="43.194982" lon="-4.965863">
        <ele>2041.070</ele>
        <time>2014-08-28T09:43:13Z</time>
      </trkpt>
      <trkpt lat="43.194995" lon="-4.965796">
        <ele>2041.292</ele>
        <time>2014-08-28T09:43:21Z</time>
      </trkpt>
      <trkpt lat="43.194995" lon="-4.965788">
        <ele>2041.023</ele>
        <time>2014-08-28T09:43:22Z</time>
      </trkpt>
      <trkpt lat="43.194915" lon="-4.965703">
        <ele>2037.016</ele>
        <time>2014-08-28T09:43:52Z</time>
      </trkpt>
      <trkpt lat="43.194928" lon="-4.965633">
        <ele>2033.625</ele>
        <time>2014-08-28T09:44:17Z</time>
      </trkpt>
      <trkpt lat="43.194913" lon="-4.965568">
        <ele>2032.432</ele>
        <time>2014-08-28T09:44:32Z</time>
      </trkpt>
      <trkpt lat="43.194912" lon="-4.965561">
        <ele>2032.548</ele>
        <time>2014-08-28T09:44:33Z</time>
      </trkpt>
      <trkpt lat="43.194863" lon="-4.965448">
        <ele>2030.654</ele>
        <time>2014-08-28T09:44:56Z</time>
      </trkpt>
      <trkpt lat="43.194837" lon="-4.965388">
        <ele>2028.456</ele>
        <time>2014-08-28T09:45:06Z</time>
      </trkpt>
      <trkpt lat="43.194807" lon="-4.965328">
        <ele>2028.411</ele>
        <time>2014-08-28T09:45:16Z</time>
      </trkpt>
      <trkpt lat="43.194783" lon="-4.965261">
        <ele>2028.407</ele>
        <time>2014-08-28T09:45:28Z</time>
      </trkpt>
      <trkpt lat="43.194743" lon="-4.965215">
        <ele>2027.353</ele>
        <time>2014-08-28T09:45:44Z</time>
      </trkpt>
      <trkpt lat="43.194740" lon="-4.965211">
        <ele>2026.735</ele>
        <time>2014-08-28T09:45:45Z</time>
      </trkpt>
      <trkpt lat="43.194650" lon="-4.965145">
        <ele>2022.416</ele>
        <time>2014-08-28T09:46:14Z</time>
      </trkpt>
      <trkpt lat="43.194620" lon="-4.965090">
        <ele>2020.739</ele>
        <time>2014-08-28T09:46:25Z</time>
      </trkpt>
      <trkpt lat="43.194575" lon="-4.965055">
        <ele>2018.698</ele>
        <time>2014-08-28T09:46:40Z</time>
      </trkpt>
      <trkpt lat="43.194538" lon="-4.965025">
        <ele>2018.055</ele>
        <time>2014-08-28T09:46:46Z</time>
      </trkpt>
      <trkpt lat="43.194498" lon="-4.964980">
        <ele>2018.241</ele>
        <time>2014-08-28T09:46:51Z</time>
      </trkpt>
      <trkpt lat="43.194493" lon="-4.964973">
        <ele>2018.361</ele>
        <time>2014-08-28T09:46:52Z</time>
      </trkpt>
      <trkpt lat="43.194457" lon="-4.964858">
        <ele>2018.221</ele>
        <time>2014-08-28T09:47:04Z</time>
      </trkpt>
      <trkpt lat="43.194435" lon="-4.964793">
        <ele>2018.213</ele>
        <time>2014-08-28T09:47:09Z</time>
      </trkpt>
      <trkpt lat="43.194440" lon="-4.964723">
        <ele>2018.407</ele>
        <time>2014-08-28T09:47:19Z</time>
      </trkpt>
      <trkpt lat="43.194470" lon="-4.964666">
        <ele>2018.374</ele>
        <time>2014-08-28T09:47:27Z</time>
      </trkpt>
      <trkpt lat="43.194472" lon="-4.964598">
        <ele>2017.886</ele>
        <time>2014-08-28T09:47:33Z</time>
      </trkpt>
      <trkpt lat="43.194445" lon="-4.964543">
        <ele>2017.817</ele>
        <time>2014-08-28T09:47:40Z</time>
      </trkpt>
      <trkpt lat="43.194438" lon="-4.964471">
        <ele>2016.570</ele>
        <time>2014-08-28T09:47:48Z</time>
      </trkpt>
      <trkpt lat="43.194438" lon="-4.964398">
        <ele>2016.579</ele>
        <time>2014-08-28T09:47:56Z</time>
      </trkpt>
      <trkpt lat="43.194442" lon="-4.964393">
        <ele>2016.926</ele>
        <time>2014-08-28T09:47:57Z</time>
      </trkpt>
      <trkpt lat="43.194390" lon="-4.964288">
        <ele>2014.542</ele>
        <time>2014-08-28T09:48:11Z</time>
      </trkpt>
      <trkpt lat="43.194368" lon="-4.964225">
        <ele>2013.172</ele>
        <time>2014-08-28T09:48:16Z</time>
      </trkpt>
      <trkpt lat="43.194343" lon="-4.964168">
        <ele>2014.013</ele>
        <time>2014-08-28T09:48:23Z</time>
      </trkpt>
      <trkpt lat="43.194302" lon="-4.964133">
        <ele>2014.214</ele>
        <time>2014-08-28T09:48:27Z</time>
      </trkpt>
      <trkpt lat="43.194265" lon="-4.964095">
        <ele>2014.407</ele>
        <time>2014-08-28T09:48:31Z</time>
      </trkpt>
      <trkpt lat="43.194228" lon="-4.964058">
        <ele>2014.295</ele>
        <time>2014-08-28T09:48:35Z</time>
      </trkpt>
      <trkpt lat="43.194212" lon="-4.963998">
        <ele>2013.397</ele>
        <time>2014-08-28T09:48:41Z</time>
      </trkpt>
      <trkpt lat="43.194185" lon="-4.963935">
        <ele>2014.038</ele>
        <time>2014-08-28T09:48:47Z</time>
      </trkpt>
      <trkpt lat="43.194163" lon="-4.963883">
        <ele>2013.651</ele>
        <time>2014-08-28T09:48:51Z</time>
      </trkpt>
      <trkpt lat="43.194145" lon="-4.963815">
        <ele>2013.710</ele>
        <time>2014-08-28T09:48:57Z</time>
      </trkpt>
      <trkpt lat="43.194127" lon="-4.963748">
        <ele>2014.757</ele>
        <time>2014-08-28T09:49:04Z</time>
      </trkpt>
      <trkpt lat="43.194118" lon="-4.963740">
        <ele>2014.763</ele>
        <time>2014-08-28T09:49:05Z</time>
      </trkpt>
      <trkpt lat="43.194057" lon="-4.963651">
        <ele>2014.011</ele>
        <time>2014-08-28T09:49:16Z</time>
      </trkpt>
      <trkpt lat="43.194017" lon="-4.963603">
        <ele>2012.221</ele>
        <time>2014-08-28T09:49:29Z</time>
      </trkpt>
      <trkpt lat="43.193992" lon="-4.963538">
        <ele>2011.703</ele>
        <time>2014-08-28T09:49:40Z</time>
      </trkpt>
      <trkpt lat="43.193942" lon="-4.963515">
        <ele>2012.707</ele>
        <time>2014-08-28T09:49:47Z</time>
      </trkpt>
      <trkpt lat="43.193907" lon="-4.963461">
        <ele>2012.029</ele>
        <time>2014-08-28T09:49:53Z</time>
      </trkpt>
      <trkpt lat="43.193875" lon="-4.963415">
        <ele>2012.291</ele>
        <time>2014-08-28T09:50:00Z</time>
      </trkpt>
      <trkpt lat="43.193847" lon="-4.963360">
        <ele>2012.242</ele>
        <time>2014-08-28T09:50:06Z</time>
      </trkpt>
      <trkpt lat="43.193845" lon="-4.963351">
        <ele>2012.265</ele>
        <time>2014-08-28T09:50:07Z</time>
      </trkpt>
      <trkpt lat="43.193810" lon="-4.963233">
        <ele>2012.874</ele>
        <time>2014-08-28T09:50:20Z</time>
      </trkpt>
      <trkpt lat="43.193798" lon="-4.963166">
        <ele>2014.831</ele>
        <time>2014-08-28T09:50:29Z</time>
      </trkpt>
      <trkpt lat="43.193790" lon="-4.963098">
        <ele>2013.747</ele>
        <time>2014-08-28T09:50:41Z</time>
      </trkpt>
      <trkpt lat="43.193770" lon="-4.963031">
        <ele>2012.945</ele>
        <time>2014-08-28T09:50:49Z</time>
      </trkpt>
      <trkpt lat="43.193747" lon="-4.962965">
        <ele>2013.547</ele>
        <time>2014-08-28T09:50:55Z</time>
      </trkpt>
      <trkpt lat="43.193715" lon="-4.962915">
        <ele>2012.911</ele>
        <time>2014-08-28T09:50:59Z</time>
      </trkpt>
      <trkpt lat="43.193675" lon="-4.962875">
        <ele>2012.807</ele>
        <time>2014-08-28T09:51:04Z</time>
      </trkpt>
      <trkpt lat="43.193640" lon="-4.962820">
        <ele>2013.072</ele>
        <time>2014-08-28T09:51:09Z</time>
      </trkpt>
      <trkpt lat="43.193637" lon="-4.962811">
        <ele>2013.284</ele>
        <time>2014-08-28T09:51:10Z</time>
      </trkpt>
      <trkpt lat="43.193573" lon="-4.962736">
        <ele>2013.435</ele>
        <time>2014-08-28T09:51:17Z</time>
      </trkpt>
      <trkpt lat="43.193542" lon="-4.962695">
        <ele>2014.028</ele>
        <time>2014-08-28T09:51:21Z</time>
      </trkpt>
      <trkpt lat="43.193508" lon="-4.962646">
        <ele>2014.317</ele>
        <time>2014-08-28T09:51:25Z</time>
      </trkpt>
      <trkpt lat="43.193482" lon="-4.962590">
        <ele>2013.944</ele>
        <time>2014-08-28T09:51:30Z</time>
      </trkpt>
      <trkpt lat="43.193462" lon="-4.962525">
        <ele>2013.520</ele>
        <time>2014-08-28T09:51:37Z</time>
      </trkpt>
      <trkpt lat="43.193442" lon="-4.962458">
        <ele>2014.456</ele>
        <time>2014-08-28T09:51:47Z</time>
      </trkpt>
      <trkpt lat="43.193427" lon="-4.962391">
        <ele>2014.459</ele>
        <time>2014-08-28T09:51:56Z</time>
      </trkpt>
      <trkpt lat="43.193398" lon="-4.962335">
        <ele>2015.914</ele>
        <time>2014-08-28T09:52:05Z</time>
      </trkpt>
      <trkpt lat="43.193420" lon="-4.962278">
        <ele>2016.307</ele>
        <time>2014-08-28T09:52:17Z</time>
      </trkpt>
      <trkpt lat="43.193428" lon="-4.962271">
        <ele>2016.353</ele>
        <time>2014-08-28T09:52:18Z</time>
      </trkpt>
      <trkpt lat="43.193393" lon="-4.962151">
        <ele>2016.465</ele>
        <time>2014-08-28T09:52:26Z</time>
      </trkpt>
      <trkpt lat="43.193377" lon="-4.962095">
        <ele>2017.116</ele>
        <time>2014-08-28T09:52:30Z</time>
      </trkpt>
      <trkpt lat="43.193355" lon="-4.962028">
        <ele>2017.759</ele>
        <time>2014-08-28T09:52:35Z</time>
      </trkpt>
      <trkpt lat="43.193327" lon="-4.961985">
        <ele>2017.438</ele>
        <time>2014-08-28T09:52:38Z</time>
      </trkpt>
      <trkpt lat="43.193298" lon="-4.961933">
        <ele>2017.365</ele>
        <time>2014-08-28T09:52:42Z</time>
      </trkpt>
      <trkpt lat="43.193272" lon="-4.961870">
        <ele>2017.641</ele>
        <time>2014-08-28T09:52:47Z</time>
      </trkpt>
      <trkpt lat="43.193253" lon="-4.961808">
        <ele>2020.617</ele>
        <time>2014-08-28T09:52:53Z</time>
      </trkpt>
      <trkpt lat="43.193223" lon="-4.961753">
        <ele>2020.487</ele>
        <time>2014-08-28T09:52:58Z</time>
      </trkpt>
      <trkpt lat="43.193192" lon="-4.961701">
        <ele>2020.815</ele>
        <time>2014-08-28T09:53:05Z</time>
      </trkpt>
      <trkpt lat="43.193167" lon="-4.961643">
        <ele>2022.707</ele>
        <time>2014-08-28T09:53:12Z</time>
      </trkpt>
      <trkpt lat="43.193122" lon="-4.961681">
        <ele>2022.129</ele>
        <time>2014-08-28T09:53:30Z</time>
      </trkpt>
      <trkpt lat="43.193115" lon="-4.961688">
        <ele>2022.321</ele>
        <time>2014-08-28T09:53:31Z</time>
      </trkpt>
      <trkpt lat="43.193033" lon="-4.961655">
        <ele>2022.962</ele>
        <time>2014-08-28T09:53:43Z</time>
      </trkpt>
      <trkpt lat="43.192982" lon="-4.961646">
        <ele>2023.435</ele>
        <time>2014-08-28T09:53:49Z</time>
      </trkpt>
      <trkpt lat="43.192932" lon="-4.961638">
        <ele>2023.734</ele>
        <time>2014-08-28T09:53:53Z</time>
      </trkpt>
      <trkpt lat="43.192883" lon="-4.961626">
        <ele>2023.681</ele>
        <time>2014-08-28T09:53:59Z</time>
      </trkpt>
      <trkpt lat="43.192830" lon="-4.961636">
        <ele>2022.577</ele>
        <time>2014-08-28T09:54:05Z</time>
      </trkpt>
      <trkpt lat="43.192778" lon="-4.961648">
        <ele>2021.024</ele>
        <time>2014-08-28T09:54:10Z</time>
      </trkpt>
      <trkpt lat="43.192740" lon="-4.961650">
        <ele>2021.104</ele>
        <time>2014-08-28T09:54:14Z</time>
      </trkpt>
      <trkpt lat="43.192687" lon="-4.961656">
        <ele>2021.014</ele>
        <time>2014-08-28T09:54:18Z</time>
      </trkpt>
      <trkpt lat="43.192635" lon="-4.961660">
        <ele>2020.407</ele>
        <time>2014-08-28T09:54:22Z</time>
      </trkpt>
      <trkpt lat="43.192585" lon="-4.961686">
        <ele>2020.070</ele>
        <time>2014-08-28T09:54:28Z</time>
      </trkpt>
      <trkpt lat="43.192538" lon="-4.961705">
        <ele>2019.992</ele>
        <time>2014-08-28T09:54:34Z</time>
      </trkpt>
      <trkpt lat="43.192528" lon="-4.961706">
        <ele>2019.563</ele>
        <time>2014-08-28T09:54:35Z</time>
      </trkpt>
      <trkpt lat="43.192438" lon="-4.961706">
        <ele>2019.996</ele>
        <time>2014-08-28T09:54:43Z</time>
      </trkpt>
      <trkpt lat="43.192388" lon="-4.961718">
        <ele>2021.685</ele>
        <time>2014-08-28T09:54:48Z</time>
      </trkpt>
      <trkpt lat="43.192342" lon="-4.961701">
        <ele>2021.922</ele>
        <time>2014-08-28T09:54:54Z</time>
      </trkpt>
      <trkpt lat="43.192293" lon="-4.961715">
        <ele>2022.738</ele>
        <time>2014-08-28T09:55:02Z</time>
      </trkpt>
      <trkpt lat="43.192243" lon="-4.961731">
        <ele>2023.115</ele>
        <time>2014-08-28T09:55:09Z</time>
      </trkpt>
      <trkpt lat="43.192202" lon="-4.961760">
        <ele>2023.765</ele>
        <time>2014-08-28T09:55:14Z</time>
      </trkpt>
      <trkpt lat="43.192165" lon="-4.961810">
        <ele>2021.311</ele>
        <time>2014-08-28T09:55:19Z</time>
      </trkpt>
      <trkpt lat="43.192122" lon="-4.961853">
        <ele>2019.407</ele>
        <time>2014-08-28T09:55:25Z</time>
      </trkpt>
      <trkpt lat="43.192084" lon="-4.961888">
        <ele>2019.699</ele>
        <time>2014-08-28T09:55:30Z</time>
      </trkpt>
      <trkpt lat="43.192035" lon="-4.961880">
        <ele>2020.421</ele>
        <time>2014-08-28T09:55:39Z</time>
      </trkpt>
      <trkpt lat="43.192030" lon="-4.961878">
        <ele>2020.472</ele>
        <time>2014-08-28T09:55:40Z</time>
      </trkpt>
      <trkpt lat="43.191940" lon="-4.961858">
        <ele>2021.815</ele>
        <time>2014-08-28T09:55:51Z</time>
      </trkpt>
      <trkpt lat="43.191893" lon="-4.961823">
        <ele>2022.134</ele>
        <time>2014-08-28T09:55:56Z</time>
      </trkpt>
      <trkpt lat="43.191847" lon="-4.961800">
        <ele>2022.441</ele>
        <time>2014-08-28T09:56:02Z</time>
      </trkpt>
      <trkpt lat="43.191803" lon="-4.961790">
        <ele>2023.227</ele>
        <time>2014-08-28T09:56:07Z</time>
      </trkpt>
      <trkpt lat="43.191757" lon="-4.961783">
        <ele>2023.554</ele>
        <time>2014-08-28T09:56:11Z</time>
      </trkpt>
      <trkpt lat="43.191712" lon="-4.961758">
        <ele>2024.356</ele>
        <time>2014-08-28T09:56:16Z</time>
      </trkpt>
      <trkpt lat="43.191663" lon="-4.961733">
        <ele>2024.711</ele>
        <time>2014-08-28T09:56:24Z</time>
      </trkpt>
      <trkpt lat="43.191612" lon="-4.961748">
        <ele>2026.007</ele>
        <time>2014-08-28T09:56:33Z</time>
      </trkpt>
      <trkpt lat="43.191615" lon="-4.961816">
        <ele>2027.313</ele>
        <time>2014-08-28T09:56:46Z</time>
      </trkpt>
      <trkpt lat="43.191612" lon="-4.961826">
        <ele>2027.485</ele>
        <time>2014-08-28T09:56:47Z</time>
      </trkpt>
      <trkpt lat="43.191540" lon="-4.961901">
        <ele>2029.096</ele>
        <time>2014-08-28T09:57:01Z</time>
      </trkpt>
      <trkpt lat="43.191525" lon="-4.961966">
        <ele>2028.429</ele>
        <time>2014-08-28T09:57:08Z</time>
      </trkpt>
      <trkpt lat="43.191477" lon="-4.961995">
        <ele>2030.538</ele>
        <time>2014-08-28T09:57:15Z</time>
      </trkpt>
      <trkpt lat="43.191437" lon="-4.962035">
        <ele>2030.795</ele>
        <time>2014-08-28T09:57:23Z</time>
      </trkpt>
      <trkpt lat="43.191397" lon="-4.962063">
        <ele>2031.011</ele>
        <time>2014-08-28T09:57:29Z</time>
      </trkpt>
      <trkpt lat="43.191362" lon="-4.962106">
        <ele>2032.252</ele>
        <time>2014-08-28T09:57:34Z</time>
      </trkpt>
      <trkpt lat="43.191325" lon="-4.962138">
        <ele>2031.753</ele>
        <time>2014-08-28T09:57:39Z</time>
      </trkpt>
      <trkpt lat="43.191295" lon="-4.962188">
        <ele>2031.108</ele>
        <time>2014-08-28T09:57:43Z</time>
      </trkpt>
      <trkpt lat="43.191253" lon="-4.962230">
        <ele>2031.307</ele>
        <time>2014-08-28T09:57:48Z</time>
      </trkpt>
      <trkpt lat="43.191247" lon="-4.962241">
        <ele>2031.023</ele>
        <time>2014-08-28T09:57:49Z</time>
      </trkpt>
      <trkpt lat="43.191207" lon="-4.962335">
        <ele>2030.835</ele>
        <time>2014-08-28T09:57:58Z</time>
      </trkpt>
      <trkpt lat="43.191203" lon="-4.962403">
        <ele>2030.546</ele>
        <time>2014-08-28T09:58:04Z</time>
      </trkpt>
      <trkpt lat="43.191158" lon="-4.962433">
        <ele>2031.169</ele>
        <time>2014-08-28T09:58:09Z</time>
      </trkpt>
      <trkpt lat="43.191112" lon="-4.962456">
        <ele>2029.698</ele>
        <time>2014-08-28T09:58:15Z</time>
      </trkpt>
      <trkpt lat="43.191065" lon="-4.962466">
        <ele>2028.325</ele>
        <time>2014-08-28T09:58:20Z</time>
      </trkpt>
      <trkpt lat="43.191005" lon="-4.962478">
        <ele>2025.091</ele>
        <time>2014-08-28T09:58:32Z</time>
      </trkpt>
      <trkpt lat="43.190921" lon="-4.962533">
        <ele>2026.033</ele>
        <time>2014-08-28T09:58:44Z</time>
      </trkpt>
      <trkpt lat="43.190884" lon="-4.962598">
        <ele>2026.023</ele>
        <time>2014-08-28T09:58:52Z</time>
      </trkpt>
      <trkpt lat="43.190873" lon="-4.962608">
        <ele>2027.215</ele>
        <time>2014-08-28T09:58:54Z</time>
      </trkpt>
      <trkpt lat="43.190756" lon="-4.962671">
        <ele>2028.007</ele>
        <time>2014-08-28T09:59:08Z</time>
      </trkpt>
      <trkpt lat="43.190696" lon="-4.962697">
        <ele>2030.061</ele>
        <time>2014-08-28T09:59:20Z</time>
      </trkpt>
      <trkpt lat="43.190637" lon="-4.962737">
        <ele>2031.073</ele>
        <time>2014-08-28T09:59:36Z</time>
      </trkpt>
      <trkpt lat="43.190625" lon="-4.962811">
        <ele>2033.054</ele>
        <time>2014-08-28T09:59:54Z</time>
      </trkpt>
      <trkpt lat="43.190635" lon="-4.962816">
        <ele>2033.767</ele>
        <time>2014-08-28T09:59:58Z</time>
      </trkpt>
      <trkpt lat="43.190515" lon="-4.962877">
        <ele>2038.016</ele>
        <time>2014-08-28T10:00:22Z</time>
      </trkpt>
      <trkpt lat="43.190459" lon="-4.962921">
        <ele>2038.023</ele>
        <time>2014-08-28T10:00:36Z</time>
      </trkpt>
      <trkpt lat="43.190396" lon="-4.962941">
        <ele>2039.069</ele>
        <time>2014-08-28T10:00:48Z</time>
      </trkpt>
      <trkpt lat="43.190342" lon="-4.962989">
        <ele>2041.081</ele>
        <time>2014-08-28T10:01:04Z</time>
      </trkpt>
      <trkpt lat="43.190337" lon="-4.962993">
        <ele>2041.961</ele>
        <time>2014-08-28T10:01:06Z</time>
      </trkpt>
      <trkpt lat="43.190220" lon="-4.962989">
        <ele>2046.017</ele>
        <time>2014-08-28T10:01:44Z</time>
      </trkpt>
      <trkpt lat="43.190155" lon="-4.963011">
        <ele>2046.007</ele>
        <time>2014-08-28T10:01:56Z</time>
      </trkpt>
      <trkpt lat="43.190110" lon="-4.963050">
        <ele>2050.046</ele>
        <time>2014-08-28T10:02:32Z</time>
      </trkpt>
      <trkpt lat="43.190105" lon="-4.963060">
        <ele>2050.538</ele>
        <time>2014-08-28T10:02:34Z</time>
      </trkpt>
      <trkpt lat="43.190099" lon="-4.963175">
        <ele>2052.179</ele>
        <time>2014-08-28T10:02:53Z</time>
      </trkpt>
      <trkpt lat="43.190143" lon="-4.963200">
        <ele>2052.822</ele>
        <time>2014-08-28T10:03:00Z</time>
      </trkpt>
      <trkpt lat="43.190125" lon="-4.963266">
        <ele>2055.391</ele>
        <time>2014-08-28T10:03:25Z</time>
      </trkpt>
      <trkpt lat="43.190073" lon="-4.963275">
        <ele>2057.268</ele>
        <time>2014-08-28T10:03:34Z</time>
      </trkpt>
      <trkpt lat="43.190068" lon="-4.963273">
        <ele>2057.374</ele>
        <time>2014-08-28T10:03:35Z</time>
      </trkpt>
      <trkpt lat="43.189970" lon="-4.963241">
        <ele>2060.357</ele>
        <time>2014-08-28T10:03:57Z</time>
      </trkpt>
      <trkpt lat="43.189925" lon="-4.963201">
        <ele>2061.300</ele>
        <time>2014-08-28T10:04:04Z</time>
      </trkpt>
      <trkpt lat="43.189883" lon="-4.963188">
        <ele>2062.420</ele>
        <time>2014-08-28T10:04:09Z</time>
      </trkpt>
      <trkpt lat="43.189835" lon="-4.963165">
        <ele>2062.407</ele>
        <time>2014-08-28T10:04:14Z</time>
      </trkpt>
      <trkpt lat="43.189793" lon="-4.963138">
        <ele>2062.153</ele>
        <time>2014-08-28T10:04:19Z</time>
      </trkpt>
      <trkpt lat="43.189747" lon="-4.963115">
        <ele>2062.175</ele>
        <time>2014-08-28T10:04:24Z</time>
      </trkpt>
      <trkpt lat="43.189700" lon="-4.963078">
        <ele>2063.356</ele>
        <time>2014-08-28T10:04:31Z</time>
      </trkpt>
      <trkpt lat="43.189652" lon="-4.963056">
        <ele>2061.999</ele>
        <time>2014-08-28T10:04:37Z</time>
      </trkpt>
      <trkpt lat="43.189639" lon="-4.963051">
        <ele>2061.758</ele>
        <time>2014-08-28T10:04:38Z</time>
      </trkpt>
      <trkpt lat="43.189565" lon="-4.962985">
        <ele>2062.915</ele>
        <time>2014-08-28T10:04:49Z</time>
      </trkpt>
      <trkpt lat="43.189528" lon="-4.962938">
        <ele>2064.131</ele>
        <time>2014-08-28T10:04:56Z</time>
      </trkpt>
      <trkpt lat="43.189488" lon="-4.962901">
        <ele>2064.181</ele>
        <time>2014-08-28T10:05:05Z</time>
      </trkpt>
      <trkpt lat="43.189447" lon="-4.962861">
        <ele>2064.661</ele>
        <time>2014-08-28T10:05:15Z</time>
      </trkpt>
      <trkpt lat="43.189405" lon="-4.962821">
        <ele>2065.417</ele>
        <time>2014-08-28T10:05:23Z</time>
      </trkpt>
      <trkpt lat="43.189358" lon="-4.962790">
        <ele>2064.907</ele>
        <time>2014-08-28T10:05:28Z</time>
      </trkpt>
      <trkpt lat="43.189318" lon="-4.962765">
        <ele>2065.716</ele>
        <time>2014-08-28T10:05:32Z</time>
      </trkpt>
      <trkpt lat="43.189268" lon="-4.962753">
        <ele>2064.568</ele>
        <time>2014-08-28T10:05:37Z</time>
      </trkpt>
      <trkpt lat="43.189218" lon="-4.962738">
        <ele>2063.939</ele>
        <time>2014-08-28T10:05:42Z</time>
      </trkpt>
      <trkpt lat="43.189208" lon="-4.962736">
        <ele>2064.172</ele>
        <time>2014-08-28T10:05:43Z</time>
      </trkpt>
      <trkpt lat="43.189127" lon="-4.962690">
        <ele>2061.751</ele>
        <time>2014-08-28T10:05:52Z</time>
      </trkpt>
      <trkpt lat="43.189083" lon="-4.962660">
        <ele>2062.318</ele>
        <time>2014-08-28T10:05:59Z</time>
      </trkpt>
      <trkpt lat="43.189035" lon="-4.962630">
        <ele>2063.244</ele>
        <time>2014-08-28T10:06:06Z</time>
      </trkpt>
      <trkpt lat="43.188987" lon="-4.962601">
        <ele>2063.141</ele>
        <time>2014-08-28T10:06:12Z</time>
      </trkpt>
      <trkpt lat="43.188947" lon="-4.962575">
        <ele>2063.181</ele>
        <time>2014-08-28T10:06:17Z</time>
      </trkpt>
      <trkpt lat="43.188905" lon="-4.962538">
        <ele>2063.409</ele>
        <time>2014-08-28T10:06:22Z</time>
      </trkpt>
      <trkpt lat="43.188868" lon="-4.962486">
        <ele>2063.607</ele>
        <time>2014-08-28T10:06:27Z</time>
      </trkpt>
      <trkpt lat="43.188830" lon="-4.962451">
        <ele>2063.732</ele>
        <time>2014-08-28T10:06:32Z</time>
      </trkpt>
      <trkpt lat="43.188787" lon="-4.962411">
        <ele>2064.714</ele>
        <time>2014-08-28T10:06:38Z</time>
      </trkpt>
      <trkpt lat="43.188742" lon="-4.962388">
        <ele>2065.115</ele>
        <time>2014-08-28T10:06:43Z</time>
      </trkpt>
      <trkpt lat="43.188695" lon="-4.962358">
        <ele>2065.838</ele>
        <time>2014-08-28T10:06:48Z</time>
      </trkpt>
      <trkpt lat="43.188687" lon="-4.962355">
        <ele>2065.987</ele>
        <time>2014-08-28T10:06:49Z</time>
      </trkpt>
      <trkpt lat="43.188600" lon="-4.962335">
        <ele>2067.454</ele>
        <time>2014-08-28T10:06:59Z</time>
      </trkpt>
      <trkpt lat="43.188555" lon="-4.962320">
        <ele>2067.540</ele>
        <time>2014-08-28T10:07:05Z</time>
      </trkpt>
      <trkpt lat="43.188505" lon="-4.962323">
        <ele>2066.929</ele>
        <time>2014-08-28T10:07:10Z</time>
      </trkpt>
      <trkpt lat="43.188467" lon="-4.962273">
        <ele>2067.300</ele>
        <time>2014-08-28T10:07:16Z</time>
      </trkpt>
      <trkpt lat="43.188423" lon="-4.962233">
        <ele>2067.320</ele>
        <time>2014-08-28T10:07:22Z</time>
      </trkpt>
      <trkpt lat="43.188378" lon="-4.962220">
        <ele>2067.407</ele>
        <time>2014-08-28T10:07:27Z</time>
      </trkpt>
      <trkpt lat="43.188363" lon="-4.962161">
        <ele>2068.090</ele>
        <time>2014-08-28T10:07:39Z</time>
      </trkpt>
      <trkpt lat="43.188344" lon="-4.962100">
        <ele>2068.562</ele>
        <time>2014-08-28T10:07:44Z</time>
      </trkpt>
      <trkpt lat="43.188302" lon="-4.962061">
        <ele>2068.143</ele>
        <time>2014-08-28T10:07:49Z</time>
      </trkpt>
      <trkpt lat="43.188293" lon="-4.962055">
        <ele>2068.146</ele>
        <time>2014-08-28T10:07:50Z</time>
      </trkpt>
      <trkpt lat="43.188208" lon="-4.962038">
        <ele>2066.865</ele>
        <time>2014-08-28T10:07:57Z</time>
      </trkpt>
      <trkpt lat="43.188160" lon="-4.962021">
        <ele>2066.972</ele>
        <time>2014-08-28T10:08:01Z</time>
      </trkpt>
      <trkpt lat="43.188122" lon="-4.961991">
        <ele>2067.158</ele>
        <time>2014-08-28T10:08:05Z</time>
      </trkpt>
      <trkpt lat="43.188080" lon="-4.961946">
        <ele>2065.483</ele>
        <time>2014-08-28T10:08:11Z</time>
      </trkpt>
      <trkpt lat="43.188035" lon="-4.961906">
        <ele>2066.325</ele>
        <time>2014-08-28T10:08:17Z</time>
      </trkpt>
      <trkpt lat="43.187995" lon="-4.961886">
        <ele>2066.917</ele>
        <time>2014-08-28T10:08:21Z</time>
      </trkpt>
      <trkpt lat="43.187952" lon="-4.961858">
        <ele>2067.307</ele>
        <time>2014-08-28T10:08:26Z</time>
      </trkpt>
      <trkpt lat="43.187903" lon="-4.961828">
        <ele>2067.836</ele>
        <time>2014-08-28T10:08:34Z</time>
      </trkpt>
      <trkpt lat="43.187857" lon="-4.961806">
        <ele>2067.898</ele>
        <time>2014-08-28T10:08:41Z</time>
      </trkpt>
      <trkpt lat="43.187807" lon="-4.961780">
        <ele>2067.319</ele>
        <time>2014-08-28T10:08:47Z</time>
      </trkpt>
      <trkpt lat="43.187757" lon="-4.961761">
        <ele>2068.542</ele>
        <time>2014-08-28T10:08:52Z</time>
      </trkpt>
      <trkpt lat="43.187747" lon="-4.961756">
        <ele>2068.731</ele>
        <time>2014-08-28T10:08:53Z</time>
      </trkpt>
      <trkpt lat="43.187654" lon="-4.961736">
        <ele>2066.668</ele>
        <time>2014-08-28T10:09:05Z</time>
      </trkpt>
      <trkpt lat="43.187603" lon="-4.961740">
        <ele>2066.344</ele>
        <time>2014-08-28T10:09:09Z</time>
      </trkpt>
      <trkpt lat="43.187552" lon="-4.961736">
        <ele>2065.747</ele>
        <time>2014-08-28T10:09:13Z</time>
      </trkpt>
      <trkpt lat="43.187502" lon="-4.961735">
        <ele>2065.529</ele>
        <time>2014-08-28T10:09:17Z</time>
      </trkpt>
      <trkpt lat="43.187450" lon="-4.961726">
        <ele>2065.421</ele>
        <time>2014-08-28T10:09:22Z</time>
      </trkpt>
      <trkpt lat="43.187402" lon="-4.961713">
        <ele>2066.207</ele>
        <time>2014-08-28T10:09:32Z</time>
      </trkpt>
      <trkpt lat="43.187355" lon="-4.961711">
        <ele>2065.992</ele>
        <time>2014-08-28T10:09:41Z</time>
      </trkpt>
      <trkpt lat="43.187309" lon="-4.961711">
        <ele>2065.654</ele>
        <time>2014-08-28T10:09:46Z</time>
      </trkpt>
      <trkpt lat="43.187258" lon="-4.961705">
        <ele>2065.155</ele>
        <time>2014-08-28T10:09:52Z</time>
      </trkpt>
      <trkpt lat="43.187210" lon="-4.961726">
        <ele>2065.468</ele>
        <time>2014-08-28T10:09:59Z</time>
      </trkpt>
      <trkpt lat="43.187207" lon="-4.961735">
        <ele>2065.957</ele>
        <time>2014-08-28T10:10:00Z</time>
      </trkpt>
      <trkpt lat="43.187120" lon="-4.961785">
        <ele>2067.784</ele>
        <time>2014-08-28T10:10:25Z</time>
      </trkpt>
      <trkpt lat="43.187070" lon="-4.961783">
        <ele>2067.990</ele>
        <time>2014-08-28T10:10:33Z</time>
      </trkpt>
      <trkpt lat="43.187022" lon="-4.961755">
        <ele>2069.061</ele>
        <time>2014-08-28T10:10:40Z</time>
      </trkpt>
      <trkpt lat="43.186982" lon="-4.961713">
        <ele>2069.021</ele>
        <time>2014-08-28T10:10:45Z</time>
      </trkpt>
      <trkpt lat="43.186937" lon="-4.961690">
        <ele>2069.713</ele>
        <time>2014-08-28T10:10:50Z</time>
      </trkpt>
      <trkpt lat="43.186892" lon="-4.961653">
        <ele>2070.107</ele>
        <time>2014-08-28T10:10:58Z</time>
      </trkpt>
      <trkpt lat="43.186855" lon="-4.961608">
        <ele>2070.144</ele>
        <time>2014-08-28T10:11:05Z</time>
      </trkpt>
      <trkpt lat="43.186845" lon="-4.961603">
        <ele>2070.186</ele>
        <time>2014-08-28T10:11:06Z</time>
      </trkpt>
      <trkpt lat="43.186755" lon="-4.961618">
        <ele>2071.387</ele>
        <time>2014-08-28T10:11:19Z</time>
      </trkpt>
      <trkpt lat="43.186715" lon="-4.961663">
        <ele>2070.590</ele>
        <time>2014-08-28T10:11:28Z</time>
      </trkpt>
      <trkpt lat="43.186665" lon="-4.961681">
        <ele>2069.639</ele>
        <time>2014-08-28T10:11:45Z</time>
      </trkpt>
      <trkpt lat="43.186642" lon="-4.961743">
        <ele>2067.226</ele>
        <time>2014-08-28T10:11:55Z</time>
      </trkpt>
      <trkpt lat="43.186598" lon="-4.961781">
        <ele>2067.632</ele>
        <time>2014-08-28T10:12:02Z</time>
      </trkpt>
      <trkpt lat="43.186545" lon="-4.961786">
        <ele>2068.565</ele>
        <time>2014-08-28T10:12:10Z</time>
      </trkpt>
      <trkpt lat="43.186538" lon="-4.961793">
        <ele>2068.668</ele>
        <time>2014-08-28T10:12:11Z</time>
      </trkpt>
      <trkpt lat="43.186465" lon="-4.961866">
        <ele>2068.714</ele>
        <time>2014-08-28T10:12:25Z</time>
      </trkpt>
      <trkpt lat="43.186432" lon="-4.961918">
        <ele>2070.107</ele>
        <time>2014-08-28T10:12:33Z</time>
      </trkpt>
      <trkpt lat="43.186400" lon="-4.961975">
        <ele>2071.474</ele>
        <time>2014-08-28T10:12:43Z</time>
      </trkpt>
      <trkpt lat="43.186358" lon="-4.962000">
        <ele>2071.016</ele>
        <time>2014-08-28T10:12:50Z</time>
      </trkpt>
      <trkpt lat="43.186320" lon="-4.962030">
        <ele>2071.417</ele>
        <time>2014-08-28T10:12:56Z</time>
      </trkpt>
      <trkpt lat="43.186280" lon="-4.962068">
        <ele>2071.970</ele>
        <time>2014-08-28T10:13:02Z</time>
      </trkpt>
      <trkpt lat="43.186250" lon="-4.962125">
        <ele>2072.089</ele>
        <time>2014-08-28T10:13:11Z</time>
      </trkpt>
      <trkpt lat="43.186245" lon="-4.962133">
        <ele>2072.126</ele>
        <time>2014-08-28T10:13:12Z</time>
      </trkpt>
      <trkpt lat="43.186188" lon="-4.962243">
        <ele>2074.272</ele>
        <time>2014-08-28T10:13:27Z</time>
      </trkpt>
      <trkpt lat="43.186187" lon="-4.962316">
        <ele>2073.863</ele>
        <time>2014-08-28T10:13:36Z</time>
      </trkpt>
      <trkpt lat="43.186147" lon="-4.962356">
        <ele>2075.044</ele>
        <time>2014-08-28T10:13:43Z</time>
      </trkpt>
      <trkpt lat="43.186105" lon="-4.962401">
        <ele>2076.818</ele>
        <time>2014-08-28T10:13:56Z</time>
      </trkpt>
      <trkpt lat="43.186053" lon="-4.962418">
        <ele>2076.107</ele>
        <time>2014-08-28T10:14:01Z</time>
      </trkpt>
      <trkpt lat="43.186012" lon="-4.962458">
        <ele>2076.174</ele>
        <time>2014-08-28T10:14:10Z</time>
      </trkpt>
      <trkpt lat="43.185973" lon="-4.962506">
        <ele>2076.356</ele>
        <time>2014-08-28T10:14:32Z</time>
      </trkpt>
      <trkpt lat="43.185970" lon="-4.962506">
        <ele>2076.117</ele>
        <time>2014-08-28T10:14:33Z</time>
      </trkpt>
      <trkpt lat="43.185875" lon="-4.962528">
        <ele>2074.510</ele>
        <time>2014-08-28T10:15:02Z</time>
      </trkpt>
      <trkpt lat="43.185835" lon="-4.962505">
        <ele>2073.679</ele>
        <time>2014-08-28T10:15:08Z</time>
      </trkpt>
      <trkpt lat="43.185782" lon="-4.962498">
        <ele>2072.876</ele>
        <time>2014-08-28T10:15:14Z</time>
      </trkpt>
      <trkpt lat="43.185738" lon="-4.962531">
        <ele>2073.412</ele>
        <time>2014-08-28T10:15:21Z</time>
      </trkpt>
      <trkpt lat="43.185698" lon="-4.962578">
        <ele>2074.079</ele>
        <time>2014-08-28T10:15:29Z</time>
      </trkpt>
      <trkpt lat="43.185698" lon="-4.962645">
        <ele>2074.805</ele>
        <time>2014-08-28T10:15:37Z</time>
      </trkpt>
      <trkpt lat="43.185710" lon="-4.962655">
        <ele>2074.925</ele>
        <time>2014-08-28T10:15:38Z</time>
      </trkpt>
      <trkpt lat="43.185682" lon="-4.962780">
        <ele>2076.907</ele>
        <time>2014-08-28T10:15:59Z</time>
      </trkpt>
      <trkpt lat="43.185640" lon="-4.962810">
        <ele>2077.025</ele>
        <time>2014-08-28T10:16:08Z</time>
      </trkpt>
      <trkpt lat="43.185608" lon="-4.962855">
        <ele>2076.727</ele>
        <time>2014-08-28T10:16:14Z</time>
      </trkpt>
      <trkpt lat="43.185577" lon="-4.962910">
        <ele>2076.888</ele>
        <time>2014-08-28T10:16:19Z</time>
      </trkpt>
      <trkpt lat="43.185550" lon="-4.962973">
        <ele>2076.621</ele>
        <time>2014-08-28T10:16:26Z</time>
      </trkpt>
      <trkpt lat="43.185535" lon="-4.963041">
        <ele>2075.430</ele>
        <time>2014-08-28T10:16:35Z</time>
      </trkpt>
      <trkpt lat="43.185485" lon="-4.963060">
        <ele>2073.887</ele>
        <time>2014-08-28T10:16:48Z</time>
      </trkpt>
      <trkpt lat="43.185477" lon="-4.963066">
        <ele>2073.583</ele>
        <time>2014-08-28T10:16:49Z</time>
      </trkpt>
      <trkpt lat="43.185405" lon="-4.963145">
        <ele>2072.849</ele>
        <time>2014-08-28T10:17:02Z</time>
      </trkpt>
      <trkpt lat="43.185355" lon="-4.963161">
        <ele>2073.202</ele>
        <time>2014-08-28T10:17:18Z</time>
      </trkpt>
      <trkpt lat="43.185310" lon="-4.963193">
        <ele>2074.822</ele>
        <time>2014-08-28T10:17:28Z</time>
      </trkpt>
      <trkpt lat="43.185260" lon="-4.963216">
        <ele>2077.107</ele>
        <time>2014-08-28T10:17:36Z</time>
      </trkpt>
      <trkpt lat="43.185209" lon="-4.963213">
        <ele>2077.922</ele>
        <time>2014-08-28T10:17:46Z</time>
      </trkpt>
      <trkpt lat="43.185167" lon="-4.963221">
        <ele>2078.564</ele>
        <time>2014-08-28T10:17:53Z</time>
      </trkpt>
      <trkpt lat="43.185153" lon="-4.963223">
        <ele>2078.585</ele>
        <time>2014-08-28T10:17:54Z</time>
      </trkpt>
      <trkpt lat="43.185097" lon="-4.963321">
        <ele>2077.518</ele>
        <time>2014-08-28T10:18:13Z</time>
      </trkpt>
      <trkpt lat="43.185053" lon="-4.963360">
        <ele>2076.747</ele>
        <time>2014-08-28T10:18:23Z</time>
      </trkpt>
      <trkpt lat="43.185000" lon="-4.963358">
        <ele>2075.834</ele>
        <time>2014-08-28T10:18:31Z</time>
      </trkpt>
      <trkpt lat="43.184950" lon="-4.963353">
        <ele>2075.820</ele>
        <time>2014-08-28T10:18:38Z</time>
      </trkpt>
      <trkpt lat="43.184900" lon="-4.963333">
        <ele>2076.175</ele>
        <time>2014-08-28T10:18:45Z</time>
      </trkpt>
      <trkpt lat="43.184853" lon="-4.963306">
        <ele>2076.928</ele>
        <time>2014-08-28T10:18:53Z</time>
      </trkpt>
      <trkpt lat="43.184817" lon="-4.963265">
        <ele>2077.620</ele>
        <time>2014-08-28T10:18:59Z</time>
      </trkpt>
      <trkpt lat="43.184812" lon="-4.963258">
        <ele>2077.707</ele>
        <time>2014-08-28T10:19:00Z</time>
      </trkpt>
      <trkpt lat="43.184745" lon="-4.963163">
        <ele>2076.475</ele>
        <time>2014-08-28T10:19:16Z</time>
      </trkpt>
      <trkpt lat="43.184703" lon="-4.963121">
        <ele>2074.677</ele>
        <time>2014-08-28T10:19:24Z</time>
      </trkpt>
      <trkpt lat="43.184650" lon="-4.963116">
        <ele>2074.268</ele>
        <time>2014-08-28T10:19:30Z</time>
      </trkpt>
      <trkpt lat="43.184598" lon="-4.963121">
        <ele>2074.171</ele>
        <time>2014-08-28T10:19:36Z</time>
      </trkpt>
      <trkpt lat="43.184545" lon="-4.963125">
        <ele>2075.280</ele>
        <time>2014-08-28T10:19:47Z</time>
      </trkpt>
      <trkpt lat="43.184508" lon="-4.963175">
        <ele>2075.337</ele>
        <time>2014-08-28T10:20:00Z</time>
      </trkpt>
      <trkpt lat="43.184457" lon="-4.963176">
        <ele>2079.733</ele>
        <time>2014-08-28T10:20:28Z</time>
      </trkpt>
      <trkpt lat="43.184453" lon="-4.963173">
        <ele>2079.648</ele>
        <time>2014-08-28T10:20:29Z</time>
      </trkpt>
      <trkpt lat="43.184363" lon="-4.963198">
        <ele>2079.761</ele>
        <time>2014-08-28T10:20:47Z</time>
      </trkpt>
      <trkpt lat="43.184323" lon="-4.963241">
        <ele>2078.717</ele>
        <time>2014-08-28T10:20:55Z</time>
      </trkpt>
      <trkpt lat="43.184277" lon="-4.963248">
        <ele>2078.207</ele>
        <time>2014-08-28T10:21:02Z</time>
      </trkpt>
      <trkpt lat="43.184228" lon="-4.963271">
        <ele>2079.572</ele>
        <time>2014-08-28T10:21:12Z</time>
      </trkpt>
      <trkpt lat="43.184182" lon="-4.963296">
        <ele>2078.714</ele>
        <time>2014-08-28T10:21:23Z</time>
      </trkpt>
      <trkpt lat="43.184132" lon="-4.963306">
        <ele>2077.295</ele>
        <time>2014-08-28T10:21:31Z</time>
      </trkpt>
      <trkpt lat="43.184127" lon="-4.963310">
        <ele>2077.018</ele>
        <time>2014-08-28T10:21:32Z</time>
      </trkpt>
      <trkpt lat="43.184092" lon="-4.963435">
        <ele>2079.517</ele>
        <time>2014-08-28T10:21:55Z</time>
      </trkpt>
      <trkpt lat="43.184043" lon="-4.963465">
        <ele>2081.384</ele>
        <time>2014-08-28T10:22:07Z</time>
      </trkpt>
      <trkpt lat="43.183991" lon="-4.963486">
        <ele>2082.030</ele>
        <time>2014-08-28T10:22:16Z</time>
      </trkpt>
      <trkpt lat="43.183953" lon="-4.963506">
        <ele>2083.455</ele>
        <time>2014-08-28T10:22:29Z</time>
      </trkpt>
      <trkpt lat="43.183908" lon="-4.963503">
        <ele>2083.207</ele>
        <time>2014-08-28T10:22:32Z</time>
      </trkpt>
      <trkpt lat="43.183811" lon="-4.963537">
        <ele>2082.017</ele>
        <time>2014-08-28T10:22:39Z</time>
      </trkpt>
      <trkpt lat="43.183798" lon="-4.963553">
        <ele>2082.507</ele>
        <time>2014-08-28T10:22:41Z</time>
      </trkpt>
      <trkpt lat="43.183684" lon="-4.963649">
        <ele>2084.073</ele>
        <time>2014-08-28T10:22:55Z</time>
      </trkpt>
      <trkpt lat="43.183633" lon="-4.963709">
        <ele>2086.025</ele>
        <time>2014-08-28T10:23:11Z</time>
      </trkpt>
      <trkpt lat="43.183578" lon="-4.963718">
        <ele>2089.026</ele>
        <time>2014-08-28T10:23:23Z</time>
      </trkpt>
      <trkpt lat="43.183522" lon="-4.963702">
        <ele>2089.099</ele>
        <time>2014-08-28T10:23:31Z</time>
      </trkpt>
      <trkpt lat="43.183452" lon="-4.963633">
        <ele>2090.038</ele>
        <time>2014-08-28T10:23:39Z</time>
      </trkpt>
      <trkpt lat="43.183432" lon="-4.963701">
        <ele>2093.055</ele>
        <time>2014-08-28T10:24:03Z</time>
      </trkpt>
      <trkpt lat="43.183432" lon="-4.963703">
        <ele>2092.931</ele>
        <time>2014-08-28T10:24:04Z</time>
      </trkpt>
      <trkpt lat="43.183299" lon="-4.963653">
        <ele>2088.042</ele>
        <time>2014-08-28T10:24:34Z</time>
      </trkpt>
      <trkpt lat="43.183257" lon="-4.963597">
        <ele>2090.022</ele>
        <time>2014-08-28T10:24:51Z</time>
      </trkpt>
      <trkpt lat="43.183188" lon="-4.963539">
        <ele>2089.014</ele>
        <time>2014-08-28T10:25:15Z</time>
      </trkpt>
      <trkpt lat="43.183177" lon="-4.963535">
        <ele>2089.107</ele>
        <time>2014-08-28T10:25:18Z</time>
      </trkpt>
      <trkpt lat="43.183060" lon="-4.963539">
        <ele>2090.072</ele>
        <time>2014-08-28T10:25:40Z</time>
      </trkpt>
      <trkpt lat="43.183017" lon="-4.963578">
        <ele>2093.674</ele>
        <time>2014-08-28T10:26:00Z</time>
      </trkpt>
      <trkpt lat="43.182972" lon="-4.963610">
        <ele>2095.945</ele>
        <time>2014-08-28T10:26:16Z</time>
      </trkpt>
      <trkpt lat="43.182923" lon="-4.963630">
        <ele>2097.068</ele>
        <time>2014-08-28T10:26:22Z</time>
      </trkpt>
      <trkpt lat="43.182915" lon="-4.963633">
        <ele>2097.057</ele>
        <time>2014-08-28T10:26:23Z</time>
      </trkpt>
      <trkpt lat="43.182813" lon="-4.963621">
        <ele>2096.894</ele>
        <time>2014-08-28T10:26:34Z</time>
      </trkpt>
      <trkpt lat="43.182765" lon="-4.963613">
        <ele>2097.750</ele>
        <time>2014-08-28T10:26:40Z</time>
      </trkpt>
      <trkpt lat="43.182713" lon="-4.963605">
        <ele>2099.633</ele>
        <time>2014-08-28T10:26:46Z</time>
      </trkpt>
      <trkpt lat="43.182665" lon="-4.963606">
        <ele>2100.423</ele>
        <time>2014-08-28T10:26:51Z</time>
      </trkpt>
      <trkpt lat="43.182613" lon="-4.963595">
        <ele>2101.115</ele>
        <time>2014-08-28T10:26:57Z</time>
      </trkpt>
      <trkpt lat="43.182568" lon="-4.963556">
        <ele>2101.907</ele>
        <time>2014-08-28T10:27:04Z</time>
      </trkpt>
      <trkpt lat="43.182548" lon="-4.963488">
        <ele>2102.521</ele>
        <time>2014-08-28T10:27:23Z</time>
      </trkpt>
      <trkpt lat="43.182545" lon="-4.963415">
        <ele>2101.883</ele>
        <time>2014-08-28T10:27:41Z</time>
      </trkpt>
      <trkpt lat="43.182545" lon="-4.963413">
        <ele>2101.834</ele>
        <time>2014-08-28T10:27:42Z</time>
      </trkpt>
      <trkpt lat="43.182457" lon="-4.963351">
        <ele>2099.987</ele>
        <time>2014-08-28T10:28:14Z</time>
      </trkpt>
      <trkpt lat="43.182410" lon="-4.963336">
        <ele>2099.256</ele>
        <time>2014-08-28T10:28:19Z</time>
      </trkpt>
      <trkpt lat="43.182368" lon="-4.963358">
        <ele>2097.973</ele>
        <time>2014-08-28T10:28:23Z</time>
      </trkpt>
      <trkpt lat="43.182320" lon="-4.963385">
        <ele>2097.659</ele>
        <time>2014-08-28T10:28:29Z</time>
      </trkpt>
      <trkpt lat="43.182268" lon="-4.963398">
        <ele>2098.465</ele>
        <time>2014-08-28T10:28:37Z</time>
      </trkpt>
      <trkpt lat="43.182218" lon="-4.963388">
        <ele>2100.168</ele>
        <time>2014-08-28T10:28:43Z</time>
      </trkpt>
      <trkpt lat="43.182208" lon="-4.963385">
        <ele>2100.414</ele>
        <time>2014-08-28T10:28:44Z</time>
      </trkpt>
      <trkpt lat="43.182118" lon="-4.963373">
        <ele>2101.307</ele>
        <time>2014-08-28T10:28:57Z</time>
      </trkpt>
      <trkpt lat="43.182068" lon="-4.963361">
        <ele>2101.314</ele>
        <time>2014-08-28T10:29:04Z</time>
      </trkpt>
      <trkpt lat="43.182020" lon="-4.963391">
        <ele>2099.376</ele>
        <time>2014-08-28T10:29:14Z</time>
      </trkpt>
      <trkpt lat="43.181968" lon="-4.963381">
        <ele>2099.297</ele>
        <time>2014-08-28T10:29:24Z</time>
      </trkpt>
      <trkpt lat="43.181918" lon="-4.963366">
        <ele>2098.210</ele>
        <time>2014-08-28T10:29:30Z</time>
      </trkpt>
      <trkpt lat="43.181865" lon="-4.963366">
        <ele>2097.989</ele>
        <time>2014-08-28T10:29:41Z</time>
      </trkpt>
      <trkpt lat="43.181815" lon="-4.963361">
        <ele>2098.956</ele>
        <time>2014-08-28T10:29:50Z</time>
      </trkpt>
      <trkpt lat="43.181810" lon="-4.963358">
        <ele>2098.862</ele>
        <time>2014-08-28T10:29:51Z</time>
      </trkpt>
      <trkpt lat="43.181732" lon="-4.963435">
        <ele>2097.568</ele>
        <time>2014-08-28T10:30:07Z</time>
      </trkpt>
      <trkpt lat="43.181687" lon="-4.963473">
        <ele>2098.042</ele>
        <time>2014-08-28T10:30:16Z</time>
      </trkpt>
      <trkpt lat="43.181638" lon="-4.963501">
        <ele>2098.226</ele>
        <time>2014-08-28T10:30:26Z</time>
      </trkpt>
      <trkpt lat="43.181608" lon="-4.963551">
        <ele>2100.107</ele>
        <time>2014-08-28T10:30:37Z</time>
      </trkpt>
      <trkpt lat="43.181562" lon="-4.963586">
        <ele>2098.424</ele>
        <time>2014-08-28T10:30:44Z</time>
      </trkpt>
      <trkpt lat="43.181517" lon="-4.963571">
        <ele>2097.966</ele>
        <time>2014-08-28T10:30:49Z</time>
      </trkpt>
      <trkpt lat="43.181448" lon="-4.963551">
        <ele>2096.067</ele>
        <time>2014-08-28T10:30:55Z</time>
      </trkpt>
      <trkpt lat="43.181433" lon="-4.963541">
        <ele>2096.350</ele>
        <time>2014-08-28T10:30:57Z</time>
      </trkpt>
      <trkpt lat="43.181365" lon="-4.963486">
        <ele>2096.919</ele>
        <time>2014-08-28T10:31:05Z</time>
      </trkpt>
      <trkpt lat="43.181317" lon="-4.963468">
        <ele>2096.286</ele>
        <time>2014-08-28T10:31:10Z</time>
      </trkpt>
      <trkpt lat="43.181280" lon="-4.963430">
        <ele>2096.282</ele>
        <time>2014-08-28T10:31:15Z</time>
      </trkpt>
      <trkpt lat="43.181243" lon="-4.963383">
        <ele>2096.616</ele>
        <time>2014-08-28T10:31:20Z</time>
      </trkpt>
      <trkpt lat="43.181213" lon="-4.963340">
        <ele>2096.376</ele>
        <time>2014-08-28T10:31:24Z</time>
      </trkpt>
      <trkpt lat="43.181178" lon="-4.963286">
        <ele>2095.313</ele>
        <time>2014-08-28T10:31:30Z</time>
      </trkpt>
      <trkpt lat="43.181142" lon="-4.963250">
        <ele>2094.807</ele>
        <time>2014-08-28T10:31:35Z</time>
      </trkpt>
      <trkpt lat="43.181093" lon="-4.963231">
        <ele>2094.829</ele>
        <time>2014-08-28T10:31:41Z</time>
      </trkpt>
      <trkpt lat="43.181042" lon="-4.963248">
        <ele>2092.621</ele>
        <time>2014-08-28T10:31:48Z</time>
      </trkpt>
      <trkpt lat="43.180993" lon="-4.963263">
        <ele>2091.352</ele>
        <time>2014-08-28T10:31:56Z</time>
      </trkpt>
      <trkpt lat="43.180953" lon="-4.963310">
        <ele>2092.875</ele>
        <time>2014-08-28T10:32:02Z</time>
      </trkpt>
      <trkpt lat="43.180952" lon="-4.963320">
        <ele>2092.874</ele>
        <time>2014-08-28T10:32:03Z</time>
      </trkpt>
      <trkpt lat="43.180893" lon="-4.963400">
        <ele>2096.811</ele>
        <time>2014-08-28T10:32:30Z</time>
      </trkpt>
      <trkpt lat="43.180847" lon="-4.963428">
        <ele>2096.057</ele>
        <time>2014-08-28T10:32:38Z</time>
      </trkpt>
      <trkpt lat="43.180795" lon="-4.963443">
        <ele>2095.452</ele>
        <time>2014-08-28T10:32:45Z</time>
      </trkpt>
      <trkpt lat="43.180743" lon="-4.963455">
        <ele>2095.053</ele>
        <time>2014-08-28T10:32:49Z</time>
      </trkpt>
      <trkpt lat="43.180697" lon="-4.963475">
        <ele>2093.708</ele>
        <time>2014-08-28T10:32:54Z</time>
      </trkpt>
      <trkpt lat="43.180647" lon="-4.963488">
        <ele>2092.107</ele>
        <time>2014-08-28T10:33:01Z</time>
      </trkpt>
      <trkpt lat="43.180597" lon="-4.963510">
        <ele>2089.773</ele>
        <time>2014-08-28T10:33:13Z</time>
      </trkpt>
      <trkpt lat="43.180593" lon="-4.963516">
        <ele>2089.785</ele>
        <time>2014-08-28T10:33:14Z</time>
      </trkpt>
      <trkpt lat="43.180540" lon="-4.963630">
        <ele>2086.156</ele>
        <time>2014-08-28T10:33:34Z</time>
      </trkpt>
      <trkpt lat="43.180525" lon="-4.963690">
        <ele>2084.499</ele>
        <time>2014-08-28T10:33:47Z</time>
      </trkpt>
      <trkpt lat="43.180482" lon="-4.963726">
        <ele>2084.298</ele>
        <time>2014-08-28T10:33:53Z</time>
      </trkpt>
      <trkpt lat="43.180450" lon="-4.963781">
        <ele>2084.765</ele>
        <time>2014-08-28T10:34:01Z</time>
      </trkpt>
      <trkpt lat="43.180398" lon="-4.963790">
        <ele>2082.861</ele>
        <time>2014-08-28T10:34:08Z</time>
      </trkpt>
      <trkpt lat="43.180340" lon="-4.963801">
        <ele>2081.793</ele>
        <time>2014-08-28T10:34:13Z</time>
      </trkpt>
      <trkpt lat="43.180292" lon="-4.963826">
        <ele>2082.365</ele>
        <time>2014-08-28T10:34:17Z</time>
      </trkpt>
      <trkpt lat="43.180282" lon="-4.963831">
        <ele>2082.521</ele>
        <time>2014-08-28T10:34:18Z</time>
      </trkpt>
      <trkpt lat="43.180197" lon="-4.963875">
        <ele>2085.207</ele>
        <time>2014-08-28T10:34:29Z</time>
      </trkpt>
      <trkpt lat="43.180152" lon="-4.963890">
        <ele>2085.217</ele>
        <time>2014-08-28T10:34:35Z</time>
      </trkpt>
      <trkpt lat="43.180108" lon="-4.963930">
        <ele>2086.719</ele>
        <time>2014-08-28T10:34:44Z</time>
      </trkpt>
      <trkpt lat="43.180082" lon="-4.963870">
        <ele>2089.930</ele>
        <time>2014-08-28T10:35:09Z</time>
      </trkpt>
      <trkpt lat="43.180033" lon="-4.963881">
        <ele>2091.973</ele>
        <time>2014-08-28T10:35:35Z</time>
      </trkpt>
      <trkpt lat="43.180027" lon="-4.963883">
        <ele>2091.432</ele>
        <time>2014-08-28T10:35:36Z</time>
      </trkpt>
      <trkpt lat="43.179933" lon="-4.963888">
        <ele>2092.739</ele>
        <time>2014-08-28T10:35:52Z</time>
      </trkpt>
      <trkpt lat="43.179888" lon="-4.963926">
        <ele>2093.835</ele>
        <time>2014-08-28T10:35:58Z</time>
      </trkpt>
      <trkpt lat="43.179838" lon="-4.963938">
        <ele>2093.993</ele>
        <time>2014-08-28T10:36:09Z</time>
      </trkpt>
      <trkpt lat="43.179787" lon="-4.963923">
        <ele>2093.565</ele>
        <time>2014-08-28T10:36:21Z</time>
      </trkpt>
      <trkpt lat="43.179743" lon="-4.963963">
        <ele>2091.421</ele>
        <time>2014-08-28T10:36:33Z</time>
      </trkpt>
      <trkpt lat="43.179692" lon="-4.963955">
        <ele>2089.907</ele>
        <time>2014-08-28T10:36:38Z</time>
      </trkpt>
      <trkpt lat="43.179682" lon="-4.963951">
        <ele>2089.667</ele>
        <time>2014-08-28T10:36:39Z</time>
      </trkpt>
      <trkpt lat="43.179595" lon="-4.963935">
        <ele>2091.059</ele>
        <time>2014-08-28T10:36:48Z</time>
      </trkpt>
      <trkpt lat="43.179542" lon="-4.963941">
        <ele>2092.270</ele>
        <time>2014-08-28T10:36:55Z</time>
      </trkpt>
      <trkpt lat="43.179490" lon="-4.963930">
        <ele>2093.373</ele>
        <time>2014-08-28T10:37:02Z</time>
      </trkpt>
      <trkpt lat="43.179437" lon="-4.963926">
        <ele>2093.642</ele>
        <time>2014-08-28T10:37:11Z</time>
      </trkpt>
      <trkpt lat="43.179387" lon="-4.963951">
        <ele>2096.219</ele>
        <time>2014-08-28T10:37:33Z</time>
      </trkpt>
      <trkpt lat="43.179333" lon="-4.963941">
        <ele>2098.685</ele>
        <time>2014-08-28T10:37:54Z</time>
      </trkpt>
      <trkpt lat="43.179330" lon="-4.963941">
        <ele>2098.688</ele>
        <time>2014-08-28T10:37:55Z</time>
      </trkpt>
      <trkpt lat="43.179240" lon="-4.963916">
        <ele>2101.524</ele>
        <time>2014-08-28T10:38:14Z</time>
      </trkpt>
      <trkpt lat="43.179193" lon="-4.963891">
        <ele>2101.726</ele>
        <time>2014-08-28T10:38:21Z</time>
      </trkpt>
      <trkpt lat="43.179152" lon="-4.963851">
        <ele>2102.007</ele>
        <time>2014-08-28T10:38:27Z</time>
      </trkpt>
      <trkpt lat="43.179103" lon="-4.963825">
        <ele>2101.446</ele>
        <time>2014-08-28T10:38:34Z</time>
      </trkpt>
      <trkpt lat="43.179055" lon="-4.963795">
        <ele>2102.618</ele>
        <time>2014-08-28T10:38:45Z</time>
      </trkpt>
      <trkpt lat="43.179027" lon="-4.963736">
        <ele>2103.779</ele>
        <time>2014-08-28T10:39:03Z</time>
      </trkpt>
      <trkpt lat="43.179020" lon="-4.963733">
        <ele>2103.982</ele>
        <time>2014-08-28T10:39:04Z</time>
      </trkpt>
      <trkpt lat="43.178927" lon="-4.963730">
        <ele>2102.571</ele>
        <time>2014-08-28T10:39:15Z</time>
      </trkpt>
      <trkpt lat="43.178873" lon="-4.963721">
        <ele>2103.248</ele>
        <time>2014-08-28T10:39:22Z</time>
      </trkpt>
      <trkpt lat="43.178827" lon="-4.963695">
        <ele>2104.274</ele>
        <time>2014-08-28T10:39:29Z</time>
      </trkpt>
      <trkpt lat="43.178787" lon="-4.963656">
        <ele>2104.779</ele>
        <time>2014-08-28T10:39:35Z</time>
      </trkpt>
      <trkpt lat="43.178742" lon="-4.963625">
        <ele>2104.005</ele>
        <time>2014-08-28T10:39:41Z</time>
      </trkpt>
      <trkpt lat="43.178695" lon="-4.963598">
        <ele>2103.225</ele>
        <time>2014-08-28T10:39:47Z</time>
      </trkpt>
      <trkpt lat="43.178652" lon="-4.963580">
        <ele>2103.107</ele>
        <time>2014-08-28T10:39:54Z</time>
      </trkpt>
      <trkpt lat="43.178605" lon="-4.963565">
        <ele>2102.575</ele>
        <time>2014-08-28T10:40:00Z</time>
      </trkpt>
      <trkpt lat="43.178567" lon="-4.963513">
        <ele>2103.417</ele>
        <time>2014-08-28T10:40:07Z</time>
      </trkpt>
      <trkpt lat="43.178560" lon="-4.963508">
        <ele>2103.548</ele>
        <time>2014-08-28T10:40:08Z</time>
      </trkpt>
      <trkpt lat="43.178490" lon="-4.963418">
        <ele>2104.361</ele>
        <time>2014-08-28T10:40:21Z</time>
      </trkpt>
      <trkpt lat="43.178447" lon="-4.963385">
        <ele>2105.150</ele>
        <time>2014-08-28T10:40:29Z</time>
      </trkpt>
      <trkpt lat="43.178395" lon="-4.963373">
        <ele>2107.337</ele>
        <time>2014-08-28T10:40:37Z</time>
      </trkpt>
      <trkpt lat="43.178345" lon="-4.963366">
        <ele>2108.463</ele>
        <time>2014-08-28T10:40:45Z</time>
      </trkpt>
      <trkpt lat="43.178295" lon="-4.963361">
        <ele>2108.989</ele>
        <time>2014-08-28T10:40:54Z</time>
      </trkpt>
      <trkpt lat="43.178245" lon="-4.963353">
        <ele>2109.806</ele>
        <time>2014-08-28T10:41:05Z</time>
      </trkpt>
      <trkpt lat="43.178195" lon="-4.963338">
        <ele>2111.526</ele>
        <time>2014-08-28T10:41:12Z</time>
      </trkpt>
      <trkpt lat="43.178190" lon="-4.963333">
        <ele>2111.907</ele>
        <time>2014-08-28T10:41:13Z</time>
      </trkpt>
      <trkpt lat="43.178105" lon="-4.963281">
        <ele>2111.166</ele>
        <time>2014-08-28T10:41:26Z</time>
      </trkpt>
      <trkpt lat="43.178060" lon="-4.963261">
        <ele>2110.168</ele>
        <time>2014-08-28T10:41:32Z</time>
      </trkpt>
      <trkpt lat="43.178015" lon="-4.963223">
        <ele>2109.729</ele>
        <time>2014-08-28T10:41:39Z</time>
      </trkpt>
      <trkpt lat="43.177963" lon="-4.963203">
        <ele>2111.912</ele>
        <time>2014-08-28T10:41:46Z</time>
      </trkpt>
      <trkpt lat="43.177913" lon="-4.963185">
        <ele>2114.461</ele>
        <time>2014-08-28T10:41:59Z</time>
      </trkpt>
      <trkpt lat="43.177860" lon="-4.963175">
        <ele>2116.528</ele>
        <time>2014-08-28T10:42:10Z</time>
      </trkpt>
      <trkpt lat="43.177815" lon="-4.963138">
        <ele>2118.564</ele>
        <time>2014-08-28T10:42:25Z</time>
      </trkpt>
      <trkpt lat="43.177810" lon="-4.963135">
        <ele>2118.899</ele>
        <time>2014-08-28T10:42:26Z</time>
      </trkpt>
      <trkpt lat="43.177718" lon="-4.963121">
        <ele>2119.807</ele>
        <time>2014-08-28T10:42:42Z</time>
      </trkpt>
      <trkpt lat="43.177672" lon="-4.963091">
        <ele>2120.727</ele>
        <time>2014-08-28T10:42:51Z</time>
      </trkpt>
      <trkpt lat="43.177623" lon="-4.963065">
        <ele>2120.507</ele>
        <time>2014-08-28T10:43:01Z</time>
      </trkpt>
      <trkpt lat="43.177572" lon="-4.963045">
        <ele>2121.427</ele>
        <time>2014-08-28T10:43:10Z</time>
      </trkpt>
      <trkpt lat="43.177528" lon="-4.963025">
        <ele>2120.739</ele>
        <time>2014-08-28T10:43:17Z</time>
      </trkpt>
      <trkpt lat="43.177477" lon="-4.963030">
        <ele>2120.010</ele>
        <time>2014-08-28T10:43:22Z</time>
      </trkpt>
      <trkpt lat="43.177432" lon="-4.963060">
        <ele>2120.913</ele>
        <time>2014-08-28T10:43:28Z</time>
      </trkpt>
      <trkpt lat="43.177427" lon="-4.963065">
        <ele>2121.152</ele>
        <time>2014-08-28T10:43:29Z</time>
      </trkpt>
      <trkpt lat="43.177340" lon="-4.963100">
        <ele>2119.739</ele>
        <time>2014-08-28T10:43:40Z</time>
      </trkpt>
      <trkpt lat="43.177363" lon="-4.963035">
        <ele>2121.255</ele>
        <time>2014-08-28T10:44:13Z</time>
      </trkpt>
      <trkpt lat="43.177417" lon="-4.963036">
        <ele>2120.436</ele>
        <time>2014-08-28T10:44:36Z</time>
      </trkpt>
      <trkpt lat="43.177422" lon="-4.963035">
        <ele>2120.417</ele>
        <time>2014-08-28T10:44:37Z</time>
      </trkpt>
      <trkpt lat="43.177460" lon="-4.962991">
        <ele>2117.918</ele>
        <time>2014-08-28T10:45:53Z</time>
      </trkpt>
      <trkpt lat="43.177410" lon="-4.962965">
        <ele>2118.307</ele>
        <time>2014-08-28T10:48:08Z</time>
      </trkpt>
      <trkpt lat="43.177367" lon="-4.963010">
        <ele>2119.351</ele>
        <time>2014-08-28T10:49:15Z</time>
      </trkpt>
      <trkpt lat="43.177420" lon="-4.962980">
        <ele>2120.583</ele>
        <time>2014-08-28T10:51:43Z</time>
      </trkpt>
      <trkpt lat="43.177362" lon="-4.962978">
        <ele>2120.694</ele>
        <time>2014-08-28T10:53:05Z</time>
      </trkpt>
      <trkpt lat="43.177358" lon="-4.962996">
        <ele>2126.257</ele>
        <time>2014-08-28T11:00:35Z</time>
      </trkpt>
      <trkpt lat="43.177357" lon="-4.962995">
        <ele>2126.586</ele>
        <time>2014-08-28T11:00:36Z</time>
      </trkpt>
      <trkpt lat="43.177308" lon="-4.963031">
        <ele>2129.033</ele>
        <time>2014-08-28T11:03:33Z</time>
      </trkpt>
      <trkpt lat="43.177225" lon="-4.963105">
        <ele>2126.299</ele>
        <time>2014-08-28T11:04:12Z</time>
      </trkpt>
      <trkpt lat="43.177182" lon="-4.963148">
        <ele>2125.215</ele>
        <time>2014-08-28T11:04:24Z</time>
      </trkpt>
      <trkpt lat="43.177167" lon="-4.963216">
        <ele>2124.565</ele>
        <time>2014-08-28T11:04:38Z</time>
      </trkpt>
      <trkpt lat="43.177163" lon="-4.963223">
        <ele>2124.511</ele>
        <time>2014-08-28T11:04:39Z</time>
      </trkpt>
      <trkpt lat="43.177110" lon="-4.963325">
        <ele>2123.607</ele>
        <time>2014-08-28T11:04:53Z</time>
      </trkpt>
      <trkpt lat="43.177063" lon="-4.963348">
        <ele>2119.419</ele>
        <time>2014-08-28T11:05:09Z</time>
      </trkpt>
      <trkpt lat="43.177015" lon="-4.963366">
        <ele>2117.641</ele>
        <time>2014-08-28T11:05:19Z</time>
      </trkpt>
      <trkpt lat="43.176967" lon="-4.963391">
        <ele>2115.672</ele>
        <time>2014-08-28T11:05:32Z</time>
      </trkpt>
      <trkpt lat="43.176918" lon="-4.963406">
        <ele>2114.745</ele>
        <time>2014-08-28T11:05:40Z</time>
      </trkpt>
      <trkpt lat="43.176912" lon="-4.963415">
        <ele>2114.614</ele>
        <time>2014-08-28T11:05:41Z</time>
      </trkpt>
      <trkpt lat="43.176840" lon="-4.963491">
        <ele>2112.281</ele>
        <time>2014-08-28T11:05:56Z</time>
      </trkpt>
      <trkpt lat="43.176808" lon="-4.963550">
        <ele>2110.847</ele>
        <time>2014-08-28T11:06:07Z</time>
      </trkpt>
      <trkpt lat="43.176755" lon="-4.963551">
        <ele>2108.568</ele>
        <time>2014-08-28T11:06:17Z</time>
      </trkpt>
      <trkpt lat="43.176702" lon="-4.963556">
        <ele>2108.242</ele>
        <time>2014-08-28T11:06:27Z</time>
      </trkpt>
      <trkpt lat="43.176653" lon="-4.963578">
        <ele>2108.126</ele>
        <time>2014-08-28T11:06:46Z</time>
      </trkpt>
      <trkpt lat="43.176650" lon="-4.963580">
        <ele>2108.107</ele>
        <time>2014-08-28T11:06:47Z</time>
      </trkpt>
      <trkpt lat="43.176623" lon="-4.963503">
        <ele>2109.794</ele>
        <time>2014-08-28T11:08:32Z</time>
      </trkpt>
      <trkpt lat="43.176623" lon="-4.963500">
        <ele>2109.826</ele>
        <time>2014-08-28T11:08:33Z</time>
      </trkpt>
      <trkpt lat="43.176573" lon="-4.963556">
        <ele>2108.447</ele>
        <time>2014-08-28T11:09:24Z</time>
      </trkpt>
      <trkpt lat="43.176525" lon="-4.963571">
        <ele>2106.770</ele>
        <time>2014-08-28T11:09:45Z</time>
      </trkpt>
      <trkpt lat="43.176518" lon="-4.963576">
        <ele>2106.229</ele>
        <time>2014-08-28T11:09:46Z</time>
      </trkpt>
      <trkpt lat="43.176432" lon="-4.963631">
        <ele>2100.756</ele>
        <time>2014-08-28T11:10:12Z</time>
      </trkpt>
      <trkpt lat="43.176435" lon="-4.963701">
        <ele>2097.642</ele>
        <time>2014-08-28T11:10:34Z</time>
      </trkpt>
      <trkpt lat="43.176442" lon="-4.963768">
        <ele>2096.533</ele>
        <time>2014-08-28T11:10:44Z</time>
      </trkpt>
      <trkpt lat="43.176395" lon="-4.963800">
        <ele>2096.423</ele>
        <time>2014-08-28T11:10:59Z</time>
      </trkpt>
      <trkpt lat="43.176387" lon="-4.963795">
        <ele>2096.115</ele>
        <time>2014-08-28T11:11:00Z</time>
      </trkpt>
      <trkpt lat="43.176302" lon="-4.963761">
        <ele>2093.907</ele>
        <time>2014-08-28T11:11:17Z</time>
      </trkpt>
      <trkpt lat="43.176252" lon="-4.963735">
        <ele>2091.511</ele>
        <time>2014-08-28T11:11:24Z</time>
      </trkpt>
      <trkpt lat="43.176212" lon="-4.963775">
        <ele>2091.733</ele>
        <time>2014-08-28T11:11:30Z</time>
      </trkpt>
      <trkpt lat="43.176165" lon="-4.963796">
        <ele>2088.644</ele>
        <time>2014-08-28T11:11:43Z</time>
      </trkpt>
      <trkpt lat="43.176112" lon="-4.963793">
        <ele>2086.367</ele>
        <time>2014-08-28T11:11:52Z</time>
      </trkpt>
      <trkpt lat="43.176065" lon="-4.963830">
        <ele>2085.086</ele>
        <time>2014-08-28T11:12:03Z</time>
      </trkpt>
      <trkpt lat="43.176060" lon="-4.963828">
        <ele>2085.223</ele>
        <time>2014-08-28T11:12:04Z</time>
      </trkpt>
      <trkpt lat="43.175967" lon="-4.963855">
        <ele>2083.559</ele>
        <time>2014-08-28T11:12:17Z</time>
      </trkpt>
      <trkpt lat="43.175935" lon="-4.963903">
        <ele>2081.271</ele>
        <time>2014-08-28T11:12:30Z</time>
      </trkpt>
      <trkpt lat="43.175887" lon="-4.963930">
        <ele>2078.741</ele>
        <time>2014-08-28T11:12:38Z</time>
      </trkpt>
      <trkpt lat="43.175835" lon="-4.963940">
        <ele>2077.615</ele>
        <time>2014-08-28T11:12:46Z</time>
      </trkpt>
      <trkpt lat="43.175795" lon="-4.963985">
        <ele>2075.707</ele>
        <time>2014-08-28T11:12:53Z</time>
      </trkpt>
      <trkpt lat="43.175753" lon="-4.964020">
        <ele>2075.135</ele>
        <time>2014-08-28T11:12:58Z</time>
      </trkpt>
      <trkpt lat="43.175712" lon="-4.964048">
        <ele>2073.247</ele>
        <time>2014-08-28T11:13:03Z</time>
      </trkpt>
      <trkpt lat="43.175673" lon="-4.964075">
        <ele>2072.778</ele>
        <time>2014-08-28T11:13:08Z</time>
      </trkpt>
      <trkpt lat="43.175660" lon="-4.964083">
        <ele>2073.051</ele>
        <time>2014-08-28T11:13:09Z</time>
      </trkpt>
      <trkpt lat="43.175588" lon="-4.964133">
        <ele>2070.770</ele>
        <time>2014-08-28T11:13:16Z</time>
      </trkpt>
      <trkpt lat="43.175548" lon="-4.964168">
        <ele>2070.187</ele>
        <time>2014-08-28T11:13:21Z</time>
      </trkpt>
      <trkpt lat="43.175510" lon="-4.964193">
        <ele>2069.233</ele>
        <time>2014-08-28T11:13:25Z</time>
      </trkpt>
      <trkpt lat="43.175468" lon="-4.964230">
        <ele>2068.611</ele>
        <time>2014-08-28T11:13:30Z</time>
      </trkpt>
      <trkpt lat="43.175423" lon="-4.964245">
        <ele>2067.921</ele>
        <time>2014-08-28T11:13:34Z</time>
      </trkpt>
      <trkpt lat="43.175380" lon="-4.964263">
        <ele>2066.903</ele>
        <time>2014-08-28T11:13:38Z</time>
      </trkpt>
      <trkpt lat="43.175330" lon="-4.964286">
        <ele>2066.007</ele>
        <time>2014-08-28T11:13:43Z</time>
      </trkpt>
      <trkpt lat="43.175282" lon="-4.964315">
        <ele>2065.859</ele>
        <time>2014-08-28T11:13:49Z</time>
      </trkpt>
      <trkpt lat="43.175232" lon="-4.964340">
        <ele>2063.961</ele>
        <time>2014-08-28T11:13:55Z</time>
      </trkpt>
      <trkpt lat="43.175182" lon="-4.964366">
        <ele>2063.622</ele>
        <time>2014-08-28T11:14:01Z</time>
      </trkpt>
      <trkpt lat="43.175137" lon="-4.964383">
        <ele>2062.115</ele>
        <time>2014-08-28T11:14:06Z</time>
      </trkpt>
      <trkpt lat="43.175093" lon="-4.964418">
        <ele>2060.914</ele>
        <time>2014-08-28T11:14:11Z</time>
      </trkpt>
      <trkpt lat="43.175087" lon="-4.964426">
        <ele>2060.881</ele>
        <time>2014-08-28T11:14:12Z</time>
      </trkpt>
      <trkpt lat="43.175007" lon="-4.964480">
        <ele>2060.157</ele>
        <time>2014-08-28T11:14:21Z</time>
      </trkpt>
      <trkpt lat="43.174958" lon="-4.964498">
        <ele>2058.378</ele>
        <time>2014-08-28T11:14:27Z</time>
      </trkpt>
      <trkpt lat="43.174917" lon="-4.964525">
        <ele>2058.533</ele>
        <time>2014-08-28T11:14:32Z</time>
      </trkpt>
      <trkpt lat="43.174873" lon="-4.964546">
        <ele>2058.426</ele>
        <time>2014-08-28T11:14:37Z</time>
      </trkpt>
      <trkpt lat="43.174837" lon="-4.964595">
        <ele>2057.107</ele>
        <time>2014-08-28T11:14:43Z</time>
      </trkpt>
      <trkpt lat="43.174807" lon="-4.964625">
        <ele>2057.045</ele>
        <time>2014-08-28T11:14:48Z</time>
      </trkpt>
      <trkpt lat="43.174772" lon="-4.964670">
        <ele>2056.967</ele>
        <time>2014-08-28T11:14:50Z</time>
      </trkpt>
      <trkpt lat="43.174733" lon="-4.964703">
        <ele>2056.438</ele>
        <time>2014-08-28T11:14:54Z</time>
      </trkpt>
      <trkpt lat="43.174697" lon="-4.964748">
        <ele>2055.941</ele>
        <time>2014-08-28T11:14:58Z</time>
      </trkpt>
      <trkpt lat="43.174662" lon="-4.964791">
        <ele>2055.490</ele>
        <time>2014-08-28T11:15:02Z</time>
      </trkpt>
      <trkpt lat="43.174613" lon="-4.964821">
        <ele>2054.047</ele>
        <time>2014-08-28T11:15:07Z</time>
      </trkpt>
      <trkpt lat="43.174562" lon="-4.964828">
        <ele>2052.793</ele>
        <time>2014-08-28T11:15:15Z</time>
      </trkpt>
      <trkpt lat="43.174558" lon="-4.964830">
        <ele>2052.794</ele>
        <time>2014-08-28T11:15:16Z</time>
      </trkpt>
      <trkpt lat="43.174463" lon="-4.964873">
        <ele>2050.957</ele>
        <time>2014-08-28T11:15:35Z</time>
      </trkpt>
      <trkpt lat="43.174413" lon="-4.964880">
        <ele>2049.622</ele>
        <time>2014-08-28T11:15:43Z</time>
      </trkpt>
      <trkpt lat="43.174362" lon="-4.964876">
        <ele>2048.407</ele>
        <time>2014-08-28T11:15:51Z</time>
      </trkpt>
      <trkpt lat="43.174317" lon="-4.964895">
        <ele>2048.277</ele>
        <time>2014-08-28T11:15:57Z</time>
      </trkpt>
      <trkpt lat="43.174272" lon="-4.964915">
        <ele>2047.089</ele>
        <time>2014-08-28T11:16:06Z</time>
      </trkpt>
      <trkpt lat="43.174230" lon="-4.964958">
        <ele>2044.470</ele>
        <time>2014-08-28T11:16:22Z</time>
      </trkpt>
      <trkpt lat="43.174227" lon="-4.964961">
        <ele>2044.283</ele>
        <time>2014-08-28T11:16:23Z</time>
      </trkpt>
      <trkpt lat="43.174168" lon="-4.965040">
        <ele>2041.712</ele>
        <time>2014-08-28T11:16:50Z</time>
      </trkpt>
      <trkpt lat="43.174168" lon="-4.965111">
        <ele>2042.749</ele>
        <time>2014-08-28T11:16:57Z</time>
      </trkpt>
      <trkpt lat="43.174128" lon="-4.965148">
        <ele>2040.815</ele>
        <time>2014-08-28T11:17:22Z</time>
      </trkpt>
      <trkpt lat="43.174068" lon="-4.965155">
        <ele>2036.311</ele>
        <time>2014-08-28T11:17:48Z</time>
      </trkpt>
      <trkpt lat="43.174062" lon="-4.965153">
        <ele>2036.321</ele>
        <time>2014-08-28T11:17:49Z</time>
      </trkpt>
      <trkpt lat="43.173972" lon="-4.965105">
        <ele>2033.803</ele>
        <time>2014-08-28T11:18:10Z</time>
      </trkpt>
      <trkpt lat="43.173933" lon="-4.965070">
        <ele>2031.607</ele>
        <time>2014-08-28T11:18:24Z</time>
      </trkpt>
      <trkpt lat="43.173887" lon="-4.965043">
        <ele>2030.449</ele>
        <time>2014-08-28T11:18:29Z</time>
      </trkpt>
      <trkpt lat="43.173837" lon="-4.965030">
        <ele>2030.391</ele>
        <time>2014-08-28T11:18:36Z</time>
      </trkpt>
      <trkpt lat="43.173785" lon="-4.965026">
        <ele>2029.052</ele>
        <time>2014-08-28T11:18:43Z</time>
      </trkpt>
      <trkpt lat="43.173737" lon="-4.965018">
        <ele>2028.595</ele>
        <time>2014-08-28T11:18:51Z</time>
      </trkpt>
      <trkpt lat="43.173728" lon="-4.965016">
        <ele>2028.594</ele>
        <time>2014-08-28T11:18:52Z</time>
      </trkpt>
      <trkpt lat="43.173635" lon="-4.965000">
        <ele>2025.671</ele>
        <time>2014-08-28T11:19:12Z</time>
      </trkpt>
      <trkpt lat="43.173618" lon="-4.965070">
        <ele>2021.027</ele>
        <time>2014-08-28T11:19:27Z</time>
      </trkpt>
      <trkpt lat="43.173615" lon="-4.965131">
        <ele>2019.466</ele>
        <time>2014-08-28T11:19:43Z</time>
      </trkpt>
      <trkpt lat="43.173597" lon="-4.965195">
        <ele>2018.529</ele>
        <time>2014-08-28T11:19:51Z</time>
      </trkpt>
      <trkpt lat="43.173519" lon="-4.965267">
        <ele>2015.021</ele>
        <time>2014-08-28T11:20:06Z</time>
      </trkpt>
      <trkpt lat="43.173515" lon="-4.965290">
        <ele>2015.807</ele>
        <time>2014-08-28T11:20:10Z</time>
      </trkpt>
      <trkpt lat="43.173413" lon="-4.965328">
        <ele>2012.084</ele>
        <time>2014-08-28T11:20:24Z</time>
      </trkpt>
      <trkpt lat="43.173365" lon="-4.965421">
        <ele>2011.056</ele>
        <time>2014-08-28T11:20:36Z</time>
      </trkpt>
      <trkpt lat="43.173417" lon="-4.965406">
        <ele>2010.157</ele>
        <time>2014-08-28T11:20:50Z</time>
      </trkpt>
      <trkpt lat="43.173442" lon="-4.965353">
        <ele>2008.440</ele>
        <time>2014-08-28T11:20:54Z</time>
      </trkpt>
      <trkpt lat="43.173478" lon="-4.965303">
        <ele>2007.129</ele>
        <time>2014-08-28T11:21:05Z</time>
      </trkpt>
      <trkpt lat="43.173518" lon="-4.965345">
        <ele>2004.626</ele>
        <time>2014-08-28T11:21:18Z</time>
      </trkpt>
      <trkpt lat="43.173522" lon="-4.965353">
        <ele>2004.212</ele>
        <time>2014-08-28T11:21:19Z</time>
      </trkpt>
      <trkpt lat="43.173589" lon="-4.965456">
        <ele>2001.478</ele>
        <time>2014-08-28T11:21:37Z</time>
      </trkpt>
      <trkpt lat="43.173634" lon="-4.965559">
        <ele>1998.033</ele>
        <time>2014-08-28T11:21:50Z</time>
      </trkpt>
      <trkpt lat="43.173653" lon="-4.965648">
        <ele>1996.026</ele>
        <time>2014-08-28T11:22:42Z</time>
      </trkpt>
      <trkpt lat="43.173660" lon="-4.965670">
        <ele>1997.507</ele>
        <time>2014-08-28T11:22:44Z</time>
      </trkpt>
      <trkpt lat="43.173682" lon="-4.965833">
        <ele>1997.035</ele>
        <time>2014-08-28T11:22:58Z</time>
      </trkpt>
      <trkpt lat="43.173712" lon="-4.965754">
        <ele>1998.087</ele>
        <time>2014-08-28T11:23:14Z</time>
      </trkpt>
      <trkpt lat="43.173667" lon="-4.965755">
        <ele>1998.728</ele>
        <time>2014-08-28T11:23:43Z</time>
      </trkpt>
      <trkpt lat="43.173613" lon="-4.965758">
        <ele>1997.881</ele>
        <time>2014-08-28T11:24:00Z</time>
      </trkpt>
      <trkpt lat="43.173610" lon="-4.965758">
        <ele>1997.790</ele>
        <time>2014-08-28T11:24:01Z</time>
      </trkpt>
      <trkpt lat="43.173525" lon="-4.965728">
        <ele>1997.717</ele>
        <time>2014-08-28T11:24:10Z</time>
      </trkpt>
      <trkpt lat="43.173474" lon="-4.965715">
        <ele>1998.123</ele>
        <time>2014-08-28T11:24:15Z</time>
      </trkpt>
      <trkpt lat="43.173473" lon="-4.965791">
        <ele>1996.024</ele>
        <time>2014-08-28T11:24:24Z</time>
      </trkpt>
      <trkpt lat="43.173528" lon="-4.965810">
        <ele>1998.004</ele>
        <time>2014-08-28T11:24:41Z</time>
      </trkpt>
      <trkpt lat="43.173549" lon="-4.965722">
        <ele>1998.014</ele>
        <time>2014-08-28T11:24:58Z</time>
      </trkpt>
      <trkpt lat="43.173617" lon="-4.965693">
        <ele>1998.007</ele>
        <time>2014-08-28T11:25:15Z</time>
      </trkpt>
      <trkpt lat="43.173628" lon="-4.965703">
        <ele>1998.330</ele>
        <time>2014-08-28T11:25:17Z</time>
      </trkpt>
      <trkpt lat="43.173735" lon="-4.965712">
        <ele>1995.022</ele>
        <time>2014-08-28T11:25:39Z</time>
      </trkpt>
      <trkpt lat="43.173683" lon="-4.965716">
        <ele>1992.333</ele>
        <time>2014-08-28T11:26:04Z</time>
      </trkpt>
      <trkpt lat="43.173603" lon="-4.965692">
        <ele>1989.026</ele>
        <time>2014-08-28T11:26:12Z</time>
      </trkpt>
      <trkpt lat="43.173545" lon="-4.965769">
        <ele>1988.025</ele>
        <time>2014-08-28T11:26:20Z</time>
      </trkpt>
      <trkpt lat="43.173537" lon="-4.965790">
        <ele>1988.682</ele>
        <time>2014-08-28T11:26:22Z</time>
      </trkpt>
      <trkpt lat="43.173424" lon="-4.965871">
        <ele>1986.058</ele>
        <time>2014-08-28T11:26:40Z</time>
      </trkpt>
      <trkpt lat="43.173455" lon="-4.965813">
        <ele>1982.362</ele>
        <time>2014-08-28T11:27:05Z</time>
      </trkpt>
      <trkpt lat="43.173509" lon="-4.965839">
        <ele>1979.083</ele>
        <time>2014-08-28T11:27:20Z</time>
      </trkpt>
      <trkpt lat="43.173525" lon="-4.965908">
        <ele>1979.411</ele>
        <time>2014-08-28T11:27:39Z</time>
      </trkpt>
      <trkpt lat="43.173527" lon="-4.965911">
        <ele>1979.307</ele>
        <time>2014-08-28T11:27:40Z</time>
      </trkpt>
      <trkpt lat="43.173430" lon="-4.965936">
        <ele>1975.194</ele>
        <time>2014-08-28T11:28:11Z</time>
      </trkpt>
      <trkpt lat="43.173380" lon="-4.965950">
        <ele>1974.996</ele>
        <time>2014-08-28T11:28:19Z</time>
      </trkpt>
      <trkpt lat="43.173332" lon="-4.965920">
        <ele>1972.537</ele>
        <time>2014-08-28T11:28:25Z</time>
      </trkpt>
      <trkpt lat="43.173295" lon="-4.965885">
        <ele>1971.970</ele>
        <time>2014-08-28T11:28:29Z</time>
      </trkpt>
      <trkpt lat="43.173213" lon="-4.965878">
        <ele>1970.019</ele>
        <time>2014-08-28T11:28:39Z</time>
      </trkpt>
      <trkpt lat="43.173168" lon="-4.965890">
        <ele>1970.176</ele>
        <time>2014-08-28T11:28:46Z</time>
      </trkpt>
      <trkpt lat="43.173158" lon="-4.965888">
        <ele>1970.152</ele>
        <time>2014-08-28T11:28:47Z</time>
      </trkpt>
      <trkpt lat="43.173073" lon="-4.965895">
        <ele>1968.572</ele>
        <time>2014-08-28T11:28:56Z</time>
      </trkpt>
      <trkpt lat="43.173028" lon="-4.965920">
        <ele>1968.913</ele>
        <time>2014-08-28T11:29:01Z</time>
      </trkpt>
      <trkpt lat="43.172980" lon="-4.965935">
        <ele>1969.314</ele>
        <time>2014-08-28T11:29:06Z</time>
      </trkpt>
      <trkpt lat="43.172935" lon="-4.965898">
        <ele>1967.507</ele>
        <time>2014-08-28T11:29:22Z</time>
      </trkpt>
      <trkpt lat="43.172965" lon="-4.965838">
        <ele>1964.655</ele>
        <time>2014-08-28T11:29:39Z</time>
      </trkpt>
      <trkpt lat="43.172977" lon="-4.965750">
        <ele>1962.587</ele>
        <time>2014-08-28T11:29:54Z</time>
      </trkpt>
      <trkpt lat="43.172972" lon="-4.965725">
        <ele>1962.878</ele>
        <time>2014-08-28T11:29:55Z</time>
      </trkpt>
      <trkpt lat="43.172968" lon="-4.965613">
        <ele>1963.811</ele>
        <time>2014-08-28T11:30:03Z</time>
      </trkpt>
      <trkpt lat="43.173025" lon="-4.965594">
        <ele>1961.080</ele>
        <time>2014-08-28T11:30:18Z</time>
      </trkpt>
      <trkpt lat="43.173052" lon="-4.965653">
        <ele>1961.857</ele>
        <time>2014-08-28T11:30:34Z</time>
      </trkpt>
      <trkpt lat="43.173017" lon="-4.965698">
        <ele>1960.953</ele>
        <time>2014-08-28T11:30:41Z</time>
      </trkpt>
      <trkpt lat="43.172975" lon="-4.965731">
        <ele>1959.931</ele>
        <time>2014-08-28T11:30:47Z</time>
      </trkpt>
      <trkpt lat="43.172932" lon="-4.965763">
        <ele>1959.161</ele>
        <time>2014-08-28T11:30:51Z</time>
      </trkpt>
      <trkpt lat="43.172879" lon="-4.965821">
        <ele>1958.007</ele>
        <time>2014-08-28T11:30:57Z</time>
      </trkpt>
      <trkpt lat="43.172873" lon="-4.965830">
        <ele>1958.307</ele>
        <time>2014-08-28T11:30:59Z</time>
      </trkpt>
      <trkpt lat="43.172801" lon="-4.965925">
        <ele>1953.021</ele>
        <time>2014-08-28T11:31:38Z</time>
      </trkpt>
      <trkpt lat="43.172762" lon="-4.965906">
        <ele>1953.073</ele>
        <time>2014-08-28T11:31:41Z</time>
      </trkpt>
      <trkpt lat="43.172696" lon="-4.965894">
        <ele>1952.034</ele>
        <time>2014-08-28T11:31:46Z</time>
      </trkpt>
      <trkpt lat="43.172645" lon="-4.965895">
        <ele>1951.977</ele>
        <time>2014-08-28T11:31:51Z</time>
      </trkpt>
      <trkpt lat="43.172603" lon="-4.965880">
        <ele>1951.636</ele>
        <time>2014-08-28T11:31:54Z</time>
      </trkpt>
      <trkpt lat="43.172567" lon="-4.965861">
        <ele>1951.773</ele>
        <time>2014-08-28T11:31:56Z</time>
      </trkpt>
      <trkpt lat="43.172518" lon="-4.965835">
        <ele>1951.089</ele>
        <time>2014-08-28T11:31:59Z</time>
      </trkpt>
      <trkpt lat="43.172478" lon="-4.965803">
        <ele>1950.794</ele>
        <time>2014-08-28T11:32:02Z</time>
      </trkpt>
      <trkpt lat="43.172468" lon="-4.965791">
        <ele>1950.757</ele>
        <time>2014-08-28T11:32:03Z</time>
      </trkpt>
      <trkpt lat="43.172398" lon="-4.965735">
        <ele>1950.922</ele>
        <time>2014-08-28T11:32:10Z</time>
      </trkpt>
      <trkpt lat="43.172357" lon="-4.965700">
        <ele>1949.907</ele>
        <time>2014-08-28T11:32:15Z</time>
      </trkpt>
      <trkpt lat="43.172327" lon="-4.965751">
        <ele>1945.057</ele>
        <time>2014-08-28T11:32:48Z</time>
      </trkpt>
      <trkpt lat="43.172352" lon="-4.965801">
        <ele>1944.429</ele>
        <time>2014-08-28T11:32:52Z</time>
      </trkpt>
      <trkpt lat="43.172397" lon="-4.965833">
        <ele>1944.290</ele>
        <time>2014-08-28T11:32:57Z</time>
      </trkpt>
      <trkpt lat="43.172435" lon="-4.965881">
        <ele>1942.533</ele>
        <time>2014-08-28T11:33:06Z</time>
      </trkpt>
      <trkpt lat="43.172437" lon="-4.965886">
        <ele>1942.982</ele>
        <time>2014-08-28T11:33:07Z</time>
      </trkpt>
      <trkpt lat="43.172445" lon="-4.966018">
        <ele>1937.989</ele>
        <time>2014-08-28T11:33:50Z</time>
      </trkpt>
      <trkpt lat="43.172417" lon="-4.965963">
        <ele>1937.185</ele>
        <time>2014-08-28T11:34:04Z</time>
      </trkpt>
      <trkpt lat="43.172375" lon="-4.965918">
        <ele>1936.195</ele>
        <time>2014-08-28T11:34:11Z</time>
      </trkpt>
      <trkpt lat="43.172368" lon="-4.965913">
        <ele>1935.649</ele>
        <time>2014-08-28T11:34:12Z</time>
      </trkpt>
      <trkpt lat="43.172275" lon="-4.965901">
        <ele>1934.023</ele>
        <time>2014-08-28T11:34:23Z</time>
      </trkpt>
      <trkpt lat="43.172230" lon="-4.965925">
        <ele>1934.807</ele>
        <time>2014-08-28T11:34:28Z</time>
      </trkpt>
      <trkpt lat="43.172178" lon="-4.965913">
        <ele>1933.957</ele>
        <time>2014-08-28T11:34:37Z</time>
      </trkpt>
      <trkpt lat="43.172127" lon="-4.965910">
        <ele>1933.019</ele>
        <time>2014-08-28T11:34:42Z</time>
      </trkpt>
      <trkpt lat="43.172077" lon="-4.965920">
        <ele>1933.110</ele>
        <time>2014-08-28T11:34:48Z</time>
      </trkpt>
      <trkpt lat="43.172037" lon="-4.965966">
        <ele>1933.693</ele>
        <time>2014-08-28T11:34:53Z</time>
      </trkpt>
      <trkpt lat="43.172008" lon="-4.966020">
        <ele>1933.162</ele>
        <time>2014-08-28T11:34:57Z</time>
      </trkpt>
      <trkpt lat="43.171973" lon="-4.966063">
        <ele>1932.569</ele>
        <time>2014-08-28T11:35:02Z</time>
      </trkpt>
      <trkpt lat="43.171920" lon="-4.966068">
        <ele>1932.395</ele>
        <time>2014-08-28T11:35:11Z</time>
      </trkpt>
      <trkpt lat="43.171867" lon="-4.966060">
        <ele>1929.125</ele>
        <time>2014-08-28T11:35:28Z</time>
      </trkpt>
      <trkpt lat="43.171865" lon="-4.966065">
        <ele>1928.826</ele>
        <time>2014-08-28T11:35:29Z</time>
      </trkpt>
      <trkpt lat="43.171792" lon="-4.966146">
        <ele>1928.208</ele>
        <time>2014-08-28T11:35:45Z</time>
      </trkpt>
      <trkpt lat="43.171765" lon="-4.966206">
        <ele>1926.807</ele>
        <time>2014-08-28T11:35:53Z</time>
      </trkpt>
      <trkpt lat="43.171738" lon="-4.966270">
        <ele>1925.610</ele>
        <time>2014-08-28T11:36:01Z</time>
      </trkpt>
      <trkpt lat="43.171690" lon="-4.966301">
        <ele>1922.512</ele>
        <time>2014-08-28T11:37:02Z</time>
      </trkpt>
      <trkpt lat="43.171690" lon="-4.966305">
        <ele>1922.343</ele>
        <time>2014-08-28T11:37:03Z</time>
      </trkpt>
      <trkpt lat="43.171598" lon="-4.966363">
        <ele>1920.246</ele>
        <time>2014-08-28T11:37:23Z</time>
      </trkpt>
      <trkpt lat="43.171562" lon="-4.966406">
        <ele>1918.475</ele>
        <time>2014-08-28T11:37:30Z</time>
      </trkpt>
      <trkpt lat="43.171538" lon="-4.966471">
        <ele>1917.892</ele>
        <time>2014-08-28T11:37:38Z</time>
      </trkpt>
      <trkpt lat="43.171499" lon="-4.966538">
        <ele>1915.028</ele>
        <time>2014-08-28T11:37:47Z</time>
      </trkpt>
      <trkpt lat="43.171450" lon="-4.966533">
        <ele>1915.288</ele>
        <time>2014-08-28T11:37:55Z</time>
      </trkpt>
      <trkpt lat="43.171400" lon="-4.966551">
        <ele>1913.624</ele>
        <time>2014-08-28T11:38:05Z</time>
      </trkpt>
      <trkpt lat="43.171397" lon="-4.966555">
        <ele>1913.526</ele>
        <time>2014-08-28T11:38:06Z</time>
      </trkpt>
      <trkpt lat="43.171313" lon="-4.966615">
        <ele>1911.307</ele>
        <time>2014-08-28T11:38:31Z</time>
      </trkpt>
      <trkpt lat="43.171262" lon="-4.966628">
        <ele>1909.976</ele>
        <time>2014-08-28T11:38:38Z</time>
      </trkpt>
      <trkpt lat="43.171213" lon="-4.966621">
        <ele>1909.528</ele>
        <time>2014-08-28T11:38:44Z</time>
      </trkpt>
      <trkpt lat="43.171165" lon="-4.966646">
        <ele>1907.369</ele>
        <time>2014-08-28T11:38:51Z</time>
      </trkpt>
      <trkpt lat="43.171133" lon="-4.966705">
        <ele>1905.842</ele>
        <time>2014-08-28T11:39:04Z</time>
      </trkpt>
      <trkpt lat="43.171085" lon="-4.966706">
        <ele>1905.681</ele>
        <time>2014-08-28T11:39:11Z</time>
      </trkpt>
      <trkpt lat="43.171078" lon="-4.966708">
        <ele>1905.228</ele>
        <time>2014-08-28T11:39:12Z</time>
      </trkpt>
      <trkpt lat="43.171013" lon="-4.966788">
        <ele>1902.454</ele>
        <time>2014-08-28T11:39:33Z</time>
      </trkpt>
      <trkpt lat="43.170970" lon="-4.966815">
        <ele>1901.423</ele>
        <time>2014-08-28T11:39:38Z</time>
      </trkpt>
      <trkpt lat="43.170920" lon="-4.966841">
        <ele>1900.583</ele>
        <time>2014-08-28T11:39:45Z</time>
      </trkpt>
      <trkpt lat="43.170870" lon="-4.966855">
        <ele>1900.411</ele>
        <time>2014-08-28T11:39:52Z</time>
      </trkpt>
      <trkpt lat="43.170835" lon="-4.966906">
        <ele>1900.307</ele>
        <time>2014-08-28T11:39:59Z</time>
      </trkpt>
      <trkpt lat="43.170785" lon="-4.966926">
        <ele>1899.180</ele>
        <time>2014-08-28T11:40:07Z</time>
      </trkpt>
      <trkpt lat="43.170753" lon="-4.966875">
        <ele>1898.292</ele>
        <time>2014-08-28T11:40:19Z</time>
      </trkpt>
      <trkpt lat="43.170748" lon="-4.966865">
        <ele>1898.123</ele>
        <time>2014-08-28T11:40:20Z</time>
      </trkpt>
      <trkpt lat="43.170687" lon="-4.966830">
        <ele>1897.836</ele>
        <time>2014-08-28T11:40:56Z</time>
      </trkpt>
      <trkpt lat="43.170637" lon="-4.966826">
        <ele>1895.295</ele>
        <time>2014-08-28T11:41:14Z</time>
      </trkpt>
      <trkpt lat="43.170608" lon="-4.966776">
        <ele>1895.392</ele>
        <time>2014-08-28T11:41:17Z</time>
      </trkpt>
      <trkpt lat="43.170580" lon="-4.966833">
        <ele>1892.618</ele>
        <time>2014-08-28T11:41:41Z</time>
      </trkpt>
      <trkpt lat="43.170577" lon="-4.966843">
        <ele>1892.526</ele>
        <time>2014-08-28T11:41:42Z</time>
      </trkpt>
      <trkpt lat="43.170550" lon="-4.966829">
        <ele>1886.047</ele>
        <time>2014-08-28T11:42:36Z</time>
      </trkpt>
      <trkpt lat="43.170482" lon="-4.966813">
        <ele>1879.011</ele>
        <time>2014-08-28T11:43:16Z</time>
      </trkpt>
      <trkpt lat="43.170477" lon="-4.966805">
        <ele>1879.407</ele>
        <time>2014-08-28T11:43:18Z</time>
      </trkpt>
      <trkpt lat="43.170432" lon="-4.966693">
        <ele>1878.250</ele>
        <time>2014-08-28T11:43:37Z</time>
      </trkpt>
      <trkpt lat="43.170392" lon="-4.966738">
        <ele>1876.952</ele>
        <time>2014-08-28T11:43:53Z</time>
      </trkpt>
      <trkpt lat="43.170368" lon="-4.966796">
        <ele>1876.793</ele>
        <time>2014-08-28T11:43:58Z</time>
      </trkpt>
      <trkpt lat="43.170340" lon="-4.966855">
        <ele>1875.226</ele>
        <time>2014-08-28T11:44:11Z</time>
      </trkpt>
      <trkpt lat="43.170293" lon="-4.966840">
        <ele>1873.375</ele>
        <time>2014-08-28T11:44:24Z</time>
      </trkpt>
      <trkpt lat="43.170285" lon="-4.966846">
        <ele>1873.522</ele>
        <time>2014-08-28T11:44:25Z</time>
      </trkpt>
      <trkpt lat="43.170195" lon="-4.966883">
        <ele>1874.988</ele>
        <time>2014-08-28T11:44:40Z</time>
      </trkpt>
      <trkpt lat="43.170150" lon="-4.966920">
        <ele>1875.978</ele>
        <time>2014-08-28T11:44:45Z</time>
      </trkpt>
      <trkpt lat="43.170122" lon="-4.966955">
        <ele>1875.033</ele>
        <time>2014-08-28T11:44:48Z</time>
      </trkpt>
      <trkpt lat="43.170087" lon="-4.966998">
        <ele>1875.926</ele>
        <time>2014-08-28T11:44:51Z</time>
      </trkpt>
      <trkpt lat="43.170025" lon="-4.967035">
        <ele>1876.007</ele>
        <time>2014-08-28T11:44:58Z</time>
      </trkpt>
      <trkpt lat="43.169970" lon="-4.967013">
        <ele>1876.055</ele>
        <time>2014-08-28T11:45:06Z</time>
      </trkpt>
      <trkpt lat="43.169910" lon="-4.966971">
        <ele>1877.067</ele>
        <time>2014-08-28T11:45:18Z</time>
      </trkpt>
      <trkpt lat="43.169853" lon="-4.966927">
        <ele>1877.098</ele>
        <time>2014-08-28T11:45:30Z</time>
      </trkpt>
      <trkpt lat="43.169847" lon="-4.966920">
        <ele>1878.641</ele>
        <time>2014-08-28T11:45:32Z</time>
      </trkpt>
      <trkpt lat="43.169765" lon="-4.966963">
        <ele>1879.220</ele>
        <time>2014-08-28T11:45:43Z</time>
      </trkpt>
      <trkpt lat="43.169732" lon="-4.967015">
        <ele>1880.537</ele>
        <time>2014-08-28T11:45:47Z</time>
      </trkpt>
      <trkpt lat="43.169707" lon="-4.967063">
        <ele>1881.183</ele>
        <time>2014-08-28T11:45:50Z</time>
      </trkpt>
      <trkpt lat="43.169672" lon="-4.967113">
        <ele>1880.375</ele>
        <time>2014-08-28T11:45:56Z</time>
      </trkpt>
      <trkpt lat="43.169647" lon="-4.967178">
        <ele>1881.628</ele>
        <time>2014-08-28T11:46:03Z</time>
      </trkpt>
      <trkpt lat="43.169630" lon="-4.967233">
        <ele>1880.920</ele>
        <time>2014-08-28T11:46:06Z</time>
      </trkpt>
      <trkpt lat="43.169600" lon="-4.967291">
        <ele>1881.107</ele>
        <time>2014-08-28T11:46:11Z</time>
      </trkpt>
      <trkpt lat="43.169555" lon="-4.967276">
        <ele>1880.365</ele>
        <time>2014-08-28T11:46:18Z</time>
      </trkpt>
      <trkpt lat="43.169508" lon="-4.967246">
        <ele>1880.917</ele>
        <time>2014-08-28T11:46:25Z</time>
      </trkpt>
      <trkpt lat="43.169460" lon="-4.967250">
        <ele>1881.098</ele>
        <time>2014-08-28T11:46:34Z</time>
      </trkpt>
      <trkpt lat="43.169452" lon="-4.967253">
        <ele>1880.651</ele>
        <time>2014-08-28T11:46:35Z</time>
      </trkpt>
      <trkpt lat="43.169360" lon="-4.967238">
        <ele>1883.160</ele>
        <time>2014-08-28T11:46:54Z</time>
      </trkpt>
      <trkpt lat="43.169317" lon="-4.967270">
        <ele>1882.137</ele>
        <time>2014-08-28T11:47:01Z</time>
      </trkpt>
      <trkpt lat="43.169278" lon="-4.967310">
        <ele>1883.433</ele>
        <time>2014-08-28T11:47:07Z</time>
      </trkpt>
      <trkpt lat="43.169245" lon="-4.967356">
        <ele>1883.335</ele>
        <time>2014-08-28T11:47:12Z</time>
      </trkpt>
      <trkpt lat="43.169212" lon="-4.967411">
        <ele>1885.486</ele>
        <time>2014-08-28T11:47:18Z</time>
      </trkpt>
      <trkpt lat="43.169180" lon="-4.967463">
        <ele>1884.314</ele>
        <time>2014-08-28T11:47:24Z</time>
      </trkpt>
      <trkpt lat="43.169157" lon="-4.967526">
        <ele>1885.207</ele>
        <time>2014-08-28T11:47:31Z</time>
      </trkpt>
      <trkpt lat="43.169110" lon="-4.967563">
        <ele>1886.111</ele>
        <time>2014-08-28T11:47:55Z</time>
      </trkpt>
      <trkpt lat="43.169108" lon="-4.967570">
        <ele>1886.153</ele>
        <time>2014-08-28T11:47:56Z</time>
      </trkpt>
      <trkpt lat="43.169048" lon="-4.967588">
        <ele>1885.654</ele>
        <time>2014-08-28T11:48:33Z</time>
      </trkpt>
      <trkpt lat="43.169003" lon="-4.967555">
        <ele>1884.087</ele>
        <time>2014-08-28T11:48:40Z</time>
      </trkpt>
      <trkpt lat="43.168960" lon="-4.967511">
        <ele>1883.576</ele>
        <time>2014-08-28T11:48:48Z</time>
      </trkpt>
      <trkpt lat="43.168908" lon="-4.967495">
        <ele>1883.673</ele>
        <time>2014-08-28T11:48:59Z</time>
      </trkpt>
      <trkpt lat="43.168902" lon="-4.967491">
        <ele>1883.559</ele>
        <time>2014-08-28T11:49:00Z</time>
      </trkpt>
      <trkpt lat="43.168808" lon="-4.967483">
        <ele>1879.258</ele>
        <time>2014-08-28T11:49:39Z</time>
      </trkpt>
      <trkpt lat="43.168825" lon="-4.967550">
        <ele>1878.352</ele>
        <time>2014-08-28T11:49:48Z</time>
      </trkpt>
      <trkpt lat="43.168844" lon="-4.967618">
        <ele>1876.317</ele>
        <time>2014-08-28T11:50:01Z</time>
      </trkpt>
      <trkpt lat="43.168844" lon="-4.967623">
        <ele>1876.407</ele>
        <time>2014-08-28T11:50:02Z</time>
      </trkpt>
      <trkpt lat="43.168862" lon="-4.967753">
        <ele>1873.143</ele>
        <time>2014-08-28T11:50:17Z</time>
      </trkpt>
      <trkpt lat="43.168865" lon="-4.967825">
        <ele>1869.755</ele>
        <time>2014-08-28T11:51:00Z</time>
      </trkpt>
      <trkpt lat="43.168880" lon="-4.967890">
        <ele>1868.826</ele>
        <time>2014-08-28T11:51:13Z</time>
      </trkpt>
      <trkpt lat="43.168880" lon="-4.967896">
        <ele>1868.369</ele>
        <time>2014-08-28T11:51:14Z</time>
      </trkpt>
      <trkpt lat="43.168922" lon="-4.968016">
        <ele>1864.898</ele>
        <time>2014-08-28T11:51:37Z</time>
      </trkpt>
      <trkpt lat="43.168947" lon="-4.968081">
        <ele>1862.835</ele>
        <time>2014-08-28T11:51:47Z</time>
      </trkpt>
      <trkpt lat="43.168980" lon="-4.968133">
        <ele>1860.771</ele>
        <time>2014-08-28T11:52:00Z</time>
      </trkpt>
      <trkpt lat="43.169023" lon="-4.968166">
        <ele>1859.262</ele>
        <time>2014-08-28T11:52:09Z</time>
      </trkpt>
      <trkpt lat="43.169070" lon="-4.968200">
        <ele>1856.683</ele>
        <time>2014-08-28T11:52:23Z</time>
      </trkpt>
      <trkpt lat="43.169074" lon="-4.968198">
        <ele>1856.211</ele>
        <time>2014-08-28T11:52:24Z</time>
      </trkpt>
      <trkpt lat="43.169028" lon="-4.968308">
        <ele>1852.107</ele>
        <time>2014-08-28T11:52:49Z</time>
      </trkpt>
      <trkpt lat="43.168993" lon="-4.968360">
        <ele>1851.474</ele>
        <time>2014-08-28T11:52:56Z</time>
      </trkpt>
      <trkpt lat="43.168948" lon="-4.968386">
        <ele>1850.766</ele>
        <time>2014-08-28T11:53:03Z</time>
      </trkpt>
      <trkpt lat="43.168905" lon="-4.968428">
        <ele>1849.377</ele>
        <time>2014-08-28T11:53:10Z</time>
      </trkpt>
      <trkpt lat="43.168858" lon="-4.968463">
        <ele>1847.870</ele>
        <time>2014-08-28T11:53:20Z</time>
      </trkpt>
      <trkpt lat="43.168812" lon="-4.968485">
        <ele>1846.169</ele>
        <time>2014-08-28T11:53:28Z</time>
      </trkpt>
      <trkpt lat="43.168807" lon="-4.968485">
        <ele>1846.396</ele>
        <time>2014-08-28T11:53:29Z</time>
      </trkpt>
      <trkpt lat="43.168712" lon="-4.968483">
        <ele>1842.392</ele>
        <time>2014-08-28T11:53:48Z</time>
      </trkpt>
      <trkpt lat="43.168673" lon="-4.968528">
        <ele>1840.755</ele>
        <time>2014-08-28T11:54:03Z</time>
      </trkpt>
      <trkpt lat="43.168623" lon="-4.968515">
        <ele>1840.407</ele>
        <time>2014-08-28T11:54:11Z</time>
      </trkpt>
      <trkpt lat="43.168573" lon="-4.968503">
        <ele>1837.917</ele>
        <time>2014-08-28T11:54:20Z</time>
      </trkpt>
      <trkpt lat="43.168525" lon="-4.968533">
        <ele>1836.107</ele>
        <time>2014-08-28T11:54:30Z</time>
      </trkpt>
      <trkpt lat="43.168520" lon="-4.968535">
        <ele>1835.483</ele>
        <time>2014-08-28T11:54:31Z</time>
      </trkpt>
      <trkpt lat="43.168433" lon="-4.968590">
        <ele>1832.535</ele>
        <time>2014-08-28T11:55:13Z</time>
      </trkpt>
      <trkpt lat="43.168387" lon="-4.968595">
        <ele>1831.276</ele>
        <time>2014-08-28T11:55:20Z</time>
      </trkpt>
      <trkpt lat="43.168342" lon="-4.968623">
        <ele>1829.049</ele>
        <time>2014-08-28T11:55:28Z</time>
      </trkpt>
      <trkpt lat="43.168300" lon="-4.968655">
        <ele>1827.258</ele>
        <time>2014-08-28T11:55:35Z</time>
      </trkpt>
      <trkpt lat="43.168295" lon="-4.968661">
        <ele>1827.125</ele>
        <time>2014-08-28T11:55:36Z</time>
      </trkpt>
      <trkpt lat="43.168250" lon="-4.968775">
        <ele>1822.951</ele>
        <time>2014-08-28T11:56:01Z</time>
      </trkpt>
      <trkpt lat="43.168223" lon="-4.968838">
        <ele>1821.435</ele>
        <time>2014-08-28T11:56:13Z</time>
      </trkpt>
      <trkpt lat="43.168178" lon="-4.968866">
        <ele>1818.986</ele>
        <time>2014-08-28T11:56:21Z</time>
      </trkpt>
      <trkpt lat="43.168140" lon="-4.968910">
        <ele>1817.614</ele>
        <time>2014-08-28T11:56:30Z</time>
      </trkpt>
      <trkpt lat="43.168073" lon="-4.968934">
        <ele>1814.007</ele>
        <time>2014-08-28T11:56:40Z</time>
      </trkpt>
      <trkpt lat="43.168065" lon="-4.968933">
        <ele>1814.941</ele>
        <time>2014-08-28T11:56:42Z</time>
      </trkpt>
      <trkpt lat="43.167977" lon="-4.968983">
        <ele>1812.373</ele>
        <time>2014-08-28T11:56:55Z</time>
      </trkpt>
      <trkpt lat="43.167940" lon="-4.969025">
        <ele>1811.684</ele>
        <time>2014-08-28T11:57:04Z</time>
      </trkpt>
      <trkpt lat="43.167890" lon="-4.969041">
        <ele>1809.867</ele>
        <time>2014-08-28T11:57:14Z</time>
      </trkpt>
      <trkpt lat="43.167838" lon="-4.969031">
        <ele>1809.456</ele>
        <time>2014-08-28T11:57:21Z</time>
      </trkpt>
      <trkpt lat="43.167798" lon="-4.969080">
        <ele>1806.973</ele>
        <time>2014-08-28T11:57:42Z</time>
      </trkpt>
      <trkpt lat="43.167768" lon="-4.969131">
        <ele>1803.369</ele>
        <time>2014-08-28T11:57:58Z</time>
      </trkpt>
      <trkpt lat="43.167763" lon="-4.969138">
        <ele>1803.038</ele>
        <time>2014-08-28T11:57:59Z</time>
      </trkpt>
      <trkpt lat="43.167692" lon="-4.969220">
        <ele>1801.370</ele>
        <time>2014-08-28T11:58:10Z</time>
      </trkpt>
      <trkpt lat="43.167653" lon="-4.969258">
        <ele>1800.517</ele>
        <time>2014-08-28T11:58:16Z</time>
      </trkpt>
      <trkpt lat="43.167615" lon="-4.969298">
        <ele>1799.507</ele>
        <time>2014-08-28T11:58:21Z</time>
      </trkpt>
      <trkpt lat="43.167575" lon="-4.969335">
        <ele>1798.871</ele>
        <time>2014-08-28T11:58:26Z</time>
      </trkpt>
      <trkpt lat="43.167543" lon="-4.969381">
        <ele>1798.013</ele>
        <time>2014-08-28T11:58:31Z</time>
      </trkpt>
      <trkpt lat="43.167505" lon="-4.969426">
        <ele>1796.924</ele>
        <time>2014-08-28T11:58:36Z</time>
      </trkpt>
      <trkpt lat="43.167465" lon="-4.969475">
        <ele>1797.097</ele>
        <time>2014-08-28T11:58:42Z</time>
      </trkpt>
      <trkpt lat="43.167440" lon="-4.969536">
        <ele>1795.996</ele>
        <time>2014-08-28T11:58:54Z</time>
      </trkpt>
      <trkpt lat="43.167435" lon="-4.969603">
        <ele>1795.473</ele>
        <time>2014-08-28T11:58:59Z</time>
      </trkpt>
      <trkpt lat="43.167445" lon="-4.969663">
        <ele>1795.199</ele>
        <time>2014-08-28T11:59:04Z</time>
      </trkpt>
      <trkpt lat="43.167448" lon="-4.969676">
        <ele>1795.212</ele>
        <time>2014-08-28T11:59:05Z</time>
      </trkpt>
      <trkpt lat="43.167400" lon="-4.969753">
        <ele>1793.132</ele>
        <time>2014-08-28T11:59:18Z</time>
      </trkpt>
      <trkpt lat="43.167350" lon="-4.969775">
        <ele>1790.805</ele>
        <time>2014-08-28T11:59:25Z</time>
      </trkpt>
      <trkpt lat="43.167365" lon="-4.969843">
        <ele>1790.707</ele>
        <time>2014-08-28T11:59:35Z</time>
      </trkpt>
      <trkpt lat="43.167348" lon="-4.969913">
        <ele>1790.639</ele>
        <time>2014-08-28T11:59:40Z</time>
      </trkpt>
      <trkpt lat="43.167328" lon="-4.969976">
        <ele>1790.331</ele>
        <time>2014-08-28T11:59:45Z</time>
      </trkpt>
      <trkpt lat="43.167322" lon="-4.970041">
        <ele>1789.872</ele>
        <time>2014-08-28T11:59:50Z</time>
      </trkpt>
      <trkpt lat="43.167319" lon="-4.970111">
        <ele>1788.175</ele>
        <time>2014-08-28T11:59:56Z</time>
      </trkpt>
      <trkpt lat="43.167310" lon="-4.970175">
        <ele>1788.244</ele>
        <time>2014-08-28T12:00:01Z</time>
      </trkpt>
      <trkpt lat="43.167298" lon="-4.970241">
        <ele>1786.471</ele>
        <time>2014-08-28T12:00:06Z</time>
      </trkpt>
      <trkpt lat="43.167297" lon="-4.970255">
        <ele>1786.297</ele>
        <time>2014-08-28T12:00:07Z</time>
      </trkpt>
      <trkpt lat="43.167323" lon="-4.970368">
        <ele>1782.416</ele>
        <time>2014-08-28T12:00:34Z</time>
      </trkpt>
      <trkpt lat="43.167313" lon="-4.970436">
        <ele>1780.176</ele>
        <time>2014-08-28T12:00:43Z</time>
      </trkpt>
      <trkpt lat="43.167315" lon="-4.970500">
        <ele>1778.613</ele>
        <time>2014-08-28T12:00:50Z</time>
      </trkpt>
      <trkpt lat="43.167312" lon="-4.970570">
        <ele>1777.907</ele>
        <time>2014-08-28T12:00:56Z</time>
      </trkpt>
      <trkpt lat="43.167303" lon="-4.970636">
        <ele>1776.969</ele>
        <time>2014-08-28T12:01:02Z</time>
      </trkpt>
      <trkpt lat="43.167298" lon="-4.970705">
        <ele>1776.271</ele>
        <time>2014-08-28T12:01:09Z</time>
      </trkpt>
      <trkpt lat="43.167298" lon="-4.970715">
        <ele>1776.192</ele>
        <time>2014-08-28T12:01:10Z</time>
      </trkpt>
      <trkpt lat="43.167262" lon="-4.970836">
        <ele>1775.345</ele>
        <time>2014-08-28T12:01:22Z</time>
      </trkpt>
      <trkpt lat="43.167252" lon="-4.970908">
        <ele>1773.584</ele>
        <time>2014-08-28T12:01:28Z</time>
      </trkpt>
      <trkpt lat="43.167237" lon="-4.970976">
        <ele>1773.311</ele>
        <time>2014-08-28T12:01:39Z</time>
      </trkpt>
      <trkpt lat="43.167230" lon="-4.971035">
        <ele>1773.077</ele>
        <time>2014-08-28T12:01:44Z</time>
      </trkpt>
      <trkpt lat="43.167227" lon="-4.971108">
        <ele>1772.598</ele>
        <time>2014-08-28T12:01:50Z</time>
      </trkpt>
      <trkpt lat="43.167227" lon="-4.971175">
        <ele>1770.615</ele>
        <time>2014-08-28T12:01:56Z</time>
      </trkpt>
      <trkpt lat="43.167213" lon="-4.971236">
        <ele>1770.826</ele>
        <time>2014-08-28T12:02:02Z</time>
      </trkpt>
      <trkpt lat="43.167205" lon="-4.971308">
        <ele>1770.507</ele>
        <time>2014-08-28T12:02:09Z</time>
      </trkpt>
      <trkpt lat="43.167217" lon="-4.971376">
        <ele>1768.897</ele>
        <time>2014-08-28T12:02:16Z</time>
      </trkpt>
      <trkpt lat="43.167215" lon="-4.971390">
        <ele>1768.759</ele>
        <time>2014-08-28T12:02:17Z</time>
      </trkpt>
      <trkpt lat="43.167222" lon="-4.971505">
        <ele>1768.390</ele>
        <time>2014-08-28T12:02:27Z</time>
      </trkpt>
      <trkpt lat="43.167222" lon="-4.971568">
        <ele>1768.743</ele>
        <time>2014-08-28T12:02:32Z</time>
      </trkpt>
      <trkpt lat="43.167225" lon="-4.971631">
        <ele>1769.282</ele>
        <time>2014-08-28T12:02:37Z</time>
      </trkpt>
      <trkpt lat="43.167227" lon="-4.971705">
        <ele>1768.799</ele>
        <time>2014-08-28T12:02:43Z</time>
      </trkpt>
      <trkpt lat="43.167213" lon="-4.971768">
        <ele>1769.035</ele>
        <time>2014-08-28T12:02:49Z</time>
      </trkpt>
      <trkpt lat="43.167213" lon="-4.971831">
        <ele>1769.817</ele>
        <time>2014-08-28T12:02:54Z</time>
      </trkpt>
      <trkpt lat="43.167202" lon="-4.971900">
        <ele>1770.887</ele>
        <time>2014-08-28T12:03:01Z</time>
      </trkpt>
      <trkpt lat="43.167188" lon="-4.971963">
        <ele>1770.415</ele>
        <time>2014-08-28T12:03:05Z</time>
      </trkpt>
      <trkpt lat="43.167173" lon="-4.972028">
        <ele>1770.607</ele>
        <time>2014-08-28T12:03:09Z</time>
      </trkpt>
      <trkpt lat="43.167165" lon="-4.972090">
        <ele>1770.539</ele>
        <time>2014-08-28T12:03:13Z</time>
      </trkpt>
      <trkpt lat="43.167153" lon="-4.972158">
        <ele>1771.191</ele>
        <time>2014-08-28T12:03:18Z</time>
      </trkpt>
      <trkpt lat="43.167153" lon="-4.972168">
        <ele>1771.072</ele>
        <time>2014-08-28T12:03:19Z</time>
      </trkpt>
      <trkpt lat="43.167148" lon="-4.972298">
        <ele>1769.875</ele>
        <time>2014-08-28T12:03:33Z</time>
      </trkpt>
      <trkpt lat="43.167156" lon="-4.972381">
        <ele>1771.034</ele>
        <time>2014-08-28T12:03:40Z</time>
      </trkpt>
      <trkpt lat="43.167158" lon="-4.972446">
        <ele>1770.761</ele>
        <time>2014-08-28T12:03:46Z</time>
      </trkpt>
      <trkpt lat="43.167167" lon="-4.972516">
        <ele>1771.337</ele>
        <time>2014-08-28T12:03:52Z</time>
      </trkpt>
      <trkpt lat="43.167170" lon="-4.972586">
        <ele>1770.629</ele>
        <time>2014-08-28T12:03:57Z</time>
      </trkpt>
      <trkpt lat="43.167153" lon="-4.972656">
        <ele>1771.100</ele>
        <time>2014-08-28T12:04:04Z</time>
      </trkpt>
      <trkpt lat="43.167147" lon="-4.972726">
        <ele>1771.620</ele>
        <time>2014-08-28T12:04:11Z</time>
      </trkpt>
      <trkpt lat="43.167123" lon="-4.972791">
        <ele>1773.107</ele>
        <time>2014-08-28T12:04:26Z</time>
      </trkpt>
      <trkpt lat="43.167123" lon="-4.972801">
        <ele>1772.950</ele>
        <time>2014-08-28T12:04:27Z</time>
      </trkpt>
      <trkpt lat="43.167110" lon="-4.972928">
        <ele>1770.282</ele>
        <time>2014-08-28T12:04:42Z</time>
      </trkpt>
      <trkpt lat="43.167095" lon="-4.972993">
        <ele>1769.673</ele>
        <time>2014-08-28T12:04:48Z</time>
      </trkpt>
      <trkpt lat="43.167072" lon="-4.973051">
        <ele>1769.596</ele>
        <time>2014-08-28T12:04:56Z</time>
      </trkpt>
      <trkpt lat="43.167058" lon="-4.973113">
        <ele>1768.455</ele>
        <time>2014-08-28T12:05:03Z</time>
      </trkpt>
      <trkpt lat="43.167078" lon="-4.973175">
        <ele>1767.422</ele>
        <time>2014-08-28T12:05:10Z</time>
      </trkpt>
      <trkpt lat="43.167120" lon="-4.973218">
        <ele>1763.418</ele>
        <time>2014-08-28T12:05:31Z</time>
      </trkpt>
      <trkpt lat="43.167120" lon="-4.973225">
        <ele>1763.249</ele>
        <time>2014-08-28T12:05:32Z</time>
      </trkpt>
      <trkpt lat="43.167167" lon="-4.973341">
        <ele>1759.102</ele>
        <time>2014-08-28T12:06:00Z</time>
      </trkpt>
      <trkpt lat="43.167177" lon="-4.973413">
        <ele>1757.722</ele>
        <time>2014-08-28T12:06:12Z</time>
      </trkpt>
      <trkpt lat="43.167187" lon="-4.973480">
        <ele>1754.707</ele>
        <time>2014-08-28T12:06:23Z</time>
      </trkpt>
      <trkpt lat="43.167202" lon="-4.973550">
        <ele>1753.032</ele>
        <time>2014-08-28T12:06:36Z</time>
      </trkpt>
      <trkpt lat="43.167205" lon="-4.973555">
        <ele>1753.154</ele>
        <time>2014-08-28T12:06:37Z</time>
      </trkpt>
      <trkpt lat="43.167228" lon="-4.973690">
        <ele>1749.265</ele>
        <time>2014-08-28T12:06:58Z</time>
      </trkpt>
      <trkpt lat="43.167237" lon="-4.973756">
        <ele>1748.168</ele>
        <time>2014-08-28T12:07:09Z</time>
      </trkpt>
      <trkpt lat="43.167273" lon="-4.973810">
        <ele>1746.767</ele>
        <time>2014-08-28T12:07:20Z</time>
      </trkpt>
      <trkpt lat="43.167297" lon="-4.973871">
        <ele>1745.574</ele>
        <time>2014-08-28T12:07:29Z</time>
      </trkpt>
      <trkpt lat="43.167310" lon="-4.973941">
        <ele>1743.690</ele>
        <time>2014-08-28T12:07:39Z</time>
      </trkpt>
      <trkpt lat="43.167308" lon="-4.973946">
        <ele>1743.646</ele>
        <time>2014-08-28T12:07:40Z</time>
      </trkpt>
      <trkpt lat="43.167363" lon="-4.974063">
        <ele>1739.688</ele>
        <time>2014-08-28T12:08:09Z</time>
      </trkpt>
      <trkpt lat="43.167358" lon="-4.974133">
        <ele>1736.716</ele>
        <time>2014-08-28T12:08:30Z</time>
      </trkpt>
      <trkpt lat="43.167402" lon="-4.974165">
        <ele>1734.807</ele>
        <time>2014-08-28T12:08:50Z</time>
      </trkpt>
      <trkpt lat="43.167408" lon="-4.974165">
        <ele>1734.792</ele>
        <time>2014-08-28T12:08:51Z</time>
      </trkpt>
      <trkpt lat="43.167485" lon="-4.974241">
        <ele>1731.614</ele>
        <time>2014-08-28T12:09:12Z</time>
      </trkpt>
      <trkpt lat="43.167532" lon="-4.974275">
        <ele>1731.145</ele>
        <time>2014-08-28T12:09:19Z</time>
      </trkpt>
      <trkpt lat="43.167582" lon="-4.974273">
        <ele>1730.648</ele>
        <time>2014-08-28T12:09:27Z</time>
      </trkpt>
      <trkpt lat="43.167630" lon="-4.974285">
        <ele>1730.717</ele>
        <time>2014-08-28T12:09:34Z</time>
      </trkpt>
      <trkpt lat="43.167683" lon="-4.974275">
        <ele>1731.264</ele>
        <time>2014-08-28T12:09:49Z</time>
      </trkpt>
      <trkpt lat="43.167698" lon="-4.974343">
        <ele>1730.470</ele>
        <time>2014-08-28T12:10:03Z</time>
      </trkpt>
      <trkpt lat="43.167697" lon="-4.974351">
        <ele>1730.179</ele>
        <time>2014-08-28T12:10:04Z</time>
      </trkpt>
      <trkpt lat="43.167753" lon="-4.974455">
        <ele>1727.605</ele>
        <time>2014-08-28T12:10:23Z</time>
      </trkpt>
      <trkpt lat="43.167777" lon="-4.974520">
        <ele>1727.225</ele>
        <time>2014-08-28T12:10:32Z</time>
      </trkpt>
      <trkpt lat="43.167795" lon="-4.974573">
        <ele>1726.107</ele>
        <time>2014-08-28T12:10:37Z</time>
      </trkpt>
      <trkpt lat="43.167825" lon="-4.974621">
        <ele>1724.335</ele>
        <time>2014-08-28T12:10:43Z</time>
      </trkpt>
      <trkpt lat="43.167862" lon="-4.974707">
        <ele>1724.097</ele>
        <time>2014-08-28T12:10:52Z</time>
      </trkpt>
      <trkpt lat="43.167863" lon="-4.974778">
        <ele>1725.028</ele>
        <time>2014-08-28T12:11:06Z</time>
      </trkpt>
      <trkpt lat="43.167870" lon="-4.974785">
        <ele>1725.111</ele>
        <time>2014-08-28T12:11:07Z</time>
      </trkpt>
      <trkpt lat="43.167943" lon="-4.974865">
        <ele>1722.010</ele>
        <time>2014-08-28T12:11:27Z</time>
      </trkpt>
      <trkpt lat="43.167922" lon="-4.974935">
        <ele>1721.837</ele>
        <time>2014-08-28T12:11:39Z</time>
      </trkpt>
      <trkpt lat="43.167945" lon="-4.975011">
        <ele>1721.383</ele>
        <time>2014-08-28T12:12:20Z</time>
      </trkpt>
      <trkpt lat="43.167947" lon="-4.975021">
        <ele>1721.192</ele>
        <time>2014-08-28T12:12:21Z</time>
      </trkpt>
      <trkpt lat="43.167955" lon="-4.975173">
        <ele>1716.073</ele>
        <time>2014-08-28T12:12:46Z</time>
      </trkpt>
      <trkpt lat="43.167940" lon="-4.975236">
        <ele>1714.820</ele>
        <time>2014-08-28T12:12:53Z</time>
      </trkpt>
      <trkpt lat="43.167938" lon="-4.975310">
        <ele>1712.607</ele>
        <time>2014-08-28T12:13:02Z</time>
      </trkpt>
      <trkpt lat="43.167930" lon="-4.975393">
        <ele>1710.057</ele>
        <time>2014-08-28T12:13:16Z</time>
      </trkpt>
      <trkpt lat="43.167935" lon="-4.975463">
        <ele>1708.739</ele>
        <time>2014-08-28T12:13:24Z</time>
      </trkpt>
      <trkpt lat="43.167933" lon="-4.975471">
        <ele>1708.060</ele>
        <time>2014-08-28T12:13:25Z</time>
      </trkpt>
      <trkpt lat="43.167930" lon="-4.975606">
        <ele>1704.323</ele>
        <time>2014-08-28T12:13:45Z</time>
      </trkpt>
      <trkpt lat="43.167923" lon="-4.975673">
        <ele>1703.422</ele>
        <time>2014-08-28T12:13:52Z</time>
      </trkpt>
      <trkpt lat="43.167905" lon="-4.975736">
        <ele>1701.139</ele>
        <time>2014-08-28T12:13:58Z</time>
      </trkpt>
      <trkpt lat="43.167892" lon="-4.975805">
        <ele>1700.235</ele>
        <time>2014-08-28T12:14:04Z</time>
      </trkpt>
      <trkpt lat="43.167898" lon="-4.975870">
        <ele>1698.548</ele>
        <time>2014-08-28T12:14:11Z</time>
      </trkpt>
      <trkpt lat="43.167892" lon="-4.975940">
        <ele>1696.361</ele>
        <time>2014-08-28T12:14:23Z</time>
      </trkpt>
      <trkpt lat="43.167857" lon="-4.975993">
        <ele>1695.917</ele>
        <time>2014-08-28T12:14:29Z</time>
      </trkpt>
      <trkpt lat="43.167855" lon="-4.976003">
        <ele>1696.107</ele>
        <time>2014-08-28T12:14:30Z</time>
      </trkpt>
      <trkpt lat="43.167828" lon="-4.976120">
        <ele>1694.362</ele>
        <time>2014-08-28T12:14:45Z</time>
      </trkpt>
      <trkpt lat="43.167792" lon="-4.976165">
        <ele>1693.024</ele>
        <time>2014-08-28T12:14:57Z</time>
      </trkpt>
      <trkpt lat="43.167755" lon="-4.976215">
        <ele>1690.995</ele>
        <time>2014-08-28T12:15:08Z</time>
      </trkpt>
      <trkpt lat="43.167730" lon="-4.976275">
        <ele>1689.868</ele>
        <time>2014-08-28T12:15:18Z</time>
      </trkpt>
      <trkpt lat="43.167717" lon="-4.976341">
        <ele>1687.147</ele>
        <time>2014-08-28T12:15:26Z</time>
      </trkpt>
      <trkpt lat="43.167682" lon="-4.976391">
        <ele>1685.154</ele>
        <time>2014-08-28T12:15:39Z</time>
      </trkpt>
      <trkpt lat="43.167680" lon="-4.976398">
        <ele>1685.040</ele>
        <time>2014-08-28T12:15:40Z</time>
      </trkpt>
      <trkpt lat="43.167615" lon="-4.976495">
        <ele>1680.868</ele>
        <time>2014-08-28T12:16:00Z</time>
      </trkpt>
      <trkpt lat="43.167585" lon="-4.976551">
        <ele>1679.242</ele>
        <time>2014-08-28T12:16:11Z</time>
      </trkpt>
      <trkpt lat="43.167557" lon="-4.976605">
        <ele>1678.626</ele>
        <time>2014-08-28T12:16:19Z</time>
      </trkpt>
      <trkpt lat="43.167523" lon="-4.976655">
        <ele>1676.807</ele>
        <time>2014-08-28T12:16:27Z</time>
      </trkpt>
      <trkpt lat="43.167485" lon="-4.976701">
        <ele>1674.894</ele>
        <time>2014-08-28T12:16:38Z</time>
      </trkpt>
      <trkpt lat="43.167495" lon="-4.976766">
        <ele>1672.036</ele>
        <time>2014-08-28T12:16:55Z</time>
      </trkpt>
      <trkpt lat="43.167497" lon="-4.976775">
        <ele>1671.957</ele>
        <time>2014-08-28T12:16:56Z</time>
      </trkpt>
      <trkpt lat="43.167492" lon="-4.976898">
        <ele>1670.280</ele>
        <time>2014-08-28T12:17:12Z</time>
      </trkpt>
      <trkpt lat="43.167495" lon="-4.976971">
        <ele>1668.619</ele>
        <time>2014-08-28T12:17:22Z</time>
      </trkpt>
      <trkpt lat="43.167470" lon="-4.977035">
        <ele>1667.166</ele>
        <time>2014-08-28T12:17:29Z</time>
      </trkpt>
      <trkpt lat="43.167445" lon="-4.977091">
        <ele>1666.082</ele>
        <time>2014-08-28T12:17:36Z</time>
      </trkpt>
      <trkpt lat="43.167418" lon="-4.977141">
        <ele>1664.841</ele>
        <time>2014-08-28T12:17:44Z</time>
      </trkpt>
      <trkpt lat="43.167392" lon="-4.977200">
        <ele>1663.381</ele>
        <time>2014-08-28T12:17:51Z</time>
      </trkpt>
      <trkpt lat="43.167385" lon="-4.977268">
        <ele>1662.609</ele>
        <time>2014-08-28T12:18:03Z</time>
      </trkpt>
      <trkpt lat="43.167383" lon="-4.977273">
        <ele>1662.407</ele>
        <time>2014-08-28T12:18:04Z</time>
      </trkpt>
      <trkpt lat="43.167313" lon="-4.977361">
        <ele>1659.552</ele>
        <time>2014-08-28T12:18:21Z</time>
      </trkpt>
      <trkpt lat="43.167268" lon="-4.977398">
        <ele>1657.784</ele>
        <time>2014-08-28T12:18:28Z</time>
      </trkpt>
      <trkpt lat="43.167267" lon="-4.977465">
        <ele>1657.075</ele>
        <time>2014-08-28T12:18:37Z</time>
      </trkpt>
      <trkpt lat="43.167297" lon="-4.977523">
        <ele>1655.058</ele>
        <time>2014-08-28T12:18:47Z</time>
      </trkpt>
      <trkpt lat="43.167285" lon="-4.977595">
        <ele>1654.127</ele>
        <time>2014-08-28T12:19:08Z</time>
      </trkpt>
      <trkpt lat="43.167285" lon="-4.977598">
        <ele>1654.144</ele>
        <time>2014-08-28T12:19:09Z</time>
      </trkpt>
      <trkpt lat="43.167243" lon="-4.977725">
        <ele>1651.220</ele>
        <time>2014-08-28T12:19:33Z</time>
      </trkpt>
      <trkpt lat="43.167197" lon="-4.977745">
        <ele>1649.892</ele>
        <time>2014-08-28T12:19:43Z</time>
      </trkpt>
      <trkpt lat="43.167147" lon="-4.977766">
        <ele>1648.673</ele>
        <time>2014-08-28T12:19:51Z</time>
      </trkpt>
      <trkpt lat="43.167107" lon="-4.977800">
        <ele>1646.420</ele>
        <time>2014-08-28T12:19:59Z</time>
      </trkpt>
      <trkpt lat="43.167089" lon="-4.977863">
        <ele>1646.507</ele>
        <time>2014-08-28T12:20:05Z</time>
      </trkpt>
      <trkpt lat="43.167062" lon="-4.977921">
        <ele>1645.087</ele>
        <time>2014-08-28T12:20:15Z</time>
      </trkpt>
      <trkpt lat="43.167058" lon="-4.977928">
        <ele>1644.839</ele>
        <time>2014-08-28T12:20:16Z</time>
      </trkpt>
      <trkpt lat="43.167035" lon="-4.978055">
        <ele>1641.160</ele>
        <time>2014-08-28T12:20:38Z</time>
      </trkpt>
      <trkpt lat="43.167010" lon="-4.978118">
        <ele>1640.733</ele>
        <time>2014-08-28T12:20:46Z</time>
      </trkpt>
      <trkpt lat="43.166987" lon="-4.978181">
        <ele>1638.572</ele>
        <time>2014-08-28T12:20:56Z</time>
      </trkpt>
      <trkpt lat="43.166982" lon="-4.978255">
        <ele>1637.419</ele>
        <time>2014-08-28T12:21:05Z</time>
      </trkpt>
      <trkpt lat="43.166982" lon="-4.978328">
        <ele>1635.675</ele>
        <time>2014-08-28T12:21:13Z</time>
      </trkpt>
      <trkpt lat="43.166978" lon="-4.978398">
        <ele>1634.776</ele>
        <time>2014-08-28T12:21:22Z</time>
      </trkpt>
      <trkpt lat="43.166975" lon="-4.978405">
        <ele>1634.590</ele>
        <time>2014-08-28T12:21:23Z</time>
      </trkpt>
      <trkpt lat="43.166948" lon="-4.978531">
        <ele>1632.219</ele>
        <time>2014-08-28T12:21:35Z</time>
      </trkpt>
      <trkpt lat="43.166933" lon="-4.978600">
        <ele>1631.407</ele>
        <time>2014-08-28T12:21:42Z</time>
      </trkpt>
      <trkpt lat="43.166903" lon="-4.978648">
        <ele>1630.055</ele>
        <time>2014-08-28T12:21:48Z</time>
      </trkpt>
      <trkpt lat="43.166860" lon="-4.978690">
        <ele>1628.857</ele>
        <time>2014-08-28T12:21:53Z</time>
      </trkpt>
      <trkpt lat="43.166823" lon="-4.978736">
        <ele>1628.638</ele>
        <time>2014-08-28T12:22:00Z</time>
      </trkpt>
      <trkpt lat="43.166778" lon="-4.978763">
        <ele>1626.941</ele>
        <time>2014-08-28T12:22:07Z</time>
      </trkpt>
      <trkpt lat="43.166740" lon="-4.978793">
        <ele>1625.510</ele>
        <time>2014-08-28T12:22:12Z</time>
      </trkpt>
      <trkpt lat="43.166708" lon="-4.978836">
        <ele>1624.927</ele>
        <time>2014-08-28T12:22:16Z</time>
      </trkpt>
      <trkpt lat="43.166672" lon="-4.978890">
        <ele>1623.963</ele>
        <time>2014-08-28T12:22:22Z</time>
      </trkpt>
      <trkpt lat="43.166629" lon="-4.978925">
        <ele>1622.978</ele>
        <time>2014-08-28T12:22:27Z</time>
      </trkpt>
      <trkpt lat="43.166622" lon="-4.978935">
        <ele>1622.933</ele>
        <time>2014-08-28T12:22:28Z</time>
      </trkpt>
      <trkpt lat="43.166567" lon="-4.979023">
        <ele>1622.226</ele>
        <time>2014-08-28T12:22:42Z</time>
      </trkpt>
      <trkpt lat="43.166532" lon="-4.979073">
        <ele>1621.107</ele>
        <time>2014-08-28T12:22:46Z</time>
      </trkpt>
      <trkpt lat="43.166488" lon="-4.979110">
        <ele>1619.555</ele>
        <time>2014-08-28T12:22:54Z</time>
      </trkpt>
      <trkpt lat="43.166448" lon="-4.979150">
        <ele>1618.947</ele>
        <time>2014-08-28T12:23:04Z</time>
      </trkpt>
      <trkpt lat="43.166413" lon="-4.979196">
        <ele>1618.258</ele>
        <time>2014-08-28T12:23:10Z</time>
      </trkpt>
      <trkpt lat="43.166370" lon="-4.979243">
        <ele>1617.061</ele>
        <time>2014-08-28T12:23:21Z</time>
      </trkpt>
      <trkpt lat="43.166348" lon="-4.979303">
        <ele>1617.060</ele>
        <time>2014-08-28T12:23:31Z</time>
      </trkpt>
      <trkpt lat="43.166348" lon="-4.979313">
        <ele>1616.757</ele>
        <time>2014-08-28T12:23:32Z</time>
      </trkpt>
      <trkpt lat="43.166337" lon="-4.979348">
        <ele>1614.533</ele>
        <time>2014-08-28T12:24:35Z</time>
      </trkpt>
      <trkpt lat="43.166330" lon="-4.979351">
        <ele>1614.658</ele>
        <time>2014-08-28T12:24:36Z</time>
      </trkpt>
      <trkpt lat="43.166440" lon="-4.979320">
        <ele>1615.152</ele>
        <time>2014-08-28T12:24:59Z</time>
      </trkpt>
      <trkpt lat="43.166390" lon="-4.979345">
        <ele>1613.717</ele>
        <time>2014-08-28T12:25:20Z</time>
      </trkpt>
      <trkpt lat="43.166338" lon="-4.979330">
        <ele>1615.707</ele>
        <time>2014-08-28T12:25:38Z</time>
      </trkpt>
      <trkpt lat="43.166337" lon="-4.979328">
        <ele>1615.553</ele>
        <time>2014-08-28T12:25:39Z</time>
      </trkpt>
      <trkpt lat="43.166340" lon="-4.979318">
        <ele>1615.035</ele>
        <time>2014-08-28T12:26:48Z</time>
      </trkpt>
      <trkpt lat="43.166352" lon="-4.979313">
        <ele>1614.956</ele>
        <time>2014-08-28T12:26:49Z</time>
      </trkpt>
      <trkpt lat="43.166408" lon="-4.979413">
        <ele>1614.239</ele>
        <time>2014-08-28T12:27:06Z</time>
      </trkpt>
      <trkpt lat="43.166457" lon="-4.979426">
        <ele>1613.138</ele>
        <time>2014-08-28T12:27:10Z</time>
      </trkpt>
      <trkpt lat="43.166500" lon="-4.979456">
        <ele>1611.485</ele>
        <time>2014-08-28T12:27:18Z</time>
      </trkpt>
      <trkpt lat="43.166477" lon="-4.979520">
        <ele>1610.131</ele>
        <time>2014-08-28T12:27:34Z</time>
      </trkpt>
      <trkpt lat="43.166428" lon="-4.979536">
        <ele>1610.811</ele>
        <time>2014-08-28T12:27:42Z</time>
      </trkpt>
      <trkpt lat="43.166383" lon="-4.979560">
        <ele>1610.821</ele>
        <time>2014-08-28T12:27:47Z</time>
      </trkpt>
      <trkpt lat="43.166380" lon="-4.979630">
        <ele>1610.503</ele>
        <time>2014-08-28T12:27:54Z</time>
      </trkpt>
      <trkpt lat="43.166382" lon="-4.979641">
        <ele>1610.507</ele>
        <time>2014-08-28T12:27:55Z</time>
      </trkpt>
      <trkpt lat="43.166399" lon="-4.979761">
        <ele>1607.239</ele>
        <time>2014-08-28T12:28:14Z</time>
      </trkpt>
      <trkpt lat="43.166382" lon="-4.979831">
        <ele>1606.981</ele>
        <time>2014-08-28T12:28:20Z</time>
      </trkpt>
      <trkpt lat="43.166367" lon="-4.979893">
        <ele>1606.672</ele>
        <time>2014-08-28T12:28:26Z</time>
      </trkpt>
      <trkpt lat="43.166373" lon="-4.979965">
        <ele>1604.725</ele>
        <time>2014-08-28T12:28:33Z</time>
      </trkpt>
      <trkpt lat="43.166425" lon="-4.979985">
        <ele>1602.464</ele>
        <time>2014-08-28T12:28:41Z</time>
      </trkpt>
      <trkpt lat="43.166470" lon="-4.979963">
        <ele>1602.471</ele>
        <time>2014-08-28T12:28:48Z</time>
      </trkpt>
      <trkpt lat="43.166518" lon="-4.979940">
        <ele>1601.117</ele>
        <time>2014-08-28T12:28:53Z</time>
      </trkpt>
      <trkpt lat="43.166568" lon="-4.979923">
        <ele>1600.433</ele>
        <time>2014-08-28T12:28:58Z</time>
      </trkpt>
      <trkpt lat="43.166578" lon="-4.979923">
        <ele>1600.223</ele>
        <time>2014-08-28T12:28:59Z</time>
      </trkpt>
      <trkpt lat="43.166670" lon="-4.979986">
        <ele>1596.215</ele>
        <time>2014-08-28T12:29:17Z</time>
      </trkpt>
      <trkpt lat="43.166723" lon="-4.979991">
        <ele>1594.107</ele>
        <time>2014-08-28T12:29:25Z</time>
      </trkpt>
      <trkpt lat="43.166767" lon="-4.979958">
        <ele>1593.831</ele>
        <time>2014-08-28T12:29:29Z</time>
      </trkpt>
      <trkpt lat="43.166805" lon="-4.979943">
        <ele>1593.623</ele>
        <time>2014-08-28T12:29:35Z</time>
      </trkpt>
      <trkpt lat="43.166857" lon="-4.979938">
        <ele>1592.484</ele>
        <time>2014-08-28T12:29:39Z</time>
      </trkpt>
      <trkpt lat="43.166898" lon="-4.979973">
        <ele>1589.877</ele>
        <time>2014-08-28T12:29:50Z</time>
      </trkpt>
      <trkpt lat="43.166948" lon="-4.980000">
        <ele>1588.346</ele>
        <time>2014-08-28T12:29:57Z</time>
      </trkpt>
      <trkpt lat="43.166968" lon="-4.980065">
        <ele>1587.713</ele>
        <time>2014-08-28T12:30:08Z</time>
      </trkpt>
      <trkpt lat="43.166963" lon="-4.980071">
        <ele>1587.789</ele>
        <time>2014-08-28T12:30:09Z</time>
      </trkpt>
      <trkpt lat="43.166923" lon="-4.980188">
        <ele>1585.366</ele>
        <time>2014-08-28T12:30:21Z</time>
      </trkpt>
      <trkpt lat="43.166887" lon="-4.980238">
        <ele>1584.529</ele>
        <time>2014-08-28T12:30:33Z</time>
      </trkpt>
      <trkpt lat="43.166857" lon="-4.980288">
        <ele>1584.121</ele>
        <time>2014-08-28T12:30:43Z</time>
      </trkpt>
      <trkpt lat="43.166893" lon="-4.980338">
        <ele>1583.607</ele>
        <time>2014-08-28T12:30:59Z</time>
      </trkpt>
      <trkpt lat="43.166913" lon="-4.980405">
        <ele>1581.944</ele>
        <time>2014-08-28T12:31:18Z</time>
      </trkpt>
      <trkpt lat="43.166913" lon="-4.980410">
        <ele>1581.786</ele>
        <time>2014-08-28T12:31:19Z</time>
      </trkpt>
      <trkpt lat="43.166857" lon="-4.980510">
        <ele>1579.327</ele>
        <time>2014-08-28T12:31:41Z</time>
      </trkpt>
      <trkpt lat="43.166828" lon="-4.980560">
        <ele>1579.010</ele>
        <time>2014-08-28T12:31:46Z</time>
      </trkpt>
      <trkpt lat="43.166787" lon="-4.980601">
        <ele>1577.439</ele>
        <time>2014-08-28T12:31:53Z</time>
      </trkpt>
      <trkpt lat="43.166827" lon="-4.980648">
        <ele>1574.886</ele>
        <time>2014-08-28T12:32:09Z</time>
      </trkpt>
      <trkpt lat="43.166872" lon="-4.980633">
        <ele>1573.792</ele>
        <time>2014-08-28T12:32:16Z</time>
      </trkpt>
      <trkpt lat="43.166925" lon="-4.980636">
        <ele>1572.364</ele>
        <time>2014-08-28T12:32:21Z</time>
      </trkpt>
      <trkpt lat="43.166935" lon="-4.980641">
        <ele>1571.806</ele>
        <time>2014-08-28T12:32:22Z</time>
      </trkpt>
      <trkpt lat="43.166995" lon="-4.980731">
        <ele>1568.516</ele>
        <time>2014-08-28T12:32:39Z</time>
      </trkpt>
      <trkpt lat="43.167062" lon="-4.980760">
        <ele>1568.807</ele>
        <time>2014-08-28T12:32:45Z</time>
      </trkpt>
      <trkpt lat="43.167080" lon="-4.980820">
        <ele>1568.474</ele>
        <time>2014-08-28T12:32:54Z</time>
      </trkpt>
      <trkpt lat="43.167092" lon="-4.980890">
        <ele>1566.156</ele>
        <time>2014-08-28T12:33:01Z</time>
      </trkpt>
      <trkpt lat="43.167073" lon="-4.980946">
        <ele>1565.327</ele>
        <time>2014-08-28T12:33:06Z</time>
      </trkpt>
      <trkpt lat="43.167052" lon="-4.981013">
        <ele>1564.430</ele>
        <time>2014-08-28T12:33:13Z</time>
      </trkpt>
      <trkpt lat="43.167007" lon="-4.981046">
        <ele>1562.819</ele>
        <time>2014-08-28T12:33:18Z</time>
      </trkpt>
      <trkpt lat="43.167000" lon="-4.981113">
        <ele>1562.636</ele>
        <time>2014-08-28T12:33:26Z</time>
      </trkpt>
      <trkpt lat="43.166998" lon="-4.981120">
        <ele>1562.472</ele>
        <time>2014-08-28T12:33:27Z</time>
      </trkpt>
      <trkpt lat="43.166967" lon="-4.981233">
        <ele>1558.417</ele>
        <time>2014-08-28T12:33:39Z</time>
      </trkpt>
      <trkpt lat="43.166952" lon="-4.981293">
        <ele>1556.687</ele>
        <time>2014-08-28T12:33:47Z</time>
      </trkpt>
      <trkpt lat="43.166957" lon="-4.981361">
        <ele>1555.615</ele>
        <time>2014-08-28T12:33:57Z</time>
      </trkpt>
      <trkpt lat="43.166937" lon="-4.981428">
        <ele>1553.907</ele>
        <time>2014-08-28T12:34:07Z</time>
      </trkpt>
      <trkpt lat="43.166922" lon="-4.981496">
        <ele>1550.729</ele>
        <time>2014-08-28T12:34:25Z</time>
      </trkpt>
      <trkpt lat="43.166960" lon="-4.981543">
        <ele>1548.411</ele>
        <time>2014-08-28T12:34:35Z</time>
      </trkpt>
      <trkpt lat="43.166962" lon="-4.981548">
        <ele>1548.032</ele>
        <time>2014-08-28T12:34:36Z</time>
      </trkpt>
      <trkpt lat="43.166950" lon="-4.981663">
        <ele>1544.995</ele>
        <time>2014-08-28T12:35:01Z</time>
      </trkpt>
      <trkpt lat="43.166932" lon="-4.981723">
        <ele>1543.514</ele>
        <time>2014-08-28T12:35:10Z</time>
      </trkpt>
      <trkpt lat="43.166932" lon="-4.981790">
        <ele>1542.361</ele>
        <time>2014-08-28T12:35:18Z</time>
      </trkpt>
      <trkpt lat="43.166937" lon="-4.981855">
        <ele>1542.397</ele>
        <time>2014-08-28T12:35:25Z</time>
      </trkpt>
      <trkpt lat="43.166922" lon="-4.981916">
        <ele>1542.169</ele>
        <time>2014-08-28T12:35:29Z</time>
      </trkpt>
      <trkpt lat="43.166892" lon="-4.981968">
        <ele>1541.304</ele>
        <time>2014-08-28T12:35:32Z</time>
      </trkpt>
      <trkpt lat="43.166920" lon="-4.982025">
        <ele>1538.624</ele>
        <time>2014-08-28T12:35:57Z</time>
      </trkpt>
      <trkpt lat="43.166925" lon="-4.982026">
        <ele>1538.507</ele>
        <time>2014-08-28T12:35:58Z</time>
      </trkpt>
      <trkpt lat="43.166943" lon="-4.982155">
        <ele>1534.444</ele>
        <time>2014-08-28T12:36:22Z</time>
      </trkpt>
      <trkpt lat="43.166965" lon="-4.982213">
        <ele>1532.456</ele>
        <time>2014-08-28T12:36:36Z</time>
      </trkpt>
      <trkpt lat="43.167010" lon="-4.982216">
        <ele>1530.727</ele>
        <time>2014-08-28T12:36:40Z</time>
      </trkpt>
      <trkpt lat="43.167060" lon="-4.982210">
        <ele>1531.010</ele>
        <time>2014-08-28T12:36:44Z</time>
      </trkpt>
      <trkpt lat="43.167067" lon="-4.982273">
        <ele>1529.479</ele>
        <time>2014-08-28T12:36:56Z</time>
      </trkpt>
      <trkpt lat="43.167090" lon="-4.982336">
        <ele>1525.996</ele>
        <time>2014-08-28T12:37:16Z</time>
      </trkpt>
      <trkpt lat="43.167087" lon="-4.982343">
        <ele>1525.862</ele>
        <time>2014-08-28T12:37:17Z</time>
      </trkpt>
      <trkpt lat="43.167187" lon="-4.982348">
        <ele>1522.449</ele>
        <time>2014-08-28T12:37:56Z</time>
      </trkpt>
      <trkpt lat="43.167237" lon="-4.982368">
        <ele>1520.702</ele>
        <time>2014-08-28T12:38:01Z</time>
      </trkpt>
      <trkpt lat="43.167228" lon="-4.982436">
        <ele>1519.122</ele>
        <time>2014-08-28T12:38:12Z</time>
      </trkpt>
      <trkpt lat="43.167193" lon="-4.982486">
        <ele>1517.907</ele>
        <time>2014-08-28T12:38:21Z</time>
      </trkpt>
      <trkpt lat="43.167188" lon="-4.982493">
        <ele>1518.162</ele>
        <time>2014-08-28T12:38:22Z</time>
      </trkpt>
      <trkpt lat="43.167167" lon="-4.982611">
        <ele>1515.134</ele>
        <time>2014-08-28T12:38:43Z</time>
      </trkpt>
      <trkpt lat="43.167208" lon="-4.982664">
        <ele>1514.045</ele>
        <time>2014-08-28T12:38:52Z</time>
      </trkpt>
      <trkpt lat="43.167182" lon="-4.982728">
        <ele>1512.318</ele>
        <time>2014-08-28T12:39:08Z</time>
      </trkpt>
      <trkpt lat="43.167153" lon="-4.982780">
        <ele>1510.457</ele>
        <time>2014-08-28T12:39:21Z</time>
      </trkpt>
      <trkpt lat="43.167173" lon="-4.982848">
        <ele>1508.694</ele>
        <time>2014-08-28T12:39:33Z</time>
      </trkpt>
      <trkpt lat="43.167183" lon="-4.982851">
        <ele>1508.870</ele>
        <time>2014-08-28T12:39:34Z</time>
      </trkpt>
      <trkpt lat="43.167182" lon="-4.982941">
        <ele>1506.081</ele>
        <time>2014-08-28T12:40:05Z</time>
      </trkpt>
      <trkpt lat="43.167135" lon="-4.982976">
        <ele>1505.161</ele>
        <time>2014-08-28T12:40:13Z</time>
      </trkpt>
      <trkpt lat="43.167095" lon="-4.983018">
        <ele>1504.917</ele>
        <time>2014-08-28T12:40:22Z</time>
      </trkpt>
      <trkpt lat="43.167085" lon="-4.983086">
        <ele>1504.407</ele>
        <time>2014-08-28T12:40:30Z</time>
      </trkpt>
      <trkpt lat="43.167113" lon="-4.983146">
        <ele>1503.076</ele>
        <time>2014-08-28T12:40:40Z</time>
      </trkpt>
      <trkpt lat="43.167117" lon="-4.983146">
        <ele>1502.918</ele>
        <time>2014-08-28T12:40:41Z</time>
      </trkpt>
      <trkpt lat="43.167213" lon="-4.983145">
        <ele>1501.619</ele>
        <time>2014-08-28T12:40:49Z</time>
      </trkpt>
      <trkpt lat="43.167223" lon="-4.983216">
        <ele>1498.712</ele>
        <time>2014-08-28T12:41:13Z</time>
      </trkpt>
      <trkpt lat="43.167197" lon="-4.983280">
        <ele>1497.061</ele>
        <time>2014-08-28T12:41:21Z</time>
      </trkpt>
      <trkpt lat="43.167188" lon="-4.983346">
        <ele>1496.568</ele>
        <time>2014-08-28T12:41:32Z</time>
      </trkpt>
      <trkpt lat="43.167153" lon="-4.983388">
        <ele>1495.234</ele>
        <time>2014-08-28T12:41:37Z</time>
      </trkpt>
      <trkpt lat="43.167120" lon="-4.983415">
        <ele>1494.758</ele>
        <time>2014-08-28T12:41:40Z</time>
      </trkpt>
      <trkpt lat="43.167078" lon="-4.983448">
        <ele>1493.652</ele>
        <time>2014-08-28T12:41:44Z</time>
      </trkpt>
      <trkpt lat="43.167070" lon="-4.983463">
        <ele>1493.217</ele>
        <time>2014-08-28T12:41:45Z</time>
      </trkpt>
      <trkpt lat="43.167022" lon="-4.983561">
        <ele>1492.607</ele>
        <time>2014-08-28T12:41:59Z</time>
      </trkpt>
      <trkpt lat="43.167003" lon="-4.983623">
        <ele>1490.943</ele>
        <time>2014-08-28T12:42:13Z</time>
      </trkpt>
      <trkpt lat="43.166970" lon="-4.983675">
        <ele>1490.055</ele>
        <time>2014-08-28T12:42:20Z</time>
      </trkpt>
      <trkpt lat="43.166937" lon="-4.983731">
        <ele>1487.926</ele>
        <time>2014-08-28T12:42:31Z</time>
      </trkpt>
      <trkpt lat="43.166887" lon="-4.983746">
        <ele>1486.469</ele>
        <time>2014-08-28T12:42:40Z</time>
      </trkpt>
      <trkpt lat="43.166900" lon="-4.983813">
        <ele>1487.268</ele>
        <time>2014-08-28T12:42:53Z</time>
      </trkpt>
      <trkpt lat="43.166897" lon="-4.983821">
        <ele>1487.525</ele>
        <time>2014-08-28T12:42:54Z</time>
      </trkpt>
      <trkpt lat="43.166877" lon="-4.983950">
        <ele>1485.411</ele>
        <time>2014-08-28T12:43:06Z</time>
      </trkpt>
      <trkpt lat="43.166843" lon="-4.984003">
        <ele>1485.028</ele>
        <time>2014-08-28T12:43:15Z</time>
      </trkpt>
      <trkpt lat="43.166807" lon="-4.984051">
        <ele>1483.189</ele>
        <time>2014-08-28T12:43:28Z</time>
      </trkpt>
      <trkpt lat="43.166780" lon="-4.984103">
        <ele>1481.617</ele>
        <time>2014-08-28T12:43:35Z</time>
      </trkpt>
      <trkpt lat="43.166737" lon="-4.984146">
        <ele>1480.907</ele>
        <time>2014-08-28T12:43:43Z</time>
      </trkpt>
      <trkpt lat="43.166720" lon="-4.984208">
        <ele>1479.570</ele>
        <time>2014-08-28T12:43:50Z</time>
      </trkpt>
      <trkpt lat="43.166693" lon="-4.984263">
        <ele>1478.382</ele>
        <time>2014-08-28T12:43:58Z</time>
      </trkpt>
      <trkpt lat="43.166693" lon="-4.984273">
        <ele>1478.093</ele>
        <time>2014-08-28T12:43:59Z</time>
      </trkpt>
      <trkpt lat="43.166715" lon="-4.984393">
        <ele>1475.146</ele>
        <time>2014-08-28T12:44:19Z</time>
      </trkpt>
      <trkpt lat="43.166723" lon="-4.984465">
        <ele>1473.325</ele>
        <time>2014-08-28T12:44:28Z</time>
      </trkpt>
      <trkpt lat="43.166728" lon="-4.984535">
        <ele>1471.162</ele>
        <time>2014-08-28T12:44:40Z</time>
      </trkpt>
      <trkpt lat="43.166703" lon="-4.984588">
        <ele>1471.498</ele>
        <time>2014-08-28T12:44:45Z</time>
      </trkpt>
      <trkpt lat="43.166680" lon="-4.984653">
        <ele>1470.064</ele>
        <time>2014-08-28T12:44:50Z</time>
      </trkpt>
      <trkpt lat="43.166653" lon="-4.984716">
        <ele>1469.706</ele>
        <time>2014-08-28T12:44:55Z</time>
      </trkpt>
      <trkpt lat="43.166643" lon="-4.984780">
        <ele>1469.216</ele>
        <time>2014-08-28T12:45:00Z</time>
      </trkpt>
      <trkpt lat="43.166622" lon="-4.984838">
        <ele>1468.607</ele>
        <time>2014-08-28T12:45:04Z</time>
      </trkpt>
      <trkpt lat="43.166613" lon="-4.984850">
        <ele>1468.244</ele>
        <time>2014-08-28T12:45:05Z</time>
      </trkpt>
      <trkpt lat="43.166553" lon="-4.984918">
        <ele>1465.816</ele>
        <time>2014-08-28T12:45:12Z</time>
      </trkpt>
      <trkpt lat="43.166523" lon="-4.984975">
        <ele>1464.527</ele>
        <time>2014-08-28T12:45:17Z</time>
      </trkpt>
      <trkpt lat="43.166507" lon="-4.985033">
        <ele>1463.520</ele>
        <time>2014-08-28T12:45:23Z</time>
      </trkpt>
      <trkpt lat="43.166507" lon="-4.985105">
        <ele>1462.019</ele>
        <time>2014-08-28T12:45:32Z</time>
      </trkpt>
      <trkpt lat="43.166488" lon="-4.985163">
        <ele>1460.396</ele>
        <time>2014-08-28T12:45:40Z</time>
      </trkpt>
      <trkpt lat="43.166463" lon="-4.985221">
        <ele>1459.362</ele>
        <time>2014-08-28T12:45:45Z</time>
      </trkpt>
      <trkpt lat="43.166440" lon="-4.985283">
        <ele>1457.856</ele>
        <time>2014-08-28T12:45:52Z</time>
      </trkpt>
      <trkpt lat="43.166418" lon="-4.985350">
        <ele>1457.059</ele>
        <time>2014-08-28T12:46:04Z</time>
      </trkpt>
      <trkpt lat="43.166400" lon="-4.985418">
        <ele>1455.914</ele>
        <time>2014-08-28T12:46:09Z</time>
      </trkpt>
      <trkpt lat="43.166399" lon="-4.985430">
        <ele>1455.607</ele>
        <time>2014-08-28T12:46:10Z</time>
      </trkpt>
      <trkpt lat="43.166397" lon="-4.985548">
        <ele>1455.493</ele>
        <time>2014-08-28T12:46:20Z</time>
      </trkpt>
      <trkpt lat="43.166390" lon="-4.985616">
        <ele>1454.075</ele>
        <time>2014-08-28T12:46:30Z</time>
      </trkpt>
      <trkpt lat="43.166410" lon="-4.985675">
        <ele>1453.046</ele>
        <time>2014-08-28T12:46:36Z</time>
      </trkpt>
      <trkpt lat="43.166410" lon="-4.985738">
        <ele>1451.949</ele>
        <time>2014-08-28T12:46:42Z</time>
      </trkpt>
      <trkpt lat="43.166422" lon="-4.985803">
        <ele>1451.598</ele>
        <time>2014-08-28T12:46:48Z</time>
      </trkpt>
      <trkpt lat="43.166437" lon="-4.985873">
        <ele>1450.585</ele>
        <time>2014-08-28T12:46:58Z</time>
      </trkpt>
      <trkpt lat="43.166408" lon="-4.985915">
        <ele>1449.871</ele>
        <time>2014-08-28T12:47:05Z</time>
      </trkpt>
      <trkpt lat="43.166377" lon="-4.985965">
        <ele>1449.136</ele>
        <time>2014-08-28T12:47:09Z</time>
      </trkpt>
      <trkpt lat="43.166342" lon="-4.986008">
        <ele>1448.117</ele>
        <time>2014-08-28T12:47:13Z</time>
      </trkpt>
      <trkpt lat="43.166335" lon="-4.986013">
        <ele>1447.918</ele>
        <time>2014-08-28T12:47:14Z</time>
      </trkpt>
      <trkpt lat="43.166343" lon="-4.986146">
        <ele>1445.707</ele>
        <time>2014-08-28T12:47:35Z</time>
      </trkpt>
      <trkpt lat="43.166332" lon="-4.986213">
        <ele>1443.951</ele>
        <time>2014-08-28T12:47:41Z</time>
      </trkpt>
      <trkpt lat="43.166320" lon="-4.986285">
        <ele>1442.233</ele>
        <time>2014-08-28T12:47:47Z</time>
      </trkpt>
      <trkpt lat="43.166310" lon="-4.986353">
        <ele>1441.954</ele>
        <time>2014-08-28T12:47:53Z</time>
      </trkpt>
      <trkpt lat="43.166295" lon="-4.986421">
        <ele>1440.577</ele>
        <time>2014-08-28T12:47:59Z</time>
      </trkpt>
      <trkpt lat="43.166284" lon="-4.986493">
        <ele>1439.176</ele>
        <time>2014-08-28T12:48:10Z</time>
      </trkpt>
      <trkpt lat="43.166255" lon="-4.986548">
        <ele>1437.163</ele>
        <time>2014-08-28T12:48:20Z</time>
      </trkpt>
      <trkpt lat="43.166252" lon="-4.986555">
        <ele>1437.119</ele>
        <time>2014-08-28T12:48:21Z</time>
      </trkpt>
      <trkpt lat="43.166205" lon="-4.986670">
        <ele>1436.462</ele>
        <time>2014-08-28T12:48:31Z</time>
      </trkpt>
      <trkpt lat="43.166177" lon="-4.986731">
        <ele>1438.183</ele>
        <time>2014-08-28T12:48:46Z</time>
      </trkpt>
      <trkpt lat="43.166130" lon="-4.986758">
        <ele>1435.711</ele>
        <time>2014-08-28T12:49:05Z</time>
      </trkpt>
      <trkpt lat="43.166092" lon="-4.986801">
        <ele>1435.307</ele>
        <time>2014-08-28T12:49:11Z</time>
      </trkpt>
      <trkpt lat="43.166042" lon="-4.986810">
        <ele>1434.374</ele>
        <time>2014-08-28T12:49:18Z</time>
      </trkpt>
      <trkpt lat="43.166002" lon="-4.986848">
        <ele>1432.436</ele>
        <time>2014-08-28T12:49:28Z</time>
      </trkpt>
      <trkpt lat="43.165998" lon="-4.986855">
        <ele>1432.117</ele>
        <time>2014-08-28T12:49:29Z</time>
      </trkpt>
      <trkpt lat="43.165918" lon="-4.986868">
        <ele>1431.280</ele>
        <time>2014-08-28T12:49:57Z</time>
      </trkpt>
      <trkpt lat="43.165885" lon="-4.986920">
        <ele>1429.179</ele>
        <time>2014-08-28T12:50:09Z</time>
      </trkpt>
      <trkpt lat="43.165847" lon="-4.986971">
        <ele>1422.936</ele>
        <time>2014-08-28T12:50:38Z</time>
      </trkpt>
      <trkpt lat="43.165833" lon="-4.986970">
        <ele>1422.322</ele>
        <time>2014-08-28T12:50:39Z</time>
      </trkpt>
      <trkpt lat="43.165748" lon="-4.986973">
        <ele>1419.268</ele>
        <time>2014-08-28T12:50:57Z</time>
      </trkpt>
      <trkpt lat="43.165713" lon="-4.987028">
        <ele>1417.542</ele>
        <time>2014-08-28T12:51:05Z</time>
      </trkpt>
      <trkpt lat="43.165692" lon="-4.987081">
        <ele>1415.926</ele>
        <time>2014-08-28T12:51:12Z</time>
      </trkpt>
      <trkpt lat="43.165678" lon="-4.987148">
        <ele>1415.307</ele>
        <time>2014-08-28T12:51:19Z</time>
      </trkpt>
      <trkpt lat="43.165653" lon="-4.987203">
        <ele>1413.954</ele>
        <time>2014-08-28T12:51:25Z</time>
      </trkpt>
      <trkpt lat="43.165623" lon="-4.987261">
        <ele>1411.896</ele>
        <time>2014-08-28T12:51:31Z</time>
      </trkpt>
      <trkpt lat="43.165593" lon="-4.987321">
        <ele>1410.837</ele>
        <time>2014-08-28T12:51:37Z</time>
      </trkpt>
      <trkpt lat="43.165578" lon="-4.987390">
        <ele>1408.910</ele>
        <time>2014-08-28T12:51:48Z</time>
      </trkpt>
      <trkpt lat="43.165580" lon="-4.987396">
        <ele>1409.099</ele>
        <time>2014-08-28T12:51:49Z</time>
      </trkpt>
      <trkpt lat="43.165560" lon="-4.987528">
        <ele>1405.646</ele>
        <time>2014-08-28T12:52:08Z</time>
      </trkpt>
      <trkpt lat="43.165557" lon="-4.987600">
        <ele>1403.762</ele>
        <time>2014-08-28T12:52:16Z</time>
      </trkpt>
      <trkpt lat="43.165560" lon="-4.987670">
        <ele>1402.893</ele>
        <time>2014-08-28T12:52:24Z</time>
      </trkpt>
      <trkpt lat="43.165568" lon="-4.987738">
        <ele>1400.665</ele>
        <time>2014-08-28T12:52:30Z</time>
      </trkpt>
      <trkpt lat="43.165567" lon="-4.987810">
        <ele>1399.121</ele>
        <time>2014-08-28T12:52:37Z</time>
      </trkpt>
      <trkpt lat="43.165537" lon="-4.987863">
        <ele>1399.007</ele>
        <time>2014-08-28T12:52:42Z</time>
      </trkpt>
      <trkpt lat="43.165512" lon="-4.987920">
        <ele>1399.237</ele>
        <time>2014-08-28T12:52:48Z</time>
      </trkpt>
      <trkpt lat="43.165485" lon="-4.987976">
        <ele>1398.429</ele>
        <time>2014-08-28T12:52:54Z</time>
      </trkpt>
      <trkpt lat="43.165485" lon="-4.987986">
        <ele>1398.340</ele>
        <time>2014-08-28T12:52:55Z</time>
      </trkpt>
      <trkpt lat="43.165453" lon="-4.988106">
        <ele>1395.343</ele>
        <time>2014-08-28T12:53:06Z</time>
      </trkpt>
      <trkpt lat="43.165477" lon="-4.988166">
        <ele>1393.682</ele>
        <time>2014-08-28T12:53:15Z</time>
      </trkpt>
      <trkpt lat="43.165517" lon="-4.988208">
        <ele>1393.239</ele>
        <time>2014-08-28T12:53:22Z</time>
      </trkpt>
      <trkpt lat="43.165562" lon="-4.988231">
        <ele>1392.465</ele>
        <time>2014-08-28T12:53:27Z</time>
      </trkpt>
      <trkpt lat="43.165590" lon="-4.988290">
        <ele>1390.261</ele>
        <time>2014-08-28T12:53:37Z</time>
      </trkpt>
      <trkpt lat="43.165567" lon="-4.988338">
        <ele>1389.221</ele>
        <time>2014-08-28T12:53:44Z</time>
      </trkpt>
      <trkpt lat="43.165530" lon="-4.988383">
        <ele>1388.113</ele>
        <time>2014-08-28T12:53:48Z</time>
      </trkpt>
      <trkpt lat="43.165502" lon="-4.988428">
        <ele>1388.107</ele>
        <time>2014-08-28T12:53:52Z</time>
      </trkpt>
      <trkpt lat="43.165470" lon="-4.988468">
        <ele>1386.874</ele>
        <time>2014-08-28T12:53:56Z</time>
      </trkpt>
      <trkpt lat="43.165460" lon="-4.988478">
        <ele>1386.796</ele>
        <time>2014-08-28T12:53:57Z</time>
      </trkpt>
      <trkpt lat="43.165398" lon="-4.988561">
        <ele>1385.897</ele>
        <time>2014-08-28T12:54:04Z</time>
      </trkpt>
      <trkpt lat="43.165413" lon="-4.988620">
        <ele>1385.110</ele>
        <time>2014-08-28T12:54:10Z</time>
      </trkpt>
      <trkpt lat="43.165428" lon="-4.988688">
        <ele>1384.199</ele>
        <time>2014-08-28T12:54:16Z</time>
      </trkpt>
      <trkpt lat="43.165450" lon="-4.988748">
        <ele>1382.216</ele>
        <time>2014-08-28T12:54:22Z</time>
      </trkpt>
      <trkpt lat="43.165483" lon="-4.988795">
        <ele>1381.322</ele>
        <time>2014-08-28T12:54:29Z</time>
      </trkpt>
      <trkpt lat="43.165475" lon="-4.988861">
        <ele>1380.412</ele>
        <time>2014-08-28T12:54:36Z</time>
      </trkpt>
      <trkpt lat="43.165455" lon="-4.988920">
        <ele>1379.732</ele>
        <time>2014-08-28T12:54:40Z</time>
      </trkpt>
      <trkpt lat="43.165425" lon="-4.988975">
        <ele>1377.705</ele>
        <time>2014-08-28T12:54:44Z</time>
      </trkpt>
      <trkpt lat="43.165388" lon="-4.989005">
        <ele>1377.507</ele>
        <time>2014-08-28T12:54:46Z</time>
      </trkpt>
      <trkpt lat="43.165358" lon="-4.989033">
        <ele>1377.149</ele>
        <time>2014-08-28T12:54:48Z</time>
      </trkpt>
      <trkpt lat="43.165322" lon="-4.989086">
        <ele>1375.511</ele>
        <time>2014-08-28T12:54:52Z</time>
      </trkpt>
      <trkpt lat="43.165325" lon="-4.989150">
        <ele>1375.672</ele>
        <time>2014-08-28T12:54:56Z</time>
      </trkpt>
      <trkpt lat="43.165322" lon="-4.989216">
        <ele>1374.595</ele>
        <time>2014-08-28T12:55:02Z</time>
      </trkpt>
      <trkpt lat="43.165315" lon="-4.989225">
        <ele>1374.274</ele>
        <time>2014-08-28T12:55:03Z</time>
      </trkpt>
      <trkpt lat="43.165285" lon="-4.989345">
        <ele>1371.891</ele>
        <time>2014-08-28T12:55:12Z</time>
      </trkpt>
      <trkpt lat="43.165305" lon="-4.989396">
        <ele>1370.927</ele>
        <time>2014-08-28T12:55:16Z</time>
      </trkpt>
      <trkpt lat="43.165345" lon="-4.989445">
        <ele>1371.022</ele>
        <time>2014-08-28T12:55:20Z</time>
      </trkpt>
      <trkpt lat="43.165382" lon="-4.989496">
        <ele>1370.562</ele>
        <time>2014-08-28T12:55:26Z</time>
      </trkpt>
      <trkpt lat="43.165385" lon="-4.989566">
        <ele>1367.908</ele>
        <time>2014-08-28T12:55:33Z</time>
      </trkpt>
      <trkpt lat="43.165365" lon="-4.989628">
        <ele>1367.207</ele>
        <time>2014-08-28T12:55:39Z</time>
      </trkpt>
      <trkpt lat="43.165375" lon="-4.989698">
        <ele>1365.580</ele>
        <time>2014-08-28T12:55:45Z</time>
      </trkpt>
      <trkpt lat="43.165413" lon="-4.989725">
        <ele>1365.542</ele>
        <time>2014-08-28T12:55:48Z</time>
      </trkpt>
      <trkpt lat="43.165455" lon="-4.989738">
        <ele>1365.253</ele>
        <time>2014-08-28T12:55:50Z</time>
      </trkpt>
      <trkpt lat="43.165524" lon="-4.989774">
        <ele>1363.076</ele>
        <time>2014-08-28T12:55:54Z</time>
      </trkpt>
      <trkpt lat="43.165572" lon="-4.989791">
        <ele>1363.955</ele>
        <time>2014-08-28T12:55:57Z</time>
      </trkpt>
      <trkpt lat="43.165618" lon="-4.989805">
        <ele>1363.862</ele>
        <time>2014-08-28T12:55:59Z</time>
      </trkpt>
      <trkpt lat="43.165658" lon="-4.989846">
        <ele>1363.768</ele>
        <time>2014-08-28T12:56:03Z</time>
      </trkpt>
      <trkpt lat="43.165670" lon="-4.989908">
        <ele>1361.488</ele>
        <time>2014-08-28T12:56:11Z</time>
      </trkpt>
      <trkpt lat="43.165675" lon="-4.989918">
        <ele>1361.424</ele>
        <time>2014-08-28T12:56:12Z</time>
      </trkpt>
      <trkpt lat="43.165683" lon="-4.990046">
        <ele>1359.026</ele>
        <time>2014-08-28T12:56:23Z</time>
      </trkpt>
      <trkpt lat="43.165693" lon="-4.990113">
        <ele>1358.407</ele>
        <time>2014-08-28T12:56:29Z</time>
      </trkpt>
      <trkpt lat="43.165665" lon="-4.990163">
        <ele>1358.056</ele>
        <time>2014-08-28T12:56:32Z</time>
      </trkpt>
      <trkpt lat="43.165655" lon="-4.990233">
        <ele>1356.488</ele>
        <time>2014-08-28T12:56:37Z</time>
      </trkpt>
      <trkpt lat="43.165642" lon="-4.990295">
        <ele>1353.819</ele>
        <time>2014-08-28T12:56:43Z</time>
      </trkpt>
      <trkpt lat="43.165648" lon="-4.990353">
        <ele>1353.832</ele>
        <time>2014-08-28T12:56:47Z</time>
      </trkpt>
      <trkpt lat="43.165617" lon="-4.990411">
        <ele>1352.761</ele>
        <time>2014-08-28T12:56:51Z</time>
      </trkpt>
      <trkpt lat="43.165618" lon="-4.990480">
        <ele>1352.568</ele>
        <time>2014-08-28T12:56:56Z</time>
      </trkpt>
      <trkpt lat="43.165632" lon="-4.990550">
        <ele>1351.764</ele>
        <time>2014-08-28T12:57:02Z</time>
      </trkpt>
      <trkpt lat="43.165603" lon="-4.990588">
        <ele>1351.892</ele>
        <time>2014-08-28T12:57:05Z</time>
      </trkpt>
      <trkpt lat="43.165572" lon="-4.990630">
        <ele>1351.373</ele>
        <time>2014-08-28T12:57:08Z</time>
      </trkpt>
      <trkpt lat="43.165547" lon="-4.990675">
        <ele>1351.220</ele>
        <time>2014-08-28T12:57:11Z</time>
      </trkpt>
      <trkpt lat="43.165537" lon="-4.990740">
        <ele>1349.907</ele>
        <time>2014-08-28T12:57:17Z</time>
      </trkpt>
      <trkpt lat="43.165530" lon="-4.990750">
        <ele>1350.347</ele>
        <time>2014-08-28T12:57:18Z</time>
      </trkpt>
      <trkpt lat="43.165518" lon="-4.990838">
        <ele>1349.789</ele>
        <time>2014-08-28T12:57:27Z</time>
      </trkpt>
      <trkpt lat="43.165605" lon="-4.990877">
        <ele>1349.080</ele>
        <time>2014-08-28T12:57:31Z</time>
      </trkpt>
      <trkpt lat="43.165657" lon="-4.990888">
        <ele>1349.483</ele>
        <time>2014-08-28T12:57:35Z</time>
      </trkpt>
      <trkpt lat="43.165612" lon="-4.990921">
        <ele>1348.462</ele>
        <time>2014-08-28T12:57:48Z</time>
      </trkpt>
      <trkpt lat="43.165562" lon="-4.990901">
        <ele>1349.599</ele>
        <time>2014-08-28T12:58:04Z</time>
      </trkpt>
      <trkpt lat="43.165512" lon="-4.990881">
        <ele>1349.155</ele>
        <time>2014-08-28T12:58:12Z</time>
      </trkpt>
      <trkpt lat="43.165467" lon="-4.990873">
        <ele>1349.873</ele>
        <time>2014-08-28T12:58:16Z</time>
      </trkpt>
      <trkpt lat="43.165517" lon="-4.990850">
        <ele>1349.785</ele>
        <time>2014-08-28T12:58:40Z</time>
      </trkpt>
      <trkpt lat="43.165530" lon="-4.990850">
        <ele>1349.813</ele>
        <time>2014-08-28T12:58:41Z</time>
      </trkpt>
      <trkpt lat="43.165615" lon="-4.990846">
        <ele>1349.007</ele>
        <time>2014-08-28T12:58:48Z</time>
      </trkpt>
      <trkpt lat="43.165665" lon="-4.990858">
        <ele>1349.345</ele>
        <time>2014-08-28T12:58:57Z</time>
      </trkpt>
      <trkpt lat="43.165718" lon="-4.990865">
        <ele>1349.757</ele>
        <time>2014-08-28T12:59:06Z</time>
      </trkpt>
      <trkpt lat="43.165763" lon="-4.990863">
        <ele>1348.818</ele>
        <time>2014-08-28T12:59:10Z</time>
      </trkpt>
      <trkpt lat="43.165810" lon="-4.990860">
        <ele>1349.031</ele>
        <time>2014-08-28T12:59:14Z</time>
      </trkpt>
      <trkpt lat="43.165777" lon="-4.990916">
        <ele>1348.720</ele>
        <time>2014-08-28T12:59:41Z</time>
      </trkpt>
      <trkpt lat="43.165765" lon="-4.990920">
        <ele>1349.417</ele>
        <time>2014-08-28T12:59:42Z</time>
      </trkpt>
      <trkpt lat="43.165767" lon="-4.990900">
        <ele>1349.793</ele>
        <time>2014-08-28T13:00:24Z</time>
      </trkpt>
      <trkpt lat="43.165817" lon="-4.990910">
        <ele>1349.866</ele>
        <time>2014-08-28T13:00:29Z</time>
      </trkpt>
      <trkpt lat="43.165763" lon="-4.990911">
        <ele>1349.329</ele>
        <time>2014-08-28T13:00:50Z</time>
      </trkpt>
      <trkpt lat="43.165760" lon="-4.990910">
        <ele>1349.121</ele>
        <time>2014-08-28T13:00:51Z</time>
      </trkpt>
      <trkpt lat="43.165772" lon="-4.990831">
        <ele>1349.707</ele>
        <time>2014-08-28T13:01:43Z</time>
      </trkpt>
      <trkpt lat="43.165825" lon="-4.990825">
        <ele>1348.964</ele>
        <time>2014-08-28T13:01:47Z</time>
      </trkpt>
      <trkpt lat="43.165872" lon="-4.990826">
        <ele>1348.646</ele>
        <time>2014-08-28T13:01:52Z</time>
      </trkpt>
      <trkpt lat="43.165880" lon="-4.990826">
        <ele>1348.827</ele>
        <time>2014-08-28T13:01:53Z</time>
      </trkpt>
      <trkpt lat="43.165950" lon="-4.990845">
        <ele>1350.280</ele>
        <time>2014-08-28T13:02:14Z</time>
      </trkpt>
      <trkpt lat="43.165983" lon="-4.990843">
        <ele>1350.279</ele>
        <time>2014-08-28T13:02:15Z</time>
      </trkpt>
      <trkpt lat="43.166017" lon="-4.990841">
        <ele>1350.216</ele>
        <time>2014-08-28T13:02:16Z</time>
      </trkpt>
      <trkpt lat="43.166050" lon="-4.990840">
        <ele>1350.292</ele>
        <time>2014-08-28T13:02:17Z</time>
      </trkpt>
      <trkpt lat="43.166100" lon="-4.990840">
        <ele>1350.057</ele>
        <time>2014-08-28T13:02:19Z</time>
      </trkpt>
      <trkpt lat="43.166052" lon="-4.990866">
        <ele>1348.900</ele>
        <time>2014-08-28T13:02:28Z</time>
      </trkpt>
      <trkpt lat="43.166012" lon="-4.990883">
        <ele>1349.420</ele>
        <time>2014-08-28T13:02:32Z</time>
      </trkpt>
      <trkpt lat="43.165960" lon="-4.990896">
        <ele>1349.807</ele>
        <time>2014-08-28T13:02:39Z</time>
      </trkpt>
      <trkpt lat="43.165912" lon="-4.990913">
        <ele>1349.513</ele>
        <time>2014-08-28T13:02:46Z</time>
      </trkpt>
      <trkpt lat="43.165883" lon="-4.990918">
        <ele>1349.645</ele>
        <time>2014-08-28T13:02:47Z</time>
      </trkpt>
      <trkpt lat="43.165840" lon="-4.990878">
        <ele>1350.736</ele>
        <time>2014-08-28T13:03:18Z</time>
      </trkpt>
      <trkpt lat="43.165835" lon="-4.990866">
        <ele>1350.989</ele>
        <time>2014-08-28T13:03:19Z</time>
      </trkpt>
      <trkpt lat="43.165757" lon="-4.990870">
        <ele>1351.368</ele>
        <time>2014-08-28T13:03:26Z</time>
      </trkpt>
      <trkpt lat="43.165705" lon="-4.990888">
        <ele>1351.935</ele>
        <time>2014-08-28T13:03:29Z</time>
      </trkpt>
      <trkpt lat="43.165660" lon="-4.990921">
        <ele>1351.271</ele>
        <time>2014-08-28T13:03:33Z</time>
      </trkpt>
      <trkpt lat="43.165637" lon="-4.990988">
        <ele>1350.872</ele>
        <time>2014-08-28T13:03:42Z</time>
      </trkpt>
      <trkpt lat="43.165623" lon="-4.991055">
        <ele>1349.913</ele>
        <time>2014-08-28T13:03:48Z</time>
      </trkpt>
      <trkpt lat="43.165630" lon="-4.991120">
        <ele>1350.014</ele>
        <time>2014-08-28T13:03:55Z</time>
      </trkpt>
      <trkpt lat="43.165682" lon="-4.991136">
        <ele>1348.307</ele>
        <time>2014-08-28T13:04:04Z</time>
      </trkpt>
      <trkpt lat="43.165680" lon="-4.991210">
        <ele>1349.515</ele>
        <time>2014-08-28T13:04:12Z</time>
      </trkpt>
      <trkpt lat="43.165678" lon="-4.991276">
        <ele>1348.467</ele>
        <time>2014-08-28T13:04:18Z</time>
      </trkpt>
      <trkpt lat="43.165688" lon="-4.991345">
        <ele>1348.688</ele>
        <time>2014-08-28T13:04:23Z</time>
      </trkpt>
      <trkpt lat="43.165685" lon="-4.991355">
        <ele>1348.971</ele>
        <time>2014-08-28T13:04:24Z</time>
      </trkpt>
      <trkpt lat="43.165715" lon="-4.991465">
        <ele>1347.440</ele>
        <time>2014-08-28T13:04:35Z</time>
      </trkpt>
      <trkpt lat="43.165748" lon="-4.991513">
        <ele>1347.397</ele>
        <time>2014-08-28T13:04:41Z</time>
      </trkpt>
      <trkpt lat="43.165755" lon="-4.991581">
        <ele>1347.033</ele>
        <time>2014-08-28T13:04:47Z</time>
      </trkpt>
      <trkpt lat="43.165782" lon="-4.991641">
        <ele>1348.592</ele>
        <time>2014-08-28T13:04:56Z</time>
      </trkpt>
      <trkpt lat="43.165795" lon="-4.991705">
        <ele>1350.573</ele>
        <time>2014-08-28T13:05:06Z</time>
      </trkpt>
      <trkpt lat="43.165818" lon="-4.991771">
        <ele>1352.620</ele>
        <time>2014-08-28T13:05:17Z</time>
      </trkpt>
      <trkpt lat="43.165822" lon="-4.991838">
        <ele>1353.207</ele>
        <time>2014-08-28T13:05:24Z</time>
      </trkpt>
      <trkpt lat="43.165830" lon="-4.991901">
        <ele>1354.087</ele>
        <time>2014-08-28T13:05:29Z</time>
      </trkpt>
      <trkpt lat="43.165832" lon="-4.991911">
        <ele>1354.419</ele>
        <time>2014-08-28T13:05:30Z</time>
      </trkpt>
      <trkpt lat="43.165878" lon="-4.992013">
        <ele>1354.990</ele>
        <time>2014-08-28T13:05:43Z</time>
      </trkpt>
      <trkpt lat="43.165913" lon="-4.992065">
        <ele>1354.323</ele>
        <time>2014-08-28T13:05:50Z</time>
      </trkpt>
      <trkpt lat="43.165955" lon="-4.992110">
        <ele>1355.062</ele>
        <time>2014-08-28T13:05:56Z</time>
      </trkpt>
      <trkpt lat="43.165995" lon="-4.992150">
        <ele>1354.589</ele>
        <time>2014-08-28T13:06:02Z</time>
      </trkpt>
      <trkpt lat="43.166043" lon="-4.992181">
        <ele>1354.355</ele>
        <time>2014-08-28T13:06:08Z</time>
      </trkpt>
      <trkpt lat="43.166082" lon="-4.992223">
        <ele>1355.217</ele>
        <time>2014-08-28T13:06:15Z</time>
      </trkpt>
      <trkpt lat="43.166122" lon="-4.992270">
        <ele>1354.687</ele>
        <time>2014-08-28T13:06:23Z</time>
      </trkpt>
      <trkpt lat="43.166148" lon="-4.992321">
        <ele>1354.015</ele>
        <time>2014-08-28T13:06:29Z</time>
      </trkpt>
      <trkpt lat="43.166150" lon="-4.992385">
        <ele>1353.107</ele>
        <time>2014-08-28T13:06:36Z</time>
      </trkpt>
      <trkpt lat="43.166153" lon="-4.992396">
        <ele>1353.169</ele>
        <time>2014-08-28T13:06:37Z</time>
      </trkpt>
      <trkpt lat="43.166169" lon="-4.992515">
        <ele>1352.361</ele>
        <time>2014-08-28T13:06:47Z</time>
      </trkpt>
      <trkpt lat="43.166193" lon="-4.992570">
        <ele>1352.242</ele>
        <time>2014-08-28T13:06:53Z</time>
      </trkpt>
      <trkpt lat="43.166223" lon="-4.992618">
        <ele>1352.025</ele>
        <time>2014-08-28T13:06:58Z</time>
      </trkpt>
      <trkpt lat="43.166270" lon="-4.992653">
        <ele>1351.644</ele>
        <time>2014-08-28T13:07:03Z</time>
      </trkpt>
      <trkpt lat="43.166312" lon="-4.992688">
        <ele>1351.161</ele>
        <time>2014-08-28T13:07:09Z</time>
      </trkpt>
      <trkpt lat="43.166353" lon="-4.992715">
        <ele>1352.047</ele>
        <time>2014-08-28T13:07:14Z</time>
      </trkpt>
      <trkpt lat="43.166393" lon="-4.992741">
        <ele>1351.628</ele>
        <time>2014-08-28T13:07:19Z</time>
      </trkpt>
      <trkpt lat="43.166442" lon="-4.992773">
        <ele>1351.689</ele>
        <time>2014-08-28T13:07:25Z</time>
      </trkpt>
      <trkpt lat="43.166488" lon="-4.992808">
        <ele>1354.017</ele>
        <time>2014-08-28T13:07:33Z</time>
      </trkpt>
      <trkpt lat="43.166535" lon="-4.992831">
        <ele>1354.507</ele>
        <time>2014-08-28T13:07:40Z</time>
      </trkpt>
      <trkpt lat="43.166542" lon="-4.992840">
        <ele>1354.650</ele>
        <time>2014-08-28T13:07:41Z</time>
      </trkpt>
      <trkpt lat="43.166613" lon="-4.992911">
        <ele>1354.242</ele>
        <time>2014-08-28T13:07:50Z</time>
      </trkpt>
      <trkpt lat="43.166633" lon="-4.992968">
        <ele>1353.933</ele>
        <time>2014-08-28T13:07:56Z</time>
      </trkpt>
      <trkpt lat="43.166670" lon="-4.993021">
        <ele>1353.546</ele>
        <time>2014-08-28T13:08:03Z</time>
      </trkpt>
      <trkpt lat="43.166687" lon="-4.993086">
        <ele>1352.835</ele>
        <time>2014-08-28T13:08:09Z</time>
      </trkpt>
      <trkpt lat="43.166712" lon="-4.993151">
        <ele>1351.652</ele>
        <time>2014-08-28T13:08:16Z</time>
      </trkpt>
      <trkpt lat="43.166703" lon="-4.993216">
        <ele>1351.738</ele>
        <time>2014-08-28T13:08:21Z</time>
      </trkpt>
      <trkpt lat="43.166722" lon="-4.993283">
        <ele>1351.464</ele>
        <time>2014-08-28T13:08:26Z</time>
      </trkpt>
      <trkpt lat="43.166745" lon="-4.993341">
        <ele>1351.206</ele>
        <time>2014-08-28T13:08:30Z</time>
      </trkpt>
      <trkpt lat="43.166772" lon="-4.993401">
        <ele>1351.616</ele>
        <time>2014-08-28T13:08:34Z</time>
      </trkpt>
      <trkpt lat="43.166778" lon="-4.993465">
        <ele>1351.407</ele>
        <time>2014-08-28T13:08:38Z</time>
      </trkpt>
      <trkpt lat="43.166785" lon="-4.993526">
        <ele>1350.944</ele>
        <time>2014-08-28T13:08:43Z</time>
      </trkpt>
      <trkpt lat="43.166785" lon="-4.993543">
        <ele>1350.956</ele>
        <time>2014-08-28T13:08:44Z</time>
      </trkpt>
      <trkpt lat="43.166815" lon="-4.993651">
        <ele>1351.517</ele>
        <time>2014-08-28T13:08:52Z</time>
      </trkpt>
      <trkpt lat="43.166847" lon="-4.993701">
        <ele>1351.980</ele>
        <time>2014-08-28T13:08:57Z</time>
      </trkpt>
      <trkpt lat="43.166877" lon="-4.993755">
        <ele>1351.649</ele>
        <time>2014-08-28T13:09:02Z</time>
      </trkpt>
      <trkpt lat="43.166907" lon="-4.993805">
        <ele>1351.836</ele>
        <time>2014-08-28T13:09:07Z</time>
      </trkpt>
      <trkpt lat="43.166952" lon="-4.993836">
        <ele>1351.462</ele>
        <time>2014-08-28T13:09:12Z</time>
      </trkpt>
      <trkpt lat="43.166987" lon="-4.993883">
        <ele>1351.455</ele>
        <time>2014-08-28T13:09:17Z</time>
      </trkpt>
      <trkpt lat="43.167027" lon="-4.993928">
        <ele>1350.107</ele>
        <time>2014-08-28T13:09:22Z</time>
      </trkpt>
      <trkpt lat="43.167060" lon="-4.993973">
        <ele>1349.417</ele>
        <time>2014-08-28T13:09:26Z</time>
      </trkpt>
      <trkpt lat="43.167083" lon="-4.994026">
        <ele>1349.607</ele>
        <time>2014-08-28T13:09:31Z</time>
      </trkpt>
      <trkpt lat="43.167100" lon="-4.994090">
        <ele>1349.883</ele>
        <time>2014-08-28T13:09:38Z</time>
      </trkpt>
      <trkpt lat="43.167122" lon="-4.994151">
        <ele>1350.725</ele>
        <time>2014-08-28T13:09:46Z</time>
      </trkpt>
      <trkpt lat="43.167128" lon="-4.994160">
        <ele>1350.876</ele>
        <time>2014-08-28T13:09:47Z</time>
      </trkpt>
      <trkpt lat="43.167188" lon="-4.994248">
        <ele>1350.639</ele>
        <time>2014-08-28T13:10:00Z</time>
      </trkpt>
      <trkpt lat="43.167204" lon="-4.994313">
        <ele>1349.838</ele>
        <time>2014-08-28T13:10:05Z</time>
      </trkpt>
      <trkpt lat="43.167225" lon="-4.994366">
        <ele>1349.285</ele>
        <time>2014-08-28T13:10:09Z</time>
      </trkpt>
      <trkpt lat="43.167263" lon="-4.994413">
        <ele>1348.871</ele>
        <time>2014-08-28T13:10:14Z</time>
      </trkpt>
      <trkpt lat="43.167303" lon="-4.994461">
        <ele>1348.441</ele>
        <time>2014-08-28T13:10:19Z</time>
      </trkpt>
      <trkpt lat="43.167310" lon="-4.994533">
        <ele>1348.181</ele>
        <time>2014-08-28T13:10:26Z</time>
      </trkpt>
      <trkpt lat="43.167335" lon="-4.994586">
        <ele>1346.909</ele>
        <time>2014-08-28T13:10:32Z</time>
      </trkpt>
      <trkpt lat="43.167348" lon="-4.994646">
        <ele>1346.707</ele>
        <time>2014-08-28T13:10:38Z</time>
      </trkpt>
      <trkpt lat="43.167347" lon="-4.994710">
        <ele>1346.792</ele>
        <time>2014-08-28T13:10:43Z</time>
      </trkpt>
      <trkpt lat="43.167367" lon="-4.994775">
        <ele>1346.194</ele>
        <time>2014-08-28T13:10:49Z</time>
      </trkpt>
      <trkpt lat="43.167370" lon="-4.994781">
        <ele>1346.015</ele>
        <time>2014-08-28T13:10:50Z</time>
      </trkpt>
      <trkpt lat="43.167452" lon="-4.994791">
        <ele>1342.928</ele>
        <time>2014-08-28T13:11:03Z</time>
      </trkpt>
      <trkpt lat="43.167495" lon="-4.994795">
        <ele>1343.957</ele>
        <time>2014-08-28T13:11:07Z</time>
      </trkpt>
      <trkpt lat="43.167545" lon="-4.994808">
        <ele>1342.094</ele>
        <time>2014-08-28T13:11:15Z</time>
      </trkpt>
      <trkpt lat="43.167577" lon="-4.994858">
        <ele>1340.770</ele>
        <time>2014-08-28T13:11:22Z</time>
      </trkpt>
      <trkpt lat="43.167613" lon="-4.994896">
        <ele>1341.247</ele>
        <time>2014-08-28T13:11:26Z</time>
      </trkpt>
      <trkpt lat="43.167647" lon="-4.994946">
        <ele>1340.529</ele>
        <time>2014-08-28T13:11:31Z</time>
      </trkpt>
      <trkpt lat="43.167672" lon="-4.995011">
        <ele>1339.721</ele>
        <time>2014-08-28T13:11:37Z</time>
      </trkpt>
      <trkpt lat="43.167695" lon="-4.995075">
        <ele>1338.907</ele>
        <time>2014-08-28T13:11:44Z</time>
      </trkpt>
      <trkpt lat="43.167712" lon="-4.995145">
        <ele>1338.522</ele>
        <time>2014-08-28T13:11:51Z</time>
      </trkpt>
      <trkpt lat="43.167755" lon="-4.995186">
        <ele>1338.574</ele>
        <time>2014-08-28T13:11:59Z</time>
      </trkpt>
      <trkpt lat="43.167762" lon="-4.995191">
        <ele>1338.515</ele>
        <time>2014-08-28T13:12:00Z</time>
      </trkpt>
      <trkpt lat="43.167827" lon="-4.995286">
        <ele>1337.228</ele>
        <time>2014-08-28T13:12:17Z</time>
      </trkpt>
      <trkpt lat="43.167853" lon="-4.995348">
        <ele>1337.667</ele>
        <time>2014-08-28T13:12:27Z</time>
      </trkpt>
      <trkpt lat="43.167843" lon="-4.995406">
        <ele>1336.374</ele>
        <time>2014-08-28T13:12:34Z</time>
      </trkpt>
      <trkpt lat="43.167808" lon="-4.995450">
        <ele>1334.970</ele>
        <time>2014-08-28T13:12:38Z</time>
      </trkpt>
      <trkpt lat="43.167808" lon="-4.995513">
        <ele>1335.049</ele>
        <time>2014-08-28T13:12:46Z</time>
      </trkpt>
      <trkpt lat="43.167817" lon="-4.995578">
        <ele>1335.402</ele>
        <time>2014-08-28T13:12:52Z</time>
      </trkpt>
      <trkpt lat="43.167838" lon="-4.995638">
        <ele>1335.022</ele>
        <time>2014-08-28T13:12:59Z</time>
      </trkpt>
      <trkpt lat="43.167868" lon="-4.995693">
        <ele>1335.207</ele>
        <time>2014-08-28T13:13:05Z</time>
      </trkpt>
      <trkpt lat="43.167862" lon="-4.995706">
        <ele>1335.272</ele>
        <time>2014-08-28T13:13:06Z</time>
      </trkpt>
      <trkpt lat="43.167837" lon="-4.995820">
        <ele>1335.374</ele>
        <time>2014-08-28T13:13:15Z</time>
      </trkpt>
      <trkpt lat="43.167845" lon="-4.995886">
        <ele>1334.515</ele>
        <time>2014-08-28T13:13:20Z</time>
      </trkpt>
      <trkpt lat="43.167823" lon="-4.995950">
        <ele>1334.358</ele>
        <time>2014-08-28T13:13:25Z</time>
      </trkpt>
      <trkpt lat="43.167795" lon="-4.995991">
        <ele>1334.667</ele>
        <time>2014-08-28T13:13:28Z</time>
      </trkpt>
      <trkpt lat="43.167770" lon="-4.996051">
        <ele>1335.264</ele>
        <time>2014-08-28T13:13:33Z</time>
      </trkpt>
      <trkpt lat="43.167740" lon="-4.996091">
        <ele>1335.340</ele>
        <time>2014-08-28T13:13:36Z</time>
      </trkpt>
      <trkpt lat="43.167717" lon="-4.996156">
        <ele>1334.216</ele>
        <time>2014-08-28T13:13:42Z</time>
      </trkpt>
      <trkpt lat="43.167728" lon="-4.996213">
        <ele>1334.176</ele>
        <time>2014-08-28T13:13:47Z</time>
      </trkpt>
      <trkpt lat="43.167762" lon="-4.996266">
        <ele>1333.113</ele>
        <time>2014-08-28T13:13:52Z</time>
      </trkpt>
      <trkpt lat="43.167797" lon="-4.996315">
        <ele>1332.507</ele>
        <time>2014-08-28T13:14:10Z</time>
      </trkpt>
      <trkpt lat="43.167802" lon="-4.996316">
        <ele>1332.429</ele>
        <time>2014-08-28T13:14:11Z</time>
      </trkpt>
      <trkpt lat="43.167797" lon="-4.996456">
        <ele>1329.391</ele>
        <time>2014-08-28T13:14:35Z</time>
      </trkpt>
      <trkpt lat="43.167805" lon="-4.996523">
        <ele>1327.142</ele>
        <time>2014-08-28T13:15:02Z</time>
      </trkpt>
      <trkpt lat="43.167800" lon="-4.996581">
        <ele>1326.775</ele>
        <time>2014-08-28T13:15:07Z</time>
      </trkpt>
      <trkpt lat="43.167803" lon="-4.996653">
        <ele>1326.874</ele>
        <time>2014-08-28T13:15:12Z</time>
      </trkpt>
      <trkpt lat="43.167793" lon="-4.996720">
        <ele>1326.911</ele>
        <time>2014-08-28T13:15:17Z</time>
      </trkpt>
      <trkpt lat="43.167795" lon="-4.996733">
        <ele>1326.847</ele>
        <time>2014-08-28T13:15:18Z</time>
      </trkpt>
      <trkpt lat="43.167805" lon="-4.996851">
        <ele>1329.063</ele>
        <time>2014-08-28T13:15:30Z</time>
      </trkpt>
      <trkpt lat="43.167812" lon="-4.996921">
        <ele>1329.244</ele>
        <time>2014-08-28T13:15:36Z</time>
      </trkpt>
      <trkpt lat="43.167835" lon="-4.996983">
        <ele>1330.318</ele>
        <time>2014-08-28T13:15:43Z</time>
      </trkpt>
      <trkpt lat="43.167840" lon="-4.997056">
        <ele>1331.007</ele>
        <time>2014-08-28T13:15:52Z</time>
      </trkpt>
      <trkpt lat="43.167808" lon="-4.997108">
        <ele>1330.824</ele>
        <time>2014-08-28T13:15:57Z</time>
      </trkpt>
      <trkpt lat="43.167793" lon="-4.997176">
        <ele>1330.556</ele>
        <time>2014-08-28T13:16:04Z</time>
      </trkpt>
      <trkpt lat="43.167785" lon="-4.997245">
        <ele>1331.027</ele>
        <time>2014-08-28T13:16:10Z</time>
      </trkpt>
      <trkpt lat="43.167780" lon="-4.997310">
        <ele>1331.580</ele>
        <time>2014-08-28T13:16:17Z</time>
      </trkpt>
      <trkpt lat="43.167752" lon="-4.997356">
        <ele>1331.749</ele>
        <time>2014-08-28T13:16:22Z</time>
      </trkpt>
      <trkpt lat="43.167745" lon="-4.997368">
        <ele>1331.456</ele>
        <time>2014-08-28T13:16:23Z</time>
      </trkpt>
      <trkpt lat="43.167747" lon="-4.997485">
        <ele>1331.722</ele>
        <time>2014-08-28T13:16:34Z</time>
      </trkpt>
      <trkpt lat="43.167738" lon="-4.997551">
        <ele>1332.244</ele>
        <time>2014-08-28T13:16:40Z</time>
      </trkpt>
      <trkpt lat="43.167745" lon="-4.997611">
        <ele>1333.305</ele>
        <time>2014-08-28T13:16:46Z</time>
      </trkpt>
      <trkpt lat="43.167752" lon="-4.997678">
        <ele>1332.415</ele>
        <time>2014-08-28T13:16:52Z</time>
      </trkpt>
      <trkpt lat="43.167747" lon="-4.997751">
        <ele>1332.307</ele>
        <time>2014-08-28T13:17:00Z</time>
      </trkpt>
      <trkpt lat="43.167740" lon="-4.997820">
        <ele>1331.632</ele>
        <time>2014-08-28T13:17:07Z</time>
      </trkpt>
      <trkpt lat="43.167725" lon="-4.997890">
        <ele>1332.674</ele>
        <time>2014-08-28T13:17:17Z</time>
      </trkpt>
      <trkpt lat="43.167733" lon="-4.997960">
        <ele>1332.425</ele>
        <time>2014-08-28T13:17:30Z</time>
      </trkpt>
      <trkpt lat="43.167740" lon="-4.997966">
        <ele>1332.288</ele>
        <time>2014-08-28T13:17:31Z</time>
      </trkpt>
      <trkpt lat="43.167773" lon="-4.998083">
        <ele>1331.747</ele>
        <time>2014-08-28T13:17:51Z</time>
      </trkpt>
      <trkpt lat="43.167760" lon="-4.998150">
        <ele>1331.814</ele>
        <time>2014-08-28T13:18:01Z</time>
      </trkpt>
      <trkpt lat="43.167767" lon="-4.998218">
        <ele>1332.360</ele>
        <time>2014-08-28T13:18:12Z</time>
      </trkpt>
      <trkpt lat="43.167763" lon="-4.998281">
        <ele>1331.575</ele>
        <time>2014-08-28T13:18:19Z</time>
      </trkpt>
      <trkpt lat="43.167755" lon="-4.998348">
        <ele>1330.928</ele>
        <time>2014-08-28T13:18:25Z</time>
      </trkpt>
      <trkpt lat="43.167740" lon="-4.998410">
        <ele>1331.120</ele>
        <time>2014-08-28T13:18:31Z</time>
      </trkpt>
      <trkpt lat="43.167710" lon="-4.998466">
        <ele>1331.107</ele>
        <time>2014-08-28T13:18:42Z</time>
      </trkpt>
      <trkpt lat="43.167707" lon="-4.998475">
        <ele>1331.265</ele>
        <time>2014-08-28T13:18:43Z</time>
      </trkpt>
      <trkpt lat="43.167675" lon="-4.998586">
        <ele>1331.217</ele>
        <time>2014-08-28T13:18:53Z</time>
      </trkpt>
      <trkpt lat="43.167647" lon="-4.998645">
        <ele>1330.948</ele>
        <time>2014-08-28T13:18:58Z</time>
      </trkpt>
      <trkpt lat="43.167623" lon="-4.998711">
        <ele>1330.331</ele>
        <time>2014-08-28T13:19:06Z</time>
      </trkpt>
      <trkpt lat="43.167587" lon="-4.998756">
        <ele>1330.670</ele>
        <time>2014-08-28T13:19:13Z</time>
      </trkpt>
      <trkpt lat="43.167557" lon="-4.998815">
        <ele>1329.917</ele>
        <time>2014-08-28T13:19:19Z</time>
      </trkpt>
      <trkpt lat="43.167530" lon="-4.998876">
        <ele>1330.043</ele>
        <time>2014-08-28T13:19:24Z</time>
      </trkpt>
      <trkpt lat="43.167507" lon="-4.998935">
        <ele>1329.922</ele>
        <time>2014-08-28T13:19:29Z</time>
      </trkpt>
      <trkpt lat="43.167482" lon="-4.999000">
        <ele>1329.562</ele>
        <time>2014-08-28T13:19:34Z</time>
      </trkpt>
      <trkpt lat="43.167450" lon="-4.999048">
        <ele>1329.408</ele>
        <time>2014-08-28T13:19:38Z</time>
      </trkpt>
      <trkpt lat="43.167442" lon="-4.999120">
        <ele>1328.907</ele>
        <time>2014-08-28T13:19:44Z</time>
      </trkpt>
      <trkpt lat="43.167445" lon="-4.999135">
        <ele>1328.710</ele>
        <time>2014-08-28T13:19:45Z</time>
      </trkpt>
      <trkpt lat="43.167407" lon="-4.999236">
        <ele>1329.692</ele>
        <time>2014-08-28T13:19:53Z</time>
      </trkpt>
      <trkpt lat="43.167378" lon="-4.999285">
        <ele>1331.253</ele>
        <time>2014-08-28T13:20:00Z</time>
      </trkpt>
      <trkpt lat="43.167345" lon="-4.999335">
        <ele>1331.956</ele>
        <time>2014-08-28T13:20:06Z</time>
      </trkpt>
      <trkpt lat="43.167308" lon="-4.999381">
        <ele>1332.665</ele>
        <time>2014-08-28T13:20:12Z</time>
      </trkpt>
      <trkpt lat="43.167283" lon="-4.999445">
        <ele>1332.172</ele>
        <time>2014-08-28T13:20:21Z</time>
      </trkpt>
      <trkpt lat="43.167257" lon="-4.999505">
        <ele>1332.568</ele>
        <time>2014-08-28T13:20:28Z</time>
      </trkpt>
      <trkpt lat="43.167240" lon="-4.999565">
        <ele>1332.654</ele>
        <time>2014-08-28T13:20:36Z</time>
      </trkpt>
      <trkpt lat="43.167233" lon="-4.999631">
        <ele>1333.156</ele>
        <time>2014-08-28T13:20:43Z</time>
      </trkpt>
      <trkpt lat="43.167252" lon="-4.999696">
        <ele>1333.811</ele>
        <time>2014-08-28T13:20:51Z</time>
      </trkpt>
      <trkpt lat="43.167247" lon="-4.999711">
        <ele>1334.207</ele>
        <time>2014-08-28T13:20:52Z</time>
      </trkpt>
      <trkpt lat="43.167285" lon="-4.999826">
        <ele>1334.533</ele>
        <time>2014-08-28T13:21:01Z</time>
      </trkpt>
      <trkpt lat="43.167277" lon="-4.999890">
        <ele>1334.475</ele>
        <time>2014-08-28T13:21:06Z</time>
      </trkpt>
      <trkpt lat="43.167265" lon="-4.999956">
        <ele>1335.416</ele>
        <time>2014-08-28T13:21:13Z</time>
      </trkpt>
      <trkpt lat="43.167243" lon="-5.000011">
        <ele>1337.239</ele>
        <time>2014-08-28T13:21:19Z</time>
      </trkpt>
      <trkpt lat="43.167204" lon="-5.000048">
        <ele>1337.198</ele>
        <time>2014-08-28T13:21:25Z</time>
      </trkpt>
      <trkpt lat="43.167163" lon="-5.000090">
        <ele>1337.985</ele>
        <time>2014-08-28T13:21:31Z</time>
      </trkpt>
      <trkpt lat="43.167120" lon="-5.000128">
        <ele>1338.231</ele>
        <time>2014-08-28T13:21:40Z</time>
      </trkpt>
      <trkpt lat="43.167090" lon="-5.000171">
        <ele>1338.579</ele>
        <time>2014-08-28T13:21:45Z</time>
      </trkpt>
      <trkpt lat="43.167052" lon="-5.000223">
        <ele>1339.005</ele>
        <time>2014-08-28T13:21:52Z</time>
      </trkpt>
      <trkpt lat="43.167033" lon="-5.000290">
        <ele>1339.325</ele>
        <time>2014-08-28T13:22:05Z</time>
      </trkpt>
      <trkpt lat="43.167033" lon="-5.000298">
        <ele>1339.507</ele>
        <time>2014-08-28T13:22:06Z</time>
      </trkpt>
      <trkpt lat="43.167007" lon="-5.000425">
        <ele>1341.045</ele>
        <time>2014-08-28T13:22:19Z</time>
      </trkpt>
      <trkpt lat="43.166998" lon="-5.000491">
        <ele>1341.657</ele>
        <time>2014-08-28T13:22:24Z</time>
      </trkpt>
      <trkpt lat="43.166968" lon="-5.000548">
        <ele>1342.278</ele>
        <time>2014-08-28T13:22:30Z</time>
      </trkpt>
      <trkpt lat="43.166932" lon="-5.000598">
        <ele>1341.481</ele>
        <time>2014-08-28T13:22:36Z</time>
      </trkpt>
      <trkpt lat="43.166895" lon="-5.000640">
        <ele>1341.030</ele>
        <time>2014-08-28T13:22:41Z</time>
      </trkpt>
      <trkpt lat="43.166877" lon="-5.000706">
        <ele>1340.757</ele>
        <time>2014-08-28T13:22:50Z</time>
      </trkpt>
      <trkpt lat="43.166917" lon="-5.000746">
        <ele>1340.893</ele>
        <time>2014-08-28T13:23:02Z</time>
      </trkpt>
      <trkpt lat="43.166962" lon="-5.000781">
        <ele>1341.933</ele>
        <time>2014-08-28T13:23:11Z</time>
      </trkpt>
      <trkpt lat="43.166968" lon="-5.000790">
        <ele>1341.723</ele>
        <time>2014-08-28T13:23:12Z</time>
      </trkpt>
      <trkpt lat="43.167027" lon="-5.000886">
        <ele>1341.915</ele>
        <time>2014-08-28T13:23:26Z</time>
      </trkpt>
      <trkpt lat="43.167053" lon="-5.000946">
        <ele>1340.407</ele>
        <time>2014-08-28T13:23:31Z</time>
      </trkpt>
      <trkpt lat="43.167060" lon="-5.001010">
        <ele>1340.751</ele>
        <time>2014-08-28T13:23:36Z</time>
      </trkpt>
      <trkpt lat="43.167068" lon="-5.001076">
        <ele>1340.573</ele>
        <time>2014-08-28T13:23:41Z</time>
      </trkpt>
      <trkpt lat="43.167065" lon="-5.001146">
        <ele>1340.724</ele>
        <time>2014-08-28T13:23:46Z</time>
      </trkpt>
      <trkpt lat="43.167043" lon="-5.001206">
        <ele>1340.067</ele>
        <time>2014-08-28T13:23:50Z</time>
      </trkpt>
      <trkpt lat="43.167025" lon="-5.001273">
        <ele>1339.196</ele>
        <time>2014-08-28T13:23:54Z</time>
      </trkpt>
      <trkpt lat="43.167010" lon="-5.001340">
        <ele>1338.283</ele>
        <time>2014-08-28T13:23:59Z</time>
      </trkpt>
      <trkpt lat="43.166993" lon="-5.001396">
        <ele>1337.699</ele>
        <time>2014-08-28T13:24:03Z</time>
      </trkpt>
      <trkpt lat="43.166993" lon="-5.001470">
        <ele>1337.552</ele>
        <time>2014-08-28T13:24:08Z</time>
      </trkpt>
      <trkpt lat="43.167002" lon="-5.001533">
        <ele>1336.753</ele>
        <time>2014-08-28T13:24:13Z</time>
      </trkpt>
      <trkpt lat="43.166997" lon="-5.001605">
        <ele>1335.108</ele>
        <time>2014-08-28T13:24:20Z</time>
      </trkpt>
      <trkpt lat="43.166997" lon="-5.001616">
        <ele>1335.107</ele>
        <time>2014-08-28T13:24:21Z</time>
      </trkpt>
      <trkpt lat="43.167053" lon="-5.001711">
        <ele>1334.913</ele>
        <time>2014-08-28T13:24:29Z</time>
      </trkpt>
      <trkpt lat="43.167072" lon="-5.001766">
        <ele>1334.445</ele>
        <time>2014-08-28T13:24:33Z</time>
      </trkpt>
      <trkpt lat="43.167098" lon="-5.001823">
        <ele>1334.456</ele>
        <time>2014-08-28T13:24:37Z</time>
      </trkpt>
      <trkpt lat="43.167115" lon="-5.001883">
        <ele>1334.669</ele>
        <time>2014-08-28T13:24:41Z</time>
      </trkpt>
      <trkpt lat="43.167147" lon="-5.001943">
        <ele>1334.748</ele>
        <time>2014-08-28T13:24:46Z</time>
      </trkpt>
      <trkpt lat="43.167195" lon="-5.001960">
        <ele>1334.325</ele>
        <time>2014-08-28T13:24:50Z</time>
      </trkpt>
      <trkpt lat="43.167247" lon="-5.001973">
        <ele>1334.411</ele>
        <time>2014-08-28T13:24:54Z</time>
      </trkpt>
      <trkpt lat="43.167282" lon="-5.002011">
        <ele>1334.359</ele>
        <time>2014-08-28T13:25:00Z</time>
      </trkpt>
      <trkpt lat="43.167325" lon="-5.002051">
        <ele>1334.903</ele>
        <time>2014-08-28T13:25:05Z</time>
      </trkpt>
      <trkpt lat="43.167360" lon="-5.002096">
        <ele>1335.223</ele>
        <time>2014-08-28T13:25:11Z</time>
      </trkpt>
      <trkpt lat="43.167390" lon="-5.002148">
        <ele>1335.007</ele>
        <time>2014-08-28T13:25:16Z</time>
      </trkpt>
      <trkpt lat="43.167418" lon="-5.002198">
        <ele>1334.973</ele>
        <time>2014-08-28T13:25:21Z</time>
      </trkpt>
      <trkpt lat="43.167457" lon="-5.002240">
        <ele>1335.445</ele>
        <time>2014-08-28T13:25:25Z</time>
      </trkpt>
      <trkpt lat="43.167470" lon="-5.002246">
        <ele>1335.346</ele>
        <time>2014-08-28T13:25:26Z</time>
      </trkpt>
      <trkpt lat="43.167518" lon="-5.002341">
        <ele>1334.259</ele>
        <time>2014-08-28T13:25:33Z</time>
      </trkpt>
      <trkpt lat="43.167528" lon="-5.002408">
        <ele>1334.648</ele>
        <time>2014-08-28T13:25:37Z</time>
      </trkpt>
      <trkpt lat="43.167542" lon="-5.002476">
        <ele>1335.265</ele>
        <time>2014-08-28T13:25:41Z</time>
      </trkpt>
      <trkpt lat="43.167568" lon="-5.002533">
        <ele>1334.681</ele>
        <time>2014-08-28T13:25:45Z</time>
      </trkpt>
      <trkpt lat="43.167595" lon="-5.002575">
        <ele>1334.542</ele>
        <time>2014-08-28T13:25:48Z</time>
      </trkpt>
      <trkpt lat="43.167613" lon="-5.002626">
        <ele>1335.322</ele>
        <time>2014-08-28T13:25:51Z</time>
      </trkpt>
      <trkpt lat="43.167633" lon="-5.002686">
        <ele>1336.014</ele>
        <time>2014-08-28T13:25:55Z</time>
      </trkpt>
      <trkpt lat="43.167630" lon="-5.002753">
        <ele>1336.507</ele>
        <time>2014-08-28T13:26:00Z</time>
      </trkpt>
      <trkpt lat="43.167635" lon="-5.002821">
        <ele>1336.942</ele>
        <time>2014-08-28T13:26:05Z</time>
      </trkpt>
      <trkpt lat="43.167640" lon="-5.002883">
        <ele>1336.654</ele>
        <time>2014-08-28T13:26:09Z</time>
      </trkpt>
      <trkpt lat="43.167633" lon="-5.002953">
        <ele>1337.375</ele>
        <time>2014-08-28T13:26:14Z</time>
      </trkpt>
      <trkpt lat="43.167647" lon="-5.003020">
        <ele>1337.898</ele>
        <time>2014-08-28T13:26:18Z</time>
      </trkpt>
      <trkpt lat="43.167648" lon="-5.003083">
        <ele>1338.357</ele>
        <time>2014-08-28T13:26:22Z</time>
      </trkpt>
      <trkpt lat="43.167642" lon="-5.003143">
        <ele>1337.824</ele>
        <time>2014-08-28T13:26:26Z</time>
      </trkpt>
      <trkpt lat="43.167627" lon="-5.003200">
        <ele>1338.780</ele>
        <time>2014-08-28T13:26:31Z</time>
      </trkpt>
      <trkpt lat="43.167622" lon="-5.003213">
        <ele>1338.456</ele>
        <time>2014-08-28T13:26:32Z</time>
      </trkpt>
      <trkpt lat="43.167617" lon="-5.003335">
        <ele>1340.259</ele>
        <time>2014-08-28T13:26:43Z</time>
      </trkpt>
      <trkpt lat="43.167592" lon="-5.003398">
        <ele>1340.714</ele>
        <time>2014-08-28T13:26:48Z</time>
      </trkpt>
      <trkpt lat="43.167587" lon="-5.003471">
        <ele>1340.007</ele>
        <time>2014-08-28T13:26:53Z</time>
      </trkpt>
      <trkpt lat="43.167573" lon="-5.003531">
        <ele>1340.993</ele>
        <time>2014-08-28T13:26:57Z</time>
      </trkpt>
      <trkpt lat="43.167549" lon="-5.003595">
        <ele>1340.595</ele>
        <time>2014-08-28T13:27:01Z</time>
      </trkpt>
      <trkpt lat="43.167545" lon="-5.003660">
        <ele>1341.436</ele>
        <time>2014-08-28T13:27:06Z</time>
      </trkpt>
      <trkpt lat="43.167542" lon="-5.003726">
        <ele>1341.639</ele>
        <time>2014-08-28T13:27:11Z</time>
      </trkpt>
      <trkpt lat="43.167520" lon="-5.003790">
        <ele>1342.638</ele>
        <time>2014-08-28T13:27:16Z</time>
      </trkpt>
      <trkpt lat="43.167508" lon="-5.003855">
        <ele>1343.045</ele>
        <time>2014-08-28T13:27:21Z</time>
      </trkpt>
      <trkpt lat="43.167483" lon="-5.003910">
        <ele>1342.581</ele>
        <time>2014-08-28T13:27:25Z</time>
      </trkpt>
      <trkpt lat="43.167450" lon="-5.003966">
        <ele>1342.812</ele>
        <time>2014-08-28T13:27:31Z</time>
      </trkpt>
      <trkpt lat="43.167434" lon="-5.004031">
        <ele>1342.132</ele>
        <time>2014-08-28T13:27:38Z</time>
      </trkpt>
      <trkpt lat="43.167428" lon="-5.004035">
        <ele>1342.305</ele>
        <time>2014-08-28T13:27:39Z</time>
      </trkpt>
      <trkpt lat="43.167358" lon="-5.004106">
        <ele>1342.707</ele>
        <time>2014-08-28T13:27:54Z</time>
      </trkpt>
      <trkpt lat="43.167337" lon="-5.004173">
        <ele>1343.729</ele>
        <time>2014-08-28T13:28:00Z</time>
      </trkpt>
      <trkpt lat="43.167357" lon="-5.004230">
        <ele>1343.471</ele>
        <time>2014-08-28T13:28:06Z</time>
      </trkpt>
      <trkpt lat="43.167342" lon="-5.004291">
        <ele>1344.292</ele>
        <time>2014-08-28T13:28:11Z</time>
      </trkpt>
      <trkpt lat="43.167313" lon="-5.004340">
        <ele>1344.445</ele>
        <time>2014-08-28T13:28:16Z</time>
      </trkpt>
      <trkpt lat="43.167288" lon="-5.004393">
        <ele>1344.794</ele>
        <time>2014-08-28T13:28:22Z</time>
      </trkpt>
      <trkpt lat="43.167270" lon="-5.004458">
        <ele>1345.551</ele>
        <time>2014-08-28T13:28:27Z</time>
      </trkpt>
      <trkpt lat="43.167243" lon="-5.004518">
        <ele>1346.287</ele>
        <time>2014-08-28T13:28:32Z</time>
      </trkpt>
      <trkpt lat="43.167215" lon="-5.004571">
        <ele>1346.567</ele>
        <time>2014-08-28T13:28:38Z</time>
      </trkpt>
      <trkpt lat="43.167193" lon="-5.004628">
        <ele>1346.981</ele>
        <time>2014-08-28T13:28:43Z</time>
      </trkpt>
      <trkpt lat="43.167190" lon="-5.004638">
        <ele>1346.919</ele>
        <time>2014-08-28T13:28:44Z</time>
      </trkpt>
      <trkpt lat="43.167177" lon="-5.004763">
        <ele>1347.807</ele>
        <time>2014-08-28T13:28:57Z</time>
      </trkpt>
      <trkpt lat="43.167175" lon="-5.004828">
        <ele>1348.064</ele>
        <time>2014-08-28T13:29:05Z</time>
      </trkpt>
      <trkpt lat="43.167185" lon="-5.004896">
        <ele>1347.016</ele>
        <time>2014-08-28T13:29:14Z</time>
      </trkpt>
      <trkpt lat="43.167182" lon="-5.004965">
        <ele>1348.137</ele>
        <time>2014-08-28T13:29:22Z</time>
      </trkpt>
      <trkpt lat="43.167200" lon="-5.005033">
        <ele>1348.220</ele>
        <time>2014-08-28T13:29:33Z</time>
      </trkpt>
      <trkpt lat="43.167213" lon="-5.005101">
        <ele>1350.679</ele>
        <time>2014-08-28T13:29:59Z</time>
      </trkpt>
      <trkpt lat="43.167210" lon="-5.005113">
        <ele>1351.066</ele>
        <time>2014-08-28T13:30:00Z</time>
      </trkpt>
      <trkpt lat="43.167207" lon="-5.005235">
        <ele>1354.122</ele>
        <time>2014-08-28T13:30:14Z</time>
      </trkpt>
      <trkpt lat="43.167168" lon="-5.005286">
        <ele>1355.755</ele>
        <time>2014-08-28T13:30:21Z</time>
      </trkpt>
      <trkpt lat="43.167130" lon="-5.005333">
        <ele>1356.407</ele>
        <time>2014-08-28T13:30:28Z</time>
      </trkpt>
      <trkpt lat="43.167098" lon="-5.005376">
        <ele>1357.817</ele>
        <time>2014-08-28T13:30:33Z</time>
      </trkpt>
      <trkpt lat="43.167070" lon="-5.005430">
        <ele>1357.607</ele>
        <time>2014-08-28T13:30:38Z</time>
      </trkpt>
      <trkpt lat="43.167025" lon="-5.005466">
        <ele>1359.023</ele>
        <time>2014-08-28T13:30:44Z</time>
      </trkpt>
      <trkpt lat="43.166985" lon="-5.005503">
        <ele>1358.715</ele>
        <time>2014-08-28T13:30:49Z</time>
      </trkpt>
      <trkpt lat="43.166947" lon="-5.005553">
        <ele>1359.326</ele>
        <time>2014-08-28T13:30:55Z</time>
      </trkpt>
      <trkpt lat="43.166903" lon="-5.005593">
        <ele>1360.129</ele>
        <time>2014-08-28T13:31:01Z</time>
      </trkpt>
      <trkpt lat="43.166872" lon="-5.005645">
        <ele>1360.218</ele>
        <time>2014-08-28T13:31:08Z</time>
      </trkpt>
      <trkpt lat="43.166863" lon="-5.005651">
        <ele>1360.845</ele>
        <time>2014-08-28T13:31:09Z</time>
      </trkpt>
      <trkpt lat="43.166768" lon="-5.005681">
        <ele>1361.031</ele>
        <time>2014-08-28T13:31:18Z</time>
      </trkpt>
      <trkpt lat="43.166720" lon="-5.005666">
        <ele>1360.221</ele>
        <time>2014-08-28T13:31:23Z</time>
      </trkpt>
      <trkpt lat="43.166672" lon="-5.005660">
        <ele>1360.241</ele>
        <time>2014-08-28T13:31:27Z</time>
      </trkpt>
      <trkpt lat="43.166627" lon="-5.005661">
        <ele>1359.805</ele>
        <time>2014-08-28T13:31:30Z</time>
      </trkpt>
      <trkpt lat="43.166585" lon="-5.005656">
        <ele>1359.707</ele>
        <time>2014-08-28T13:31:33Z</time>
      </trkpt>
      <trkpt lat="43.166542" lon="-5.005640">
        <ele>1359.150</ele>
        <time>2014-08-28T13:31:36Z</time>
      </trkpt>
      <trkpt lat="43.166490" lon="-5.005641">
        <ele>1359.352</ele>
        <time>2014-08-28T13:31:40Z</time>
      </trkpt>
      <trkpt lat="43.166447" lon="-5.005623">
        <ele>1359.813</ele>
        <time>2014-08-28T13:31:44Z</time>
      </trkpt>
      <trkpt lat="43.166407" lon="-5.005613">
        <ele>1360.566</ele>
        <time>2014-08-28T13:31:47Z</time>
      </trkpt>
      <trkpt lat="43.166363" lon="-5.005606">
        <ele>1360.245</ele>
        <time>2014-08-28T13:31:50Z</time>
      </trkpt>
      <trkpt lat="43.166322" lon="-5.005578">
        <ele>1360.522</ele>
        <time>2014-08-28T13:31:54Z</time>
      </trkpt>
      <trkpt lat="43.166282" lon="-5.005546">
        <ele>1360.538</ele>
        <time>2014-08-28T13:31:58Z</time>
      </trkpt>
      <trkpt lat="43.166247" lon="-5.005500">
        <ele>1360.911</ele>
        <time>2014-08-28T13:32:03Z</time>
      </trkpt>
      <trkpt lat="43.166215" lon="-5.005446">
        <ele>1360.021</ele>
        <time>2014-08-28T13:32:09Z</time>
      </trkpt>
      <trkpt lat="43.166182" lon="-5.005393">
        <ele>1360.103</ele>
        <time>2014-08-28T13:32:14Z</time>
      </trkpt>
      <trkpt lat="43.166177" lon="-5.005383">
        <ele>1360.207</ele>
        <time>2014-08-28T13:32:15Z</time>
      </trkpt>
      <trkpt lat="43.166123" lon="-5.005285">
        <ele>1360.029</ele>
        <time>2014-08-28T13:32:26Z</time>
      </trkpt>
      <trkpt lat="43.166113" lon="-5.005226">
        <ele>1359.761</ele>
        <time>2014-08-28T13:32:32Z</time>
      </trkpt>
      <trkpt lat="43.166110" lon="-5.005155">
        <ele>1360.942</ele>
        <time>2014-08-28T13:32:46Z</time>
      </trkpt>
      <trkpt lat="43.166112" lon="-5.005151">
        <ele>1360.965</ele>
        <time>2014-08-28T13:32:47Z</time>
      </trkpt>
      <trkpt lat="43.166112" lon="-5.005151">
        <ele>1360.924</ele>
        <time>2014-08-28T13:32:47Z</time>
      </trkpt>
    </trkseg>
  </trk>
</gpx>
